<?xml version='1.0' encoding='UTF-8'?><gpx version="1.1" creator="JPX - https://github.com/jenetics/jpx" xmlns="http://www.topografix.com/GPX/1/1"><trk><trkseg><trkpt lat="46.4148789" lon="12.9242427"><ele>361.0</ele><time>2026-05-03T10:21:00.992Z</time></trkpt><trkpt lat="46.4149485" lon="12.9242542"><ele>361.0</ele><time>2026-05-03T10:21:02.992Z</time></trkpt><trkpt lat="46.4150515" lon="12.9242316"><ele>361.0</ele><time>2026-05-03T10:21:04.992Z</time></trkpt><trkpt lat="46.4151623" lon="12.9241857"><ele>361.0</ele><time>2026-05-03T10:21:06.992Z</time></trkpt><trkpt lat="46.4152511" lon="12.9241365"><ele>361.0</ele><time>2026-05-03T10:21:08.991Z</time></trkpt><trkpt lat="46.4153139" lon="12.9240502"><ele>361.3333333333333</ele><time>2026-05-03T10:21:10.992Z</time></trkpt><trkpt lat="46.4153926" lon="12.9240069"><ele>361.66666666666663</ele><time>2026-05-03T10:21:13.991Z</time></trkpt><trkpt lat="46.4154971" lon="12.9240849"><ele>362.0</ele><time>2026-05-03T10:21:15.99Z</time></trkpt><trkpt lat="46.4155688" lon="12.9241312"><ele>362.3333333333333</ele><time>2026-05-03T10:21:16.991Z</time></trkpt><trkpt lat="46.4156299" lon="12.9241898"><ele>362.6666666666667</ele><time>2026-05-03T10:21:17.99Z</time></trkpt><trkpt lat="46.41569" lon="12.9242382"><ele>363.0</ele><time>2026-05-03T10:21:18.992Z</time></trkpt><trkpt lat="46.4157865" lon="12.9243105"><ele>363.0</ele><time>2026-05-03T10:21:20.991Z</time></trkpt><trkpt lat="46.4158649" lon="12.9243778"><ele>363.0</ele><time>2026-05-03T10:21:22.992Z</time></trkpt><trkpt lat="46.4159373" lon="12.9244225"><ele>363.0</ele><time>2026-05-03T10:21:25.992Z</time></trkpt><trkpt lat="46.4160173" lon="12.9244382"><ele>363.0</ele><time>2026-05-03T10:21:44.99Z</time></trkpt><trkpt lat="46.4160628" lon="12.9243565"><ele>363.0</ele><time>2026-05-03T10:21:45.991Z</time></trkpt><trkpt lat="46.4160967" lon="12.9242735"><ele>363.0</ele><time>2026-05-03T10:21:46.991Z</time></trkpt><trkpt lat="46.4161393" lon="12.9241645"><ele>363.2</ele><time>2026-05-03T10:21:47.991Z</time></trkpt><trkpt lat="46.4161861" lon="12.924035"><ele>363.4</ele><time>2026-05-03T10:21:48.991Z</time></trkpt><trkpt lat="46.4162361" lon="12.9238988"><ele>363.59999999999997</ele><time>2026-05-03T10:21:49.991Z</time></trkpt><trkpt lat="46.416279" lon="12.9237495"><ele>363.79999999999995</ele><time>2026-05-03T10:21:50.991Z</time></trkpt><trkpt lat="46.416321" lon="12.9235839"><ele>364.0</ele><time>2026-05-03T10:21:51.991Z</time></trkpt><trkpt lat="46.4163622" lon="12.9233943"><ele>364.5</ele><time>2026-05-03T10:21:52.991Z</time></trkpt><trkpt lat="46.4164039" lon="12.9231875"><ele>365.0</ele><time>2026-05-03T10:21:53.991Z</time></trkpt><trkpt lat="46.4164465" lon="12.9229824"><ele>365.5</ele><time>2026-05-03T10:21:54.992Z</time></trkpt><trkpt lat="46.4164891" lon="12.9227738"><ele>366.0</ele><time>2026-05-03T10:21:55.99Z</time></trkpt><trkpt lat="46.4165324" lon="12.9225617"><ele>366.0</ele><time>2026-05-03T10:21:56.991Z</time></trkpt><trkpt lat="46.4165756" lon="12.9223673"><ele>366.0</ele><time>2026-05-03T10:21:57.991Z</time></trkpt><trkpt lat="46.4166126" lon="12.922182"><ele>366.0</ele><time>2026-05-03T10:21:58.991Z</time></trkpt><trkpt lat="46.4166485" lon="12.9220068"><ele>366.0</ele><time>2026-05-03T10:21:59.991Z</time></trkpt><trkpt lat="46.4166823" lon="12.9218361"><ele>365.75</ele><time>2026-05-03T10:22:00.99Z</time></trkpt><trkpt lat="46.4167173" lon="12.9216679"><ele>365.5</ele><time>2026-05-03T10:22:01.991Z</time></trkpt><trkpt lat="46.4167491" lon="12.9215015"><ele>365.25</ele><time>2026-05-03T10:22:02.991Z</time></trkpt><trkpt lat="46.4167832" lon="12.921345"><ele>365.0</ele><time>2026-05-03T10:22:03.99Z</time></trkpt><trkpt lat="46.4168156" lon="12.9211951"><ele>365.0</ele><time>2026-05-03T10:22:04.991Z</time></trkpt><trkpt lat="46.4168429" lon="12.9210547"><ele>365.0</ele><time>2026-05-03T10:22:05.991Z</time></trkpt><trkpt lat="46.416865" lon="12.9209175"><ele>365.0</ele><time>2026-05-03T10:22:06.991Z</time></trkpt><trkpt lat="46.4168916" lon="12.9207786"><ele>365.0</ele><time>2026-05-03T10:22:07.99Z</time></trkpt><trkpt lat="46.4169174" lon="12.9206466"><ele>365.0</ele><time>2026-05-03T10:22:08.991Z</time></trkpt><trkpt lat="46.4169338" lon="12.9205239"><ele>365.2</ele><time>2026-05-03T10:22:09.991Z</time></trkpt><trkpt lat="46.4169388" lon="12.9204069"><ele>365.4</ele><time>2026-05-03T10:22:10.991Z</time></trkpt><trkpt lat="46.4169388" lon="12.9203021"><ele>365.6</ele><time>2026-05-03T10:22:11.992Z</time></trkpt><trkpt lat="46.4169532" lon="12.9201297"><ele>365.8</ele><time>2026-05-03T10:22:13.991Z</time></trkpt><trkpt lat="46.4170081" lon="12.9199754"><ele>366.0</ele><time>2026-05-03T10:22:15.992Z</time></trkpt><trkpt lat="46.4169875" lon="12.9198261"><ele>366.20000000000005</ele><time>2026-05-03T10:22:17.991Z</time></trkpt><trkpt lat="46.4169266" lon="12.9197895"><ele>366.40000000000003</ele><time>2026-05-03T10:22:18.991Z</time></trkpt><trkpt lat="46.4168447" lon="12.9197568"><ele>366.6</ele><time>2026-05-03T10:22:19.992Z</time></trkpt><trkpt lat="46.4167597" lon="12.9196805"><ele>366.8</ele><time>2026-05-03T10:22:20.991Z</time></trkpt><trkpt lat="46.4166679" lon="12.9195628"><ele>367.0</ele><time>2026-05-03T10:22:21.991Z</time></trkpt><trkpt lat="46.4165711" lon="12.919432"><ele>367.0</ele><time>2026-05-03T10:22:22.991Z</time></trkpt><trkpt lat="46.4164761" lon="12.9193007"><ele>367.0</ele><time>2026-05-03T10:22:23.991Z</time></trkpt><trkpt lat="46.4163719" lon="12.9191524"><ele>367.0</ele><time>2026-05-03T10:22:24.99Z</time></trkpt><trkpt lat="46.4162665" lon="12.9189987"><ele>367.0</ele><time>2026-05-03T10:22:25.991Z</time></trkpt><trkpt lat="46.4161516" lon="12.9188343"><ele>367.3333333333333</ele><time>2026-05-03T10:22:26.99Z</time></trkpt><trkpt lat="46.4160308" lon="12.9186635"><ele>367.6666666666667</ele><time>2026-05-03T10:22:27.991Z</time></trkpt><trkpt lat="46.4159116" lon="12.9184903"><ele>368.0</ele><time>2026-05-03T10:22:28.991Z</time></trkpt><trkpt lat="46.4157822" lon="12.918305"><ele>368.0</ele><time>2026-05-03T10:22:29.992Z</time></trkpt><trkpt lat="46.4156564" lon="12.9181126"><ele>368.0</ele><time>2026-05-03T10:22:30.991Z</time></trkpt><trkpt lat="46.415522" lon="12.9179117"><ele>368.0</ele><time>2026-05-03T10:22:31.992Z</time></trkpt><trkpt lat="46.4153827" lon="12.9177044"><ele>367.6666666666667</ele><time>2026-05-03T10:22:32.99Z</time></trkpt><trkpt lat="46.4152418" lon="12.9174976"><ele>367.3333333333333</ele><time>2026-05-03T10:22:33.991Z</time></trkpt><trkpt lat="46.4151029" lon="12.9172938"><ele>367.0</ele><time>2026-05-03T10:22:34.991Z</time></trkpt><trkpt lat="46.4149768" lon="12.9170933"><ele>367.0</ele><time>2026-05-03T10:22:35.991Z</time></trkpt><trkpt lat="46.4148645" lon="12.9168695"><ele>367.0</ele><time>2026-05-03T10:22:36.991Z</time></trkpt><trkpt lat="46.4147654" lon="12.9166229"><ele>367.0</ele><time>2026-05-03T10:22:37.99Z</time></trkpt><trkpt lat="46.4146753" lon="12.9163697"><ele>367.0</ele><time>2026-05-03T10:22:38.991Z</time></trkpt><trkpt lat="46.4145848" lon="12.9161133"><ele>367.0</ele><time>2026-05-03T10:22:39.99Z</time></trkpt><trkpt lat="46.4144909" lon="12.915851"><ele>367.0</ele><time>2026-05-03T10:22:40.992Z</time></trkpt><trkpt lat="46.4143975" lon="12.9155812"><ele>367.0</ele><time>2026-05-03T10:22:41.992Z</time></trkpt><trkpt lat="46.4143075" lon="12.9153189"><ele>367.0</ele><time>2026-05-03T10:22:42.99Z</time></trkpt><trkpt lat="46.4142156" lon="12.915053"><ele>367.0</ele><time>2026-05-03T10:22:43.992Z</time></trkpt><trkpt lat="46.4141228" lon="12.9147841"><ele>367.66666666666663</ele><time>2026-05-03T10:22:44.991Z</time></trkpt><trkpt lat="46.4140315" lon="12.9145172"><ele>368.3333333333333</ele><time>2026-05-03T10:22:45.991Z</time></trkpt><trkpt lat="46.413938" lon="12.9142457"><ele>369.0</ele><time>2026-05-03T10:22:46.992Z</time></trkpt><trkpt lat="46.4138454" lon="12.9139777"><ele>369.0</ele><time>2026-05-03T10:22:47.99Z</time></trkpt><trkpt lat="46.4137576" lon="12.9137166"><ele>369.0</ele><time>2026-05-03T10:22:48.991Z</time></trkpt><trkpt lat="46.4136717" lon="12.9134643"><ele>369.0</ele><time>2026-05-03T10:22:49.992Z</time></trkpt><trkpt lat="46.4135896" lon="12.9132239"><ele>369.6666666666667</ele><time>2026-05-03T10:22:50.99Z</time></trkpt><trkpt lat="46.4135109" lon="12.9129977"><ele>370.33333333333337</ele><time>2026-05-03T10:22:51.991Z</time></trkpt><trkpt lat="46.413438" lon="12.9127816"><ele>371.0</ele><time>2026-05-03T10:22:52.991Z</time></trkpt><trkpt lat="46.4133659" lon="12.9125737"><ele>372.0</ele><time>2026-05-03T10:22:53.991Z</time></trkpt><trkpt lat="46.4132935" lon="12.912364"><ele>373.0</ele><time>2026-05-03T10:22:54.991Z</time></trkpt><trkpt lat="46.4132205" lon="12.9121507"><ele>374.0</ele><time>2026-05-03T10:22:55.991Z</time></trkpt><trkpt lat="46.4131419" lon="12.9119244"><ele>374.0</ele><time>2026-05-03T10:22:56.99Z</time></trkpt><trkpt lat="46.4130623" lon="12.9116897"><ele>374.0</ele><time>2026-05-03T10:22:57.991Z</time></trkpt><trkpt lat="46.4129768" lon="12.9114486"><ele>374.0</ele><time>2026-05-03T10:22:58.991Z</time></trkpt><trkpt lat="46.4128884" lon="12.9112024"><ele>374.0</ele><time>2026-05-03T10:22:59.992Z</time></trkpt><trkpt lat="46.4127999" lon="12.9109477"><ele>374.0</ele><time>2026-05-03T10:23:00.99Z</time></trkpt><trkpt lat="46.4127113" lon="12.910691"><ele>374.0</ele><time>2026-05-03T10:23:01.991Z</time></trkpt><trkpt lat="46.4126212" lon="12.9104306"><ele>374.0</ele><time>2026-05-03T10:23:02.991Z</time></trkpt><trkpt lat="46.4125285" lon="12.9101683"><ele>374.0</ele><time>2026-05-03T10:23:03.991Z</time></trkpt><trkpt lat="46.4124368" lon="12.9099022"><ele>374.0</ele><time>2026-05-03T10:23:04.991Z</time></trkpt><trkpt lat="46.4123427" lon="12.9096317"><ele>374.33333333333337</ele><time>2026-05-03T10:23:05.992Z</time></trkpt><trkpt lat="46.4122478" lon="12.9093532"><ele>374.6666666666667</ele><time>2026-05-03T10:23:06.991Z</time></trkpt><trkpt lat="46.4121521" lon="12.9090731"><ele>375.0</ele><time>2026-05-03T10:23:07.991Z</time></trkpt><trkpt lat="46.4120547" lon="12.9087954"><ele>372.6666666666667</ele><time>2026-05-03T10:23:08.991Z</time></trkpt><trkpt lat="46.4119568" lon="12.9085141"><ele>370.33333333333337</ele><time>2026-05-03T10:23:09.991Z</time></trkpt><trkpt lat="46.4118609" lon="12.9082356"><ele>368.0</ele><time>2026-05-03T10:23:10.99Z</time></trkpt><trkpt lat="46.4117648" lon="12.9079581"><ele>367.6666666666667</ele><time>2026-05-03T10:23:11.991Z</time></trkpt><trkpt lat="46.4116655" lon="12.9076752"><ele>367.3333333333333</ele><time>2026-05-03T10:23:12.99Z</time></trkpt><trkpt lat="46.4115642" lon="12.9073905"><ele>367.0</ele><time>2026-05-03T10:23:13.991Z</time></trkpt><trkpt lat="46.4114624" lon="12.9071022"><ele>367.0</ele><time>2026-05-03T10:23:14.99Z</time></trkpt><trkpt lat="46.4113623" lon="12.9068091"><ele>367.0</ele><time>2026-05-03T10:23:15.991Z</time></trkpt><trkpt lat="46.4112626" lon="12.9065162"><ele>368.0</ele><time>2026-05-03T10:23:16.991Z</time></trkpt><trkpt lat="46.4111623" lon="12.9062237"><ele>369.0</ele><time>2026-05-03T10:23:17.991Z</time></trkpt><trkpt lat="46.4110612" lon="12.9059309"><ele>369.0</ele><time>2026-05-03T10:23:18.991Z</time></trkpt><trkpt lat="46.4109565" lon="12.905641"><ele>369.0</ele><time>2026-05-03T10:23:19.99Z</time></trkpt><trkpt lat="46.4108527" lon="12.9053493"><ele>369.0</ele><time>2026-05-03T10:23:20.991Z</time></trkpt><trkpt lat="46.4107521" lon="12.9050596"><ele>369.0</ele><time>2026-05-03T10:23:21.991Z</time></trkpt><trkpt lat="46.4106534" lon="12.9047692"><ele>369.0</ele><time>2026-05-03T10:23:22.99Z</time></trkpt><trkpt lat="46.4105545" lon="12.9044796"><ele>368.6666666666667</ele><time>2026-05-03T10:23:23.991Z</time></trkpt><trkpt lat="46.4104593" lon="12.9041973"><ele>368.33333333333337</ele><time>2026-05-03T10:23:24.99Z</time></trkpt><trkpt lat="46.4103724" lon="12.9039111"><ele>368.0</ele><time>2026-05-03T10:23:25.991Z</time></trkpt><trkpt lat="46.4102986" lon="12.9036158"><ele>368.0</ele><time>2026-05-03T10:23:26.991Z</time></trkpt><trkpt lat="46.4102406" lon="12.9033041"><ele>368.0</ele><time>2026-05-03T10:23:27.99Z</time></trkpt><trkpt lat="46.4101921" lon="12.9029938"><ele>368.0</ele><time>2026-05-03T10:23:28.992Z</time></trkpt><trkpt lat="46.4101486" lon="12.9026901"><ele>368.6666666666667</ele><time>2026-05-03T10:23:29.99Z</time></trkpt><trkpt lat="46.4101071" lon="12.9023858"><ele>369.3333333333333</ele><time>2026-05-03T10:23:30.991Z</time></trkpt><trkpt lat="46.410066" lon="12.9020894"><ele>370.0</ele><time>2026-05-03T10:23:31.99Z</time></trkpt><trkpt lat="46.4100242" lon="12.9017972"><ele>370.0</ele><time>2026-05-03T10:23:32.991Z</time></trkpt><trkpt lat="46.4099845" lon="12.9015096"><ele>370.0</ele><time>2026-05-03T10:23:33.991Z</time></trkpt><trkpt lat="46.4099424" lon="12.9012263"><ele>370.0</ele><time>2026-05-03T10:23:34.991Z</time></trkpt><trkpt lat="46.4099003" lon="12.9009459"><ele>370.66666666666663</ele><time>2026-05-03T10:23:35.991Z</time></trkpt><trkpt lat="46.4098598" lon="12.9006689"><ele>371.3333333333333</ele><time>2026-05-03T10:23:36.99Z</time></trkpt><trkpt lat="46.4098207" lon="12.9003962"><ele>372.0</ele><time>2026-05-03T10:23:37.991Z</time></trkpt><trkpt lat="46.4097814" lon="12.900124"><ele>372.6666666666667</ele><time>2026-05-03T10:23:38.991Z</time></trkpt><trkpt lat="46.4097453" lon="12.8998496"><ele>373.33333333333337</ele><time>2026-05-03T10:23:39.99Z</time></trkpt><trkpt lat="46.40972" lon="12.8995634"><ele>374.0</ele><time>2026-05-03T10:23:40.992Z</time></trkpt><trkpt lat="46.4097018" lon="12.8992776"><ele>374.0</ele><time>2026-05-03T10:23:41.991Z</time></trkpt><trkpt lat="46.4096875" lon="12.8989954"><ele>374.0</ele><time>2026-05-03T10:23:42.99Z</time></trkpt><trkpt lat="46.4096704" lon="12.8987143"><ele>374.0</ele><time>2026-05-03T10:23:43.99Z</time></trkpt><trkpt lat="46.4096559" lon="12.8984352"><ele>373.0</ele><time>2026-05-03T10:23:44.991Z</time></trkpt><trkpt lat="46.409642" lon="12.8981603"><ele>372.0</ele><time>2026-05-03T10:23:45.991Z</time></trkpt><trkpt lat="46.4096255" lon="12.8978802"><ele>371.0</ele><time>2026-05-03T10:23:46.991Z</time></trkpt><trkpt lat="46.4096095" lon="12.8975954"><ele>371.0</ele><time>2026-05-03T10:23:47.992Z</time></trkpt><trkpt lat="46.409591" lon="12.8973071"><ele>371.0</ele><time>2026-05-03T10:23:48.991Z</time></trkpt><trkpt lat="46.4095743" lon="12.8970198"><ele>371.0</ele><time>2026-05-03T10:23:49.99Z</time></trkpt><trkpt lat="46.4095607" lon="12.8967311"><ele>371.0</ele><time>2026-05-03T10:23:50.991Z</time></trkpt><trkpt lat="46.4095471" lon="12.896444"><ele>371.0</ele><time>2026-05-03T10:23:51.99Z</time></trkpt><trkpt lat="46.409536" lon="12.8961583"><ele>371.0</ele><time>2026-05-03T10:23:52.991Z</time></trkpt><trkpt lat="46.4095233" lon="12.8958766"><ele>372.0</ele><time>2026-05-03T10:23:53.991Z</time></trkpt><trkpt lat="46.4095092" lon="12.8955936"><ele>373.0</ele><time>2026-05-03T10:23:54.99Z</time></trkpt><trkpt lat="46.4094973" lon="12.8953075"><ele>374.0</ele><time>2026-05-03T10:23:55.991Z</time></trkpt><trkpt lat="46.4094852" lon="12.8950188"><ele>374.0</ele><time>2026-05-03T10:23:56.99Z</time></trkpt><trkpt lat="46.4094711" lon="12.8947304"><ele>374.0</ele><time>2026-05-03T10:23:57.991Z</time></trkpt><trkpt lat="46.4094571" lon="12.8944448"><ele>374.0</ele><time>2026-05-03T10:23:58.992Z</time></trkpt><trkpt lat="46.4094424" lon="12.8941673"><ele>374.0</ele><time>2026-05-03T10:23:59.991Z</time></trkpt><trkpt lat="46.4094293" lon="12.8939011"><ele>374.0</ele><time>2026-05-03T10:24:00.991Z</time></trkpt><trkpt lat="46.4094202" lon="12.8936433"><ele>374.0</ele><time>2026-05-03T10:24:01.99Z</time></trkpt><trkpt lat="46.4094174" lon="12.893393"><ele>374.33333333333337</ele><time>2026-05-03T10:24:02.991Z</time></trkpt><trkpt lat="46.409427" lon="12.8931448"><ele>374.6666666666667</ele><time>2026-05-03T10:24:03.991Z</time></trkpt><trkpt lat="46.4094555" lon="12.8928913"><ele>375.0</ele><time>2026-05-03T10:24:04.991Z</time></trkpt><trkpt lat="46.4095031" lon="12.8926407"><ele>375.0</ele><time>2026-05-03T10:24:05.991Z</time></trkpt><trkpt lat="46.4095707" lon="12.8923934"><ele>375.0</ele><time>2026-05-03T10:24:06.991Z</time></trkpt><trkpt lat="46.4096509" lon="12.8921521"><ele>375.0</ele><time>2026-05-03T10:24:07.991Z</time></trkpt><trkpt lat="46.4097386" lon="12.8919152"><ele>374.6666666666667</ele><time>2026-05-03T10:24:08.991Z</time></trkpt><trkpt lat="46.4098313" lon="12.8916822"><ele>374.33333333333337</ele><time>2026-05-03T10:24:09.99Z</time></trkpt><trkpt lat="46.4099265" lon="12.8914496"><ele>374.0</ele><time>2026-05-03T10:24:10.991Z</time></trkpt><trkpt lat="46.4100171" lon="12.8912219"><ele>374.0</ele><time>2026-05-03T10:24:11.992Z</time></trkpt><trkpt lat="46.4100924" lon="12.8909823"><ele>374.0</ele><time>2026-05-03T10:24:12.991Z</time></trkpt><trkpt lat="46.4101379" lon="12.8907325"><ele>374.0</ele><time>2026-05-03T10:24:13.99Z</time></trkpt><trkpt lat="46.4101543" lon="12.8904677"><ele>375.0</ele><time>2026-05-03T10:24:14.991Z</time></trkpt><trkpt lat="46.4101429" lon="12.8901951"><ele>376.0</ele><time>2026-05-03T10:24:15.991Z</time></trkpt><trkpt lat="46.410108" lon="12.8899192"><ele>377.0</ele><time>2026-05-03T10:24:16.991Z</time></trkpt><trkpt lat="46.4100625" lon="12.8896381"><ele>377.6666666666667</ele><time>2026-05-03T10:24:17.99Z</time></trkpt><trkpt lat="46.4100148" lon="12.8893594"><ele>378.3333333333333</ele><time>2026-05-03T10:24:18.991Z</time></trkpt><trkpt lat="46.4099683" lon="12.8890908"><ele>379.0</ele><time>2026-05-03T10:24:19.991Z</time></trkpt><trkpt lat="46.409922" lon="12.8888404"><ele>379.66666666666663</ele><time>2026-05-03T10:24:20.99Z</time></trkpt><trkpt lat="46.4098872" lon="12.8886012"><ele>380.3333333333333</ele><time>2026-05-03T10:24:21.991Z</time></trkpt><trkpt lat="46.4098805" lon="12.8883607"><ele>381.0</ele><time>2026-05-03T10:24:22.991Z</time></trkpt><trkpt lat="46.4098982" lon="12.8881157"><ele>381.3333333333333</ele><time>2026-05-03T10:24:23.991Z</time></trkpt><trkpt lat="46.4099202" lon="12.8878643"><ele>381.66666666666663</ele><time>2026-05-03T10:24:24.992Z</time></trkpt><trkpt lat="46.4099499" lon="12.8876075"><ele>382.0</ele><time>2026-05-03T10:24:25.99Z</time></trkpt><trkpt lat="46.4099729" lon="12.8873433"><ele>382.0</ele><time>2026-05-03T10:24:26.992Z</time></trkpt><trkpt lat="46.4099891" lon="12.887072"><ele>382.0</ele><time>2026-05-03T10:24:27.99Z</time></trkpt><trkpt lat="46.4099991" lon="12.8867925"><ele>382.0</ele><time>2026-05-03T10:24:28.991Z</time></trkpt><trkpt lat="46.410003" lon="12.8865114"><ele>381.3333333333333</ele><time>2026-05-03T10:24:29.991Z</time></trkpt><trkpt lat="46.4100037" lon="12.8862282"><ele>380.6666666666667</ele><time>2026-05-03T10:24:30.99Z</time></trkpt><trkpt lat="46.4100042" lon="12.8859511"><ele>380.0</ele><time>2026-05-03T10:24:31.991Z</time></trkpt><trkpt lat="46.410005" lon="12.8856777"><ele>380.0</ele><time>2026-05-03T10:24:32.992Z</time></trkpt><trkpt lat="46.4100063" lon="12.8854105"><ele>380.0</ele><time>2026-05-03T10:24:33.99Z</time></trkpt><trkpt lat="46.4100068" lon="12.885145"><ele>380.0</ele><time>2026-05-03T10:24:34.991Z</time></trkpt><trkpt lat="46.4100071" lon="12.8848831"><ele>380.6666666666667</ele><time>2026-05-03T10:24:35.991Z</time></trkpt><trkpt lat="46.4100088" lon="12.8846248"><ele>381.3333333333333</ele><time>2026-05-03T10:24:36.99Z</time></trkpt><trkpt lat="46.4100093" lon="12.884373"><ele>382.0</ele><time>2026-05-03T10:24:37.991Z</time></trkpt><trkpt lat="46.4100103" lon="12.8841259"><ele>383.0</ele><time>2026-05-03T10:24:38.991Z</time></trkpt><trkpt lat="46.4100085" lon="12.883887"><ele>384.0</ele><time>2026-05-03T10:24:39.991Z</time></trkpt><trkpt lat="46.4100039" lon="12.8836541"><ele>385.0</ele><time>2026-05-03T10:24:40.992Z</time></trkpt><trkpt lat="46.4099857" lon="12.8834257"><ele>385.33333333333337</ele><time>2026-05-03T10:24:41.991Z</time></trkpt><trkpt lat="46.4099479" lon="12.8831948"><ele>385.66666666666663</ele><time>2026-05-03T10:24:42.99Z</time></trkpt><trkpt lat="46.4099019" lon="12.8829604"><ele>386.0</ele><time>2026-05-03T10:24:43.991Z</time></trkpt><trkpt lat="46.4098619" lon="12.8827176"><ele>387.66666666666663</ele><time>2026-05-03T10:24:44.99Z</time></trkpt><trkpt lat="46.4098415" lon="12.8824716"><ele>389.33333333333337</ele><time>2026-05-03T10:24:45.991Z</time></trkpt><trkpt lat="46.4098465" lon="12.8822212"><ele>391.0</ele><time>2026-05-03T10:24:46.991Z</time></trkpt><trkpt lat="46.4098604" lon="12.8819722"><ele>391.6666666666667</ele><time>2026-05-03T10:24:47.991Z</time></trkpt><trkpt lat="46.4098779" lon="12.8817272"><ele>392.33333333333337</ele><time>2026-05-03T10:24:48.99Z</time></trkpt><trkpt lat="46.4098902" lon="12.8814837"><ele>393.0</ele><time>2026-05-03T10:24:49.991Z</time></trkpt><trkpt lat="46.409896" lon="12.8812383"><ele>393.0</ele><time>2026-05-03T10:24:50.992Z</time></trkpt><trkpt lat="46.4098985" lon="12.8809943"><ele>393.0</ele><time>2026-05-03T10:24:51.991Z</time></trkpt><trkpt lat="46.4098973" lon="12.8807548"><ele>393.0</ele><time>2026-05-03T10:24:52.991Z</time></trkpt><trkpt lat="46.4098989" lon="12.880525"><ele>393.25</ele><time>2026-05-03T10:24:53.99Z</time></trkpt><trkpt lat="46.4099009" lon="12.8803084"><ele>393.5</ele><time>2026-05-03T10:24:54.991Z</time></trkpt><trkpt lat="46.4099024" lon="12.8801116"><ele>393.75</ele><time>2026-05-03T10:24:55.991Z</time></trkpt><trkpt lat="46.4099041" lon="12.8799247"><ele>394.0</ele><time>2026-05-03T10:24:56.991Z</time></trkpt><trkpt lat="46.4099047" lon="12.8797528"><ele>394.0</ele><time>2026-05-03T10:24:57.991Z</time></trkpt><trkpt lat="46.4098952" lon="12.8795866"><ele>394.0</ele><time>2026-05-03T10:24:58.99Z</time></trkpt><trkpt lat="46.4098703" lon="12.8794177"><ele>394.0</ele><time>2026-05-03T10:24:59.991Z</time></trkpt><trkpt lat="46.4098328" lon="12.8792518"><ele>394.0</ele><time>2026-05-03T10:25:00.99Z</time></trkpt><trkpt lat="46.4097893" lon="12.8790822"><ele>394.5</ele><time>2026-05-03T10:25:01.991Z</time></trkpt><trkpt lat="46.4097402" lon="12.8789177"><ele>395.0</ele><time>2026-05-03T10:25:02.991Z</time></trkpt><trkpt lat="46.4096972" lon="12.8787609"><ele>395.5</ele><time>2026-05-03T10:25:03.991Z</time></trkpt><trkpt lat="46.4096678" lon="12.8786034"><ele>396.0</ele><time>2026-05-03T10:25:04.99Z</time></trkpt><trkpt lat="46.4096609" lon="12.8784323"><ele>396.0</ele><time>2026-05-03T10:25:05.991Z</time></trkpt><trkpt lat="46.4096693" lon="12.8782535"><ele>396.0</ele><time>2026-05-03T10:25:06.991Z</time></trkpt><trkpt lat="46.4096839" lon="12.8780746"><ele>396.0</ele><time>2026-05-03T10:25:07.99Z</time></trkpt><trkpt lat="46.4097027" lon="12.877944"><ele>396.0</ele><time>2026-05-03T10:25:08.991Z</time></trkpt><trkpt lat="46.409715" lon="12.8778327"><ele>396.0</ele><time>2026-05-03T10:25:09.99Z</time></trkpt><trkpt lat="46.4097318" lon="12.8777254"><ele>396.0</ele><time>2026-05-03T10:25:10.992Z</time></trkpt><trkpt lat="46.409748" lon="12.8776048"><ele>396.0</ele><time>2026-05-03T10:25:11.99Z</time></trkpt><trkpt lat="46.4097673" lon="12.8774628"><ele>396.0</ele><time>2026-05-03T10:25:12.991Z</time></trkpt><trkpt lat="46.4097828" lon="12.8773009"><ele>396.0</ele><time>2026-05-03T10:25:13.99Z</time></trkpt><trkpt lat="46.4097965" lon="12.8771224"><ele>396.0</ele><time>2026-05-03T10:25:14.99Z</time></trkpt><trkpt lat="46.4098111" lon="12.876932"><ele>395.5</ele><time>2026-05-03T10:25:15.99Z</time></trkpt><trkpt lat="46.4098289" lon="12.8767418"><ele>395.0</ele><time>2026-05-03T10:25:16.99Z</time></trkpt><trkpt lat="46.4098438" lon="12.8765551"><ele>394.5</ele><time>2026-05-03T10:25:17.99Z</time></trkpt><trkpt lat="46.409856" lon="12.8763815"><ele>394.0</ele><time>2026-05-03T10:25:18.991Z</time></trkpt><trkpt lat="46.4098493" lon="12.8762145"><ele>394.0</ele><time>2026-05-03T10:25:19.99Z</time></trkpt><trkpt lat="46.409816" lon="12.8760468"><ele>394.0</ele><time>2026-05-03T10:25:20.991Z</time></trkpt><trkpt lat="46.4097519" lon="12.8758883"><ele>394.0</ele><time>2026-05-03T10:25:21.991Z</time></trkpt><trkpt lat="46.4096603" lon="12.8757385"><ele>394.0</ele><time>2026-05-03T10:25:22.991Z</time></trkpt><trkpt lat="46.4095532" lon="12.8755866"><ele>393.33333333333337</ele><time>2026-05-03T10:25:23.99Z</time></trkpt><trkpt lat="46.4094468" lon="12.875437"><ele>392.66666666666663</ele><time>2026-05-03T10:25:24.99Z</time></trkpt><trkpt lat="46.4093294" lon="12.8752791"><ele>392.0</ele><time>2026-05-03T10:25:25.991Z</time></trkpt><trkpt lat="46.4092095" lon="12.8751186"><ele>392.66666666666663</ele><time>2026-05-03T10:25:26.991Z</time></trkpt><trkpt lat="46.4090862" lon="12.8749548"><ele>393.33333333333337</ele><time>2026-05-03T10:25:27.99Z</time></trkpt><trkpt lat="46.4089622" lon="12.8747892"><ele>394.0</ele><time>2026-05-03T10:25:28.99Z</time></trkpt><trkpt lat="46.4088403" lon="12.874627"><ele>393.6666666666667</ele><time>2026-05-03T10:25:29.99Z</time></trkpt><trkpt lat="46.4087203" lon="12.8744627"><ele>393.33333333333337</ele><time>2026-05-03T10:25:30.99Z</time></trkpt><trkpt lat="46.4085992" lon="12.8742971"><ele>393.0</ele><time>2026-05-03T10:25:31.991Z</time></trkpt><trkpt lat="46.4084712" lon="12.8741238"><ele>393.66666666666663</ele><time>2026-05-03T10:25:32.991Z</time></trkpt><trkpt lat="46.4083381" lon="12.8739468"><ele>394.3333333333333</ele><time>2026-05-03T10:25:33.991Z</time></trkpt><trkpt lat="46.4082074" lon="12.8737714"><ele>395.0</ele><time>2026-05-03T10:25:34.991Z</time></trkpt><trkpt lat="46.4080765" lon="12.8735967"><ele>395.0</ele><time>2026-05-03T10:25:35.991Z</time></trkpt><trkpt lat="46.4079385" lon="12.8734102"><ele>395.0</ele><time>2026-05-03T10:25:36.991Z</time></trkpt><trkpt lat="46.4077948" lon="12.8732193"><ele>395.0</ele><time>2026-05-03T10:25:37.99Z</time></trkpt><trkpt lat="46.4076496" lon="12.8730261"><ele>395.0</ele><time>2026-05-03T10:25:38.991Z</time></trkpt><trkpt lat="46.4075074" lon="12.8728352"><ele>395.0</ele><time>2026-05-03T10:25:39.991Z</time></trkpt><trkpt lat="46.4073604" lon="12.8726351"><ele>395.0</ele><time>2026-05-03T10:25:40.99Z</time></trkpt><trkpt lat="46.4072148" lon="12.8724264"><ele>398.3333333333333</ele><time>2026-05-03T10:25:41.991Z</time></trkpt><trkpt lat="46.4070643" lon="12.8722073"><ele>401.66666666666663</ele><time>2026-05-03T10:25:42.991Z</time></trkpt><trkpt lat="46.4069153" lon="12.8719736"><ele>405.0</ele><time>2026-05-03T10:25:43.991Z</time></trkpt><trkpt lat="46.4067729" lon="12.8717289"><ele>407.0</ele><time>2026-05-03T10:25:44.991Z</time></trkpt><trkpt lat="46.4066376" lon="12.871467"><ele>409.0</ele><time>2026-05-03T10:25:45.991Z</time></trkpt><trkpt lat="46.4065148" lon="12.8711931"><ele>411.0</ele><time>2026-05-03T10:25:46.991Z</time></trkpt><trkpt lat="46.4064091" lon="12.8709028"><ele>413.0</ele><time>2026-05-03T10:25:47.991Z</time></trkpt><trkpt lat="46.4063156" lon="12.8706014"><ele>410.5</ele><time>2026-05-03T10:25:48.992Z</time></trkpt><trkpt lat="46.4062363" lon="12.8702833"><ele>408.0</ele><time>2026-05-03T10:25:49.991Z</time></trkpt><trkpt lat="46.4061752" lon="12.8699529"><ele>408.0</ele><time>2026-05-03T10:25:50.991Z</time></trkpt><trkpt lat="46.4061283" lon="12.8696107"><ele>408.0</ele><time>2026-05-03T10:25:51.992Z</time></trkpt><trkpt lat="46.4060982" lon="12.8692598"><ele>411.5</ele><time>2026-05-03T10:25:52.991Z</time></trkpt><trkpt lat="46.4060846" lon="12.8689019"><ele>415.0</ele><time>2026-05-03T10:25:53.99Z</time></trkpt><trkpt lat="46.4060877" lon="12.8685436"><ele>414.0</ele><time>2026-05-03T10:25:54.99Z</time></trkpt><trkpt lat="46.4060992" lon="12.8681825"><ele>413.0</ele><time>2026-05-03T10:25:55.99Z</time></trkpt><trkpt lat="46.4061171" lon="12.8678202"><ele>407.0</ele><time>2026-05-03T10:25:56.991Z</time></trkpt><trkpt lat="46.4061396" lon="12.8674571"><ele>401.0</ele><time>2026-05-03T10:25:57.991Z</time></trkpt><trkpt lat="46.4061613" lon="12.8670982"><ele>399.0</ele><time>2026-05-03T10:25:58.991Z</time></trkpt><trkpt lat="46.406176" lon="12.8667405"><ele>397.0</ele><time>2026-05-03T10:25:59.99Z</time></trkpt><trkpt lat="46.4061777" lon="12.8663828"><ele>397.0</ele><time>2026-05-03T10:26:00.991Z</time></trkpt><trkpt lat="46.4061698" lon="12.8660255"><ele>397.0</ele><time>2026-05-03T10:26:01.991Z</time></trkpt><trkpt lat="46.4061514" lon="12.8656679"><ele>397.0</ele><time>2026-05-03T10:26:02.99Z</time></trkpt><trkpt lat="46.4061169" lon="12.865313"><ele>397.0</ele><time>2026-05-03T10:26:03.99Z</time></trkpt><trkpt lat="46.4060662" lon="12.8649615"><ele>397.0</ele><time>2026-05-03T10:26:04.991Z</time></trkpt><trkpt lat="46.4060007" lon="12.8646139"><ele>397.0</ele><time>2026-05-03T10:26:05.992Z</time></trkpt><trkpt lat="46.4059185" lon="12.8642689"><ele>398.0</ele><time>2026-05-03T10:26:06.991Z</time></trkpt><trkpt lat="46.4058272" lon="12.8639273"><ele>399.0</ele><time>2026-05-03T10:26:07.99Z</time></trkpt><trkpt lat="46.4057225" lon="12.8635924"><ele>400.5</ele><time>2026-05-03T10:26:08.991Z</time></trkpt><trkpt lat="46.4056034" lon="12.8632659"><ele>402.0</ele><time>2026-05-03T10:26:09.989Z</time></trkpt><trkpt lat="46.4054754" lon="12.8629461"><ele>402.0</ele><time>2026-05-03T10:26:10.989Z</time></trkpt><trkpt lat="46.40534" lon="12.8626335"><ele>402.0</ele><time>2026-05-03T10:26:11.989Z</time></trkpt><trkpt lat="46.4052046" lon="12.8623297"><ele>403.5</ele><time>2026-05-03T10:26:12.989Z</time></trkpt><trkpt lat="46.4050739" lon="12.8620216"><ele>405.0</ele><time>2026-05-03T10:26:13.989Z</time></trkpt><trkpt lat="46.4049466" lon="12.8617099"><ele>406.0</ele><time>2026-05-03T10:26:14.989Z</time></trkpt><trkpt lat="46.4048254" lon="12.8613941"><ele>407.0</ele><time>2026-05-03T10:26:15.99Z</time></trkpt><trkpt lat="46.4047097" lon="12.8610709"><ele>402.0</ele><time>2026-05-03T10:26:16.989Z</time></trkpt><trkpt lat="46.4046021" lon="12.860741"><ele>397.0</ele><time>2026-05-03T10:26:17.99Z</time></trkpt><trkpt lat="46.4045012" lon="12.8604022"><ele>399.0</ele><time>2026-05-03T10:26:18.99Z</time></trkpt><trkpt lat="46.4044055" lon="12.860058"><ele>401.0</ele><time>2026-05-03T10:26:19.99Z</time></trkpt><trkpt lat="46.4043148" lon="12.8597096"><ele>401.0</ele><time>2026-05-03T10:26:20.989Z</time></trkpt><trkpt lat="46.4042288" lon="12.8593629"><ele>401.0</ele><time>2026-05-03T10:26:21.99Z</time></trkpt><trkpt lat="46.4041498" lon="12.8590174"><ele>403.0</ele><time>2026-05-03T10:26:22.991Z</time></trkpt><trkpt lat="46.4040731" lon="12.8586765"><ele>405.0</ele><time>2026-05-03T10:26:23.99Z</time></trkpt><trkpt lat="46.4039959" lon="12.8583361"><ele>408.0</ele><time>2026-05-03T10:26:24.99Z</time></trkpt><trkpt lat="46.403915" lon="12.8579976"><ele>411.0</ele><time>2026-05-03T10:26:25.99Z</time></trkpt><trkpt lat="46.403835" lon="12.8576566"><ele>408.5</ele><time>2026-05-03T10:26:26.989Z</time></trkpt><trkpt lat="46.403754" lon="12.8573191"><ele>406.0</ele><time>2026-05-03T10:26:27.99Z</time></trkpt><trkpt lat="46.4036726" lon="12.856981"><ele>410.5</ele><time>2026-05-03T10:26:28.99Z</time></trkpt><trkpt lat="46.4035937" lon="12.8566431"><ele>415.0</ele><time>2026-05-03T10:26:29.989Z</time></trkpt><trkpt lat="46.4035166" lon="12.8563032"><ele>415.0</ele><time>2026-05-03T10:26:30.99Z</time></trkpt><trkpt lat="46.4034412" lon="12.8559634"><ele>415.0</ele><time>2026-05-03T10:26:31.989Z</time></trkpt><trkpt lat="46.4033659" lon="12.8556262"><ele>420.5</ele><time>2026-05-03T10:26:32.99Z</time></trkpt><trkpt lat="46.4032877" lon="12.8552901"><ele>426.0</ele><time>2026-05-03T10:26:33.989Z</time></trkpt><trkpt lat="46.40321" lon="12.8549559"><ele>431.0</ele><time>2026-05-03T10:26:34.99Z</time></trkpt><trkpt lat="46.4031318" lon="12.8546231"><ele>436.0</ele><time>2026-05-03T10:26:35.989Z</time></trkpt><trkpt lat="46.4030524" lon="12.8542908"><ele>428.5</ele><time>2026-05-03T10:26:36.989Z</time></trkpt><trkpt lat="46.4029769" lon="12.8539571"><ele>421.0</ele><time>2026-05-03T10:26:37.99Z</time></trkpt><trkpt lat="46.4029013" lon="12.8536222"><ele>426.0</ele><time>2026-05-03T10:26:38.99Z</time></trkpt><trkpt lat="46.4028264" lon="12.8532839"><ele>431.0</ele><time>2026-05-03T10:26:39.99Z</time></trkpt><trkpt lat="46.4027503" lon="12.8529426"><ele>432.0</ele><time>2026-05-03T10:26:40.99Z</time></trkpt><trkpt lat="46.4026764" lon="12.8525972"><ele>433.0</ele><time>2026-05-03T10:26:41.99Z</time></trkpt><trkpt lat="46.4026054" lon="12.852246"><ele>433.0</ele><time>2026-05-03T10:26:42.99Z</time></trkpt><trkpt lat="46.4025406" lon="12.8518919"><ele>433.0</ele><time>2026-05-03T10:26:43.989Z</time></trkpt><trkpt lat="46.4024829" lon="12.8515359"><ele>440.5</ele><time>2026-05-03T10:26:44.989Z</time></trkpt><trkpt lat="46.4024348" lon="12.8511765"><ele>448.0</ele><time>2026-05-03T10:26:45.99Z</time></trkpt><trkpt lat="46.4023929" lon="12.8508123"><ele>453.5</ele><time>2026-05-03T10:26:46.99Z</time></trkpt><trkpt lat="46.4023558" lon="12.8504451"><ele>459.0</ele><time>2026-05-03T10:26:47.989Z</time></trkpt><trkpt lat="46.4023267" lon="12.8500786"><ele>459.0</ele><time>2026-05-03T10:26:48.99Z</time></trkpt><trkpt lat="46.4022974" lon="12.849711"><ele>459.0</ele><time>2026-05-03T10:26:49.99Z</time></trkpt><trkpt lat="46.4022735" lon="12.8493434"><ele>459.5</ele><time>2026-05-03T10:26:50.99Z</time></trkpt><trkpt lat="46.4022518" lon="12.8489761"><ele>460.0</ele><time>2026-05-03T10:26:51.99Z</time></trkpt><trkpt lat="46.4022295" lon="12.8486058"><ele>460.5</ele><time>2026-05-03T10:26:52.989Z</time></trkpt><trkpt lat="46.4022069" lon="12.8482364"><ele>461.0</ele><time>2026-05-03T10:26:53.99Z</time></trkpt><trkpt lat="46.4021853" lon="12.847869"><ele>461.0</ele><time>2026-05-03T10:26:54.989Z</time></trkpt><trkpt lat="46.4021658" lon="12.8475031"><ele>461.0</ele><time>2026-05-03T10:26:55.99Z</time></trkpt><trkpt lat="46.4021489" lon="12.847144"><ele>449.0</ele><time>2026-05-03T10:26:56.99Z</time></trkpt><trkpt lat="46.4021323" lon="12.8467902"><ele>437.0</ele><time>2026-05-03T10:26:57.989Z</time></trkpt><trkpt lat="46.4021136" lon="12.8464355"><ele>437.0</ele><time>2026-05-03T10:26:58.99Z</time></trkpt><trkpt lat="46.4020966" lon="12.8460797"><ele>437.0</ele><time>2026-05-03T10:26:59.99Z</time></trkpt><trkpt lat="46.4020776" lon="12.8457263"><ele>440.0</ele><time>2026-05-03T10:27:00.99Z</time></trkpt><trkpt lat="46.4020577" lon="12.8453728"><ele>443.0</ele><time>2026-05-03T10:27:01.99Z</time></trkpt><trkpt lat="46.4020372" lon="12.8450243"><ele>447.0</ele><time>2026-05-03T10:27:02.99Z</time></trkpt><trkpt lat="46.4020172" lon="12.8446766"><ele>451.0</ele><time>2026-05-03T10:27:03.99Z</time></trkpt><trkpt lat="46.4020012" lon="12.8443292"><ele>453.0</ele><time>2026-05-03T10:27:04.99Z</time></trkpt><trkpt lat="46.4019857" lon="12.8439836"><ele>455.0</ele><time>2026-05-03T10:27:05.991Z</time></trkpt><trkpt lat="46.4019709" lon="12.8436388"><ele>458.5</ele><time>2026-05-03T10:27:06.99Z</time></trkpt><trkpt lat="46.4019566" lon="12.8432927"><ele>462.0</ele><time>2026-05-03T10:27:07.99Z</time></trkpt><trkpt lat="46.4019485" lon="12.8429496"><ele>465.5</ele><time>2026-05-03T10:27:08.99Z</time></trkpt><trkpt lat="46.4019424" lon="12.8426075"><ele>469.0</ele><time>2026-05-03T10:27:09.989Z</time></trkpt><trkpt lat="46.4019388" lon="12.8422666"><ele>469.0</ele><time>2026-05-03T10:27:10.99Z</time></trkpt><trkpt lat="46.4019376" lon="12.8419273"><ele>469.0</ele><time>2026-05-03T10:27:11.989Z</time></trkpt><trkpt lat="46.4019401" lon="12.8415879"><ele>471.0</ele><time>2026-05-03T10:27:12.99Z</time></trkpt><trkpt lat="46.40195" lon="12.8412468"><ele>473.0</ele><time>2026-05-03T10:27:13.989Z</time></trkpt><trkpt lat="46.4019606" lon="12.8409004"><ele>473.0</ele><time>2026-05-03T10:27:14.99Z</time></trkpt><trkpt lat="46.4019759" lon="12.8405521"><ele>473.0</ele><time>2026-05-03T10:27:15.989Z</time></trkpt><trkpt lat="46.4019939" lon="12.840206"><ele>469.0</ele><time>2026-05-03T10:27:16.99Z</time></trkpt><trkpt lat="46.4020131" lon="12.8398588"><ele>465.0</ele><time>2026-05-03T10:27:17.989Z</time></trkpt><trkpt lat="46.4020356" lon="12.8395125"><ele>463.5</ele><time>2026-05-03T10:27:18.991Z</time></trkpt><trkpt lat="46.4020571" lon="12.8391658"><ele>462.0</ele><time>2026-05-03T10:27:19.99Z</time></trkpt><trkpt lat="46.4020809" lon="12.8388153"><ele>462.5</ele><time>2026-05-03T10:27:20.99Z</time></trkpt><trkpt lat="46.402107" lon="12.8384657"><ele>463.0</ele><time>2026-05-03T10:27:21.99Z</time></trkpt><trkpt lat="46.4021329" lon="12.8381152"><ele>463.0</ele><time>2026-05-03T10:27:22.989Z</time></trkpt><trkpt lat="46.402157" lon="12.8377623"><ele>463.0</ele><time>2026-05-03T10:27:23.99Z</time></trkpt><trkpt lat="46.4021808" lon="12.8374103"><ele>476.0</ele><time>2026-05-03T10:27:24.989Z</time></trkpt><trkpt lat="46.4022049" lon="12.8370612"><ele>489.0</ele><time>2026-05-03T10:27:25.99Z</time></trkpt><trkpt lat="46.4022282" lon="12.8367136"><ele>489.0</ele><time>2026-05-03T10:27:26.99Z</time></trkpt><trkpt lat="46.4022437" lon="12.836372"><ele>489.0</ele><time>2026-05-03T10:27:27.99Z</time></trkpt><trkpt lat="46.4022498" lon="12.8360282"><ele>487.5</ele><time>2026-05-03T10:27:28.989Z</time></trkpt><trkpt lat="46.4022436" lon="12.8356849"><ele>486.0</ele><time>2026-05-03T10:27:29.99Z</time></trkpt><trkpt lat="46.4022306" lon="12.8353426"><ele>487.0</ele><time>2026-05-03T10:27:30.99Z</time></trkpt><trkpt lat="46.4022108" lon="12.8349966"><ele>488.0</ele><time>2026-05-03T10:27:31.991Z</time></trkpt><trkpt lat="46.4021845" lon="12.8346499"><ele>479.0</ele><time>2026-05-03T10:27:32.99Z</time></trkpt><trkpt lat="46.4021501" lon="12.8343052"><ele>470.0</ele><time>2026-05-03T10:27:33.991Z</time></trkpt><trkpt lat="46.4021138" lon="12.8339672"><ele>470.0</ele><time>2026-05-03T10:27:34.991Z</time></trkpt><trkpt lat="46.4020755" lon="12.8336321"><ele>470.0</ele><time>2026-05-03T10:27:35.99Z</time></trkpt><trkpt lat="46.4020371" lon="12.8332983"><ele>474.0</ele><time>2026-05-03T10:27:36.989Z</time></trkpt><trkpt lat="46.402001" lon="12.8329693"><ele>478.0</ele><time>2026-05-03T10:27:37.99Z</time></trkpt><trkpt lat="46.401964" lon="12.8326415"><ele>478.5</ele><time>2026-05-03T10:27:38.99Z</time></trkpt><trkpt lat="46.4019266" lon="12.8323169"><ele>479.0</ele><time>2026-05-03T10:27:39.99Z</time></trkpt><trkpt lat="46.4018909" lon="12.8319953"><ele>478.66666666666663</ele><time>2026-05-03T10:27:40.99Z</time></trkpt><trkpt lat="46.4018545" lon="12.8316774"><ele>478.33333333333337</ele><time>2026-05-03T10:27:41.99Z</time></trkpt><trkpt lat="46.4018207" lon="12.8313639"><ele>478.0</ele><time>2026-05-03T10:27:42.99Z</time></trkpt><trkpt lat="46.4017974" lon="12.8310462"><ele>479.5</ele><time>2026-05-03T10:27:43.99Z</time></trkpt><trkpt lat="46.4017889" lon="12.8307188"><ele>481.0</ele><time>2026-05-03T10:27:44.99Z</time></trkpt><trkpt lat="46.4017971" lon="12.830388"><ele>482.33333333333337</ele><time>2026-05-03T10:27:45.99Z</time></trkpt><trkpt lat="46.4018205" lon="12.8300618"><ele>483.66666666666663</ele><time>2026-05-03T10:27:46.99Z</time></trkpt><trkpt lat="46.401853" lon="12.8297456"><ele>485.0</ele><time>2026-05-03T10:27:47.989Z</time></trkpt><trkpt lat="46.4018816" lon="12.8294469"><ele>485.3333333333333</ele><time>2026-05-03T10:27:48.991Z</time></trkpt><trkpt lat="46.401907" lon="12.8291615"><ele>485.66666666666663</ele><time>2026-05-03T10:27:49.991Z</time></trkpt><trkpt lat="46.401927" lon="12.8288877"><ele>486.0</ele><time>2026-05-03T10:27:50.989Z</time></trkpt><trkpt lat="46.4019413" lon="12.8286171"><ele>485.66666666666663</ele><time>2026-05-03T10:27:51.99Z</time></trkpt><trkpt lat="46.401957" lon="12.828355"><ele>485.3333333333333</ele><time>2026-05-03T10:27:52.99Z</time></trkpt><trkpt lat="46.4019718" lon="12.8281029"><ele>485.0</ele><time>2026-05-03T10:27:53.991Z</time></trkpt><trkpt lat="46.4019852" lon="12.8278586"><ele>484.3333333333333</ele><time>2026-05-03T10:27:54.99Z</time></trkpt><trkpt lat="46.4019987" lon="12.8276278"><ele>483.66666666666663</ele><time>2026-05-03T10:27:55.99Z</time></trkpt><trkpt lat="46.4020145" lon="12.8274105"><ele>483.0</ele><time>2026-05-03T10:27:56.991Z</time></trkpt><trkpt lat="46.4020436" lon="12.8271959"><ele>483.0</ele><time>2026-05-03T10:27:57.99Z</time></trkpt><trkpt lat="46.4020956" lon="12.8269897"><ele>483.0</ele><time>2026-05-03T10:27:58.989Z</time></trkpt><trkpt lat="46.4021663" lon="12.8267827"><ele>483.0</ele><time>2026-05-03T10:27:59.99Z</time></trkpt><trkpt lat="46.402246" lon="12.8265725"><ele>482.66666666666663</ele><time>2026-05-03T10:28:00.99Z</time></trkpt><trkpt lat="46.402321" lon="12.826361"><ele>482.3333333333333</ele><time>2026-05-03T10:28:01.99Z</time></trkpt><trkpt lat="46.4023896" lon="12.826146"><ele>482.0</ele><time>2026-05-03T10:28:02.99Z</time></trkpt><trkpt lat="46.4024526" lon="12.8259285"><ele>481.0</ele><time>2026-05-03T10:28:03.989Z</time></trkpt><trkpt lat="46.4025094" lon="12.8257142"><ele>480.0</ele><time>2026-05-03T10:28:04.99Z</time></trkpt><trkpt lat="46.4025563" lon="12.8255016"><ele>479.0</ele><time>2026-05-03T10:28:05.99Z</time></trkpt><trkpt lat="46.4026013" lon="12.8252909"><ele>478.25</ele><time>2026-05-03T10:28:06.99Z</time></trkpt><trkpt lat="46.4026423" lon="12.8250854"><ele>477.5</ele><time>2026-05-03T10:28:07.989Z</time></trkpt><trkpt lat="46.4026665" lon="12.8248817"><ele>476.75</ele><time>2026-05-03T10:28:08.99Z</time></trkpt><trkpt lat="46.4026708" lon="12.8246717"><ele>476.0</ele><time>2026-05-03T10:28:09.99Z</time></trkpt><trkpt lat="46.4026555" lon="12.8244539"><ele>474.66666666666663</ele><time>2026-05-03T10:28:10.99Z</time></trkpt><trkpt lat="46.4026252" lon="12.824231"><ele>473.33333333333337</ele><time>2026-05-03T10:28:11.99Z</time></trkpt><trkpt lat="46.4025862" lon="12.8240076"><ele>472.0</ele><time>2026-05-03T10:28:12.99Z</time></trkpt><trkpt lat="46.4025507" lon="12.8237908"><ele>472.0</ele><time>2026-05-03T10:28:13.99Z</time></trkpt><trkpt lat="46.4025137" lon="12.8235739"><ele>472.0</ele><time>2026-05-03T10:28:14.991Z</time></trkpt><trkpt lat="46.4024891" lon="12.8233604"><ele>472.0</ele><time>2026-05-03T10:28:15.989Z</time></trkpt><trkpt lat="46.4024828" lon="12.8231573"><ele>472.0</ele><time>2026-05-03T10:28:16.989Z</time></trkpt><trkpt lat="46.4024985" lon="12.8229565"><ele>471.0</ele><time>2026-05-03T10:28:17.989Z</time></trkpt><trkpt lat="46.4025439" lon="12.8227648"><ele>470.0</ele><time>2026-05-03T10:28:18.989Z</time></trkpt><trkpt lat="46.4026154" lon="12.8225822"><ele>469.0</ele><time>2026-05-03T10:28:19.99Z</time></trkpt><trkpt lat="46.402713" lon="12.8224142"><ele>468.0</ele><time>2026-05-03T10:28:20.99Z</time></trkpt><trkpt lat="46.4028267" lon="12.8222473"><ele>468.33333333333337</ele><time>2026-05-03T10:28:21.989Z</time></trkpt><trkpt lat="46.4029382" lon="12.8220532"><ele>468.6666666666667</ele><time>2026-05-03T10:28:22.99Z</time></trkpt><trkpt lat="46.4030367" lon="12.8218341"><ele>469.0</ele><time>2026-05-03T10:28:23.99Z</time></trkpt><trkpt lat="46.4031171" lon="12.8215979"><ele>469.0</ele><time>2026-05-03T10:28:24.99Z</time></trkpt><trkpt lat="46.403178" lon="12.8213513"><ele>469.0</ele><time>2026-05-03T10:28:25.989Z</time></trkpt><trkpt lat="46.4032278" lon="12.8211058"><ele>469.0</ele><time>2026-05-03T10:28:26.99Z</time></trkpt><trkpt lat="46.4032752" lon="12.8208658"><ele>465.33333333333337</ele><time>2026-05-03T10:28:27.989Z</time></trkpt><trkpt lat="46.4033337" lon="12.8206447"><ele>461.66666666666663</ele><time>2026-05-03T10:28:28.991Z</time></trkpt><trkpt lat="46.4034157" lon="12.8204437"><ele>458.0</ele><time>2026-05-03T10:28:29.989Z</time></trkpt><trkpt lat="46.4035225" lon="12.8202606"><ele>459.3333333333333</ele><time>2026-05-03T10:28:30.99Z</time></trkpt><trkpt lat="46.4036398" lon="12.8201007"><ele>460.66666666666663</ele><time>2026-05-03T10:28:31.989Z</time></trkpt><trkpt lat="46.4037702" lon="12.8199616"><ele>462.0</ele><time>2026-05-03T10:28:32.99Z</time></trkpt><trkpt lat="46.403915" lon="12.8198561"><ele>462.0</ele><time>2026-05-03T10:28:33.99Z</time></trkpt><trkpt lat="46.4040635" lon="12.8197771"><ele>462.0</ele><time>2026-05-03T10:28:34.989Z</time></trkpt><trkpt lat="46.4042048" lon="12.8197089"><ele>462.0</ele><time>2026-05-03T10:28:35.991Z</time></trkpt><trkpt lat="46.4043273" lon="12.8196456"><ele>462.0</ele><time>2026-05-03T10:28:36.99Z</time></trkpt><trkpt lat="46.4044236" lon="12.8195748"><ele>462.0</ele><time>2026-05-03T10:28:37.99Z</time></trkpt><trkpt lat="46.4044959" lon="12.8194827"><ele>462.0</ele><time>2026-05-03T10:28:38.99Z</time></trkpt><trkpt lat="46.4045419" lon="12.8193459"><ele>462.0</ele><time>2026-05-03T10:28:39.99Z</time></trkpt><trkpt lat="46.4045549" lon="12.8191739"><ele>462.0</ele><time>2026-05-03T10:28:40.99Z</time></trkpt><trkpt lat="46.4045589" lon="12.818977"><ele>456.0</ele><time>2026-05-03T10:28:41.99Z</time></trkpt><trkpt lat="46.4045629" lon="12.8187585"><ele>450.0</ele><time>2026-05-03T10:28:42.99Z</time></trkpt><trkpt lat="46.4045676" lon="12.818528"><ele>444.0</ele><time>2026-05-03T10:28:43.991Z</time></trkpt><trkpt lat="46.4045676" lon="12.8182948"><ele>444.0</ele><time>2026-05-03T10:28:44.99Z</time></trkpt><trkpt lat="46.4045679" lon="12.8180484"><ele>444.0</ele><time>2026-05-03T10:28:45.99Z</time></trkpt><trkpt lat="46.4045694" lon="12.8178206"><ele>444.0</ele><time>2026-05-03T10:28:46.99Z</time></trkpt><trkpt lat="46.4045721" lon="12.8176028"><ele>444.33333333333337</ele><time>2026-05-03T10:28:47.99Z</time></trkpt><trkpt lat="46.4045728" lon="12.8173895"><ele>444.6666666666667</ele><time>2026-05-03T10:28:48.989Z</time></trkpt><trkpt lat="46.4045751" lon="12.817164"><ele>445.0</ele><time>2026-05-03T10:28:49.99Z</time></trkpt><trkpt lat="46.4045838" lon="12.8169379"><ele>445.25</ele><time>2026-05-03T10:28:50.99Z</time></trkpt><trkpt lat="46.404613" lon="12.8167246"><ele>445.5</ele><time>2026-05-03T10:28:51.99Z</time></trkpt><trkpt lat="46.4046751" lon="12.8165359"><ele>445.75</ele><time>2026-05-03T10:28:52.99Z</time></trkpt><trkpt lat="46.4047591" lon="12.8163913"><ele>446.0</ele><time>2026-05-03T10:28:53.989Z</time></trkpt><trkpt lat="46.4048182" lon="12.8162331"><ele>450.5</ele><time>2026-05-03T10:28:54.99Z</time></trkpt><trkpt lat="46.4048365" lon="12.8160458"><ele>455.0</ele><time>2026-05-03T10:28:55.99Z</time></trkpt><trkpt lat="46.4048287" lon="12.8158501"><ele>459.5</ele><time>2026-05-03T10:28:56.991Z</time></trkpt><trkpt lat="46.4048137" lon="12.8156423"><ele>464.0</ele><time>2026-05-03T10:28:57.989Z</time></trkpt><trkpt lat="46.4047952" lon="12.8154271"><ele>465.25</ele><time>2026-05-03T10:28:58.99Z</time></trkpt><trkpt lat="46.4047773" lon="12.8152259"><ele>466.5</ele><time>2026-05-03T10:28:59.99Z</time></trkpt><trkpt lat="46.4047802" lon="12.815013"><ele>467.75</ele><time>2026-05-03T10:29:00.99Z</time></trkpt><trkpt lat="46.4048218" lon="12.8147975"><ele>469.0</ele><time>2026-05-03T10:29:01.99Z</time></trkpt><trkpt lat="46.4048795" lon="12.8145962"><ele>470.25</ele><time>2026-05-03T10:29:02.989Z</time></trkpt><trkpt lat="46.4049373" lon="12.8144138"><ele>471.5</ele><time>2026-05-03T10:29:03.99Z</time></trkpt><trkpt lat="46.4049912" lon="12.8142517"><ele>472.75</ele><time>2026-05-03T10:29:04.989Z</time></trkpt><trkpt lat="46.4050188" lon="12.8141001"><ele>474.0</ele><time>2026-05-03T10:29:05.99Z</time></trkpt><trkpt lat="46.4050067" lon="12.813955"><ele>474.4</ele><time>2026-05-03T10:29:06.99Z</time></trkpt><trkpt lat="46.404956" lon="12.8138315"><ele>474.79999999999995</ele><time>2026-05-03T10:29:07.99Z</time></trkpt><trkpt lat="46.4048683" lon="12.8137489"><ele>475.20000000000005</ele><time>2026-05-03T10:29:08.989Z</time></trkpt><trkpt lat="46.4047831" lon="12.8136698"><ele>475.6</ele><time>2026-05-03T10:29:09.99Z</time></trkpt><trkpt lat="46.4046428" lon="12.8136667"><ele>476.0</ele><time>2026-05-03T10:29:10.991Z</time></trkpt><trkpt lat="46.4045527" lon="12.8135803"><ele>474.0</ele><time>2026-05-03T10:29:11.99Z</time></trkpt><trkpt lat="46.4044945" lon="12.8134747"><ele>472.0</ele><time>2026-05-03T10:29:12.99Z</time></trkpt><trkpt lat="46.4044744" lon="12.8133417"><ele>470.0</ele><time>2026-05-03T10:29:13.989Z</time></trkpt><trkpt lat="46.4044834" lon="12.8131887"><ele>468.0</ele><time>2026-05-03T10:29:14.99Z</time></trkpt><trkpt lat="46.4045051" lon="12.8130183"><ele>466.0</ele><time>2026-05-03T10:29:15.989Z</time></trkpt><trkpt lat="46.4045338" lon="12.8128259"><ele>466.33333333333337</ele><time>2026-05-03T10:29:16.99Z</time></trkpt><trkpt lat="46.4045642" lon="12.8126159"><ele>466.66666666666663</ele><time>2026-05-03T10:29:17.99Z</time></trkpt><trkpt lat="46.4045912" lon="12.8123889"><ele>467.0</ele><time>2026-05-03T10:29:18.991Z</time></trkpt><trkpt lat="46.4046115" lon="12.8121675"><ele>467.0</ele><time>2026-05-03T10:29:19.99Z</time></trkpt><trkpt lat="46.4046266" lon="12.8119282"><ele>467.0</ele><time>2026-05-03T10:29:20.99Z</time></trkpt><trkpt lat="46.404648" lon="12.8116994"><ele>467.0</ele><time>2026-05-03T10:29:21.99Z</time></trkpt><trkpt lat="46.4046929" lon="12.8114889"><ele>474.5</ele><time>2026-05-03T10:29:22.99Z</time></trkpt><trkpt lat="46.4047504" lon="12.8112861"><ele>482.0</ele><time>2026-05-03T10:29:23.99Z</time></trkpt><trkpt lat="46.404804" lon="12.8110816"><ele>489.5</ele><time>2026-05-03T10:29:24.989Z</time></trkpt><trkpt lat="46.4048247" lon="12.8108761"><ele>497.0</ele><time>2026-05-03T10:29:25.99Z</time></trkpt><trkpt lat="46.4048118" lon="12.8106553"><ele>497.0</ele><time>2026-05-03T10:29:26.989Z</time></trkpt><trkpt lat="46.4047874" lon="12.8104265"><ele>497.0</ele><time>2026-05-03T10:29:27.991Z</time></trkpt><trkpt lat="46.4047588" lon="12.8102051"><ele>497.0</ele><time>2026-05-03T10:29:28.989Z</time></trkpt><trkpt lat="46.4047277" lon="12.8099884"><ele>497.0</ele><time>2026-05-03T10:29:29.99Z</time></trkpt><trkpt lat="46.404726" lon="12.8097743"><ele>497.0</ele><time>2026-05-03T10:29:30.99Z</time></trkpt><trkpt lat="46.4047557" lon="12.809554"><ele>497.0</ele><time>2026-05-03T10:29:31.99Z</time></trkpt><trkpt lat="46.4048041" lon="12.8093322"><ele>500.66666666666663</ele><time>2026-05-03T10:29:32.99Z</time></trkpt><trkpt lat="46.4048609" lon="12.8091036"><ele>504.33333333333337</ele><time>2026-05-03T10:29:33.989Z</time></trkpt><trkpt lat="46.4049185" lon="12.8088747"><ele>508.0</ele><time>2026-05-03T10:29:34.989Z</time></trkpt><trkpt lat="46.4049785" lon="12.808653"><ele>506.33333333333337</ele><time>2026-05-03T10:29:35.99Z</time></trkpt><trkpt lat="46.4050388" lon="12.8084409"><ele>504.66666666666663</ele><time>2026-05-03T10:29:36.99Z</time></trkpt><trkpt lat="46.4051244" lon="12.8082444"><ele>503.0</ele><time>2026-05-03T10:29:37.99Z</time></trkpt><trkpt lat="46.4052293" lon="12.8080756"><ele>503.0</ele><time>2026-05-03T10:29:38.99Z</time></trkpt><trkpt lat="46.4053104" lon="12.8078839"><ele>503.0</ele><time>2026-05-03T10:29:39.991Z</time></trkpt><trkpt lat="46.405378" lon="12.8076706"><ele>503.0</ele><time>2026-05-03T10:29:40.989Z</time></trkpt><trkpt lat="46.405439" lon="12.8074576"><ele>502.3333333333333</ele><time>2026-05-03T10:29:41.99Z</time></trkpt><trkpt lat="46.4054819" lon="12.8072399"><ele>501.66666666666663</ele><time>2026-05-03T10:29:42.989Z</time></trkpt><trkpt lat="46.4054911" lon="12.8070048"><ele>501.0</ele><time>2026-05-03T10:29:43.99Z</time></trkpt><trkpt lat="46.4054938" lon="12.8067621"><ele>501.0</ele><time>2026-05-03T10:29:44.989Z</time></trkpt><trkpt lat="46.4054902" lon="12.8065305"><ele>501.0</ele><time>2026-05-03T10:29:45.99Z</time></trkpt><trkpt lat="46.4054867" lon="12.8063249"><ele>501.0</ele><time>2026-05-03T10:29:46.989Z</time></trkpt><trkpt lat="46.405472" lon="12.806145"><ele>501.0</ele><time>2026-05-03T10:29:47.99Z</time></trkpt><trkpt lat="46.4054221" lon="12.8059893"><ele>502.75</ele><time>2026-05-03T10:29:48.99Z</time></trkpt><trkpt lat="46.4053395" lon="12.8058498"><ele>504.5</ele><time>2026-05-03T10:29:49.99Z</time></trkpt><trkpt lat="46.4052512" lon="12.8057056"><ele>506.25</ele><time>2026-05-03T10:29:50.99Z</time></trkpt><trkpt lat="46.4051804" lon="12.8055463"><ele>508.0</ele><time>2026-05-03T10:29:51.99Z</time></trkpt><trkpt lat="46.4051385" lon="12.8053606"><ele>508.6666666666667</ele><time>2026-05-03T10:29:52.989Z</time></trkpt><trkpt lat="46.4051312" lon="12.8051541"><ele>509.33333333333337</ele><time>2026-05-03T10:29:53.991Z</time></trkpt><trkpt lat="46.4051463" lon="12.8049344"><ele>510.0</ele><time>2026-05-03T10:29:54.99Z</time></trkpt><trkpt lat="46.4051689" lon="12.8047027"><ele>510.0</ele><time>2026-05-03T10:29:55.99Z</time></trkpt><trkpt lat="46.4051854" lon="12.8044749"><ele>510.0</ele><time>2026-05-03T10:29:56.99Z</time></trkpt><trkpt lat="46.4051795" lon="12.8042353"><ele>510.0</ele><time>2026-05-03T10:29:57.99Z</time></trkpt><trkpt lat="46.4051505" lon="12.8039874"><ele>511.33333333333337</ele><time>2026-05-03T10:29:58.99Z</time></trkpt><trkpt lat="46.4051211" lon="12.8037428"><ele>512.6666666666667</ele><time>2026-05-03T10:29:59.989Z</time></trkpt><trkpt lat="46.4050908" lon="12.8034881"><ele>514.0</ele><time>2026-05-03T10:30:00.99Z</time></trkpt><trkpt lat="46.4050579" lon="12.8032339"><ele>516.0</ele><time>2026-05-03T10:30:01.99Z</time></trkpt><trkpt lat="46.405021" lon="12.8029889"><ele>518.0</ele><time>2026-05-03T10:30:02.989Z</time></trkpt><trkpt lat="46.4049876" lon="12.80276"><ele>520.0</ele><time>2026-05-03T10:30:03.99Z</time></trkpt><trkpt lat="46.4049584" lon="12.8025596"><ele>521.6</ele><time>2026-05-03T10:30:04.99Z</time></trkpt><trkpt lat="46.4049346" lon="12.802386"><ele>523.2</ele><time>2026-05-03T10:30:05.989Z</time></trkpt><trkpt lat="46.4049268" lon="12.8022363"><ele>524.8</ele><time>2026-05-03T10:30:06.989Z</time></trkpt><trkpt lat="46.4049487" lon="12.8021003"><ele>526.4</ele><time>2026-05-03T10:30:07.989Z</time></trkpt><trkpt lat="46.4049974" lon="12.8019997"><ele>528.0</ele><time>2026-05-03T10:30:08.99Z</time></trkpt><trkpt lat="46.4050975" lon="12.8020016"><ele>528.0</ele><time>2026-05-03T10:30:09.99Z</time></trkpt><trkpt lat="46.4051762" lon="12.8020861"><ele>528.0</ele><time>2026-05-03T10:30:10.989Z</time></trkpt><trkpt lat="46.4052068" lon="12.8022226"><ele>528.0</ele><time>2026-05-03T10:30:11.99Z</time></trkpt><trkpt lat="46.4051892" lon="12.8023881"><ele>528.0</ele><time>2026-05-03T10:30:12.989Z</time></trkpt><trkpt lat="46.4051373" lon="12.8025571"><ele>528.0</ele><time>2026-05-03T10:30:13.991Z</time></trkpt><trkpt lat="46.4051129" lon="12.802747"><ele>526.0</ele><time>2026-05-03T10:30:14.99Z</time></trkpt><trkpt lat="46.4051308" lon="12.8029516"><ele>524.0</ele><time>2026-05-03T10:30:15.99Z</time></trkpt><trkpt lat="46.4051687" lon="12.8031642"><ele>522.0</ele><time>2026-05-03T10:30:16.99Z</time></trkpt><trkpt lat="46.4052042" lon="12.8033598"><ele>520.0</ele><time>2026-05-03T10:30:17.99Z</time></trkpt><trkpt lat="46.4052433" lon="12.8035308"><ele>518.8</ele><time>2026-05-03T10:30:18.99Z</time></trkpt><trkpt lat="46.4053029" lon="12.8036687"><ele>517.6</ele><time>2026-05-03T10:30:19.99Z</time></trkpt><trkpt lat="46.4053929" lon="12.8037616"><ele>516.4</ele><time>2026-05-03T10:30:20.99Z</time></trkpt><trkpt lat="46.4055038" lon="12.8037879"><ele>515.2</ele><time>2026-05-03T10:30:21.991Z</time></trkpt><trkpt lat="46.4056142" lon="12.8037447"><ele>514.0</ele><time>2026-05-03T10:30:22.989Z</time></trkpt><trkpt lat="46.4057142" lon="12.8036399"><ele>518.5</ele><time>2026-05-03T10:30:23.99Z</time></trkpt><trkpt lat="46.4058131" lon="12.8035185"><ele>523.0</ele><time>2026-05-03T10:30:24.989Z</time></trkpt><trkpt lat="46.4059044" lon="12.8033943"><ele>527.5</ele><time>2026-05-03T10:30:25.99Z</time></trkpt><trkpt lat="46.4059952" lon="12.8032895"><ele>532.0</ele><time>2026-05-03T10:30:26.99Z</time></trkpt><trkpt lat="46.4060978" lon="12.8032298"><ele>532.5</ele><time>2026-05-03T10:30:27.99Z</time></trkpt><trkpt lat="46.4062069" lon="12.8032337"><ele>533.0</ele><time>2026-05-03T10:30:28.99Z</time></trkpt><trkpt lat="46.4063177" lon="12.8033054"><ele>533.5</ele><time>2026-05-03T10:30:29.99Z</time></trkpt><trkpt lat="46.4064303" lon="12.8034363"><ele>534.0</ele><time>2026-05-03T10:30:30.99Z</time></trkpt><trkpt lat="46.4065582" lon="12.8035801"><ele>532.0</ele><time>2026-05-03T10:30:31.989Z</time></trkpt><trkpt lat="46.4066871" lon="12.8037353"><ele>530.0</ele><time>2026-05-03T10:30:32.99Z</time></trkpt><trkpt lat="46.4068248" lon="12.803904"><ele>528.0</ele><time>2026-05-03T10:30:33.99Z</time></trkpt><trkpt lat="46.4069649" lon="12.8040771"><ele>528.0</ele><time>2026-05-03T10:30:34.99Z</time></trkpt><trkpt lat="46.4071077" lon="12.8042516"><ele>528.0</ele><time>2026-05-03T10:30:35.99Z</time></trkpt><trkpt lat="46.4072488" lon="12.8044248"><ele>528.0</ele><time>2026-05-03T10:30:36.99Z</time></trkpt><trkpt lat="46.4073845" lon="12.804592"><ele>525.6666666666666</ele><time>2026-05-03T10:30:37.99Z</time></trkpt><trkpt lat="46.4075311" lon="12.8047392"><ele>523.3333333333333</ele><time>2026-05-03T10:30:38.989Z</time></trkpt><trkpt lat="46.4076916" lon="12.8048623"><ele>521.0</ele><time>2026-05-03T10:30:39.99Z</time></trkpt><trkpt lat="46.4078797" lon="12.8049539"><ele>517.6666666666666</ele><time>2026-05-03T10:30:40.99Z</time></trkpt><trkpt lat="46.4080717" lon="12.8050395"><ele>514.3333333333334</ele><time>2026-05-03T10:30:41.99Z</time></trkpt><trkpt lat="46.4082661" lon="12.8051259"><ele>511.0</ele><time>2026-05-03T10:30:42.99Z</time></trkpt><trkpt lat="46.4084588" lon="12.8052141"><ele>510.0</ele><time>2026-05-03T10:30:43.989Z</time></trkpt><trkpt lat="46.4086523" lon="12.8053009"><ele>509.0</ele><time>2026-05-03T10:30:44.99Z</time></trkpt><trkpt lat="46.4088395" lon="12.8053816"><ele>508.0</ele><time>2026-05-03T10:30:45.99Z</time></trkpt><trkpt lat="46.4090244" lon="12.8054606"><ele>514.0</ele><time>2026-05-03T10:30:46.989Z</time></trkpt><trkpt lat="46.4092046" lon="12.8055415"><ele>520.0</ele><time>2026-05-03T10:30:47.99Z</time></trkpt><trkpt lat="46.4093799" lon="12.8056205"><ele>526.0</ele><time>2026-05-03T10:30:48.99Z</time></trkpt><trkpt lat="46.4095422" lon="12.8056929"><ele>526.25</ele><time>2026-05-03T10:30:49.99Z</time></trkpt><trkpt lat="46.409696" lon="12.8057607"><ele>526.5</ele><time>2026-05-03T10:30:50.99Z</time></trkpt><trkpt lat="46.409839" lon="12.8058209"><ele>526.75</ele><time>2026-05-03T10:30:51.99Z</time></trkpt><trkpt lat="46.4099735" lon="12.8058735"><ele>527.0</ele><time>2026-05-03T10:30:52.99Z</time></trkpt><trkpt lat="46.4101117" lon="12.8059127"><ele>527.0</ele><time>2026-05-03T10:30:53.99Z</time></trkpt><trkpt lat="46.410255" lon="12.8059249"><ele>527.0</ele><time>2026-05-03T10:30:54.99Z</time></trkpt><trkpt lat="46.4104012" lon="12.8059016"><ele>527.0</ele><time>2026-05-03T10:30:55.99Z</time></trkpt><trkpt lat="46.4105538" lon="12.8058473"><ele>527.0</ele><time>2026-05-03T10:30:56.99Z</time></trkpt><trkpt lat="46.4107071" lon="12.8057643"><ele>527.6666666666666</ele><time>2026-05-03T10:30:57.99Z</time></trkpt><trkpt lat="46.4108632" lon="12.8056733"><ele>528.3333333333334</ele><time>2026-05-03T10:30:58.989Z</time></trkpt><trkpt lat="46.4110292" lon="12.8056008"><ele>529.0</ele><time>2026-05-03T10:30:59.99Z</time></trkpt><trkpt lat="46.4112086" lon="12.8055491"><ele>529.3333333333334</ele><time>2026-05-03T10:31:00.989Z</time></trkpt><trkpt lat="46.411395" lon="12.8055256"><ele>529.6666666666666</ele><time>2026-05-03T10:31:01.99Z</time></trkpt><trkpt lat="46.4115813" lon="12.8055245"><ele>530.0</ele><time>2026-05-03T10:31:02.991Z</time></trkpt><trkpt lat="46.4117673" lon="12.805532"><ele>530.0</ele><time>2026-05-03T10:31:03.99Z</time></trkpt><trkpt lat="46.411955" lon="12.8055249"><ele>530.0</ele><time>2026-05-03T10:31:04.991Z</time></trkpt><trkpt lat="46.4121445" lon="12.8054877"><ele>530.0</ele><time>2026-05-03T10:31:05.99Z</time></trkpt><trkpt lat="46.4123323" lon="12.8054232"><ele>532.6666666666666</ele><time>2026-05-03T10:31:06.989Z</time></trkpt><trkpt lat="46.4125169" lon="12.8053451"><ele>535.3333333333334</ele><time>2026-05-03T10:31:07.991Z</time></trkpt><trkpt lat="46.412698" lon="12.8052657"><ele>538.0</ele><time>2026-05-03T10:31:08.99Z</time></trkpt><trkpt lat="46.4128713" lon="12.8051925"><ele>539.0</ele><time>2026-05-03T10:31:09.991Z</time></trkpt><trkpt lat="46.4130366" lon="12.8051193"><ele>540.0</ele><time>2026-05-03T10:31:10.99Z</time></trkpt><trkpt lat="46.413185" lon="12.805033"><ele>541.0</ele><time>2026-05-03T10:31:11.989Z</time></trkpt><trkpt lat="46.4133154" lon="12.804918"><ele>541.0</ele><time>2026-05-03T10:31:12.99Z</time></trkpt><trkpt lat="46.41343" lon="12.8047784"><ele>541.0</ele><time>2026-05-03T10:31:13.991Z</time></trkpt><trkpt lat="46.413523" lon="12.8046261"><ele>541.0</ele><time>2026-05-03T10:31:14.99Z</time></trkpt><trkpt lat="46.4135988" lon="12.8044723"><ele>541.0</ele><time>2026-05-03T10:31:15.99Z</time></trkpt><trkpt lat="46.4136554" lon="12.8043087"><ele>540.0</ele><time>2026-05-03T10:31:16.99Z</time></trkpt><trkpt lat="46.4136973" lon="12.8041264"><ele>539.0</ele><time>2026-05-03T10:31:17.989Z</time></trkpt><trkpt lat="46.4137175" lon="12.8039258"><ele>538.0</ele><time>2026-05-03T10:31:18.99Z</time></trkpt><trkpt lat="46.4137126" lon="12.8037124"><ele>537.0</ele><time>2026-05-03T10:31:19.989Z</time></trkpt><trkpt lat="46.4136803" lon="12.8034907"><ele>537.0</ele><time>2026-05-03T10:31:20.991Z</time></trkpt><trkpt lat="46.4136211" lon="12.8032629"><ele>537.0</ele><time>2026-05-03T10:31:21.989Z</time></trkpt><trkpt lat="46.4135523" lon="12.8030272"><ele>537.0</ele><time>2026-05-03T10:31:22.99Z</time></trkpt><trkpt lat="46.4134832" lon="12.8027904"><ele>538.6666666666666</ele><time>2026-05-03T10:31:23.99Z</time></trkpt><trkpt lat="46.4134187" lon="12.8025615"><ele>540.3333333333333</ele><time>2026-05-03T10:31:24.99Z</time></trkpt><trkpt lat="46.4133554" lon="12.8023426"><ele>542.0</ele><time>2026-05-03T10:31:25.99Z</time></trkpt><trkpt lat="46.4132932" lon="12.8021275"><ele>542.0</ele><time>2026-05-03T10:31:26.99Z</time></trkpt><trkpt lat="46.4132468" lon="12.8019047"><ele>542.0</ele><time>2026-05-03T10:31:27.991Z</time></trkpt><trkpt lat="46.4132195" lon="12.8016699"><ele>542.0</ele><time>2026-05-03T10:31:28.989Z</time></trkpt><trkpt lat="46.4132122" lon="12.8014299"><ele>542.0</ele><time>2026-05-03T10:31:29.989Z</time></trkpt><trkpt lat="46.4132274" lon="12.8011875"><ele>542.0</ele><time>2026-05-03T10:31:30.99Z</time></trkpt><trkpt lat="46.4132605" lon="12.800944"><ele>542.0</ele><time>2026-05-03T10:31:31.99Z</time></trkpt><trkpt lat="46.4132973" lon="12.800716"><ele>542.0</ele><time>2026-05-03T10:31:32.99Z</time></trkpt><trkpt lat="46.4133385" lon="12.8005045"><ele>542.0</ele><time>2026-05-03T10:31:33.99Z</time></trkpt><trkpt lat="46.4133955" lon="12.8003155"><ele>542.0</ele><time>2026-05-03T10:31:34.99Z</time></trkpt><trkpt lat="46.4134706" lon="12.8001585"><ele>542.0</ele><time>2026-05-03T10:31:35.989Z</time></trkpt><trkpt lat="46.4135687" lon="12.800028"><ele>541.75</ele><time>2026-05-03T10:31:36.99Z</time></trkpt><trkpt lat="46.4136894" lon="12.7999276"><ele>541.5</ele><time>2026-05-03T10:31:37.989Z</time></trkpt><trkpt lat="46.4138226" lon="12.7998663"><ele>541.25</ele><time>2026-05-03T10:31:38.99Z</time></trkpt><trkpt lat="46.413954" lon="12.7998195"><ele>541.0</ele><time>2026-05-03T10:31:39.99Z</time></trkpt><trkpt lat="46.4140826" lon="12.7997355"><ele>542.75</ele><time>2026-05-03T10:31:40.99Z</time></trkpt><trkpt lat="46.4142016" lon="12.7996225"><ele>544.5</ele><time>2026-05-03T10:31:41.99Z</time></trkpt><trkpt lat="46.4143064" lon="12.7994804"><ele>546.25</ele><time>2026-05-03T10:31:42.99Z</time></trkpt><trkpt lat="46.4143953" lon="12.7993112"><ele>548.0</ele><time>2026-05-03T10:31:43.99Z</time></trkpt><trkpt lat="46.414479" lon="12.7991242"><ele>548.0</ele><time>2026-05-03T10:31:44.99Z</time></trkpt><trkpt lat="46.4145582" lon="12.7989342"><ele>548.0</ele><time>2026-05-03T10:31:45.989Z</time></trkpt><trkpt lat="46.4146387" lon="12.7987482"><ele>548.0</ele><time>2026-05-03T10:31:46.99Z</time></trkpt><trkpt lat="46.4147156" lon="12.7985677"><ele>549.75</ele><time>2026-05-03T10:31:47.99Z</time></trkpt><trkpt lat="46.4147941" lon="12.7983876"><ele>551.5</ele><time>2026-05-03T10:31:48.99Z</time></trkpt><trkpt lat="46.4148737" lon="12.7982091"><ele>553.25</ele><time>2026-05-03T10:31:49.989Z</time></trkpt><trkpt lat="46.4149543" lon="12.7980304"><ele>555.0</ele><time>2026-05-03T10:31:50.99Z</time></trkpt><trkpt lat="46.4150338" lon="12.7978477"><ele>555.0</ele><time>2026-05-03T10:31:51.989Z</time></trkpt><trkpt lat="46.4151152" lon="12.7976599"><ele>555.0</ele><time>2026-05-03T10:31:52.99Z</time></trkpt><trkpt lat="46.4151981" lon="12.7974729"><ele>555.0</ele><time>2026-05-03T10:31:53.99Z</time></trkpt><trkpt lat="46.4152803" lon="12.7972864"><ele>555.0</ele><time>2026-05-03T10:31:54.99Z</time></trkpt><trkpt lat="46.4153604" lon="12.7971067"><ele>555.0</ele><time>2026-05-03T10:31:55.99Z</time></trkpt><trkpt lat="46.4154391" lon="12.7969312"><ele>555.0</ele><time>2026-05-03T10:31:56.989Z</time></trkpt><trkpt lat="46.4155167" lon="12.7967615"><ele>555.0</ele><time>2026-05-03T10:31:57.99Z</time></trkpt><trkpt lat="46.4155916" lon="12.7965983"><ele>555.0</ele><time>2026-05-03T10:31:58.99Z</time></trkpt><trkpt lat="46.415664" lon="12.7964411"><ele>555.0</ele><time>2026-05-03T10:31:59.99Z</time></trkpt><trkpt lat="46.4157313" lon="12.7962962"><ele>555.0</ele><time>2026-05-03T10:32:00.989Z</time></trkpt><trkpt lat="46.4157912" lon="12.7961504"><ele>555.0</ele><time>2026-05-03T10:32:01.99Z</time></trkpt><trkpt lat="46.4158476" lon="12.7960117"><ele>555.0</ele><time>2026-05-03T10:32:02.99Z</time></trkpt><trkpt lat="46.4158981" lon="12.7958763"><ele>555.0</ele><time>2026-05-03T10:32:03.99Z</time></trkpt><trkpt lat="46.4159489" lon="12.7957491"><ele>555.0</ele><time>2026-05-03T10:32:04.989Z</time></trkpt><trkpt lat="46.4160062" lon="12.7956151"><ele>555.0</ele><time>2026-05-03T10:32:05.991Z</time></trkpt><trkpt lat="46.4160637" lon="12.7954732"><ele>555.0</ele><time>2026-05-03T10:32:06.989Z</time></trkpt><trkpt lat="46.41614" lon="12.7953299"><ele>555.0</ele><time>2026-05-03T10:32:07.99Z</time></trkpt><trkpt lat="46.4162218" lon="12.7951888"><ele>555.0</ele><time>2026-05-03T10:32:08.991Z</time></trkpt><trkpt lat="46.4162934" lon="12.7950517"><ele>555.0</ele><time>2026-05-03T10:32:09.991Z</time></trkpt><trkpt lat="46.4163564" lon="12.7949205"><ele>555.0</ele><time>2026-05-03T10:32:10.99Z</time></trkpt><trkpt lat="46.4163799" lon="12.7947626"><ele>555.4</ele><time>2026-05-03T10:32:11.99Z</time></trkpt><trkpt lat="46.4163723" lon="12.7946177"><ele>555.8</ele><time>2026-05-03T10:32:12.989Z</time></trkpt><trkpt lat="46.4163569" lon="12.7944774"><ele>556.2</ele><time>2026-05-03T10:32:13.99Z</time></trkpt><trkpt lat="46.4163534" lon="12.7943436"><ele>556.6</ele><time>2026-05-03T10:32:14.989Z</time></trkpt><trkpt lat="46.4163759" lon="12.7942032"><ele>557.0</ele><time>2026-05-03T10:32:15.99Z</time></trkpt><trkpt lat="46.4164103" lon="12.7940591"><ele>557.8000000000001</ele><time>2026-05-03T10:32:16.99Z</time></trkpt><trkpt lat="46.4164533" lon="12.7939154"><ele>558.6</ele><time>2026-05-03T10:32:17.988Z</time></trkpt><trkpt lat="46.4164957" lon="12.7937592"><ele>559.4000000000001</ele><time>2026-05-03T10:32:18.989Z</time></trkpt><trkpt lat="46.4165345" lon="12.7936047"><ele>560.2</ele><time>2026-05-03T10:32:19.988Z</time></trkpt><trkpt lat="46.4165714" lon="12.7934572"><ele>561.0</ele><time>2026-05-03T10:32:20.989Z</time></trkpt><trkpt lat="46.4165993" lon="12.7933162"><ele>561.6</ele><time>2026-05-03T10:32:21.988Z</time></trkpt><trkpt lat="46.4166157" lon="12.7931717"><ele>562.2</ele><time>2026-05-03T10:32:22.989Z</time></trkpt><trkpt lat="46.416597" lon="12.7930486"><ele>562.8</ele><time>2026-05-03T10:32:23.99Z</time></trkpt><trkpt lat="46.4165748" lon="12.7929211"><ele>563.4</ele><time>2026-05-03T10:32:24.988Z</time></trkpt><trkpt lat="46.4165528" lon="12.7927914"><ele>564.0</ele><time>2026-05-03T10:32:25.989Z</time></trkpt><trkpt lat="46.4165161" lon="12.792657"><ele>564.4</ele><time>2026-05-03T10:32:26.988Z</time></trkpt><trkpt lat="46.4164531" lon="12.7925319"><ele>564.8</ele><time>2026-05-03T10:32:27.989Z</time></trkpt><trkpt lat="46.4164052" lon="12.7923924"><ele>565.2</ele><time>2026-05-03T10:32:28.988Z</time></trkpt><trkpt lat="46.4163668" lon="12.7922439"><ele>565.6</ele><time>2026-05-03T10:32:29.989Z</time></trkpt><trkpt lat="46.4163275" lon="12.7920922"><ele>566.0</ele><time>2026-05-03T10:32:30.988Z</time></trkpt><trkpt lat="46.4162921" lon="12.7919446"><ele>564.8</ele><time>2026-05-03T10:32:31.989Z</time></trkpt><trkpt lat="46.4162681" lon="12.7917937"><ele>563.6</ele><time>2026-05-03T10:32:32.988Z</time></trkpt><trkpt lat="46.4162458" lon="12.7916446"><ele>562.4</ele><time>2026-05-03T10:32:33.989Z</time></trkpt><trkpt lat="46.4162353" lon="12.7914885"><ele>561.2</ele><time>2026-05-03T10:32:34.989Z</time></trkpt><trkpt lat="46.4162381" lon="12.791337"><ele>560.0</ele><time>2026-05-03T10:32:35.989Z</time></trkpt><trkpt lat="46.4162535" lon="12.791203"><ele>560.0</ele><time>2026-05-03T10:32:36.988Z</time></trkpt><trkpt lat="46.4162863" lon="12.7910924"><ele>560.0</ele><time>2026-05-03T10:32:37.989Z</time></trkpt><trkpt lat="46.4163363" lon="12.7910114"><ele>560.0</ele><time>2026-05-03T10:32:38.989Z</time></trkpt><trkpt lat="46.4163973" lon="12.7909633"><ele>560.0</ele><time>2026-05-03T10:32:39.989Z</time></trkpt><trkpt lat="46.4164622" lon="12.7909612"><ele>560.0</ele><time>2026-05-03T10:32:40.989Z</time></trkpt><trkpt lat="46.4165376" lon="12.7909705"><ele>560.0</ele><time>2026-05-03T10:32:41.989Z</time></trkpt><trkpt lat="46.4166239" lon="12.7909596"><ele>561.0</ele><time>2026-05-03T10:32:42.989Z</time></trkpt><trkpt lat="46.4167185" lon="12.7909637"><ele>562.0</ele><time>2026-05-03T10:32:43.989Z</time></trkpt><trkpt lat="46.4168017" lon="12.7909655"><ele>563.0</ele><time>2026-05-03T10:32:44.989Z</time></trkpt><trkpt lat="46.4168749" lon="12.790951"><ele>564.0</ele><time>2026-05-03T10:32:45.988Z</time></trkpt><trkpt lat="46.4169461" lon="12.7909074"><ele>565.0</ele><time>2026-05-03T10:32:46.989Z</time></trkpt><trkpt lat="46.4170056" lon="12.7908203"><ele>566.0</ele><time>2026-05-03T10:32:47.989Z</time></trkpt><trkpt lat="46.41706" lon="12.7907001"><ele>566.0</ele><time>2026-05-03T10:32:48.988Z</time></trkpt><trkpt lat="46.4171118" lon="12.7905535"><ele>566.0</ele><time>2026-05-03T10:32:49.989Z</time></trkpt><trkpt lat="46.417161" lon="12.7904126"><ele>566.0</ele><time>2026-05-03T10:32:50.989Z</time></trkpt><trkpt lat="46.4172129" lon="12.7902672"><ele>566.0</ele><time>2026-05-03T10:32:51.989Z</time></trkpt><trkpt lat="46.4172691" lon="12.7901257"><ele>566.0</ele><time>2026-05-03T10:32:52.989Z</time></trkpt><trkpt lat="46.4173248" lon="12.7899889"><ele>566.8</ele><time>2026-05-03T10:32:53.988Z</time></trkpt><trkpt lat="46.4173712" lon="12.7898549"><ele>567.6</ele><time>2026-05-03T10:32:54.989Z</time></trkpt><trkpt lat="46.4174185" lon="12.7897276"><ele>568.4</ele><time>2026-05-03T10:32:55.989Z</time></trkpt><trkpt lat="46.4174609" lon="12.7896074"><ele>569.2</ele><time>2026-05-03T10:32:56.989Z</time></trkpt><trkpt lat="46.4174989" lon="12.7894958"><ele>570.0</ele><time>2026-05-03T10:32:57.989Z</time></trkpt><trkpt lat="46.4175277" lon="12.7893873"><ele>570.3333333333334</ele><time>2026-05-03T10:32:58.988Z</time></trkpt><trkpt lat="46.4175472" lon="12.7892858"><ele>570.6666666666666</ele><time>2026-05-03T10:32:59.989Z</time></trkpt><trkpt lat="46.4175605" lon="12.789179"><ele>571.0</ele><time>2026-05-03T10:33:00.988Z</time></trkpt><trkpt lat="46.4175634" lon="12.7890825"><ele>571.3333333333333</ele><time>2026-05-03T10:33:01.989Z</time></trkpt><trkpt lat="46.4175368" lon="12.7888974"><ele>571.6666666666666</ele><time>2026-05-03T10:33:03.989Z</time></trkpt><trkpt lat="46.4174927" lon="12.7887953"><ele>572.0</ele><time>2026-05-03T10:33:04.989Z</time></trkpt><trkpt lat="46.417421" lon="12.7886886"><ele>572.0</ele><time>2026-05-03T10:33:05.989Z</time></trkpt><trkpt lat="46.4173422" lon="12.788564"><ele>572.0</ele><time>2026-05-03T10:33:06.988Z</time></trkpt><trkpt lat="46.4172583" lon="12.7884374"><ele>572.0</ele><time>2026-05-03T10:33:07.989Z</time></trkpt><trkpt lat="46.4171619" lon="12.7883125"><ele>572.0</ele><time>2026-05-03T10:33:08.988Z</time></trkpt><trkpt lat="46.4170382" lon="12.7882129"><ele>574.6666666666666</ele><time>2026-05-03T10:33:09.989Z</time></trkpt><trkpt lat="46.4168997" lon="12.7881325"><ele>577.3333333333334</ele><time>2026-05-03T10:33:10.988Z</time></trkpt><trkpt lat="46.4167466" lon="12.7880707"><ele>580.0</ele><time>2026-05-03T10:33:11.989Z</time></trkpt><trkpt lat="46.4165934" lon="12.788021"><ele>580.0</ele><time>2026-05-03T10:33:12.988Z</time></trkpt><trkpt lat="46.4164399" lon="12.7879759"><ele>580.0</ele><time>2026-05-03T10:33:13.988Z</time></trkpt><trkpt lat="46.4162899" lon="12.7879249"><ele>580.0</ele><time>2026-05-03T10:33:14.989Z</time></trkpt><trkpt lat="46.4161519" lon="12.7878796"><ele>581.25</ele><time>2026-05-03T10:33:15.989Z</time></trkpt><trkpt lat="46.4160233" lon="12.7878404"><ele>582.5</ele><time>2026-05-03T10:33:16.988Z</time></trkpt><trkpt lat="46.4159033" lon="12.7878318"><ele>583.75</ele><time>2026-05-03T10:33:17.989Z</time></trkpt><trkpt lat="46.415792" lon="12.7878613"><ele>585.0</ele><time>2026-05-03T10:33:18.989Z</time></trkpt><trkpt lat="46.4156876" lon="12.7879397"><ele>585.0</ele><time>2026-05-03T10:33:19.989Z</time></trkpt><trkpt lat="46.4156015" lon="12.7880618"><ele>585.0</ele><time>2026-05-03T10:33:20.988Z</time></trkpt><trkpt lat="46.4155434" lon="12.7882129"><ele>585.0</ele><time>2026-05-03T10:33:21.989Z</time></trkpt><trkpt lat="46.4154926" lon="12.7883789"><ele>585.0</ele><time>2026-05-03T10:33:22.989Z</time></trkpt><trkpt lat="46.4154171" lon="12.7885316"><ele>586.5</ele><time>2026-05-03T10:33:23.989Z</time></trkpt><trkpt lat="46.4153184" lon="12.7886707"><ele>588.0</ele><time>2026-05-03T10:33:24.989Z</time></trkpt><trkpt lat="46.4152106" lon="12.7888125"><ele>589.5</ele><time>2026-05-03T10:33:25.989Z</time></trkpt><trkpt lat="46.4150945" lon="12.7889576"><ele>591.0</ele><time>2026-05-03T10:33:26.989Z</time></trkpt><trkpt lat="46.414987" lon="12.7890912"><ele>591.0</ele><time>2026-05-03T10:33:27.989Z</time></trkpt><trkpt lat="46.4148865" lon="12.7892118"><ele>591.0</ele><time>2026-05-03T10:33:28.989Z</time></trkpt><trkpt lat="46.4147911" lon="12.7893032"><ele>591.0</ele><time>2026-05-03T10:33:29.989Z</time></trkpt><trkpt lat="46.4146923" lon="12.7893348"><ele>591.0</ele><time>2026-05-03T10:33:30.989Z</time></trkpt><trkpt lat="46.4145936" lon="12.7893033"><ele>591.0</ele><time>2026-05-03T10:33:31.989Z</time></trkpt><trkpt lat="46.414508" lon="12.7892259"><ele>590.25</ele><time>2026-05-03T10:33:32.989Z</time></trkpt><trkpt lat="46.4144376" lon="12.7890959"><ele>589.5</ele><time>2026-05-03T10:33:33.989Z</time></trkpt><trkpt lat="46.4143659" lon="12.788946"><ele>588.75</ele><time>2026-05-03T10:33:34.988Z</time></trkpt><trkpt lat="46.4142959" lon="12.7887819"><ele>588.0</ele><time>2026-05-03T10:33:35.989Z</time></trkpt><trkpt lat="46.4142393" lon="12.7886124"><ele>591.0</ele><time>2026-05-03T10:33:36.988Z</time></trkpt><trkpt lat="46.4142073" lon="12.7884319"><ele>594.0</ele><time>2026-05-03T10:33:37.989Z</time></trkpt><trkpt lat="46.4142025" lon="12.7882318"><ele>597.0</ele><time>2026-05-03T10:33:38.989Z</time></trkpt><trkpt lat="46.4142152" lon="12.7880162"><ele>600.0</ele><time>2026-05-03T10:33:39.99Z</time></trkpt><trkpt lat="46.414228" lon="12.787794"><ele>601.5</ele><time>2026-05-03T10:33:40.989Z</time></trkpt><trkpt lat="46.4142455" lon="12.7875924"><ele>603.0</ele><time>2026-05-03T10:33:41.989Z</time></trkpt><trkpt lat="46.4142552" lon="12.7873996"><ele>604.5</ele><time>2026-05-03T10:33:42.989Z</time></trkpt><trkpt lat="46.414243" lon="12.787216"><ele>606.0</ele><time>2026-05-03T10:33:43.989Z</time></trkpt><trkpt lat="46.4141966" lon="12.7870465"><ele>606.0</ele><time>2026-05-03T10:33:44.989Z</time></trkpt><trkpt lat="46.4141073" lon="12.7869098"><ele>606.0</ele><time>2026-05-03T10:33:45.988Z</time></trkpt><trkpt lat="46.4139849" lon="12.7868214"><ele>606.0</ele><time>2026-05-03T10:33:46.99Z</time></trkpt><trkpt lat="46.4138436" lon="12.7867731"><ele>606.0</ele><time>2026-05-03T10:33:47.99Z</time></trkpt><trkpt lat="46.4137036" lon="12.7867333"><ele>607.6666666666666</ele><time>2026-05-03T10:33:48.989Z</time></trkpt><trkpt lat="46.4135662" lon="12.7866634"><ele>609.3333333333333</ele><time>2026-05-03T10:33:49.989Z</time></trkpt><trkpt lat="46.4134351" lon="12.7865418"><ele>611.0</ele><time>2026-05-03T10:33:50.988Z</time></trkpt><trkpt lat="46.4133137" lon="12.7863971"><ele>611.0</ele><time>2026-05-03T10:33:51.989Z</time></trkpt><trkpt lat="46.4132127" lon="12.7862136"><ele>611.0</ele><time>2026-05-03T10:33:52.989Z</time></trkpt><trkpt lat="46.4131181" lon="12.7860095"><ele>611.0</ele><time>2026-05-03T10:33:53.99Z</time></trkpt><trkpt lat="46.4130251" lon="12.7858056"><ele>609.6666666666666</ele><time>2026-05-03T10:33:54.988Z</time></trkpt><trkpt lat="46.412918" lon="12.7856209"><ele>608.3333333333334</ele><time>2026-05-03T10:33:55.989Z</time></trkpt><trkpt lat="46.412787" lon="12.785471"><ele>607.0</ele><time>2026-05-03T10:33:56.988Z</time></trkpt><trkpt lat="46.4126483" lon="12.7853574"><ele>607.0</ele><time>2026-05-03T10:33:57.989Z</time></trkpt><trkpt lat="46.4125176" lon="12.7852463"><ele>607.0</ele><time>2026-05-03T10:33:58.988Z</time></trkpt><trkpt lat="46.4124062" lon="12.7851027"><ele>607.0</ele><time>2026-05-03T10:33:59.989Z</time></trkpt><trkpt lat="46.4123347" lon="12.7849253"><ele>607.0</ele><time>2026-05-03T10:34:00.989Z</time></trkpt><trkpt lat="46.4122878" lon="12.784725"><ele>611.75</ele><time>2026-05-03T10:34:01.989Z</time></trkpt><trkpt lat="46.41225" lon="12.7845246"><ele>616.5</ele><time>2026-05-03T10:34:02.989Z</time></trkpt><trkpt lat="46.4122322" lon="12.7843368"><ele>621.25</ele><time>2026-05-03T10:34:03.988Z</time></trkpt><trkpt lat="46.4122367" lon="12.7841488"><ele>626.0</ele><time>2026-05-03T10:34:04.989Z</time></trkpt><trkpt lat="46.4122722" lon="12.7839639"><ele>628.5</ele><time>2026-05-03T10:34:05.989Z</time></trkpt><trkpt lat="46.4123155" lon="12.7837786"><ele>631.0</ele><time>2026-05-03T10:34:06.989Z</time></trkpt><trkpt lat="46.4123651" lon="12.7835819"><ele>633.5</ele><time>2026-05-03T10:34:07.988Z</time></trkpt><trkpt lat="46.4124189" lon="12.7833766"><ele>636.0</ele><time>2026-05-03T10:34:08.989Z</time></trkpt><trkpt lat="46.4124725" lon="12.7831625"><ele>636.0</ele><time>2026-05-03T10:34:09.989Z</time></trkpt><trkpt lat="46.4125213" lon="12.7829608"><ele>636.0</ele><time>2026-05-03T10:34:10.989Z</time></trkpt><trkpt lat="46.4125522" lon="12.78274"><ele>636.0</ele><time>2026-05-03T10:34:11.989Z</time></trkpt><trkpt lat="46.4125659" lon="12.7825074"><ele>635.3333333333334</ele><time>2026-05-03T10:34:12.988Z</time></trkpt><trkpt lat="46.4125783" lon="12.7822786"><ele>634.6666666666667</ele><time>2026-05-03T10:34:13.989Z</time></trkpt><trkpt lat="46.4125925" lon="12.7820651"><ele>634.0</ele><time>2026-05-03T10:34:14.988Z</time></trkpt><trkpt lat="46.4126197" lon="12.7818551"><ele>635.0</ele><time>2026-05-03T10:34:15.989Z</time></trkpt><trkpt lat="46.4126712" lon="12.7816425"><ele>636.0</ele><time>2026-05-03T10:34:16.99Z</time></trkpt><trkpt lat="46.4127457" lon="12.7814447"><ele>637.0</ele><time>2026-05-03T10:34:17.988Z</time></trkpt><trkpt lat="46.4128458" lon="12.7812673"><ele>637.0</ele><time>2026-05-03T10:34:18.989Z</time></trkpt><trkpt lat="46.4129701" lon="12.7811189"><ele>637.0</ele><time>2026-05-03T10:34:19.988Z</time></trkpt><trkpt lat="46.413111" lon="12.7810063"><ele>637.0</ele><time>2026-05-03T10:34:20.989Z</time></trkpt><trkpt lat="46.4132722" lon="12.780932"><ele>641.6666666666667</ele><time>2026-05-03T10:34:21.989Z</time></trkpt><trkpt lat="46.4134392" lon="12.7808728"><ele>646.3333333333334</ele><time>2026-05-03T10:34:22.989Z</time></trkpt><trkpt lat="46.4136042" lon="12.7808069"><ele>651.0</ele><time>2026-05-03T10:34:23.988Z</time></trkpt><trkpt lat="46.4137631" lon="12.7806988"><ele>652.6666666666666</ele><time>2026-05-03T10:34:24.989Z</time></trkpt><trkpt lat="46.4139128" lon="12.780557"><ele>654.3333333333333</ele><time>2026-05-03T10:34:25.989Z</time></trkpt><trkpt lat="46.4140594" lon="12.7804021"><ele>656.0</ele><time>2026-05-03T10:34:26.989Z</time></trkpt><trkpt lat="46.4142031" lon="12.780244"><ele>652.6666666666666</ele><time>2026-05-03T10:34:27.989Z</time></trkpt><trkpt lat="46.414346" lon="12.78009"><ele>649.3333333333334</ele><time>2026-05-03T10:34:28.989Z</time></trkpt><trkpt lat="46.4144797" lon="12.7799429"><ele>646.0</ele><time>2026-05-03T10:34:29.988Z</time></trkpt><trkpt lat="46.4146116" lon="12.7798049"><ele>647.5</ele><time>2026-05-03T10:34:30.988Z</time></trkpt><trkpt lat="46.4147276" lon="12.779671"><ele>649.0</ele><time>2026-05-03T10:34:31.989Z</time></trkpt><trkpt lat="46.414822" lon="12.779524"><ele>650.5</ele><time>2026-05-03T10:34:32.989Z</time></trkpt><trkpt lat="46.4148779" lon="12.7793463"><ele>652.0</ele><time>2026-05-03T10:34:33.988Z</time></trkpt><trkpt lat="46.4148872" lon="12.7791541"><ele>655.0</ele><time>2026-05-03T10:34:34.989Z</time></trkpt><trkpt lat="46.4148532" lon="12.7789555"><ele>658.0</ele><time>2026-05-03T10:34:35.988Z</time></trkpt><trkpt lat="46.4147992" lon="12.7787478"><ele>661.0</ele><time>2026-05-03T10:34:36.989Z</time></trkpt><trkpt lat="46.4147394" lon="12.7785215"><ele>658.6666666666667</ele><time>2026-05-03T10:34:37.989Z</time></trkpt><trkpt lat="46.414674" lon="12.7782884"><ele>656.3333333333334</ele><time>2026-05-03T10:34:38.988Z</time></trkpt><trkpt lat="46.4146101" lon="12.7780444"><ele>654.0</ele><time>2026-05-03T10:34:39.989Z</time></trkpt><trkpt lat="46.4145461" lon="12.7778055"><ele>657.0</ele><time>2026-05-03T10:34:40.989Z</time></trkpt><trkpt lat="46.4144832" lon="12.7775566"><ele>660.0</ele><time>2026-05-03T10:34:41.988Z</time></trkpt><trkpt lat="46.4144285" lon="12.7773008"><ele>663.0</ele><time>2026-05-03T10:34:42.989Z</time></trkpt><trkpt lat="46.4143757" lon="12.7770373"><ele>666.3333333333334</ele><time>2026-05-03T10:34:43.989Z</time></trkpt><trkpt lat="46.4143188" lon="12.7767906"><ele>669.6666666666667</ele><time>2026-05-03T10:34:44.989Z</time></trkpt><trkpt lat="46.4142465" lon="12.7765661"><ele>673.0</ele><time>2026-05-03T10:34:45.99Z</time></trkpt><trkpt lat="46.4141516" lon="12.7763645"><ele>673.0</ele><time>2026-05-03T10:34:46.99Z</time></trkpt><trkpt lat="46.4140558" lon="12.7761841"><ele>673.0</ele><time>2026-05-03T10:34:47.989Z</time></trkpt><trkpt lat="46.413983" lon="12.775996"><ele>673.0</ele><time>2026-05-03T10:34:48.989Z</time></trkpt><trkpt lat="46.4139336" lon="12.7757834"><ele>674.3333333333334</ele><time>2026-05-03T10:34:49.989Z</time></trkpt><trkpt lat="46.4139012" lon="12.775559"><ele>675.6666666666666</ele><time>2026-05-03T10:34:50.99Z</time></trkpt><trkpt lat="46.4138765" lon="12.7753194"><ele>677.0</ele><time>2026-05-03T10:34:51.99Z</time></trkpt><trkpt lat="46.4138511" lon="12.7750776"><ele>678.3333333333333</ele><time>2026-05-03T10:34:52.989Z</time></trkpt><trkpt lat="46.4138259" lon="12.7748379"><ele>679.6666666666666</ele><time>2026-05-03T10:34:53.989Z</time></trkpt><trkpt lat="46.4138077" lon="12.7746033"><ele>681.0</ele><time>2026-05-03T10:34:54.989Z</time></trkpt><trkpt lat="46.4138026" lon="12.7743601"><ele>678.6666666666666</ele><time>2026-05-03T10:34:55.99Z</time></trkpt><trkpt lat="46.4138159" lon="12.774112"><ele>676.3333333333333</ele><time>2026-05-03T10:34:56.988Z</time></trkpt><trkpt lat="46.413846" lon="12.7738576"><ele>674.0</ele><time>2026-05-03T10:34:57.989Z</time></trkpt><trkpt lat="46.4138889" lon="12.7736045"><ele>682.6666666666666</ele><time>2026-05-03T10:34:58.989Z</time></trkpt><trkpt lat="46.413913" lon="12.7733384"><ele>691.3333333333334</ele><time>2026-05-03T10:34:59.989Z</time></trkpt><trkpt lat="46.4139281" lon="12.7730584"><ele>700.0</ele><time>2026-05-03T10:35:00.989Z</time></trkpt><trkpt lat="46.4139426" lon="12.7727711"><ele>703.6666666666667</ele><time>2026-05-03T10:35:01.989Z</time></trkpt><trkpt lat="46.4139577" lon="12.7724877"><ele>707.3333333333334</ele><time>2026-05-03T10:35:02.989Z</time></trkpt><trkpt lat="46.413968" lon="12.7722153"><ele>711.0</ele><time>2026-05-03T10:35:03.989Z</time></trkpt><trkpt lat="46.4139679" lon="12.7719485"><ele>711.3333333333334</ele><time>2026-05-03T10:35:04.989Z</time></trkpt><trkpt lat="46.4139258" lon="12.7716874"><ele>711.6666666666667</ele><time>2026-05-03T10:35:05.989Z</time></trkpt><trkpt lat="46.4138563" lon="12.7714342"><ele>712.0</ele><time>2026-05-03T10:35:06.99Z</time></trkpt><trkpt lat="46.4137823" lon="12.7711911"><ele>706.6666666666667</ele><time>2026-05-03T10:35:07.989Z</time></trkpt><trkpt lat="46.4137144" lon="12.770961"><ele>701.3333333333334</ele><time>2026-05-03T10:35:08.989Z</time></trkpt><trkpt lat="46.413661" lon="12.7707403"><ele>696.0</ele><time>2026-05-03T10:35:09.989Z</time></trkpt><trkpt lat="46.4136407" lon="12.7705278"><ele>696.0</ele><time>2026-05-03T10:35:10.989Z</time></trkpt><trkpt lat="46.4136441" lon="12.7703135"><ele>696.0</ele><time>2026-05-03T10:35:11.989Z</time></trkpt><trkpt lat="46.4136767" lon="12.7700874"><ele>696.0</ele><time>2026-05-03T10:35:12.988Z</time></trkpt><trkpt lat="46.4137299" lon="12.7698565"><ele>695.0</ele><time>2026-05-03T10:35:13.988Z</time></trkpt><trkpt lat="46.4137879" lon="12.769633"><ele>694.0</ele><time>2026-05-03T10:35:14.989Z</time></trkpt><trkpt lat="46.4138532" lon="12.7694067"><ele>693.0</ele><time>2026-05-03T10:35:15.989Z</time></trkpt><trkpt lat="46.4139182" lon="12.7691873"><ele>696.5</ele><time>2026-05-03T10:35:16.989Z</time></trkpt><trkpt lat="46.4139719" lon="12.7689742"><ele>700.0</ele><time>2026-05-03T10:35:17.989Z</time></trkpt><trkpt lat="46.4140043" lon="12.7687648"><ele>703.5</ele><time>2026-05-03T10:35:18.99Z</time></trkpt><trkpt lat="46.4140097" lon="12.7685551"><ele>707.0</ele><time>2026-05-03T10:35:19.99Z</time></trkpt><trkpt lat="46.4139839" lon="12.7683471"><ele>707.0</ele><time>2026-05-03T10:35:20.99Z</time></trkpt><trkpt lat="46.4139251" lon="12.7681501"><ele>707.0</ele><time>2026-05-03T10:35:21.989Z</time></trkpt><trkpt lat="46.4138374" lon="12.7679641"><ele>707.0</ele><time>2026-05-03T10:35:22.989Z</time></trkpt><trkpt lat="46.4137228" lon="12.7677966"><ele>707.75</ele><time>2026-05-03T10:35:23.988Z</time></trkpt><trkpt lat="46.4136106" lon="12.7676422"><ele>708.5</ele><time>2026-05-03T10:35:24.99Z</time></trkpt><trkpt lat="46.4135083" lon="12.7674968"><ele>709.25</ele><time>2026-05-03T10:35:25.989Z</time></trkpt><trkpt lat="46.413424" lon="12.7673452"><ele>710.0</ele><time>2026-05-03T10:35:26.989Z</time></trkpt><trkpt lat="46.4133735" lon="12.7671757"><ele>710.0</ele><time>2026-05-03T10:35:27.989Z</time></trkpt><trkpt lat="46.4133623" lon="12.7669961"><ele>710.0</ele><time>2026-05-03T10:35:28.989Z</time></trkpt><trkpt lat="46.4133974" lon="12.7668249"><ele>710.0</ele><time>2026-05-03T10:35:29.989Z</time></trkpt><trkpt lat="46.4134718" lon="12.7666878"><ele>710.0</ele><time>2026-05-03T10:35:30.989Z</time></trkpt><trkpt lat="46.4135792" lon="12.7665859"><ele>713.6666666666666</ele><time>2026-05-03T10:35:31.989Z</time></trkpt><trkpt lat="46.4137187" lon="12.766563"><ele>717.3333333333334</ele><time>2026-05-03T10:35:32.99Z</time></trkpt><trkpt lat="46.4138665" lon="12.7666121"><ele>721.0</ele><time>2026-05-03T10:35:33.988Z</time></trkpt><trkpt lat="46.4140149" lon="12.7666975"><ele>721.0</ele><time>2026-05-03T10:35:34.989Z</time></trkpt><trkpt lat="46.4141723" lon="12.7667945"><ele>721.0</ele><time>2026-05-03T10:35:35.989Z</time></trkpt><trkpt lat="46.414333" lon="12.7668968"><ele>721.0</ele><time>2026-05-03T10:35:36.989Z</time></trkpt><trkpt lat="46.4144931" lon="12.7669993"><ele>721.75</ele><time>2026-05-03T10:35:37.99Z</time></trkpt><trkpt lat="46.4146403" lon="12.7670941"><ele>722.5</ele><time>2026-05-03T10:35:38.99Z</time></trkpt><trkpt lat="46.4147765" lon="12.7671792"><ele>723.25</ele><time>2026-05-03T10:35:39.989Z</time></trkpt><trkpt lat="46.4149074" lon="12.7672437"><ele>724.0</ele><time>2026-05-03T10:35:40.989Z</time></trkpt><trkpt lat="46.4150299" lon="12.7672385"><ele>724.0</ele><time>2026-05-03T10:35:41.989Z</time></trkpt><trkpt lat="46.4151496" lon="12.7671713"><ele>724.0</ele><time>2026-05-03T10:35:42.989Z</time></trkpt><trkpt lat="46.4152477" lon="12.7670413"><ele>724.0</ele><time>2026-05-03T10:35:43.989Z</time></trkpt><trkpt lat="46.4153059" lon="12.7668729"><ele>724.0</ele><time>2026-05-03T10:35:44.989Z</time></trkpt><trkpt lat="46.4153138" lon="12.7666811"><ele>724.5</ele><time>2026-05-03T10:35:45.988Z</time></trkpt><trkpt lat="46.4152788" lon="12.7664997"><ele>725.0</ele><time>2026-05-03T10:35:46.988Z</time></trkpt><trkpt lat="46.4152024" lon="12.7663548"><ele>725.5</ele><time>2026-05-03T10:35:47.988Z</time></trkpt><trkpt lat="46.4151094" lon="12.7662291"><ele>726.0</ele><time>2026-05-03T10:35:48.988Z</time></trkpt><trkpt lat="46.4150107" lon="12.7661036"><ele>727.75</ele><time>2026-05-03T10:35:49.988Z</time></trkpt><trkpt lat="46.4149093" lon="12.7659808"><ele>729.5</ele><time>2026-05-03T10:35:50.988Z</time></trkpt><trkpt lat="46.4148094" lon="12.7658571"><ele>731.25</ele><time>2026-05-03T10:35:51.989Z</time></trkpt><trkpt lat="46.4147042" lon="12.765729"><ele>733.0</ele><time>2026-05-03T10:35:52.99Z</time></trkpt><trkpt lat="46.4145925" lon="12.765595"><ele>733.0</ele><time>2026-05-03T10:35:53.989Z</time></trkpt><trkpt lat="46.4144772" lon="12.765452"><ele>733.0</ele><time>2026-05-03T10:35:54.989Z</time></trkpt><trkpt lat="46.4143624" lon="12.7653047"><ele>733.0</ele><time>2026-05-03T10:35:55.989Z</time></trkpt><trkpt lat="46.4142479" lon="12.7651584"><ele>737.6666666666667</ele><time>2026-05-03T10:35:56.989Z</time></trkpt><trkpt lat="46.4141363" lon="12.7650176"><ele>742.3333333333334</ele><time>2026-05-03T10:35:57.989Z</time></trkpt><trkpt lat="46.4140256" lon="12.7648752"><ele>747.0</ele><time>2026-05-03T10:35:58.989Z</time></trkpt><trkpt lat="46.4139067" lon="12.764722"><ele>746.0</ele><time>2026-05-03T10:35:59.989Z</time></trkpt><trkpt lat="46.4138129" lon="12.7645323"><ele>745.0</ele><time>2026-05-03T10:36:00.989Z</time></trkpt><trkpt lat="46.4137218" lon="12.7643206"><ele>744.0</ele><time>2026-05-03T10:36:01.988Z</time></trkpt><trkpt lat="46.4136339" lon="12.764128"><ele>747.0</ele><time>2026-05-03T10:36:02.989Z</time></trkpt><trkpt lat="46.4135411" lon="12.7639422"><ele>750.0</ele><time>2026-05-03T10:36:03.989Z</time></trkpt><trkpt lat="46.4134416" lon="12.7637756"><ele>753.0</ele><time>2026-05-03T10:36:04.989Z</time></trkpt><trkpt lat="46.4133237" lon="12.7636494"><ele>753.0</ele><time>2026-05-03T10:36:05.989Z</time></trkpt><trkpt lat="46.4132094" lon="12.7635342"><ele>753.0</ele><time>2026-05-03T10:36:06.988Z</time></trkpt><trkpt lat="46.413076" lon="12.763425"><ele>753.0</ele><time>2026-05-03T10:36:07.99Z</time></trkpt><trkpt lat="46.4129183" lon="12.7634776"><ele>756.25</ele><time>2026-05-03T10:36:08.989Z</time></trkpt><trkpt lat="46.4127758" lon="12.7634847"><ele>759.5</ele><time>2026-05-03T10:36:09.988Z</time></trkpt><trkpt lat="46.4126442" lon="12.763557"><ele>762.75</ele><time>2026-05-03T10:36:10.989Z</time></trkpt><trkpt lat="46.4125063" lon="12.763618"><ele>766.0</ele><time>2026-05-03T10:36:11.99Z</time></trkpt><trkpt lat="46.4124171" lon="12.7638127"><ele>766.0</ele><time>2026-05-03T10:36:12.988Z</time></trkpt><trkpt lat="46.4124158" lon="12.7640461"><ele>766.0</ele><time>2026-05-03T10:36:13.989Z</time></trkpt><trkpt lat="46.4124089" lon="12.7642544"><ele>766.0</ele><time>2026-05-03T10:36:14.99Z</time></trkpt><trkpt lat="46.4124256" lon="12.7644735"><ele>765.0</ele><time>2026-05-03T10:36:15.989Z</time></trkpt><trkpt lat="46.4124396" lon="12.7646884"><ele>764.0</ele><time>2026-05-03T10:36:16.988Z</time></trkpt><trkpt lat="46.4124395" lon="12.7648955"><ele>763.0</ele><time>2026-05-03T10:36:17.989Z</time></trkpt><trkpt lat="46.4124109" lon="12.7650971"><ele>762.0</ele><time>2026-05-03T10:36:18.989Z</time></trkpt><trkpt lat="46.4123667" lon="12.7652861"><ele>762.5</ele><time>2026-05-03T10:36:19.988Z</time></trkpt><trkpt lat="46.4122536" lon="12.7654388"><ele>763.0</ele><time>2026-05-03T10:36:20.989Z</time></trkpt><trkpt lat="46.4121645" lon="12.7655888"><ele>763.5</ele><time>2026-05-03T10:36:21.988Z</time></trkpt><trkpt lat="46.4120475" lon="12.7657186"><ele>764.0</ele><time>2026-05-03T10:36:22.989Z</time></trkpt><trkpt lat="46.4118971" lon="12.7657362"><ele>764.0</ele><time>2026-05-03T10:36:23.988Z</time></trkpt><trkpt lat="46.4117647" lon="12.76581"><ele>764.0</ele><time>2026-05-03T10:36:24.989Z</time></trkpt><trkpt lat="46.4116165" lon="12.7657644"><ele>764.0</ele><time>2026-05-03T10:36:25.988Z</time></trkpt><trkpt lat="46.4114709" lon="12.7657164"><ele>764.0</ele><time>2026-05-03T10:36:26.989Z</time></trkpt><trkpt lat="46.4113369" lon="12.7656239"><ele>765.0</ele><time>2026-05-03T10:36:27.988Z</time></trkpt><trkpt lat="46.4111936" lon="12.7654856"><ele>766.0</ele><time>2026-05-03T10:36:28.989Z</time></trkpt><trkpt lat="46.4110803" lon="12.765319"><ele>767.0</ele><time>2026-05-03T10:36:29.989Z</time></trkpt><trkpt lat="46.410942" lon="12.7651629"><ele>767.0</ele><time>2026-05-03T10:36:30.99Z</time></trkpt><trkpt lat="46.410809" lon="12.7650121"><ele>767.0</ele><time>2026-05-03T10:36:31.989Z</time></trkpt><trkpt lat="46.4106674" lon="12.7648613"><ele>767.0</ele><time>2026-05-03T10:36:32.988Z</time></trkpt><trkpt lat="46.4105335" lon="12.7647152"><ele>767.0</ele><time>2026-05-03T10:36:33.989Z</time></trkpt><trkpt lat="46.4104067" lon="12.7645658"><ele>767.0</ele><time>2026-05-03T10:36:34.989Z</time></trkpt><trkpt lat="46.4102748" lon="12.7644268"><ele>767.0</ele><time>2026-05-03T10:36:35.988Z</time></trkpt><trkpt lat="46.4101435" lon="12.7642866"><ele>767.0</ele><time>2026-05-03T10:36:36.989Z</time></trkpt><trkpt lat="46.410012" lon="12.7641348"><ele>767.0</ele><time>2026-05-03T10:36:37.988Z</time></trkpt><trkpt lat="46.4098888" lon="12.763964"><ele>767.0</ele><time>2026-05-03T10:36:38.989Z</time></trkpt><trkpt lat="46.4097833" lon="12.7637708"><ele>767.0</ele><time>2026-05-03T10:36:39.988Z</time></trkpt><trkpt lat="46.4096924" lon="12.7635876"><ele>767.0</ele><time>2026-05-03T10:36:40.99Z</time></trkpt><trkpt lat="46.4096131" lon="12.763411"><ele>767.0</ele><time>2026-05-03T10:36:41.989Z</time></trkpt><trkpt lat="46.409545" lon="12.7632409"><ele>767.0</ele><time>2026-05-03T10:36:42.989Z</time></trkpt><trkpt lat="46.4095012" lon="12.7630556"><ele>766.25</ele><time>2026-05-03T10:36:43.988Z</time></trkpt><trkpt lat="46.4094902" lon="12.7628442"><ele>765.5</ele><time>2026-05-03T10:36:44.989Z</time></trkpt><trkpt lat="46.4095133" lon="12.762629"><ele>764.75</ele><time>2026-05-03T10:36:45.99Z</time></trkpt><trkpt lat="46.409541" lon="12.7624264"><ele>764.0</ele><time>2026-05-03T10:36:46.988Z</time></trkpt><trkpt lat="46.4095788" lon="12.762222"><ele>764.0</ele><time>2026-05-03T10:36:47.99Z</time></trkpt><trkpt lat="46.4095841" lon="12.7620069"><ele>764.0</ele><time>2026-05-03T10:36:48.99Z</time></trkpt><trkpt lat="46.4095745" lon="12.761789"><ele>764.0</ele><time>2026-05-03T10:36:49.988Z</time></trkpt><trkpt lat="46.4095384" lon="12.7615718"><ele>765.6666666666666</ele><time>2026-05-03T10:36:50.989Z</time></trkpt><trkpt lat="46.4094742" lon="12.7613627"><ele>767.3333333333333</ele><time>2026-05-03T10:36:51.989Z</time></trkpt><trkpt lat="46.4093827" lon="12.7611566"><ele>769.0</ele><time>2026-05-03T10:36:52.989Z</time></trkpt><trkpt lat="46.4092747" lon="12.7609528"><ele>774.6666666666666</ele><time>2026-05-03T10:36:53.989Z</time></trkpt><trkpt lat="46.4091616" lon="12.7607578"><ele>780.3333333333333</ele><time>2026-05-03T10:36:54.989Z</time></trkpt><trkpt lat="46.4090407" lon="12.7605594"><ele>786.0</ele><time>2026-05-03T10:36:55.988Z</time></trkpt><trkpt lat="46.4089247" lon="12.7603677"><ele>787.0</ele><time>2026-05-03T10:36:56.988Z</time></trkpt><trkpt lat="46.4088107" lon="12.7601794"><ele>788.0</ele><time>2026-05-03T10:36:57.988Z</time></trkpt><trkpt lat="46.4086942" lon="12.7599894"><ele>789.0</ele><time>2026-05-03T10:36:58.989Z</time></trkpt><trkpt lat="46.4085835" lon="12.7598078"><ele>789.0</ele><time>2026-05-03T10:36:59.988Z</time></trkpt><trkpt lat="46.4084836" lon="12.7596365"><ele>789.0</ele><time>2026-05-03T10:37:00.989Z</time></trkpt><trkpt lat="46.4083552" lon="12.759499"><ele>789.0</ele><time>2026-05-03T10:37:01.99Z</time></trkpt><trkpt lat="46.4082212" lon="12.7593709"><ele>792.0</ele><time>2026-05-03T10:37:02.988Z</time></trkpt><trkpt lat="46.4080874" lon="12.7592865"><ele>795.0</ele><time>2026-05-03T10:37:03.988Z</time></trkpt><trkpt lat="46.4079505" lon="12.759228"><ele>798.0</ele><time>2026-05-03T10:37:04.989Z</time></trkpt><trkpt lat="46.4077956" lon="12.7591988"><ele>801.0</ele><time>2026-05-03T10:37:05.989Z</time></trkpt><trkpt lat="46.4076395" lon="12.7591747"><ele>801.0</ele><time>2026-05-03T10:37:06.989Z</time></trkpt><trkpt lat="46.4074859" lon="12.7591423"><ele>801.0</ele><time>2026-05-03T10:37:07.989Z</time></trkpt><trkpt lat="46.4073329" lon="12.7590993"><ele>801.0</ele><time>2026-05-03T10:37:08.989Z</time></trkpt><trkpt lat="46.4071791" lon="12.7590586"><ele>804.0</ele><time>2026-05-03T10:37:09.989Z</time></trkpt><trkpt lat="46.4070406" lon="12.7589926"><ele>807.0</ele><time>2026-05-03T10:37:10.989Z</time></trkpt><trkpt lat="46.4068679" lon="12.75869"><ele>810.0</ele><time>2026-05-03T10:37:11.99Z</time></trkpt><trkpt lat="46.4067723" lon="12.7584879"><ele>810.0</ele><time>2026-05-03T10:37:12.988Z</time></trkpt><trkpt lat="46.4066648" lon="12.7583008"><ele>810.0</ele><time>2026-05-03T10:37:13.989Z</time></trkpt><trkpt lat="46.4065602" lon="12.7580959"><ele>810.0</ele><time>2026-05-03T10:37:14.989Z</time></trkpt><trkpt lat="46.4064468" lon="12.7578833"><ele>807.0</ele><time>2026-05-03T10:37:15.988Z</time></trkpt><trkpt lat="46.4063332" lon="12.7576553"><ele>804.0</ele><time>2026-05-03T10:37:16.989Z</time></trkpt><trkpt lat="46.4062148" lon="12.7574247"><ele>801.0</ele><time>2026-05-03T10:37:17.988Z</time></trkpt><trkpt lat="46.4060952" lon="12.7571841"><ele>801.0</ele><time>2026-05-03T10:37:18.988Z</time></trkpt><trkpt lat="46.4059736" lon="12.7569354"><ele>801.0</ele><time>2026-05-03T10:37:19.988Z</time></trkpt><trkpt lat="46.4058508" lon="12.7566915"><ele>801.0</ele><time>2026-05-03T10:37:20.99Z</time></trkpt><trkpt lat="46.4057293" lon="12.7564512"><ele>805.3333333333333</ele><time>2026-05-03T10:37:21.989Z</time></trkpt><trkpt lat="46.405589" lon="12.7562151"><ele>809.6666666666666</ele><time>2026-05-03T10:37:22.99Z</time></trkpt><trkpt lat="46.405436" lon="12.7559912"><ele>814.0</ele><time>2026-05-03T10:37:23.99Z</time></trkpt><trkpt lat="46.4052756" lon="12.7557659"><ele>814.0</ele><time>2026-05-03T10:37:24.99Z</time></trkpt><trkpt lat="46.4051197" lon="12.7555426"><ele>814.0</ele><time>2026-05-03T10:37:25.989Z</time></trkpt><trkpt lat="46.404964" lon="12.7553302"><ele>814.0</ele><time>2026-05-03T10:37:26.989Z</time></trkpt><trkpt lat="46.4048169" lon="12.7551264"><ele>816.0</ele><time>2026-05-03T10:37:27.989Z</time></trkpt><trkpt lat="46.4046793" lon="12.7549281"><ele>818.0</ele><time>2026-05-03T10:37:28.988Z</time></trkpt><trkpt lat="46.4045468" lon="12.7547425"><ele>820.0</ele><time>2026-05-03T10:37:29.988Z</time></trkpt><trkpt lat="46.4044086" lon="12.7545819"><ele>820.0</ele><time>2026-05-03T10:37:30.988Z</time></trkpt><trkpt lat="46.4042507" lon="12.7544624"><ele>820.0</ele><time>2026-05-03T10:37:31.988Z</time></trkpt><trkpt lat="46.4040771" lon="12.7543719"><ele>820.0</ele><time>2026-05-03T10:37:32.988Z</time></trkpt><trkpt lat="46.4038934" lon="12.7543066"><ele>821.3333333333333</ele><time>2026-05-03T10:37:33.989Z</time></trkpt><trkpt lat="46.4037009" lon="12.7542427"><ele>822.6666666666667</ele><time>2026-05-03T10:37:34.989Z</time></trkpt><trkpt lat="46.4035031" lon="12.7541824"><ele>824.0</ele><time>2026-05-03T10:37:35.99Z</time></trkpt><trkpt lat="46.4032997" lon="12.7541278"><ele>824.0</ele><time>2026-05-03T10:37:36.988Z</time></trkpt><trkpt lat="46.4030928" lon="12.7540753"><ele>824.0</ele><time>2026-05-03T10:37:37.988Z</time></trkpt><trkpt lat="46.4028877" lon="12.7540318"><ele>824.0</ele><time>2026-05-03T10:37:38.989Z</time></trkpt><trkpt lat="46.4026857" lon="12.7539949"><ele>824.6666666666667</ele><time>2026-05-03T10:37:39.988Z</time></trkpt><trkpt lat="46.4024816" lon="12.7539592"><ele>825.3333333333333</ele><time>2026-05-03T10:37:40.989Z</time></trkpt><trkpt lat="46.4022783" lon="12.7539265"><ele>826.0</ele><time>2026-05-03T10:37:41.989Z</time></trkpt><trkpt lat="46.4020746" lon="12.7538987"><ele>826.0</ele><time>2026-05-03T10:37:42.989Z</time></trkpt><trkpt lat="46.4018761" lon="12.7538707"><ele>826.0</ele><time>2026-05-03T10:37:43.989Z</time></trkpt><trkpt lat="46.4016801" lon="12.7538359"><ele>826.0</ele><time>2026-05-03T10:37:44.99Z</time></trkpt><trkpt lat="46.4014844" lon="12.7537718"><ele>826.0</ele><time>2026-05-03T10:37:45.988Z</time></trkpt><trkpt lat="46.4012929" lon="12.7536706"><ele>826.0</ele><time>2026-05-03T10:37:46.989Z</time></trkpt><trkpt lat="46.4011087" lon="12.7535238"><ele>826.0</ele><time>2026-05-03T10:37:47.989Z</time></trkpt><trkpt lat="46.4009268" lon="12.7533489"><ele>825.6666666666666</ele><time>2026-05-03T10:37:48.988Z</time></trkpt><trkpt lat="46.400743" lon="12.7531714"><ele>825.3333333333333</ele><time>2026-05-03T10:37:49.988Z</time></trkpt><trkpt lat="46.4005548" lon="12.7529938"><ele>825.0</ele><time>2026-05-03T10:37:50.988Z</time></trkpt><trkpt lat="46.4003739" lon="12.7528146"><ele>827.0</ele><time>2026-05-03T10:37:51.988Z</time></trkpt><trkpt lat="46.400197" lon="12.7526411"><ele>829.0</ele><time>2026-05-03T10:37:52.989Z</time></trkpt><trkpt lat="46.40003" lon="12.7524719"><ele>831.0</ele><time>2026-05-03T10:37:53.989Z</time></trkpt><trkpt lat="46.3998745" lon="12.7522861"><ele>831.0</ele><time>2026-05-03T10:37:54.989Z</time></trkpt><trkpt lat="46.3997475" lon="12.752065"><ele>831.0</ele><time>2026-05-03T10:37:55.988Z</time></trkpt><trkpt lat="46.3996408" lon="12.7518161"><ele>831.0</ele><time>2026-05-03T10:37:56.988Z</time></trkpt><trkpt lat="46.3995371" lon="12.7515561"><ele>831.0</ele><time>2026-05-03T10:37:57.988Z</time></trkpt><trkpt lat="46.3994316" lon="12.7512975"><ele>831.0</ele><time>2026-05-03T10:37:58.989Z</time></trkpt><trkpt lat="46.3993298" lon="12.751043"><ele>831.0</ele><time>2026-05-03T10:37:59.989Z</time></trkpt><trkpt lat="46.3992318" lon="12.7507912"><ele>832.0</ele><time>2026-05-03T10:38:00.989Z</time></trkpt><trkpt lat="46.3991472" lon="12.7505484"><ele>833.0</ele><time>2026-05-03T10:38:01.989Z</time></trkpt><trkpt lat="46.3990903" lon="12.7503063"><ele>834.0</ele><time>2026-05-03T10:38:02.989Z</time></trkpt><trkpt lat="46.3990623" lon="12.7500561"><ele>835.0</ele><time>2026-05-03T10:38:03.989Z</time></trkpt><trkpt lat="46.3990526" lon="12.7497912"><ele>836.0</ele><time>2026-05-03T10:38:04.989Z</time></trkpt><trkpt lat="46.3990477" lon="12.7495227"><ele>837.0</ele><time>2026-05-03T10:38:05.989Z</time></trkpt><trkpt lat="46.3990499" lon="12.7492589"><ele>837.6666666666667</ele><time>2026-05-03T10:38:06.989Z</time></trkpt><trkpt lat="46.3990495" lon="12.7489945"><ele>838.3333333333334</ele><time>2026-05-03T10:38:07.989Z</time></trkpt><trkpt lat="46.3990408" lon="12.7487385"><ele>839.0</ele><time>2026-05-03T10:38:08.989Z</time></trkpt><trkpt lat="46.3990165" lon="12.748491"><ele>839.0</ele><time>2026-05-03T10:38:09.988Z</time></trkpt><trkpt lat="46.3989589" lon="12.7482524"><ele>839.0</ele><time>2026-05-03T10:38:10.989Z</time></trkpt><trkpt lat="46.3988817" lon="12.7480184"><ele>839.0</ele><time>2026-05-03T10:38:11.988Z</time></trkpt><trkpt lat="46.3987802" lon="12.7477915"><ele>841.3333333333334</ele><time>2026-05-03T10:38:12.989Z</time></trkpt><trkpt lat="46.39867" lon="12.7475603"><ele>843.6666666666667</ele><time>2026-05-03T10:38:13.989Z</time></trkpt><trkpt lat="46.3985553" lon="12.7473195"><ele>846.0</ele><time>2026-05-03T10:38:14.99Z</time></trkpt><trkpt lat="46.3984388" lon="12.7470752"><ele>849.6666666666667</ele><time>2026-05-03T10:38:15.989Z</time></trkpt><trkpt lat="46.398315" lon="12.746828"><ele>853.3333333333334</ele><time>2026-05-03T10:38:16.99Z</time></trkpt><trkpt lat="46.398189" lon="12.7465786"><ele>857.0</ele><time>2026-05-03T10:38:17.989Z</time></trkpt><trkpt lat="46.3980632" lon="12.7463316"><ele>854.3333333333334</ele><time>2026-05-03T10:38:18.989Z</time></trkpt><trkpt lat="46.397932" lon="12.7460872"><ele>851.6666666666667</ele><time>2026-05-03T10:38:19.988Z</time></trkpt><trkpt lat="46.3978035" lon="12.7458437"><ele>849.0</ele><time>2026-05-03T10:38:20.989Z</time></trkpt><trkpt lat="46.3976821" lon="12.7456012"><ele>849.0</ele><time>2026-05-03T10:38:21.989Z</time></trkpt><trkpt lat="46.3975736" lon="12.7453473"><ele>849.0</ele><time>2026-05-03T10:38:22.989Z</time></trkpt><trkpt lat="46.3974777" lon="12.7450741"><ele>849.0</ele><time>2026-05-03T10:38:23.988Z</time></trkpt><trkpt lat="46.3973855" lon="12.7447958"><ele>852.3333333333333</ele><time>2026-05-03T10:38:24.988Z</time></trkpt><trkpt lat="46.3972923" lon="12.7445143"><ele>855.6666666666666</ele><time>2026-05-03T10:38:25.989Z</time></trkpt><trkpt lat="46.3972033" lon="12.7442426"><ele>859.0</ele><time>2026-05-03T10:38:26.988Z</time></trkpt><trkpt lat="46.3971169" lon="12.7439844"><ele>860.6666666666666</ele><time>2026-05-03T10:38:27.988Z</time></trkpt><trkpt lat="46.3970364" lon="12.7437434"><ele>862.3333333333333</ele><time>2026-05-03T10:38:28.988Z</time></trkpt><trkpt lat="46.3969498" lon="12.7435119"><ele>864.0</ele><time>2026-05-03T10:38:29.989Z</time></trkpt><trkpt lat="46.3968557" lon="12.7432908"><ele>865.3333333333333</ele><time>2026-05-03T10:38:30.988Z</time></trkpt><trkpt lat="46.3967276" lon="12.7430952"><ele>866.6666666666666</ele><time>2026-05-03T10:38:31.989Z</time></trkpt><trkpt lat="46.3966119" lon="12.7428859"><ele>868.0</ele><time>2026-05-03T10:38:32.988Z</time></trkpt><trkpt lat="46.396498" lon="12.7426667"><ele>868.6666666666666</ele><time>2026-05-03T10:38:33.988Z</time></trkpt><trkpt lat="46.3964044" lon="12.7424287"><ele>869.3333333333333</ele><time>2026-05-03T10:38:34.988Z</time></trkpt><trkpt lat="46.3963341" lon="12.7421707"><ele>870.0</ele><time>2026-05-03T10:38:35.989Z</time></trkpt><trkpt lat="46.3962867" lon="12.7418988"><ele>867.3333333333333</ele><time>2026-05-03T10:38:36.989Z</time></trkpt><trkpt lat="46.3962478" lon="12.7416356"><ele>864.6666666666666</ele><time>2026-05-03T10:38:37.989Z</time></trkpt><trkpt lat="46.3962063" lon="12.7413983"><ele>862.0</ele><time>2026-05-03T10:38:38.989Z</time></trkpt><trkpt lat="46.3961531" lon="12.7411833"><ele>865.0</ele><time>2026-05-03T10:38:39.989Z</time></trkpt><trkpt lat="46.3960877" lon="12.7409932"><ele>868.0</ele><time>2026-05-03T10:38:40.989Z</time></trkpt><trkpt lat="46.3960025" lon="12.7408186"><ele>871.0</ele><time>2026-05-03T10:38:41.989Z</time></trkpt><trkpt lat="46.3958946" lon="12.740656"><ele>871.0</ele><time>2026-05-03T10:38:42.989Z</time></trkpt><trkpt lat="46.3957712" lon="12.7405085"><ele>871.0</ele><time>2026-05-03T10:38:43.989Z</time></trkpt><trkpt lat="46.3956438" lon="12.740379"><ele>871.0</ele><time>2026-05-03T10:38:44.989Z</time></trkpt><trkpt lat="46.3955207" lon="12.7402443"><ele>868.6666666666666</ele><time>2026-05-03T10:38:45.989Z</time></trkpt><trkpt lat="46.3954068" lon="12.7400964"><ele>866.3333333333333</ele><time>2026-05-03T10:38:46.989Z</time></trkpt><trkpt lat="46.3953024" lon="12.7399391"><ele>864.0</ele><time>2026-05-03T10:38:47.989Z</time></trkpt><trkpt lat="46.3952165" lon="12.739758"><ele>864.0</ele><time>2026-05-03T10:38:48.988Z</time></trkpt><trkpt lat="46.3951444" lon="12.7395516"><ele>864.0</ele><time>2026-05-03T10:38:49.988Z</time></trkpt><trkpt lat="46.3950856" lon="12.7393165"><ele>864.0</ele><time>2026-05-03T10:38:50.987Z</time></trkpt><trkpt lat="46.3950367" lon="12.7390824"><ele>862.3333333333333</ele><time>2026-05-03T10:38:51.988Z</time></trkpt><trkpt lat="46.3949942" lon="12.7388502"><ele>860.6666666666666</ele><time>2026-05-03T10:38:52.988Z</time></trkpt><trkpt lat="46.3949594" lon="12.7386304"><ele>859.0</ele><time>2026-05-03T10:38:53.988Z</time></trkpt><trkpt lat="46.3949408" lon="12.7384151"><ele>857.25</ele><time>2026-05-03T10:38:54.988Z</time></trkpt><trkpt lat="46.3949534" lon="12.7382106"><ele>855.5</ele><time>2026-05-03T10:38:55.988Z</time></trkpt><trkpt lat="46.3949995" lon="12.7380238"><ele>853.75</ele><time>2026-05-03T10:38:56.988Z</time></trkpt><trkpt lat="46.3950725" lon="12.7378621"><ele>852.0</ele><time>2026-05-03T10:38:57.988Z</time></trkpt><trkpt lat="46.3951659" lon="12.7377287"><ele>851.5</ele><time>2026-05-03T10:38:58.989Z</time></trkpt><trkpt lat="46.3952854" lon="12.7376338"><ele>851.0</ele><time>2026-05-03T10:38:59.987Z</time></trkpt><trkpt lat="46.3954237" lon="12.7375797"><ele>850.5</ele><time>2026-05-03T10:39:00.988Z</time></trkpt><trkpt lat="46.3955657" lon="12.7375378"><ele>850.0</ele><time>2026-05-03T10:39:01.987Z</time></trkpt><trkpt lat="46.395698" lon="12.7374662"><ele>850.0</ele><time>2026-05-03T10:39:02.989Z</time></trkpt><trkpt lat="46.3958178" lon="12.7373569"><ele>850.0</ele><time>2026-05-03T10:39:03.988Z</time></trkpt><trkpt lat="46.3959212" lon="12.7372167"><ele>850.0</ele><time>2026-05-03T10:39:04.988Z</time></trkpt><trkpt lat="46.3960039" lon="12.7370458"><ele>850.0</ele><time>2026-05-03T10:39:05.988Z</time></trkpt><trkpt lat="46.3960773" lon="12.7368638"><ele>850.75</ele><time>2026-05-03T10:39:06.988Z</time></trkpt><trkpt lat="46.3961547" lon="12.7366924"><ele>851.5</ele><time>2026-05-03T10:39:07.988Z</time></trkpt><trkpt lat="46.3962501" lon="12.7365382"><ele>852.25</ele><time>2026-05-03T10:39:08.988Z</time></trkpt><trkpt lat="46.3963631" lon="12.7364198"><ele>853.0</ele><time>2026-05-03T10:39:09.988Z</time></trkpt><trkpt lat="46.3964863" lon="12.7363391"><ele>853.0</ele><time>2026-05-03T10:39:10.988Z</time></trkpt><trkpt lat="46.3966232" lon="12.7363063"><ele>853.0</ele><time>2026-05-03T10:39:11.988Z</time></trkpt><trkpt lat="46.396763" lon="12.7363102"><ele>853.0</ele><time>2026-05-03T10:39:12.988Z</time></trkpt><trkpt lat="46.3968963" lon="12.7363494"><ele>853.0</ele><time>2026-05-03T10:39:13.988Z</time></trkpt><trkpt lat="46.3970305" lon="12.7363825"><ele>853.0</ele><time>2026-05-03T10:39:14.988Z</time></trkpt><trkpt lat="46.397162" lon="12.7363971"><ele>853.0</ele><time>2026-05-03T10:39:15.988Z</time></trkpt><trkpt lat="46.3972926" lon="12.7363603"><ele>853.0</ele><time>2026-05-03T10:39:16.988Z</time></trkpt><trkpt lat="46.3974215" lon="12.7363299"><ele>853.0</ele><time>2026-05-03T10:39:17.988Z</time></trkpt><trkpt lat="46.3974811" lon="12.7361268"><ele>851.25</ele><time>2026-05-03T10:39:18.988Z</time></trkpt><trkpt lat="46.397549" lon="12.7359546"><ele>849.5</ele><time>2026-05-03T10:39:19.988Z</time></trkpt><trkpt lat="46.3975803" lon="12.7357557"><ele>847.75</ele><time>2026-05-03T10:39:20.988Z</time></trkpt><trkpt lat="46.39758" lon="12.7355264"><ele>846.0</ele><time>2026-05-03T10:39:21.988Z</time></trkpt><trkpt lat="46.3975833" lon="12.7352838"><ele>844.3333333333333</ele><time>2026-05-03T10:39:22.988Z</time></trkpt><trkpt lat="46.3975733" lon="12.7350224"><ele>842.6666666666666</ele><time>2026-05-03T10:39:23.989Z</time></trkpt><trkpt lat="46.3975523" lon="12.7347533"><ele>841.0</ele><time>2026-05-03T10:39:24.989Z</time></trkpt><trkpt lat="46.397516" lon="12.7344814"><ele>840.0</ele><time>2026-05-03T10:39:25.988Z</time></trkpt><trkpt lat="46.3974696" lon="12.7342147"><ele>839.0</ele><time>2026-05-03T10:39:26.988Z</time></trkpt><trkpt lat="46.3974225" lon="12.7339541"><ele>838.0</ele><time>2026-05-03T10:39:27.988Z</time></trkpt><trkpt lat="46.397372" lon="12.7336953"><ele>840.0</ele><time>2026-05-03T10:39:28.988Z</time></trkpt><trkpt lat="46.3973065" lon="12.7334357"><ele>842.0</ele><time>2026-05-03T10:39:29.988Z</time></trkpt><trkpt lat="46.3972265" lon="12.7331786"><ele>844.0</ele><time>2026-05-03T10:39:30.988Z</time></trkpt><trkpt lat="46.3971367" lon="12.7329395"><ele>841.0</ele><time>2026-05-03T10:39:31.988Z</time></trkpt><trkpt lat="46.3970466" lon="12.7327152"><ele>838.0</ele><time>2026-05-03T10:39:32.988Z</time></trkpt><trkpt lat="46.396954" lon="12.7325107"><ele>835.0</ele><time>2026-05-03T10:39:33.988Z</time></trkpt><trkpt lat="46.3968496" lon="12.732339"><ele>835.0</ele><time>2026-05-03T10:39:34.989Z</time></trkpt><trkpt lat="46.3967207" lon="12.7322045"><ele>835.0</ele><time>2026-05-03T10:39:35.988Z</time></trkpt><trkpt lat="46.3965746" lon="12.7321116"><ele>835.0</ele><time>2026-05-03T10:39:36.988Z</time></trkpt><trkpt lat="46.3964256" lon="12.7320487"><ele>834.25</ele><time>2026-05-03T10:39:37.989Z</time></trkpt><trkpt lat="46.3962842" lon="12.7319752"><ele>833.5</ele><time>2026-05-03T10:39:38.988Z</time></trkpt><trkpt lat="46.3961626" lon="12.7318672"><ele>832.75</ele><time>2026-05-03T10:39:39.988Z</time></trkpt><trkpt lat="46.3960686" lon="12.7317354"><ele>832.0</ele><time>2026-05-03T10:39:40.987Z</time></trkpt><trkpt lat="46.3959994" lon="12.7315779"><ele>832.0</ele><time>2026-05-03T10:39:41.988Z</time></trkpt><trkpt lat="46.3959591" lon="12.731404"><ele>832.0</ele><time>2026-05-03T10:39:42.988Z</time></trkpt><trkpt lat="46.3959446" lon="12.7312181"><ele>832.0</ele><time>2026-05-03T10:39:43.988Z</time></trkpt><trkpt lat="46.3959615" lon="12.7310157"><ele>832.0</ele><time>2026-05-03T10:39:44.988Z</time></trkpt><trkpt lat="46.3960028" lon="12.7308215"><ele>830.75</ele><time>2026-05-03T10:39:45.988Z</time></trkpt><trkpt lat="46.3960726" lon="12.7306507"><ele>829.5</ele><time>2026-05-03T10:39:46.988Z</time></trkpt><trkpt lat="46.3961732" lon="12.7305009"><ele>828.25</ele><time>2026-05-03T10:39:47.988Z</time></trkpt><trkpt lat="46.3962918" lon="12.7303647"><ele>827.0</ele><time>2026-05-03T10:39:48.988Z</time></trkpt><trkpt lat="46.3964026" lon="12.7302357"><ele>829.75</ele><time>2026-05-03T10:39:49.988Z</time></trkpt><trkpt lat="46.3965031" lon="12.7301132"><ele>832.5</ele><time>2026-05-03T10:39:50.987Z</time></trkpt><trkpt lat="46.396575" lon="12.7299741"><ele>835.25</ele><time>2026-05-03T10:39:51.987Z</time></trkpt><trkpt lat="46.3966199" lon="12.7298116"><ele>838.0</ele><time>2026-05-03T10:39:52.988Z</time></trkpt><trkpt lat="46.3966224" lon="12.7296332"><ele>838.0</ele><time>2026-05-03T10:39:53.988Z</time></trkpt><trkpt lat="46.3965802" lon="12.729459"><ele>838.0</ele><time>2026-05-03T10:39:54.988Z</time></trkpt><trkpt lat="46.3965395" lon="12.7292838"><ele>838.0</ele><time>2026-05-03T10:39:55.989Z</time></trkpt><trkpt lat="46.3965269" lon="12.7291078"><ele>838.0</ele><time>2026-05-03T10:39:56.988Z</time></trkpt><trkpt lat="46.3965527" lon="12.7289407"><ele>837.0</ele><time>2026-05-03T10:39:57.987Z</time></trkpt><trkpt lat="46.3966099" lon="12.7287874"><ele>836.0</ele><time>2026-05-03T10:39:58.988Z</time></trkpt><trkpt lat="46.39669" lon="12.7286284"><ele>835.0</ele><time>2026-05-03T10:39:59.988Z</time></trkpt><trkpt lat="46.3967806" lon="12.7284572"><ele>834.0</ele><time>2026-05-03T10:40:00.988Z</time></trkpt><trkpt lat="46.3968737" lon="12.7282805"><ele>830.5</ele><time>2026-05-03T10:40:01.988Z</time></trkpt><trkpt lat="46.3969686" lon="12.7281089"><ele>827.0</ele><time>2026-05-03T10:40:02.988Z</time></trkpt><trkpt lat="46.397052" lon="12.7279378"><ele>823.5</ele><time>2026-05-03T10:40:03.989Z</time></trkpt><trkpt lat="46.3971075" lon="12.7277546"><ele>820.0</ele><time>2026-05-03T10:40:04.987Z</time></trkpt><trkpt lat="46.3971382" lon="12.7275635"><ele>818.0</ele><time>2026-05-03T10:40:05.989Z</time></trkpt><trkpt lat="46.3971282" lon="12.7273668"><ele>816.0</ele><time>2026-05-03T10:40:06.989Z</time></trkpt><trkpt lat="46.3970834" lon="12.7271759"><ele>814.0</ele><time>2026-05-03T10:40:07.988Z</time></trkpt><trkpt lat="46.3970166" lon="12.7269947"><ele>812.0</ele><time>2026-05-03T10:40:08.988Z</time></trkpt><trkpt lat="46.3969277" lon="12.7268258"><ele>812.0</ele><time>2026-05-03T10:40:09.988Z</time></trkpt><trkpt lat="46.3968302" lon="12.7266732"><ele>812.0</ele><time>2026-05-03T10:40:10.987Z</time></trkpt><trkpt lat="46.3967187" lon="12.7265464"><ele>812.0</ele><time>2026-05-03T10:40:11.987Z</time></trkpt><trkpt lat="46.3966088" lon="12.7264248"><ele>812.0</ele><time>2026-05-03T10:40:12.987Z</time></trkpt><trkpt lat="46.39652" lon="12.72628"><ele>812.0</ele><time>2026-05-03T10:40:13.988Z</time></trkpt><trkpt lat="46.3964584" lon="12.7261088"><ele>812.0</ele><time>2026-05-03T10:40:14.987Z</time></trkpt><trkpt lat="46.3964342" lon="12.7259242"><ele>812.0</ele><time>2026-05-03T10:40:15.988Z</time></trkpt><trkpt lat="46.3964448" lon="12.725735"><ele>812.0</ele><time>2026-05-03T10:40:16.987Z</time></trkpt><trkpt lat="46.3964877" lon="12.7255482"><ele>811.75</ele><time>2026-05-03T10:40:17.987Z</time></trkpt><trkpt lat="46.3965031" lon="12.7253495"><ele>811.5</ele><time>2026-05-03T10:40:18.987Z</time></trkpt><trkpt lat="46.3964862" lon="12.7251541"><ele>811.25</ele><time>2026-05-03T10:40:19.987Z</time></trkpt><trkpt lat="46.3964389" lon="12.7249706"><ele>811.0</ele><time>2026-05-03T10:40:20.987Z</time></trkpt><trkpt lat="46.3963687" lon="12.7247949"><ele>805.25</ele><time>2026-05-03T10:40:21.987Z</time></trkpt><trkpt lat="46.3963184" lon="12.7246119"><ele>799.5</ele><time>2026-05-03T10:40:22.988Z</time></trkpt><trkpt lat="46.3963059" lon="12.7244021"><ele>793.75</ele><time>2026-05-03T10:40:23.987Z</time></trkpt><trkpt lat="46.3963129" lon="12.7241795"><ele>788.0</ele><time>2026-05-03T10:40:24.989Z</time></trkpt><trkpt lat="46.3963209" lon="12.723956"><ele>787.3333333333334</ele><time>2026-05-03T10:40:25.988Z</time></trkpt><trkpt lat="46.3963333" lon="12.7237346"><ele>786.6666666666667</ele><time>2026-05-03T10:40:26.988Z</time></trkpt><trkpt lat="46.3963483" lon="12.723515"><ele>786.0</ele><time>2026-05-03T10:40:27.989Z</time></trkpt><trkpt lat="46.3963257" lon="12.72329"><ele>783.3333333333333</ele><time>2026-05-03T10:40:28.988Z</time></trkpt><trkpt lat="46.3962969" lon="12.7230667"><ele>780.6666666666666</ele><time>2026-05-03T10:40:29.988Z</time></trkpt><trkpt lat="46.3962568" lon="12.7228501"><ele>778.0</ele><time>2026-05-03T10:40:30.988Z</time></trkpt><trkpt lat="46.3962237" lon="12.7226527"><ele>776.25</ele><time>2026-05-03T10:40:31.988Z</time></trkpt><trkpt lat="46.3962006" lon="12.7224704"><ele>774.5</ele><time>2026-05-03T10:40:32.989Z</time></trkpt><trkpt lat="46.3962196" lon="12.7222937"><ele>772.75</ele><time>2026-05-03T10:40:33.988Z</time></trkpt><trkpt lat="46.3962707" lon="12.7221375"><ele>771.0</ele><time>2026-05-03T10:40:34.988Z</time></trkpt><trkpt lat="46.396342" lon="12.7219808"><ele>777.75</ele><time>2026-05-03T10:40:35.987Z</time></trkpt><trkpt lat="46.3964265" lon="12.721822"><ele>784.5</ele><time>2026-05-03T10:40:36.988Z</time></trkpt><trkpt lat="46.3964793" lon="12.7216328"><ele>791.25</ele><time>2026-05-03T10:40:37.988Z</time></trkpt><trkpt lat="46.396504" lon="12.7214471"><ele>798.0</ele><time>2026-05-03T10:40:38.989Z</time></trkpt><trkpt lat="46.3964915" lon="12.72125"><ele>796.0</ele><time>2026-05-03T10:40:39.988Z</time></trkpt><trkpt lat="46.3964813" lon="12.7210401"><ele>794.0</ele><time>2026-05-03T10:40:40.988Z</time></trkpt><trkpt lat="46.3964783" lon="12.7208245"><ele>792.0</ele><time>2026-05-03T10:40:41.988Z</time></trkpt><trkpt lat="46.3964781" lon="12.720614"><ele>790.0</ele><time>2026-05-03T10:40:42.988Z</time></trkpt><trkpt lat="46.3964825" lon="12.7204128"><ele>790.5</ele><time>2026-05-03T10:40:43.988Z</time></trkpt><trkpt lat="46.3964791" lon="12.7202255"><ele>791.0</ele><time>2026-05-03T10:40:44.988Z</time></trkpt><trkpt lat="46.3964474" lon="12.7200395"><ele>791.5</ele><time>2026-05-03T10:40:45.988Z</time></trkpt><trkpt lat="46.3963818" lon="12.7198812"><ele>792.0</ele><time>2026-05-03T10:40:46.988Z</time></trkpt><trkpt lat="46.3962889" lon="12.7197545"><ele>786.5</ele><time>2026-05-03T10:40:47.988Z</time></trkpt><trkpt lat="46.3961738" lon="12.7196528"><ele>781.0</ele><time>2026-05-03T10:40:48.988Z</time></trkpt><trkpt lat="46.3960517" lon="12.7195516"><ele>775.5</ele><time>2026-05-03T10:40:49.989Z</time></trkpt><trkpt lat="46.3959403" lon="12.7194273"><ele>770.0</ele><time>2026-05-03T10:40:50.988Z</time></trkpt><trkpt lat="46.3958473" lon="12.719282"><ele>770.0</ele><time>2026-05-03T10:40:51.988Z</time></trkpt><trkpt lat="46.3957693" lon="12.7191102"><ele>770.0</ele><time>2026-05-03T10:40:52.988Z</time></trkpt><trkpt lat="46.3957183" lon="12.718909"><ele>770.0</ele><time>2026-05-03T10:40:53.988Z</time></trkpt><trkpt lat="46.3956921" lon="12.7186867"><ele>770.0</ele><time>2026-05-03T10:40:54.988Z</time></trkpt><trkpt lat="46.3956836" lon="12.7184463"><ele>771.0</ele><time>2026-05-03T10:40:55.988Z</time></trkpt><trkpt lat="46.3956744" lon="12.7181994"><ele>772.0</ele><time>2026-05-03T10:40:56.988Z</time></trkpt><trkpt lat="46.3956647" lon="12.71795"><ele>773.0</ele><time>2026-05-03T10:40:57.988Z</time></trkpt><trkpt lat="46.395656" lon="12.7177027"><ele>770.6666666666667</ele><time>2026-05-03T10:40:58.988Z</time></trkpt><trkpt lat="46.3956598" lon="12.7174574"><ele>768.3333333333334</ele><time>2026-05-03T10:40:59.988Z</time></trkpt><trkpt lat="46.3956751" lon="12.7172106"><ele>766.0</ele><time>2026-05-03T10:41:00.988Z</time></trkpt><trkpt lat="46.3957015" lon="12.7169614"><ele>763.3333333333334</ele><time>2026-05-03T10:41:01.988Z</time></trkpt><trkpt lat="46.395728" lon="12.7167199"><ele>760.6666666666666</ele><time>2026-05-03T10:41:02.987Z</time></trkpt><trkpt lat="46.3957654" lon="12.716484"><ele>758.0</ele><time>2026-05-03T10:41:03.988Z</time></trkpt><trkpt lat="46.3958235" lon="12.7162679"><ele>758.0</ele><time>2026-05-03T10:41:04.988Z</time></trkpt><trkpt lat="46.3959065" lon="12.7160765"><ele>758.0</ele><time>2026-05-03T10:41:05.988Z</time></trkpt><trkpt lat="46.3960131" lon="12.7159044"><ele>758.0</ele><time>2026-05-03T10:41:06.989Z</time></trkpt><trkpt lat="46.396138" lon="12.7157388"><ele>760.6666666666666</ele><time>2026-05-03T10:41:07.988Z</time></trkpt><trkpt lat="46.3962668" lon="12.7155572"><ele>763.3333333333334</ele><time>2026-05-03T10:41:08.988Z</time></trkpt><trkpt lat="46.3963901" lon="12.7153448"><ele>766.0</ele><time>2026-05-03T10:41:09.988Z</time></trkpt><trkpt lat="46.3965147" lon="12.7151167"><ele>759.0</ele><time>2026-05-03T10:41:10.988Z</time></trkpt><trkpt lat="46.3966382" lon="12.7148705"><ele>752.0</ele><time>2026-05-03T10:41:11.988Z</time></trkpt><trkpt lat="46.3967667" lon="12.7146213"><ele>745.0</ele><time>2026-05-03T10:41:12.988Z</time></trkpt><trkpt lat="46.3968923" lon="12.7143719"><ele>743.0</ele><time>2026-05-03T10:41:13.988Z</time></trkpt><trkpt lat="46.3970205" lon="12.7141153"><ele>741.0</ele><time>2026-05-03T10:41:14.988Z</time></trkpt><trkpt lat="46.3971515" lon="12.7138674"><ele>739.0</ele><time>2026-05-03T10:41:15.988Z</time></trkpt><trkpt lat="46.397282" lon="12.713618"><ele>745.0</ele><time>2026-05-03T10:41:16.989Z</time></trkpt><trkpt lat="46.3966953" lon="12.7147314"><ele>732.0</ele><time>2026-05-03T10:41:32.768Z</time></trkpt><trkpt lat="46.3978074" lon="12.6871471"><ele>734.0</ele><time>2026-05-03T10:42:41.987Z</time></trkpt><trkpt lat="46.3977192" lon="12.6869187"><ele>736.0</ele><time>2026-05-03T10:42:42.988Z</time></trkpt><trkpt lat="46.397623" lon="12.6866892"><ele>738.0</ele><time>2026-05-03T10:42:43.987Z</time></trkpt><trkpt lat="46.3975406" lon="12.6864268"><ele>738.0</ele><time>2026-05-03T10:42:44.988Z</time></trkpt><trkpt lat="46.397495" lon="12.6861541"><ele>738.0</ele><time>2026-05-03T10:42:45.988Z</time></trkpt><trkpt lat="46.3974802" lon="12.6858774"><ele>738.0</ele><time>2026-05-03T10:42:46.988Z</time></trkpt><trkpt lat="46.3974802" lon="12.6856048"><ele>738.3333333333334</ele><time>2026-05-03T10:42:47.989Z</time></trkpt><trkpt lat="46.3974802" lon="12.685335"><ele>738.6666666666667</ele><time>2026-05-03T10:42:48.988Z</time></trkpt><trkpt lat="46.3974813" lon="12.6850707"><ele>739.0</ele><time>2026-05-03T10:42:49.988Z</time></trkpt><trkpt lat="46.3974608" lon="12.6848014"><ele>740.3333333333334</ele><time>2026-05-03T10:42:50.988Z</time></trkpt><trkpt lat="46.3974116" lon="12.684528"><ele>741.6666666666666</ele><time>2026-05-03T10:42:51.988Z</time></trkpt><trkpt lat="46.3973452" lon="12.6842616"><ele>743.0</ele><time>2026-05-03T10:42:52.988Z</time></trkpt><trkpt lat="46.3972732" lon="12.6839841"><ele>746.3333333333333</ele><time>2026-05-03T10:42:53.988Z</time></trkpt><trkpt lat="46.3972026" lon="12.6837097"><ele>749.6666666666666</ele><time>2026-05-03T10:42:54.988Z</time></trkpt><trkpt lat="46.3971348" lon="12.6834434"><ele>753.0</ele><time>2026-05-03T10:42:55.988Z</time></trkpt><trkpt lat="46.3970813" lon="12.6831718"><ele>746.0</ele><time>2026-05-03T10:42:56.988Z</time></trkpt><trkpt lat="46.3970549" lon="12.6828863"><ele>739.0</ele><time>2026-05-03T10:42:57.988Z</time></trkpt><trkpt lat="46.3970442" lon="12.6826039"><ele>732.0</ele><time>2026-05-03T10:42:58.988Z</time></trkpt><trkpt lat="46.3970351" lon="12.682325"><ele>732.0</ele><time>2026-05-03T10:42:59.988Z</time></trkpt><trkpt lat="46.3970434" lon="12.682065"><ele>732.0</ele><time>2026-05-03T10:43:00.988Z</time></trkpt><trkpt lat="46.3970685" lon="12.6818106"><ele>732.0</ele><time>2026-05-03T10:43:01.987Z</time></trkpt><trkpt lat="46.3971074" lon="12.6815524"><ele>733.6666666666666</ele><time>2026-05-03T10:43:02.988Z</time></trkpt><trkpt lat="46.3971441" lon="12.6812894"><ele>735.3333333333333</ele><time>2026-05-03T10:43:03.987Z</time></trkpt><trkpt lat="46.3971778" lon="12.6810231"><ele>737.0</ele><time>2026-05-03T10:43:04.988Z</time></trkpt><trkpt lat="46.3972161" lon="12.6807651"><ele>746.6666666666666</ele><time>2026-05-03T10:43:05.988Z</time></trkpt><trkpt lat="46.3972485" lon="12.6805061"><ele>756.3333333333334</ele><time>2026-05-03T10:43:06.988Z</time></trkpt><trkpt lat="46.3972709" lon="12.6802453"><ele>766.0</ele><time>2026-05-03T10:43:07.988Z</time></trkpt><trkpt lat="46.3972785" lon="12.6799785"><ele>766.0</ele><time>2026-05-03T10:43:08.987Z</time></trkpt><trkpt lat="46.3972732" lon="12.6797041"><ele>766.0</ele><time>2026-05-03T10:43:09.987Z</time></trkpt><trkpt lat="46.3972682" lon="12.6794304"><ele>766.0</ele><time>2026-05-03T10:43:10.988Z</time></trkpt><trkpt lat="46.3972603" lon="12.679176"><ele>765.3333333333334</ele><time>2026-05-03T10:43:11.988Z</time></trkpt><trkpt lat="46.397253" lon="12.6789367"><ele>764.6666666666666</ele><time>2026-05-03T10:43:12.988Z</time></trkpt><trkpt lat="46.3972496" lon="12.6787178"><ele>764.0</ele><time>2026-05-03T10:43:13.988Z</time></trkpt><trkpt lat="46.3972466" lon="12.6785206"><ele>765.25</ele><time>2026-05-03T10:43:14.988Z</time></trkpt><trkpt lat="46.3972386" lon="12.6783449"><ele>766.5</ele><time>2026-05-03T10:43:15.988Z</time></trkpt><trkpt lat="46.3972087" lon="12.6781936"><ele>767.75</ele><time>2026-05-03T10:43:16.988Z</time></trkpt><trkpt lat="46.3971478" lon="12.6780586"><ele>769.0</ele><time>2026-05-03T10:43:17.989Z</time></trkpt><trkpt lat="46.3970556" lon="12.6779558"><ele>768.2</ele><time>2026-05-03T10:43:18.989Z</time></trkpt><trkpt lat="46.3969498" lon="12.6778942"><ele>767.4000000000001</ele><time>2026-05-03T10:43:19.988Z</time></trkpt><trkpt lat="46.3968433" lon="12.6778497"><ele>766.6</ele><time>2026-05-03T10:43:20.988Z</time></trkpt><trkpt lat="46.3967412" lon="12.6778103"><ele>765.8</ele><time>2026-05-03T10:43:21.988Z</time></trkpt><trkpt lat="46.3966423" lon="12.6777745"><ele>765.0</ele><time>2026-05-03T10:43:22.988Z</time></trkpt><trkpt lat="46.3965454" lon="12.6777433"><ele>765.0</ele><time>2026-05-03T10:43:23.988Z</time></trkpt><trkpt lat="46.3964501" lon="12.6777037"><ele>765.0</ele><time>2026-05-03T10:43:24.988Z</time></trkpt><trkpt lat="46.3963502" lon="12.6777088"><ele>765.0</ele><time>2026-05-03T10:43:25.988Z</time></trkpt><trkpt lat="46.3962575" lon="12.6777708"><ele>765.0</ele><time>2026-05-03T10:43:26.988Z</time></trkpt><trkpt lat="46.3961755" lon="12.6778817"><ele>765.0</ele><time>2026-05-03T10:43:27.988Z</time></trkpt><trkpt lat="46.3960963" lon="12.6780238"><ele>766.25</ele><time>2026-05-03T10:43:28.988Z</time></trkpt><trkpt lat="46.3960094" lon="12.6781724"><ele>767.5</ele><time>2026-05-03T10:43:29.988Z</time></trkpt><trkpt lat="46.395921" lon="12.678326"><ele>768.75</ele><time>2026-05-03T10:43:30.988Z</time></trkpt><trkpt lat="46.3958394" lon="12.6784774"><ele>770.0</ele><time>2026-05-03T10:43:31.988Z</time></trkpt><trkpt lat="46.3957644" lon="12.6786122"><ele>767.8</ele><time>2026-05-03T10:43:32.988Z</time></trkpt><trkpt lat="46.3956943" lon="12.6787279"><ele>765.6</ele><time>2026-05-03T10:43:33.988Z</time></trkpt><trkpt lat="46.3956161" lon="12.6788093"><ele>763.4000000000001</ele><time>2026-05-03T10:43:34.988Z</time></trkpt><trkpt lat="46.3955226" lon="12.678832"><ele>761.2</ele><time>2026-05-03T10:43:35.988Z</time></trkpt><trkpt lat="46.3954375" lon="12.6787851"><ele>759.0</ele><time>2026-05-03T10:43:36.987Z</time></trkpt><trkpt lat="46.3953723" lon="12.6786822"><ele>760.75</ele><time>2026-05-03T10:43:37.988Z</time></trkpt><trkpt lat="46.3953237" lon="12.6785382"><ele>762.5</ele><time>2026-05-03T10:43:38.988Z</time></trkpt><trkpt lat="46.3952774" lon="12.6783721"><ele>764.25</ele><time>2026-05-03T10:43:39.988Z</time></trkpt><trkpt lat="46.3952305" lon="12.6781922"><ele>766.0</ele><time>2026-05-03T10:43:40.988Z</time></trkpt><trkpt lat="46.3951869" lon="12.6780071"><ele>766.0</ele><time>2026-05-03T10:43:41.989Z</time></trkpt><trkpt lat="46.3951449" lon="12.6778264"><ele>766.0</ele><time>2026-05-03T10:43:42.988Z</time></trkpt><trkpt lat="46.3951004" lon="12.6776391"><ele>766.0</ele><time>2026-05-03T10:43:43.989Z</time></trkpt><trkpt lat="46.3950533" lon="12.6774528"><ele>766.0</ele><time>2026-05-03T10:43:44.987Z</time></trkpt><trkpt lat="46.3950051" lon="12.6772626"><ele>767.0</ele><time>2026-05-03T10:43:45.988Z</time></trkpt><trkpt lat="46.3949566" lon="12.6770688"><ele>768.0</ele><time>2026-05-03T10:43:46.988Z</time></trkpt><trkpt lat="46.3949095" lon="12.6768788"><ele>769.0</ele><time>2026-05-03T10:43:47.988Z</time></trkpt><trkpt lat="46.3948639" lon="12.6766877"><ele>770.0</ele><time>2026-05-03T10:43:48.988Z</time></trkpt><trkpt lat="46.3948155" lon="12.6764932"><ele>770.5</ele><time>2026-05-03T10:43:49.988Z</time></trkpt><trkpt lat="46.3947681" lon="12.6763004"><ele>771.0</ele><time>2026-05-03T10:43:50.988Z</time></trkpt><trkpt lat="46.3947201" lon="12.6761066"><ele>771.5</ele><time>2026-05-03T10:43:51.988Z</time></trkpt><trkpt lat="46.3946727" lon="12.6759154"><ele>772.0</ele><time>2026-05-03T10:43:52.988Z</time></trkpt><trkpt lat="46.3946277" lon="12.6757281"><ele>772.0</ele><time>2026-05-03T10:43:53.988Z</time></trkpt><trkpt lat="46.3945859" lon="12.6755424"><ele>772.0</ele><time>2026-05-03T10:43:54.988Z</time></trkpt><trkpt lat="46.3945421" lon="12.6753558"><ele>772.0</ele><time>2026-05-03T10:43:55.987Z</time></trkpt><trkpt lat="46.3944992" lon="12.6751699"><ele>772.0</ele><time>2026-05-03T10:43:56.988Z</time></trkpt><trkpt lat="46.3944573" lon="12.6749856"><ele>773.25</ele><time>2026-05-03T10:43:57.988Z</time></trkpt><trkpt lat="46.3944188" lon="12.674798"><ele>774.5</ele><time>2026-05-03T10:43:58.988Z</time></trkpt><trkpt lat="46.3943895" lon="12.6746031"><ele>775.75</ele><time>2026-05-03T10:43:59.988Z</time></trkpt><trkpt lat="46.3943636" lon="12.6744096"><ele>777.0</ele><time>2026-05-03T10:44:00.989Z</time></trkpt><trkpt lat="46.394341" lon="12.6742191"><ele>777.25</ele><time>2026-05-03T10:44:01.989Z</time></trkpt><trkpt lat="46.3943174" lon="12.6740277"><ele>777.5</ele><time>2026-05-03T10:44:02.988Z</time></trkpt><trkpt lat="46.3942972" lon="12.6738367"><ele>777.75</ele><time>2026-05-03T10:44:03.988Z</time></trkpt><trkpt lat="46.3942775" lon="12.6736468"><ele>778.0</ele><time>2026-05-03T10:44:04.988Z</time></trkpt><trkpt lat="46.3942555" lon="12.6734568"><ele>778.0</ele><time>2026-05-03T10:44:05.988Z</time></trkpt><trkpt lat="46.3942375" lon="12.6732642"><ele>778.0</ele><time>2026-05-03T10:44:06.988Z</time></trkpt><trkpt lat="46.3942208" lon="12.6730683"><ele>778.0</ele><time>2026-05-03T10:44:07.988Z</time></trkpt><trkpt lat="46.3942078" lon="12.6728648"><ele>778.0</ele><time>2026-05-03T10:44:08.989Z</time></trkpt><trkpt lat="46.3941978" lon="12.6726503"><ele>778.0</ele><time>2026-05-03T10:44:09.988Z</time></trkpt><trkpt lat="46.3941814" lon="12.6724306"><ele>778.0</ele><time>2026-05-03T10:44:10.988Z</time></trkpt><trkpt lat="46.3941632" lon="12.6722069"><ele>778.0</ele><time>2026-05-03T10:44:11.988Z</time></trkpt><trkpt lat="46.394147" lon="12.6719795"><ele>777.6666666666666</ele><time>2026-05-03T10:44:12.988Z</time></trkpt><trkpt lat="46.3941274" lon="12.6717347"><ele>777.3333333333333</ele><time>2026-05-03T10:44:13.988Z</time></trkpt><trkpt lat="46.3941123" lon="12.6714808"><ele>777.0</ele><time>2026-05-03T10:44:14.988Z</time></trkpt><trkpt lat="46.3940914" lon="12.671224"><ele>776.3333333333333</ele><time>2026-05-03T10:44:15.988Z</time></trkpt><trkpt lat="46.3940698" lon="12.6709631"><ele>775.6666666666666</ele><time>2026-05-03T10:44:16.988Z</time></trkpt><trkpt lat="46.3940502" lon="12.6707032"><ele>775.0</ele><time>2026-05-03T10:44:17.988Z</time></trkpt><trkpt lat="46.3940292" lon="12.6704403"><ele>775.0</ele><time>2026-05-03T10:44:18.987Z</time></trkpt><trkpt lat="46.394009" lon="12.6701727"><ele>775.0</ele><time>2026-05-03T10:44:19.988Z</time></trkpt><trkpt lat="46.3939879" lon="12.669905"><ele>775.0</ele><time>2026-05-03T10:44:20.988Z</time></trkpt><trkpt lat="46.3939652" lon="12.669635"><ele>775.3333333333333</ele><time>2026-05-03T10:44:21.988Z</time></trkpt><trkpt lat="46.3939439" lon="12.6693642"><ele>775.6666666666667</ele><time>2026-05-03T10:44:22.987Z</time></trkpt><trkpt lat="46.3939225" lon="12.6690971"><ele>776.0</ele><time>2026-05-03T10:44:23.988Z</time></trkpt><trkpt lat="46.3939037" lon="12.6688395"><ele>775.6666666666667</ele><time>2026-05-03T10:44:24.988Z</time></trkpt><trkpt lat="46.3938809" lon="12.6685888"><ele>775.3333333333333</ele><time>2026-05-03T10:44:25.988Z</time></trkpt><trkpt lat="46.3938509" lon="12.668351"><ele>775.0</ele><time>2026-05-03T10:44:26.989Z</time></trkpt><trkpt lat="46.3937982" lon="12.6681228"><ele>772.6666666666666</ele><time>2026-05-03T10:44:27.988Z</time></trkpt><trkpt lat="46.393722" lon="12.6679072"><ele>770.3333333333333</ele><time>2026-05-03T10:44:28.987Z</time></trkpt><trkpt lat="46.3936354" lon="12.6677189"><ele>768.0</ele><time>2026-05-03T10:44:29.988Z</time></trkpt><trkpt lat="46.3935219" lon="12.6675592"><ele>768.0</ele><time>2026-05-03T10:44:30.988Z</time></trkpt><trkpt lat="46.3934035" lon="12.6674105"><ele>768.0</ele><time>2026-05-03T10:44:31.988Z</time></trkpt><trkpt lat="46.3933109" lon="12.6672416"><ele>768.0</ele><time>2026-05-03T10:44:32.988Z</time></trkpt><trkpt lat="46.393238" lon="12.6670436"><ele>769.6666666666667</ele><time>2026-05-03T10:44:33.988Z</time></trkpt><trkpt lat="46.3931961" lon="12.6668305"><ele>771.3333333333334</ele><time>2026-05-03T10:44:34.987Z</time></trkpt><trkpt lat="46.3931888" lon="12.6666057"><ele>773.0</ele><time>2026-05-03T10:44:35.988Z</time></trkpt><trkpt lat="46.3932049" lon="12.6663692"><ele>773.0</ele><time>2026-05-03T10:44:36.989Z</time></trkpt><trkpt lat="46.3932182" lon="12.6661176"><ele>773.0</ele><time>2026-05-03T10:44:37.987Z</time></trkpt><trkpt lat="46.393233" lon="12.6658536"><ele>773.0</ele><time>2026-05-03T10:44:38.988Z</time></trkpt><trkpt lat="46.3932444" lon="12.6655934"><ele>773.6666666666667</ele><time>2026-05-03T10:44:39.988Z</time></trkpt><trkpt lat="46.3932602" lon="12.6653414"><ele>774.3333333333333</ele><time>2026-05-03T10:44:40.987Z</time></trkpt><trkpt lat="46.3932928" lon="12.665089"><ele>775.0</ele><time>2026-05-03T10:44:41.988Z</time></trkpt><trkpt lat="46.3933365" lon="12.6648308"><ele>775.0</ele><time>2026-05-03T10:44:42.987Z</time></trkpt><trkpt lat="46.3933794" lon="12.66456"><ele>775.0</ele><time>2026-05-03T10:44:43.988Z</time></trkpt><trkpt lat="46.3934055" lon="12.6642857"><ele>775.0</ele><time>2026-05-03T10:44:44.988Z</time></trkpt><trkpt lat="46.3934167" lon="12.6640074"><ele>774.6666666666666</ele><time>2026-05-03T10:44:45.988Z</time></trkpt><trkpt lat="46.393416" lon="12.6637336"><ele>774.3333333333333</ele><time>2026-05-03T10:44:46.987Z</time></trkpt><trkpt lat="46.393407" lon="12.6634725"><ele>774.0</ele><time>2026-05-03T10:44:47.988Z</time></trkpt><trkpt lat="46.3934042" lon="12.6632208"><ele>774.0</ele><time>2026-05-03T10:44:48.987Z</time></trkpt><trkpt lat="46.3934166" lon="12.662965"><ele>774.0</ele><time>2026-05-03T10:44:49.987Z</time></trkpt><trkpt lat="46.3934576" lon="12.6627106"><ele>774.0</ele><time>2026-05-03T10:44:50.989Z</time></trkpt><trkpt lat="46.3935275" lon="12.6624634"><ele>773.3333333333333</ele><time>2026-05-03T10:44:51.988Z</time></trkpt><trkpt lat="46.3936227" lon="12.6622241"><ele>772.6666666666666</ele><time>2026-05-03T10:44:52.988Z</time></trkpt><trkpt lat="46.3937323" lon="12.6619917"><ele>772.0</ele><time>2026-05-03T10:44:53.988Z</time></trkpt><trkpt lat="46.3938386" lon="12.6617594"><ele>777.6666666666666</ele><time>2026-05-03T10:44:54.988Z</time></trkpt><trkpt lat="46.3939362" lon="12.661528"><ele>783.3333333333333</ele><time>2026-05-03T10:44:55.989Z</time></trkpt><trkpt lat="46.394011" lon="12.661285"><ele>789.0</ele><time>2026-05-03T10:44:56.987Z</time></trkpt><trkpt lat="46.3940646" lon="12.6610326"><ele>789.0</ele><time>2026-05-03T10:44:57.988Z</time></trkpt><trkpt lat="46.3941088" lon="12.6607803"><ele>789.0</ele><time>2026-05-03T10:44:58.988Z</time></trkpt><trkpt lat="46.3941608" lon="12.6605464"><ele>789.0</ele><time>2026-05-03T10:44:59.988Z</time></trkpt><trkpt lat="46.3942202" lon="12.6603318"><ele>785.3333333333333</ele><time>2026-05-03T10:45:00.987Z</time></trkpt><trkpt lat="46.3943052" lon="12.6601282"><ele>781.6666666666666</ele><time>2026-05-03T10:45:01.988Z</time></trkpt><trkpt lat="46.394412" lon="12.6599348"><ele>778.0</ele><time>2026-05-03T10:45:02.989Z</time></trkpt><trkpt lat="46.3945295" lon="12.6597417"><ele>778.0</ele><time>2026-05-03T10:45:03.988Z</time></trkpt><trkpt lat="46.3946548" lon="12.6595503"><ele>778.0</ele><time>2026-05-03T10:45:04.988Z</time></trkpt><trkpt lat="46.3947889" lon="12.6593619"><ele>778.0</ele><time>2026-05-03T10:45:05.989Z</time></trkpt><trkpt lat="46.3949301" lon="12.6591774"><ele>780.3333333333333</ele><time>2026-05-03T10:45:06.988Z</time></trkpt><trkpt lat="46.3950745" lon="12.6589849"><ele>782.6666666666667</ele><time>2026-05-03T10:45:07.988Z</time></trkpt><trkpt lat="46.395221" lon="12.6587871"><ele>785.0</ele><time>2026-05-03T10:45:08.989Z</time></trkpt><trkpt lat="46.3953693" lon="12.6585905"><ele>791.6666666666667</ele><time>2026-05-03T10:45:09.988Z</time></trkpt><trkpt lat="46.3955165" lon="12.6583931"><ele>798.3333333333333</ele><time>2026-05-03T10:45:10.988Z</time></trkpt><trkpt lat="46.3956523" lon="12.6581718"><ele>805.0</ele><time>2026-05-03T10:45:11.987Z</time></trkpt><trkpt lat="46.3957705" lon="12.6579231"><ele>802.6666666666666</ele><time>2026-05-03T10:45:12.988Z</time></trkpt><trkpt lat="46.3958702" lon="12.6576549"><ele>800.3333333333333</ele><time>2026-05-03T10:45:13.988Z</time></trkpt><trkpt lat="46.3959491" lon="12.6573684"><ele>798.0</ele><time>2026-05-03T10:45:14.989Z</time></trkpt><trkpt lat="46.3960171" lon="12.6570666"><ele>798.6666666666667</ele><time>2026-05-03T10:45:15.988Z</time></trkpt><trkpt lat="46.3960881" lon="12.6567631"><ele>799.3333333333334</ele><time>2026-05-03T10:45:16.988Z</time></trkpt><trkpt lat="46.3961577" lon="12.6564567"><ele>800.0</ele><time>2026-05-03T10:45:17.988Z</time></trkpt><trkpt lat="46.3962259" lon="12.6561503"><ele>801.0</ele><time>2026-05-03T10:45:18.988Z</time></trkpt><trkpt lat="46.3962957" lon="12.6558477"><ele>802.0</ele><time>2026-05-03T10:45:19.988Z</time></trkpt><trkpt lat="46.3963613" lon="12.6555515"><ele>803.0</ele><time>2026-05-03T10:45:20.988Z</time></trkpt><trkpt lat="46.3964233" lon="12.6552576"><ele>805.3333333333334</ele><time>2026-05-03T10:45:21.988Z</time></trkpt><trkpt lat="46.3964805" lon="12.654967"><ele>807.6666666666667</ele><time>2026-05-03T10:45:22.988Z</time></trkpt><trkpt lat="46.3965363" lon="12.6546759"><ele>810.0</ele><time>2026-05-03T10:45:23.988Z</time></trkpt><trkpt lat="46.3965899" lon="12.6543844"><ele>811.3333333333333</ele><time>2026-05-03T10:45:24.988Z</time></trkpt><trkpt lat="46.3966478" lon="12.654092"><ele>812.6666666666666</ele><time>2026-05-03T10:45:25.988Z</time></trkpt><trkpt lat="46.3967172" lon="12.6538033"><ele>814.0</ele><time>2026-05-03T10:45:26.988Z</time></trkpt><trkpt lat="46.3967939" lon="12.6535165"><ele>815.0</ele><time>2026-05-03T10:45:27.988Z</time></trkpt><trkpt lat="46.3968778" lon="12.6532291"><ele>816.0</ele><time>2026-05-03T10:45:28.988Z</time></trkpt><trkpt lat="46.3969652" lon="12.6529415"><ele>817.0</ele><time>2026-05-03T10:45:29.988Z</time></trkpt><trkpt lat="46.3970533" lon="12.6526525"><ele>818.6666666666666</ele><time>2026-05-03T10:45:30.988Z</time></trkpt><trkpt lat="46.3971363" lon="12.6523725"><ele>820.3333333333333</ele><time>2026-05-03T10:45:31.988Z</time></trkpt><trkpt lat="46.3972126" lon="12.6520886"><ele>822.0</ele><time>2026-05-03T10:45:32.988Z</time></trkpt><trkpt lat="46.3972736" lon="12.6517936"><ele>824.6666666666667</ele><time>2026-05-03T10:45:33.988Z</time></trkpt><trkpt lat="46.3973198" lon="12.6514962"><ele>827.3333333333334</ele><time>2026-05-03T10:45:34.988Z</time></trkpt><trkpt lat="46.3973577" lon="12.6511941"><ele>830.0</ele><time>2026-05-03T10:45:35.988Z</time></trkpt><trkpt lat="46.3973954" lon="12.6508879"><ele>830.3333333333334</ele><time>2026-05-03T10:45:36.987Z</time></trkpt><trkpt lat="46.3974356" lon="12.6505812"><ele>830.6666666666667</ele><time>2026-05-03T10:45:37.987Z</time></trkpt><trkpt lat="46.3974733" lon="12.650269"><ele>831.0</ele><time>2026-05-03T10:45:38.988Z</time></trkpt><trkpt lat="46.3975098" lon="12.6499562"><ele>831.0</ele><time>2026-05-03T10:45:39.988Z</time></trkpt><trkpt lat="46.3975451" lon="12.6496558"><ele>831.0</ele><time>2026-05-03T10:45:40.988Z</time></trkpt><trkpt lat="46.397581" lon="12.6493693"><ele>831.0</ele><time>2026-05-03T10:45:41.988Z</time></trkpt><trkpt lat="46.397615" lon="12.6491025"><ele>832.3333333333333</ele><time>2026-05-03T10:45:42.988Z</time></trkpt><trkpt lat="46.3976397" lon="12.6488573"><ele>833.6666666666666</ele><time>2026-05-03T10:45:43.987Z</time></trkpt><trkpt lat="46.3976426" lon="12.6486302"><ele>835.0</ele><time>2026-05-03T10:45:44.987Z</time></trkpt><trkpt lat="46.3976169" lon="12.6484123"><ele>837.3333333333333</ele><time>2026-05-03T10:45:45.988Z</time></trkpt><trkpt lat="46.3975596" lon="12.6482124"><ele>839.6666666666667</ele><time>2026-05-03T10:45:46.987Z</time></trkpt><trkpt lat="46.3974701" lon="12.6480346"><ele>842.0</ele><time>2026-05-03T10:45:47.988Z</time></trkpt><trkpt lat="46.3973577" lon="12.6478675"><ele>843.6666666666667</ele><time>2026-05-03T10:45:48.987Z</time></trkpt><trkpt lat="46.3972345" lon="12.6476949"><ele>845.3333333333333</ele><time>2026-05-03T10:45:49.988Z</time></trkpt><trkpt lat="46.3971132" lon="12.6475214"><ele>847.0</ele><time>2026-05-03T10:45:50.988Z</time></trkpt><trkpt lat="46.3969856" lon="12.647344"><ele>848.0</ele><time>2026-05-03T10:45:51.987Z</time></trkpt><trkpt lat="46.3968514" lon="12.6471576"><ele>849.0</ele><time>2026-05-03T10:45:52.987Z</time></trkpt><trkpt lat="46.3967151" lon="12.6469708"><ele>850.0</ele><time>2026-05-03T10:45:53.987Z</time></trkpt><trkpt lat="46.3965776" lon="12.6467822"><ele>848.6666666666666</ele><time>2026-05-03T10:45:54.987Z</time></trkpt><trkpt lat="46.3964449" lon="12.6465946"><ele>847.3333333333333</ele><time>2026-05-03T10:45:55.987Z</time></trkpt><trkpt lat="46.3963122" lon="12.6464118"><ele>846.0</ele><time>2026-05-03T10:45:56.987Z</time></trkpt><trkpt lat="46.3961845" lon="12.6462313"><ele>840.3333333333333</ele><time>2026-05-03T10:45:57.987Z</time></trkpt><trkpt lat="46.3960567" lon="12.6460538"><ele>834.6666666666666</ele><time>2026-05-03T10:45:58.987Z</time></trkpt><trkpt lat="46.3959302" lon="12.6458771"><ele>829.0</ele><time>2026-05-03T10:45:59.987Z</time></trkpt><trkpt lat="46.3958108" lon="12.6456892"><ele>829.0</ele><time>2026-05-03T10:46:00.987Z</time></trkpt><trkpt lat="46.3957087" lon="12.6454792"><ele>829.0</ele><time>2026-05-03T10:46:01.988Z</time></trkpt><trkpt lat="46.3956284" lon="12.645246"><ele>829.0</ele><time>2026-05-03T10:46:02.988Z</time></trkpt><trkpt lat="46.3955735" lon="12.6449937"><ele>828.3333333333333</ele><time>2026-05-03T10:46:03.988Z</time></trkpt><trkpt lat="46.3955386" lon="12.644732"><ele>827.6666666666667</ele><time>2026-05-03T10:46:04.988Z</time></trkpt><trkpt lat="46.3955095" lon="12.644468"><ele>827.0</ele><time>2026-05-03T10:46:05.989Z</time></trkpt><trkpt lat="46.3954797" lon="12.6442044"><ele>824.0</ele><time>2026-05-03T10:46:06.989Z</time></trkpt><trkpt lat="46.3954518" lon="12.6439503"><ele>821.0</ele><time>2026-05-03T10:46:07.988Z</time></trkpt><trkpt lat="46.3954258" lon="12.643702"><ele>818.0</ele><time>2026-05-03T10:46:08.989Z</time></trkpt><trkpt lat="46.3954161" lon="12.6434533"><ele>817.0</ele><time>2026-05-03T10:46:09.988Z</time></trkpt><trkpt lat="46.3954267" lon="12.6431998"><ele>816.0</ele><time>2026-05-03T10:46:10.988Z</time></trkpt><trkpt lat="46.3954641" lon="12.6429486"><ele>815.0</ele><time>2026-05-03T10:46:11.988Z</time></trkpt><trkpt lat="46.3955238" lon="12.6427008"><ele>815.0</ele><time>2026-05-03T10:46:12.988Z</time></trkpt><trkpt lat="46.3956078" lon="12.6424701"><ele>815.0</ele><time>2026-05-03T10:46:13.988Z</time></trkpt><trkpt lat="46.3957118" lon="12.6422591"><ele>815.0</ele><time>2026-05-03T10:46:14.988Z</time></trkpt><trkpt lat="46.3958227" lon="12.6420877"><ele>813.25</ele><time>2026-05-03T10:46:15.988Z</time></trkpt><trkpt lat="46.395929" lon="12.6419565"><ele>811.5</ele><time>2026-05-03T10:46:16.988Z</time></trkpt><trkpt lat="46.3960365" lon="12.6418704"><ele>809.75</ele><time>2026-05-03T10:46:17.988Z</time></trkpt><trkpt lat="46.3961541" lon="12.6418414"><ele>808.0</ele><time>2026-05-03T10:46:18.988Z</time></trkpt><trkpt lat="46.396268" lon="12.6418795"><ele>810.5</ele><time>2026-05-03T10:46:19.988Z</time></trkpt><trkpt lat="46.3963804" lon="12.6419724"><ele>813.0</ele><time>2026-05-03T10:46:20.987Z</time></trkpt><trkpt lat="46.3964942" lon="12.642067"><ele>815.5</ele><time>2026-05-03T10:46:21.988Z</time></trkpt><trkpt lat="46.3966103" lon="12.6421221"><ele>818.0</ele><time>2026-05-03T10:46:22.988Z</time></trkpt><trkpt lat="46.3967089" lon="12.6421264"><ele>818.0</ele><time>2026-05-03T10:46:23.989Z</time></trkpt><trkpt lat="46.3967964" lon="12.6420801"><ele>818.0</ele><time>2026-05-03T10:46:24.989Z</time></trkpt><trkpt lat="46.3968696" lon="12.6419793"><ele>818.0</ele><time>2026-05-03T10:46:25.988Z</time></trkpt><trkpt lat="46.3969339" lon="12.6418579"><ele>818.0</ele><time>2026-05-03T10:46:26.988Z</time></trkpt><trkpt lat="46.3969899" lon="12.6417449"><ele>818.0</ele><time>2026-05-03T10:46:27.988Z</time></trkpt><trkpt lat="46.3970293" lon="12.6416348"><ele>816.0</ele><time>2026-05-03T10:46:28.988Z</time></trkpt><trkpt lat="46.3970366" lon="12.6415071"><ele>814.0</ele><time>2026-05-03T10:46:29.988Z</time></trkpt><trkpt lat="46.3970091" lon="12.6413697"><ele>812.0</ele><time>2026-05-03T10:46:30.988Z</time></trkpt><trkpt lat="46.396959" lon="12.6412205"><ele>810.0</ele><time>2026-05-03T10:46:31.987Z</time></trkpt><trkpt lat="46.3968994" lon="12.6410462"><ele>808.0</ele><time>2026-05-03T10:46:32.987Z</time></trkpt><trkpt lat="46.3968265" lon="12.6408504"><ele>808.0</ele><time>2026-05-03T10:46:33.989Z</time></trkpt><trkpt lat="46.3967561" lon="12.6406507"><ele>808.0</ele><time>2026-05-03T10:46:34.988Z</time></trkpt><trkpt lat="46.3966803" lon="12.6404395"><ele>808.0</ele><time>2026-05-03T10:46:35.988Z</time></trkpt><trkpt lat="46.396602" lon="12.640222"><ele>811.6666666666666</ele><time>2026-05-03T10:46:36.988Z</time></trkpt><trkpt lat="46.396521" lon="12.6399985"><ele>815.3333333333333</ele><time>2026-05-03T10:46:37.987Z</time></trkpt><trkpt lat="46.3964384" lon="12.6397783"><ele>819.0</ele><time>2026-05-03T10:46:38.987Z</time></trkpt><trkpt lat="46.3963685" lon="12.6395645"><ele>806.6666666666667</ele><time>2026-05-03T10:46:39.988Z</time></trkpt><trkpt lat="46.3962928" lon="12.6393639"><ele>794.3333333333334</ele><time>2026-05-03T10:46:40.988Z</time></trkpt><trkpt lat="46.3962035" lon="12.6391858"><ele>782.0</ele><time>2026-05-03T10:46:41.988Z</time></trkpt><trkpt lat="46.3961136" lon="12.6390236"><ele>782.0</ele><time>2026-05-03T10:46:42.988Z</time></trkpt><trkpt lat="46.3960287" lon="12.6388645"><ele>782.0</ele><time>2026-05-03T10:46:43.987Z</time></trkpt><trkpt lat="46.3959514" lon="12.6386977"><ele>782.0</ele><time>2026-05-03T10:46:44.987Z</time></trkpt><trkpt lat="46.3958965" lon="12.6385168"><ele>782.0</ele><time>2026-05-03T10:46:45.987Z</time></trkpt><trkpt lat="46.3958636" lon="12.6383213"><ele>783.6666666666667</ele><time>2026-05-03T10:46:46.987Z</time></trkpt><trkpt lat="46.3958575" lon="12.6381186"><ele>785.3333333333333</ele><time>2026-05-03T10:46:47.987Z</time></trkpt><trkpt lat="46.3958716" lon="12.6378953"><ele>787.0</ele><time>2026-05-03T10:46:48.988Z</time></trkpt><trkpt lat="46.3958959" lon="12.6376532"><ele>787.3333333333333</ele><time>2026-05-03T10:46:49.987Z</time></trkpt><trkpt lat="46.3959225" lon="12.6373979"><ele>787.6666666666667</ele><time>2026-05-03T10:46:50.987Z</time></trkpt><trkpt lat="46.3959476" lon="12.6371428"><ele>788.0</ele><time>2026-05-03T10:46:51.987Z</time></trkpt><trkpt lat="46.3959718" lon="12.636883"><ele>788.3333333333334</ele><time>2026-05-03T10:46:52.987Z</time></trkpt><trkpt lat="46.3959943" lon="12.6366182"><ele>788.6666666666667</ele><time>2026-05-03T10:46:53.987Z</time></trkpt><trkpt lat="46.3960196" lon="12.6363494"><ele>789.0</ele><time>2026-05-03T10:46:54.988Z</time></trkpt><trkpt lat="46.3960448" lon="12.6360767"><ele>787.0</ele><time>2026-05-03T10:46:55.988Z</time></trkpt><trkpt lat="46.3960684" lon="12.6357982"><ele>785.0</ele><time>2026-05-03T10:46:56.989Z</time></trkpt><trkpt lat="46.3960893" lon="12.6355134"><ele>783.0</ele><time>2026-05-03T10:46:57.988Z</time></trkpt><trkpt lat="46.3961018" lon="12.6352267"><ele>781.3333333333333</ele><time>2026-05-03T10:46:58.988Z</time></trkpt><trkpt lat="46.3961036" lon="12.6349372"><ele>779.6666666666666</ele><time>2026-05-03T10:46:59.989Z</time></trkpt><trkpt lat="46.3961004" lon="12.6346478"><ele>778.0</ele><time>2026-05-03T10:47:00.988Z</time></trkpt><trkpt lat="46.3960984" lon="12.6343591"><ele>777.3333333333333</ele><time>2026-05-03T10:47:01.988Z</time></trkpt><trkpt lat="46.3961036" lon="12.6340725"><ele>776.6666666666667</ele><time>2026-05-03T10:47:02.987Z</time></trkpt><trkpt lat="46.39613" lon="12.6337876"><ele>776.0</ele><time>2026-05-03T10:47:03.988Z</time></trkpt><trkpt lat="46.3961797" lon="12.6335058"><ele>774.0</ele><time>2026-05-03T10:47:04.987Z</time></trkpt><trkpt lat="46.396237" lon="12.6332196"><ele>772.0</ele><time>2026-05-03T10:47:05.988Z</time></trkpt><trkpt lat="46.3962927" lon="12.6329318"><ele>770.0</ele><time>2026-05-03T10:47:06.988Z</time></trkpt><trkpt lat="46.3963489" lon="12.6326445"><ele>775.0</ele><time>2026-05-03T10:47:07.987Z</time></trkpt><trkpt lat="46.3964051" lon="12.6323568"><ele>780.0</ele><time>2026-05-03T10:47:08.988Z</time></trkpt><trkpt lat="46.3964606" lon="12.6320689"><ele>785.0</ele><time>2026-05-03T10:47:09.987Z</time></trkpt><trkpt lat="46.3965149" lon="12.6317807"><ele>785.0</ele><time>2026-05-03T10:47:10.987Z</time></trkpt><trkpt lat="46.3965706" lon="12.6314906"><ele>785.0</ele><time>2026-05-03T10:47:11.988Z</time></trkpt><trkpt lat="46.3966287" lon="12.6311966"><ele>785.0</ele><time>2026-05-03T10:47:12.988Z</time></trkpt><trkpt lat="46.3966847" lon="12.6309"><ele>785.0</ele><time>2026-05-03T10:47:13.988Z</time></trkpt><trkpt lat="46.396741" lon="12.630605"><ele>785.0</ele><time>2026-05-03T10:47:14.988Z</time></trkpt><trkpt lat="46.3967968" lon="12.6303101"><ele>785.0</ele><time>2026-05-03T10:47:15.988Z</time></trkpt><trkpt lat="46.3968548" lon="12.630017"><ele>784.0</ele><time>2026-05-03T10:47:16.988Z</time></trkpt><trkpt lat="46.3969123" lon="12.6297247"><ele>783.0</ele><time>2026-05-03T10:47:17.988Z</time></trkpt><trkpt lat="46.3969698" lon="12.6294328"><ele>782.0</ele><time>2026-05-03T10:47:18.989Z</time></trkpt><trkpt lat="46.3970245" lon="12.6291427"><ele>782.0</ele><time>2026-05-03T10:47:19.987Z</time></trkpt><trkpt lat="46.3970802" lon="12.6288551"><ele>782.0</ele><time>2026-05-03T10:47:20.988Z</time></trkpt><trkpt lat="46.3971365" lon="12.6285709"><ele>782.0</ele><time>2026-05-03T10:47:21.988Z</time></trkpt><trkpt lat="46.3971931" lon="12.6282878"><ele>787.0</ele><time>2026-05-03T10:47:22.988Z</time></trkpt><trkpt lat="46.3972476" lon="12.6280055"><ele>792.0</ele><time>2026-05-03T10:47:23.988Z</time></trkpt><trkpt lat="46.3973001" lon="12.6277214"><ele>797.0</ele><time>2026-05-03T10:47:24.988Z</time></trkpt><trkpt lat="46.3973486" lon="12.6274402"><ele>797.0</ele><time>2026-05-03T10:47:25.988Z</time></trkpt><trkpt lat="46.3973977" lon="12.6271629"><ele>797.0</ele><time>2026-05-03T10:47:26.988Z</time></trkpt><trkpt lat="46.3974486" lon="12.6268903"><ele>797.0</ele><time>2026-05-03T10:47:27.989Z</time></trkpt><trkpt lat="46.3975007" lon="12.6266221"><ele>796.6666666666667</ele><time>2026-05-03T10:47:28.988Z</time></trkpt><trkpt lat="46.3975521" lon="12.6263648"><ele>796.3333333333333</ele><time>2026-05-03T10:47:29.987Z</time></trkpt><trkpt lat="46.3975994" lon="12.6261209"><ele>796.0</ele><time>2026-05-03T10:47:30.988Z</time></trkpt><trkpt lat="46.3976322" lon="12.6258805"><ele>796.0</ele><time>2026-05-03T10:47:31.988Z</time></trkpt><trkpt lat="46.3976402" lon="12.6256344"><ele>796.0</ele><time>2026-05-03T10:47:32.988Z</time></trkpt><trkpt lat="46.3976211" lon="12.6253796"><ele>796.0</ele><time>2026-05-03T10:47:33.988Z</time></trkpt><trkpt lat="46.3975938" lon="12.6251248"><ele>795.6666666666666</ele><time>2026-05-03T10:47:34.988Z</time></trkpt><trkpt lat="46.3975764" lon="12.6248746"><ele>795.3333333333333</ele><time>2026-05-03T10:47:35.988Z</time></trkpt><trkpt lat="46.3975779" lon="12.6246139"><ele>795.0</ele><time>2026-05-03T10:47:36.989Z</time></trkpt><trkpt lat="46.3976021" lon="12.6243508"><ele>793.3333333333333</ele><time>2026-05-03T10:47:37.988Z</time></trkpt><trkpt lat="46.3976455" lon="12.6240888"><ele>791.6666666666666</ele><time>2026-05-03T10:47:38.988Z</time></trkpt><trkpt lat="46.3977125" lon="12.623828"><ele>790.0</ele><time>2026-05-03T10:47:39.988Z</time></trkpt><trkpt lat="46.3977906" lon="12.623564"><ele>788.3333333333333</ele><time>2026-05-03T10:47:40.988Z</time></trkpt><trkpt lat="46.3978724" lon="12.6233019"><ele>786.6666666666667</ele><time>2026-05-03T10:47:41.988Z</time></trkpt><trkpt lat="46.3979528" lon="12.6230527"><ele>785.0</ele><time>2026-05-03T10:47:42.988Z</time></trkpt><trkpt lat="46.3980277" lon="12.6228228"><ele>793.3333333333334</ele><time>2026-05-03T10:47:43.988Z</time></trkpt><trkpt lat="46.3981022" lon="12.6226181"><ele>801.6666666666667</ele><time>2026-05-03T10:47:44.988Z</time></trkpt><trkpt lat="46.3981935" lon="12.6224401"><ele>810.0</ele><time>2026-05-03T10:47:45.987Z</time></trkpt><trkpt lat="46.3983109" lon="12.6222884"><ele>810.0</ele><time>2026-05-03T10:47:46.987Z</time></trkpt><trkpt lat="46.3984478" lon="12.6221645"><ele>810.0</ele><time>2026-05-03T10:47:47.988Z</time></trkpt><trkpt lat="46.3985934" lon="12.6220569"><ele>810.0</ele><time>2026-05-03T10:47:48.987Z</time></trkpt><trkpt lat="46.3987394" lon="12.6219551"><ele>813.25</ele><time>2026-05-03T10:47:49.988Z</time></trkpt><trkpt lat="46.3988772" lon="12.6218486"><ele>816.5</ele><time>2026-05-03T10:47:50.988Z</time></trkpt><trkpt lat="46.398996" lon="12.6217245"><ele>819.75</ele><time>2026-05-03T10:47:51.988Z</time></trkpt><trkpt lat="46.3990984" lon="12.6215961"><ele>823.0</ele><time>2026-05-03T10:47:52.987Z</time></trkpt><trkpt lat="46.3991892" lon="12.6214712"><ele>823.0</ele><time>2026-05-03T10:47:53.988Z</time></trkpt><trkpt lat="46.399268" lon="12.6213505"><ele>823.0</ele><time>2026-05-03T10:47:54.988Z</time></trkpt><trkpt lat="46.3993372" lon="12.6212447"><ele>823.0</ele><time>2026-05-03T10:47:55.988Z</time></trkpt><trkpt lat="46.3994011" lon="12.6211494"><ele>823.0</ele><time>2026-05-03T10:47:56.988Z</time></trkpt><trkpt lat="46.3994565" lon="12.6210673"><ele>823.0</ele><time>2026-05-03T10:47:57.988Z</time></trkpt><trkpt lat="46.3995024" lon="12.6209961"><ele>824.5714285714286</ele><time>2026-05-03T10:47:58.988Z</time></trkpt><trkpt lat="46.3995697" lon="12.6208952"><ele>826.1428571428571</ele><time>2026-05-03T10:48:00.988Z</time></trkpt><trkpt lat="46.3996269" lon="12.6208358"><ele>827.7142857142858</ele><time>2026-05-03T10:48:03.987Z</time></trkpt><trkpt lat="46.3996577" lon="12.6207481"><ele>829.2857142857142</ele><time>2026-05-03T10:48:21.987Z</time></trkpt><trkpt lat="46.399706" lon="12.6206712"><ele>830.8571428571428</ele><time>2026-05-03T10:48:22.987Z</time></trkpt><trkpt lat="46.3997458" lon="12.6205956"><ele>832.4285714285714</ele><time>2026-05-03T10:48:23.988Z</time></trkpt><trkpt lat="46.399782" lon="12.6205115"><ele>834.0</ele><time>2026-05-03T10:48:24.988Z</time></trkpt><trkpt lat="46.3998125" lon="12.6204225"><ele>834.0</ele><time>2026-05-03T10:48:25.987Z</time></trkpt><trkpt lat="46.3998416" lon="12.6203305"><ele>834.0</ele><time>2026-05-03T10:48:26.988Z</time></trkpt><trkpt lat="46.3998724" lon="12.6202398"><ele>834.0</ele><time>2026-05-03T10:48:27.988Z</time></trkpt><trkpt lat="46.399903" lon="12.6201398"><ele>834.0</ele><time>2026-05-03T10:48:28.987Z</time></trkpt><trkpt lat="46.3999452" lon="12.620034"><ele>834.0</ele><time>2026-05-03T10:48:29.988Z</time></trkpt><trkpt lat="46.3999918" lon="12.6199241"><ele>834.0</ele><time>2026-05-03T10:48:30.988Z</time></trkpt><trkpt lat="46.4000303" lon="12.6197987"><ele>831.6666666666666</ele><time>2026-05-03T10:48:31.988Z</time></trkpt><trkpt lat="46.4000689" lon="12.6196746"><ele>829.3333333333333</ele><time>2026-05-03T10:48:32.988Z</time></trkpt><trkpt lat="46.4001076" lon="12.6195634"><ele>827.0</ele><time>2026-05-03T10:48:33.987Z</time></trkpt><trkpt lat="46.4001474" lon="12.6194609"><ele>824.6666666666666</ele><time>2026-05-03T10:48:34.987Z</time></trkpt><trkpt lat="46.4001945" lon="12.6193623"><ele>822.3333333333333</ele><time>2026-05-03T10:48:35.987Z</time></trkpt><trkpt lat="46.4002395" lon="12.6192609"><ele>820.0</ele><time>2026-05-03T10:48:36.987Z</time></trkpt><trkpt lat="46.4002737" lon="12.6191466"><ele>817.4</ele><time>2026-05-03T10:48:37.988Z</time></trkpt><trkpt lat="46.4002988" lon="12.6190239"><ele>814.8</ele><time>2026-05-03T10:48:38.988Z</time></trkpt><trkpt lat="46.400316" lon="12.6188976"><ele>812.2</ele><time>2026-05-03T10:48:39.987Z</time></trkpt><trkpt lat="46.4003283" lon="12.6187642"><ele>809.6</ele><time>2026-05-03T10:48:40.988Z</time></trkpt><trkpt lat="46.4003414" lon="12.6186272"><ele>807.0</ele><time>2026-05-03T10:48:41.987Z</time></trkpt><trkpt lat="46.4003673" lon="12.6184801"><ele>805.75</ele><time>2026-05-03T10:48:42.987Z</time></trkpt><trkpt lat="46.4004156" lon="12.6183416"><ele>804.5</ele><time>2026-05-03T10:48:43.987Z</time></trkpt><trkpt lat="46.4004876" lon="12.6182208"><ele>803.25</ele><time>2026-05-03T10:48:44.988Z</time></trkpt><trkpt lat="46.4005831" lon="12.6181134"><ele>802.0</ele><time>2026-05-03T10:48:45.988Z</time></trkpt><trkpt lat="46.4006727" lon="12.618"><ele>809.25</ele><time>2026-05-03T10:48:46.987Z</time></trkpt><trkpt lat="46.400754" lon="12.6178515"><ele>816.5</ele><time>2026-05-03T10:48:47.987Z</time></trkpt><trkpt lat="46.4008183" lon="12.6176688"><ele>823.75</ele><time>2026-05-03T10:48:48.988Z</time></trkpt><trkpt lat="46.4008739" lon="12.6174594"><ele>831.0</ele><time>2026-05-03T10:48:49.988Z</time></trkpt><trkpt lat="46.4009214" lon="12.6172365"><ele>831.0</ele><time>2026-05-03T10:48:50.988Z</time></trkpt><trkpt lat="46.4009636" lon="12.6170264"><ele>831.0</ele><time>2026-05-03T10:48:51.988Z</time></trkpt><trkpt lat="46.4010067" lon="12.616833"><ele>831.0</ele><time>2026-05-03T10:48:52.988Z</time></trkpt><trkpt lat="46.4010563" lon="12.6166593"><ele>831.0</ele><time>2026-05-03T10:48:53.988Z</time></trkpt><trkpt lat="46.4011224" lon="12.6165048"><ele>832.0</ele><time>2026-05-03T10:48:54.988Z</time></trkpt><trkpt lat="46.4012044" lon="12.6163602"><ele>833.0</ele><time>2026-05-03T10:48:55.989Z</time></trkpt><trkpt lat="46.4012896" lon="12.6162229"><ele>834.0</ele><time>2026-05-03T10:48:56.988Z</time></trkpt><trkpt lat="46.4013752" lon="12.6160999"><ele>835.0</ele><time>2026-05-03T10:48:57.988Z</time></trkpt><trkpt lat="46.4014694" lon="12.6159886"><ele>835.0</ele><time>2026-05-03T10:48:58.988Z</time></trkpt><trkpt lat="46.4015772" lon="12.6158942"><ele>835.0</ele><time>2026-05-03T10:48:59.988Z</time></trkpt><trkpt lat="46.4016848" lon="12.615789"><ele>835.0</ele><time>2026-05-03T10:49:00.987Z</time></trkpt><trkpt lat="46.4017803" lon="12.6156745"><ele>835.0</ele><time>2026-05-03T10:49:01.987Z</time></trkpt><trkpt lat="46.4018683" lon="12.6155658"><ele>835.0</ele><time>2026-05-03T10:49:02.987Z</time></trkpt><trkpt lat="46.4019406" lon="12.6154567"><ele>835.0</ele><time>2026-05-03T10:49:03.988Z</time></trkpt><trkpt lat="46.4019859" lon="12.6153373"><ele>835.0</ele><time>2026-05-03T10:49:04.986Z</time></trkpt><trkpt lat="46.4020004" lon="12.6151988"><ele>835.0</ele><time>2026-05-03T10:49:05.988Z</time></trkpt><trkpt lat="46.4019746" lon="12.6150572"><ele>835.0</ele><time>2026-05-03T10:49:06.987Z</time></trkpt><trkpt lat="46.4019142" lon="12.6149216"><ele>834.6</ele><time>2026-05-03T10:49:07.987Z</time></trkpt><trkpt lat="46.4018422" lon="12.6147905"><ele>834.2</ele><time>2026-05-03T10:49:08.987Z</time></trkpt><trkpt lat="46.4017752" lon="12.6146642"><ele>833.8</ele><time>2026-05-03T10:49:09.987Z</time></trkpt><trkpt lat="46.4017177" lon="12.6145348"><ele>833.4</ele><time>2026-05-03T10:49:10.987Z</time></trkpt><trkpt lat="46.4016879" lon="12.6143896"><ele>833.0</ele><time>2026-05-03T10:49:11.987Z</time></trkpt><trkpt lat="46.4016979" lon="12.6142406"><ele>833.0</ele><time>2026-05-03T10:49:12.987Z</time></trkpt><trkpt lat="46.4017475" lon="12.6140911"><ele>833.0</ele><time>2026-05-03T10:49:13.987Z</time></trkpt><trkpt lat="46.4018307" lon="12.6139513"><ele>833.0</ele><time>2026-05-03T10:49:14.988Z</time></trkpt><trkpt lat="46.401922" lon="12.6138102"><ele>833.0</ele><time>2026-05-03T10:49:15.987Z</time></trkpt><trkpt lat="46.4020204" lon="12.6136847"><ele>834.25</ele><time>2026-05-03T10:49:16.987Z</time></trkpt><trkpt lat="46.4021407" lon="12.6136081"><ele>835.5</ele><time>2026-05-03T10:49:17.987Z</time></trkpt><trkpt lat="46.4022661" lon="12.6135934"><ele>836.75</ele><time>2026-05-03T10:49:18.987Z</time></trkpt><trkpt lat="46.4023775" lon="12.6136105"><ele>838.0</ele><time>2026-05-03T10:49:19.986Z</time></trkpt><trkpt lat="46.402481" lon="12.6136223"><ele>840.5</ele><time>2026-05-03T10:49:20.987Z</time></trkpt><trkpt lat="46.4025852" lon="12.6135943"><ele>843.0</ele><time>2026-05-03T10:49:21.986Z</time></trkpt><trkpt lat="46.402689" lon="12.6135424"><ele>845.5</ele><time>2026-05-03T10:49:22.986Z</time></trkpt><trkpt lat="46.4027841" lon="12.6134464"><ele>848.0</ele><time>2026-05-03T10:49:23.986Z</time></trkpt><trkpt lat="46.4028611" lon="12.6132991"><ele>848.0</ele><time>2026-05-03T10:49:24.986Z</time></trkpt><trkpt lat="46.4029122" lon="12.613119"><ele>848.0</ele><time>2026-05-03T10:49:25.986Z</time></trkpt><trkpt lat="46.4029408" lon="12.6129194"><ele>848.0</ele><time>2026-05-03T10:49:26.986Z</time></trkpt><trkpt lat="46.4029586" lon="12.6127272"><ele>848.0</ele><time>2026-05-03T10:49:27.986Z</time></trkpt><trkpt lat="46.4029785" lon="12.6125481"><ele>853.75</ele><time>2026-05-03T10:49:28.986Z</time></trkpt><trkpt lat="46.4030057" lon="12.6123931"><ele>859.5</ele><time>2026-05-03T10:49:29.986Z</time></trkpt><trkpt lat="46.4030677" lon="12.6122596"><ele>865.25</ele><time>2026-05-03T10:49:30.987Z</time></trkpt><trkpt lat="46.4031604" lon="12.6121527"><ele>871.0</ele><time>2026-05-03T10:49:31.987Z</time></trkpt><trkpt lat="46.4032628" lon="12.6120463"><ele>869.0</ele><time>2026-05-03T10:49:32.988Z</time></trkpt><trkpt lat="46.4033448" lon="12.6118961"><ele>867.0</ele><time>2026-05-03T10:49:33.987Z</time></trkpt><trkpt lat="46.4034069" lon="12.6117063"><ele>865.0</ele><time>2026-05-03T10:49:34.987Z</time></trkpt><trkpt lat="46.4034648" lon="12.6114974"><ele>863.0</ele><time>2026-05-03T10:49:35.986Z</time></trkpt><trkpt lat="46.4035192" lon="12.6112894"><ele>860.3333333333334</ele><time>2026-05-03T10:49:36.986Z</time></trkpt><trkpt lat="46.4035708" lon="12.6110716"><ele>857.6666666666667</ele><time>2026-05-03T10:49:37.987Z</time></trkpt><trkpt lat="46.4036221" lon="12.6108513"><ele>855.0</ele><time>2026-05-03T10:49:38.988Z</time></trkpt><trkpt lat="46.4036735" lon="12.6106309"><ele>855.0</ele><time>2026-05-03T10:49:39.987Z</time></trkpt><trkpt lat="46.4037146" lon="12.6104028"><ele>855.0</ele><time>2026-05-03T10:49:40.987Z</time></trkpt><trkpt lat="46.4037317" lon="12.6101693"><ele>855.0</ele><time>2026-05-03T10:49:41.987Z</time></trkpt><trkpt lat="46.4037266" lon="12.6099315"><ele>857.6666666666667</ele><time>2026-05-03T10:49:42.987Z</time></trkpt><trkpt lat="46.403727" lon="12.6096978"><ele>860.3333333333334</ele><time>2026-05-03T10:49:43.987Z</time></trkpt><trkpt lat="46.4037562" lon="12.6094666"><ele>863.0</ele><time>2026-05-03T10:49:44.987Z</time></trkpt><trkpt lat="46.4038123" lon="12.6092371"><ele>869.0</ele><time>2026-05-03T10:49:45.987Z</time></trkpt><trkpt lat="46.4038755" lon="12.6090008"><ele>875.0</ele><time>2026-05-03T10:49:46.986Z</time></trkpt><trkpt lat="46.4039421" lon="12.6087501"><ele>881.0</ele><time>2026-05-03T10:49:47.987Z</time></trkpt><trkpt lat="46.4040122" lon="12.6084956"><ele>881.0</ele><time>2026-05-03T10:49:48.986Z</time></trkpt><trkpt lat="46.4040852" lon="12.6082369"><ele>881.0</ele><time>2026-05-03T10:49:49.986Z</time></trkpt><trkpt lat="46.4041591" lon="12.6079805"><ele>881.0</ele><time>2026-05-03T10:49:50.986Z</time></trkpt><trkpt lat="46.4042302" lon="12.6077238"><ele>881.0</ele><time>2026-05-03T10:49:51.987Z</time></trkpt><trkpt lat="46.4042997" lon="12.6074796"><ele>881.0</ele><time>2026-05-03T10:49:52.987Z</time></trkpt><trkpt lat="46.4043707" lon="12.6072313"><ele>881.0</ele><time>2026-05-03T10:49:53.988Z</time></trkpt><trkpt lat="46.4044389" lon="12.6069937"><ele>881.0</ele><time>2026-05-03T10:49:54.987Z</time></trkpt><trkpt lat="46.404501" lon="12.6067663"><ele>881.0</ele><time>2026-05-03T10:49:55.986Z</time></trkpt><trkpt lat="46.4045598" lon="12.6065562"><ele>881.0</ele><time>2026-05-03T10:49:56.986Z</time></trkpt><trkpt lat="46.404619" lon="12.6063541"><ele>883.0</ele><time>2026-05-03T10:49:57.986Z</time></trkpt><trkpt lat="46.4046854" lon="12.6061595"><ele>885.0</ele><time>2026-05-03T10:49:58.986Z</time></trkpt><trkpt lat="46.4047743" lon="12.6059801"><ele>887.0</ele><time>2026-05-03T10:49:59.987Z</time></trkpt><trkpt lat="46.4048819" lon="12.6058105"><ele>887.0</ele><time>2026-05-03T10:50:00.986Z</time></trkpt><trkpt lat="46.4049937" lon="12.6056387"><ele>887.0</ele><time>2026-05-03T10:50:01.986Z</time></trkpt><trkpt lat="46.4051097" lon="12.6054618"><ele>887.0</ele><time>2026-05-03T10:50:02.986Z</time></trkpt><trkpt lat="46.4052352" lon="12.6052938"><ele>887.6666666666667</ele><time>2026-05-03T10:50:03.987Z</time></trkpt><trkpt lat="46.405374" lon="12.6051486"><ele>888.3333333333333</ele><time>2026-05-03T10:50:04.987Z</time></trkpt><trkpt lat="46.4055182" lon="12.6050141"><ele>889.0</ele><time>2026-05-03T10:50:05.987Z</time></trkpt><trkpt lat="46.4056587" lon="12.6048776"><ele>890.3333333333333</ele><time>2026-05-03T10:50:06.987Z</time></trkpt><trkpt lat="46.4057963" lon="12.6047298"><ele>891.6666666666667</ele><time>2026-05-03T10:50:07.987Z</time></trkpt><trkpt lat="46.405927" lon="12.6045533"><ele>893.0</ele><time>2026-05-03T10:50:08.986Z</time></trkpt><trkpt lat="46.406053" lon="12.6043533"><ele>893.0</ele><time>2026-05-03T10:50:09.986Z</time></trkpt><trkpt lat="46.4061817" lon="12.6041409"><ele>893.0</ele><time>2026-05-03T10:50:10.987Z</time></trkpt><trkpt lat="46.4063149" lon="12.6039228"><ele>893.0</ele><time>2026-05-03T10:50:11.987Z</time></trkpt><trkpt lat="46.406446" lon="12.6037085"><ele>895.0</ele><time>2026-05-03T10:50:12.986Z</time></trkpt><trkpt lat="46.4065815" lon="12.6034919"><ele>897.0</ele><time>2026-05-03T10:50:13.987Z</time></trkpt><trkpt lat="46.4067169" lon="12.603267"><ele>899.0</ele><time>2026-05-03T10:50:14.987Z</time></trkpt><trkpt lat="46.4068564" lon="12.603034"><ele>899.0</ele><time>2026-05-03T10:50:15.987Z</time></trkpt><trkpt lat="46.4069974" lon="12.6028058"><ele>899.0</ele><time>2026-05-03T10:50:16.987Z</time></trkpt><trkpt lat="46.4071354" lon="12.6025829"><ele>899.0</ele><time>2026-05-03T10:50:17.987Z</time></trkpt><trkpt lat="46.4072752" lon="12.602355"><ele>899.0</ele><time>2026-05-03T10:50:18.986Z</time></trkpt><trkpt lat="46.4074138" lon="12.6021246"><ele>899.0</ele><time>2026-05-03T10:50:19.987Z</time></trkpt><trkpt lat="46.4075524" lon="12.6018921"><ele>899.0</ele><time>2026-05-03T10:50:20.986Z</time></trkpt><trkpt lat="46.4076919" lon="12.6016622"><ele>899.0</ele><time>2026-05-03T10:50:21.987Z</time></trkpt><trkpt lat="46.4078315" lon="12.6014344"><ele>899.0</ele><time>2026-05-03T10:50:22.987Z</time></trkpt><trkpt lat="46.4079699" lon="12.6012064"><ele>899.0</ele><time>2026-05-03T10:50:23.987Z</time></trkpt><trkpt lat="46.4081105" lon="12.6009799"><ele>899.0</ele><time>2026-05-03T10:50:24.987Z</time></trkpt><trkpt lat="46.4082516" lon="12.6007548"><ele>899.0</ele><time>2026-05-03T10:50:25.987Z</time></trkpt><trkpt lat="46.4083896" lon="12.60053"><ele>899.0</ele><time>2026-05-03T10:50:26.988Z</time></trkpt><trkpt lat="46.4085272" lon="12.6003061"><ele>899.0</ele><time>2026-05-03T10:50:27.987Z</time></trkpt><trkpt lat="46.4086614" lon="12.6000817"><ele>899.0</ele><time>2026-05-03T10:50:28.987Z</time></trkpt><trkpt lat="46.4087958" lon="12.5998607"><ele>899.0</ele><time>2026-05-03T10:50:29.986Z</time></trkpt><trkpt lat="46.4089313" lon="12.5996437"><ele>900.3333333333334</ele><time>2026-05-03T10:50:30.986Z</time></trkpt><trkpt lat="46.4090668" lon="12.5994241"><ele>901.6666666666667</ele><time>2026-05-03T10:50:31.986Z</time></trkpt><trkpt lat="46.4092026" lon="12.5992051"><ele>903.0</ele><time>2026-05-03T10:50:32.987Z</time></trkpt><trkpt lat="46.4093344" lon="12.5989919"><ele>903.0</ele><time>2026-05-03T10:50:33.988Z</time></trkpt><trkpt lat="46.4094644" lon="12.5987808"><ele>903.0</ele><time>2026-05-03T10:50:34.987Z</time></trkpt><trkpt lat="46.4095925" lon="12.5985768"><ele>903.0</ele><time>2026-05-03T10:50:35.987Z</time></trkpt><trkpt lat="46.4097143" lon="12.5983788"><ele>904.3333333333333</ele><time>2026-05-03T10:50:36.987Z</time></trkpt><trkpt lat="46.4098295" lon="12.5981929"><ele>905.6666666666666</ele><time>2026-05-03T10:50:37.987Z</time></trkpt><trkpt lat="46.4099381" lon="12.5980098"><ele>907.0</ele><time>2026-05-03T10:50:38.987Z</time></trkpt><trkpt lat="46.410021" lon="12.5978031"><ele>908.3333333333333</ele><time>2026-05-03T10:50:39.987Z</time></trkpt><trkpt lat="46.4100762" lon="12.5975699"><ele>909.6666666666667</ele><time>2026-05-03T10:50:40.986Z</time></trkpt><trkpt lat="46.4101037" lon="12.5973144"><ele>911.0</ele><time>2026-05-03T10:50:41.986Z</time></trkpt><trkpt lat="46.4101221" lon="12.5970404"><ele>912.6666666666667</ele><time>2026-05-03T10:50:42.987Z</time></trkpt><trkpt lat="46.4101367" lon="12.5967589"><ele>914.3333333333333</ele><time>2026-05-03T10:50:43.987Z</time></trkpt><trkpt lat="46.4101545" lon="12.5964796"><ele>916.0</ele><time>2026-05-03T10:50:44.986Z</time></trkpt><trkpt lat="46.4101698" lon="12.5961838"><ele>915.6666666666666</ele><time>2026-05-03T10:50:45.987Z</time></trkpt><trkpt lat="46.4101825" lon="12.5958859"><ele>915.3333333333333</ele><time>2026-05-03T10:50:46.987Z</time></trkpt><trkpt lat="46.410196" lon="12.595583"><ele>915.0</ele><time>2026-05-03T10:50:47.987Z</time></trkpt><trkpt lat="46.4102077" lon="12.5952868"><ele>914.3333333333333</ele><time>2026-05-03T10:50:48.987Z</time></trkpt><trkpt lat="46.4102219" lon="12.5949951"><ele>913.6666666666666</ele><time>2026-05-03T10:50:49.986Z</time></trkpt><trkpt lat="46.410235" lon="12.5947107"><ele>913.0</ele><time>2026-05-03T10:50:50.987Z</time></trkpt><trkpt lat="46.4102471" lon="12.5944377"><ele>914.6666666666666</ele><time>2026-05-03T10:50:51.987Z</time></trkpt><trkpt lat="46.4102598" lon="12.5941859"><ele>916.3333333333333</ele><time>2026-05-03T10:50:52.987Z</time></trkpt><trkpt lat="46.410285" lon="12.5939588"><ele>918.0</ele><time>2026-05-03T10:50:53.987Z</time></trkpt><trkpt lat="46.4103333" lon="12.593761"><ele>918.5</ele><time>2026-05-03T10:50:54.987Z</time></trkpt><trkpt lat="46.410413" lon="12.5935959"><ele>919.0</ele><time>2026-05-03T10:50:55.987Z</time></trkpt><trkpt lat="46.4105159" lon="12.5934545"><ele>919.5</ele><time>2026-05-03T10:50:56.988Z</time></trkpt><trkpt lat="46.4106363" lon="12.5933114"><ele>920.0</ele><time>2026-05-03T10:50:57.987Z</time></trkpt><trkpt lat="46.4107631" lon="12.5931515"><ele>918.0</ele><time>2026-05-03T10:50:58.987Z</time></trkpt><trkpt lat="46.4108973" lon="12.5929854"><ele>916.0</ele><time>2026-05-03T10:50:59.987Z</time></trkpt><trkpt lat="46.4110312" lon="12.5928104"><ele>914.0</ele><time>2026-05-03T10:51:00.987Z</time></trkpt><trkpt lat="46.41116" lon="12.5926217"><ele>914.0</ele><time>2026-05-03T10:51:01.987Z</time></trkpt><trkpt lat="46.4112856" lon="12.5924315"><ele>914.0</ele><time>2026-05-03T10:51:02.987Z</time></trkpt><trkpt lat="46.41141" lon="12.5922384"><ele>914.0</ele><time>2026-05-03T10:51:03.987Z</time></trkpt><trkpt lat="46.4115227" lon="12.5920311"><ele>913.0</ele><time>2026-05-03T10:51:04.988Z</time></trkpt><trkpt lat="46.4116225" lon="12.5918079"><ele>912.0</ele><time>2026-05-03T10:51:05.987Z</time></trkpt><trkpt lat="46.4117175" lon="12.591578"><ele>911.0</ele><time>2026-05-03T10:51:06.987Z</time></trkpt><trkpt lat="46.4118101" lon="12.5913491"><ele>908.0</ele><time>2026-05-03T10:51:07.988Z</time></trkpt><trkpt lat="46.4119022" lon="12.5911298"><ele>905.0</ele><time>2026-05-03T10:51:08.988Z</time></trkpt><trkpt lat="46.411994" lon="12.5909098"><ele>902.0</ele><time>2026-05-03T10:51:09.987Z</time></trkpt><trkpt lat="46.4120833" lon="12.5906946"><ele>901.0</ele><time>2026-05-03T10:51:10.987Z</time></trkpt><trkpt lat="46.4121707" lon="12.5904819"><ele>900.0</ele><time>2026-05-03T10:51:11.987Z</time></trkpt><trkpt lat="46.4122619" lon="12.590269"><ele>899.0</ele><time>2026-05-03T10:51:12.987Z</time></trkpt><trkpt lat="46.4123531" lon="12.5900594"><ele>899.0</ele><time>2026-05-03T10:51:13.987Z</time></trkpt><trkpt lat="46.4124396" lon="12.5898519"><ele>899.0</ele><time>2026-05-03T10:51:14.987Z</time></trkpt><trkpt lat="46.4125199" lon="12.5896393"><ele>899.0</ele><time>2026-05-03T10:51:15.987Z</time></trkpt><trkpt lat="46.4125935" lon="12.5894221"><ele>896.0</ele><time>2026-05-03T10:51:16.987Z</time></trkpt><trkpt lat="46.4126552" lon="12.5891957"><ele>893.0</ele><time>2026-05-03T10:51:17.987Z</time></trkpt><trkpt lat="46.4127073" lon="12.5889681"><ele>890.0</ele><time>2026-05-03T10:51:18.987Z</time></trkpt><trkpt lat="46.4127572" lon="12.5887413"><ele>888.6666666666667</ele><time>2026-05-03T10:51:19.987Z</time></trkpt><trkpt lat="46.4128103" lon="12.5885171"><ele>887.3333333333333</ele><time>2026-05-03T10:51:20.987Z</time></trkpt><trkpt lat="46.4128819" lon="12.5883013"><ele>886.0</ele><time>2026-05-03T10:51:21.987Z</time></trkpt><trkpt lat="46.4129759" lon="12.5880996"><ele>888.6666666666666</ele><time>2026-05-03T10:51:22.987Z</time></trkpt><trkpt lat="46.4130859" lon="12.5879152"><ele>891.3333333333333</ele><time>2026-05-03T10:51:23.987Z</time></trkpt><trkpt lat="46.4131964" lon="12.5877379"><ele>894.0</ele><time>2026-05-03T10:51:24.987Z</time></trkpt><trkpt lat="46.413303" lon="12.5875648"><ele>894.0</ele><time>2026-05-03T10:51:25.987Z</time></trkpt><trkpt lat="46.4134091" lon="12.5874002"><ele>894.0</ele><time>2026-05-03T10:51:26.987Z</time></trkpt><trkpt lat="46.4135151" lon="12.5872572"><ele>894.0</ele><time>2026-05-03T10:51:27.988Z</time></trkpt><trkpt lat="46.4136295" lon="12.5871323"><ele>894.0</ele><time>2026-05-03T10:51:28.987Z</time></trkpt><trkpt lat="46.413757" lon="12.5870403"><ele>888.6666666666667</ele><time>2026-05-03T10:51:29.988Z</time></trkpt><trkpt lat="46.4138992" lon="12.5869808"><ele>883.3333333333334</ele><time>2026-05-03T10:51:30.986Z</time></trkpt><trkpt lat="46.4140495" lon="12.586952"><ele>878.0</ele><time>2026-05-03T10:51:31.986Z</time></trkpt><trkpt lat="46.4142068" lon="12.586946"><ele>878.0</ele><time>2026-05-03T10:51:32.986Z</time></trkpt><trkpt lat="46.4143662" lon="12.5869499"><ele>878.0</ele><time>2026-05-03T10:51:33.988Z</time></trkpt><trkpt lat="46.4145241" lon="12.5869544"><ele>878.0</ele><time>2026-05-03T10:51:34.987Z</time></trkpt><trkpt lat="46.4146843" lon="12.5869634"><ele>875.6666666666667</ele><time>2026-05-03T10:51:35.987Z</time></trkpt><trkpt lat="46.4148462" lon="12.5869681"><ele>873.3333333333333</ele><time>2026-05-03T10:51:36.987Z</time></trkpt><trkpt lat="46.41501" lon="12.5869641"><ele>871.0</ele><time>2026-05-03T10:51:37.987Z</time></trkpt><trkpt lat="46.4151764" lon="12.58694"><ele>871.0</ele><time>2026-05-03T10:51:38.987Z</time></trkpt><trkpt lat="46.4153461" lon="12.5868906"><ele>871.0</ele><time>2026-05-03T10:51:39.987Z</time></trkpt><trkpt lat="46.4155177" lon="12.5868328"><ele>871.0</ele><time>2026-05-03T10:51:40.987Z</time></trkpt><trkpt lat="46.4156854" lon="12.5867681"><ele>872.0</ele><time>2026-05-03T10:51:41.987Z</time></trkpt><trkpt lat="46.415845" lon="12.5867099"><ele>873.0</ele><time>2026-05-03T10:51:42.987Z</time></trkpt><trkpt lat="46.4159961" lon="12.5866444"><ele>874.0</ele><time>2026-05-03T10:51:43.987Z</time></trkpt><trkpt lat="46.4161371" lon="12.5865641"><ele>874.0</ele><time>2026-05-03T10:51:44.987Z</time></trkpt><trkpt lat="46.4162732" lon="12.5864706"><ele>874.0</ele><time>2026-05-03T10:51:45.986Z</time></trkpt><trkpt lat="46.4164046" lon="12.5863637"><ele>874.0</ele><time>2026-05-03T10:51:46.986Z</time></trkpt><trkpt lat="46.4165277" lon="12.5862508"><ele>874.0</ele><time>2026-05-03T10:51:47.987Z</time></trkpt><trkpt lat="46.4166412" lon="12.5861257"><ele>873.5</ele><time>2026-05-03T10:51:48.988Z</time></trkpt><trkpt lat="46.4167467" lon="12.5859907"><ele>873.0</ele><time>2026-05-03T10:51:49.987Z</time></trkpt><trkpt lat="46.4168495" lon="12.5858502"><ele>872.5</ele><time>2026-05-03T10:51:50.987Z</time></trkpt><trkpt lat="46.4169492" lon="12.5857118"><ele>872.0</ele><time>2026-05-03T10:51:51.988Z</time></trkpt><trkpt lat="46.4170446" lon="12.5855722"><ele>872.0</ele><time>2026-05-03T10:51:52.988Z</time></trkpt><trkpt lat="46.4171369" lon="12.5854363"><ele>872.0</ele><time>2026-05-03T10:51:53.987Z</time></trkpt><trkpt lat="46.4172192" lon="12.585313"><ele>872.0</ele><time>2026-05-03T10:51:54.987Z</time></trkpt><trkpt lat="46.417294" lon="12.5852005"><ele>872.0</ele><time>2026-05-03T10:51:55.987Z</time></trkpt><trkpt lat="46.417363" lon="12.5850963"><ele>872.3333333333334</ele><time>2026-05-03T10:51:56.987Z</time></trkpt><trkpt lat="46.4174287" lon="12.5850041"><ele>872.6666666666667</ele><time>2026-05-03T10:51:57.988Z</time></trkpt><trkpt lat="46.4174868" lon="12.5849236"><ele>873.0</ele><time>2026-05-03T10:51:58.987Z</time></trkpt><trkpt lat="46.4175353" lon="12.5848509"><ele>873.3333333333333</ele><time>2026-05-03T10:51:59.987Z</time></trkpt><trkpt lat="46.4176087" lon="12.5847272"><ele>873.6666666666666</ele><time>2026-05-03T10:52:01.987Z</time></trkpt><trkpt lat="46.4176088" lon="12.5846221"><ele>874.0</ele><time>2026-05-03T10:52:03.987Z</time></trkpt><trkpt lat="46.4175976" lon="12.5845169"><ele>873.9999999999999</ele><time>2026-05-03T10:52:06.987Z</time></trkpt><trkpt lat="46.417626" lon="12.5843985"><ele>874.0</ele><time>2026-05-03T10:55:19.985Z</time></trkpt><trkpt lat="46.4177056" lon="12.5843302"><ele>874.0</ele><time>2026-05-03T10:55:21.987Z</time></trkpt><trkpt lat="46.4177892" lon="12.5843166"><ele>874.0</ele><time>2026-05-03T10:55:23.985Z</time></trkpt><trkpt lat="46.4178854" lon="12.5843181"><ele>873.9999999999999</ele><time>2026-05-03T10:55:27.985Z</time></trkpt><trkpt lat="46.4179362" lon="12.5842572"><ele>874.0</ele><time>2026-05-03T10:55:28.986Z</time></trkpt><trkpt lat="46.4179838" lon="12.5841776"><ele>875.0</ele><time>2026-05-03T10:55:29.986Z</time></trkpt><trkpt lat="46.4180352" lon="12.5840875"><ele>876.0000000000001</ele><time>2026-05-03T10:55:30.986Z</time></trkpt><trkpt lat="46.4180899" lon="12.5840188"><ele>877.0000000000001</ele><time>2026-05-03T10:55:31.986Z</time></trkpt><trkpt lat="46.4181529" lon="12.5839493"><ele>878.0</ele><time>2026-05-03T10:55:32.985Z</time></trkpt><trkpt lat="46.4182694" lon="12.5839015"><ele>879.0</ele><time>2026-05-03T10:55:33.986Z</time></trkpt><trkpt lat="46.4183711" lon="12.5838408"><ele>879.0</ele><time>2026-05-03T10:55:34.986Z</time></trkpt><trkpt lat="46.4184828" lon="12.583793"><ele>879.0</ele><time>2026-05-03T10:55:35.986Z</time></trkpt><trkpt lat="46.418591" lon="12.5837309"><ele>879.0</ele><time>2026-05-03T10:55:36.987Z</time></trkpt><trkpt lat="46.4187039" lon="12.5836725"><ele>879.0</ele><time>2026-05-03T10:55:37.985Z</time></trkpt><trkpt lat="46.4188161" lon="12.5836148"><ele>877.75</ele><time>2026-05-03T10:55:38.986Z</time></trkpt><trkpt lat="46.4189248" lon="12.5835598"><ele>876.5</ele><time>2026-05-03T10:55:39.985Z</time></trkpt><trkpt lat="46.4190321" lon="12.5835062"><ele>875.25</ele><time>2026-05-03T10:55:40.986Z</time></trkpt><trkpt lat="46.4191486" lon="12.5834463"><ele>874.0</ele><time>2026-05-03T10:55:41.986Z</time></trkpt><trkpt lat="46.4192795" lon="12.5833826"><ele>874.0</ele><time>2026-05-03T10:55:42.985Z</time></trkpt><trkpt lat="46.4194144" lon="12.5833139"><ele>874.0</ele><time>2026-05-03T10:55:43.985Z</time></trkpt><trkpt lat="46.4195506" lon="12.5832464"><ele>874.0</ele><time>2026-05-03T10:55:44.987Z</time></trkpt><trkpt lat="46.4196923" lon="12.5831791"><ele>874.0</ele><time>2026-05-03T10:55:45.985Z</time></trkpt><trkpt lat="46.4198374" lon="12.5831137"><ele>874.75</ele><time>2026-05-03T10:55:46.986Z</time></trkpt><trkpt lat="46.4199803" lon="12.5830488"><ele>875.5</ele><time>2026-05-03T10:55:47.986Z</time></trkpt><trkpt lat="46.4201247" lon="12.5829887"><ele>876.25</ele><time>2026-05-03T10:55:48.985Z</time></trkpt><trkpt lat="46.4202674" lon="12.5829307"><ele>877.0</ele><time>2026-05-03T10:55:49.986Z</time></trkpt><trkpt lat="46.4204085" lon="12.5828768"><ele>877.0</ele><time>2026-05-03T10:55:50.985Z</time></trkpt><trkpt lat="46.4205545" lon="12.5828221"><ele>877.0</ele><time>2026-05-03T10:55:51.986Z</time></trkpt><trkpt lat="46.4207035" lon="12.5827673"><ele>877.0</ele><time>2026-05-03T10:55:52.985Z</time></trkpt><trkpt lat="46.4208573" lon="12.5827136"><ele>877.0</ele><time>2026-05-03T10:55:53.986Z</time></trkpt><trkpt lat="46.4210121" lon="12.5826591"><ele>877.0</ele><time>2026-05-03T10:55:54.985Z</time></trkpt><trkpt lat="46.4211638" lon="12.5826073"><ele>877.0</ele><time>2026-05-03T10:55:55.986Z</time></trkpt><trkpt lat="46.4213113" lon="12.582551"><ele>880.0</ele><time>2026-05-03T10:55:56.986Z</time></trkpt><trkpt lat="46.421457" lon="12.5824936"><ele>883.0</ele><time>2026-05-03T10:55:57.985Z</time></trkpt><trkpt lat="46.4216036" lon="12.5824328"><ele>886.0</ele><time>2026-05-03T10:55:58.986Z</time></trkpt><trkpt lat="46.421753" lon="12.5823741"><ele>886.0</ele><time>2026-05-03T10:55:59.986Z</time></trkpt><trkpt lat="46.4219028" lon="12.5823228"><ele>886.0</ele><time>2026-05-03T10:56:00.985Z</time></trkpt><trkpt lat="46.422052" lon="12.5822768"><ele>886.0</ele><time>2026-05-03T10:56:01.986Z</time></trkpt><trkpt lat="46.4221998" lon="12.5822393"><ele>887.5</ele><time>2026-05-03T10:56:02.986Z</time></trkpt><trkpt lat="46.4223448" lon="12.5822005"><ele>889.0</ele><time>2026-05-03T10:56:03.987Z</time></trkpt><trkpt lat="46.4224879" lon="12.582164"><ele>890.5</ele><time>2026-05-03T10:56:04.986Z</time></trkpt><trkpt lat="46.4226295" lon="12.5821299"><ele>892.0</ele><time>2026-05-03T10:56:05.986Z</time></trkpt><trkpt lat="46.4227766" lon="12.5821001"><ele>892.0</ele><time>2026-05-03T10:56:06.985Z</time></trkpt><trkpt lat="46.422928" lon="12.5820717"><ele>892.0</ele><time>2026-05-03T10:56:07.986Z</time></trkpt><trkpt lat="46.4230781" lon="12.5820509"><ele>892.0</ele><time>2026-05-03T10:56:08.986Z</time></trkpt><trkpt lat="46.4232156" lon="12.5820304"><ele>892.0</ele><time>2026-05-03T10:56:09.987Z</time></trkpt><trkpt lat="46.4233415" lon="12.5820045"><ele>892.0</ele><time>2026-05-03T10:56:10.985Z</time></trkpt><trkpt lat="46.4234617" lon="12.5819792"><ele>892.0</ele><time>2026-05-03T10:56:11.986Z</time></trkpt><trkpt lat="46.4235647" lon="12.5818962"><ele>892.0</ele><time>2026-05-03T10:56:12.986Z</time></trkpt><trkpt lat="46.4236648" lon="12.5817942"><ele>892.0</ele><time>2026-05-03T10:56:13.986Z</time></trkpt><trkpt lat="46.4237375" lon="12.5816474"><ele>892.0</ele><time>2026-05-03T10:56:14.985Z</time></trkpt><trkpt lat="46.4237907" lon="12.5814769"><ele>892.0</ele><time>2026-05-03T10:56:15.987Z</time></trkpt><trkpt lat="46.4238255" lon="12.5812859"><ele>892.0</ele><time>2026-05-03T10:56:16.987Z</time></trkpt><trkpt lat="46.4238486" lon="12.5810739"><ele>892.0</ele><time>2026-05-03T10:56:17.986Z</time></trkpt><trkpt lat="46.4238666" lon="12.580851"><ele>893.0</ele><time>2026-05-03T10:56:18.986Z</time></trkpt><trkpt lat="46.423885" lon="12.5806275"><ele>894.0</ele><time>2026-05-03T10:56:19.986Z</time></trkpt><trkpt lat="46.4239031" lon="12.5804129"><ele>895.0</ele><time>2026-05-03T10:56:20.986Z</time></trkpt><trkpt lat="46.4239192" lon="12.580202"><ele>895.75</ele><time>2026-05-03T10:56:21.986Z</time></trkpt><trkpt lat="46.4239339" lon="12.5799901"><ele>896.5</ele><time>2026-05-03T10:56:22.986Z</time></trkpt><trkpt lat="46.4239496" lon="12.5797822"><ele>897.25</ele><time>2026-05-03T10:56:23.986Z</time></trkpt><trkpt lat="46.4239675" lon="12.5795777"><ele>898.0</ele><time>2026-05-03T10:56:24.986Z</time></trkpt><trkpt lat="46.4239847" lon="12.5793777"><ele>898.25</ele><time>2026-05-03T10:56:25.987Z</time></trkpt><trkpt lat="46.424" lon="12.5791846"><ele>898.5</ele><time>2026-05-03T10:56:26.986Z</time></trkpt><trkpt lat="46.4240159" lon="12.5789989"><ele>898.75</ele><time>2026-05-03T10:56:27.986Z</time></trkpt><trkpt lat="46.4240317" lon="12.5788172"><ele>899.0</ele><time>2026-05-03T10:56:28.985Z</time></trkpt><trkpt lat="46.4240512" lon="12.5786367"><ele>899.0</ele><time>2026-05-03T10:56:29.987Z</time></trkpt><trkpt lat="46.4240811" lon="12.5784557"><ele>899.0</ele><time>2026-05-03T10:56:30.987Z</time></trkpt><trkpt lat="46.4241291" lon="12.578274"><ele>899.0</ele><time>2026-05-03T10:56:31.986Z</time></trkpt><trkpt lat="46.4241955" lon="12.5780898"><ele>899.0</ele><time>2026-05-03T10:56:32.985Z</time></trkpt><trkpt lat="46.4242729" lon="12.5779028"><ele>899.0</ele><time>2026-05-03T10:56:33.986Z</time></trkpt><trkpt lat="46.4243523" lon="12.5777197"><ele>899.0</ele><time>2026-05-03T10:56:34.986Z</time></trkpt><trkpt lat="46.4244296" lon="12.577532"><ele>899.0</ele><time>2026-05-03T10:56:35.986Z</time></trkpt><trkpt lat="46.4245087" lon="12.5773441"><ele>899.0</ele><time>2026-05-03T10:56:36.986Z</time></trkpt><trkpt lat="46.4245884" lon="12.5771601"><ele>899.0</ele><time>2026-05-03T10:56:37.986Z</time></trkpt><trkpt lat="46.4246635" lon="12.5769759"><ele>899.0</ele><time>2026-05-03T10:56:38.986Z</time></trkpt><trkpt lat="46.4247258" lon="12.5767776"><ele>899.0</ele><time>2026-05-03T10:56:39.986Z</time></trkpt><trkpt lat="46.4247741" lon="12.5765744"><ele>901.0</ele><time>2026-05-03T10:56:40.986Z</time></trkpt><trkpt lat="46.4248121" lon="12.5763698"><ele>903.0</ele><time>2026-05-03T10:56:41.985Z</time></trkpt><trkpt lat="46.4248351" lon="12.5761531"><ele>905.0</ele><time>2026-05-03T10:56:42.986Z</time></trkpt><trkpt lat="46.4248451" lon="12.5759259"><ele>906.0</ele><time>2026-05-03T10:56:43.985Z</time></trkpt><trkpt lat="46.4248453" lon="12.5756891"><ele>907.0</ele><time>2026-05-03T10:56:44.987Z</time></trkpt><trkpt lat="46.4248412" lon="12.5754424"><ele>908.0</ele><time>2026-05-03T10:56:45.986Z</time></trkpt><trkpt lat="46.4248357" lon="12.5751885"><ele>910.0</ele><time>2026-05-03T10:56:46.986Z</time></trkpt><trkpt lat="46.4248287" lon="12.5749384"><ele>912.0</ele><time>2026-05-03T10:56:47.986Z</time></trkpt><trkpt lat="46.4248232" lon="12.5746905"><ele>914.0</ele><time>2026-05-03T10:56:48.986Z</time></trkpt><trkpt lat="46.4248199" lon="12.5744325"><ele>915.3333333333334</ele><time>2026-05-03T10:56:49.985Z</time></trkpt><trkpt lat="46.4248195" lon="12.5741733"><ele>916.6666666666667</ele><time>2026-05-03T10:56:50.986Z</time></trkpt><trkpt lat="46.4248201" lon="12.5739068"><ele>918.0</ele><time>2026-05-03T10:56:51.986Z</time></trkpt><trkpt lat="46.424822" lon="12.5736401"><ele>918.0</ele><time>2026-05-03T10:56:52.986Z</time></trkpt><trkpt lat="46.4248225" lon="12.5733705"><ele>918.0</ele><time>2026-05-03T10:56:53.986Z</time></trkpt><trkpt lat="46.4248229" lon="12.5730985"><ele>918.0</ele><time>2026-05-03T10:56:54.986Z</time></trkpt><trkpt lat="46.4248242" lon="12.5728279"><ele>917.6666666666667</ele><time>2026-05-03T10:56:55.985Z</time></trkpt><trkpt lat="46.4248244" lon="12.5725584"><ele>917.3333333333334</ele><time>2026-05-03T10:56:56.986Z</time></trkpt><trkpt lat="46.4248243" lon="12.5722942"><ele>917.0</ele><time>2026-05-03T10:56:57.987Z</time></trkpt><trkpt lat="46.4248261" lon="12.572032"><ele>917.3333333333334</ele><time>2026-05-03T10:56:58.986Z</time></trkpt><trkpt lat="46.4248271" lon="12.5717722"><ele>917.6666666666667</ele><time>2026-05-03T10:56:59.985Z</time></trkpt><trkpt lat="46.4248293" lon="12.5715257"><ele>918.0</ele><time>2026-05-03T10:57:00.986Z</time></trkpt><trkpt lat="46.4248322" lon="12.5712921"><ele>917.3333333333333</ele><time>2026-05-03T10:57:01.985Z</time></trkpt><trkpt lat="46.4248371" lon="12.5710634"><ele>916.6666666666666</ele><time>2026-05-03T10:57:02.986Z</time></trkpt><trkpt lat="46.4248564" lon="12.5708424"><ele>916.0</ele><time>2026-05-03T10:57:03.986Z</time></trkpt><trkpt lat="46.4248987" lon="12.5706277"><ele>916.0</ele><time>2026-05-03T10:57:04.985Z</time></trkpt><trkpt lat="46.4249668" lon="12.5704232"><ele>916.0</ele><time>2026-05-03T10:57:05.986Z</time></trkpt><trkpt lat="46.4250604" lon="12.5702317"><ele>916.0</ele><time>2026-05-03T10:57:06.985Z</time></trkpt><trkpt lat="46.4251664" lon="12.570041"><ele>916.0</ele><time>2026-05-03T10:57:07.986Z</time></trkpt><trkpt lat="46.4252785" lon="12.5698496"><ele>916.0</ele><time>2026-05-03T10:57:08.985Z</time></trkpt><trkpt lat="46.4253925" lon="12.5696564"><ele>916.0</ele><time>2026-05-03T10:57:09.986Z</time></trkpt><trkpt lat="46.4255042" lon="12.5694561"><ele>918.0</ele><time>2026-05-03T10:57:10.986Z</time></trkpt><trkpt lat="46.425615" lon="12.569257"><ele>920.0</ele><time>2026-05-03T10:57:11.986Z</time></trkpt><trkpt lat="46.4257237" lon="12.569061"><ele>922.0</ele><time>2026-05-03T10:57:12.986Z</time></trkpt><trkpt lat="46.4258303" lon="12.568866"><ele>921.0</ele><time>2026-05-03T10:57:13.986Z</time></trkpt><trkpt lat="46.4259309" lon="12.5686629"><ele>920.0</ele><time>2026-05-03T10:57:14.986Z</time></trkpt><trkpt lat="46.4260165" lon="12.5684439"><ele>919.0</ele><time>2026-05-03T10:57:15.985Z</time></trkpt><trkpt lat="46.426086" lon="12.568211"><ele>919.0</ele><time>2026-05-03T10:57:16.986Z</time></trkpt><trkpt lat="46.4261422" lon="12.5679702"><ele>919.0</ele><time>2026-05-03T10:57:17.985Z</time></trkpt><trkpt lat="46.4261856" lon="12.5677199"><ele>919.0</ele><time>2026-05-03T10:57:18.986Z</time></trkpt><trkpt lat="46.4262279" lon="12.5674664"><ele>918.3333333333333</ele><time>2026-05-03T10:57:19.986Z</time></trkpt><trkpt lat="46.4262735" lon="12.5672176"><ele>917.6666666666667</ele><time>2026-05-03T10:57:20.986Z</time></trkpt><trkpt lat="46.4263194" lon="12.5669725"><ele>917.0</ele><time>2026-05-03T10:57:21.986Z</time></trkpt><trkpt lat="46.4263637" lon="12.5667319"><ele>921.3333333333334</ele><time>2026-05-03T10:57:22.986Z</time></trkpt><trkpt lat="46.4264066" lon="12.5665031"><ele>925.6666666666667</ele><time>2026-05-03T10:57:23.986Z</time></trkpt><trkpt lat="46.4264476" lon="12.5662869"><ele>930.0</ele><time>2026-05-03T10:57:24.985Z</time></trkpt><trkpt lat="46.4265014" lon="12.5660692"><ele>930.0</ele><time>2026-05-03T10:57:25.986Z</time></trkpt><trkpt lat="46.4265849" lon="12.5658775"><ele>930.0</ele><time>2026-05-03T10:57:26.985Z</time></trkpt><trkpt lat="46.4266956" lon="12.5657159"><ele>930.0</ele><time>2026-05-03T10:57:27.986Z</time></trkpt><trkpt lat="46.4268065" lon="12.5655807"><ele>930.0</ele><time>2026-05-03T10:57:28.985Z</time></trkpt><trkpt lat="46.4269067" lon="12.5654392"><ele>930.0</ele><time>2026-05-03T10:57:29.986Z</time></trkpt><trkpt lat="46.4269798" lon="12.5652629"><ele>930.0</ele><time>2026-05-03T10:57:30.986Z</time></trkpt><trkpt lat="46.4270424" lon="12.5650767"><ele>930.0</ele><time>2026-05-03T10:57:31.985Z</time></trkpt><trkpt lat="46.4271296" lon="12.5649071"><ele>933.0</ele><time>2026-05-03T10:57:32.987Z</time></trkpt><trkpt lat="46.4272441" lon="12.5647686"><ele>936.0</ele><time>2026-05-03T10:57:33.986Z</time></trkpt><trkpt lat="46.4273629" lon="12.5646311"><ele>939.0</ele><time>2026-05-03T10:57:34.985Z</time></trkpt><trkpt lat="46.4274751" lon="12.5644638"><ele>939.0</ele><time>2026-05-03T10:57:35.986Z</time></trkpt><trkpt lat="46.4275772" lon="12.5642799"><ele>939.0</ele><time>2026-05-03T10:57:36.986Z</time></trkpt><trkpt lat="46.4276697" lon="12.5640964"><ele>939.0</ele><time>2026-05-03T10:57:37.986Z</time></trkpt><trkpt lat="46.4277646" lon="12.5639029"><ele>939.0</ele><time>2026-05-03T10:57:38.986Z</time></trkpt><trkpt lat="46.4278633" lon="12.5636975"><ele>939.0</ele><time>2026-05-03T10:57:39.986Z</time></trkpt><trkpt lat="46.4279642" lon="12.5634894"><ele>939.0</ele><time>2026-05-03T10:57:40.985Z</time></trkpt><trkpt lat="46.4280658" lon="12.5632786"><ele>942.0</ele><time>2026-05-03T10:57:41.986Z</time></trkpt><trkpt lat="46.4281679" lon="12.5630671"><ele>945.0</ele><time>2026-05-03T10:57:42.985Z</time></trkpt><trkpt lat="46.4282676" lon="12.5628459"><ele>948.0</ele><time>2026-05-03T10:57:43.986Z</time></trkpt><trkpt lat="46.4283526" lon="12.5626036"><ele>948.0</ele><time>2026-05-03T10:57:44.986Z</time></trkpt><trkpt lat="46.4284234" lon="12.5623476"><ele>948.0</ele><time>2026-05-03T10:57:45.985Z</time></trkpt><trkpt lat="46.4284858" lon="12.5621027"><ele>948.0</ele><time>2026-05-03T10:57:46.987Z</time></trkpt><trkpt lat="46.4285548" lon="12.5618781"><ele>947.0</ele><time>2026-05-03T10:57:47.986Z</time></trkpt><trkpt lat="46.4286448" lon="12.5616854"><ele>946.0</ele><time>2026-05-03T10:57:48.986Z</time></trkpt><trkpt lat="46.4287608" lon="12.5615238"><ele>945.0</ele><time>2026-05-03T10:57:49.986Z</time></trkpt><trkpt lat="46.4288913" lon="12.5613705"><ele>948.3333333333333</ele><time>2026-05-03T10:57:50.987Z</time></trkpt><trkpt lat="46.4290313" lon="12.5612142"><ele>951.6666666666666</ele><time>2026-05-03T10:57:51.987Z</time></trkpt><trkpt lat="46.4291697" lon="12.5610554"><ele>955.0</ele><time>2026-05-03T10:57:52.986Z</time></trkpt><trkpt lat="46.4293043" lon="12.5608859"><ele>955.0</ele><time>2026-05-03T10:57:53.986Z</time></trkpt><trkpt lat="46.4294271" lon="12.5606846"><ele>955.0</ele><time>2026-05-03T10:57:54.986Z</time></trkpt><trkpt lat="46.429533" lon="12.5604561"><ele>955.0</ele><time>2026-05-03T10:57:55.986Z</time></trkpt><trkpt lat="46.4296301" lon="12.5602225"><ele>958.3333333333333</ele><time>2026-05-03T10:57:56.986Z</time></trkpt><trkpt lat="46.4297261" lon="12.5599836"><ele>961.6666666666667</ele><time>2026-05-03T10:57:57.985Z</time></trkpt><trkpt lat="46.4298235" lon="12.5597394"><ele>965.0</ele><time>2026-05-03T10:57:58.986Z</time></trkpt><trkpt lat="46.4299203" lon="12.5594926"><ele>965.0</ele><time>2026-05-03T10:57:59.985Z</time></trkpt><trkpt lat="46.4300119" lon="12.5592584"><ele>965.0</ele><time>2026-05-03T10:58:00.986Z</time></trkpt><trkpt lat="46.4300964" lon="12.5590228"><ele>965.0</ele><time>2026-05-03T10:58:01.986Z</time></trkpt><trkpt lat="46.4301689" lon="12.5587938"><ele>961.75</ele><time>2026-05-03T10:58:02.985Z</time></trkpt><trkpt lat="46.4302361" lon="12.558576"><ele>958.5</ele><time>2026-05-03T10:58:03.986Z</time></trkpt><trkpt lat="46.4302988" lon="12.5583799"><ele>955.25</ele><time>2026-05-03T10:58:04.986Z</time></trkpt><trkpt lat="46.4303587" lon="12.5582102"><ele>952.0</ele><time>2026-05-03T10:58:05.986Z</time></trkpt><trkpt lat="46.4304334" lon="12.5580705"><ele>952.75</ele><time>2026-05-03T10:58:06.986Z</time></trkpt><trkpt lat="46.430531" lon="12.5579636"><ele>953.5</ele><time>2026-05-03T10:58:07.986Z</time></trkpt><trkpt lat="46.4306356" lon="12.5578571"><ele>954.25</ele><time>2026-05-03T10:58:08.986Z</time></trkpt><trkpt lat="46.4307954" lon="12.5578847"><ele>955.0</ele><time>2026-05-03T10:58:09.986Z</time></trkpt><trkpt lat="46.4309343" lon="12.5578736"><ele>955.0</ele><time>2026-05-03T10:58:10.986Z</time></trkpt><trkpt lat="46.4310764" lon="12.5578657"><ele>955.0</ele><time>2026-05-03T10:58:11.986Z</time></trkpt><trkpt lat="46.4312145" lon="12.5578152"><ele>955.0</ele><time>2026-05-03T10:58:12.986Z</time></trkpt><trkpt lat="46.4313543" lon="12.5577251"><ele>955.0</ele><time>2026-05-03T10:58:13.986Z</time></trkpt><trkpt lat="46.4314899" lon="12.5576062"><ele>958.25</ele><time>2026-05-03T10:58:14.987Z</time></trkpt><trkpt lat="46.4316142" lon="12.5574798"><ele>961.5</ele><time>2026-05-03T10:58:15.985Z</time></trkpt><trkpt lat="46.4317286" lon="12.5573587"><ele>964.75</ele><time>2026-05-03T10:58:16.985Z</time></trkpt><trkpt lat="46.4318282" lon="12.5572394"><ele>968.0</ele><time>2026-05-03T10:58:17.985Z</time></trkpt><trkpt lat="46.4319047" lon="12.5571045"><ele>966.5</ele><time>2026-05-03T10:58:18.985Z</time></trkpt><trkpt lat="46.4319466" lon="12.5569433"><ele>965.0</ele><time>2026-05-03T10:58:19.985Z</time></trkpt><trkpt lat="46.4319512" lon="12.5567564"><ele>963.5</ele><time>2026-05-03T10:58:20.986Z</time></trkpt><trkpt lat="46.4319098" lon="12.556565"><ele>962.0</ele><time>2026-05-03T10:58:21.986Z</time></trkpt><trkpt lat="46.4318469" lon="12.5563692"><ele>963.5</ele><time>2026-05-03T10:58:22.986Z</time></trkpt><trkpt lat="46.431802" lon="12.5561579"><ele>965.0</ele><time>2026-05-03T10:58:23.987Z</time></trkpt><trkpt lat="46.4317815" lon="12.5559532"><ele>966.5</ele><time>2026-05-03T10:58:24.986Z</time></trkpt><trkpt lat="46.431761" lon="12.5557637"><ele>968.0</ele><time>2026-05-03T10:58:25.985Z</time></trkpt><trkpt lat="46.4317035" lon="12.5555798"><ele>968.0</ele><time>2026-05-03T10:58:26.986Z</time></trkpt><trkpt lat="46.4316209" lon="12.5554068"><ele>968.0</ele><time>2026-05-03T10:58:27.986Z</time></trkpt><trkpt lat="46.4315453" lon="12.5552339"><ele>968.0</ele><time>2026-05-03T10:58:28.986Z</time></trkpt><trkpt lat="46.4314999" lon="12.5550425"><ele>968.0</ele><time>2026-05-03T10:58:29.986Z</time></trkpt><trkpt lat="46.431485" lon="12.5548328"><ele>971.0</ele><time>2026-05-03T10:58:30.986Z</time></trkpt><trkpt lat="46.4314717" lon="12.5546114"><ele>974.0</ele><time>2026-05-03T10:58:31.987Z</time></trkpt><trkpt lat="46.4314617" lon="12.5543994"><ele>977.0</ele><time>2026-05-03T10:58:32.986Z</time></trkpt><trkpt lat="46.4314374" lon="12.554203"><ele>980.0</ele><time>2026-05-03T10:58:33.985Z</time></trkpt><trkpt lat="46.4313951" lon="12.5540217"><ele>981.0</ele><time>2026-05-03T10:58:34.986Z</time></trkpt><trkpt lat="46.431366" lon="12.5538476"><ele>982.0</ele><time>2026-05-03T10:58:35.986Z</time></trkpt><trkpt lat="46.4313806" lon="12.5536766"><ele>983.0</ele><time>2026-05-03T10:58:36.986Z</time></trkpt><trkpt lat="46.4314317" lon="12.5535133"><ele>984.0</ele><time>2026-05-03T10:58:37.985Z</time></trkpt><trkpt lat="46.4315119" lon="12.5533569"><ele>981.25</ele><time>2026-05-03T10:58:38.986Z</time></trkpt><trkpt lat="46.4316137" lon="12.5532288"><ele>978.5</ele><time>2026-05-03T10:58:39.986Z</time></trkpt><trkpt lat="46.4317179" lon="12.5531126"><ele>975.75</ele><time>2026-05-03T10:58:40.985Z</time></trkpt><trkpt lat="46.4318" lon="12.5529866"><ele>973.0</ele><time>2026-05-03T10:58:41.985Z</time></trkpt><trkpt lat="46.4318551" lon="12.5528371"><ele>970.75</ele><time>2026-05-03T10:58:42.985Z</time></trkpt><trkpt lat="46.4318825" lon="12.5526539"><ele>968.5</ele><time>2026-05-03T10:58:43.985Z</time></trkpt><trkpt lat="46.4318878" lon="12.552449"><ele>966.25</ele><time>2026-05-03T10:58:44.985Z</time></trkpt><trkpt lat="46.4318857" lon="12.5522343"><ele>964.0</ele><time>2026-05-03T10:58:45.986Z</time></trkpt><trkpt lat="46.431882" lon="12.5520231"><ele>963.0</ele><time>2026-05-03T10:58:46.986Z</time></trkpt><trkpt lat="46.4318805" lon="12.5518225"><ele>962.0</ele><time>2026-05-03T10:58:47.987Z</time></trkpt><trkpt lat="46.4318892" lon="12.5516327"><ele>961.0</ele><time>2026-05-03T10:58:48.986Z</time></trkpt><trkpt lat="46.4319163" lon="12.5514479"><ele>960.0</ele><time>2026-05-03T10:58:49.985Z</time></trkpt><trkpt lat="46.4319627" lon="12.5512722"><ele>959.75</ele><time>2026-05-03T10:58:50.986Z</time></trkpt><trkpt lat="46.4320247" lon="12.5511057"><ele>959.5</ele><time>2026-05-03T10:58:51.985Z</time></trkpt><trkpt lat="46.4320985" lon="12.5509538"><ele>959.25</ele><time>2026-05-03T10:58:52.985Z</time></trkpt><trkpt lat="46.4321827" lon="12.5508233"><ele>959.0</ele><time>2026-05-03T10:58:53.985Z</time></trkpt><trkpt lat="46.432274" lon="12.5507178"><ele>961.0</ele><time>2026-05-03T10:58:54.986Z</time></trkpt><trkpt lat="46.4323827" lon="12.5506343"><ele>963.0</ele><time>2026-05-03T10:58:55.986Z</time></trkpt><trkpt lat="46.4325009" lon="12.5505688"><ele>965.0</ele><time>2026-05-03T10:58:56.986Z</time></trkpt><trkpt lat="46.4326232" lon="12.5505045"><ele>967.0</ele><time>2026-05-03T10:58:57.986Z</time></trkpt><trkpt lat="46.4327346" lon="12.5504426"><ele>967.0</ele><time>2026-05-03T10:58:58.986Z</time></trkpt><trkpt lat="46.4328426" lon="12.5503779"><ele>967.0</ele><time>2026-05-03T10:58:59.986Z</time></trkpt><trkpt lat="46.4329447" lon="12.5503086"><ele>967.0</ele><time>2026-05-03T10:59:00.987Z</time></trkpt><trkpt lat="46.4330431" lon="12.5502281"><ele>967.0</ele><time>2026-05-03T10:59:01.986Z</time></trkpt><trkpt lat="46.4331343" lon="12.5501258"><ele>968.25</ele><time>2026-05-03T10:59:02.986Z</time></trkpt><trkpt lat="46.433224" lon="12.5500168"><ele>969.5</ele><time>2026-05-03T10:59:03.985Z</time></trkpt><trkpt lat="46.4333122" lon="12.5499053"><ele>970.75</ele><time>2026-05-03T10:59:04.985Z</time></trkpt><trkpt lat="46.4334015" lon="12.5497814"><ele>972.0</ele><time>2026-05-03T10:59:05.985Z</time></trkpt><trkpt lat="46.4334937" lon="12.5496583"><ele>970.75</ele><time>2026-05-03T10:59:06.985Z</time></trkpt><trkpt lat="46.4335879" lon="12.5495329"><ele>969.5</ele><time>2026-05-03T10:59:07.986Z</time></trkpt><trkpt lat="46.4336823" lon="12.549406"><ele>968.25</ele><time>2026-05-03T10:59:08.986Z</time></trkpt><trkpt lat="46.4337704" lon="12.5492748"><ele>967.0</ele><time>2026-05-03T10:59:09.985Z</time></trkpt><trkpt lat="46.4338476" lon="12.5491219"><ele>970.75</ele><time>2026-05-03T10:59:10.985Z</time></trkpt><trkpt lat="46.433913" lon="12.5489529"><ele>974.5</ele><time>2026-05-03T10:59:11.985Z</time></trkpt><trkpt lat="46.4339707" lon="12.5487697"><ele>978.25</ele><time>2026-05-03T10:59:12.985Z</time></trkpt><trkpt lat="46.4340217" lon="12.5485844"><ele>982.0</ele><time>2026-05-03T10:59:13.985Z</time></trkpt><trkpt lat="46.4340691" lon="12.5483962"><ele>982.0</ele><time>2026-05-03T10:59:14.986Z</time></trkpt><trkpt lat="46.4341158" lon="12.5482153"><ele>982.0</ele><time>2026-05-03T10:59:15.985Z</time></trkpt><trkpt lat="46.4341683" lon="12.5480335"><ele>982.0</ele><time>2026-05-03T10:59:16.985Z</time></trkpt><trkpt lat="46.4342336" lon="12.5478523"><ele>982.0</ele><time>2026-05-03T10:59:17.986Z</time></trkpt><trkpt lat="46.4343024" lon="12.5476751"><ele>980.0</ele><time>2026-05-03T10:59:18.986Z</time></trkpt><trkpt lat="46.4343731" lon="12.5474968"><ele>978.0</ele><time>2026-05-03T10:59:19.986Z</time></trkpt><trkpt lat="46.4344543" lon="12.5473263"><ele>976.0</ele><time>2026-05-03T10:59:20.986Z</time></trkpt><trkpt lat="46.434544" lon="12.5471667"><ele>974.0</ele><time>2026-05-03T10:59:21.986Z</time></trkpt><trkpt lat="46.4346351" lon="12.547006"><ele>976.0</ele><time>2026-05-03T10:59:22.986Z</time></trkpt><trkpt lat="46.4347261" lon="12.5468501"><ele>978.0</ele><time>2026-05-03T10:59:23.985Z</time></trkpt><trkpt lat="46.4348132" lon="12.5467081"><ele>980.0</ele><time>2026-05-03T10:59:24.987Z</time></trkpt><trkpt lat="46.4348957" lon="12.546582"><ele>982.0</ele><time>2026-05-03T10:59:25.986Z</time></trkpt><trkpt lat="46.4349827" lon="12.5464719"><ele>982.0</ele><time>2026-05-03T10:59:26.987Z</time></trkpt><trkpt lat="46.4350739" lon="12.5463783"><ele>982.0</ele><time>2026-05-03T10:59:27.985Z</time></trkpt><trkpt lat="46.4351709" lon="12.5463045"><ele>982.0</ele><time>2026-05-03T10:59:28.986Z</time></trkpt><trkpt lat="46.4352813" lon="12.546249"><ele>982.0</ele><time>2026-05-03T10:59:29.985Z</time></trkpt><trkpt lat="46.4353985" lon="12.546207"><ele>984.5</ele><time>2026-05-03T10:59:30.986Z</time></trkpt><trkpt lat="46.4355218" lon="12.5461724"><ele>987.0</ele><time>2026-05-03T10:59:31.985Z</time></trkpt><trkpt lat="46.4356382" lon="12.5461219"><ele>989.5</ele><time>2026-05-03T10:59:32.986Z</time></trkpt><trkpt lat="46.4357507" lon="12.5460524"><ele>992.0</ele><time>2026-05-03T10:59:33.986Z</time></trkpt><trkpt lat="46.4358551" lon="12.5459516"><ele>992.0</ele><time>2026-05-03T10:59:34.986Z</time></trkpt><trkpt lat="46.4359518" lon="12.5458284"><ele>992.0</ele><time>2026-05-03T10:59:35.986Z</time></trkpt><trkpt lat="46.4360418" lon="12.5456986"><ele>992.0</ele><time>2026-05-03T10:59:36.985Z</time></trkpt><trkpt lat="46.4361282" lon="12.5455649"><ele>992.0</ele><time>2026-05-03T10:59:37.986Z</time></trkpt><trkpt lat="46.4362097" lon="12.5454468"><ele>992.75</ele><time>2026-05-03T10:59:38.986Z</time></trkpt><trkpt lat="46.4362967" lon="12.5453381"><ele>993.5</ele><time>2026-05-03T10:59:39.985Z</time></trkpt><trkpt lat="46.4363966" lon="12.5452478"><ele>994.25</ele><time>2026-05-03T10:59:40.987Z</time></trkpt><trkpt lat="46.4365017" lon="12.5451782"><ele>995.0</ele><time>2026-05-03T10:59:41.986Z</time></trkpt><trkpt lat="46.4366117" lon="12.545136"><ele>995.0</ele><time>2026-05-03T10:59:42.986Z</time></trkpt><trkpt lat="46.4367247" lon="12.5451128"><ele>995.0</ele><time>2026-05-03T10:59:43.987Z</time></trkpt><trkpt lat="46.4368315" lon="12.5451072"><ele>995.0</ele><time>2026-05-03T10:59:44.985Z</time></trkpt><trkpt lat="46.4369405" lon="12.5451109"><ele>995.0</ele><time>2026-05-03T10:59:45.986Z</time></trkpt><trkpt lat="46.4370528" lon="12.5451085"><ele>995.0</ele><time>2026-05-03T10:59:46.985Z</time></trkpt><trkpt lat="46.4371617" lon="12.5450971"><ele>997.75</ele><time>2026-05-03T10:59:47.985Z</time></trkpt><trkpt lat="46.4372751" lon="12.5450663"><ele>1000.5</ele><time>2026-05-03T10:59:48.986Z</time></trkpt><trkpt lat="46.4373908" lon="12.545013"><ele>1003.25</ele><time>2026-05-03T10:59:49.986Z</time></trkpt><trkpt lat="46.4375008" lon="12.5449586"><ele>1006.0</ele><time>2026-05-03T10:59:50.986Z</time></trkpt><trkpt lat="46.4376057" lon="12.5449083"><ele>1006.0</ele><time>2026-05-03T10:59:51.986Z</time></trkpt><trkpt lat="46.4377066" lon="12.5448636"><ele>1005.9999999999999</ele><time>2026-05-03T10:59:52.986Z</time></trkpt><trkpt lat="46.4378031" lon="12.5448217"><ele>1005.9999999999999</ele><time>2026-05-03T10:59:53.985Z</time></trkpt><trkpt lat="46.4379014" lon="12.5447871"><ele>1006.0</ele><time>2026-05-03T10:59:54.986Z</time></trkpt><trkpt lat="46.4380119" lon="12.5447688"><ele>1006.0</ele><time>2026-05-03T10:59:55.986Z</time></trkpt><trkpt lat="46.4381269" lon="12.5447734"><ele>1010.5</ele><time>2026-05-03T10:59:56.985Z</time></trkpt><trkpt lat="46.4382407" lon="12.5447863"><ele>1015.0</ele><time>2026-05-03T10:59:57.986Z</time></trkpt><trkpt lat="46.4383577" lon="12.5447993"><ele>1019.5</ele><time>2026-05-03T10:59:58.986Z</time></trkpt><trkpt lat="46.438478" lon="12.5447856"><ele>1024.0</ele><time>2026-05-03T10:59:59.987Z</time></trkpt><trkpt lat="46.4385956" lon="12.5447402"><ele>1024.0</ele><time>2026-05-03T11:00:00.985Z</time></trkpt><trkpt lat="46.4387077" lon="12.5446781"><ele>1024.0</ele><time>2026-05-03T11:00:01.986Z</time></trkpt><trkpt lat="46.4388177" lon="12.5446157"><ele>1024.0</ele><time>2026-05-03T11:00:02.985Z</time></trkpt><trkpt lat="46.4389226" lon="12.5445593"><ele>1024.0</ele><time>2026-05-03T11:00:03.985Z</time></trkpt><trkpt lat="46.4390234" lon="12.5445233"><ele>1021.0</ele><time>2026-05-03T11:00:04.985Z</time></trkpt><trkpt lat="46.4391197" lon="12.5444976"><ele>1018.0000000000001</ele><time>2026-05-03T11:00:05.986Z</time></trkpt><trkpt lat="46.4392107" lon="12.5444548"><ele>1015.0000000000001</ele><time>2026-05-03T11:00:06.985Z</time></trkpt><trkpt lat="46.4392945" lon="12.5443947"><ele>1012.0</ele><time>2026-05-03T11:00:07.985Z</time></trkpt><trkpt lat="46.4393673" lon="12.5443152"><ele>1009.0</ele><time>2026-05-03T11:00:08.986Z</time></trkpt><trkpt lat="46.4394361" lon="12.5442216"><ele>1008.9999999999999</ele><time>2026-05-03T11:00:09.986Z</time></trkpt><trkpt lat="46.4395054" lon="12.5441372"><ele>1009.0</ele><time>2026-05-03T11:00:10.986Z</time></trkpt><trkpt lat="46.4395746" lon="12.5440688"><ele>1009.0</ele><time>2026-05-03T11:00:11.986Z</time></trkpt><trkpt lat="46.4396401" lon="12.5440129"><ele>1009.0</ele><time>2026-05-03T11:00:12.985Z</time></trkpt><trkpt lat="46.4397047" lon="12.5439638"><ele>1008.9999999999999</ele><time>2026-05-03T11:00:13.986Z</time></trkpt><trkpt lat="46.4397695" lon="12.54392"><ele>1009.0</ele><time>2026-05-03T11:00:14.986Z</time></trkpt><trkpt lat="46.4398319" lon="12.543878"><ele>1009.1666666666666</ele><time>2026-05-03T11:00:15.986Z</time></trkpt><trkpt lat="46.4398964" lon="12.5438378"><ele>1009.3333333333333</ele><time>2026-05-03T11:00:16.985Z</time></trkpt><trkpt lat="46.4399605" lon="12.5438007"><ele>1009.5</ele><time>2026-05-03T11:00:17.985Z</time></trkpt><trkpt lat="46.4400277" lon="12.543755"><ele>1009.6666666666667</ele><time>2026-05-03T11:00:18.986Z</time></trkpt><trkpt lat="46.4400983" lon="12.5437023"><ele>1009.8333333333334</ele><time>2026-05-03T11:00:19.985Z</time></trkpt><trkpt lat="46.4401621" lon="12.543632"><ele>1010.0</ele><time>2026-05-03T11:00:20.986Z</time></trkpt><trkpt lat="46.4402139" lon="12.5435445"><ele>1010.0</ele><time>2026-05-03T11:00:21.985Z</time></trkpt><trkpt lat="46.4402667" lon="12.543444"><ele>1010.0</ele><time>2026-05-03T11:00:22.987Z</time></trkpt><trkpt lat="46.4403248" lon="12.5433438"><ele>1010.0</ele><time>2026-05-03T11:00:23.985Z</time></trkpt><trkpt lat="46.4403975" lon="12.5432588"><ele>1010.0</ele><time>2026-05-03T11:00:24.986Z</time></trkpt><trkpt lat="46.4404856" lon="12.5431949"><ele>1010.0</ele><time>2026-05-03T11:00:25.985Z</time></trkpt><trkpt lat="46.4405832" lon="12.5431445"><ele>1011.25</ele><time>2026-05-03T11:00:26.986Z</time></trkpt><trkpt lat="46.4406863" lon="12.5430884"><ele>1012.5</ele><time>2026-05-03T11:00:27.987Z</time></trkpt><trkpt lat="46.4407893" lon="12.5430315"><ele>1013.75</ele><time>2026-05-03T11:00:28.985Z</time></trkpt><trkpt lat="46.4408992" lon="12.5429638"><ele>1015.0</ele><time>2026-05-03T11:00:29.985Z</time></trkpt><trkpt lat="46.4410098" lon="12.5428807"><ele>1015.0</ele><time>2026-05-03T11:00:30.987Z</time></trkpt><trkpt lat="46.4411157" lon="12.5427748"><ele>1015.0</ele><time>2026-05-03T11:00:31.986Z</time></trkpt><trkpt lat="46.4412234" lon="12.5426573"><ele>1015.0</ele><time>2026-05-03T11:00:32.986Z</time></trkpt><trkpt lat="46.4413399" lon="12.5425351"><ele>1015.0</ele><time>2026-05-03T11:00:33.986Z</time></trkpt><trkpt lat="46.441461" lon="12.5424186"><ele>1020.0</ele><time>2026-05-03T11:00:34.985Z</time></trkpt><trkpt lat="46.4415838" lon="12.5423166"><ele>1025.0</ele><time>2026-05-03T11:00:35.986Z</time></trkpt><trkpt lat="46.4417121" lon="12.5422201"><ele>1030.0</ele><time>2026-05-03T11:00:36.985Z</time></trkpt><trkpt lat="46.4418487" lon="12.5421287"><ele>1035.0</ele><time>2026-05-03T11:00:37.984Z</time></trkpt><trkpt lat="46.4419929" lon="12.542049"><ele>1036.3333333333333</ele><time>2026-05-03T11:00:38.985Z</time></trkpt><trkpt lat="46.4421466" lon="12.5419755"><ele>1037.6666666666665</ele><time>2026-05-03T11:00:39.985Z</time></trkpt><trkpt lat="46.4423046" lon="12.5419062"><ele>1039.0</ele><time>2026-05-03T11:00:40.985Z</time></trkpt><trkpt lat="46.4424637" lon="12.5418355"><ele>1039.0</ele><time>2026-05-03T11:00:41.985Z</time></trkpt><trkpt lat="46.4426201" lon="12.5417655"><ele>1039.0</ele><time>2026-05-03T11:00:42.985Z</time></trkpt><trkpt lat="46.4427698" lon="12.5416961"><ele>1039.0</ele><time>2026-05-03T11:00:43.985Z</time></trkpt><trkpt lat="46.4429139" lon="12.5416307"><ele>1039.25</ele><time>2026-05-03T11:00:44.984Z</time></trkpt><trkpt lat="46.44305" lon="12.5415527"><ele>1039.5</ele><time>2026-05-03T11:00:45.985Z</time></trkpt><trkpt lat="46.4431667" lon="12.5414473"><ele>1039.75</ele><time>2026-05-03T11:00:46.985Z</time></trkpt><trkpt lat="46.4432641" lon="12.5413071"><ele>1040.0</ele><time>2026-05-03T11:00:47.985Z</time></trkpt><trkpt lat="46.4433415" lon="12.5411311"><ele>1040.0</ele><time>2026-05-03T11:00:48.985Z</time></trkpt><trkpt lat="46.4434208" lon="12.5409424"><ele>1040.0</ele><time>2026-05-03T11:00:49.984Z</time></trkpt><trkpt lat="46.4435107" lon="12.540765"><ele>1040.0</ele><time>2026-05-03T11:00:50.985Z</time></trkpt><trkpt lat="46.4436193" lon="12.540594"><ele>1040.0</ele><time>2026-05-03T11:00:51.984Z</time></trkpt><trkpt lat="46.4437331" lon="12.5404227"><ele>1040.0</ele><time>2026-05-03T11:00:52.984Z</time></trkpt><trkpt lat="46.4438499" lon="12.5402538"><ele>1040.0</ele><time>2026-05-03T11:00:53.986Z</time></trkpt><trkpt lat="46.443964" lon="12.5400905"><ele>1042.25</ele><time>2026-05-03T11:00:54.985Z</time></trkpt><trkpt lat="46.4440721" lon="12.539935"><ele>1044.5</ele><time>2026-05-03T11:00:55.984Z</time></trkpt><trkpt lat="46.4441626" lon="12.5397719"><ele>1046.75</ele><time>2026-05-03T11:00:56.984Z</time></trkpt><trkpt lat="46.4442307" lon="12.5395856"><ele>1049.0</ele><time>2026-05-03T11:00:57.985Z</time></trkpt><trkpt lat="46.444271" lon="12.5393847"><ele>1049.0</ele><time>2026-05-03T11:00:58.985Z</time></trkpt><trkpt lat="46.4442909" lon="12.5391718"><ele>1049.0</ele><time>2026-05-03T11:00:59.985Z</time></trkpt><trkpt lat="46.4442994" lon="12.5389486"><ele>1049.0</ele><time>2026-05-03T11:01:00.985Z</time></trkpt><trkpt lat="46.4443026" lon="12.5387252"><ele>1048.25</ele><time>2026-05-03T11:01:01.984Z</time></trkpt><trkpt lat="46.4443102" lon="12.5385189"><ele>1047.5</ele><time>2026-05-03T11:01:02.985Z</time></trkpt><trkpt lat="46.4443413" lon="12.5383321"><ele>1046.75</ele><time>2026-05-03T11:01:03.984Z</time></trkpt><trkpt lat="46.4443958" lon="12.5381754"><ele>1046.0</ele><time>2026-05-03T11:01:04.984Z</time></trkpt><trkpt lat="46.444475" lon="12.5380573"><ele>1046.0</ele><time>2026-05-03T11:01:05.985Z</time></trkpt><trkpt lat="46.4445692" lon="12.5379465"><ele>1046.0</ele><time>2026-05-03T11:01:06.985Z</time></trkpt><trkpt lat="46.4446701" lon="12.5378322"><ele>1046.0</ele><time>2026-05-03T11:01:07.985Z</time></trkpt><trkpt lat="46.4447799" lon="12.5377159"><ele>1046.0</ele><time>2026-05-03T11:01:08.985Z</time></trkpt><trkpt lat="46.4449011" lon="12.5375984"><ele>1048.3333333333335</ele><time>2026-05-03T11:01:09.985Z</time></trkpt><trkpt lat="46.4450358" lon="12.5374855"><ele>1050.6666666666667</ele><time>2026-05-03T11:01:10.985Z</time></trkpt><trkpt lat="46.4451804" lon="12.5373762"><ele>1053.0</ele><time>2026-05-03T11:01:11.985Z</time></trkpt><trkpt lat="46.4453264" lon="12.5372655"><ele>1056.3333333333333</ele><time>2026-05-03T11:01:12.985Z</time></trkpt><trkpt lat="46.4454735" lon="12.53716"><ele>1059.6666666666665</ele><time>2026-05-03T11:01:13.985Z</time></trkpt><trkpt lat="46.4456172" lon="12.5370545"><ele>1063.0</ele><time>2026-05-03T11:01:14.985Z</time></trkpt><trkpt lat="46.4457481" lon="12.5369577"><ele>1063.0</ele><time>2026-05-03T11:01:15.984Z</time></trkpt><trkpt lat="46.4458636" lon="12.5368616"><ele>1063.0</ele><time>2026-05-03T11:01:16.985Z</time></trkpt><trkpt lat="46.4459612" lon="12.5367569"><ele>1063.0</ele><time>2026-05-03T11:01:17.984Z</time></trkpt><trkpt lat="46.446042" lon="12.5366271"><ele>1063.0</ele><time>2026-05-03T11:01:18.985Z</time></trkpt><trkpt lat="46.4461021" lon="12.5364619"><ele>1063.0</ele><time>2026-05-03T11:01:19.985Z</time></trkpt><trkpt lat="46.4461779" lon="12.5362965"><ele>1063.0</ele><time>2026-05-03T11:01:20.986Z</time></trkpt><trkpt lat="46.4462754" lon="12.536159"><ele>1063.0</ele><time>2026-05-03T11:01:21.985Z</time></trkpt><trkpt lat="46.4463774" lon="12.5360178"><ele>1063.0</ele><time>2026-05-03T11:01:22.984Z</time></trkpt><trkpt lat="46.4464644" lon="12.53584"><ele>1067.3333333333333</ele><time>2026-05-03T11:01:23.984Z</time></trkpt><trkpt lat="46.446552" lon="12.5356506"><ele>1071.6666666666667</ele><time>2026-05-03T11:01:24.984Z</time></trkpt><trkpt lat="46.4466358" lon="12.535462"><ele>1076.0</ele><time>2026-05-03T11:01:25.985Z</time></trkpt><trkpt lat="46.4467045" lon="12.5352661"><ele>1076.0</ele><time>2026-05-03T11:01:26.985Z</time></trkpt><trkpt lat="46.4467566" lon="12.5350537"><ele>1076.0</ele><time>2026-05-03T11:01:27.985Z</time></trkpt><trkpt lat="46.4468131" lon="12.5348443"><ele>1076.0</ele><time>2026-05-03T11:01:28.985Z</time></trkpt><trkpt lat="46.4468969" lon="12.534656"><ele>1077.6666666666667</ele><time>2026-05-03T11:01:29.984Z</time></trkpt><trkpt lat="46.4469986" lon="12.5344739"><ele>1079.3333333333333</ele><time>2026-05-03T11:01:30.985Z</time></trkpt><trkpt lat="46.4470902" lon="12.5342828"><ele>1081.0</ele><time>2026-05-03T11:01:31.985Z</time></trkpt><trkpt lat="46.4471384" lon="12.5340649"><ele>1081.0</ele><time>2026-05-03T11:01:32.984Z</time></trkpt><trkpt lat="46.447202" lon="12.533868"><ele>1081.0</ele><time>2026-05-03T11:01:33.985Z</time></trkpt><trkpt lat="46.4472727" lon="12.5336781"><ele>1081.0</ele><time>2026-05-03T11:01:34.986Z</time></trkpt><trkpt lat="46.4473614" lon="12.533491"><ele>1081.0</ele><time>2026-05-03T11:01:35.984Z</time></trkpt><trkpt lat="46.4474506" lon="12.5333132"><ele>1081.0</ele><time>2026-05-03T11:01:36.984Z</time></trkpt><trkpt lat="46.4475392" lon="12.5331351"><ele>1081.0</ele><time>2026-05-03T11:01:37.985Z</time></trkpt><trkpt lat="46.4476316" lon="12.5329623"><ele>1082.0</ele><time>2026-05-03T11:01:38.984Z</time></trkpt><trkpt lat="46.4477232" lon="12.5327905"><ele>1083.0</ele><time>2026-05-03T11:01:39.984Z</time></trkpt><trkpt lat="46.4478132" lon="12.5326159"><ele>1084.0</ele><time>2026-05-03T11:01:40.985Z</time></trkpt><trkpt lat="46.4478981" lon="12.5324542"><ele>1085.0</ele><time>2026-05-03T11:01:41.985Z</time></trkpt><trkpt lat="46.4479865" lon="12.5323096"><ele>1087.75</ele><time>2026-05-03T11:01:42.985Z</time></trkpt><trkpt lat="46.4480949" lon="12.5321862"><ele>1090.5</ele><time>2026-05-03T11:01:43.986Z</time></trkpt><trkpt lat="46.4481972" lon="12.5320736"><ele>1093.25</ele><time>2026-05-03T11:01:44.986Z</time></trkpt><trkpt lat="46.4482784" lon="12.5319257"><ele>1096.0</ele><time>2026-05-03T11:01:45.985Z</time></trkpt><trkpt lat="46.4483659" lon="12.5317835"><ele>1096.0</ele><time>2026-05-03T11:01:46.984Z</time></trkpt><trkpt lat="46.4484081" lon="12.5315967"><ele>1096.0</ele><time>2026-05-03T11:01:47.985Z</time></trkpt><trkpt lat="46.4484984" lon="12.5314521"><ele>1096.0</ele><time>2026-05-03T11:01:48.985Z</time></trkpt><trkpt lat="46.4486116" lon="12.5313413"><ele>1096.0</ele><time>2026-05-03T11:01:49.984Z</time></trkpt><trkpt lat="46.4487234" lon="12.5312292"><ele>1097.5</ele><time>2026-05-03T11:01:50.985Z</time></trkpt><trkpt lat="46.4488376" lon="12.5311225"><ele>1099.0</ele><time>2026-05-03T11:01:51.985Z</time></trkpt><trkpt lat="46.4489156" lon="12.5309686"><ele>1100.5</ele><time>2026-05-03T11:01:52.985Z</time></trkpt><trkpt lat="46.4489862" lon="12.530819"><ele>1102.0</ele><time>2026-05-03T11:01:53.984Z</time></trkpt><trkpt lat="46.4490571" lon="12.5306648"><ele>1102.0</ele><time>2026-05-03T11:01:54.985Z</time></trkpt><trkpt lat="46.4491644" lon="12.5305463"><ele>1102.0</ele><time>2026-05-03T11:01:55.985Z</time></trkpt><trkpt lat="46.4492744" lon="12.5304333"><ele>1102.0</ele><time>2026-05-03T11:01:56.985Z</time></trkpt><trkpt lat="46.4493919" lon="12.5303105"><ele>1102.0</ele><time>2026-05-03T11:01:57.984Z</time></trkpt><trkpt lat="46.4495036" lon="12.5301602"><ele>1102.75</ele><time>2026-05-03T11:01:58.984Z</time></trkpt><trkpt lat="46.4496167" lon="12.5300424"><ele>1103.5</ele><time>2026-05-03T11:01:59.985Z</time></trkpt><trkpt lat="46.4497378" lon="12.5299733"><ele>1104.25</ele><time>2026-05-03T11:02:00.985Z</time></trkpt><trkpt lat="46.4498454" lon="12.529925"><ele>1105.0</ele><time>2026-05-03T11:02:01.984Z</time></trkpt><trkpt lat="46.4499444" lon="12.5298651"><ele>1107.8</ele><time>2026-05-03T11:02:02.985Z</time></trkpt><trkpt lat="46.4500323" lon="12.5297906"><ele>1110.6</ele><time>2026-05-03T11:02:03.985Z</time></trkpt><trkpt lat="46.4501164" lon="12.5296991"><ele>1113.4</ele><time>2026-05-03T11:02:04.985Z</time></trkpt><trkpt lat="46.450192" lon="12.5295948"><ele>1116.2</ele><time>2026-05-03T11:02:05.984Z</time></trkpt><trkpt lat="46.4502422" lon="12.5294842"><ele>1119.0</ele><time>2026-05-03T11:02:06.985Z</time></trkpt><trkpt lat="46.4502502" lon="12.529366"><ele>1119.5</ele><time>2026-05-03T11:02:07.985Z</time></trkpt><trkpt lat="46.4502298" lon="12.5292461"><ele>1120.0</ele><time>2026-05-03T11:02:08.985Z</time></trkpt><trkpt lat="46.450197" lon="12.5291266"><ele>1120.5</ele><time>2026-05-03T11:02:09.986Z</time></trkpt><trkpt lat="46.4501385" lon="12.5290355"><ele>1121.0</ele><time>2026-05-03T11:02:10.985Z</time></trkpt><trkpt lat="46.4500539" lon="12.5290154"><ele>1121.5</ele><time>2026-05-03T11:02:11.984Z</time></trkpt><trkpt lat="46.4499605" lon="12.529035"><ele>1122.0</ele><time>2026-05-03T11:02:12.984Z</time></trkpt><trkpt lat="46.4498536" lon="12.529073"><ele>1122.0</ele><time>2026-05-03T11:02:13.984Z</time></trkpt><trkpt lat="46.4497369" lon="12.5291136"><ele>1122.0</ele><time>2026-05-03T11:02:14.985Z</time></trkpt><trkpt lat="46.449614" lon="12.5291592"><ele>1122.0</ele><time>2026-05-03T11:02:15.986Z</time></trkpt><trkpt lat="46.449492" lon="12.5292073"><ele>1122.0</ele><time>2026-05-03T11:02:16.985Z</time></trkpt><trkpt lat="46.4493837" lon="12.5292428"><ele>1121.8</ele><time>2026-05-03T11:02:17.984Z</time></trkpt><trkpt lat="46.4492849" lon="12.529272"><ele>1121.6</ele><time>2026-05-03T11:02:18.985Z</time></trkpt><trkpt lat="46.449194" lon="12.5292764"><ele>1121.3999999999999</ele><time>2026-05-03T11:02:19.985Z</time></trkpt><trkpt lat="46.449112" lon="12.5292401"><ele>1121.2</ele><time>2026-05-03T11:02:20.986Z</time></trkpt><trkpt lat="46.4490319" lon="12.5291772"><ele>1121.0</ele><time>2026-05-03T11:02:21.984Z</time></trkpt><trkpt lat="46.4490065" lon="12.5290506"><ele>1121.0</ele><time>2026-05-03T11:02:22.986Z</time></trkpt><trkpt lat="46.4489861" lon="12.528918"><ele>1121.0</ele><time>2026-05-03T11:02:23.984Z</time></trkpt><trkpt lat="46.4489848" lon="12.5287829"><ele>1121.0</ele><time>2026-05-03T11:02:24.985Z</time></trkpt><trkpt lat="46.4490007" lon="12.5286422"><ele>1121.0</ele><time>2026-05-03T11:02:25.985Z</time></trkpt><trkpt lat="46.4490245" lon="12.5284915"><ele>1121.0</ele><time>2026-05-03T11:02:26.984Z</time></trkpt><trkpt lat="46.4490544" lon="12.5283308"><ele>1122.0</ele><time>2026-05-03T11:02:27.985Z</time></trkpt><trkpt lat="46.4490814" lon="12.5281576"><ele>1123.0</ele><time>2026-05-03T11:02:28.986Z</time></trkpt><trkpt lat="46.4491026" lon="12.5279762"><ele>1124.0</ele><time>2026-05-03T11:02:29.985Z</time></trkpt><trkpt lat="46.4491087" lon="12.527784"><ele>1125.0</ele><time>2026-05-03T11:02:30.984Z</time></trkpt><trkpt lat="46.4491061" lon="12.5275784"><ele>1126.75</ele><time>2026-05-03T11:02:31.986Z</time></trkpt><trkpt lat="46.4491015" lon="12.5273654"><ele>1128.5</ele><time>2026-05-03T11:02:32.985Z</time></trkpt><trkpt lat="46.4491054" lon="12.5271574"><ele>1130.25</ele><time>2026-05-03T11:02:33.984Z</time></trkpt><trkpt lat="46.4491159" lon="12.5269386"><ele>1132.0</ele><time>2026-05-03T11:02:34.985Z</time></trkpt><trkpt lat="46.4491232" lon="12.5267253"><ele>1133.75</ele><time>2026-05-03T11:02:35.985Z</time></trkpt><trkpt lat="46.4491309" lon="12.5265283"><ele>1135.5</ele><time>2026-05-03T11:02:36.985Z</time></trkpt><trkpt lat="46.4491484" lon="12.5263354"><ele>1137.25</ele><time>2026-05-03T11:02:37.986Z</time></trkpt><trkpt lat="46.4491721" lon="12.526145"><ele>1139.0</ele><time>2026-05-03T11:02:38.984Z</time></trkpt><trkpt lat="46.4491815" lon="12.5259538"><ele>1139.0</ele><time>2026-05-03T11:02:39.984Z</time></trkpt><trkpt lat="46.4491714" lon="12.5257535"><ele>1139.0</ele><time>2026-05-03T11:02:40.985Z</time></trkpt><trkpt lat="46.4491432" lon="12.5255482"><ele>1139.0</ele><time>2026-05-03T11:02:41.984Z</time></trkpt><trkpt lat="46.4491099" lon="12.5253396"><ele>1139.0</ele><time>2026-05-03T11:02:42.985Z</time></trkpt><trkpt lat="46.4490755" lon="12.5251459"><ele>1141.0</ele><time>2026-05-03T11:02:43.985Z</time></trkpt><trkpt lat="46.4490365" lon="12.524962"><ele>1143.0</ele><time>2026-05-03T11:02:44.985Z</time></trkpt><trkpt lat="46.4489808" lon="12.5247889"><ele>1145.0</ele><time>2026-05-03T11:02:45.984Z</time></trkpt><trkpt lat="46.4489068" lon="12.5246145"><ele>1147.0</ele><time>2026-05-03T11:02:46.985Z</time></trkpt><trkpt lat="46.4488246" lon="12.5244449"><ele>1148.5</ele><time>2026-05-03T11:02:47.984Z</time></trkpt><trkpt lat="46.4487456" lon="12.5242814"><ele>1150.0</ele><time>2026-05-03T11:02:48.985Z</time></trkpt><trkpt lat="46.4486743" lon="12.5241203"><ele>1151.5</ele><time>2026-05-03T11:02:49.984Z</time></trkpt><trkpt lat="46.4486121" lon="12.5239533"><ele>1153.0</ele><time>2026-05-03T11:02:50.985Z</time></trkpt><trkpt lat="46.4485627" lon="12.5237654"><ele>1153.75</ele><time>2026-05-03T11:02:51.984Z</time></trkpt><trkpt lat="46.4485261" lon="12.5235615"><ele>1154.5</ele><time>2026-05-03T11:02:52.985Z</time></trkpt><trkpt lat="46.4484968" lon="12.5233517"><ele>1155.25</ele><time>2026-05-03T11:02:53.984Z</time></trkpt><trkpt lat="46.4484737" lon="12.5231497"><ele>1156.0</ele><time>2026-05-03T11:02:54.985Z</time></trkpt><trkpt lat="46.4484593" lon="12.5229561"><ele>1156.2</ele><time>2026-05-03T11:02:55.985Z</time></trkpt><trkpt lat="46.448452" lon="12.5227818"><ele>1156.3999999999999</ele><time>2026-05-03T11:02:56.985Z</time></trkpt><trkpt lat="46.4484535" lon="12.5226262"><ele>1156.6</ele><time>2026-05-03T11:02:57.985Z</time></trkpt><trkpt lat="46.4484677" lon="12.522488"><ele>1156.8</ele><time>2026-05-03T11:02:58.984Z</time></trkpt><trkpt lat="46.4485057" lon="12.5223617"><ele>1157.0</ele><time>2026-05-03T11:02:59.985Z</time></trkpt><trkpt lat="46.4485579" lon="12.5222499"><ele>1157.0</ele><time>2026-05-03T11:03:00.985Z</time></trkpt><trkpt lat="46.4486086" lon="12.522164"><ele>1157.0</ele><time>2026-05-03T11:03:01.984Z</time></trkpt><trkpt lat="46.4486396" lon="12.5220642"><ele>1157.0</ele><time>2026-05-03T11:03:02.984Z</time></trkpt><trkpt lat="46.4486464" lon="12.521952"><ele>1157.0</ele><time>2026-05-03T11:03:03.984Z</time></trkpt><trkpt lat="46.4486288" lon="12.5218424"><ele>1157.0</ele><time>2026-05-03T11:03:04.984Z</time></trkpt><trkpt lat="46.4486108" lon="12.5217488"><ele>1157.0</ele><time>2026-05-03T11:03:05.985Z</time></trkpt><trkpt lat="46.4486317" lon="12.5215852"><ele>1157.0</ele><time>2026-05-03T11:03:07.985Z</time></trkpt><trkpt lat="46.4487338" lon="12.5215904"><ele>1157.0</ele><time>2026-05-03T11:03:09.985Z</time></trkpt><trkpt lat="46.4487614" lon="12.5216801"><ele>1157.0</ele><time>2026-05-03T11:03:10.985Z</time></trkpt><trkpt lat="46.4487618" lon="12.5218123"><ele>1157.0</ele><time>2026-05-03T11:03:11.985Z</time></trkpt><trkpt lat="46.4487373" lon="12.5219535"><ele>1157.0</ele><time>2026-05-03T11:03:12.984Z</time></trkpt><trkpt lat="46.4486953" lon="12.5220927"><ele>1157.0</ele><time>2026-05-03T11:03:13.985Z</time></trkpt><trkpt lat="46.4486458" lon="12.5222113"><ele>1157.0</ele><time>2026-05-03T11:03:14.984Z</time></trkpt><trkpt lat="46.4486038" lon="12.5223256"><ele>1157.0</ele><time>2026-05-03T11:03:15.986Z</time></trkpt><trkpt lat="46.4485841" lon="12.5224453"><ele>1157.0</ele><time>2026-05-03T11:03:16.985Z</time></trkpt><trkpt lat="46.4485928" lon="12.5225678"><ele>1157.0</ele><time>2026-05-03T11:03:17.984Z</time></trkpt><trkpt lat="46.4486199" lon="12.5226876"><ele>1157.0</ele><time>2026-05-03T11:03:18.984Z</time></trkpt><trkpt lat="46.4486544" lon="12.5228107"><ele>1156.8</ele><time>2026-05-03T11:03:19.985Z</time></trkpt><trkpt lat="46.4486897" lon="12.5229364"><ele>1156.6</ele><time>2026-05-03T11:03:20.985Z</time></trkpt><trkpt lat="46.4487276" lon="12.5230692"><ele>1156.3999999999999</ele><time>2026-05-03T11:03:21.985Z</time></trkpt><trkpt lat="46.4487731" lon="12.5232182"><ele>1156.2</ele><time>2026-05-03T11:03:22.985Z</time></trkpt><trkpt lat="46.448823" lon="12.5233719"><ele>1156.0</ele><time>2026-05-03T11:03:23.984Z</time></trkpt><trkpt lat="46.4488758" lon="12.5235238"><ele>1157.75</ele><time>2026-05-03T11:03:24.985Z</time></trkpt><trkpt lat="46.4489325" lon="12.5236805"><ele>1159.5</ele><time>2026-05-03T11:03:25.985Z</time></trkpt><trkpt lat="46.4490025" lon="12.5238383"><ele>1161.25</ele><time>2026-05-03T11:03:26.985Z</time></trkpt><trkpt lat="46.4490977" lon="12.52398"><ele>1163.0</ele><time>2026-05-03T11:03:27.985Z</time></trkpt><trkpt lat="46.4492147" lon="12.524108"><ele>1163.0</ele><time>2026-05-03T11:03:28.984Z</time></trkpt><trkpt lat="46.4493271" lon="12.5242634"><ele>1163.0</ele><time>2026-05-03T11:03:29.984Z</time></trkpt><trkpt lat="46.4494321" lon="12.5244252"><ele>1163.0</ele><time>2026-05-03T11:03:30.985Z</time></trkpt><trkpt lat="46.4495397" lon="12.5245942"><ele>1170.6666666666667</ele><time>2026-05-03T11:03:31.985Z</time></trkpt><trkpt lat="46.4496322" lon="12.5247865"><ele>1178.3333333333333</ele><time>2026-05-03T11:03:32.985Z</time></trkpt><trkpt lat="46.4497089" lon="12.5250104"><ele>1186.0</ele><time>2026-05-03T11:03:33.984Z</time></trkpt><trkpt lat="46.4497844" lon="12.5252308"><ele>1182.6666666666665</ele><time>2026-05-03T11:03:34.985Z</time></trkpt><trkpt lat="46.4498684" lon="12.5254499"><ele>1179.3333333333333</ele><time>2026-05-03T11:03:35.984Z</time></trkpt><trkpt lat="46.4499516" lon="12.5256526"><ele>1176.0</ele><time>2026-05-03T11:03:36.985Z</time></trkpt><trkpt lat="46.450027" lon="12.5258435"><ele>1176.0</ele><time>2026-05-03T11:03:37.985Z</time></trkpt><trkpt lat="46.4500935" lon="12.5260204"><ele>1176.0</ele><time>2026-05-03T11:03:38.985Z</time></trkpt><trkpt lat="46.4501565" lon="12.5261837"><ele>1176.0</ele><time>2026-05-03T11:03:39.984Z</time></trkpt><trkpt lat="46.4502125" lon="12.5263357"><ele>1176.0</ele><time>2026-05-03T11:03:40.985Z</time></trkpt><trkpt lat="46.450258" lon="12.5264634"><ele>1174.6</ele><time>2026-05-03T11:03:41.985Z</time></trkpt><trkpt lat="46.4502972" lon="12.5265821"><ele>1173.1999999999998</ele><time>2026-05-03T11:03:42.986Z</time></trkpt><trkpt lat="46.4503387" lon="12.5266691"><ele>1171.8000000000002</ele><time>2026-05-03T11:03:43.984Z</time></trkpt><trkpt lat="46.4504667" lon="12.5266624"><ele>1170.4</ele><time>2026-05-03T11:03:45.985Z</time></trkpt><trkpt lat="46.4504764" lon="12.5264405"><ele>1169.0</ele><time>2026-05-03T11:03:47.985Z</time></trkpt><trkpt lat="46.4504356" lon="12.5263008"><ele>1170.75</ele><time>2026-05-03T11:03:48.985Z</time></trkpt><trkpt lat="46.4503719" lon="12.5261674"><ele>1172.5</ele><time>2026-05-03T11:03:49.986Z</time></trkpt><trkpt lat="46.4503052" lon="12.5260311"><ele>1174.25</ele><time>2026-05-03T11:03:50.986Z</time></trkpt><trkpt lat="46.4502465" lon="12.5258823"><ele>1176.0</ele><time>2026-05-03T11:03:51.984Z</time></trkpt><trkpt lat="46.4502036" lon="12.5257085"><ele>1176.0</ele><time>2026-05-03T11:03:52.985Z</time></trkpt><trkpt lat="46.4501654" lon="12.5255239"><ele>1176.0</ele><time>2026-05-03T11:03:53.985Z</time></trkpt><trkpt lat="46.450126" lon="12.5253355"><ele>1176.0</ele><time>2026-05-03T11:03:54.984Z</time></trkpt><trkpt lat="46.4500873" lon="12.5251391"><ele>1176.0</ele><time>2026-05-03T11:03:55.985Z</time></trkpt><trkpt lat="46.4500503" lon="12.5249446"><ele>1178.5</ele><time>2026-05-03T11:03:56.985Z</time></trkpt><trkpt lat="46.4500191" lon="12.5247452"><ele>1181.0</ele><time>2026-05-03T11:03:57.985Z</time></trkpt><trkpt lat="46.4499973" lon="12.5245404"><ele>1183.5</ele><time>2026-05-03T11:03:58.985Z</time></trkpt><trkpt lat="46.4499733" lon="12.5243479"><ele>1186.0</ele><time>2026-05-03T11:03:59.984Z</time></trkpt><trkpt lat="46.449928" lon="12.5241481"><ele>1191.3333333333333</ele><time>2026-05-03T11:04:00.985Z</time></trkpt><trkpt lat="46.4498589" lon="12.5239512"><ele>1196.6666666666667</ele><time>2026-05-03T11:04:01.985Z</time></trkpt><trkpt lat="46.4497755" lon="12.5237632"><ele>1202.0</ele><time>2026-05-03T11:04:02.984Z</time></trkpt><trkpt lat="46.4496887" lon="12.5235918"><ele>1197.5</ele><time>2026-05-03T11:04:03.984Z</time></trkpt><trkpt lat="46.4496038" lon="12.5234224"><ele>1193.0</ele><time>2026-05-03T11:04:04.984Z</time></trkpt><trkpt lat="46.4495299" lon="12.5232583"><ele>1188.5</ele><time>2026-05-03T11:04:05.985Z</time></trkpt><trkpt lat="46.4494732" lon="12.5230719"><ele>1184.0</ele><time>2026-05-03T11:04:06.985Z</time></trkpt><trkpt lat="46.4494318" lon="12.5228792"><ele>1184.0</ele><time>2026-05-03T11:04:07.986Z</time></trkpt><trkpt lat="46.449394" lon="12.522695"><ele>1184.0</ele><time>2026-05-03T11:04:08.985Z</time></trkpt><trkpt lat="46.4493724" lon="12.522522"><ele>1184.0</ele><time>2026-05-03T11:04:09.984Z</time></trkpt><trkpt lat="46.4493793" lon="12.5223608"><ele>1184.0</ele><time>2026-05-03T11:04:10.985Z</time></trkpt><trkpt lat="46.4494095" lon="12.5222316"><ele>1184.0</ele><time>2026-05-03T11:04:11.984Z</time></trkpt><trkpt lat="46.4494633" lon="12.5221506"><ele>1184.0</ele><time>2026-05-03T11:04:12.985Z</time></trkpt><trkpt lat="46.4495259" lon="12.5220969"><ele>1184.0</ele><time>2026-05-03T11:04:13.984Z</time></trkpt><trkpt lat="46.4496003" lon="12.522051"><ele>1184.0</ele><time>2026-05-03T11:04:14.985Z</time></trkpt><trkpt lat="46.4496847" lon="12.5220058"><ele>1184.0</ele><time>2026-05-03T11:04:15.986Z</time></trkpt><trkpt lat="46.4497689" lon="12.5219437"><ele>1184.0</ele><time>2026-05-03T11:04:16.985Z</time></trkpt><trkpt lat="46.4498396" lon="12.5218662"><ele>1188.0</ele><time>2026-05-03T11:04:17.986Z</time></trkpt><trkpt lat="46.449898" lon="12.5217715"><ele>1192.0</ele><time>2026-05-03T11:04:18.984Z</time></trkpt><trkpt lat="46.4499555" lon="12.5216864"><ele>1196.0</ele><time>2026-05-03T11:04:19.986Z</time></trkpt><trkpt lat="46.4500104" lon="12.5216058"><ele>1200.0</ele><time>2026-05-03T11:04:20.984Z</time></trkpt><trkpt lat="46.4500466" lon="12.5215137"><ele>1204.0</ele><time>2026-05-03T11:04:21.985Z</time></trkpt><trkpt lat="46.4500666" lon="12.5214174"><ele>1208.0</ele><time>2026-05-03T11:04:22.985Z</time></trkpt><trkpt lat="46.4500676" lon="12.5213166"><ele>1208.2857142857144</ele><time>2026-05-03T11:04:23.985Z</time></trkpt><trkpt lat="46.4500609" lon="12.5212006"><ele>1208.5714285714287</ele><time>2026-05-03T11:04:24.984Z</time></trkpt><trkpt lat="46.4500617" lon="12.5210917"><ele>1208.857142857143</ele><time>2026-05-03T11:04:25.985Z</time></trkpt><trkpt lat="46.4500656" lon="12.5209855"><ele>1209.1428571428573</ele><time>2026-05-03T11:04:26.984Z</time></trkpt><trkpt lat="46.4500958" lon="12.5208938"><ele>1209.4285714285716</ele><time>2026-05-03T11:04:27.985Z</time></trkpt><trkpt lat="46.4501553" lon="12.5208419"><ele>1209.7142857142858</ele><time>2026-05-03T11:04:28.985Z</time></trkpt><trkpt lat="46.4502211" lon="12.5208558"><ele>1210.0</ele><time>2026-05-03T11:04:29.985Z</time></trkpt><trkpt lat="46.4502601" lon="12.5209281"><ele>1210.0</ele><time>2026-05-03T11:04:30.986Z</time></trkpt><trkpt lat="46.4502691" lon="12.5210463"><ele>1210.0</ele><time>2026-05-03T11:04:31.986Z</time></trkpt><trkpt lat="46.4502536" lon="12.5211877"><ele>1210.0</ele><time>2026-05-03T11:04:32.985Z</time></trkpt><trkpt lat="46.4502308" lon="12.5213546"><ele>1210.0</ele><time>2026-05-03T11:04:33.984Z</time></trkpt><trkpt lat="46.4501785" lon="12.5215149"><ele>1210.0</ele><time>2026-05-03T11:04:34.985Z</time></trkpt><trkpt lat="46.4500965" lon="12.5216647"><ele>1209.5</ele><time>2026-05-03T11:04:35.985Z</time></trkpt><trkpt lat="46.4500106" lon="12.5217996"><ele>1209.0</ele><time>2026-05-03T11:04:36.984Z</time></trkpt><trkpt lat="46.4499252" lon="12.5219275"><ele>1208.5</ele><time>2026-05-03T11:04:37.986Z</time></trkpt><trkpt lat="46.4498379" lon="12.5220317"><ele>1208.0</ele><time>2026-05-03T11:04:38.985Z</time></trkpt><trkpt lat="46.4497522" lon="12.5221035"><ele>1210.1666666666667</ele><time>2026-05-03T11:04:39.984Z</time></trkpt><trkpt lat="46.4496805" lon="12.5221763"><ele>1212.3333333333335</ele><time>2026-05-03T11:04:40.985Z</time></trkpt><trkpt lat="46.4496338" lon="12.5222706"><ele>1214.5</ele><time>2026-05-03T11:04:41.985Z</time></trkpt><trkpt lat="46.4496174" lon="12.5223794"><ele>1216.6666666666667</ele><time>2026-05-03T11:04:42.985Z</time></trkpt><trkpt lat="46.4496407" lon="12.5224894"><ele>1218.8333333333333</ele><time>2026-05-03T11:04:43.984Z</time></trkpt><trkpt lat="46.4496985" lon="12.5225856"><ele>1221.0</ele><time>2026-05-03T11:04:44.985Z</time></trkpt><trkpt lat="46.4497709" lon="12.5226667"><ele>1221.0</ele><time>2026-05-03T11:04:45.985Z</time></trkpt><trkpt lat="46.4498401" lon="12.5227703"><ele>1221.0</ele><time>2026-05-03T11:04:46.985Z</time></trkpt><trkpt lat="46.4499125" lon="12.5228927"><ele>1221.0</ele><time>2026-05-03T11:04:47.986Z</time></trkpt><trkpt lat="46.4499843" lon="12.5230265"><ele>1221.0</ele><time>2026-05-03T11:04:48.985Z</time></trkpt><trkpt lat="46.4500564" lon="12.5231691"><ele>1221.0</ele><time>2026-05-03T11:04:49.984Z</time></trkpt><trkpt lat="46.4501361" lon="12.523316"><ele>1220.0</ele><time>2026-05-03T11:04:50.985Z</time></trkpt><trkpt lat="46.4502191" lon="12.5234621"><ele>1219.0</ele><time>2026-05-03T11:04:51.984Z</time></trkpt><trkpt lat="46.4503053" lon="12.5236154"><ele>1218.0</ele><time>2026-05-03T11:04:52.985Z</time></trkpt><trkpt lat="46.4503905" lon="12.5237709"><ele>1217.0</ele><time>2026-05-03T11:04:53.985Z</time></trkpt><trkpt lat="46.4504753" lon="12.5239275"><ele>1219.25</ele><time>2026-05-03T11:04:54.984Z</time></trkpt><trkpt lat="46.4505492" lon="12.524092"><ele>1221.5</ele><time>2026-05-03T11:04:55.985Z</time></trkpt><trkpt lat="46.4506046" lon="12.5242669"><ele>1223.75</ele><time>2026-05-03T11:04:56.985Z</time></trkpt><trkpt lat="46.4506443" lon="12.5244493"><ele>1226.0</ele><time>2026-05-03T11:04:57.985Z</time></trkpt><trkpt lat="46.4506944" lon="12.5246213"><ele>1226.0</ele><time>2026-05-03T11:04:58.986Z</time></trkpt><trkpt lat="46.4507707" lon="12.5247847"><ele>1226.0</ele><time>2026-05-03T11:04:59.985Z</time></trkpt><trkpt lat="46.4508709" lon="12.5249462"><ele>1226.0</ele><time>2026-05-03T11:05:00.984Z</time></trkpt><trkpt lat="46.4509752" lon="12.5251073"><ele>1226.0</ele><time>2026-05-03T11:05:01.984Z</time></trkpt><trkpt lat="46.451075" lon="12.5252566"><ele>1226.0</ele><time>2026-05-03T11:05:02.985Z</time></trkpt><trkpt lat="46.4511721" lon="12.5253871"><ele>1226.0</ele><time>2026-05-03T11:05:03.986Z</time></trkpt><trkpt lat="46.4512702" lon="12.5254933"><ele>1226.0</ele><time>2026-05-03T11:05:04.984Z</time></trkpt><trkpt lat="46.4513871" lon="12.5255603"><ele>1226.0</ele><time>2026-05-03T11:05:05.985Z</time></trkpt><trkpt lat="46.4515075" lon="12.5255857"><ele>1226.8</ele><time>2026-05-03T11:05:06.984Z</time></trkpt><trkpt lat="46.4516222" lon="12.525597"><ele>1227.6</ele><time>2026-05-03T11:05:07.984Z</time></trkpt><trkpt lat="46.4517302" lon="12.5256107"><ele>1228.4</ele><time>2026-05-03T11:05:08.985Z</time></trkpt><trkpt lat="46.4518281" lon="12.5256096"><ele>1229.2</ele><time>2026-05-03T11:05:09.985Z</time></trkpt><trkpt lat="46.4519104" lon="12.525574"><ele>1230.0</ele><time>2026-05-03T11:05:10.985Z</time></trkpt><trkpt lat="46.4519727" lon="12.525508"><ele>1230.0</ele><time>2026-05-03T11:05:11.984Z</time></trkpt><trkpt lat="46.4520008" lon="12.5254082"><ele>1230.0</ele><time>2026-05-03T11:05:12.985Z</time></trkpt><trkpt lat="46.4519858" lon="12.5253074"><ele>1230.0</ele><time>2026-05-03T11:05:13.985Z</time></trkpt><trkpt lat="46.4519279" lon="12.5252399"><ele>1230.0</ele><time>2026-05-03T11:05:14.985Z</time></trkpt><trkpt lat="46.4518473" lon="12.5252415"><ele>1230.0</ele><time>2026-05-03T11:05:15.984Z</time></trkpt><trkpt lat="46.4517588" lon="12.525302"><ele>1230.0</ele><time>2026-05-03T11:05:16.984Z</time></trkpt><trkpt lat="46.4516594" lon="12.525358"><ele>1229.2</ele><time>2026-05-03T11:05:17.985Z</time></trkpt><trkpt lat="46.451555" lon="12.5253763"><ele>1228.4</ele><time>2026-05-03T11:05:18.985Z</time></trkpt><trkpt lat="46.4514639" lon="12.5253417"><ele>1227.6</ele><time>2026-05-03T11:05:19.986Z</time></trkpt><trkpt lat="46.4513905" lon="12.5252556"><ele>1226.8</ele><time>2026-05-03T11:05:20.985Z</time></trkpt><trkpt lat="46.4513352" lon="12.5251235"><ele>1226.0</ele><time>2026-05-03T11:05:21.985Z</time></trkpt><trkpt lat="46.4512743" lon="12.5249847"><ele>1226.0</ele><time>2026-05-03T11:05:22.985Z</time></trkpt><trkpt lat="46.4512131" lon="12.5248646"><ele>1226.0</ele><time>2026-05-03T11:05:23.985Z</time></trkpt><trkpt lat="46.451147" lon="12.5247552"><ele>1226.0</ele><time>2026-05-03T11:05:24.985Z</time></trkpt><trkpt lat="46.4510742" lon="12.524651"><ele>1226.0</ele><time>2026-05-03T11:05:25.984Z</time></trkpt><trkpt lat="46.4510154" lon="12.52453"><ele>1226.0</ele><time>2026-05-03T11:05:26.984Z</time></trkpt><trkpt lat="46.4509825" lon="12.5243799"><ele>1229.75</ele><time>2026-05-03T11:05:27.984Z</time></trkpt><trkpt lat="46.4509702" lon="12.52421"><ele>1233.5</ele><time>2026-05-03T11:05:28.984Z</time></trkpt><trkpt lat="46.4509586" lon="12.5240353"><ele>1237.25</ele><time>2026-05-03T11:05:29.985Z</time></trkpt><trkpt lat="46.4509371" lon="12.5238669"><ele>1241.0</ele><time>2026-05-03T11:05:30.984Z</time></trkpt><trkpt lat="46.4508829" lon="12.523702"><ele>1244.0</ele><time>2026-05-03T11:05:31.984Z</time></trkpt><trkpt lat="46.4508085" lon="12.5235466"><ele>1247.0</ele><time>2026-05-03T11:05:32.985Z</time></trkpt><trkpt lat="46.4507261" lon="12.5234021"><ele>1250.0</ele><time>2026-05-03T11:05:33.985Z</time></trkpt><trkpt lat="46.4506485" lon="12.5232661"><ele>1253.0</ele><time>2026-05-03T11:05:34.985Z</time></trkpt><trkpt lat="46.4505783" lon="12.5231377"><ele>1253.0</ele><time>2026-05-03T11:05:35.984Z</time></trkpt><trkpt lat="46.4505218" lon="12.5230155"><ele>1253.0</ele><time>2026-05-03T11:05:36.985Z</time></trkpt><trkpt lat="46.4504921" lon="12.5228851"><ele>1253.0</ele><time>2026-05-03T11:05:37.984Z</time></trkpt><trkpt lat="46.450505" lon="12.5227417"><ele>1253.0</ele><time>2026-05-03T11:05:38.985Z</time></trkpt><trkpt lat="46.4505562" lon="12.5225986"><ele>1253.0</ele><time>2026-05-03T11:05:39.985Z</time></trkpt><trkpt lat="46.4506157" lon="12.5224462"><ele>1252.75</ele><time>2026-05-03T11:05:40.985Z</time></trkpt><trkpt lat="46.4506713" lon="12.5222784"><ele>1252.5</ele><time>2026-05-03T11:05:41.985Z</time></trkpt><trkpt lat="46.45072" lon="12.5221249"><ele>1252.25</ele><time>2026-05-03T11:05:42.985Z</time></trkpt><trkpt lat="46.450782" lon="12.5219842"><ele>1252.0</ele><time>2026-05-03T11:05:43.984Z</time></trkpt><trkpt lat="46.4508549" lon="12.5218698"><ele>1252.0</ele><time>2026-05-03T11:05:44.984Z</time></trkpt><trkpt lat="46.4509159" lon="12.5217526"><ele>1252.0</ele><time>2026-05-03T11:05:45.984Z</time></trkpt><trkpt lat="46.4509587" lon="12.5216065"><ele>1252.0</ele><time>2026-05-03T11:05:46.984Z</time></trkpt><trkpt lat="46.4509796" lon="12.5214403"><ele>1252.0</ele><time>2026-05-03T11:05:47.985Z</time></trkpt><trkpt lat="46.4509927" lon="12.5212553"><ele>1251.0</ele><time>2026-05-03T11:05:48.985Z</time></trkpt><trkpt lat="46.4510038" lon="12.5210598"><ele>1250.0</ele><time>2026-05-03T11:05:49.986Z</time></trkpt><trkpt lat="46.4510184" lon="12.520865"><ele>1249.0</ele><time>2026-05-03T11:05:50.985Z</time></trkpt><trkpt lat="46.4510366" lon="12.5206841"><ele>1248.0</ele><time>2026-05-03T11:05:51.985Z</time></trkpt><trkpt lat="46.4510593" lon="12.5205195"><ele>1246.8</ele><time>2026-05-03T11:05:52.985Z</time></trkpt><trkpt lat="46.4510877" lon="12.5203706"><ele>1245.6</ele><time>2026-05-03T11:05:53.984Z</time></trkpt><trkpt lat="46.4511309" lon="12.5202383"><ele>1244.4</ele><time>2026-05-03T11:05:54.984Z</time></trkpt><trkpt lat="46.451203" lon="12.5201328"><ele>1243.2</ele><time>2026-05-03T11:05:55.985Z</time></trkpt><trkpt lat="46.4513008" lon="12.5200534"><ele>1242.0</ele><time>2026-05-03T11:05:56.985Z</time></trkpt><trkpt lat="46.4514018" lon="12.5199788"><ele>1250.0</ele><time>2026-05-03T11:05:57.985Z</time></trkpt><trkpt lat="46.4515072" lon="12.5199069"><ele>1258.0</ele><time>2026-05-03T11:05:58.984Z</time></trkpt><trkpt lat="46.4516181" lon="12.5198368"><ele>1266.0</ele><time>2026-05-03T11:05:59.985Z</time></trkpt><trkpt lat="46.45172" lon="12.5197721"><ele>1274.0</ele><time>2026-05-03T11:06:00.984Z</time></trkpt><trkpt lat="46.4518254" lon="12.5197356"><ele>1274.0</ele><time>2026-05-03T11:06:01.985Z</time></trkpt><trkpt lat="46.4519311" lon="12.5197425"><ele>1274.0</ele><time>2026-05-03T11:06:02.984Z</time></trkpt><trkpt lat="46.4520352" lon="12.5197488"><ele>1274.0</ele><time>2026-05-03T11:06:03.985Z</time></trkpt><trkpt lat="46.4521389" lon="12.5197173"><ele>1274.0</ele><time>2026-05-03T11:06:04.985Z</time></trkpt><trkpt lat="46.4522301" lon="12.51964"><ele>1274.0</ele><time>2026-05-03T11:06:05.984Z</time></trkpt><trkpt lat="46.4522894" lon="12.5195088"><ele>1274.75</ele><time>2026-05-03T11:06:06.985Z</time></trkpt><trkpt lat="46.4523285" lon="12.51935"><ele>1275.5</ele><time>2026-05-03T11:06:07.984Z</time></trkpt><trkpt lat="46.4523591" lon="12.5191873"><ele>1276.25</ele><time>2026-05-03T11:06:08.984Z</time></trkpt><trkpt lat="46.4523982" lon="12.5190257"><ele>1277.0</ele><time>2026-05-03T11:06:09.985Z</time></trkpt><trkpt lat="46.4524628" lon="12.5188786"><ele>1277.0</ele><time>2026-05-03T11:06:10.985Z</time></trkpt><trkpt lat="46.4525593" lon="12.5187575"><ele>1277.0</ele><time>2026-05-03T11:06:11.985Z</time></trkpt><trkpt lat="46.4526839" lon="12.5186838"><ele>1277.0</ele><time>2026-05-03T11:06:12.985Z</time></trkpt><trkpt lat="46.4528229" lon="12.5186391"><ele>1277.0</ele><time>2026-05-03T11:06:13.985Z</time></trkpt><trkpt lat="46.4529677" lon="12.5185942"><ele>1278.75</ele><time>2026-05-03T11:06:14.985Z</time></trkpt><trkpt lat="46.4531111" lon="12.518537"><ele>1280.5</ele><time>2026-05-03T11:06:15.984Z</time></trkpt><trkpt lat="46.4532486" lon="12.5184776"><ele>1282.25</ele><time>2026-05-03T11:06:16.986Z</time></trkpt><trkpt lat="46.4533767" lon="12.518422"><ele>1284.0</ele><time>2026-05-03T11:06:17.985Z</time></trkpt><trkpt lat="46.4534939" lon="12.5183669"><ele>1284.0</ele><time>2026-05-03T11:06:18.984Z</time></trkpt><trkpt lat="46.4536064" lon="12.518306"><ele>1284.0</ele><time>2026-05-03T11:06:19.984Z</time></trkpt><trkpt lat="46.4537082" lon="12.5182084"><ele>1284.0</ele><time>2026-05-03T11:06:20.984Z</time></trkpt><trkpt lat="46.453797" lon="12.5180644"><ele>1284.0</ele><time>2026-05-03T11:06:21.985Z</time></trkpt><trkpt lat="46.4538781" lon="12.5178961"><ele>1287.0</ele><time>2026-05-03T11:06:22.985Z</time></trkpt><trkpt lat="46.4539434" lon="12.5176986"><ele>1290.0</ele><time>2026-05-03T11:06:23.985Z</time></trkpt><trkpt lat="46.4539907" lon="12.5174872"><ele>1293.0</ele><time>2026-05-03T11:06:24.983Z</time></trkpt><trkpt lat="46.454027" lon="12.5172846"><ele>1296.0</ele><time>2026-05-03T11:06:25.983Z</time></trkpt><trkpt lat="46.4540852" lon="12.5171059"><ele>1295.6</ele><time>2026-05-03T11:06:26.984Z</time></trkpt><trkpt lat="46.4541698" lon="12.516972"><ele>1295.1999999999998</ele><time>2026-05-03T11:06:27.984Z</time></trkpt><trkpt lat="46.4542553" lon="12.5168682"><ele>1294.8000000000002</ele><time>2026-05-03T11:06:28.984Z</time></trkpt><trkpt lat="46.4543231" lon="12.5167463"><ele>1294.4</ele><time>2026-05-03T11:06:29.984Z</time></trkpt><trkpt lat="46.4543459" lon="12.5166"><ele>1294.0</ele><time>2026-05-03T11:06:30.984Z</time></trkpt><trkpt lat="46.4543256" lon="12.5164532"><ele>1294.0</ele><time>2026-05-03T11:06:31.984Z</time></trkpt><trkpt lat="46.4542638" lon="12.5163249"><ele>1294.0</ele><time>2026-05-03T11:06:32.984Z</time></trkpt><trkpt lat="46.4541733" lon="12.5162269"><ele>1294.0</ele><time>2026-05-03T11:06:33.984Z</time></trkpt><trkpt lat="46.4540742" lon="12.5161502"><ele>1294.0</ele><time>2026-05-03T11:06:34.984Z</time></trkpt><trkpt lat="46.4539838" lon="12.5160526"><ele>1294.0</ele><time>2026-05-03T11:06:35.983Z</time></trkpt><trkpt lat="46.4539123" lon="12.5159418"><ele>1296.6</ele><time>2026-05-03T11:06:36.985Z</time></trkpt><trkpt lat="46.4538502" lon="12.515834"><ele>1299.2</ele><time>2026-05-03T11:06:37.984Z</time></trkpt><trkpt lat="46.4538135" lon="12.5157127"><ele>1301.8</ele><time>2026-05-03T11:06:38.984Z</time></trkpt><trkpt lat="46.4538052" lon="12.5155779"><ele>1304.3999999999999</ele><time>2026-05-03T11:06:39.984Z</time></trkpt><trkpt lat="46.4538229" lon="12.5154384"><ele>1307.0</ele><time>2026-05-03T11:06:40.984Z</time></trkpt><trkpt lat="46.4538643" lon="12.5153056"><ele>1307.8</ele><time>2026-05-03T11:06:41.984Z</time></trkpt><trkpt lat="46.4539193" lon="12.515176"><ele>1308.6</ele><time>2026-05-03T11:06:42.984Z</time></trkpt><trkpt lat="46.4539777" lon="12.5150465"><ele>1309.3999999999999</ele><time>2026-05-03T11:06:43.984Z</time></trkpt><trkpt lat="46.4540351" lon="12.5149181"><ele>1310.1999999999998</ele><time>2026-05-03T11:06:44.983Z</time></trkpt><trkpt lat="46.4540905" lon="12.514793"><ele>1311.0</ele><time>2026-05-03T11:06:45.984Z</time></trkpt><trkpt lat="46.4541337" lon="12.5146566"><ele>1310.5</ele><time>2026-05-03T11:06:46.983Z</time></trkpt><trkpt lat="46.4541565" lon="12.5144993"><ele>1310.0</ele><time>2026-05-03T11:06:47.984Z</time></trkpt><trkpt lat="46.4541748" lon="12.5143348"><ele>1309.5</ele><time>2026-05-03T11:06:48.984Z</time></trkpt><trkpt lat="46.4541908" lon="12.5141643"><ele>1309.0</ele><time>2026-05-03T11:06:49.984Z</time></trkpt><trkpt lat="46.4542093" lon="12.5140002"><ele>1309.0</ele><time>2026-05-03T11:06:50.985Z</time></trkpt><trkpt lat="46.4542332" lon="12.5138472"><ele>1309.0</ele><time>2026-05-03T11:06:51.984Z</time></trkpt><trkpt lat="46.454282" lon="12.5137051"><ele>1309.0</ele><time>2026-05-03T11:06:52.983Z</time></trkpt><trkpt lat="46.4543427" lon="12.5135803"><ele>1309.0</ele><time>2026-05-03T11:06:53.985Z</time></trkpt><trkpt lat="46.4544115" lon="12.5134724"><ele>1309.0</ele><time>2026-05-03T11:06:54.983Z</time></trkpt><trkpt lat="46.454482" lon="12.5133753"><ele>1308.2</ele><time>2026-05-03T11:06:55.984Z</time></trkpt><trkpt lat="46.4545555" lon="12.5132946"><ele>1307.4</ele><time>2026-05-03T11:06:56.985Z</time></trkpt><trkpt lat="46.4546328" lon="12.5132201"><ele>1306.6</ele><time>2026-05-03T11:06:57.983Z</time></trkpt><trkpt lat="46.4547152" lon="12.5131508"><ele>1305.8</ele><time>2026-05-03T11:06:58.984Z</time></trkpt><trkpt lat="46.4548111" lon="12.513115"><ele>1305.0</ele><time>2026-05-03T11:06:59.983Z</time></trkpt><trkpt lat="46.4549165" lon="12.5131267"><ele>1305.0</ele><time>2026-05-03T11:07:00.984Z</time></trkpt><trkpt lat="46.4550184" lon="12.5131882"><ele>1305.0</ele><time>2026-05-03T11:07:01.983Z</time></trkpt><trkpt lat="46.455113" lon="12.5132675"><ele>1305.0</ele><time>2026-05-03T11:07:02.985Z</time></trkpt><trkpt lat="46.4551881" lon="12.5133709"><ele>1305.0</ele><time>2026-05-03T11:07:03.984Z</time></trkpt><trkpt lat="46.4552245" lon="12.5135076"><ele>1305.0</ele><time>2026-05-03T11:07:04.984Z</time></trkpt><trkpt lat="46.4552238" lon="12.5136574"><ele>1306.2</ele><time>2026-05-03T11:07:05.983Z</time></trkpt><trkpt lat="46.45522" lon="12.513809"><ele>1307.4</ele><time>2026-05-03T11:07:06.984Z</time></trkpt><trkpt lat="46.4552449" lon="12.5139667"><ele>1308.6</ele><time>2026-05-03T11:07:07.984Z</time></trkpt><trkpt lat="46.4552855" lon="12.5141209"><ele>1309.8</ele><time>2026-05-03T11:07:08.984Z</time></trkpt><trkpt lat="46.4553302" lon="12.5142621"><ele>1311.0</ele><time>2026-05-03T11:07:09.985Z</time></trkpt><trkpt lat="46.4553783" lon="12.5143874"><ele>1311.0</ele><time>2026-05-03T11:07:10.984Z</time></trkpt><trkpt lat="46.4554273" lon="12.5144981"><ele>1311.0</ele><time>2026-05-03T11:07:11.983Z</time></trkpt><trkpt lat="46.4554866" lon="12.5145957"><ele>1311.0</ele><time>2026-05-03T11:07:12.984Z</time></trkpt><trkpt lat="46.4555557" lon="12.5146705"><ele>1311.0</ele><time>2026-05-03T11:07:13.984Z</time></trkpt><trkpt lat="46.4556337" lon="12.5147206"><ele>1311.0</ele><time>2026-05-03T11:07:14.983Z</time></trkpt><trkpt lat="46.4557181" lon="12.5147491"><ele>1311.0</ele><time>2026-05-03T11:07:15.984Z</time></trkpt><trkpt lat="46.4558031" lon="12.5147475"><ele>1309.4</ele><time>2026-05-03T11:07:16.985Z</time></trkpt><trkpt lat="46.4558873" lon="12.5147241"><ele>1307.8</ele><time>2026-05-03T11:07:17.983Z</time></trkpt><trkpt lat="46.4559689" lon="12.5146722"><ele>1306.2</ele><time>2026-05-03T11:07:18.984Z</time></trkpt><trkpt lat="46.4560429" lon="12.5145923"><ele>1304.6000000000001</ele><time>2026-05-03T11:07:19.983Z</time></trkpt><trkpt lat="46.456106" lon="12.5144848"><ele>1303.0</ele><time>2026-05-03T11:07:20.984Z</time></trkpt><trkpt lat="46.4561635" lon="12.5143634"><ele>1301.8000000000002</ele><time>2026-05-03T11:07:21.984Z</time></trkpt><trkpt lat="46.456219" lon="12.5142368"><ele>1300.6</ele><time>2026-05-03T11:07:22.984Z</time></trkpt><trkpt lat="46.4562719" lon="12.5141099"><ele>1299.4</ele><time>2026-05-03T11:07:23.984Z</time></trkpt><trkpt lat="46.4563278" lon="12.5139797"><ele>1298.1999999999998</ele><time>2026-05-03T11:07:24.984Z</time></trkpt><trkpt lat="46.4563814" lon="12.5138485"><ele>1297.0</ele><time>2026-05-03T11:07:25.983Z</time></trkpt><trkpt lat="46.4564316" lon="12.5137153"><ele>1294.8</ele><time>2026-05-03T11:07:26.984Z</time></trkpt><trkpt lat="46.4564822" lon="12.5135842"><ele>1292.6</ele><time>2026-05-03T11:07:27.983Z</time></trkpt><trkpt lat="46.4565375" lon="12.5134442"><ele>1290.3999999999999</ele><time>2026-05-03T11:07:28.984Z</time></trkpt><trkpt lat="46.4565932" lon="12.5133055"><ele>1288.1999999999998</ele><time>2026-05-03T11:07:29.984Z</time></trkpt><trkpt lat="46.45665" lon="12.5131658"><ele>1286.0</ele><time>2026-05-03T11:07:30.983Z</time></trkpt><trkpt lat="46.4567075" lon="12.5130239"><ele>1285.8</ele><time>2026-05-03T11:07:31.984Z</time></trkpt><trkpt lat="46.4567631" lon="12.5128825"><ele>1285.6</ele><time>2026-05-03T11:07:32.983Z</time></trkpt><trkpt lat="46.45682" lon="12.5127415"><ele>1285.4</ele><time>2026-05-03T11:07:33.984Z</time></trkpt><trkpt lat="46.4568795" lon="12.5126053"><ele>1285.2</ele><time>2026-05-03T11:07:34.984Z</time></trkpt><trkpt lat="46.4569468" lon="12.5124779"><ele>1285.0</ele><time>2026-05-03T11:07:35.984Z</time></trkpt><trkpt lat="46.4570325" lon="12.5123675"><ele>1285.25</ele><time>2026-05-03T11:07:36.984Z</time></trkpt><trkpt lat="46.4571348" lon="12.5122753"><ele>1285.5</ele><time>2026-05-03T11:07:37.984Z</time></trkpt><trkpt lat="46.4572456" lon="12.5121887"><ele>1285.75</ele><time>2026-05-03T11:07:38.984Z</time></trkpt><trkpt lat="46.4573611" lon="12.5121028"><ele>1286.0</ele><time>2026-05-03T11:07:39.984Z</time></trkpt><trkpt lat="46.4574805" lon="12.5120244"><ele>1283.0</ele><time>2026-05-03T11:07:40.984Z</time></trkpt><trkpt lat="46.4576035" lon="12.5119439"><ele>1280.0</ele><time>2026-05-03T11:07:41.984Z</time></trkpt><trkpt lat="46.4577272" lon="12.5118593"><ele>1277.0</ele><time>2026-05-03T11:07:42.984Z</time></trkpt><trkpt lat="46.4578521" lon="12.5117747"><ele>1274.0</ele><time>2026-05-03T11:07:43.984Z</time></trkpt><trkpt lat="46.457976" lon="12.511692"><ele>1274.0</ele><time>2026-05-03T11:07:44.984Z</time></trkpt><trkpt lat="46.458097" lon="12.5116136"><ele>1274.0</ele><time>2026-05-03T11:07:45.985Z</time></trkpt><trkpt lat="46.4582182" lon="12.5115374"><ele>1274.0</ele><time>2026-05-03T11:07:46.984Z</time></trkpt><trkpt lat="46.4583327" lon="12.5114649"><ele>1274.0</ele><time>2026-05-03T11:07:47.984Z</time></trkpt><trkpt lat="46.4584324" lon="12.5113864"><ele>1274.0</ele><time>2026-05-03T11:07:48.984Z</time></trkpt><trkpt lat="46.4585101" lon="12.5112723"><ele>1274.0</ele><time>2026-05-03T11:07:49.984Z</time></trkpt><trkpt lat="46.4585604" lon="12.5111349"><ele>1274.0</ele><time>2026-05-03T11:07:50.984Z</time></trkpt><trkpt lat="46.4585811" lon="12.5109809"><ele>1274.0</ele><time>2026-05-03T11:07:51.985Z</time></trkpt><trkpt lat="46.4585732" lon="12.5108207"><ele>1274.0</ele><time>2026-05-03T11:07:52.983Z</time></trkpt><trkpt lat="46.4585587" lon="12.5106552"><ele>1271.75</ele><time>2026-05-03T11:07:53.984Z</time></trkpt><trkpt lat="46.4585512" lon="12.5104821"><ele>1269.5</ele><time>2026-05-03T11:07:54.983Z</time></trkpt><trkpt lat="46.4585641" lon="12.5103124"><ele>1267.25</ele><time>2026-05-03T11:07:55.984Z</time></trkpt><trkpt lat="46.4586063" lon="12.5101521"><ele>1265.0</ele><time>2026-05-03T11:07:56.983Z</time></trkpt><trkpt lat="46.4586705" lon="12.5100159"><ele>1264.75</ele><time>2026-05-03T11:07:57.984Z</time></trkpt><trkpt lat="46.4587592" lon="12.5099057"><ele>1264.5</ele><time>2026-05-03T11:07:58.983Z</time></trkpt><trkpt lat="46.4588643" lon="12.5098291"><ele>1264.25</ele><time>2026-05-03T11:07:59.984Z</time></trkpt><trkpt lat="46.4589847" lon="12.5098013"><ele>1264.0</ele><time>2026-05-03T11:08:00.984Z</time></trkpt><trkpt lat="46.4591038" lon="12.5097829"><ele>1264.0</ele><time>2026-05-03T11:08:01.984Z</time></trkpt><trkpt lat="46.459218" lon="12.5097216"><ele>1264.0</ele><time>2026-05-03T11:08:02.983Z</time></trkpt><trkpt lat="46.4593225" lon="12.5096151"><ele>1264.0</ele><time>2026-05-03T11:08:03.984Z</time></trkpt><trkpt lat="46.4594222" lon="12.5094731"><ele>1264.0</ele><time>2026-05-03T11:08:04.985Z</time></trkpt><trkpt lat="46.4595288" lon="12.5093283"><ele>1262.25</ele><time>2026-05-03T11:08:05.984Z</time></trkpt><trkpt lat="46.4596363" lon="12.5091772"><ele>1260.5</ele><time>2026-05-03T11:08:06.985Z</time></trkpt><trkpt lat="46.4597405" lon="12.5090286"><ele>1258.75</ele><time>2026-05-03T11:08:07.983Z</time></trkpt><trkpt lat="46.4598445" lon="12.508875"><ele>1257.0</ele><time>2026-05-03T11:08:08.984Z</time></trkpt><trkpt lat="46.4599408" lon="12.5087128"><ele>1254.0</ele><time>2026-05-03T11:08:09.984Z</time></trkpt><trkpt lat="46.460023" lon="12.5085327"><ele>1251.0</ele><time>2026-05-03T11:08:10.984Z</time></trkpt><trkpt lat="46.4601012" lon="12.5083467"><ele>1248.0</ele><time>2026-05-03T11:08:11.984Z</time></trkpt><trkpt lat="46.4601744" lon="12.5081583"><ele>1245.0</ele><time>2026-05-03T11:08:12.984Z</time></trkpt><trkpt lat="46.4602468" lon="12.5079767"><ele>1244.75</ele><time>2026-05-03T11:08:13.985Z</time></trkpt><trkpt lat="46.4603187" lon="12.5077943"><ele>1244.5</ele><time>2026-05-03T11:08:14.983Z</time></trkpt><trkpt lat="46.4603867" lon="12.5076201"><ele>1244.25</ele><time>2026-05-03T11:08:15.983Z</time></trkpt><trkpt lat="46.4604589" lon="12.5074548"><ele>1244.0</ele><time>2026-05-03T11:08:16.984Z</time></trkpt><trkpt lat="46.4605464" lon="12.5073101"><ele>1243.5</ele><time>2026-05-03T11:08:17.983Z</time></trkpt><trkpt lat="46.4606473" lon="12.5071988"><ele>1243.0</ele><time>2026-05-03T11:08:18.984Z</time></trkpt><trkpt lat="46.4607618" lon="12.5071271"><ele>1242.5</ele><time>2026-05-03T11:08:19.984Z</time></trkpt><trkpt lat="46.4608755" lon="12.5070843"><ele>1242.0</ele><time>2026-05-03T11:08:20.983Z</time></trkpt><trkpt lat="46.4609772" lon="12.5070568"><ele>1242.0</ele><time>2026-05-03T11:08:21.984Z</time></trkpt><trkpt lat="46.4610606" lon="12.5069935"><ele>1242.0</ele><time>2026-05-03T11:08:22.984Z</time></trkpt><trkpt lat="46.4611182" lon="12.506886"><ele>1242.0</ele><time>2026-05-03T11:08:23.985Z</time></trkpt><trkpt lat="46.4611391" lon="12.5067494"><ele>1242.0</ele><time>2026-05-03T11:08:24.984Z</time></trkpt><trkpt lat="46.4611326" lon="12.5065862"><ele>1242.0</ele><time>2026-05-03T11:08:25.984Z</time></trkpt><trkpt lat="46.461113" lon="12.5063992"><ele>1240.0</ele><time>2026-05-03T11:08:26.984Z</time></trkpt><trkpt lat="46.4610931" lon="12.5061881"><ele>1238.0</ele><time>2026-05-03T11:08:27.984Z</time></trkpt><trkpt lat="46.4610799" lon="12.5059661"><ele>1236.0</ele><time>2026-05-03T11:08:28.983Z</time></trkpt><trkpt lat="46.4610737" lon="12.5057362"><ele>1236.0</ele><time>2026-05-03T11:08:29.984Z</time></trkpt><trkpt lat="46.4610721" lon="12.5055144"><ele>1236.0</ele><time>2026-05-03T11:08:30.984Z</time></trkpt><trkpt lat="46.4610736" lon="12.5052998"><ele>1236.0</ele><time>2026-05-03T11:08:31.984Z</time></trkpt><trkpt lat="46.4610791" lon="12.5051059"><ele>1236.0</ele><time>2026-05-03T11:08:32.984Z</time></trkpt><trkpt lat="46.4610923" lon="12.5049262"><ele>1234.25</ele><time>2026-05-03T11:08:33.984Z</time></trkpt><trkpt lat="46.4611337" lon="12.5047689"><ele>1232.5</ele><time>2026-05-03T11:08:34.984Z</time></trkpt><trkpt lat="46.4612066" lon="12.5046471"><ele>1230.75</ele><time>2026-05-03T11:08:35.984Z</time></trkpt><trkpt lat="46.4613079" lon="12.5045577"><ele>1229.0</ele><time>2026-05-03T11:08:36.984Z</time></trkpt><trkpt lat="46.4614335" lon="12.5044944"><ele>1227.5</ele><time>2026-05-03T11:08:37.984Z</time></trkpt><trkpt lat="46.4615723" lon="12.5044405"><ele>1226.0</ele><time>2026-05-03T11:08:38.984Z</time></trkpt><trkpt lat="46.4617157" lon="12.5043957"><ele>1224.5</ele><time>2026-05-03T11:08:39.984Z</time></trkpt><trkpt lat="46.4618577" lon="12.5043664"><ele>1223.0</ele><time>2026-05-03T11:08:40.983Z</time></trkpt><trkpt lat="46.4619974" lon="12.5043772"><ele>1225.4</ele><time>2026-05-03T11:08:41.984Z</time></trkpt><trkpt lat="46.462121" lon="12.5044083"><ele>1227.8</ele><time>2026-05-03T11:08:42.984Z</time></trkpt><trkpt lat="46.462239" lon="12.5044374"><ele>1230.2</ele><time>2026-05-03T11:08:43.984Z</time></trkpt><trkpt lat="46.462352" lon="12.504464"><ele>1232.6</ele><time>2026-05-03T11:08:44.984Z</time></trkpt><trkpt lat="46.4624137" lon="12.5044218"><ele>1235.0</ele><time>2026-05-03T11:08:45.984Z</time></trkpt><trkpt lat="46.4624937" lon="12.5043531"><ele>1235.0</ele><time>2026-05-03T11:08:46.984Z</time></trkpt><trkpt lat="46.4625337" lon="12.5042274"><ele>1235.0</ele><time>2026-05-03T11:08:47.984Z</time></trkpt><trkpt lat="46.4625289" lon="12.5040834"><ele>1235.0</ele><time>2026-05-03T11:08:48.984Z</time></trkpt><trkpt lat="46.462487" lon="12.5039328"><ele>1235.0</ele><time>2026-05-03T11:08:49.984Z</time></trkpt><trkpt lat="46.4624337" lon="12.5037568"><ele>1235.0</ele><time>2026-05-03T11:08:50.983Z</time></trkpt><trkpt lat="46.4623824" lon="12.5035675"><ele>1233.3333333333335</ele><time>2026-05-03T11:08:51.984Z</time></trkpt><trkpt lat="46.4623494" lon="12.5033605"><ele>1231.6666666666667</ele><time>2026-05-03T11:08:52.984Z</time></trkpt><trkpt lat="46.4623326" lon="12.5031387"><ele>1230.0</ele><time>2026-05-03T11:08:53.984Z</time></trkpt><trkpt lat="46.4623216" lon="12.5029145"><ele>1227.0</ele><time>2026-05-03T11:08:54.984Z</time></trkpt><trkpt lat="46.4623268" lon="12.5026935"><ele>1224.0</ele><time>2026-05-03T11:08:55.984Z</time></trkpt><trkpt lat="46.4623459" lon="12.502501"><ele>1221.0</ele><time>2026-05-03T11:08:56.983Z</time></trkpt><trkpt lat="46.4623821" lon="12.5023415"><ele>1218.0</ele><time>2026-05-03T11:08:57.983Z</time></trkpt><trkpt lat="46.4624463" lon="12.5022045"><ele>1218.0</ele><time>2026-05-03T11:08:58.983Z</time></trkpt><trkpt lat="46.4625338" lon="12.5021038"><ele>1218.0</ele><time>2026-05-03T11:08:59.984Z</time></trkpt><trkpt lat="46.4626342" lon="12.5020345"><ele>1218.0</ele><time>2026-05-03T11:09:00.985Z</time></trkpt><trkpt lat="46.4627347" lon="12.5019762"><ele>1218.0</ele><time>2026-05-03T11:09:01.983Z</time></trkpt><trkpt lat="46.462823" lon="12.5018804"><ele>1218.0</ele><time>2026-05-03T11:09:02.983Z</time></trkpt><trkpt lat="46.462881" lon="12.501747"><ele>1216.2</ele><time>2026-05-03T11:09:03.984Z</time></trkpt><trkpt lat="46.4629017" lon="12.5016042"><ele>1214.4</ele><time>2026-05-03T11:09:04.984Z</time></trkpt><trkpt lat="46.4628734" lon="12.5014711"><ele>1212.6000000000001</ele><time>2026-05-03T11:09:05.984Z</time></trkpt><trkpt lat="46.4627961" lon="12.5013673"><ele>1210.8</ele><time>2026-05-03T11:09:06.983Z</time></trkpt><trkpt lat="46.4626889" lon="12.5012666"><ele>1209.0</ele><time>2026-05-03T11:09:07.983Z</time></trkpt><trkpt lat="46.4625836" lon="12.5011425"><ele>1209.0</ele><time>2026-05-03T11:09:08.984Z</time></trkpt><trkpt lat="46.4624878" lon="12.5010083"><ele>1209.0</ele><time>2026-05-03T11:09:09.984Z</time></trkpt><trkpt lat="46.4624185" lon="12.5008483"><ele>1209.0</ele><time>2026-05-03T11:09:10.983Z</time></trkpt><trkpt lat="46.4623735" lon="12.5006753"><ele>1209.0</ele><time>2026-05-03T11:09:11.983Z</time></trkpt><trkpt lat="46.4623451" lon="12.5004983"><ele>1208.75</ele><time>2026-05-03T11:09:12.984Z</time></trkpt><trkpt lat="46.4623431" lon="12.5003118"><ele>1208.5</ele><time>2026-05-03T11:09:13.984Z</time></trkpt><trkpt lat="46.4623645" lon="12.5001107"><ele>1208.25</ele><time>2026-05-03T11:09:14.984Z</time></trkpt><trkpt lat="46.4623868" lon="12.4999049"><ele>1208.0</ele><time>2026-05-03T11:09:15.984Z</time></trkpt><trkpt lat="46.4624079" lon="12.4997045"><ele>1204.0</ele><time>2026-05-03T11:09:16.984Z</time></trkpt><trkpt lat="46.462442" lon="12.4995111"><ele>1200.0</ele><time>2026-05-03T11:09:17.984Z</time></trkpt><trkpt lat="46.462504" lon="12.4993354"><ele>1196.0</ele><time>2026-05-03T11:09:18.984Z</time></trkpt><trkpt lat="46.4625908" lon="12.4991777"><ele>1192.0</ele><time>2026-05-03T11:09:19.984Z</time></trkpt><trkpt lat="46.4626936" lon="12.4990315"><ele>1192.0</ele><time>2026-05-03T11:09:20.984Z</time></trkpt><trkpt lat="46.4627972" lon="12.4988795"><ele>1192.0</ele><time>2026-05-03T11:09:21.984Z</time></trkpt><trkpt lat="46.462901" lon="12.498735"><ele>1192.0</ele><time>2026-05-03T11:09:22.985Z</time></trkpt><trkpt lat="46.4629915" lon="12.4985837"><ele>1192.0</ele><time>2026-05-03T11:09:23.984Z</time></trkpt><trkpt lat="46.4630468" lon="12.4984042"><ele>1193.5</ele><time>2026-05-03T11:09:24.984Z</time></trkpt><trkpt lat="46.46307" lon="12.4982044"><ele>1195.0</ele><time>2026-05-03T11:09:25.983Z</time></trkpt><trkpt lat="46.46306" lon="12.4979968"><ele>1196.5</ele><time>2026-05-03T11:09:26.984Z</time></trkpt><trkpt lat="46.463028" lon="12.4977984"><ele>1198.0</ele><time>2026-05-03T11:09:27.984Z</time></trkpt><trkpt lat="46.4629894" lon="12.497602"><ele>1198.0</ele><time>2026-05-03T11:09:28.983Z</time></trkpt><trkpt lat="46.4629714" lon="12.4974253"><ele>1198.0</ele><time>2026-05-03T11:09:29.984Z</time></trkpt><trkpt lat="46.4629893" lon="12.4972545"><ele>1198.0</ele><time>2026-05-03T11:09:30.983Z</time></trkpt><trkpt lat="46.4630443" lon="12.497109"><ele>1198.0</ele><time>2026-05-03T11:09:31.984Z</time></trkpt><trkpt lat="46.463127" lon="12.4969896"><ele>1196.6</ele><time>2026-05-03T11:09:32.984Z</time></trkpt><trkpt lat="46.4632261" lon="12.4969138"><ele>1195.1999999999998</ele><time>2026-05-03T11:09:33.984Z</time></trkpt><trkpt lat="46.4633295" lon="12.496884"><ele>1193.8</ele><time>2026-05-03T11:09:34.983Z</time></trkpt><trkpt lat="46.4634221" lon="12.4968234"><ele>1192.3999999999999</ele><time>2026-05-03T11:09:35.983Z</time></trkpt><trkpt lat="46.463496" lon="12.4967237"><ele>1191.0</ele><time>2026-05-03T11:09:36.983Z</time></trkpt><trkpt lat="46.4635377" lon="12.4965911"><ele>1191.0</ele><time>2026-05-03T11:09:37.983Z</time></trkpt><trkpt lat="46.4635362" lon="12.4964452"><ele>1191.0</ele><time>2026-05-03T11:09:38.983Z</time></trkpt><trkpt lat="46.4634893" lon="12.4963051"><ele>1191.0</ele><time>2026-05-03T11:09:39.983Z</time></trkpt><trkpt lat="46.4634215" lon="12.496181"><ele>1191.0</ele><time>2026-05-03T11:09:40.984Z</time></trkpt><trkpt lat="46.4633601" lon="12.4960468"><ele>1191.0</ele><time>2026-05-03T11:09:41.985Z</time></trkpt><trkpt lat="46.4633275" lon="12.4958956"><ele>1190.3999999999999</ele><time>2026-05-03T11:09:42.985Z</time></trkpt><trkpt lat="46.4633263" lon="12.495738"><ele>1189.8</ele><time>2026-05-03T11:09:43.983Z</time></trkpt><trkpt lat="46.4633547" lon="12.4955898"><ele>1189.1999999999998</ele><time>2026-05-03T11:09:44.985Z</time></trkpt><trkpt lat="46.4634091" lon="12.495464"><ele>1188.6</ele><time>2026-05-03T11:09:45.984Z</time></trkpt><trkpt lat="46.4634649" lon="12.4953547"><ele>1188.0</ele><time>2026-05-03T11:09:46.984Z</time></trkpt><trkpt lat="46.4634987" lon="12.4952455"><ele>1186.6666666666667</ele><time>2026-05-03T11:09:47.984Z</time></trkpt><trkpt lat="46.4635006" lon="12.4951335"><ele>1185.3333333333333</ele><time>2026-05-03T11:09:48.984Z</time></trkpt><trkpt lat="46.4634581" lon="12.4950453"><ele>1184.0</ele><time>2026-05-03T11:09:49.984Z</time></trkpt><trkpt lat="46.4633905" lon="12.4950132"><ele>1182.6666666666665</ele><time>2026-05-03T11:09:50.984Z</time></trkpt><trkpt lat="46.4633189" lon="12.4950477"><ele>1181.3333333333333</ele><time>2026-05-03T11:09:51.983Z</time></trkpt><trkpt lat="46.4632638" lon="12.4951447"><ele>1180.0</ele><time>2026-05-03T11:09:52.983Z</time></trkpt><trkpt lat="46.4632223" lon="12.4952746"><ele>1182.0</ele><time>2026-05-03T11:09:53.983Z</time></trkpt><trkpt lat="46.4631879" lon="12.4954358"><ele>1184.0</ele><time>2026-05-03T11:09:54.983Z</time></trkpt><trkpt lat="46.4631713" lon="12.4956073"><ele>1186.0</ele><time>2026-05-03T11:09:55.983Z</time></trkpt><trkpt lat="46.4631684" lon="12.4957811"><ele>1188.0</ele><time>2026-05-03T11:09:56.983Z</time></trkpt><trkpt lat="46.4631677" lon="12.4959488"><ele>1188.0</ele><time>2026-05-03T11:09:57.984Z</time></trkpt><trkpt lat="46.4631636" lon="12.4961109"><ele>1188.0</ele><time>2026-05-03T11:09:58.985Z</time></trkpt><trkpt lat="46.4631432" lon="12.4962532"><ele>1188.0</ele><time>2026-05-03T11:09:59.984Z</time></trkpt><trkpt lat="46.4630867" lon="12.4963616"><ele>1188.0</ele><time>2026-05-03T11:10:00.984Z</time></trkpt><trkpt lat="46.4630084" lon="12.4964277"><ele>1188.0</ele><time>2026-05-03T11:10:01.983Z</time></trkpt><trkpt lat="46.462917" lon="12.4964455"><ele>1184.8</ele><time>2026-05-03T11:10:02.983Z</time></trkpt><trkpt lat="46.4628235" lon="12.4964427"><ele>1181.6</ele><time>2026-05-03T11:10:03.983Z</time></trkpt><trkpt lat="46.4627284" lon="12.4964551"><ele>1178.4</ele><time>2026-05-03T11:10:04.983Z</time></trkpt><trkpt lat="46.46264" lon="12.4964842"><ele>1175.2</ele><time>2026-05-03T11:10:05.985Z</time></trkpt><trkpt lat="46.4625534" lon="12.4965312"><ele>1172.0</ele><time>2026-05-03T11:10:06.983Z</time></trkpt><trkpt lat="46.4624705" lon="12.4965878"><ele>1172.0</ele><time>2026-05-03T11:10:07.984Z</time></trkpt><trkpt lat="46.4623902" lon="12.4966539"><ele>1172.0</ele><time>2026-05-03T11:10:08.984Z</time></trkpt><trkpt lat="46.4623215" lon="12.496734"><ele>1172.0</ele><time>2026-05-03T11:10:09.984Z</time></trkpt><trkpt lat="46.4622691" lon="12.4968341"><ele>1172.0</ele><time>2026-05-03T11:10:10.983Z</time></trkpt><trkpt lat="46.4622307" lon="12.4969483"><ele>1172.0</ele><time>2026-05-03T11:10:11.984Z</time></trkpt><trkpt lat="46.4622043" lon="12.4970715"><ele>1172.0</ele><time>2026-05-03T11:10:12.984Z</time></trkpt><trkpt lat="46.462179" lon="12.4972021"><ele>1172.4</ele><time>2026-05-03T11:10:13.984Z</time></trkpt><trkpt lat="46.4621508" lon="12.4973397"><ele>1172.8000000000002</ele><time>2026-05-03T11:10:14.984Z</time></trkpt><trkpt lat="46.462123" lon="12.4974873"><ele>1173.2</ele><time>2026-05-03T11:10:15.984Z</time></trkpt><trkpt lat="46.462093" lon="12.4976344"><ele>1173.6000000000001</ele><time>2026-05-03T11:10:16.984Z</time></trkpt><trkpt lat="46.4620615" lon="12.497779"><ele>1174.0</ele><time>2026-05-03T11:10:17.984Z</time></trkpt><trkpt lat="46.4620284" lon="12.4979273"><ele>1171.6000000000001</ele><time>2026-05-03T11:10:18.984Z</time></trkpt><trkpt lat="46.4619999" lon="12.4980758"><ele>1169.2</ele><time>2026-05-03T11:10:19.983Z</time></trkpt><trkpt lat="46.4619726" lon="12.4982245"><ele>1166.8000000000002</ele><time>2026-05-03T11:10:20.984Z</time></trkpt><trkpt lat="46.4619462" lon="12.4983697"><ele>1164.4</ele><time>2026-05-03T11:10:21.985Z</time></trkpt><trkpt lat="46.4619089" lon="12.4985022"><ele>1162.0</ele><time>2026-05-03T11:10:22.983Z</time></trkpt><trkpt lat="46.4618479" lon="12.4986067"><ele>1162.0</ele><time>2026-05-03T11:10:23.984Z</time></trkpt><trkpt lat="46.4617732" lon="12.4986762"><ele>1162.0</ele><time>2026-05-03T11:10:24.984Z</time></trkpt><trkpt lat="46.4616792" lon="12.4986896"><ele>1162.0</ele><time>2026-05-03T11:10:25.983Z</time></trkpt><trkpt lat="46.4615917" lon="12.4986557"><ele>1162.0</ele><time>2026-05-03T11:10:26.983Z</time></trkpt><trkpt lat="46.4615149" lon="12.4985656"><ele>1162.0</ele><time>2026-05-03T11:10:27.983Z</time></trkpt><trkpt lat="46.4614754" lon="12.4984302"><ele>1162.0</ele><time>2026-05-03T11:10:28.983Z</time></trkpt><trkpt lat="46.4614563" lon="12.4982621"><ele>1162.0</ele><time>2026-05-03T11:10:29.983Z</time></trkpt><trkpt lat="46.4614353" lon="12.4980706"><ele>1162.0</ele><time>2026-05-03T11:10:30.983Z</time></trkpt><trkpt lat="46.4614086" lon="12.4978738"><ele>1162.0</ele><time>2026-05-03T11:10:31.983Z</time></trkpt><trkpt lat="46.4613821" lon="12.497675"><ele>1161.25</ele><time>2026-05-03T11:10:32.984Z</time></trkpt><trkpt lat="46.4613545" lon="12.4974816"><ele>1160.5</ele><time>2026-05-03T11:10:33.983Z</time></trkpt><trkpt lat="46.4613269" lon="12.4972916"><ele>1159.75</ele><time>2026-05-03T11:10:34.984Z</time></trkpt><trkpt lat="46.4612876" lon="12.4971036"><ele>1159.0</ele><time>2026-05-03T11:10:35.985Z</time></trkpt><trkpt lat="46.4612331" lon="12.4969133"><ele>1157.25</ele><time>2026-05-03T11:10:36.984Z</time></trkpt><trkpt lat="46.461165" lon="12.496725"><ele>1155.5</ele><time>2026-05-03T11:10:37.983Z</time></trkpt><trkpt lat="46.4610922" lon="12.4965363"><ele>1153.75</ele><time>2026-05-03T11:10:38.983Z</time></trkpt><trkpt lat="46.4610216" lon="12.4963493"><ele>1152.0</ele><time>2026-05-03T11:10:39.984Z</time></trkpt><trkpt lat="46.4609483" lon="12.4961745"><ele>1150.75</ele><time>2026-05-03T11:10:40.984Z</time></trkpt><trkpt lat="46.4608741" lon="12.4959958"><ele>1149.5</ele><time>2026-05-03T11:10:41.984Z</time></trkpt><trkpt lat="46.4608012" lon="12.4958219"><ele>1148.25</ele><time>2026-05-03T11:10:42.985Z</time></trkpt><trkpt lat="46.4607327" lon="12.495652"><ele>1147.0</ele><time>2026-05-03T11:10:43.984Z</time></trkpt><trkpt lat="46.4606595" lon="12.495494"><ele>1147.5</ele><time>2026-05-03T11:10:44.984Z</time></trkpt><trkpt lat="46.4605733" lon="12.4953542"><ele>1148.0</ele><time>2026-05-03T11:10:45.983Z</time></trkpt><trkpt lat="46.4604725" lon="12.4952279"><ele>1148.5</ele><time>2026-05-03T11:10:46.984Z</time></trkpt><trkpt lat="46.460371" lon="12.4951137"><ele>1149.0</ele><time>2026-05-03T11:10:47.984Z</time></trkpt><trkpt lat="46.4602787" lon="12.4950194"><ele>1149.0</ele><time>2026-05-03T11:10:48.984Z</time></trkpt><trkpt lat="46.4602012" lon="12.4949397"><ele>1149.0</ele><time>2026-05-03T11:10:49.984Z</time></trkpt><trkpt lat="46.4601492" lon="12.4948548"><ele>1149.0</ele><time>2026-05-03T11:10:50.983Z</time></trkpt><trkpt lat="46.4601323" lon="12.494755"><ele>1149.0</ele><time>2026-05-03T11:10:51.983Z</time></trkpt><trkpt lat="46.4602182" lon="12.4946413"><ele>1149.0</ele><time>2026-05-03T11:10:53.984Z</time></trkpt><trkpt lat="46.4602843" lon="12.494682"><ele>1149.0</ele><time>2026-05-03T11:10:54.984Z</time></trkpt><trkpt lat="46.4603524" lon="12.494766"><ele>1149.0</ele><time>2026-05-03T11:10:55.984Z</time></trkpt><trkpt lat="46.4604383" lon="12.4948788"><ele>1149.0</ele><time>2026-05-03T11:10:56.984Z</time></trkpt><trkpt lat="46.4605531" lon="12.4949892"><ele>1149.0</ele><time>2026-05-03T11:10:57.983Z</time></trkpt><trkpt lat="46.4606694" lon="12.4950977"><ele>1149.0</ele><time>2026-05-03T11:10:58.983Z</time></trkpt><trkpt lat="46.4607843" lon="12.4952069"><ele>1148.6000000000001</ele><time>2026-05-03T11:10:59.983Z</time></trkpt><trkpt lat="46.4608937" lon="12.4953069"><ele>1148.2</ele><time>2026-05-03T11:11:00.984Z</time></trkpt><trkpt lat="46.4609905" lon="12.4953858"><ele>1147.8000000000002</ele><time>2026-05-03T11:11:01.984Z</time></trkpt><trkpt lat="46.4610912" lon="12.4954289"><ele>1147.4</ele><time>2026-05-03T11:11:02.984Z</time></trkpt><trkpt lat="46.461191" lon="12.4954235"><ele>1147.0</ele><time>2026-05-03T11:11:03.984Z</time></trkpt><trkpt lat="46.4612863" lon="12.4953541"><ele>1142.75</ele><time>2026-05-03T11:11:04.984Z</time></trkpt><trkpt lat="46.4613624" lon="12.495232"><ele>1138.5</ele><time>2026-05-03T11:11:05.984Z</time></trkpt><trkpt lat="46.4614367" lon="12.4950877"><ele>1134.25</ele><time>2026-05-03T11:11:06.983Z</time></trkpt><trkpt lat="46.461514" lon="12.4949444"><ele>1130.0</ele><time>2026-05-03T11:11:07.984Z</time></trkpt><trkpt lat="46.4615919" lon="12.4948231"><ele>1130.0</ele><time>2026-05-03T11:11:08.985Z</time></trkpt><trkpt lat="46.4616721" lon="12.4947281"><ele>1130.0</ele><time>2026-05-03T11:11:09.984Z</time></trkpt><trkpt lat="46.461735" lon="12.4946409"><ele>1130.0</ele><time>2026-05-03T11:11:10.984Z</time></trkpt><trkpt lat="46.46177" lon="12.4945344"><ele>1130.0</ele><time>2026-05-03T11:11:11.984Z</time></trkpt><trkpt lat="46.4617696" lon="12.4944296"><ele>1130.0</ele><time>2026-05-03T11:11:12.983Z</time></trkpt><trkpt lat="46.4617228" lon="12.4943494"><ele>1130.0</ele><time>2026-05-03T11:11:13.984Z</time></trkpt><trkpt lat="46.4616501" lon="12.4943251"><ele>1130.0</ele><time>2026-05-03T11:11:14.984Z</time></trkpt><trkpt lat="46.4615762" lon="12.4943728"><ele>1130.0</ele><time>2026-05-03T11:11:15.983Z</time></trkpt><trkpt lat="46.4615272" lon="12.4944758"><ele>1130.0</ele><time>2026-05-03T11:11:16.984Z</time></trkpt><trkpt lat="46.4614898" lon="12.4945877"><ele>1130.0</ele><time>2026-05-03T11:11:17.984Z</time></trkpt><trkpt lat="46.4614247" lon="12.4946753"><ele>1130.0</ele><time>2026-05-03T11:11:18.984Z</time></trkpt><trkpt lat="46.4613481" lon="12.4947316"><ele>1130.0</ele><time>2026-05-03T11:11:19.984Z</time></trkpt><trkpt lat="46.4612665" lon="12.4947544"><ele>1129.4</ele><time>2026-05-03T11:11:20.984Z</time></trkpt><trkpt lat="46.4611846" lon="12.4946977"><ele>1128.8</ele><time>2026-05-03T11:11:21.983Z</time></trkpt><trkpt lat="46.4611261" lon="12.4945752"><ele>1128.2</ele><time>2026-05-03T11:11:22.983Z</time></trkpt><trkpt lat="46.4610709" lon="12.4944263"><ele>1127.6</ele><time>2026-05-03T11:11:23.983Z</time></trkpt><trkpt lat="46.4610151" lon="12.4942578"><ele>1127.0</ele><time>2026-05-03T11:11:24.983Z</time></trkpt><trkpt lat="46.4609594" lon="12.4940921"><ele>1127.0</ele><time>2026-05-03T11:11:25.984Z</time></trkpt><trkpt lat="46.4608944" lon="12.4939311"><ele>1127.0</ele><time>2026-05-03T11:11:26.984Z</time></trkpt><trkpt lat="46.4608154" lon="12.4937879"><ele>1127.0</ele><time>2026-05-03T11:11:27.985Z</time></trkpt><trkpt lat="46.4607249" lon="12.4936673"><ele>1127.0</ele><time>2026-05-03T11:11:28.985Z</time></trkpt><trkpt lat="46.4606296" lon="12.4935712"><ele>1125.0</ele><time>2026-05-03T11:11:29.985Z</time></trkpt><trkpt lat="46.4605403" lon="12.4935023"><ele>1123.0</ele><time>2026-05-03T11:11:30.984Z</time></trkpt><trkpt lat="46.4604761" lon="12.4934288"><ele>1121.0</ele><time>2026-05-03T11:11:31.984Z</time></trkpt><trkpt lat="46.4604533" lon="12.4933288"><ele>1119.0</ele><time>2026-05-03T11:11:32.984Z</time></trkpt><trkpt lat="46.4604819" lon="12.4932393"><ele>1117.0</ele><time>2026-05-03T11:11:33.984Z</time></trkpt><trkpt lat="46.4605473" lon="12.4931919"><ele>1115.0</ele><time>2026-05-03T11:11:34.984Z</time></trkpt><trkpt lat="46.4606371" lon="12.493219"><ele>1115.0</ele><time>2026-05-03T11:11:35.983Z</time></trkpt><trkpt lat="46.4607349" lon="12.4932655"><ele>1115.0</ele><time>2026-05-03T11:11:36.984Z</time></trkpt><trkpt lat="46.4608465" lon="12.4932961"><ele>1115.0</ele><time>2026-05-03T11:11:37.985Z</time></trkpt><trkpt lat="46.4609682" lon="12.4932854"><ele>1115.0</ele><time>2026-05-03T11:11:38.984Z</time></trkpt><trkpt lat="46.4610965" lon="12.4932449"><ele>1115.0</ele><time>2026-05-03T11:11:39.983Z</time></trkpt><trkpt lat="46.461218" lon="12.4931649"><ele>1115.0</ele><time>2026-05-03T11:11:40.983Z</time></trkpt><trkpt lat="46.461339" lon="12.4930592"><ele>1115.0</ele><time>2026-05-03T11:11:41.984Z</time></trkpt><trkpt lat="46.461464" lon="12.492943"><ele>1115.0</ele><time>2026-05-03T11:11:42.984Z</time></trkpt><trkpt lat="46.4615901" lon="12.4928255"><ele>1112.5</ele><time>2026-05-03T11:11:43.984Z</time></trkpt><trkpt lat="46.4617131" lon="12.4927097"><ele>1110.0</ele><time>2026-05-03T11:11:44.983Z</time></trkpt><trkpt lat="46.4618311" lon="12.4925855"><ele>1107.5</ele><time>2026-05-03T11:11:45.984Z</time></trkpt><trkpt lat="46.4619364" lon="12.492433"><ele>1105.0</ele><time>2026-05-03T11:11:46.983Z</time></trkpt><trkpt lat="46.4620252" lon="12.4922485"><ele>1104.3333333333333</ele><time>2026-05-03T11:11:47.984Z</time></trkpt><trkpt lat="46.4621123" lon="12.4920557"><ele>1103.6666666666667</ele><time>2026-05-03T11:11:48.984Z</time></trkpt><trkpt lat="46.4621987" lon="12.4918536"><ele>1103.0</ele><time>2026-05-03T11:11:49.984Z</time></trkpt><trkpt lat="46.4622878" lon="12.4916583"><ele>1103.0</ele><time>2026-05-03T11:11:50.984Z</time></trkpt><trkpt lat="46.4623853" lon="12.4914856"><ele>1103.0</ele><time>2026-05-03T11:11:51.984Z</time></trkpt><trkpt lat="46.4624926" lon="12.4913409"><ele>1103.0</ele><time>2026-05-03T11:11:52.984Z</time></trkpt><trkpt lat="46.4626069" lon="12.4912319"><ele>1103.0</ele><time>2026-05-03T11:11:53.985Z</time></trkpt><trkpt lat="46.4627189" lon="12.4911459"><ele>1101.0</ele><time>2026-05-03T11:11:54.983Z</time></trkpt><trkpt lat="46.4628174" lon="12.491051"><ele>1099.0</ele><time>2026-05-03T11:11:55.985Z</time></trkpt><trkpt lat="46.4628974" lon="12.4909238"><ele>1097.0</ele><time>2026-05-03T11:11:56.984Z</time></trkpt><trkpt lat="46.4629455" lon="12.4907553"><ele>1095.0</ele><time>2026-05-03T11:11:57.984Z</time></trkpt><trkpt lat="46.4629765" lon="12.490562"><ele>1101.3333333333333</ele><time>2026-05-03T11:11:58.984Z</time></trkpt><trkpt lat="46.4630003" lon="12.4903473"><ele>1107.6666666666665</ele><time>2026-05-03T11:11:59.984Z</time></trkpt><trkpt lat="46.4630369" lon="12.4901288"><ele>1114.0</ele><time>2026-05-03T11:12:00.984Z</time></trkpt><trkpt lat="46.4630902" lon="12.4899013"><ele>1114.0</ele><time>2026-05-03T11:12:01.983Z</time></trkpt><trkpt lat="46.4631539" lon="12.4896717"><ele>1114.0</ele><time>2026-05-03T11:12:02.984Z</time></trkpt><trkpt lat="46.4632153" lon="12.4894371"><ele>1114.0</ele><time>2026-05-03T11:12:03.984Z</time></trkpt><trkpt lat="46.4632652" lon="12.4891806"><ele>1108.3333333333333</ele><time>2026-05-03T11:12:04.984Z</time></trkpt><trkpt lat="46.4633127" lon="12.4889224"><ele>1102.6666666666667</ele><time>2026-05-03T11:12:05.983Z</time></trkpt><trkpt lat="46.4633651" lon="12.4886567"><ele>1097.0</ele><time>2026-05-03T11:12:06.983Z</time></trkpt><trkpt lat="46.4634289" lon="12.4883957"><ele>1093.0</ele><time>2026-05-03T11:12:07.984Z</time></trkpt><trkpt lat="46.4635039" lon="12.4881479"><ele>1089.0</ele><time>2026-05-03T11:12:08.984Z</time></trkpt><trkpt lat="46.4635788" lon="12.4879048"><ele>1085.0</ele><time>2026-05-03T11:12:09.984Z</time></trkpt><trkpt lat="46.4636439" lon="12.487662"><ele>1082.3333333333335</ele><time>2026-05-03T11:12:10.984Z</time></trkpt><trkpt lat="46.4636921" lon="12.4874033"><ele>1079.6666666666667</ele><time>2026-05-03T11:12:11.983Z</time></trkpt><trkpt lat="46.4637237" lon="12.4871307"><ele>1077.0</ele><time>2026-05-03T11:12:12.983Z</time></trkpt><trkpt lat="46.4637493" lon="12.4868581"><ele>1075.6666666666667</ele><time>2026-05-03T11:12:13.984Z</time></trkpt><trkpt lat="46.4637773" lon="12.4865841"><ele>1074.3333333333335</ele><time>2026-05-03T11:12:14.984Z</time></trkpt><trkpt lat="46.463806" lon="12.4863113"><ele>1073.0</ele><time>2026-05-03T11:12:15.984Z</time></trkpt><trkpt lat="46.4638348" lon="12.4860372"><ele>1078.6666666666667</ele><time>2026-05-03T11:12:16.984Z</time></trkpt><trkpt lat="46.4638631" lon="12.485768"><ele>1084.3333333333333</ele><time>2026-05-03T11:12:17.984Z</time></trkpt><trkpt lat="46.4638857" lon="12.4855061"><ele>1090.0</ele><time>2026-05-03T11:12:18.983Z</time></trkpt><trkpt lat="46.4638995" lon="12.4852487"><ele>1090.0</ele><time>2026-05-03T11:12:19.985Z</time></trkpt><trkpt lat="46.4639078" lon="12.4849974"><ele>1090.0</ele><time>2026-05-03T11:12:20.984Z</time></trkpt><trkpt lat="46.4639138" lon="12.4847499"><ele>1090.0</ele><time>2026-05-03T11:12:21.983Z</time></trkpt><trkpt lat="46.4639202" lon="12.4845097"><ele>1086.6666666666665</ele><time>2026-05-03T11:12:22.984Z</time></trkpt><trkpt lat="46.4639281" lon="12.4842689"><ele>1083.3333333333333</ele><time>2026-05-03T11:12:23.984Z</time></trkpt><trkpt lat="46.463932" lon="12.4840362"><ele>1080.0</ele><time>2026-05-03T11:12:24.983Z</time></trkpt><trkpt lat="46.4639319" lon="12.483808"><ele>1079.6666666666667</ele><time>2026-05-03T11:12:25.984Z</time></trkpt><trkpt lat="46.4639229" lon="12.4835763"><ele>1079.3333333333335</ele><time>2026-05-03T11:12:26.983Z</time></trkpt><trkpt lat="46.4639021" lon="12.4833466"><ele>1079.0</ele><time>2026-05-03T11:12:27.983Z</time></trkpt><trkpt lat="46.4638795" lon="12.4831323"><ele>1078.5</ele><time>2026-05-03T11:12:28.984Z</time></trkpt><trkpt lat="46.4638554" lon="12.4829287"><ele>1078.0</ele><time>2026-05-03T11:12:29.984Z</time></trkpt><trkpt lat="46.4638352" lon="12.4827313"><ele>1077.5</ele><time>2026-05-03T11:12:30.984Z</time></trkpt><trkpt lat="46.4638217" lon="12.4825436"><ele>1077.0</ele><time>2026-05-03T11:12:31.984Z</time></trkpt><trkpt lat="46.4638326" lon="12.4823554"><ele>1077.0</ele><time>2026-05-03T11:12:32.983Z</time></trkpt><trkpt lat="46.4638712" lon="12.4821634"><ele>1077.0</ele><time>2026-05-03T11:12:33.984Z</time></trkpt><trkpt lat="46.4639245" lon="12.4819501"><ele>1077.0</ele><time>2026-05-03T11:12:34.983Z</time></trkpt><trkpt lat="46.4639804" lon="12.4817284"><ele>1075.0</ele><time>2026-05-03T11:12:35.983Z</time></trkpt><trkpt lat="46.4640379" lon="12.4815072"><ele>1073.0</ele><time>2026-05-03T11:12:36.983Z</time></trkpt><trkpt lat="46.464094" lon="12.481297"><ele>1071.0</ele><time>2026-05-03T11:12:37.983Z</time></trkpt><trkpt lat="46.4641422" lon="12.4811073"><ele>1069.0</ele><time>2026-05-03T11:12:38.983Z</time></trkpt><trkpt lat="46.4641775" lon="12.4809226"><ele>1067.0</ele><time>2026-05-03T11:12:39.982Z</time></trkpt><trkpt lat="46.4641832" lon="12.4807386"><ele>1065.0</ele><time>2026-05-03T11:12:40.983Z</time></trkpt><trkpt lat="46.4641653" lon="12.4805586"><ele>1063.0</ele><time>2026-05-03T11:12:41.983Z</time></trkpt><trkpt lat="46.4641474" lon="12.4803805"><ele>1061.75</ele><time>2026-05-03T11:12:42.983Z</time></trkpt><trkpt lat="46.4641499" lon="12.4801904"><ele>1060.5</ele><time>2026-05-03T11:12:43.983Z</time></trkpt><trkpt lat="46.4641727" lon="12.4799906"><ele>1059.25</ele><time>2026-05-03T11:12:44.983Z</time></trkpt><trkpt lat="46.4642031" lon="12.4798015"><ele>1058.0</ele><time>2026-05-03T11:12:45.982Z</time></trkpt><trkpt lat="46.464249" lon="12.47963"><ele>1056.0</ele><time>2026-05-03T11:12:46.982Z</time></trkpt><trkpt lat="46.46432" lon="12.4794919"><ele>1054.0</ele><time>2026-05-03T11:12:47.984Z</time></trkpt><trkpt lat="46.4643981" lon="12.479376"><ele>1052.0</ele><time>2026-05-03T11:12:48.983Z</time></trkpt><trkpt lat="46.4644533" lon="12.4792407"><ele>1050.0</ele><time>2026-05-03T11:12:49.983Z</time></trkpt><trkpt lat="46.4644754" lon="12.4790856"><ele>1048.0</ele><time>2026-05-03T11:12:50.983Z</time></trkpt><trkpt lat="46.4644687" lon="12.4789337"><ele>1048.0</ele><time>2026-05-03T11:12:51.982Z</time></trkpt><trkpt lat="46.464458" lon="12.4787892"><ele>1048.0</ele><time>2026-05-03T11:12:52.982Z</time></trkpt><trkpt lat="46.4644829" lon="12.4786576"><ele>1048.0</ele><time>2026-05-03T11:12:53.984Z</time></trkpt><trkpt lat="46.4645516" lon="12.4785534"><ele>1048.0</ele><time>2026-05-03T11:12:54.983Z</time></trkpt><trkpt lat="46.4646523" lon="12.4784775"><ele>1048.0</ele><time>2026-05-03T11:12:55.983Z</time></trkpt><trkpt lat="46.4647734" lon="12.4784049"><ele>1047.0</ele><time>2026-05-03T11:12:56.982Z</time></trkpt><trkpt lat="46.4649039" lon="12.4783113"><ele>1046.0</ele><time>2026-05-03T11:12:57.982Z</time></trkpt><trkpt lat="46.4650314" lon="12.4781984"><ele>1045.0</ele><time>2026-05-03T11:12:58.983Z</time></trkpt><trkpt lat="46.4651488" lon="12.4780727"><ele>1044.0</ele><time>2026-05-03T11:12:59.983Z</time></trkpt><trkpt lat="46.4652582" lon="12.4779457"><ele>1045.75</ele><time>2026-05-03T11:13:00.983Z</time></trkpt><trkpt lat="46.4653544" lon="12.4778129"><ele>1047.5</ele><time>2026-05-03T11:13:01.982Z</time></trkpt><trkpt lat="46.4654252" lon="12.4776489"><ele>1049.25</ele><time>2026-05-03T11:13:02.983Z</time></trkpt><trkpt lat="46.4654703" lon="12.4774556"><ele>1051.0</ele><time>2026-05-03T11:13:03.983Z</time></trkpt><trkpt lat="46.4655055" lon="12.4772441"><ele>1047.25</ele><time>2026-05-03T11:13:04.983Z</time></trkpt><trkpt lat="46.4655419" lon="12.4770395"><ele>1043.5</ele><time>2026-05-03T11:13:05.984Z</time></trkpt><trkpt lat="46.4655846" lon="12.4768396"><ele>1039.75</ele><time>2026-05-03T11:13:06.983Z</time></trkpt><trkpt lat="46.4656473" lon="12.4766573"><ele>1036.0</ele><time>2026-05-03T11:13:07.984Z</time></trkpt><trkpt lat="46.4657356" lon="12.4764818"><ele>1036.0</ele><time>2026-05-03T11:13:08.983Z</time></trkpt><trkpt lat="46.4658347" lon="12.4763105"><ele>1036.0</ele><time>2026-05-03T11:13:09.982Z</time></trkpt><trkpt lat="46.4659318" lon="12.4761426"><ele>1036.0</ele><time>2026-05-03T11:13:10.982Z</time></trkpt><trkpt lat="46.4660322" lon="12.4759836"><ele>1036.25</ele><time>2026-05-03T11:13:11.984Z</time></trkpt><trkpt lat="46.4661286" lon="12.4758279"><ele>1036.5</ele><time>2026-05-03T11:13:12.983Z</time></trkpt><trkpt lat="46.4662201" lon="12.475672"><ele>1036.75</ele><time>2026-05-03T11:13:13.982Z</time></trkpt><trkpt lat="46.4662919" lon="12.4754925"><ele>1037.0</ele><time>2026-05-03T11:13:14.983Z</time></trkpt><trkpt lat="46.4663381" lon="12.4752808"><ele>1037.0</ele><time>2026-05-03T11:13:15.983Z</time></trkpt><trkpt lat="46.4663641" lon="12.4750403"><ele>1037.0</ele><time>2026-05-03T11:13:16.982Z</time></trkpt><trkpt lat="46.466385" lon="12.4748007"><ele>1037.0</ele><time>2026-05-03T11:13:17.983Z</time></trkpt><trkpt lat="46.4664078" lon="12.4745784"><ele>1033.25</ele><time>2026-05-03T11:13:18.983Z</time></trkpt><trkpt lat="46.4664359" lon="12.4743748"><ele>1029.5</ele><time>2026-05-03T11:13:19.982Z</time></trkpt><trkpt lat="46.4664895" lon="12.4741971"><ele>1025.75</ele><time>2026-05-03T11:13:20.982Z</time></trkpt><trkpt lat="46.4665606" lon="12.4740391"><ele>1022.0</ele><time>2026-05-03T11:13:21.982Z</time></trkpt><trkpt lat="46.466658" lon="12.4739115"><ele>1022.0</ele><time>2026-05-03T11:13:22.982Z</time></trkpt><trkpt lat="46.4667591" lon="12.473793"><ele>1022.0</ele><time>2026-05-03T11:13:23.983Z</time></trkpt><trkpt lat="46.4668407" lon="12.4736465"><ele>1022.0</ele><time>2026-05-03T11:13:24.983Z</time></trkpt><trkpt lat="46.4668925" lon="12.4734588"><ele>1022.0</ele><time>2026-05-03T11:13:25.983Z</time></trkpt><trkpt lat="46.4669327" lon="12.4732506"><ele>1016.6666666666667</ele><time>2026-05-03T11:13:26.983Z</time></trkpt><trkpt lat="46.4669623" lon="12.4730303"><ele>1011.3333333333333</ele><time>2026-05-03T11:13:27.983Z</time></trkpt><trkpt lat="46.4669792" lon="12.4728066"><ele>1006.0</ele><time>2026-05-03T11:13:28.983Z</time></trkpt><trkpt lat="46.4669814" lon="12.4725714"><ele>1003.6666666666666</ele><time>2026-05-03T11:13:29.983Z</time></trkpt><trkpt lat="46.4669824" lon="12.4723314"><ele>1001.3333333333333</ele><time>2026-05-03T11:13:30.983Z</time></trkpt><trkpt lat="46.4669879" lon="12.4720916"><ele>999.0</ele><time>2026-05-03T11:13:31.982Z</time></trkpt><trkpt lat="46.466996" lon="12.4718568"><ele>997.6666666666667</ele><time>2026-05-03T11:13:32.983Z</time></trkpt><trkpt lat="46.4670009" lon="12.4716295"><ele>996.3333333333334</ele><time>2026-05-03T11:13:33.982Z</time></trkpt><trkpt lat="46.4670096" lon="12.4714121"><ele>995.0</ele><time>2026-05-03T11:13:34.983Z</time></trkpt><trkpt lat="46.4670383" lon="12.4711963"><ele>994.0</ele><time>2026-05-03T11:13:35.982Z</time></trkpt><trkpt lat="46.4670877" lon="12.4709725"><ele>993.0</ele><time>2026-05-03T11:13:36.983Z</time></trkpt><trkpt lat="46.4671446" lon="12.4707397"><ele>992.0</ele><time>2026-05-03T11:13:37.983Z</time></trkpt><trkpt lat="46.4672061" lon="12.4705026"><ele>999.0</ele><time>2026-05-03T11:13:38.983Z</time></trkpt><trkpt lat="46.4672635" lon="12.4702797"><ele>1006.0</ele><time>2026-05-03T11:13:39.982Z</time></trkpt><trkpt lat="46.4673271" lon="12.4700642"><ele>1013.0</ele><time>2026-05-03T11:13:40.984Z</time></trkpt><trkpt lat="46.4673957" lon="12.4698641"><ele>1013.0</ele><time>2026-05-03T11:13:41.983Z</time></trkpt><trkpt lat="46.467477" lon="12.4696805"><ele>1013.0</ele><time>2026-05-03T11:13:42.983Z</time></trkpt><trkpt lat="46.4675723" lon="12.4695243"><ele>1013.0</ele><time>2026-05-03T11:13:43.982Z</time></trkpt><trkpt lat="46.4676937" lon="12.4693882"><ele>1013.0</ele><time>2026-05-03T11:13:44.983Z</time></trkpt><trkpt lat="46.4678234" lon="12.4692591"><ele>1016.3333333333334</ele><time>2026-05-03T11:13:45.984Z</time></trkpt><trkpt lat="46.4679506" lon="12.4690923"><ele>1019.6666666666667</ele><time>2026-05-03T11:13:46.983Z</time></trkpt><trkpt lat="46.4680714" lon="12.4688967"><ele>1023.0</ele><time>2026-05-03T11:13:47.983Z</time></trkpt><trkpt lat="46.4681889" lon="12.4686952"><ele>1015.6666666666667</ele><time>2026-05-03T11:13:48.983Z</time></trkpt><trkpt lat="46.4683016" lon="12.468503"><ele>1008.3333333333334</ele><time>2026-05-03T11:13:49.983Z</time></trkpt><trkpt lat="46.4684076" lon="12.4683191"><ele>1001.0</ele><time>2026-05-03T11:13:50.983Z</time></trkpt><trkpt lat="46.4685047" lon="12.4681426"><ele>1001.0</ele><time>2026-05-03T11:13:51.983Z</time></trkpt><trkpt lat="46.4685722" lon="12.4679597"><ele>1001.0</ele><time>2026-05-03T11:13:52.983Z</time></trkpt><trkpt lat="46.4686069" lon="12.467759"><ele>1001.0</ele><time>2026-05-03T11:13:53.982Z</time></trkpt><trkpt lat="46.4686191" lon="12.4675309"><ele>1001.0</ele><time>2026-05-03T11:13:54.983Z</time></trkpt><trkpt lat="46.4686208" lon="12.4672843"><ele>994.6666666666667</ele><time>2026-05-03T11:13:55.983Z</time></trkpt><trkpt lat="46.4686196" lon="12.4670147"><ele>988.3333333333333</ele><time>2026-05-03T11:13:56.983Z</time></trkpt><trkpt lat="46.4686174" lon="12.4667341"><ele>982.0</ele><time>2026-05-03T11:13:57.983Z</time></trkpt><trkpt lat="46.4686154" lon="12.4664625"><ele>980.6666666666666</ele><time>2026-05-03T11:13:58.982Z</time></trkpt><trkpt lat="46.4686116" lon="12.4662027"><ele>979.3333333333333</ele><time>2026-05-03T11:13:59.982Z</time></trkpt><trkpt lat="46.46861" lon="12.4659553"><ele>978.0</ele><time>2026-05-03T11:14:00.982Z</time></trkpt><trkpt lat="46.4686106" lon="12.4657245"><ele>978.0</ele><time>2026-05-03T11:14:01.983Z</time></trkpt><trkpt lat="46.4686125" lon="12.4654988"><ele>978.0</ele><time>2026-05-03T11:14:02.983Z</time></trkpt><trkpt lat="46.468654" lon="12.4652978"><ele>978.0</ele><time>2026-05-03T11:14:03.984Z</time></trkpt><trkpt lat="46.4687122" lon="12.4651027"><ele>978.0</ele><time>2026-05-03T11:14:04.983Z</time></trkpt><trkpt lat="46.4687929" lon="12.4649006"><ele>981.6666666666667</ele><time>2026-05-03T11:14:05.983Z</time></trkpt><trkpt lat="46.4688686" lon="12.4646923"><ele>985.3333333333334</ele><time>2026-05-03T11:14:06.983Z</time></trkpt><trkpt lat="46.4689374" lon="12.4644589"><ele>989.0</ele><time>2026-05-03T11:14:07.982Z</time></trkpt><trkpt lat="46.468992" lon="12.4642307"><ele>989.0</ele><time>2026-05-03T11:14:08.982Z</time></trkpt><trkpt lat="46.4690429" lon="12.4640066"><ele>989.0</ele><time>2026-05-03T11:14:09.982Z</time></trkpt><trkpt lat="46.4690944" lon="12.4637881"><ele>989.0</ele><time>2026-05-03T11:14:10.983Z</time></trkpt><trkpt lat="46.4691447" lon="12.4635837"><ele>983.0</ele><time>2026-05-03T11:14:11.982Z</time></trkpt><trkpt lat="46.4691954" lon="12.463396"><ele>977.0</ele><time>2026-05-03T11:14:12.983Z</time></trkpt><trkpt lat="46.4692694" lon="12.4632192"><ele>971.0</ele><time>2026-05-03T11:14:13.982Z</time></trkpt><trkpt lat="46.4693594" lon="12.4630489"><ele>965.0</ele><time>2026-05-03T11:14:14.983Z</time></trkpt><trkpt lat="46.4694429" lon="12.4628735"><ele>960.3333333333334</ele><time>2026-05-03T11:14:15.983Z</time></trkpt><trkpt lat="46.4695142" lon="12.4626761"><ele>955.6666666666667</ele><time>2026-05-03T11:14:16.983Z</time></trkpt><trkpt lat="46.4695604" lon="12.4624621"><ele>951.0</ele><time>2026-05-03T11:14:17.983Z</time></trkpt><trkpt lat="46.4695837" lon="12.4622307"><ele>951.0</ele><time>2026-05-03T11:14:18.983Z</time></trkpt><trkpt lat="46.4695897" lon="12.4619889"><ele>951.0</ele><time>2026-05-03T11:14:19.984Z</time></trkpt><trkpt lat="46.4695876" lon="12.4617357"><ele>951.0</ele><time>2026-05-03T11:14:20.983Z</time></trkpt><trkpt lat="46.4695865" lon="12.4614889"><ele>950.3333333333333</ele><time>2026-05-03T11:14:21.983Z</time></trkpt><trkpt lat="46.4695826" lon="12.4612437"><ele>949.6666666666666</ele><time>2026-05-03T11:14:22.982Z</time></trkpt><trkpt lat="46.4695656" lon="12.460994"><ele>949.0</ele><time>2026-05-03T11:14:23.983Z</time></trkpt><trkpt lat="46.4695334" lon="12.4607503"><ele>949.0</ele><time>2026-05-03T11:14:24.982Z</time></trkpt><trkpt lat="46.4694961" lon="12.4605164"><ele>949.0</ele><time>2026-05-03T11:14:25.983Z</time></trkpt><trkpt lat="46.4694825" lon="12.4602865"><ele>949.0</ele><time>2026-05-03T11:14:26.982Z</time></trkpt><trkpt lat="46.4694745" lon="12.4600632"><ele>947.0</ele><time>2026-05-03T11:14:27.982Z</time></trkpt><trkpt lat="46.4694852" lon="12.4598453"><ele>945.0</ele><time>2026-05-03T11:14:28.983Z</time></trkpt><trkpt lat="46.4695171" lon="12.4596252"><ele>943.0</ele><time>2026-05-03T11:14:29.983Z</time></trkpt><trkpt lat="46.4695483" lon="12.4594196"><ele>945.25</ele><time>2026-05-03T11:14:30.983Z</time></trkpt><trkpt lat="46.4695856" lon="12.4592364"><ele>947.5</ele><time>2026-05-03T11:14:31.982Z</time></trkpt><trkpt lat="46.4696398" lon="12.4590758"><ele>949.75</ele><time>2026-05-03T11:14:32.983Z</time></trkpt><trkpt lat="46.4697201" lon="12.4589304"><ele>952.0</ele><time>2026-05-03T11:14:33.982Z</time></trkpt><trkpt lat="46.4698124" lon="12.4587812"><ele>952.0</ele><time>2026-05-03T11:14:34.983Z</time></trkpt><trkpt lat="46.4699082" lon="12.4586268"><ele>952.0</ele><time>2026-05-03T11:14:35.983Z</time></trkpt><trkpt lat="46.4700116" lon="12.4584894"><ele>952.0</ele><time>2026-05-03T11:14:36.984Z</time></trkpt><trkpt lat="46.4701233" lon="12.4583751"><ele>952.0</ele><time>2026-05-03T11:14:37.983Z</time></trkpt><trkpt lat="46.4702452" lon="12.4582914"><ele>952.0</ele><time>2026-05-03T11:14:38.983Z</time></trkpt><trkpt lat="46.4703792" lon="12.4582442"><ele>952.0</ele><time>2026-05-03T11:14:39.983Z</time></trkpt><trkpt lat="46.4705328" lon="12.4582143"><ele>952.0</ele><time>2026-05-03T11:14:40.982Z</time></trkpt><trkpt lat="46.4706872" lon="12.4581822"><ele>952.0</ele><time>2026-05-03T11:14:41.984Z</time></trkpt><trkpt lat="46.4708398" lon="12.4581552"><ele>952.0</ele><time>2026-05-03T11:14:42.983Z</time></trkpt><trkpt lat="46.4709899" lon="12.4581355"><ele>952.0</ele><time>2026-05-03T11:14:43.982Z</time></trkpt><trkpt lat="46.4711346" lon="12.458136"><ele>952.0</ele><time>2026-05-03T11:14:44.982Z</time></trkpt><trkpt lat="46.4712667" lon="12.4581908"><ele>952.0</ele><time>2026-05-03T11:14:45.983Z</time></trkpt><trkpt lat="46.471408" lon="12.4582786"><ele>952.0</ele><time>2026-05-03T11:14:46.984Z</time></trkpt><trkpt lat="46.4715585" lon="12.458375"><ele>952.0</ele><time>2026-05-03T11:14:47.982Z</time></trkpt><trkpt lat="46.4717087" lon="12.4584684"><ele>952.0</ele><time>2026-05-03T11:14:48.983Z</time></trkpt><trkpt lat="46.4718453" lon="12.4585663"><ele>952.0</ele><time>2026-05-03T11:14:49.982Z</time></trkpt><trkpt lat="46.471971" lon="12.4586696"><ele>952.0</ele><time>2026-05-03T11:14:50.983Z</time></trkpt><trkpt lat="46.4720686" lon="12.4587982"><ele>952.0</ele><time>2026-05-03T11:14:51.982Z</time></trkpt><trkpt lat="46.4721381" lon="12.4589615"><ele>952.0</ele><time>2026-05-03T11:14:52.983Z</time></trkpt><trkpt lat="46.4722216" lon="12.4591273"><ele>949.0</ele><time>2026-05-03T11:14:53.983Z</time></trkpt><trkpt lat="46.4723249" lon="12.4592845"><ele>946.0</ele><time>2026-05-03T11:14:54.982Z</time></trkpt><trkpt lat="46.4724443" lon="12.4594157"><ele>943.0</ele><time>2026-05-03T11:14:55.983Z</time></trkpt><trkpt lat="46.4725784" lon="12.459519"><ele>943.0</ele><time>2026-05-03T11:14:56.982Z</time></trkpt><trkpt lat="46.4727228" lon="12.4596041"><ele>943.0</ele><time>2026-05-03T11:14:57.983Z</time></trkpt><trkpt lat="46.4728669" lon="12.4596829"><ele>943.0</ele><time>2026-05-03T11:14:58.983Z</time></trkpt><trkpt lat="46.4730055" lon="12.4597603"><ele>942.75</ele><time>2026-05-03T11:14:59.983Z</time></trkpt><trkpt lat="46.4731352" lon="12.4598562"><ele>942.5</ele><time>2026-05-03T11:15:00.983Z</time></trkpt><trkpt lat="46.4732399" lon="12.4599856"><ele>942.25</ele><time>2026-05-03T11:15:01.983Z</time></trkpt><trkpt lat="46.4733157" lon="12.4601404"><ele>942.0</ele><time>2026-05-03T11:15:02.983Z</time></trkpt><trkpt lat="46.4733857" lon="12.4602762"><ele>942.0</ele><time>2026-05-03T11:15:03.983Z</time></trkpt><trkpt lat="46.4734626" lon="12.4603838"><ele>942.0</ele><time>2026-05-03T11:15:04.983Z</time></trkpt><trkpt lat="46.4735555" lon="12.4604503"><ele>942.0</ele><time>2026-05-03T11:15:05.982Z</time></trkpt><trkpt lat="46.4736556" lon="12.46047"><ele>942.0</ele><time>2026-05-03T11:15:06.983Z</time></trkpt><trkpt lat="46.4737563" lon="12.4604802"><ele>942.0</ele><time>2026-05-03T11:15:07.983Z</time></trkpt><trkpt lat="46.4738547" lon="12.4605362"><ele>940.25</ele><time>2026-05-03T11:15:08.982Z</time></trkpt><trkpt lat="46.4739389" lon="12.4606624"><ele>938.5</ele><time>2026-05-03T11:15:09.982Z</time></trkpt><trkpt lat="46.4740172" lon="12.4607924"><ele>936.75</ele><time>2026-05-03T11:15:10.983Z</time></trkpt><trkpt lat="46.4740813" lon="12.4609543"><ele>935.0</ele><time>2026-05-03T11:15:11.984Z</time></trkpt><trkpt lat="46.4741306" lon="12.4611501"><ele>940.0</ele><time>2026-05-03T11:15:12.982Z</time></trkpt><trkpt lat="46.4741807" lon="12.4613518"><ele>945.0</ele><time>2026-05-03T11:15:13.984Z</time></trkpt><trkpt lat="46.4742337" lon="12.4615597"><ele>950.0</ele><time>2026-05-03T11:15:14.984Z</time></trkpt><trkpt lat="46.4742956" lon="12.461772"><ele>950.0</ele><time>2026-05-03T11:15:15.983Z</time></trkpt><trkpt lat="46.4743736" lon="12.4619765"><ele>950.0</ele><time>2026-05-03T11:15:16.983Z</time></trkpt><trkpt lat="46.4744575" lon="12.4621744"><ele>950.0</ele><time>2026-05-03T11:15:17.984Z</time></trkpt><trkpt lat="46.4745448" lon="12.4623633"><ele>942.25</ele><time>2026-05-03T11:15:18.982Z</time></trkpt><trkpt lat="46.4746222" lon="12.4625432"><ele>934.5</ele><time>2026-05-03T11:15:19.983Z</time></trkpt><trkpt lat="46.4747065" lon="12.4627167"><ele>926.75</ele><time>2026-05-03T11:15:20.983Z</time></trkpt><trkpt lat="46.474805" lon="12.4628832"><ele>919.0</ele><time>2026-05-03T11:15:21.982Z</time></trkpt><trkpt lat="46.4749112" lon="12.46304"><ele>919.0</ele><time>2026-05-03T11:15:22.983Z</time></trkpt><trkpt lat="46.4750185" lon="12.4631807"><ele>919.0</ele><time>2026-05-03T11:15:23.982Z</time></trkpt><trkpt lat="46.4751152" lon="12.4633034"><ele>919.0</ele><time>2026-05-03T11:15:24.983Z</time></trkpt><trkpt lat="46.4751981" lon="12.4634072"><ele>919.0</ele><time>2026-05-03T11:15:25.983Z</time></trkpt><trkpt lat="46.4752775" lon="12.463487"><ele>918.9999999999999</ele><time>2026-05-03T11:15:26.982Z</time></trkpt><trkpt lat="46.4753539" lon="12.4635253"><ele>919.0</ele><time>2026-05-03T11:15:27.984Z</time></trkpt><trkpt lat="46.4754277" lon="12.4635078"><ele>919.0</ele><time>2026-05-03T11:15:28.982Z</time></trkpt><trkpt lat="46.4754886" lon="12.4634377"><ele>919.0</ele><time>2026-05-03T11:15:29.983Z</time></trkpt><trkpt lat="46.4755297" lon="12.4633216"><ele>918.9999999999999</ele><time>2026-05-03T11:15:30.983Z</time></trkpt><trkpt lat="46.4755706" lon="12.4631749"><ele>919.0</ele><time>2026-05-03T11:15:31.983Z</time></trkpt><trkpt lat="46.4756112" lon="12.4630261"><ele>916.5</ele><time>2026-05-03T11:15:32.983Z</time></trkpt><trkpt lat="46.475653" lon="12.462869"><ele>914.0</ele><time>2026-05-03T11:15:33.983Z</time></trkpt><trkpt lat="46.4757007" lon="12.4626991"><ele>911.5</ele><time>2026-05-03T11:15:34.983Z</time></trkpt><trkpt lat="46.4757453" lon="12.4625356"><ele>909.0</ele><time>2026-05-03T11:15:35.983Z</time></trkpt><trkpt lat="46.4757863" lon="12.4623731"><ele>909.0</ele><time>2026-05-03T11:15:36.983Z</time></trkpt><trkpt lat="46.4758308" lon="12.4622205"><ele>909.0000000000001</ele><time>2026-05-03T11:15:37.984Z</time></trkpt><trkpt lat="46.4758665" lon="12.4620713"><ele>909.0000000000001</ele><time>2026-05-03T11:15:38.983Z</time></trkpt><trkpt lat="46.4759118" lon="12.4619346"><ele>909.0</ele><time>2026-05-03T11:15:39.983Z</time></trkpt><trkpt lat="46.4759728" lon="12.4618165"><ele>909.0</ele><time>2026-05-03T11:15:40.983Z</time></trkpt><trkpt lat="46.4760423" lon="12.4617181"><ele>908.8000000000001</ele><time>2026-05-03T11:15:41.982Z</time></trkpt><trkpt lat="46.4761299" lon="12.461644"><ele>908.6000000000001</ele><time>2026-05-03T11:15:42.983Z</time></trkpt><trkpt lat="46.4762274" lon="12.4615894"><ele>908.4</ele><time>2026-05-03T11:15:43.983Z</time></trkpt><trkpt lat="46.4763268" lon="12.4615414"><ele>908.2</ele><time>2026-05-03T11:15:44.983Z</time></trkpt><trkpt lat="46.4764337" lon="12.4614719"><ele>908.0</ele><time>2026-05-03T11:15:45.983Z</time></trkpt><trkpt lat="46.4765105" lon="12.4613464"><ele>905.75</ele><time>2026-05-03T11:15:46.984Z</time></trkpt><trkpt lat="46.4765956" lon="12.461209"><ele>903.5</ele><time>2026-05-03T11:15:47.982Z</time></trkpt><trkpt lat="46.4766791" lon="12.4610638"><ele>901.25</ele><time>2026-05-03T11:15:48.983Z</time></trkpt><trkpt lat="46.4767608" lon="12.4609118"><ele>899.0</ele><time>2026-05-03T11:15:49.982Z</time></trkpt><trkpt lat="46.4768386" lon="12.4607658"><ele>899.0</ele><time>2026-05-03T11:15:50.983Z</time></trkpt><trkpt lat="46.4769142" lon="12.4606225"><ele>899.0</ele><time>2026-05-03T11:15:51.982Z</time></trkpt><trkpt lat="46.476989" lon="12.4604853"><ele>899.0</ele><time>2026-05-03T11:15:52.983Z</time></trkpt><trkpt lat="46.477061" lon="12.4603678"><ele>899.0</ele><time>2026-05-03T11:15:53.983Z</time></trkpt><trkpt lat="46.4771305" lon="12.46026"><ele>898.0</ele><time>2026-05-03T11:15:54.983Z</time></trkpt><trkpt lat="46.4771936" lon="12.4601707"><ele>897.0000000000001</ele><time>2026-05-03T11:15:55.983Z</time></trkpt><trkpt lat="46.4772682" lon="12.4600991"><ele>896.0000000000001</ele><time>2026-05-03T11:15:56.983Z</time></trkpt><trkpt lat="46.4773544" lon="12.4600298"><ele>895.0</ele><time>2026-05-03T11:15:57.983Z</time></trkpt><trkpt lat="46.4774491" lon="12.460004"><ele>894.0</ele><time>2026-05-03T11:15:58.983Z</time></trkpt><trkpt lat="46.4775434" lon="12.4599995"><ele>894.0</ele><time>2026-05-03T11:15:59.983Z</time></trkpt><trkpt lat="46.4776436" lon="12.4600253"><ele>894.0</ele><time>2026-05-03T11:16:00.983Z</time></trkpt><trkpt lat="46.4777489" lon="12.460083"><ele>894.0</ele><time>2026-05-03T11:16:01.982Z</time></trkpt><trkpt lat="46.4778654" lon="12.4601539"><ele>894.0</ele><time>2026-05-03T11:16:02.983Z</time></trkpt><trkpt lat="46.4779919" lon="12.4602234"><ele>892.0</ele><time>2026-05-03T11:16:03.982Z</time></trkpt><trkpt lat="46.478119" lon="12.4602979"><ele>890.0</ele><time>2026-05-03T11:16:04.983Z</time></trkpt><trkpt lat="46.4782448" lon="12.4603737"><ele>888.0</ele><time>2026-05-03T11:16:05.982Z</time></trkpt><trkpt lat="46.478365" lon="12.4604467"><ele>886.0</ele><time>2026-05-03T11:16:06.983Z</time></trkpt><trkpt lat="46.4784849" lon="12.4605174"><ele>887.5</ele><time>2026-05-03T11:16:07.982Z</time></trkpt><trkpt lat="46.4786012" lon="12.4605887"><ele>889.0</ele><time>2026-05-03T11:16:08.983Z</time></trkpt><trkpt lat="46.478711" lon="12.460657"><ele>890.5</ele><time>2026-05-03T11:16:09.983Z</time></trkpt><trkpt lat="46.4788143" lon="12.4607243"><ele>892.0</ele><time>2026-05-03T11:16:10.983Z</time></trkpt><trkpt lat="46.4789153" lon="12.4607896"><ele>892.0</ele><time>2026-05-03T11:16:11.984Z</time></trkpt><trkpt lat="46.479014" lon="12.4608518"><ele>892.0</ele><time>2026-05-03T11:16:12.983Z</time></trkpt><trkpt lat="46.4791112" lon="12.4609227"><ele>892.0</ele><time>2026-05-03T11:16:13.983Z</time></trkpt><trkpt lat="46.4792041" lon="12.4609831"><ele>892.0</ele><time>2026-05-03T11:16:14.982Z</time></trkpt><trkpt lat="46.4792937" lon="12.4610144"><ele>892.0</ele><time>2026-05-03T11:16:15.983Z</time></trkpt><trkpt lat="46.4793789" lon="12.4610011"><ele>892.0</ele><time>2026-05-03T11:16:16.984Z</time></trkpt><trkpt lat="46.4794496" lon="12.460941"><ele>892.0</ele><time>2026-05-03T11:16:17.983Z</time></trkpt><trkpt lat="46.4794933" lon="12.4608273"><ele>892.0</ele><time>2026-05-03T11:16:18.984Z</time></trkpt><trkpt lat="46.4795179" lon="12.460684"><ele>892.0</ele><time>2026-05-03T11:16:19.983Z</time></trkpt><trkpt lat="46.4795342" lon="12.4605227"><ele>892.0</ele><time>2026-05-03T11:16:20.983Z</time></trkpt><trkpt lat="46.4795469" lon="12.4603583"><ele>892.0</ele><time>2026-05-03T11:16:21.983Z</time></trkpt><trkpt lat="46.4795643" lon="12.4602002"><ele>892.0</ele><time>2026-05-03T11:16:22.982Z</time></trkpt><trkpt lat="46.4795922" lon="12.4600509"><ele>892.0</ele><time>2026-05-03T11:16:23.982Z</time></trkpt><trkpt lat="46.4796416" lon="12.459926"><ele>892.0</ele><time>2026-05-03T11:16:24.983Z</time></trkpt><trkpt lat="46.4797005" lon="12.4598065"><ele>892.0</ele><time>2026-05-03T11:16:25.983Z</time></trkpt><trkpt lat="46.4797623" lon="12.4596962"><ele>891.6</ele><time>2026-05-03T11:16:26.984Z</time></trkpt><trkpt lat="46.4798252" lon="12.459587"><ele>891.2</ele><time>2026-05-03T11:16:27.983Z</time></trkpt><trkpt lat="46.4798923" lon="12.459481"><ele>890.8</ele><time>2026-05-03T11:16:28.983Z</time></trkpt><trkpt lat="46.4799563" lon="12.4593785"><ele>890.4</ele><time>2026-05-03T11:16:29.983Z</time></trkpt><trkpt lat="46.480018" lon="12.4592733"><ele>890.0</ele><time>2026-05-03T11:16:30.982Z</time></trkpt><trkpt lat="46.480078" lon="12.4591669"><ele>890.0000000000001</ele><time>2026-05-03T11:16:31.984Z</time></trkpt><trkpt lat="46.4801337" lon="12.4590598"><ele>890.0</ele><time>2026-05-03T11:16:32.982Z</time></trkpt><trkpt lat="46.4801952" lon="12.4589604"><ele>890.0</ele><time>2026-05-03T11:16:33.983Z</time></trkpt><trkpt lat="46.4802398" lon="12.4588515"><ele>890.0</ele><time>2026-05-03T11:16:34.982Z</time></trkpt><trkpt lat="46.4802886" lon="12.4587453"><ele>890.0000000000001</ele><time>2026-05-03T11:16:35.983Z</time></trkpt><trkpt lat="46.4803447" lon="12.4586572"><ele>890.0</ele><time>2026-05-03T11:16:36.982Z</time></trkpt><trkpt lat="46.4804007" lon="12.4585693"><ele>888.6666666666667</ele><time>2026-05-03T11:16:37.983Z</time></trkpt><trkpt lat="46.4804625" lon="12.4584921"><ele>887.3333333333334</ele><time>2026-05-03T11:16:38.983Z</time></trkpt><trkpt lat="46.4805297" lon="12.4584157"><ele>886.0</ele><time>2026-05-03T11:16:39.982Z</time></trkpt><trkpt lat="46.4805864" lon="12.4583459"><ele>884.6666666666667</ele><time>2026-05-03T11:16:40.984Z</time></trkpt><trkpt lat="46.4806487" lon="12.458281"><ele>883.3333333333334</ele><time>2026-05-03T11:16:41.983Z</time></trkpt><trkpt lat="46.4807095" lon="12.458217"><ele>882.0</ele><time>2026-05-03T11:16:42.983Z</time></trkpt><trkpt lat="46.4807745" lon="12.458149"><ele>882.0</ele><time>2026-05-03T11:16:43.982Z</time></trkpt><trkpt lat="46.4808361" lon="12.4580815"><ele>882.0</ele><time>2026-05-03T11:16:44.983Z</time></trkpt><trkpt lat="46.4809031" lon="12.4580139"><ele>882.0</ele><time>2026-05-03T11:16:45.983Z</time></trkpt><trkpt lat="46.4809702" lon="12.4579458"><ele>882.0</ele><time>2026-05-03T11:16:46.982Z</time></trkpt><trkpt lat="46.4810455" lon="12.4578708"><ele>882.0</ele><time>2026-05-03T11:16:47.982Z</time></trkpt><trkpt lat="46.4811239" lon="12.4577941"><ele>882.0</ele><time>2026-05-03T11:16:48.983Z</time></trkpt><trkpt lat="46.4812119" lon="12.4577151"><ele>879.2</ele><time>2026-05-03T11:16:49.983Z</time></trkpt><trkpt lat="46.4813008" lon="12.457623"><ele>876.4000000000001</ele><time>2026-05-03T11:16:50.982Z</time></trkpt><trkpt lat="46.4813947" lon="12.4575354"><ele>873.5999999999999</ele><time>2026-05-03T11:16:51.982Z</time></trkpt><trkpt lat="46.4814866" lon="12.4574463"><ele>870.8</ele><time>2026-05-03T11:16:52.983Z</time></trkpt><trkpt lat="46.4815817" lon="12.4573612"><ele>868.0</ele><time>2026-05-03T11:16:53.984Z</time></trkpt><trkpt lat="46.4816719" lon="12.4572751"><ele>868.0</ele><time>2026-05-03T11:16:54.984Z</time></trkpt><trkpt lat="46.4817624" lon="12.4571846"><ele>868.0</ele><time>2026-05-03T11:16:55.982Z</time></trkpt><trkpt lat="46.4818511" lon="12.4570986"><ele>868.0</ele><time>2026-05-03T11:16:56.983Z</time></trkpt><trkpt lat="46.4819446" lon="12.4570321"><ele>868.0</ele><time>2026-05-03T11:16:57.982Z</time></trkpt><trkpt lat="46.4820454" lon="12.4569991"><ele>868.0</ele><time>2026-05-03T11:16:58.983Z</time></trkpt><trkpt lat="46.4821456" lon="12.4570061"><ele>866.8</ele><time>2026-05-03T11:16:59.983Z</time></trkpt><trkpt lat="46.4822445" lon="12.4570439"><ele>865.5999999999999</ele><time>2026-05-03T11:17:00.982Z</time></trkpt><trkpt lat="46.4823325" lon="12.4571261"><ele>864.4000000000001</ele><time>2026-05-03T11:17:01.983Z</time></trkpt><trkpt lat="46.4824048" lon="12.4572476"><ele>863.2</ele><time>2026-05-03T11:17:02.983Z</time></trkpt><trkpt lat="46.4824663" lon="12.4573974"><ele>862.0</ele><time>2026-05-03T11:17:03.983Z</time></trkpt><trkpt lat="46.4825238" lon="12.4575627"><ele>862.0</ele><time>2026-05-03T11:17:04.982Z</time></trkpt><trkpt lat="46.4825786" lon="12.45774"><ele>862.0</ele><time>2026-05-03T11:17:05.983Z</time></trkpt><trkpt lat="46.4826278" lon="12.4579141"><ele>862.0</ele><time>2026-05-03T11:17:06.982Z</time></trkpt><trkpt lat="46.4826805" lon="12.4580898"><ele>862.0</ele><time>2026-05-03T11:17:07.983Z</time></trkpt><trkpt lat="46.482732" lon="12.4582634"><ele>861.5</ele><time>2026-05-03T11:17:08.983Z</time></trkpt><trkpt lat="46.4827808" lon="12.4584326"><ele>861.0</ele><time>2026-05-03T11:17:09.982Z</time></trkpt><trkpt lat="46.4828279" lon="12.4586005"><ele>860.5</ele><time>2026-05-03T11:17:10.983Z</time></trkpt><trkpt lat="46.482874" lon="12.4587663"><ele>860.0</ele><time>2026-05-03T11:17:11.983Z</time></trkpt><trkpt lat="46.4829223" lon="12.4589284"><ele>858.0</ele><time>2026-05-03T11:17:12.982Z</time></trkpt><trkpt lat="46.4829711" lon="12.459093"><ele>856.0</ele><time>2026-05-03T11:17:13.983Z</time></trkpt><trkpt lat="46.4830208" lon="12.4592632"><ele>854.0</ele><time>2026-05-03T11:17:14.983Z</time></trkpt><trkpt lat="46.4830739" lon="12.4594339"><ele>852.0</ele><time>2026-05-03T11:17:15.984Z</time></trkpt><trkpt lat="46.4831273" lon="12.4596083"><ele>852.0</ele><time>2026-05-03T11:17:16.982Z</time></trkpt><trkpt lat="46.4831825" lon="12.4597861"><ele>852.0</ele><time>2026-05-03T11:17:17.983Z</time></trkpt><trkpt lat="46.4832486" lon="12.4599538"><ele>852.0</ele><time>2026-05-03T11:17:18.982Z</time></trkpt><trkpt lat="46.4833273" lon="12.4601205"><ele>852.0</ele><time>2026-05-03T11:17:19.983Z</time></trkpt><trkpt lat="46.4834154" lon="12.4602904"><ele>853.75</ele><time>2026-05-03T11:17:20.983Z</time></trkpt><trkpt lat="46.483505" lon="12.4604567"><ele>855.5</ele><time>2026-05-03T11:17:21.982Z</time></trkpt><trkpt lat="46.4835983" lon="12.4606235"><ele>857.25</ele><time>2026-05-03T11:17:22.983Z</time></trkpt><trkpt lat="46.4836945" lon="12.4607898"><ele>859.0</ele><time>2026-05-03T11:17:23.983Z</time></trkpt><trkpt lat="46.4837907" lon="12.4609545"><ele>853.6666666666666</ele><time>2026-05-03T11:17:24.983Z</time></trkpt><trkpt lat="46.4838919" lon="12.461129"><ele>848.3333333333333</ele><time>2026-05-03T11:17:25.982Z</time></trkpt><trkpt lat="46.4839925" lon="12.461306"><ele>843.0</ele><time>2026-05-03T11:17:26.984Z</time></trkpt><trkpt lat="46.4840948" lon="12.4614844"><ele>843.0</ele><time>2026-05-03T11:17:27.983Z</time></trkpt><trkpt lat="46.4841984" lon="12.4616642"><ele>843.0</ele><time>2026-05-03T11:17:28.983Z</time></trkpt><trkpt lat="46.4843042" lon="12.4618381"><ele>843.0</ele><time>2026-05-03T11:17:29.982Z</time></trkpt><trkpt lat="46.4844078" lon="12.4620089"><ele>844.25</ele><time>2026-05-03T11:17:30.983Z</time></trkpt><trkpt lat="46.4845085" lon="12.4621788"><ele>845.5</ele><time>2026-05-03T11:17:31.982Z</time></trkpt><trkpt lat="46.4846015" lon="12.4623365"><ele>846.75</ele><time>2026-05-03T11:17:32.983Z</time></trkpt><trkpt lat="46.4846919" lon="12.4624894"><ele>848.0</ele><time>2026-05-03T11:17:33.983Z</time></trkpt><trkpt lat="46.4847715" lon="12.4626309"><ele>843.75</ele><time>2026-05-03T11:17:34.983Z</time></trkpt><trkpt lat="46.4848421" lon="12.4627757"><ele>839.5</ele><time>2026-05-03T11:17:35.983Z</time></trkpt><trkpt lat="46.4848998" lon="12.462926"><ele>835.25</ele><time>2026-05-03T11:17:36.983Z</time></trkpt><trkpt lat="46.4849484" lon="12.4630804"><ele>831.0</ele><time>2026-05-03T11:17:37.983Z</time></trkpt><trkpt lat="46.4849873" lon="12.4632369"><ele>831.0</ele><time>2026-05-03T11:17:38.982Z</time></trkpt><trkpt lat="46.4850234" lon="12.4633945"><ele>831.0</ele><time>2026-05-03T11:17:39.984Z</time></trkpt><trkpt lat="46.4850527" lon="12.4635428"><ele>831.0</ele><time>2026-05-03T11:17:40.983Z</time></trkpt><trkpt lat="46.4850769" lon="12.4636774"><ele>831.0</ele><time>2026-05-03T11:17:41.983Z</time></trkpt><trkpt lat="46.4851056" lon="12.4637925"><ele>831.0</ele><time>2026-05-03T11:17:42.983Z</time></trkpt><trkpt lat="46.485149" lon="12.4638841"><ele>831.0</ele><time>2026-05-03T11:17:43.982Z</time></trkpt><trkpt lat="46.4852102" lon="12.4639366"><ele>831.0</ele><time>2026-05-03T11:17:44.982Z</time></trkpt><trkpt lat="46.4852813" lon="12.4639345"><ele>831.0</ele><time>2026-05-03T11:17:45.983Z</time></trkpt><trkpt lat="46.4853505" lon="12.4638854"><ele>831.0</ele><time>2026-05-03T11:17:46.982Z</time></trkpt><trkpt lat="46.4854038" lon="12.4637928"><ele>831.0</ele><time>2026-05-03T11:17:47.983Z</time></trkpt><trkpt lat="46.4854287" lon="12.4636623"><ele>831.0</ele><time>2026-05-03T11:17:48.983Z</time></trkpt><trkpt lat="46.4854244" lon="12.463509"><ele>831.0</ele><time>2026-05-03T11:17:49.983Z</time></trkpt><trkpt lat="46.485393" lon="12.4633495"><ele>831.0</ele><time>2026-05-03T11:17:50.983Z</time></trkpt><trkpt lat="46.4853605" lon="12.4631926"><ele>831.0</ele><time>2026-05-03T11:17:51.984Z</time></trkpt><trkpt lat="46.4853345" lon="12.4630199"><ele>831.0</ele><time>2026-05-03T11:17:52.983Z</time></trkpt><trkpt lat="46.4853091" lon="12.4628329"><ele>830.25</ele><time>2026-05-03T11:17:53.982Z</time></trkpt><trkpt lat="46.4852821" lon="12.4626418"><ele>829.5</ele><time>2026-05-03T11:17:54.983Z</time></trkpt><trkpt lat="46.4852522" lon="12.4624443"><ele>828.75</ele><time>2026-05-03T11:17:55.982Z</time></trkpt><trkpt lat="46.4852208" lon="12.4622431"><ele>828.0</ele><time>2026-05-03T11:17:56.983Z</time></trkpt><trkpt lat="46.4851871" lon="12.4620467"><ele>827.0</ele><time>2026-05-03T11:17:57.982Z</time></trkpt><trkpt lat="46.485158" lon="12.4618541"><ele>826.0</ele><time>2026-05-03T11:17:58.983Z</time></trkpt><trkpt lat="46.4851254" lon="12.4616666"><ele>825.0</ele><time>2026-05-03T11:17:59.983Z</time></trkpt><trkpt lat="46.485094" lon="12.4614817"><ele>824.0</ele><time>2026-05-03T11:18:00.983Z</time></trkpt><trkpt lat="46.485077" lon="12.4612899"><ele>823.25</ele><time>2026-05-03T11:18:01.983Z</time></trkpt><trkpt lat="46.4850787" lon="12.4610827"><ele>822.5</ele><time>2026-05-03T11:18:02.983Z</time></trkpt><trkpt lat="46.4850961" lon="12.4608706"><ele>821.75</ele><time>2026-05-03T11:18:03.983Z</time></trkpt><trkpt lat="46.4851195" lon="12.4606519"><ele>821.0</ele><time>2026-05-03T11:18:04.983Z</time></trkpt><trkpt lat="46.4851399" lon="12.4604354"><ele>819.5</ele><time>2026-05-03T11:18:05.983Z</time></trkpt><trkpt lat="46.4851597" lon="12.4602236"><ele>818.0</ele><time>2026-05-03T11:18:06.983Z</time></trkpt><trkpt lat="46.4851784" lon="12.4600189"><ele>816.5</ele><time>2026-05-03T11:18:07.983Z</time></trkpt><trkpt lat="46.485197" lon="12.4598411"><ele>815.0</ele><time>2026-05-03T11:18:08.983Z</time></trkpt><trkpt lat="46.4852131" lon="12.4596804"><ele>815.1666666666667</ele><time>2026-05-03T11:18:09.983Z</time></trkpt><trkpt lat="46.4852304" lon="12.4595464"><ele>815.3333333333334</ele><time>2026-05-03T11:18:10.983Z</time></trkpt><trkpt lat="46.4852559" lon="12.4594369"><ele>815.5</ele><time>2026-05-03T11:18:11.982Z</time></trkpt><trkpt lat="46.4853012" lon="12.4593589"><ele>815.6666666666667</ele><time>2026-05-03T11:18:12.983Z</time></trkpt><trkpt lat="46.4854202" lon="12.459366"><ele>815.8333333333334</ele><time>2026-05-03T11:18:14.983Z</time></trkpt><trkpt lat="46.485461" lon="12.4594668"><ele>816.0</ele><time>2026-05-03T11:18:15.982Z</time></trkpt><trkpt lat="46.4854851" lon="12.459618"><ele>810.0</ele><time>2026-05-03T11:18:16.983Z</time></trkpt><trkpt lat="46.4855068" lon="12.4597953"><ele>804.0</ele><time>2026-05-03T11:18:17.983Z</time></trkpt><trkpt lat="46.4855295" lon="12.4599945"><ele>798.0</ele><time>2026-05-03T11:18:18.983Z</time></trkpt><trkpt lat="46.4855537" lon="12.460222"><ele>792.0</ele><time>2026-05-03T11:18:19.983Z</time></trkpt><trkpt lat="46.4855767" lon="12.4604638"><ele>791.6666666666667</ele><time>2026-05-03T11:18:20.984Z</time></trkpt><trkpt lat="46.485602" lon="12.4607097"><ele>791.3333333333334</ele><time>2026-05-03T11:18:21.982Z</time></trkpt><trkpt lat="46.4856275" lon="12.4609613"><ele>791.0</ele><time>2026-05-03T11:18:22.983Z</time></trkpt><trkpt lat="46.4856534" lon="12.461207"><ele>792.0</ele><time>2026-05-03T11:18:23.983Z</time></trkpt><trkpt lat="46.4856793" lon="12.4614469"><ele>793.0</ele><time>2026-05-03T11:18:24.982Z</time></trkpt><trkpt lat="46.4857055" lon="12.4616845"><ele>794.0</ele><time>2026-05-03T11:18:25.983Z</time></trkpt><trkpt lat="46.4857282" lon="12.4619184"><ele>796.0</ele><time>2026-05-03T11:18:26.982Z</time></trkpt><trkpt lat="46.485752" lon="12.4621471"><ele>798.0</ele><time>2026-05-03T11:18:27.983Z</time></trkpt><trkpt lat="46.4857844" lon="12.4623702"><ele>800.0</ele><time>2026-05-03T11:18:28.982Z</time></trkpt><trkpt lat="46.4858312" lon="12.4625815"><ele>800.0</ele><time>2026-05-03T11:18:29.983Z</time></trkpt><trkpt lat="46.4858932" lon="12.4627857"><ele>800.0</ele><time>2026-05-03T11:18:30.983Z</time></trkpt><trkpt lat="46.4859668" lon="12.4629766"><ele>800.0</ele><time>2026-05-03T11:18:31.982Z</time></trkpt><trkpt lat="46.4860531" lon="12.4631487"><ele>802.5</ele><time>2026-05-03T11:18:32.983Z</time></trkpt><trkpt lat="46.4861531" lon="12.4632932"><ele>805.0</ele><time>2026-05-03T11:18:33.982Z</time></trkpt><trkpt lat="46.4862597" lon="12.463424"><ele>807.5</ele><time>2026-05-03T11:18:34.983Z</time></trkpt><trkpt lat="46.4863591" lon="12.4635521"><ele>810.0</ele><time>2026-05-03T11:18:35.983Z</time></trkpt><trkpt lat="46.4864489" lon="12.4637065"><ele>800.6666666666667</ele><time>2026-05-03T11:18:36.983Z</time></trkpt><trkpt lat="46.4865287" lon="12.4638825"><ele>791.3333333333334</ele><time>2026-05-03T11:18:37.983Z</time></trkpt><trkpt lat="46.4865945" lon="12.4640791"><ele>782.0</ele><time>2026-05-03T11:18:38.983Z</time></trkpt><trkpt lat="46.4866513" lon="12.4642887"><ele>782.0</ele><time>2026-05-03T11:18:39.984Z</time></trkpt><trkpt lat="46.4867005" lon="12.4645056"><ele>782.0</ele><time>2026-05-03T11:18:40.983Z</time></trkpt><trkpt lat="46.4867362" lon="12.4647346"><ele>782.0</ele><time>2026-05-03T11:18:41.983Z</time></trkpt><trkpt lat="46.4867598" lon="12.4649664"><ele>784.6666666666667</ele><time>2026-05-03T11:18:42.982Z</time></trkpt><trkpt lat="46.4867827" lon="12.4651923"><ele>787.3333333333333</ele><time>2026-05-03T11:18:43.983Z</time></trkpt><trkpt lat="46.486815" lon="12.4654158"><ele>790.0</ele><time>2026-05-03T11:18:44.982Z</time></trkpt><trkpt lat="46.4868614" lon="12.4656361"><ele>792.6666666666666</ele><time>2026-05-03T11:18:45.983Z</time></trkpt><trkpt lat="46.4869205" lon="12.4658506"><ele>795.3333333333333</ele><time>2026-05-03T11:18:46.982Z</time></trkpt><trkpt lat="46.4869734" lon="12.4660652"><ele>798.0</ele><time>2026-05-03T11:18:47.983Z</time></trkpt><trkpt lat="46.4870213" lon="12.4662774"><ele>800.75</ele><time>2026-05-03T11:18:48.983Z</time></trkpt><trkpt lat="46.4870674" lon="12.4664804"><ele>803.5</ele><time>2026-05-03T11:18:49.984Z</time></trkpt><trkpt lat="46.4871094" lon="12.4666784"><ele>806.25</ele><time>2026-05-03T11:18:50.983Z</time></trkpt><trkpt lat="46.487141" lon="12.4668749"><ele>809.0</ele><time>2026-05-03T11:18:51.982Z</time></trkpt><trkpt lat="46.4871579" lon="12.467075"><ele>797.0</ele><time>2026-05-03T11:18:52.983Z</time></trkpt><trkpt lat="46.4871583" lon="12.4672611"><ele>785.0</ele><time>2026-05-03T11:18:53.983Z</time></trkpt><trkpt lat="46.4871484" lon="12.4674324"><ele>773.0</ele><time>2026-05-03T11:18:54.982Z</time></trkpt><trkpt lat="46.4871579" lon="12.467584"><ele>761.0</ele><time>2026-05-03T11:18:55.984Z</time></trkpt><trkpt lat="46.4871965" lon="12.4677224"><ele>761.0</ele><time>2026-05-03T11:18:56.983Z</time></trkpt><trkpt lat="46.4872566" lon="12.4678549"><ele>761.0</ele><time>2026-05-03T11:18:57.982Z</time></trkpt><trkpt lat="46.4873194" lon="12.4679732"><ele>761.0</ele><time>2026-05-03T11:18:58.983Z</time></trkpt><trkpt lat="46.487391" lon="12.4680827"><ele>761.0</ele><time>2026-05-03T11:18:59.983Z</time></trkpt><trkpt lat="46.4874762" lon="12.4681631"><ele>761.0</ele><time>2026-05-03T11:19:00.983Z</time></trkpt><trkpt lat="46.4875728" lon="12.4681816"><ele>764.0</ele><time>2026-05-03T11:19:01.982Z</time></trkpt><trkpt lat="46.4876712" lon="12.468146"><ele>767.0</ele><time>2026-05-03T11:19:02.983Z</time></trkpt><trkpt lat="46.4877791" lon="12.4680837"><ele>770.0</ele><time>2026-05-03T11:19:03.982Z</time></trkpt><trkpt lat="46.487887" lon="12.4680019"><ele>773.0</ele><time>2026-05-03T11:19:04.983Z</time></trkpt><trkpt lat="46.4879746" lon="12.4678918"><ele>777.75</ele><time>2026-05-03T11:19:05.982Z</time></trkpt><trkpt lat="46.4880419" lon="12.4677612"><ele>782.5</ele><time>2026-05-03T11:19:06.983Z</time></trkpt><trkpt lat="46.4880487" lon="12.4675861"><ele>787.25</ele><time>2026-05-03T11:19:07.982Z</time></trkpt><trkpt lat="46.4880378" lon="12.4674043"><ele>792.0</ele><time>2026-05-03T11:19:08.982Z</time></trkpt><trkpt lat="46.4880149" lon="12.4672072"><ele>789.5</ele><time>2026-05-03T11:19:09.983Z</time></trkpt><trkpt lat="46.4880014" lon="12.4669962"><ele>787.0</ele><time>2026-05-03T11:19:10.983Z</time></trkpt><trkpt lat="46.4880169" lon="12.4667801"><ele>784.5</ele><time>2026-05-03T11:19:11.983Z</time></trkpt><trkpt lat="46.4880507" lon="12.4665803"><ele>782.0</ele><time>2026-05-03T11:19:12.981Z</time></trkpt><trkpt lat="46.4880735" lon="12.4663847"><ele>781.6666666666667</ele><time>2026-05-03T11:19:13.982Z</time></trkpt><trkpt lat="46.4880616" lon="12.4661745"><ele>781.3333333333333</ele><time>2026-05-03T11:19:14.981Z</time></trkpt><trkpt lat="46.48801" lon="12.4659666"><ele>781.0</ele><time>2026-05-03T11:19:15.982Z</time></trkpt><trkpt lat="46.4879478" lon="12.4657502"><ele>776.3333333333333</ele><time>2026-05-03T11:19:16.982Z</time></trkpt><trkpt lat="46.4878863" lon="12.4655277"><ele>771.6666666666666</ele><time>2026-05-03T11:19:17.982Z</time></trkpt><trkpt lat="46.4878414" lon="12.4652967"><ele>767.0</ele><time>2026-05-03T11:19:18.983Z</time></trkpt><trkpt lat="46.4878041" lon="12.465066"><ele>767.0</ele><time>2026-05-03T11:19:19.982Z</time></trkpt><trkpt lat="46.487773" lon="12.4648484"><ele>767.0</ele><time>2026-05-03T11:19:20.982Z</time></trkpt><trkpt lat="46.4877416" lon="12.4646396"><ele>767.0</ele><time>2026-05-03T11:19:21.982Z</time></trkpt><trkpt lat="46.487722" lon="12.4644551"><ele>767.0</ele><time>2026-05-03T11:19:22.982Z</time></trkpt><trkpt lat="46.4877201" lon="12.4642879"><ele>766.8</ele><time>2026-05-03T11:19:23.982Z</time></trkpt><trkpt lat="46.4877363" lon="12.4641349"><ele>766.6</ele><time>2026-05-03T11:19:24.981Z</time></trkpt><trkpt lat="46.4877822" lon="12.4639995"><ele>766.4</ele><time>2026-05-03T11:19:25.982Z</time></trkpt><trkpt lat="46.487866" lon="12.4638987"><ele>766.1999999999999</ele><time>2026-05-03T11:19:26.982Z</time></trkpt><trkpt lat="46.4879684" lon="12.4638476"><ele>766.0</ele><time>2026-05-03T11:19:27.982Z</time></trkpt><trkpt lat="46.488081" lon="12.4638509"><ele>769.25</ele><time>2026-05-03T11:19:28.982Z</time></trkpt><trkpt lat="46.4882061" lon="12.4639043"><ele>772.5</ele><time>2026-05-03T11:19:29.981Z</time></trkpt><trkpt lat="46.4883395" lon="12.4639803"><ele>775.75</ele><time>2026-05-03T11:19:30.982Z</time></trkpt><trkpt lat="46.4884701" lon="12.4640522"><ele>779.0</ele><time>2026-05-03T11:19:31.982Z</time></trkpt><trkpt lat="46.4885855" lon="12.4641163"><ele>779.0</ele><time>2026-05-03T11:19:32.982Z</time></trkpt><trkpt lat="46.488686" lon="12.4641449"><ele>779.0</ele><time>2026-05-03T11:19:33.981Z</time></trkpt><trkpt lat="46.4887811" lon="12.4641223"><ele>779.0</ele><time>2026-05-03T11:19:34.983Z</time></trkpt><trkpt lat="46.4888671" lon="12.4640421"><ele>779.0</ele><time>2026-05-03T11:19:35.981Z</time></trkpt><trkpt lat="46.4889354" lon="12.4639355"><ele>779.0</ele><time>2026-05-03T11:19:36.982Z</time></trkpt><trkpt lat="46.4889808" lon="12.4638108"><ele>778.0</ele><time>2026-05-03T11:19:37.981Z</time></trkpt><trkpt lat="46.4889808" lon="12.4636714"><ele>777.0</ele><time>2026-05-03T11:19:38.982Z</time></trkpt><trkpt lat="46.488937" lon="12.4635399"><ele>776.0</ele><time>2026-05-03T11:19:39.982Z</time></trkpt><trkpt lat="46.4888618" lon="12.4634285"><ele>775.0</ele><time>2026-05-03T11:19:40.982Z</time></trkpt><trkpt lat="46.4887838" lon="12.4633294"><ele>774.0</ele><time>2026-05-03T11:19:41.981Z</time></trkpt><trkpt lat="46.4887295" lon="12.4632133"><ele>774.0</ele><time>2026-05-03T11:19:42.982Z</time></trkpt><trkpt lat="46.4886951" lon="12.4630812"><ele>774.0</ele><time>2026-05-03T11:19:43.983Z</time></trkpt><trkpt lat="46.4886846" lon="12.462939"><ele>774.0</ele><time>2026-05-03T11:19:44.982Z</time></trkpt><trkpt lat="46.4886942" lon="12.4627945"><ele>774.0</ele><time>2026-05-03T11:19:45.982Z</time></trkpt><trkpt lat="46.4887183" lon="12.4626401"><ele>774.0</ele><time>2026-05-03T11:19:46.981Z</time></trkpt><trkpt lat="46.4887467" lon="12.4624768"><ele>776.75</ele><time>2026-05-03T11:19:47.982Z</time></trkpt><trkpt lat="46.4887782" lon="12.4623131"><ele>779.5</ele><time>2026-05-03T11:19:48.983Z</time></trkpt><trkpt lat="46.4888154" lon="12.4621472"><ele>782.25</ele><time>2026-05-03T11:19:49.982Z</time></trkpt><trkpt lat="46.488852" lon="12.4619741"><ele>785.0</ele><time>2026-05-03T11:19:50.983Z</time></trkpt><trkpt lat="46.4888888" lon="12.4617998"><ele>785.0</ele><time>2026-05-03T11:19:51.982Z</time></trkpt><trkpt lat="46.4889231" lon="12.4616259"><ele>785.0</ele><time>2026-05-03T11:19:52.982Z</time></trkpt><trkpt lat="46.4889568" lon="12.461453"><ele>785.0</ele><time>2026-05-03T11:19:53.981Z</time></trkpt><trkpt lat="46.4889892" lon="12.4612847"><ele>785.0</ele><time>2026-05-03T11:19:54.983Z</time></trkpt><trkpt lat="46.4890188" lon="12.4611172"><ele>784.75</ele><time>2026-05-03T11:19:55.983Z</time></trkpt><trkpt lat="46.4890535" lon="12.4609569"><ele>784.5</ele><time>2026-05-03T11:19:56.982Z</time></trkpt><trkpt lat="46.4890867" lon="12.4608039"><ele>784.25</ele><time>2026-05-03T11:19:57.981Z</time></trkpt><trkpt lat="46.4891202" lon="12.4606477"><ele>784.0</ele><time>2026-05-03T11:19:58.982Z</time></trkpt><trkpt lat="46.4891583" lon="12.4604933"><ele>782.75</ele><time>2026-05-03T11:19:59.981Z</time></trkpt><trkpt lat="46.4891965" lon="12.4603334"><ele>781.5</ele><time>2026-05-03T11:20:00.982Z</time></trkpt><trkpt lat="46.4892309" lon="12.4601688"><ele>780.25</ele><time>2026-05-03T11:20:01.981Z</time></trkpt><trkpt lat="46.4892667" lon="12.4599972"><ele>779.0</ele><time>2026-05-03T11:20:02.982Z</time></trkpt><trkpt lat="46.489304" lon="12.4598224"><ele>779.0</ele><time>2026-05-03T11:20:03.982Z</time></trkpt><trkpt lat="46.4893444" lon="12.4596496"><ele>779.0</ele><time>2026-05-03T11:20:04.983Z</time></trkpt><trkpt lat="46.4893843" lon="12.4594672"><ele>779.0</ele><time>2026-05-03T11:20:05.981Z</time></trkpt><trkpt lat="46.4894233" lon="12.4592847"><ele>779.0</ele><time>2026-05-03T11:20:06.982Z</time></trkpt><trkpt lat="46.4894667" lon="12.4591013"><ele>779.0</ele><time>2026-05-03T11:20:07.982Z</time></trkpt><trkpt lat="46.489512" lon="12.4589145"><ele>779.0</ele><time>2026-05-03T11:20:08.981Z</time></trkpt><trkpt lat="46.4895667" lon="12.458728"><ele>779.0</ele><time>2026-05-03T11:20:09.982Z</time></trkpt><trkpt lat="46.4896225" lon="12.4585401"><ele>779.0</ele><time>2026-05-03T11:20:10.982Z</time></trkpt><trkpt lat="46.4896791" lon="12.4583561"><ele>779.0</ele><time>2026-05-03T11:20:11.982Z</time></trkpt><trkpt lat="46.4897368" lon="12.4581679"><ele>779.0</ele><time>2026-05-03T11:20:12.982Z</time></trkpt><trkpt lat="46.4897941" lon="12.4579755"><ele>779.0</ele><time>2026-05-03T11:20:13.982Z</time></trkpt><trkpt lat="46.4898559" lon="12.4577861"><ele>779.0</ele><time>2026-05-03T11:20:14.981Z</time></trkpt><trkpt lat="46.4899158" lon="12.4575925"><ele>775.3333333333334</ele><time>2026-05-03T11:20:15.982Z</time></trkpt><trkpt lat="46.4899797" lon="12.457397"><ele>771.6666666666667</ele><time>2026-05-03T11:20:16.982Z</time></trkpt><trkpt lat="46.4900439" lon="12.457198"><ele>768.0</ele><time>2026-05-03T11:20:17.982Z</time></trkpt><trkpt lat="46.4901026" lon="12.4569956"><ele>766.25</ele><time>2026-05-03T11:20:18.982Z</time></trkpt><trkpt lat="46.4901619" lon="12.4568058"><ele>764.5</ele><time>2026-05-03T11:20:19.981Z</time></trkpt><trkpt lat="46.4902182" lon="12.4566241"><ele>762.75</ele><time>2026-05-03T11:20:20.981Z</time></trkpt><trkpt lat="46.4902729" lon="12.4564376"><ele>761.0</ele><time>2026-05-03T11:20:21.982Z</time></trkpt><trkpt lat="46.4903278" lon="12.4562502"><ele>761.0</ele><time>2026-05-03T11:20:22.982Z</time></trkpt><trkpt lat="46.4903853" lon="12.4560628"><ele>761.0</ele><time>2026-05-03T11:20:23.981Z</time></trkpt><trkpt lat="46.4904415" lon="12.4558783"><ele>761.0</ele><time>2026-05-03T11:20:24.983Z</time></trkpt><trkpt lat="46.4904982" lon="12.4556956"><ele>761.0</ele><time>2026-05-03T11:20:25.982Z</time></trkpt><trkpt lat="46.4905609" lon="12.4555091"><ele>762.25</ele><time>2026-05-03T11:20:26.981Z</time></trkpt><trkpt lat="46.490631" lon="12.4553263"><ele>763.5</ele><time>2026-05-03T11:20:27.981Z</time></trkpt><trkpt lat="46.4907084" lon="12.4551426"><ele>764.75</ele><time>2026-05-03T11:20:28.983Z</time></trkpt><trkpt lat="46.4907842" lon="12.4549572"><ele>766.0</ele><time>2026-05-03T11:20:29.982Z</time></trkpt><trkpt lat="46.4908576" lon="12.4547689"><ele>763.25</ele><time>2026-05-03T11:20:30.983Z</time></trkpt><trkpt lat="46.4909338" lon="12.4545791"><ele>760.5</ele><time>2026-05-03T11:20:31.982Z</time></trkpt><trkpt lat="46.4910114" lon="12.4543944"><ele>757.75</ele><time>2026-05-03T11:20:32.981Z</time></trkpt><trkpt lat="46.4910865" lon="12.4542116"><ele>755.0</ele><time>2026-05-03T11:20:33.981Z</time></trkpt><trkpt lat="46.4911552" lon="12.4540317"><ele>755.0</ele><time>2026-05-03T11:20:34.981Z</time></trkpt><trkpt lat="46.4912249" lon="12.4538479"><ele>755.0</ele><time>2026-05-03T11:20:35.981Z</time></trkpt><trkpt lat="46.4913005" lon="12.4536669"><ele>755.0</ele><time>2026-05-03T11:20:36.981Z</time></trkpt><trkpt lat="46.4913919" lon="12.4534919"><ele>755.0</ele><time>2026-05-03T11:20:37.982Z</time></trkpt><trkpt lat="46.4915" lon="12.4533399"><ele>757.0</ele><time>2026-05-03T11:20:38.982Z</time></trkpt><trkpt lat="46.4916219" lon="12.4532043"><ele>759.0</ele><time>2026-05-03T11:20:39.982Z</time></trkpt><trkpt lat="46.4917459" lon="12.4530829"><ele>761.0</ele><time>2026-05-03T11:20:40.982Z</time></trkpt><trkpt lat="46.4918733" lon="12.452979"><ele>763.0</ele><time>2026-05-03T11:20:41.981Z</time></trkpt><trkpt lat="46.4920074" lon="12.4528966"><ele>758.75</ele><time>2026-05-03T11:20:42.982Z</time></trkpt><trkpt lat="46.4921458" lon="12.4528442"><ele>754.5</ele><time>2026-05-03T11:20:43.982Z</time></trkpt><trkpt lat="46.4922872" lon="12.4528188"><ele>750.25</ele><time>2026-05-03T11:20:44.982Z</time></trkpt><trkpt lat="46.4924294" lon="12.4528274"><ele>746.0</ele><time>2026-05-03T11:20:45.982Z</time></trkpt><trkpt lat="46.4925709" lon="12.4528496"><ele>746.0</ele><time>2026-05-03T11:20:46.982Z</time></trkpt><trkpt lat="46.4927122" lon="12.4528524"><ele>746.0</ele><time>2026-05-03T11:20:47.982Z</time></trkpt><trkpt lat="46.4928309" lon="12.4528145"><ele>746.0</ele><time>2026-05-03T11:20:48.982Z</time></trkpt><trkpt lat="46.4929408" lon="12.4527426"><ele>746.0</ele><time>2026-05-03T11:20:49.982Z</time></trkpt><trkpt lat="46.4930508" lon="12.4526613"><ele>747.0</ele><time>2026-05-03T11:20:50.982Z</time></trkpt><trkpt lat="46.49317" lon="12.4525936"><ele>748.0</ele><time>2026-05-03T11:20:51.983Z</time></trkpt><trkpt lat="46.4933123" lon="12.45258"><ele>749.0</ele><time>2026-05-03T11:20:52.983Z</time></trkpt><trkpt lat="46.4934546" lon="12.452596"><ele>750.0</ele><time>2026-05-03T11:20:53.983Z</time></trkpt><trkpt lat="46.4935849" lon="12.452594"><ele>750.0</ele><time>2026-05-03T11:20:54.982Z</time></trkpt><trkpt lat="46.4937067" lon="12.4525956"><ele>750.0</ele><time>2026-05-03T11:20:55.982Z</time></trkpt><trkpt lat="46.4938202" lon="12.4525952"><ele>750.0</ele><time>2026-05-03T11:20:56.982Z</time></trkpt><trkpt lat="46.493921" lon="12.4525946"><ele>750.0</ele><time>2026-05-03T11:20:57.981Z</time></trkpt><trkpt lat="46.4940197" lon="12.4526047"><ele>750.0</ele><time>2026-05-03T11:20:58.982Z</time></trkpt><trkpt lat="46.4941207" lon="12.4526039"><ele>748.5</ele><time>2026-05-03T11:20:59.981Z</time></trkpt><trkpt lat="46.4942181" lon="12.4525901"><ele>747.0</ele><time>2026-05-03T11:21:00.982Z</time></trkpt><trkpt lat="46.4943185" lon="12.4525671"><ele>745.5</ele><time>2026-05-03T11:21:01.982Z</time></trkpt><trkpt lat="46.4944353" lon="12.4525436"><ele>744.0</ele><time>2026-05-03T11:21:02.982Z</time></trkpt><trkpt lat="46.4945695" lon="12.4525419"><ele>743.0</ele><time>2026-05-03T11:21:03.982Z</time></trkpt><trkpt lat="46.4947095" lon="12.452555"><ele>742.0</ele><time>2026-05-03T11:21:04.981Z</time></trkpt><trkpt lat="46.4948428" lon="12.4525633"><ele>741.0</ele><time>2026-05-03T11:21:05.982Z</time></trkpt><trkpt lat="46.494969" lon="12.4525755"><ele>740.0</ele><time>2026-05-03T11:21:06.981Z</time></trkpt><trkpt lat="46.4950906" lon="12.4525903"><ele>740.0</ele><time>2026-05-03T11:21:07.983Z</time></trkpt><trkpt lat="46.4952062" lon="12.4526081"><ele>740.0</ele><time>2026-05-03T11:21:08.982Z</time></trkpt><trkpt lat="46.4953219" lon="12.4526318"><ele>740.0</ele><time>2026-05-03T11:21:09.981Z</time></trkpt><trkpt lat="46.4954352" lon="12.4526677"><ele>740.0</ele><time>2026-05-03T11:21:10.982Z</time></trkpt><trkpt lat="46.4955521" lon="12.4527249"><ele>737.2</ele><time>2026-05-03T11:21:11.983Z</time></trkpt><trkpt lat="46.4956617" lon="12.4527957"><ele>734.4</ele><time>2026-05-03T11:21:12.981Z</time></trkpt><trkpt lat="46.4957576" lon="12.4528821"><ele>731.5999999999999</ele><time>2026-05-03T11:21:13.982Z</time></trkpt><trkpt lat="46.4958356" lon="12.4529706"><ele>728.8</ele><time>2026-05-03T11:21:14.982Z</time></trkpt><trkpt lat="46.4959155" lon="12.4530604"><ele>726.0</ele><time>2026-05-03T11:21:15.982Z</time></trkpt><trkpt lat="46.4960024" lon="12.4531497"><ele>727.75</ele><time>2026-05-03T11:21:16.981Z</time></trkpt><trkpt lat="46.496099" lon="12.4532334"><ele>729.5</ele><time>2026-05-03T11:21:17.981Z</time></trkpt><trkpt lat="46.4962004" lon="12.4533024"><ele>731.25</ele><time>2026-05-03T11:21:18.982Z</time></trkpt><trkpt lat="46.4963055" lon="12.4533641"><ele>733.0</ele><time>2026-05-03T11:21:19.983Z</time></trkpt><trkpt lat="46.4964204" lon="12.4534233"><ele>733.0</ele><time>2026-05-03T11:21:20.982Z</time></trkpt><trkpt lat="46.4965397" lon="12.4535171"><ele>733.0</ele><time>2026-05-03T11:21:21.982Z</time></trkpt><trkpt lat="46.4966654" lon="12.453638"><ele>733.0</ele><time>2026-05-03T11:21:22.982Z</time></trkpt><trkpt lat="46.496794" lon="12.4537589"><ele>733.0</ele><time>2026-05-03T11:21:23.982Z</time></trkpt><trkpt lat="46.4969269" lon="12.4538605"><ele>731.3333333333334</ele><time>2026-05-03T11:21:24.982Z</time></trkpt><trkpt lat="46.4970707" lon="12.4539479"><ele>729.6666666666666</ele><time>2026-05-03T11:21:25.982Z</time></trkpt><trkpt lat="46.4972211" lon="12.4540495"><ele>728.0</ele><time>2026-05-03T11:21:26.981Z</time></trkpt><trkpt lat="46.4973698" lon="12.4541724"><ele>728.0</ele><time>2026-05-03T11:21:27.982Z</time></trkpt><trkpt lat="46.4975226" lon="12.4542926"><ele>728.0</ele><time>2026-05-03T11:21:28.981Z</time></trkpt><trkpt lat="46.4976947" lon="12.4543871"><ele>728.0</ele><time>2026-05-03T11:21:29.982Z</time></trkpt><trkpt lat="46.4978737" lon="12.4544681"><ele>729.0</ele><time>2026-05-03T11:21:30.981Z</time></trkpt><trkpt lat="46.4980496" lon="12.4545471"><ele>730.0</ele><time>2026-05-03T11:21:31.982Z</time></trkpt><trkpt lat="46.4982239" lon="12.4546288"><ele>731.0</ele><time>2026-05-03T11:21:32.982Z</time></trkpt><trkpt lat="46.4983951" lon="12.4547059"><ele>731.0</ele><time>2026-05-03T11:21:33.982Z</time></trkpt><trkpt lat="46.4985683" lon="12.4547734"><ele>731.0</ele><time>2026-05-03T11:21:34.981Z</time></trkpt><trkpt lat="46.4987508" lon="12.4548323"><ele>731.0</ele><time>2026-05-03T11:21:35.982Z</time></trkpt><trkpt lat="46.4989413" lon="12.4548843"><ele>731.0</ele><time>2026-05-03T11:21:36.983Z</time></trkpt><trkpt lat="46.4991365" lon="12.4549341"><ele>731.0</ele><time>2026-05-03T11:21:37.982Z</time></trkpt><trkpt lat="46.4993332" lon="12.4549839"><ele>731.0</ele><time>2026-05-03T11:21:38.982Z</time></trkpt><trkpt lat="46.499538" lon="12.4550316"><ele>730.0</ele><time>2026-05-03T11:21:39.982Z</time></trkpt><trkpt lat="46.4997453" lon="12.4550836"><ele>729.0</ele><time>2026-05-03T11:21:40.982Z</time></trkpt><trkpt lat="46.4999532" lon="12.4551505"><ele>728.0</ele><time>2026-05-03T11:21:41.982Z</time></trkpt><trkpt lat="46.500164" lon="12.4552299"><ele>728.0</ele><time>2026-05-03T11:21:42.982Z</time></trkpt><trkpt lat="46.5003765" lon="12.4553295"><ele>728.0</ele><time>2026-05-03T11:21:43.982Z</time></trkpt><trkpt lat="46.5005901" lon="12.4554441"><ele>732.0</ele><time>2026-05-03T11:21:44.981Z</time></trkpt><trkpt lat="46.5007997" lon="12.4555733"><ele>736.0</ele><time>2026-05-03T11:21:45.982Z</time></trkpt><trkpt lat="46.5010014" lon="12.4557236"><ele>736.0</ele><time>2026-05-03T11:21:46.981Z</time></trkpt><trkpt lat="46.5011999" lon="12.4558805"><ele>736.0</ele><time>2026-05-03T11:21:47.982Z</time></trkpt><trkpt lat="46.5013947" lon="12.4560367"><ele>736.0</ele><time>2026-05-03T11:21:48.982Z</time></trkpt><trkpt lat="46.5015862" lon="12.4561897"><ele>734.6666666666667</ele><time>2026-05-03T11:21:49.981Z</time></trkpt><trkpt lat="46.5017753" lon="12.4563391"><ele>733.3333333333334</ele><time>2026-05-03T11:21:50.982Z</time></trkpt><trkpt lat="46.5019611" lon="12.4564903"><ele>732.0</ele><time>2026-05-03T11:21:51.982Z</time></trkpt><trkpt lat="46.5021438" lon="12.4566386"><ele>732.0</ele><time>2026-05-03T11:21:52.982Z</time></trkpt><trkpt lat="46.5023233" lon="12.4567836"><ele>732.0</ele><time>2026-05-03T11:21:53.982Z</time></trkpt><trkpt lat="46.5025003" lon="12.4569291"><ele>732.0</ele><time>2026-05-03T11:21:54.982Z</time></trkpt><trkpt lat="46.5026755" lon="12.4570701"><ele>735.6666666666666</ele><time>2026-05-03T11:21:55.982Z</time></trkpt><trkpt lat="46.5028452" lon="12.4572054"><ele>739.3333333333333</ele><time>2026-05-03T11:21:56.982Z</time></trkpt><trkpt lat="46.5030051" lon="12.4573343"><ele>743.0</ele><time>2026-05-03T11:21:57.982Z</time></trkpt><trkpt lat="46.5031635" lon="12.4574488"><ele>743.0</ele><time>2026-05-03T11:21:58.981Z</time></trkpt><trkpt lat="46.5033209" lon="12.4575318"><ele>743.0</ele><time>2026-05-03T11:21:59.983Z</time></trkpt><trkpt lat="46.5034791" lon="12.4575848"><ele>743.0</ele><time>2026-05-03T11:22:00.982Z</time></trkpt><trkpt lat="46.5036489" lon="12.4576099"><ele>741.6666666666666</ele><time>2026-05-03T11:22:01.982Z</time></trkpt><trkpt lat="46.503825" lon="12.4576098"><ele>740.3333333333334</ele><time>2026-05-03T11:22:02.982Z</time></trkpt><trkpt lat="46.5040101" lon="12.4575904"><ele>739.0</ele><time>2026-05-03T11:22:03.982Z</time></trkpt><trkpt lat="46.5041959" lon="12.4575611"><ele>739.0</ele><time>2026-05-03T11:22:04.982Z</time></trkpt><trkpt lat="46.5043781" lon="12.4575338"><ele>739.0</ele><time>2026-05-03T11:22:05.982Z</time></trkpt><trkpt lat="46.50456" lon="12.4575109"><ele>739.0</ele><time>2026-05-03T11:22:06.982Z</time></trkpt><trkpt lat="46.5047442" lon="12.4575074"><ele>741.0</ele><time>2026-05-03T11:22:07.982Z</time></trkpt><trkpt lat="46.5049317" lon="12.4575359"><ele>743.0</ele><time>2026-05-03T11:22:08.981Z</time></trkpt><trkpt lat="46.5051229" lon="12.4575789"><ele>745.0</ele><time>2026-05-03T11:22:09.982Z</time></trkpt><trkpt lat="46.5053117" lon="12.4576168"><ele>744.3333333333334</ele><time>2026-05-03T11:22:10.981Z</time></trkpt><trkpt lat="46.5055042" lon="12.4576449"><ele>743.6666666666666</ele><time>2026-05-03T11:22:11.981Z</time></trkpt><trkpt lat="46.5057024" lon="12.4576446"><ele>743.0</ele><time>2026-05-03T11:22:12.982Z</time></trkpt><trkpt lat="46.5059015" lon="12.4576232"><ele>743.0</ele><time>2026-05-03T11:22:13.981Z</time></trkpt><trkpt lat="46.5060964" lon="12.4575945"><ele>743.0</ele><time>2026-05-03T11:22:14.982Z</time></trkpt><trkpt lat="46.506281" lon="12.4575666"><ele>743.0</ele><time>2026-05-03T11:22:15.982Z</time></trkpt><trkpt lat="46.5064596" lon="12.4575365"><ele>741.3333333333333</ele><time>2026-05-03T11:22:16.981Z</time></trkpt><trkpt lat="46.5066377" lon="12.45752"><ele>739.6666666666666</ele><time>2026-05-03T11:22:17.982Z</time></trkpt><trkpt lat="46.5068168" lon="12.4575334"><ele>738.0</ele><time>2026-05-03T11:22:18.982Z</time></trkpt><trkpt lat="46.506994" lon="12.45758"><ele>739.0</ele><time>2026-05-03T11:22:19.982Z</time></trkpt><trkpt lat="46.5071668" lon="12.4576433"><ele>740.0</ele><time>2026-05-03T11:22:20.983Z</time></trkpt><trkpt lat="46.5073378" lon="12.457727"><ele>741.0</ele><time>2026-05-03T11:22:21.982Z</time></trkpt><trkpt lat="46.5075091" lon="12.4578169"><ele>741.0</ele><time>2026-05-03T11:22:22.981Z</time></trkpt><trkpt lat="46.5076807" lon="12.4579123"><ele>741.0</ele><time>2026-05-03T11:22:23.982Z</time></trkpt><trkpt lat="46.5078492" lon="12.4580079"><ele>741.0</ele><time>2026-05-03T11:22:24.982Z</time></trkpt><trkpt lat="46.5080198" lon="12.4581049"><ele>739.6666666666666</ele><time>2026-05-03T11:22:25.982Z</time></trkpt><trkpt lat="46.5081944" lon="12.4582038"><ele>738.3333333333333</ele><time>2026-05-03T11:22:26.982Z</time></trkpt><trkpt lat="46.5083729" lon="12.4583019"><ele>737.0</ele><time>2026-05-03T11:22:27.981Z</time></trkpt><trkpt lat="46.508554" lon="12.458402"><ele>737.0</ele><time>2026-05-03T11:22:28.982Z</time></trkpt><trkpt lat="46.5087352" lon="12.4585028"><ele>737.0</ele><time>2026-05-03T11:22:29.982Z</time></trkpt><trkpt lat="46.5089179" lon="12.4586075"><ele>737.0</ele><time>2026-05-03T11:22:30.982Z</time></trkpt><trkpt lat="46.5090936" lon="12.4587219"><ele>740.0</ele><time>2026-05-03T11:22:31.982Z</time></trkpt><trkpt lat="46.5092617" lon="12.458846"><ele>743.0</ele><time>2026-05-03T11:22:32.983Z</time></trkpt><trkpt lat="46.5094212" lon="12.4589755"><ele>746.0</ele><time>2026-05-03T11:22:33.982Z</time></trkpt><trkpt lat="46.5095753" lon="12.4591142"><ele>749.0</ele><time>2026-05-03T11:22:34.982Z</time></trkpt><trkpt lat="46.5097263" lon="12.4592662"><ele>752.0</ele><time>2026-05-03T11:22:35.982Z</time></trkpt><trkpt lat="46.5098674" lon="12.4594204"><ele>755.0</ele><time>2026-05-03T11:22:36.982Z</time></trkpt><trkpt lat="46.510003" lon="12.4595809"><ele>756.3333333333333</ele><time>2026-05-03T11:22:37.982Z</time></trkpt><trkpt lat="46.5101334" lon="12.4597398"><ele>757.6666666666666</ele><time>2026-05-03T11:22:38.982Z</time></trkpt><trkpt lat="46.5102622" lon="12.4599036"><ele>759.0</ele><time>2026-05-03T11:22:39.982Z</time></trkpt><trkpt lat="46.5103909" lon="12.4600716"><ele>762.6666666666667</ele><time>2026-05-03T11:22:40.981Z</time></trkpt><trkpt lat="46.5105209" lon="12.4602405"><ele>766.3333333333334</ele><time>2026-05-03T11:22:41.983Z</time></trkpt><trkpt lat="46.5106516" lon="12.4604044"><ele>770.0</ele><time>2026-05-03T11:22:42.981Z</time></trkpt><trkpt lat="46.5107802" lon="12.4605584"><ele>770.6666666666667</ele><time>2026-05-03T11:22:43.982Z</time></trkpt><trkpt lat="46.5109145" lon="12.4606997"><ele>771.3333333333333</ele><time>2026-05-03T11:22:44.981Z</time></trkpt><trkpt lat="46.511052" lon="12.4608254"><ele>772.0</ele><time>2026-05-03T11:22:45.982Z</time></trkpt><trkpt lat="46.511199" lon="12.4609393"><ele>774.0</ele><time>2026-05-03T11:22:46.982Z</time></trkpt><trkpt lat="46.5113514" lon="12.4610534"><ele>776.0</ele><time>2026-05-03T11:22:47.982Z</time></trkpt><trkpt lat="46.5114955" lon="12.4611625"><ele>778.0</ele><time>2026-05-03T11:22:48.982Z</time></trkpt><trkpt lat="46.511648" lon="12.461277"><ele>775.0</ele><time>2026-05-03T11:22:49.981Z</time></trkpt><trkpt lat="46.5118049" lon="12.4613949"><ele>772.0</ele><time>2026-05-03T11:22:50.981Z</time></trkpt><trkpt lat="46.5119646" lon="12.4615129"><ele>769.0</ele><time>2026-05-03T11:22:51.983Z</time></trkpt><trkpt lat="46.5121239" lon="12.4616285"><ele>768.3333333333333</ele><time>2026-05-03T11:22:52.982Z</time></trkpt><trkpt lat="46.5122787" lon="12.4617381"><ele>767.6666666666666</ele><time>2026-05-03T11:22:53.982Z</time></trkpt><trkpt lat="46.5124315" lon="12.4618488"><ele>767.0</ele><time>2026-05-03T11:22:54.982Z</time></trkpt><trkpt lat="46.5125799" lon="12.4619574"><ele>767.0</ele><time>2026-05-03T11:22:55.982Z</time></trkpt><trkpt lat="46.5127266" lon="12.4620676"><ele>767.0</ele><time>2026-05-03T11:22:56.982Z</time></trkpt><trkpt lat="46.5128746" lon="12.4621866"><ele>767.0</ele><time>2026-05-03T11:22:57.982Z</time></trkpt><trkpt lat="46.5130288" lon="12.4623132"><ele>769.0</ele><time>2026-05-03T11:22:58.982Z</time></trkpt><trkpt lat="46.5131799" lon="12.4624613"><ele>771.0</ele><time>2026-05-03T11:22:59.981Z</time></trkpt><trkpt lat="46.5133256" lon="12.4626255"><ele>773.0</ele><time>2026-05-03T11:23:00.982Z</time></trkpt><trkpt lat="46.5134633" lon="12.4627966"><ele>774.3333333333334</ele><time>2026-05-03T11:23:01.982Z</time></trkpt><trkpt lat="46.5136012" lon="12.4629627"><ele>775.6666666666667</ele><time>2026-05-03T11:23:02.982Z</time></trkpt><trkpt lat="46.5137351" lon="12.4631233"><ele>777.0</ele><time>2026-05-03T11:23:03.982Z</time></trkpt><trkpt lat="46.5138684" lon="12.4632761"><ele>777.6666666666667</ele><time>2026-05-03T11:23:04.982Z</time></trkpt><trkpt lat="46.5139996" lon="12.4634086"><ele>778.3333333333334</ele><time>2026-05-03T11:23:05.981Z</time></trkpt><trkpt lat="46.5141407" lon="12.4635145"><ele>779.0</ele><time>2026-05-03T11:23:06.983Z</time></trkpt><trkpt lat="46.5142866" lon="12.4635938"><ele>779.0</ele><time>2026-05-03T11:23:07.982Z</time></trkpt><trkpt lat="46.5144335" lon="12.4636536"><ele>779.0</ele><time>2026-05-03T11:23:08.982Z</time></trkpt><trkpt lat="46.5145832" lon="12.4636986"><ele>779.0</ele><time>2026-05-03T11:23:09.981Z</time></trkpt><trkpt lat="46.514729" lon="12.463745"><ele>780.0</ele><time>2026-05-03T11:23:10.982Z</time></trkpt><trkpt lat="46.514875" lon="12.4637872"><ele>781.0</ele><time>2026-05-03T11:23:11.981Z</time></trkpt><trkpt lat="46.5150278" lon="12.4638257"><ele>782.0</ele><time>2026-05-03T11:23:12.982Z</time></trkpt><trkpt lat="46.515183" lon="12.4638688"><ele>782.0</ele><time>2026-05-03T11:23:13.981Z</time></trkpt><trkpt lat="46.5153419" lon="12.4639104"><ele>782.0</ele><time>2026-05-03T11:23:14.982Z</time></trkpt><trkpt lat="46.5154934" lon="12.4639512"><ele>782.0</ele><time>2026-05-03T11:23:15.982Z</time></trkpt><trkpt lat="46.5156323" lon="12.4639925"><ele>783.0</ele><time>2026-05-03T11:23:16.982Z</time></trkpt><trkpt lat="46.515753" lon="12.4640262"><ele>784.0</ele><time>2026-05-03T11:23:17.982Z</time></trkpt><trkpt lat="46.5158548" lon="12.4640549"><ele>785.0</ele><time>2026-05-03T11:23:18.981Z</time></trkpt><trkpt lat="46.5159371" lon="12.4640745"><ele>786.0</ele><time>2026-05-03T11:23:19.982Z</time></trkpt><trkpt lat="46.5160007" lon="12.4640881"><ele>787.0</ele><time>2026-05-03T11:23:20.983Z</time></trkpt><trkpt lat="46.5160975" lon="12.4640921"><ele>787.0</ele><time>2026-05-03T11:23:22.981Z</time></trkpt><trkpt lat="46.5161635" lon="12.4640458"><ele>787.0</ele><time>2026-05-03T11:23:25.982Z</time></trkpt><trkpt lat="46.5161558" lon="12.4639266"><ele>787.0</ele><time>2026-05-03T11:23:41.982Z</time></trkpt><trkpt lat="46.5161849" lon="12.4638443"><ele>787.0</ele><time>2026-05-03T11:23:44.982Z</time></trkpt><trkpt lat="46.516205" lon="12.4637501"><ele>787.0</ele><time>2026-05-03T11:23:47.982Z</time></trkpt><trkpt lat="46.5161678" lon="12.4636665"><ele>787.0</ele><time>2026-05-03T11:23:51.982Z</time></trkpt><trkpt lat="46.5162348" lon="12.4636792"><ele>787.0</ele><time>2026-05-03T11:24:42.983Z</time></trkpt><trkpt lat="46.516205" lon="12.4637875"><ele>787.0</ele><time>2026-05-03T11:24:46.982Z</time></trkpt><trkpt lat="46.5161624" lon="12.4638733"><ele>787.0</ele><time>2026-05-03T11:24:53.982Z</time></trkpt><trkpt lat="46.5161489" lon="12.4639635"><ele>787.0</ele><time>2026-05-03T11:27:08.98Z</time></trkpt><trkpt lat="46.5161907" lon="12.4640429"><ele>787.0</ele><time>2026-05-03T11:27:20.981Z</time></trkpt><trkpt lat="46.5162529" lon="12.4640897"><ele>790.0</ele><time>2026-05-03T11:27:30.981Z</time></trkpt><trkpt lat="46.516315" lon="12.4640578"><ele>790.0</ele><time>2026-05-03T11:27:38.98Z</time></trkpt><trkpt lat="46.5163148" lon="12.4639636"><ele>790.0</ele><time>2026-05-03T11:27:46.98Z</time></trkpt></trkseg><trkseg><trkpt lat="46.516216" lon="12.4638904"><ele>786.9999999999999</ele><time>2026-05-03T13:18:58.973Z</time></trkpt><trkpt lat="46.5161474" lon="12.4638906"><ele>787.0</ele><time>2026-05-03T13:19:25.974Z</time></trkpt><trkpt lat="46.5161291" lon="12.4639926"><ele>787.0</ele><time>2026-05-03T13:20:20.974Z</time></trkpt><trkpt lat="46.5160637" lon="12.4640573"><ele>787.0</ele><time>2026-05-03T13:20:33.974Z</time></trkpt><trkpt lat="46.5159393" lon="12.464028"><ele>786.9999999999999</ele><time>2026-05-03T13:20:35.973Z</time></trkpt><trkpt lat="46.5158657" lon="12.4640078"><ele>787.0</ele><time>2026-05-03T13:20:36.974Z</time></trkpt><trkpt lat="46.5157805" lon="12.4639841"><ele>787.0</ele><time>2026-05-03T13:20:37.973Z</time></trkpt><trkpt lat="46.5156893" lon="12.4639587"><ele>787.0</ele><time>2026-05-03T13:20:38.974Z</time></trkpt><trkpt lat="46.5155915" lon="12.4639288"><ele>787.0</ele><time>2026-05-03T13:20:39.974Z</time></trkpt><trkpt lat="46.5154896" lon="12.463898"><ele>787.0</ele><time>2026-05-03T13:20:40.974Z</time></trkpt><trkpt lat="46.5153818" lon="12.4638668"><ele>787.0</ele><time>2026-05-03T13:20:41.974Z</time></trkpt><trkpt lat="46.5152667" lon="12.4638363"><ele>785.75</ele><time>2026-05-03T13:20:42.974Z</time></trkpt><trkpt lat="46.5151468" lon="12.4638052"><ele>784.5</ele><time>2026-05-03T13:20:43.974Z</time></trkpt><trkpt lat="46.5150234" lon="12.4637747"><ele>783.25</ele><time>2026-05-03T13:20:44.973Z</time></trkpt><trkpt lat="46.5148937" lon="12.4637396"><ele>782.0</ele><time>2026-05-03T13:20:45.975Z</time></trkpt><trkpt lat="46.5147638" lon="12.4637015"><ele>781.25</ele><time>2026-05-03T13:20:46.973Z</time></trkpt><trkpt lat="46.5146327" lon="12.4636624"><ele>780.5</ele><time>2026-05-03T13:20:47.975Z</time></trkpt><trkpt lat="46.5145048" lon="12.4636252"><ele>779.75</ele><time>2026-05-03T13:20:48.975Z</time></trkpt><trkpt lat="46.5143802" lon="12.4635846"><ele>779.0</ele><time>2026-05-03T13:20:49.973Z</time></trkpt><trkpt lat="46.5142592" lon="12.4635306"><ele>779.0</ele><time>2026-05-03T13:20:50.974Z</time></trkpt><trkpt lat="46.5141348" lon="12.4634523"><ele>779.0</ele><time>2026-05-03T13:20:51.973Z</time></trkpt><trkpt lat="46.5140168" lon="12.4633523"><ele>779.0</ele><time>2026-05-03T13:20:52.974Z</time></trkpt><trkpt lat="46.5139061" lon="12.4632394"><ele>779.0</ele><time>2026-05-03T13:20:53.974Z</time></trkpt><trkpt lat="46.5138014" lon="12.4631155"><ele>778.5</ele><time>2026-05-03T13:20:54.973Z</time></trkpt><trkpt lat="46.513699" lon="12.4629888"><ele>778.0</ele><time>2026-05-03T13:20:55.973Z</time></trkpt><trkpt lat="46.5135915" lon="12.4628641"><ele>777.5</ele><time>2026-05-03T13:20:56.974Z</time></trkpt><trkpt lat="46.5134794" lon="12.4627324"><ele>777.0</ele><time>2026-05-03T13:20:57.974Z</time></trkpt><trkpt lat="46.513367" lon="12.4625992"><ele>775.6666666666667</ele><time>2026-05-03T13:20:58.973Z</time></trkpt><trkpt lat="46.513248" lon="12.46247"><ele>774.3333333333334</ele><time>2026-05-03T13:20:59.974Z</time></trkpt><trkpt lat="46.5131192" lon="12.4623467"><ele>773.0</ele><time>2026-05-03T13:21:00.974Z</time></trkpt><trkpt lat="46.5129879" lon="12.4622316"><ele>771.6666666666667</ele><time>2026-05-03T13:21:01.974Z</time></trkpt><trkpt lat="46.5128546" lon="12.4621249"><ele>770.3333333333333</ele><time>2026-05-03T13:21:02.974Z</time></trkpt><trkpt lat="46.5127212" lon="12.4620211"><ele>769.0</ele><time>2026-05-03T13:21:03.974Z</time></trkpt><trkpt lat="46.5125891" lon="12.4619157"><ele>768.3333333333333</ele><time>2026-05-03T13:21:04.974Z</time></trkpt><trkpt lat="46.5124548" lon="12.4618061"><ele>767.6666666666666</ele><time>2026-05-03T13:21:05.973Z</time></trkpt><trkpt lat="46.5123191" lon="12.4617027"><ele>767.0</ele><time>2026-05-03T13:21:06.974Z</time></trkpt><trkpt lat="46.512188" lon="12.4616054"><ele>767.5</ele><time>2026-05-03T13:21:07.974Z</time></trkpt><trkpt lat="46.5120607" lon="12.4615103"><ele>768.0</ele><time>2026-05-03T13:21:08.973Z</time></trkpt><trkpt lat="46.5119306" lon="12.4614163"><ele>768.5</ele><time>2026-05-03T13:21:09.974Z</time></trkpt><trkpt lat="46.5117952" lon="12.4613174"><ele>769.0</ele><time>2026-05-03T13:21:10.974Z</time></trkpt><trkpt lat="46.5116543" lon="12.4612124"><ele>770.0</ele><time>2026-05-03T13:21:11.973Z</time></trkpt><trkpt lat="46.5115117" lon="12.4611102"><ele>771.0</ele><time>2026-05-03T13:21:12.974Z</time></trkpt><trkpt lat="46.5113681" lon="12.4610082"><ele>772.0</ele><time>2026-05-03T13:21:13.974Z</time></trkpt><trkpt lat="46.5112262" lon="12.4609033"><ele>772.0</ele><time>2026-05-03T13:21:14.973Z</time></trkpt><trkpt lat="46.5110846" lon="12.4607888"><ele>772.0</ele><time>2026-05-03T13:21:15.974Z</time></trkpt><trkpt lat="46.510947" lon="12.4606637"><ele>772.0</ele><time>2026-05-03T13:21:16.974Z</time></trkpt><trkpt lat="46.5108131" lon="12.4605228"><ele>771.3333333333333</ele><time>2026-05-03T13:21:17.973Z</time></trkpt><trkpt lat="46.5106817" lon="12.4603763"><ele>770.6666666666667</ele><time>2026-05-03T13:21:18.974Z</time></trkpt><trkpt lat="46.5105547" lon="12.4602214"><ele>770.0</ele><time>2026-05-03T13:21:19.973Z</time></trkpt><trkpt lat="46.5104276" lon="12.4600582"><ele>766.3333333333334</ele><time>2026-05-03T13:21:20.974Z</time></trkpt><trkpt lat="46.510303" lon="12.4598944"><ele>762.6666666666667</ele><time>2026-05-03T13:21:21.973Z</time></trkpt><trkpt lat="46.5101789" lon="12.4597346"><ele>759.0</ele><time>2026-05-03T13:21:22.972Z</time></trkpt><trkpt lat="46.5100508" lon="12.459575"><ele>757.6666666666666</ele><time>2026-05-03T13:21:23.972Z</time></trkpt><trkpt lat="46.5099208" lon="12.4594173"><ele>756.3333333333333</ele><time>2026-05-03T13:21:24.974Z</time></trkpt><trkpt lat="46.5097903" lon="12.4592673"><ele>755.0</ele><time>2026-05-03T13:21:25.974Z</time></trkpt><trkpt lat="46.5096561" lon="12.4591273"><ele>752.0</ele><time>2026-05-03T13:21:26.973Z</time></trkpt><trkpt lat="46.5095193" lon="12.4590014"><ele>749.0</ele><time>2026-05-03T13:21:27.972Z</time></trkpt><trkpt lat="46.5093748" lon="12.4588849"><ele>746.0</ele><time>2026-05-03T13:21:28.973Z</time></trkpt><trkpt lat="46.509226" lon="12.4587745"><ele>746.0</ele><time>2026-05-03T13:21:29.973Z</time></trkpt><trkpt lat="46.5090739" lon="12.4586688"><ele>746.0</ele><time>2026-05-03T13:21:30.973Z</time></trkpt><trkpt lat="46.5089154" lon="12.4585694"><ele>746.0</ele><time>2026-05-03T13:21:31.973Z</time></trkpt><trkpt lat="46.5087533" lon="12.458474"><ele>743.0</ele><time>2026-05-03T13:21:32.972Z</time></trkpt><trkpt lat="46.5085905" lon="12.4583777"><ele>740.0</ele><time>2026-05-03T13:21:33.973Z</time></trkpt><trkpt lat="46.508427" lon="12.4582867"><ele>737.0</ele><time>2026-05-03T13:21:34.973Z</time></trkpt><trkpt lat="46.5082636" lon="12.4581921"><ele>737.0</ele><time>2026-05-03T13:21:35.972Z</time></trkpt><trkpt lat="46.5081028" lon="12.4580991"><ele>737.0</ele><time>2026-05-03T13:21:36.973Z</time></trkpt><trkpt lat="46.5079506" lon="12.4580155"><ele>737.0</ele><time>2026-05-03T13:21:37.973Z</time></trkpt><trkpt lat="46.5078024" lon="12.457932"><ele>738.3333333333333</ele><time>2026-05-03T13:21:38.972Z</time></trkpt><trkpt lat="46.5076589" lon="12.4578555"><ele>739.6666666666666</ele><time>2026-05-03T13:21:39.973Z</time></trkpt><trkpt lat="46.5075154" lon="12.4577831"><ele>741.0</ele><time>2026-05-03T13:21:40.973Z</time></trkpt><trkpt lat="46.5073753" lon="12.457714"><ele>741.0</ele><time>2026-05-03T13:21:41.973Z</time></trkpt><trkpt lat="46.5072391" lon="12.4576481"><ele>741.0</ele><time>2026-05-03T13:21:42.972Z</time></trkpt><trkpt lat="46.5071056" lon="12.4575909"><ele>741.0</ele><time>2026-05-03T13:21:43.974Z</time></trkpt><trkpt lat="46.5069714" lon="12.4575455"><ele>741.0</ele><time>2026-05-03T13:21:44.973Z</time></trkpt><trkpt lat="46.5068345" lon="12.4575152"><ele>740.25</ele><time>2026-05-03T13:21:45.973Z</time></trkpt><trkpt lat="46.5066988" lon="12.4575029"><ele>739.5</ele><time>2026-05-03T13:21:46.973Z</time></trkpt><trkpt lat="46.5065653" lon="12.457504"><ele>738.75</ele><time>2026-05-03T13:21:47.972Z</time></trkpt><trkpt lat="46.5064337" lon="12.4575136"><ele>738.0</ele><time>2026-05-03T13:21:48.973Z</time></trkpt><trkpt lat="46.5063029" lon="12.457528"><ele>739.25</ele><time>2026-05-03T13:21:49.973Z</time></trkpt><trkpt lat="46.5061766" lon="12.4575441"><ele>740.5</ele><time>2026-05-03T13:21:50.973Z</time></trkpt><trkpt lat="46.5060447" lon="12.4575652"><ele>741.75</ele><time>2026-05-03T13:21:51.973Z</time></trkpt><trkpt lat="46.505906" lon="12.4575858"><ele>743.0</ele><time>2026-05-03T13:21:52.972Z</time></trkpt><trkpt lat="46.5057671" lon="12.4576031"><ele>743.0</ele><time>2026-05-03T13:21:53.972Z</time></trkpt><trkpt lat="46.5056277" lon="12.457605"><ele>743.0</ele><time>2026-05-03T13:21:54.974Z</time></trkpt><trkpt lat="46.505488" lon="12.457596"><ele>743.0</ele><time>2026-05-03T13:21:55.973Z</time></trkpt><trkpt lat="46.505342" lon="12.4575733"><ele>743.0</ele><time>2026-05-03T13:21:56.974Z</time></trkpt><trkpt lat="46.5052011" lon="12.4575437"><ele>743.5</ele><time>2026-05-03T13:21:57.973Z</time></trkpt><trkpt lat="46.5050681" lon="12.4575129"><ele>744.0</ele><time>2026-05-03T13:21:58.973Z</time></trkpt><trkpt lat="46.5049428" lon="12.4574893"><ele>744.5</ele><time>2026-05-03T13:21:59.974Z</time></trkpt><trkpt lat="46.5048249" lon="12.4574724"><ele>745.0</ele><time>2026-05-03T13:22:00.973Z</time></trkpt><trkpt lat="46.5047122" lon="12.457464"><ele>745.0</ele><time>2026-05-03T13:22:01.973Z</time></trkpt><trkpt lat="46.5046017" lon="12.45747"><ele>745.0</ele><time>2026-05-03T13:22:02.973Z</time></trkpt><trkpt lat="46.5044874" lon="12.4574845"><ele>745.0</ele><time>2026-05-03T13:22:03.972Z</time></trkpt><trkpt lat="46.504367" lon="12.4575007"><ele>745.0</ele><time>2026-05-03T13:22:04.973Z</time></trkpt><trkpt lat="46.504248" lon="12.4575202"><ele>743.8</ele><time>2026-05-03T13:22:05.973Z</time></trkpt><trkpt lat="46.5041328" lon="12.4575385"><ele>742.6</ele><time>2026-05-03T13:22:06.973Z</time></trkpt><trkpt lat="46.5040277" lon="12.4575559"><ele>741.4000000000001</ele><time>2026-05-03T13:22:07.973Z</time></trkpt><trkpt lat="46.5039309" lon="12.4575676"><ele>740.2</ele><time>2026-05-03T13:22:08.973Z</time></trkpt><trkpt lat="46.5038429" lon="12.4575748"><ele>739.0</ele><time>2026-05-03T13:22:09.973Z</time></trkpt><trkpt lat="46.5037731" lon="12.4575801"><ele>739.0</ele><time>2026-05-03T13:22:10.972Z</time></trkpt><trkpt lat="46.5036731" lon="12.4575781"><ele>739.0</ele><time>2026-05-03T13:22:12.973Z</time></trkpt><trkpt lat="46.5036132" lon="12.457608"><ele>739.0</ele><time>2026-05-03T13:22:14.973Z</time></trkpt><trkpt lat="46.5036356" lon="12.4576982"><ele>739.0</ele><time>2026-05-03T13:22:16.973Z</time></trkpt><trkpt lat="46.5037379" lon="12.4577055"><ele>739.0</ele><time>2026-05-03T13:22:18.973Z</time></trkpt><trkpt lat="46.5038201" lon="12.4577003"><ele>739.0</ele><time>2026-05-03T13:22:19.972Z</time></trkpt><trkpt lat="46.5039115" lon="12.4576994"><ele>739.0</ele><time>2026-05-03T13:22:20.973Z</time></trkpt><trkpt lat="46.5040024" lon="12.4576947"><ele>739.0</ele><time>2026-05-03T13:22:21.972Z</time></trkpt><trkpt lat="46.504099" lon="12.4576945"><ele>739.0</ele><time>2026-05-03T13:22:22.973Z</time></trkpt><trkpt lat="46.5041968" lon="12.4576927"><ele>739.0</ele><time>2026-05-03T13:22:23.973Z</time></trkpt><trkpt lat="46.5043024" lon="12.457689"><ele>739.0</ele><time>2026-05-03T13:22:24.973Z</time></trkpt><trkpt lat="46.5044106" lon="12.4576809"><ele>739.0</ele><time>2026-05-03T13:22:25.973Z</time></trkpt><trkpt lat="46.5045143" lon="12.4576761"><ele>739.0</ele><time>2026-05-03T13:22:26.972Z</time></trkpt><trkpt lat="46.5046103" lon="12.4576772"><ele>739.0</ele><time>2026-05-03T13:22:27.973Z</time></trkpt><trkpt lat="46.5046998" lon="12.4576781"><ele>739.0</ele><time>2026-05-03T13:22:28.972Z</time></trkpt><trkpt lat="46.5047835" lon="12.4576854"><ele>739.0</ele><time>2026-05-03T13:22:29.973Z</time></trkpt><trkpt lat="46.50487" lon="12.4577097"><ele>739.8000000000001</ele><time>2026-05-03T13:22:30.973Z</time></trkpt><trkpt lat="46.5049622" lon="12.4577456"><ele>740.6</ele><time>2026-05-03T13:22:31.972Z</time></trkpt><trkpt lat="46.5050667" lon="12.4577799"><ele>741.4</ele><time>2026-05-03T13:22:32.974Z</time></trkpt><trkpt lat="46.5051849" lon="12.4577995"><ele>742.2</ele><time>2026-05-03T13:22:33.973Z</time></trkpt><trkpt lat="46.505309" lon="12.4578074"><ele>743.0</ele><time>2026-05-03T13:22:34.972Z</time></trkpt><trkpt lat="46.5054243" lon="12.4578063"><ele>743.0</ele><time>2026-05-03T13:22:35.973Z</time></trkpt><trkpt lat="46.5055291" lon="12.4578174"><ele>743.0</ele><time>2026-05-03T13:22:36.972Z</time></trkpt><trkpt lat="46.505611" lon="12.4578624"><ele>743.0</ele><time>2026-05-03T13:22:37.973Z</time></trkpt><trkpt lat="46.5056965" lon="12.4579395"><ele>743.0</ele><time>2026-05-03T13:22:38.973Z</time></trkpt><trkpt lat="46.5057133" lon="12.4581031"><ele>743.0</ele><time>2026-05-03T13:22:39.973Z</time></trkpt><trkpt lat="46.5057494" lon="12.4582693"><ele>745.5</ele><time>2026-05-03T13:22:40.972Z</time></trkpt><trkpt lat="46.5057747" lon="12.4584663"><ele>748.0</ele><time>2026-05-03T13:22:41.973Z</time></trkpt><trkpt lat="46.5058017" lon="12.4586676"><ele>750.5</ele><time>2026-05-03T13:22:42.972Z</time></trkpt><trkpt lat="46.5058481" lon="12.4588725"><ele>753.0</ele><time>2026-05-03T13:22:43.973Z</time></trkpt><trkpt lat="46.5059219" lon="12.4590787"><ele>756.3333333333334</ele><time>2026-05-03T13:22:44.972Z</time></trkpt><trkpt lat="46.5060068" lon="12.4592869"><ele>759.6666666666667</ele><time>2026-05-03T13:22:45.973Z</time></trkpt><trkpt lat="46.5060975" lon="12.4594964"><ele>763.0</ele><time>2026-05-03T13:22:46.974Z</time></trkpt><trkpt lat="46.5061895" lon="12.4597018"><ele>760.3333333333334</ele><time>2026-05-03T13:22:47.972Z</time></trkpt><trkpt lat="46.5062815" lon="12.4599018"><ele>757.6666666666666</ele><time>2026-05-03T13:22:48.974Z</time></trkpt><trkpt lat="46.5063817" lon="12.4600906"><ele>755.0</ele><time>2026-05-03T13:22:49.972Z</time></trkpt><trkpt lat="46.5064909" lon="12.4602636"><ele>755.0</ele><time>2026-05-03T13:22:50.973Z</time></trkpt><trkpt lat="46.5065952" lon="12.4604201"><ele>755.0</ele><time>2026-05-03T13:22:51.973Z</time></trkpt><trkpt lat="46.5066906" lon="12.4605701"><ele>755.0</ele><time>2026-05-03T13:22:52.972Z</time></trkpt><trkpt lat="46.506773" lon="12.4607139"><ele>755.0</ele><time>2026-05-03T13:22:53.972Z</time></trkpt><trkpt lat="46.5068329" lon="12.4608599"><ele>756.0</ele><time>2026-05-03T13:22:54.973Z</time></trkpt><trkpt lat="46.5068732" lon="12.4610122"><ele>757.0</ele><time>2026-05-03T13:22:55.972Z</time></trkpt><trkpt lat="46.5068953" lon="12.4611871"><ele>758.0</ele><time>2026-05-03T13:22:56.973Z</time></trkpt><trkpt lat="46.5069027" lon="12.4613773"><ele>759.0</ele><time>2026-05-03T13:22:57.972Z</time></trkpt><trkpt lat="46.5069005" lon="12.4615841"><ele>761.0</ele><time>2026-05-03T13:22:58.973Z</time></trkpt><trkpt lat="46.5069013" lon="12.4617991"><ele>763.0</ele><time>2026-05-03T13:22:59.973Z</time></trkpt><trkpt lat="46.5069002" lon="12.4620141"><ele>765.0</ele><time>2026-05-03T13:23:00.973Z</time></trkpt><trkpt lat="46.5069695" lon="12.4622386"><ele>761.3333333333334</ele><time>2026-05-03T13:23:01.972Z</time></trkpt><trkpt lat="46.5070365" lon="12.4624499"><ele>757.6666666666667</ele><time>2026-05-03T13:23:02.973Z</time></trkpt><trkpt lat="46.5071168" lon="12.4626541"><ele>754.0</ele><time>2026-05-03T13:23:03.972Z</time></trkpt><trkpt lat="46.5072061" lon="12.4628475"><ele>757.5</ele><time>2026-05-03T13:23:04.973Z</time></trkpt><trkpt lat="46.5072987" lon="12.4630193"><ele>761.0</ele><time>2026-05-03T13:23:05.973Z</time></trkpt><trkpt lat="46.5073764" lon="12.4631731"><ele>764.5</ele><time>2026-05-03T13:23:06.974Z</time></trkpt><trkpt lat="46.5074294" lon="12.4633209"><ele>768.0</ele><time>2026-05-03T13:23:07.972Z</time></trkpt><trkpt lat="46.5074483" lon="12.4634746"><ele>768.0</ele><time>2026-05-03T13:23:08.973Z</time></trkpt><trkpt lat="46.5074483" lon="12.4636363"><ele>768.0</ele><time>2026-05-03T13:23:09.973Z</time></trkpt><trkpt lat="46.5074614" lon="12.4637929"><ele>768.0</ele><time>2026-05-03T13:23:10.972Z</time></trkpt><trkpt lat="46.507478" lon="12.4639679"><ele>768.0</ele><time>2026-05-03T13:23:11.973Z</time></trkpt><trkpt lat="46.5074782" lon="12.4641525"><ele>772.25</ele><time>2026-05-03T13:23:12.973Z</time></trkpt><trkpt lat="46.5074732" lon="12.4643512"><ele>776.5</ele><time>2026-05-03T13:23:13.973Z</time></trkpt><trkpt lat="46.5074692" lon="12.464557"><ele>780.75</ele><time>2026-05-03T13:23:14.973Z</time></trkpt><trkpt lat="46.5074897" lon="12.4647582"><ele>785.0</ele><time>2026-05-03T13:23:15.972Z</time></trkpt><trkpt lat="46.5075031" lon="12.4649628"><ele>787.25</ele><time>2026-05-03T13:23:16.973Z</time></trkpt><trkpt lat="46.507514" lon="12.465169"><ele>789.5</ele><time>2026-05-03T13:23:17.974Z</time></trkpt><trkpt lat="46.5075176" lon="12.4653777"><ele>791.75</ele><time>2026-05-03T13:23:18.972Z</time></trkpt><trkpt lat="46.5075283" lon="12.4655938"><ele>794.0</ele><time>2026-05-03T13:23:19.973Z</time></trkpt><trkpt lat="46.5075431" lon="12.4658161"><ele>796.0</ele><time>2026-05-03T13:23:20.973Z</time></trkpt><trkpt lat="46.5075609" lon="12.466048"><ele>798.0</ele><time>2026-05-03T13:23:21.973Z</time></trkpt><trkpt lat="46.5075839" lon="12.46628"><ele>800.0</ele><time>2026-05-03T13:23:22.972Z</time></trkpt><trkpt lat="46.5076144" lon="12.4665195"><ele>800.3333333333334</ele><time>2026-05-03T13:23:23.973Z</time></trkpt><trkpt lat="46.5076464" lon="12.4667605"><ele>800.6666666666667</ele><time>2026-05-03T13:23:24.973Z</time></trkpt><trkpt lat="46.5076795" lon="12.4670081"><ele>801.0</ele><time>2026-05-03T13:23:25.972Z</time></trkpt><trkpt lat="46.5077156" lon="12.4672563"><ele>802.3333333333333</ele><time>2026-05-03T13:23:26.973Z</time></trkpt><trkpt lat="46.5077521" lon="12.4674943"><ele>803.6666666666666</ele><time>2026-05-03T13:23:27.973Z</time></trkpt><trkpt lat="46.5077881" lon="12.4677308"><ele>805.0</ele><time>2026-05-03T13:23:28.974Z</time></trkpt><trkpt lat="46.5078212" lon="12.4679655"><ele>806.0</ele><time>2026-05-03T13:23:29.973Z</time></trkpt><trkpt lat="46.5078496" lon="12.4681882"><ele>807.0</ele><time>2026-05-03T13:23:30.973Z</time></trkpt><trkpt lat="46.5078698" lon="12.4684068"><ele>808.0</ele><time>2026-05-03T13:23:31.972Z</time></trkpt><trkpt lat="46.5078791" lon="12.4686227"><ele>811.0</ele><time>2026-05-03T13:23:32.973Z</time></trkpt><trkpt lat="46.5078812" lon="12.4688445"><ele>814.0</ele><time>2026-05-03T13:23:33.973Z</time></trkpt><trkpt lat="46.5078707" lon="12.4690637"><ele>817.0</ele><time>2026-05-03T13:23:34.972Z</time></trkpt><trkpt lat="46.5078457" lon="12.4692806"><ele>817.0</ele><time>2026-05-03T13:23:35.973Z</time></trkpt><trkpt lat="46.5078104" lon="12.4694938"><ele>817.0</ele><time>2026-05-03T13:23:36.972Z</time></trkpt><trkpt lat="46.5077653" lon="12.4696935"><ele>817.0</ele><time>2026-05-03T13:23:37.973Z</time></trkpt><trkpt lat="46.5077071" lon="12.4698809"><ele>817.0</ele><time>2026-05-03T13:23:38.973Z</time></trkpt><trkpt lat="46.5076304" lon="12.4700414"><ele>817.5</ele><time>2026-05-03T13:23:39.973Z</time></trkpt><trkpt lat="46.5075401" lon="12.4701631"><ele>818.0</ele><time>2026-05-03T13:23:40.972Z</time></trkpt><trkpt lat="46.5074353" lon="12.4702612"><ele>818.5</ele><time>2026-05-03T13:23:41.973Z</time></trkpt><trkpt lat="46.5073381" lon="12.4703448"><ele>819.0</ele><time>2026-05-03T13:23:42.973Z</time></trkpt><trkpt lat="46.5072619" lon="12.4704426"><ele>819.8000000000001</ele><time>2026-05-03T13:23:43.974Z</time></trkpt><trkpt lat="46.5072177" lon="12.4705705"><ele>820.6</ele><time>2026-05-03T13:23:44.972Z</time></trkpt><trkpt lat="46.5072197" lon="12.4707204"><ele>821.4</ele><time>2026-05-03T13:23:45.973Z</time></trkpt><trkpt lat="46.5072503" lon="12.4708754"><ele>822.2</ele><time>2026-05-03T13:23:46.974Z</time></trkpt><trkpt lat="46.5072781" lon="12.4710144"><ele>823.0</ele><time>2026-05-03T13:23:47.973Z</time></trkpt><trkpt lat="46.5072884" lon="12.4711421"><ele>822.9999999999999</ele><time>2026-05-03T13:23:48.973Z</time></trkpt><trkpt lat="46.5072642" lon="12.4712574"><ele>823.0</ele><time>2026-05-03T13:23:49.974Z</time></trkpt><trkpt lat="46.5072008" lon="12.4713263"><ele>823.0</ele><time>2026-05-03T13:23:50.972Z</time></trkpt><trkpt lat="46.5071228" lon="12.4713275"><ele>823.0</ele><time>2026-05-03T13:23:51.973Z</time></trkpt><trkpt lat="46.5070556" lon="12.4712495"><ele>822.9999999999999</ele><time>2026-05-03T13:23:52.974Z</time></trkpt><trkpt lat="46.5070347" lon="12.4711282"><ele>823.0</ele><time>2026-05-03T13:23:53.973Z</time></trkpt><trkpt lat="46.5070533" lon="12.4709953"><ele>830.75</ele><time>2026-05-03T13:23:54.973Z</time></trkpt><trkpt lat="46.5070528" lon="12.4708442"><ele>838.5</ele><time>2026-05-03T13:23:55.972Z</time></trkpt><trkpt lat="46.5070306" lon="12.470678"><ele>846.25</ele><time>2026-05-03T13:23:56.974Z</time></trkpt><trkpt lat="46.5070118" lon="12.4704965"><ele>854.0</ele><time>2026-05-03T13:23:57.974Z</time></trkpt><trkpt lat="46.5069876" lon="12.4703002"><ele>856.3333333333334</ele><time>2026-05-03T13:23:58.973Z</time></trkpt><trkpt lat="46.5069532" lon="12.4701019"><ele>858.6666666666667</ele><time>2026-05-03T13:23:59.972Z</time></trkpt><trkpt lat="46.5069175" lon="12.4698876"><ele>861.0</ele><time>2026-05-03T13:24:00.974Z</time></trkpt><trkpt lat="46.506891" lon="12.4696568"><ele>861.25</ele><time>2026-05-03T13:24:01.973Z</time></trkpt><trkpt lat="46.5068869" lon="12.4694439"><ele>861.5</ele><time>2026-05-03T13:24:02.973Z</time></trkpt><trkpt lat="46.5068879" lon="12.469253"><ele>861.75</ele><time>2026-05-03T13:24:03.973Z</time></trkpt><trkpt lat="46.5069006" lon="12.4690817"><ele>862.0</ele><time>2026-05-03T13:24:04.973Z</time></trkpt><trkpt lat="46.506918" lon="12.4689428"><ele>862.0</ele><time>2026-05-03T13:24:05.972Z</time></trkpt><trkpt lat="46.5069307" lon="12.4688217"><ele>862.0</ele><time>2026-05-03T13:24:06.973Z</time></trkpt><trkpt lat="46.5069166" lon="12.4687283"><ele>862.0</ele><time>2026-05-03T13:24:07.973Z</time></trkpt><trkpt lat="46.5068174" lon="12.4686797"><ele>862.0</ele><time>2026-05-03T13:24:09.973Z</time></trkpt><trkpt lat="46.5067891" lon="12.4688388"><ele>862.0</ele><time>2026-05-03T13:24:11.973Z</time></trkpt><trkpt lat="46.5067946" lon="12.4689582"><ele>862.0</ele><time>2026-05-03T13:24:12.974Z</time></trkpt><trkpt lat="46.5068054" lon="12.4691198"><ele>862.0</ele><time>2026-05-03T13:24:13.973Z</time></trkpt><trkpt lat="46.506785" lon="12.4692969"><ele>862.0</ele><time>2026-05-03T13:24:14.972Z</time></trkpt><trkpt lat="46.5067561" lon="12.4694704"><ele>862.0</ele><time>2026-05-03T13:24:15.973Z</time></trkpt><trkpt lat="46.5067183" lon="12.469657"><ele>861.75</ele><time>2026-05-03T13:24:16.973Z</time></trkpt><trkpt lat="46.506694" lon="12.4698412"><ele>861.5</ele><time>2026-05-03T13:24:17.972Z</time></trkpt><trkpt lat="46.5066897" lon="12.4700167"><ele>861.25</ele><time>2026-05-03T13:24:18.973Z</time></trkpt><trkpt lat="46.5066808" lon="12.4701764"><ele>861.0</ele><time>2026-05-03T13:24:19.972Z</time></trkpt><trkpt lat="46.5066321" lon="12.4703237"><ele>859.25</ele><time>2026-05-03T13:24:20.973Z</time></trkpt><trkpt lat="46.5065537" lon="12.4704608"><ele>857.5</ele><time>2026-05-03T13:24:21.972Z</time></trkpt><trkpt lat="46.5064639" lon="12.470597"><ele>855.75</ele><time>2026-05-03T13:24:22.974Z</time></trkpt><trkpt lat="46.5063685" lon="12.4707346"><ele>854.0</ele><time>2026-05-03T13:24:23.974Z</time></trkpt><trkpt lat="46.5062622" lon="12.4708797"><ele>858.6666666666667</ele><time>2026-05-03T13:24:24.973Z</time></trkpt><trkpt lat="46.5061495" lon="12.4710321"><ele>863.3333333333333</ele><time>2026-05-03T13:24:25.974Z</time></trkpt><trkpt lat="46.5060336" lon="12.4711896"><ele>868.0</ele><time>2026-05-03T13:24:26.973Z</time></trkpt><trkpt lat="46.5059239" lon="12.4713413"><ele>868.0</ele><time>2026-05-03T13:24:27.973Z</time></trkpt><trkpt lat="46.5058089" lon="12.4714952"><ele>868.0</ele><time>2026-05-03T13:24:28.973Z</time></trkpt><trkpt lat="46.5056949" lon="12.4716499"><ele>868.0</ele><time>2026-05-03T13:24:29.973Z</time></trkpt><trkpt lat="46.5055802" lon="12.471807"><ele>868.0</ele><time>2026-05-03T13:24:30.972Z</time></trkpt><trkpt lat="46.5054605" lon="12.4719713"><ele>868.0</ele><time>2026-05-03T13:24:31.973Z</time></trkpt><trkpt lat="46.5053364" lon="12.4721337"><ele>868.0</ele><time>2026-05-03T13:24:32.972Z</time></trkpt><trkpt lat="46.5052184" lon="12.4723065"><ele>874.0</ele><time>2026-05-03T13:24:33.974Z</time></trkpt><trkpt lat="46.5051104" lon="12.4724938"><ele>880.0</ele><time>2026-05-03T13:24:34.972Z</time></trkpt><trkpt lat="46.5050135" lon="12.472687"><ele>886.0</ele><time>2026-05-03T13:24:35.973Z</time></trkpt><trkpt lat="46.5049224" lon="12.47287"><ele>884.25</ele><time>2026-05-03T13:24:36.973Z</time></trkpt><trkpt lat="46.5048438" lon="12.4730446"><ele>882.5</ele><time>2026-05-03T13:24:37.973Z</time></trkpt><trkpt lat="46.5047829" lon="12.4732102"><ele>880.75</ele><time>2026-05-03T13:24:38.973Z</time></trkpt><trkpt lat="46.5047435" lon="12.4733821"><ele>879.0</ele><time>2026-05-03T13:24:39.973Z</time></trkpt><trkpt lat="46.5047364" lon="12.4735635"><ele>879.0</ele><time>2026-05-03T13:24:40.972Z</time></trkpt><trkpt lat="46.5047632" lon="12.4737498"><ele>879.0</ele><time>2026-05-03T13:24:41.973Z</time></trkpt><trkpt lat="46.5048225" lon="12.473932"><ele>879.0</ele><time>2026-05-03T13:24:42.973Z</time></trkpt><trkpt lat="46.5049005" lon="12.4741117"><ele>879.0</ele><time>2026-05-03T13:24:43.973Z</time></trkpt><trkpt lat="46.5049804" lon="12.4742929"><ele>880.0</ele><time>2026-05-03T13:24:44.973Z</time></trkpt><trkpt lat="46.5050503" lon="12.4744656"><ele>881.0</ele><time>2026-05-03T13:24:45.972Z</time></trkpt><trkpt lat="46.5051044" lon="12.4746305"><ele>882.0</ele><time>2026-05-03T13:24:46.973Z</time></trkpt><trkpt lat="46.5051441" lon="12.4747964"><ele>883.0</ele><time>2026-05-03T13:24:47.972Z</time></trkpt><trkpt lat="46.505158" lon="12.4749823"><ele>886.0</ele><time>2026-05-03T13:24:48.973Z</time></trkpt><trkpt lat="46.5051462" lon="12.4751783"><ele>889.0</ele><time>2026-05-03T13:24:49.972Z</time></trkpt><trkpt lat="46.5051059" lon="12.4753774"><ele>892.0</ele><time>2026-05-03T13:24:50.974Z</time></trkpt><trkpt lat="46.5050718" lon="12.4755732"><ele>895.0</ele><time>2026-05-03T13:24:51.973Z</time></trkpt><trkpt lat="46.5050323" lon="12.475744"><ele>896.2</ele><time>2026-05-03T13:24:52.973Z</time></trkpt><trkpt lat="46.5049886" lon="12.4758884"><ele>897.4</ele><time>2026-05-03T13:24:53.973Z</time></trkpt><trkpt lat="46.5049193" lon="12.4760011"><ele>898.5999999999999</ele><time>2026-05-03T13:24:54.973Z</time></trkpt><trkpt lat="46.5048244" lon="12.4760924"><ele>899.8</ele><time>2026-05-03T13:24:55.972Z</time></trkpt><trkpt lat="46.5047191" lon="12.4761776"><ele>901.0</ele><time>2026-05-03T13:24:56.973Z</time></trkpt><trkpt lat="46.5046028" lon="12.4762643"><ele>901.75</ele><time>2026-05-03T13:24:57.972Z</time></trkpt><trkpt lat="46.5044809" lon="12.476354"><ele>902.5</ele><time>2026-05-03T13:24:58.973Z</time></trkpt><trkpt lat="46.5043506" lon="12.4764534"><ele>903.25</ele><time>2026-05-03T13:24:59.973Z</time></trkpt><trkpt lat="46.5042148" lon="12.4765538"><ele>904.0</ele><time>2026-05-03T13:25:00.973Z</time></trkpt><trkpt lat="46.5040756" lon="12.4766569"><ele>904.0</ele><time>2026-05-03T13:25:01.972Z</time></trkpt><trkpt lat="46.5039427" lon="12.4767591"><ele>904.0</ele><time>2026-05-03T13:25:02.974Z</time></trkpt><trkpt lat="46.5038096" lon="12.4768581"><ele>904.0</ele><time>2026-05-03T13:25:03.974Z</time></trkpt><trkpt lat="46.5036857" lon="12.4769496"><ele>904.0</ele><time>2026-05-03T13:25:04.972Z</time></trkpt><trkpt lat="46.5035691" lon="12.4770327"><ele>903.75</ele><time>2026-05-03T13:25:05.973Z</time></trkpt><trkpt lat="46.5034566" lon="12.47711"><ele>903.5</ele><time>2026-05-03T13:25:06.973Z</time></trkpt><trkpt lat="46.5033474" lon="12.477187"><ele>903.25</ele><time>2026-05-03T13:25:07.974Z</time></trkpt><trkpt lat="46.5032398" lon="12.477265"><ele>903.0</ele><time>2026-05-03T13:25:08.973Z</time></trkpt><trkpt lat="46.5031335" lon="12.4773415"><ele>903.0</ele><time>2026-05-03T13:25:09.973Z</time></trkpt><trkpt lat="46.5030287" lon="12.4774154"><ele>903.0</ele><time>2026-05-03T13:25:10.972Z</time></trkpt><trkpt lat="46.5029261" lon="12.4774828"><ele>903.0</ele><time>2026-05-03T13:25:11.973Z</time></trkpt><trkpt lat="46.5028138" lon="12.477547"><ele>903.0</ele><time>2026-05-03T13:25:12.973Z</time></trkpt><trkpt lat="46.5026916" lon="12.4776038"><ele>902.75</ele><time>2026-05-03T13:25:13.973Z</time></trkpt><trkpt lat="46.5025616" lon="12.4776506"><ele>902.5</ele><time>2026-05-03T13:25:14.972Z</time></trkpt><trkpt lat="46.502423" lon="12.477685"><ele>902.25</ele><time>2026-05-03T13:25:15.973Z</time></trkpt><trkpt lat="46.5022797" lon="12.4777128"><ele>902.0</ele><time>2026-05-03T13:25:16.972Z</time></trkpt><trkpt lat="46.502131" lon="12.4777388"><ele>903.6666666666667</ele><time>2026-05-03T13:25:17.973Z</time></trkpt><trkpt lat="46.5019775" lon="12.4777617"><ele>905.3333333333333</ele><time>2026-05-03T13:25:18.973Z</time></trkpt><trkpt lat="46.5018212" lon="12.4777889"><ele>907.0</ele><time>2026-05-03T13:25:19.973Z</time></trkpt><trkpt lat="46.5016641" lon="12.4778183"><ele>907.0</ele><time>2026-05-03T13:25:20.972Z</time></trkpt><trkpt lat="46.5015067" lon="12.4778451"><ele>907.0</ele><time>2026-05-03T13:25:21.973Z</time></trkpt><trkpt lat="46.5013523" lon="12.4778645"><ele>907.0</ele><time>2026-05-03T13:25:22.972Z</time></trkpt><trkpt lat="46.5011957" lon="12.4778675"><ele>908.3333333333333</ele><time>2026-05-03T13:25:23.973Z</time></trkpt><trkpt lat="46.5010378" lon="12.4778406"><ele>909.6666666666667</ele><time>2026-05-03T13:25:24.973Z</time></trkpt><trkpt lat="46.5008814" lon="12.4777948"><ele>911.0</ele><time>2026-05-03T13:25:25.973Z</time></trkpt><trkpt lat="46.5007357" lon="12.4777518"><ele>911.0</ele><time>2026-05-03T13:25:26.973Z</time></trkpt><trkpt lat="46.5006012" lon="12.4777114"><ele>911.0</ele><time>2026-05-03T13:25:27.973Z</time></trkpt><trkpt lat="46.5004681" lon="12.4776795"><ele>911.0</ele><time>2026-05-03T13:25:28.973Z</time></trkpt><trkpt lat="46.5003297" lon="12.4776544"><ele>911.0</ele><time>2026-05-03T13:25:29.973Z</time></trkpt><trkpt lat="46.500192" lon="12.4776325"><ele>913.5</ele><time>2026-05-03T13:25:30.973Z</time></trkpt><trkpt lat="46.5000534" lon="12.47762"><ele>916.0</ele><time>2026-05-03T13:25:31.973Z</time></trkpt><trkpt lat="46.4999193" lon="12.4776084"><ele>918.5</ele><time>2026-05-03T13:25:32.973Z</time></trkpt><trkpt lat="46.4997883" lon="12.4775925"><ele>921.0</ele><time>2026-05-03T13:25:33.973Z</time></trkpt><trkpt lat="46.4996584" lon="12.4775761"><ele>921.75</ele><time>2026-05-03T13:25:34.972Z</time></trkpt><trkpt lat="46.4995265" lon="12.4775611"><ele>922.5</ele><time>2026-05-03T13:25:35.972Z</time></trkpt><trkpt lat="46.4994006" lon="12.4775472"><ele>923.25</ele><time>2026-05-03T13:25:36.973Z</time></trkpt><trkpt lat="46.4992795" lon="12.477535"><ele>924.0</ele><time>2026-05-03T13:25:37.972Z</time></trkpt><trkpt lat="46.4991595" lon="12.477524"><ele>924.0</ele><time>2026-05-03T13:25:38.973Z</time></trkpt><trkpt lat="46.4990376" lon="12.4775176"><ele>924.0</ele><time>2026-05-03T13:25:39.972Z</time></trkpt><trkpt lat="46.4989204" lon="12.4775292"><ele>924.0</ele><time>2026-05-03T13:25:40.973Z</time></trkpt><trkpt lat="46.4988025" lon="12.4775719"><ele>924.0</ele><time>2026-05-03T13:25:41.973Z</time></trkpt><trkpt lat="46.4986874" lon="12.4776464"><ele>924.0</ele><time>2026-05-03T13:25:42.973Z</time></trkpt><trkpt lat="46.4985666" lon="12.4777371"><ele>924.0</ele><time>2026-05-03T13:25:43.972Z</time></trkpt><trkpt lat="46.4984457" lon="12.4778276"><ele>924.0</ele><time>2026-05-03T13:25:44.974Z</time></trkpt><trkpt lat="46.4983263" lon="12.4779171"><ele>924.0</ele><time>2026-05-03T13:25:45.973Z</time></trkpt><trkpt lat="46.4982129" lon="12.4780016"><ele>924.0</ele><time>2026-05-03T13:25:46.973Z</time></trkpt><trkpt lat="46.4981049" lon="12.4780831"><ele>924.0</ele><time>2026-05-03T13:25:47.973Z</time></trkpt><trkpt lat="46.4979931" lon="12.478166"><ele>924.0</ele><time>2026-05-03T13:25:48.973Z</time></trkpt><trkpt lat="46.4978792" lon="12.4782512"><ele>924.0</ele><time>2026-05-03T13:25:49.973Z</time></trkpt><trkpt lat="46.497766" lon="12.4783298"><ele>925.2</ele><time>2026-05-03T13:25:50.973Z</time></trkpt><trkpt lat="46.497654" lon="12.4783865"><ele>926.4000000000001</ele><time>2026-05-03T13:25:51.973Z</time></trkpt><trkpt lat="46.4975418" lon="12.4784284"><ele>927.6</ele><time>2026-05-03T13:25:52.972Z</time></trkpt><trkpt lat="46.4974324" lon="12.4784644"><ele>928.8</ele><time>2026-05-03T13:25:53.973Z</time></trkpt><trkpt lat="46.4973329" lon="12.4784836"><ele>930.0</ele><time>2026-05-03T13:25:54.973Z</time></trkpt><trkpt lat="46.4972565" lon="12.4784927"><ele>930.0</ele><time>2026-05-03T13:25:55.972Z</time></trkpt><trkpt lat="46.4971611" lon="12.4784917"><ele>930.0</ele><time>2026-05-03T13:25:57.973Z</time></trkpt><trkpt lat="46.4970845" lon="12.4784995"><ele>930.0</ele><time>2026-05-03T13:25:59.974Z</time></trkpt><trkpt lat="46.4969772" lon="12.4785645"><ele>930.0</ele><time>2026-05-03T13:26:01.973Z</time></trkpt><trkpt lat="46.4969114" lon="12.4786035"><ele>930.0</ele><time>2026-05-03T13:26:02.972Z</time></trkpt><trkpt lat="46.4968446" lon="12.4786518"><ele>930.0</ele><time>2026-05-03T13:26:03.973Z</time></trkpt><trkpt lat="46.4967662" lon="12.4787167"><ele>930.3333333333334</ele><time>2026-05-03T13:26:04.974Z</time></trkpt><trkpt lat="46.4966878" lon="12.4787855"><ele>930.6666666666667</ele><time>2026-05-03T13:26:05.972Z</time></trkpt><trkpt lat="46.4966064" lon="12.4788547"><ele>931.0</ele><time>2026-05-03T13:26:06.973Z</time></trkpt><trkpt lat="46.4965281" lon="12.4789068"><ele>931.3333333333334</ele><time>2026-05-03T13:26:07.973Z</time></trkpt><trkpt lat="46.4964542" lon="12.4789453"><ele>931.6666666666667</ele><time>2026-05-03T13:26:08.973Z</time></trkpt><trkpt lat="46.4963847" lon="12.4789574"><ele>932.0</ele><time>2026-05-03T13:26:09.973Z</time></trkpt><trkpt lat="46.4962814" lon="12.4790313"><ele>931.8333333333334</ele><time>2026-05-03T13:26:11.973Z</time></trkpt><trkpt lat="46.4962514" lon="12.4791174"><ele>931.6666666666667</ele><time>2026-05-03T13:26:12.974Z</time></trkpt><trkpt lat="46.4962265" lon="12.4792252"><ele>931.5</ele><time>2026-05-03T13:26:13.972Z</time></trkpt><trkpt lat="46.4962076" lon="12.4793513"><ele>931.3333333333333</ele><time>2026-05-03T13:26:14.973Z</time></trkpt><trkpt lat="46.4961825" lon="12.4794874"><ele>931.1666666666666</ele><time>2026-05-03T13:26:15.973Z</time></trkpt><trkpt lat="46.4961571" lon="12.4796341"><ele>931.0</ele><time>2026-05-03T13:26:16.973Z</time></trkpt><trkpt lat="46.4961312" lon="12.4797801"><ele>931.0</ele><time>2026-05-03T13:26:17.973Z</time></trkpt><trkpt lat="46.496105" lon="12.4799325"><ele>930.9999999999999</ele><time>2026-05-03T13:26:18.973Z</time></trkpt><trkpt lat="46.4960789" lon="12.4800804"><ele>930.9999999999999</ele><time>2026-05-03T13:26:19.973Z</time></trkpt><trkpt lat="46.4960553" lon="12.4802215"><ele>931.0</ele><time>2026-05-03T13:26:20.972Z</time></trkpt><trkpt lat="46.4960304" lon="12.4803724"><ele>931.0</ele><time>2026-05-03T13:26:21.974Z</time></trkpt><trkpt lat="46.496005" lon="12.4805203"><ele>932.1999999999999</ele><time>2026-05-03T13:26:22.973Z</time></trkpt><trkpt lat="46.4959784" lon="12.4806638"><ele>933.3999999999999</ele><time>2026-05-03T13:26:23.973Z</time></trkpt><trkpt lat="46.4959535" lon="12.4807985"><ele>934.6</ele><time>2026-05-03T13:26:24.973Z</time></trkpt><trkpt lat="46.4959309" lon="12.4809155"><ele>935.8</ele><time>2026-05-03T13:26:25.973Z</time></trkpt><trkpt lat="46.495911" lon="12.481019"><ele>937.0</ele><time>2026-05-03T13:26:26.973Z</time></trkpt><trkpt lat="46.4958709" lon="12.4811764"><ele>937.6666666666666</ele><time>2026-05-03T13:26:28.972Z</time></trkpt><trkpt lat="46.4958333" lon="12.4812697"><ele>938.3333333333333</ele><time>2026-05-03T13:26:30.972Z</time></trkpt><trkpt lat="46.4957785" lon="12.4813773"><ele>939.0</ele><time>2026-05-03T13:26:33.973Z</time></trkpt><trkpt lat="46.4957471" lon="12.4814764"><ele>939.6666666666667</ele><time>2026-05-03T13:26:35.973Z</time></trkpt><trkpt lat="46.4957153" lon="12.4815697"><ele>940.3333333333334</ele><time>2026-05-03T13:26:37.973Z</time></trkpt><trkpt lat="46.4956771" lon="12.4817196"><ele>941.0</ele><time>2026-05-03T13:26:39.973Z</time></trkpt><trkpt lat="46.4956556" lon="12.4818306"><ele>941.0000000000001</ele><time>2026-05-03T13:26:40.972Z</time></trkpt><trkpt lat="46.4956362" lon="12.4819539"><ele>941.0</ele><time>2026-05-03T13:26:41.974Z</time></trkpt><trkpt lat="46.4956188" lon="12.4820637"><ele>941.0</ele><time>2026-05-03T13:26:42.973Z</time></trkpt><trkpt lat="46.4955951" lon="12.4821635"><ele>941.0</ele><time>2026-05-03T13:26:43.973Z</time></trkpt><trkpt lat="46.4955525" lon="12.4822441"><ele>941.0000000000001</ele><time>2026-05-03T13:26:44.972Z</time></trkpt><trkpt lat="46.4954865" lon="12.4823049"><ele>941.0</ele><time>2026-05-03T13:26:45.974Z</time></trkpt><trkpt lat="46.4953921" lon="12.4823629"><ele>941.8</ele><time>2026-05-03T13:26:46.972Z</time></trkpt><trkpt lat="46.4952915" lon="12.4824183"><ele>942.5999999999999</ele><time>2026-05-03T13:26:47.973Z</time></trkpt><trkpt lat="46.4951896" lon="12.4824779"><ele>943.4</ele><time>2026-05-03T13:26:48.972Z</time></trkpt><trkpt lat="46.4950897" lon="12.4825342"><ele>944.2</ele><time>2026-05-03T13:26:49.973Z</time></trkpt><trkpt lat="46.4949912" lon="12.4825916"><ele>945.0</ele><time>2026-05-03T13:26:50.973Z</time></trkpt><trkpt lat="46.4948964" lon="12.4826479"><ele>945.0</ele><time>2026-05-03T13:26:51.972Z</time></trkpt><trkpt lat="46.4947975" lon="12.482685"><ele>945.0</ele><time>2026-05-03T13:26:52.973Z</time></trkpt><trkpt lat="46.4947067" lon="12.4827017"><ele>945.0</ele><time>2026-05-03T13:26:53.973Z</time></trkpt><trkpt lat="46.4946268" lon="12.482712"><ele>945.0</ele><time>2026-05-03T13:26:54.973Z</time></trkpt><trkpt lat="46.4945484" lon="12.48271"><ele>945.0</ele><time>2026-05-03T13:26:55.973Z</time></trkpt><trkpt lat="46.4944729" lon="12.4826838"><ele>945.0</ele><time>2026-05-03T13:26:56.973Z</time></trkpt><trkpt lat="46.4943973" lon="12.4826215"><ele>947.2</ele><time>2026-05-03T13:26:57.972Z</time></trkpt><trkpt lat="46.4943203" lon="12.4825325"><ele>949.4</ele><time>2026-05-03T13:26:58.973Z</time></trkpt><trkpt lat="46.4942432" lon="12.4824279"><ele>951.5999999999999</ele><time>2026-05-03T13:26:59.972Z</time></trkpt><trkpt lat="46.4941879" lon="12.4823196"><ele>953.8</ele><time>2026-05-03T13:27:00.972Z</time></trkpt><trkpt lat="46.4941574" lon="12.482186"><ele>956.0</ele><time>2026-05-03T13:27:01.973Z</time></trkpt><trkpt lat="46.4941631" lon="12.4820358"><ele>957.0</ele><time>2026-05-03T13:27:02.973Z</time></trkpt><trkpt lat="46.4941956" lon="12.4818791"><ele>957.9999999999999</ele><time>2026-05-03T13:27:03.972Z</time></trkpt><trkpt lat="46.4942434" lon="12.481729"><ele>958.9999999999999</ele><time>2026-05-03T13:27:04.973Z</time></trkpt><trkpt lat="46.4942887" lon="12.4816025"><ele>960.0</ele><time>2026-05-03T13:27:05.973Z</time></trkpt><trkpt lat="46.4943304" lon="12.4814896"><ele>961.0</ele><time>2026-05-03T13:27:06.972Z</time></trkpt><trkpt lat="46.4943581" lon="12.48139"><ele>961.0</ele><time>2026-05-03T13:27:07.972Z</time></trkpt><trkpt lat="46.494354" lon="12.4812798"><ele>960.9999999999999</ele><time>2026-05-03T13:27:08.973Z</time></trkpt><trkpt lat="46.4943152" lon="12.4811691"><ele>960.9999999999999</ele><time>2026-05-03T13:27:09.972Z</time></trkpt><trkpt lat="46.4942425" lon="12.4810752"><ele>961.0</ele><time>2026-05-03T13:27:10.973Z</time></trkpt><trkpt lat="46.4941444" lon="12.4809993"><ele>961.0</ele><time>2026-05-03T13:27:11.972Z</time></trkpt><trkpt lat="46.494037" lon="12.4809268"><ele>959.5</ele><time>2026-05-03T13:27:12.973Z</time></trkpt><trkpt lat="46.4939199" lon="12.4808482"><ele>958.0</ele><time>2026-05-03T13:27:13.972Z</time></trkpt><trkpt lat="46.4938077" lon="12.480767"><ele>956.5</ele><time>2026-05-03T13:27:14.974Z</time></trkpt><trkpt lat="46.4937013" lon="12.4806764"><ele>955.0</ele><time>2026-05-03T13:27:15.973Z</time></trkpt><trkpt lat="46.4935961" lon="12.480566"><ele>956.75</ele><time>2026-05-03T13:27:16.973Z</time></trkpt><trkpt lat="46.4934966" lon="12.4804652"><ele>958.5</ele><time>2026-05-03T13:27:17.973Z</time></trkpt><trkpt lat="46.493399" lon="12.4803711"><ele>960.25</ele><time>2026-05-03T13:27:18.973Z</time></trkpt><trkpt lat="46.4933055" lon="12.4802929"><ele>962.0</ele><time>2026-05-03T13:27:19.973Z</time></trkpt><trkpt lat="46.4932125" lon="12.4802267"><ele>962.0</ele><time>2026-05-03T13:27:20.972Z</time></trkpt><trkpt lat="46.4931066" lon="12.4801716"><ele>962.0</ele><time>2026-05-03T13:27:21.972Z</time></trkpt><trkpt lat="46.4929973" lon="12.4801397"><ele>962.0</ele><time>2026-05-03T13:27:22.973Z</time></trkpt><trkpt lat="46.4928945" lon="12.4801291"><ele>962.0</ele><time>2026-05-03T13:27:23.972Z</time></trkpt><trkpt lat="46.4927881" lon="12.48015"><ele>962.0</ele><time>2026-05-03T13:27:24.973Z</time></trkpt><trkpt lat="46.4926837" lon="12.4802125"><ele>963.6</ele><time>2026-05-03T13:27:25.972Z</time></trkpt><trkpt lat="46.4925982" lon="12.4803167"><ele>965.2</ele><time>2026-05-03T13:27:26.973Z</time></trkpt><trkpt lat="46.49253" lon="12.480443"><ele>966.8</ele><time>2026-05-03T13:27:27.973Z</time></trkpt><trkpt lat="46.4924767" lon="12.4805792"><ele>968.4</ele><time>2026-05-03T13:27:28.972Z</time></trkpt><trkpt lat="46.4924443" lon="12.4807307"><ele>970.0</ele><time>2026-05-03T13:27:29.972Z</time></trkpt><trkpt lat="46.4924387" lon="12.4809059"><ele>972.25</ele><time>2026-05-03T13:27:30.973Z</time></trkpt><trkpt lat="46.4924452" lon="12.4810934"><ele>974.5</ele><time>2026-05-03T13:27:31.973Z</time></trkpt><trkpt lat="46.4924536" lon="12.4812911"><ele>976.75</ele><time>2026-05-03T13:27:32.973Z</time></trkpt><trkpt lat="46.4924633" lon="12.4814841"><ele>979.0</ele><time>2026-05-03T13:27:33.973Z</time></trkpt><trkpt lat="46.4924735" lon="12.4816686"><ele>980.0</ele><time>2026-05-03T13:27:34.972Z</time></trkpt><trkpt lat="46.4924782" lon="12.4818391"><ele>981.0</ele><time>2026-05-03T13:27:35.973Z</time></trkpt><trkpt lat="46.4924689" lon="12.4820054"><ele>982.0</ele><time>2026-05-03T13:27:36.973Z</time></trkpt><trkpt lat="46.49244" lon="12.4821627"><ele>983.0</ele><time>2026-05-03T13:27:37.972Z</time></trkpt><trkpt lat="46.4923984" lon="12.4823299"><ele>983.5</ele><time>2026-05-03T13:27:38.973Z</time></trkpt><trkpt lat="46.4923391" lon="12.4824925"><ele>984.0</ele><time>2026-05-03T13:27:39.973Z</time></trkpt><trkpt lat="46.4922678" lon="12.4826432"><ele>984.5</ele><time>2026-05-03T13:27:40.972Z</time></trkpt><trkpt lat="46.4921798" lon="12.4827764"><ele>985.0</ele><time>2026-05-03T13:27:41.973Z</time></trkpt><trkpt lat="46.4920738" lon="12.4828998"><ele>987.25</ele><time>2026-05-03T13:27:42.972Z</time></trkpt><trkpt lat="46.4919564" lon="12.4830229"><ele>989.5</ele><time>2026-05-03T13:27:43.973Z</time></trkpt><trkpt lat="46.4918348" lon="12.4831326"><ele>991.75</ele><time>2026-05-03T13:27:44.972Z</time></trkpt><trkpt lat="46.4917093" lon="12.4832348"><ele>994.0</ele><time>2026-05-03T13:27:45.973Z</time></trkpt><trkpt lat="46.4915816" lon="12.4833243"><ele>994.0</ele><time>2026-05-03T13:27:46.972Z</time></trkpt><trkpt lat="46.4914476" lon="12.4833891"><ele>994.0</ele><time>2026-05-03T13:27:47.973Z</time></trkpt><trkpt lat="46.4913118" lon="12.4834395"><ele>994.0</ele><time>2026-05-03T13:27:48.973Z</time></trkpt><trkpt lat="46.4911768" lon="12.4834867"><ele>994.0</ele><time>2026-05-03T13:27:49.972Z</time></trkpt><trkpt lat="46.4910432" lon="12.4835331"><ele>994.0</ele><time>2026-05-03T13:27:50.973Z</time></trkpt><trkpt lat="46.4909037" lon="12.4835763"><ele>994.0</ele><time>2026-05-03T13:27:51.973Z</time></trkpt><trkpt lat="46.4907641" lon="12.4836207"><ele>994.0</ele><time>2026-05-03T13:27:52.973Z</time></trkpt><trkpt lat="46.4906252" lon="12.483654"><ele>994.0</ele><time>2026-05-03T13:27:53.973Z</time></trkpt><trkpt lat="46.490483" lon="12.4836766"><ele>994.75</ele><time>2026-05-03T13:27:54.973Z</time></trkpt><trkpt lat="46.4903393" lon="12.4836953"><ele>995.5</ele><time>2026-05-03T13:27:55.973Z</time></trkpt><trkpt lat="46.4902015" lon="12.4837138"><ele>996.25</ele><time>2026-05-03T13:27:56.973Z</time></trkpt><trkpt lat="46.4900696" lon="12.483734"><ele>997.0</ele><time>2026-05-03T13:27:57.974Z</time></trkpt><trkpt lat="46.4899436" lon="12.4837567"><ele>1004.25</ele><time>2026-05-03T13:27:58.973Z</time></trkpt><trkpt lat="46.4898192" lon="12.4837777"><ele>1011.5</ele><time>2026-05-03T13:27:59.973Z</time></trkpt><trkpt lat="46.4896996" lon="12.4838056"><ele>1018.75</ele><time>2026-05-03T13:28:00.973Z</time></trkpt><trkpt lat="46.4895723" lon="12.4838321"><ele>1026.0</ele><time>2026-05-03T13:28:01.973Z</time></trkpt><trkpt lat="46.4894307" lon="12.4838653"><ele>1026.0</ele><time>2026-05-03T13:28:02.973Z</time></trkpt><trkpt lat="46.4892789" lon="12.4839029"><ele>1026.0</ele><time>2026-05-03T13:28:03.973Z</time></trkpt><trkpt lat="46.4891268" lon="12.4839497"><ele>1026.0</ele><time>2026-05-03T13:28:04.973Z</time></trkpt><trkpt lat="46.4889698" lon="12.4839936"><ele>1026.0</ele><time>2026-05-03T13:28:05.973Z</time></trkpt><trkpt lat="46.4888102" lon="12.484053"><ele>1026.0</ele><time>2026-05-03T13:28:06.972Z</time></trkpt><trkpt lat="46.4886593" lon="12.4841095"><ele>1026.0</ele><time>2026-05-03T13:28:07.974Z</time></trkpt><trkpt lat="46.4885185" lon="12.4841711"><ele>1024.75</ele><time>2026-05-03T13:28:08.972Z</time></trkpt><trkpt lat="46.4883855" lon="12.4842277"><ele>1023.5</ele><time>2026-05-03T13:28:09.973Z</time></trkpt><trkpt lat="46.4882518" lon="12.4842691"><ele>1022.25</ele><time>2026-05-03T13:28:10.973Z</time></trkpt><trkpt lat="46.4881114" lon="12.4843055"><ele>1021.0</ele><time>2026-05-03T13:28:11.973Z</time></trkpt><trkpt lat="46.4879684" lon="12.4843411"><ele>1024.5</ele><time>2026-05-03T13:28:12.973Z</time></trkpt><trkpt lat="46.4878296" lon="12.4843669"><ele>1028.0</ele><time>2026-05-03T13:28:13.972Z</time></trkpt><trkpt lat="46.4877015" lon="12.4844237"><ele>1031.5</ele><time>2026-05-03T13:28:14.973Z</time></trkpt><trkpt lat="46.4875795" lon="12.4845309"><ele>1035.0</ele><time>2026-05-03T13:28:15.972Z</time></trkpt><trkpt lat="46.4874753" lon="12.4846791"><ele>1035.0</ele><time>2026-05-03T13:28:16.971Z</time></trkpt><trkpt lat="46.4873585" lon="12.4848359"><ele>1035.0</ele><time>2026-05-03T13:28:17.972Z</time></trkpt><trkpt lat="46.4872257" lon="12.4849823"><ele>1035.0</ele><time>2026-05-03T13:28:18.972Z</time></trkpt><trkpt lat="46.487085" lon="12.4851263"><ele>1037.0</ele><time>2026-05-03T13:28:19.971Z</time></trkpt><trkpt lat="46.4869346" lon="12.4852632"><ele>1039.0</ele><time>2026-05-03T13:28:20.972Z</time></trkpt><trkpt lat="46.4867803" lon="12.4854065"><ele>1041.0</ele><time>2026-05-03T13:28:21.972Z</time></trkpt><trkpt lat="46.4866279" lon="12.4855548"><ele>1041.0</ele><time>2026-05-03T13:28:22.972Z</time></trkpt><trkpt lat="46.4864816" lon="12.4856977"><ele>1041.0</ele><time>2026-05-03T13:28:23.972Z</time></trkpt><trkpt lat="46.4863368" lon="12.4858435"><ele>1041.0</ele><time>2026-05-03T13:28:24.972Z</time></trkpt><trkpt lat="46.4861877" lon="12.4859852"><ele>1041.3333333333333</ele><time>2026-05-03T13:28:25.973Z</time></trkpt><trkpt lat="46.4860458" lon="12.4861164"><ele>1041.6666666666665</ele><time>2026-05-03T13:28:26.971Z</time></trkpt><trkpt lat="46.4859101" lon="12.4862314"><ele>1042.0</ele><time>2026-05-03T13:28:27.972Z</time></trkpt><trkpt lat="46.4857863" lon="12.4863339"><ele>1042.0</ele><time>2026-05-03T13:28:28.972Z</time></trkpt><trkpt lat="46.4856707" lon="12.4864248"><ele>1042.0</ele><time>2026-05-03T13:28:29.971Z</time></trkpt><trkpt lat="46.4855626" lon="12.486513"><ele>1042.0</ele><time>2026-05-03T13:28:30.972Z</time></trkpt><trkpt lat="46.4854607" lon="12.4865955"><ele>1042.0</ele><time>2026-05-03T13:28:31.972Z</time></trkpt><trkpt lat="46.485375" lon="12.4866787"><ele>1041.4</ele><time>2026-05-03T13:28:32.972Z</time></trkpt><trkpt lat="46.4853139" lon="12.4867849"><ele>1040.8000000000002</ele><time>2026-05-03T13:28:33.971Z</time></trkpt><trkpt lat="46.4852897" lon="12.4869168"><ele>1040.2</ele><time>2026-05-03T13:28:34.972Z</time></trkpt><trkpt lat="46.4853124" lon="12.4870534"><ele>1039.6000000000001</ele><time>2026-05-03T13:28:35.972Z</time></trkpt><trkpt lat="46.4853857" lon="12.4871523"><ele>1039.0</ele><time>2026-05-03T13:28:36.971Z</time></trkpt><trkpt lat="46.4854911" lon="12.4871892"><ele>1039.0</ele><time>2026-05-03T13:28:37.972Z</time></trkpt><trkpt lat="46.4856138" lon="12.4872094"><ele>1039.0</ele><time>2026-05-03T13:28:38.972Z</time></trkpt><trkpt lat="46.4857344" lon="12.4872771"><ele>1039.0</ele><time>2026-05-03T13:28:39.971Z</time></trkpt><trkpt lat="46.485852" lon="12.4873535"><ele>1039.0</ele><time>2026-05-03T13:28:40.972Z</time></trkpt><trkpt lat="46.4859586" lon="12.4874291"><ele>1039.0</ele><time>2026-05-03T13:28:41.971Z</time></trkpt><trkpt lat="46.4860575" lon="12.4875336"><ele>1039.0</ele><time>2026-05-03T13:28:42.972Z</time></trkpt><trkpt lat="46.4861405" lon="12.4876849"><ele>1039.0</ele><time>2026-05-03T13:28:43.972Z</time></trkpt><trkpt lat="46.4862137" lon="12.4878593"><ele>1039.0</ele><time>2026-05-03T13:28:44.973Z</time></trkpt><trkpt lat="46.4862784" lon="12.4880406"><ele>1046.25</ele><time>2026-05-03T13:28:45.971Z</time></trkpt><trkpt lat="46.4863285" lon="12.4882355"><ele>1053.5</ele><time>2026-05-03T13:28:46.971Z</time></trkpt><trkpt lat="46.4863534" lon="12.488448"><ele>1060.75</ele><time>2026-05-03T13:28:47.972Z</time></trkpt><trkpt lat="46.4863489" lon="12.4886711"><ele>1068.0</ele><time>2026-05-03T13:28:48.972Z</time></trkpt><trkpt lat="46.4863524" lon="12.4888938"><ele>1069.3333333333333</ele><time>2026-05-03T13:28:49.973Z</time></trkpt><trkpt lat="46.4863726" lon="12.4891245"><ele>1070.6666666666665</ele><time>2026-05-03T13:28:50.972Z</time></trkpt><trkpt lat="46.4863989" lon="12.4893489"><ele>1072.0</ele><time>2026-05-03T13:28:51.971Z</time></trkpt><trkpt lat="46.4864281" lon="12.4895665"><ele>1071.5</ele><time>2026-05-03T13:28:52.972Z</time></trkpt><trkpt lat="46.4864484" lon="12.4897739"><ele>1071.0</ele><time>2026-05-03T13:28:53.971Z</time></trkpt><trkpt lat="46.4864443" lon="12.4899884"><ele>1070.5</ele><time>2026-05-03T13:28:54.972Z</time></trkpt><trkpt lat="46.4864127" lon="12.4902048"><ele>1070.0</ele><time>2026-05-03T13:28:55.971Z</time></trkpt><trkpt lat="46.4863715" lon="12.4904191"><ele>1071.5</ele><time>2026-05-03T13:28:56.971Z</time></trkpt><trkpt lat="46.4863382" lon="12.4906323"><ele>1073.0</ele><time>2026-05-03T13:28:57.972Z</time></trkpt><trkpt lat="46.4863208" lon="12.4908439"><ele>1074.5</ele><time>2026-05-03T13:28:58.972Z</time></trkpt><trkpt lat="46.4863168" lon="12.4910535"><ele>1076.0</ele><time>2026-05-03T13:28:59.973Z</time></trkpt><trkpt lat="46.4863148" lon="12.4912424"><ele>1078.75</ele><time>2026-05-03T13:29:00.971Z</time></trkpt><trkpt lat="46.4862906" lon="12.491425"><ele>1081.5</ele><time>2026-05-03T13:29:01.972Z</time></trkpt><trkpt lat="46.4862325" lon="12.4915885"><ele>1084.25</ele><time>2026-05-03T13:29:02.972Z</time></trkpt><trkpt lat="46.4861495" lon="12.4917151"><ele>1087.0</ele><time>2026-05-03T13:29:03.972Z</time></trkpt><trkpt lat="46.4860578" lon="12.4918136"><ele>1081.2</ele><time>2026-05-03T13:29:04.971Z</time></trkpt><trkpt lat="46.4859706" lon="12.4919053"><ele>1075.4</ele><time>2026-05-03T13:29:05.972Z</time></trkpt><trkpt lat="46.4859022" lon="12.4920094"><ele>1069.6</ele><time>2026-05-03T13:29:06.971Z</time></trkpt><trkpt lat="46.4858697" lon="12.4921282"><ele>1063.8</ele><time>2026-05-03T13:29:07.972Z</time></trkpt><trkpt lat="46.4858645" lon="12.4922723"><ele>1058.0</ele><time>2026-05-03T13:29:08.972Z</time></trkpt><trkpt lat="46.4858772" lon="12.4924335"><ele>1058.0</ele><time>2026-05-03T13:29:09.972Z</time></trkpt><trkpt lat="46.4858849" lon="12.4926135"><ele>1058.0</ele><time>2026-05-03T13:29:10.972Z</time></trkpt><trkpt lat="46.4858891" lon="12.4928104"><ele>1058.0</ele><time>2026-05-03T13:29:11.972Z</time></trkpt><trkpt lat="46.4858916" lon="12.4930125"><ele>1058.0</ele><time>2026-05-03T13:29:12.973Z</time></trkpt><trkpt lat="46.485881" lon="12.4932436"><ele>1059.0</ele><time>2026-05-03T13:29:13.972Z</time></trkpt><trkpt lat="46.4858741" lon="12.4934749"><ele>1060.0</ele><time>2026-05-03T13:29:14.972Z</time></trkpt><trkpt lat="46.4858691" lon="12.4937036"><ele>1061.0</ele><time>2026-05-03T13:29:15.971Z</time></trkpt><trkpt lat="46.4858576" lon="12.4939327"><ele>1062.6666666666667</ele><time>2026-05-03T13:29:16.972Z</time></trkpt><trkpt lat="46.4858489" lon="12.4941704"><ele>1064.3333333333333</ele><time>2026-05-03T13:29:17.972Z</time></trkpt><trkpt lat="46.4858435" lon="12.4944138"><ele>1066.0</ele><time>2026-05-03T13:29:18.973Z</time></trkpt><trkpt lat="46.4858348" lon="12.494662"><ele>1067.6666666666665</ele><time>2026-05-03T13:29:19.972Z</time></trkpt><trkpt lat="46.4858225" lon="12.4949147"><ele>1069.3333333333333</ele><time>2026-05-03T13:29:20.972Z</time></trkpt><trkpt lat="46.4858114" lon="12.4951736"><ele>1071.0</ele><time>2026-05-03T13:29:21.972Z</time></trkpt><trkpt lat="46.4858018" lon="12.495438"><ele>1072.3333333333333</ele><time>2026-05-03T13:29:22.971Z</time></trkpt><trkpt lat="46.4858001" lon="12.495702"><ele>1073.6666666666665</ele><time>2026-05-03T13:29:23.972Z</time></trkpt><trkpt lat="46.4858053" lon="12.4959653"><ele>1075.0</ele><time>2026-05-03T13:29:24.971Z</time></trkpt><trkpt lat="46.4858129" lon="12.496218"><ele>1076.3333333333333</ele><time>2026-05-03T13:29:25.971Z</time></trkpt><trkpt lat="46.4858215" lon="12.4964616"><ele>1077.6666666666667</ele><time>2026-05-03T13:29:26.972Z</time></trkpt><trkpt lat="46.4858465" lon="12.4966977"><ele>1079.0</ele><time>2026-05-03T13:29:27.972Z</time></trkpt><trkpt lat="46.485893" lon="12.496923"><ele>1079.75</ele><time>2026-05-03T13:29:28.972Z</time></trkpt><trkpt lat="46.4859619" lon="12.4971248"><ele>1080.5</ele><time>2026-05-03T13:29:29.971Z</time></trkpt><trkpt lat="46.4860299" lon="12.4973137"><ele>1081.25</ele><time>2026-05-03T13:29:30.972Z</time></trkpt><trkpt lat="46.4860774" lon="12.4974869"><ele>1082.0</ele><time>2026-05-03T13:29:31.972Z</time></trkpt><trkpt lat="46.4861119" lon="12.4976499"><ele>1082.0</ele><time>2026-05-03T13:29:32.972Z</time></trkpt><trkpt lat="46.4861204" lon="12.4977946"><ele>1082.0</ele><time>2026-05-03T13:29:33.972Z</time></trkpt><trkpt lat="46.4860863" lon="12.4979278"><ele>1082.0</ele><time>2026-05-03T13:29:34.972Z</time></trkpt><trkpt lat="46.4860217" lon="12.4980307"><ele>1082.0</ele><time>2026-05-03T13:29:35.972Z</time></trkpt><trkpt lat="46.4859363" lon="12.498078"><ele>1082.0</ele><time>2026-05-03T13:29:36.972Z</time></trkpt><trkpt lat="46.4858392" lon="12.4981013"><ele>1084.6</ele><time>2026-05-03T13:29:37.971Z</time></trkpt><trkpt lat="46.4857493" lon="12.4981328"><ele>1087.2</ele><time>2026-05-03T13:29:38.971Z</time></trkpt><trkpt lat="46.4856688" lon="12.4982032"><ele>1089.8</ele><time>2026-05-03T13:29:39.972Z</time></trkpt><trkpt lat="46.4856085" lon="12.4983076"><ele>1092.4</ele><time>2026-05-03T13:29:40.972Z</time></trkpt><trkpt lat="46.4855663" lon="12.4984477"><ele>1095.0</ele><time>2026-05-03T13:29:41.972Z</time></trkpt><trkpt lat="46.4855303" lon="12.4985971"><ele>1092.25</ele><time>2026-05-03T13:29:42.972Z</time></trkpt><trkpt lat="46.4854943" lon="12.4987629"><ele>1089.5</ele><time>2026-05-03T13:29:43.972Z</time></trkpt><trkpt lat="46.4854599" lon="12.4989387"><ele>1086.75</ele><time>2026-05-03T13:29:44.973Z</time></trkpt><trkpt lat="46.4854317" lon="12.4991227"><ele>1084.0</ele><time>2026-05-03T13:29:45.971Z</time></trkpt><trkpt lat="46.4854126" lon="12.4993044"><ele>1084.0</ele><time>2026-05-03T13:29:46.972Z</time></trkpt><trkpt lat="46.4854043" lon="12.4994861"><ele>1084.0</ele><time>2026-05-03T13:29:47.972Z</time></trkpt><trkpt lat="46.4853829" lon="12.4996616"><ele>1084.0</ele><time>2026-05-03T13:29:48.972Z</time></trkpt><trkpt lat="46.4853537" lon="12.4998337"><ele>1084.0</ele><time>2026-05-03T13:29:49.972Z</time></trkpt><trkpt lat="46.4853162" lon="12.5000042"><ele>1087.5</ele><time>2026-05-03T13:29:50.972Z</time></trkpt><trkpt lat="46.4852761" lon="12.500169"><ele>1091.0</ele><time>2026-05-03T13:29:51.972Z</time></trkpt><trkpt lat="46.4852412" lon="12.5003355"><ele>1094.5</ele><time>2026-05-03T13:29:52.971Z</time></trkpt><trkpt lat="46.4852052" lon="12.5004965"><ele>1098.0</ele><time>2026-05-03T13:29:53.971Z</time></trkpt><trkpt lat="46.4851707" lon="12.500654"><ele>1099.6</ele><time>2026-05-03T13:29:54.972Z</time></trkpt><trkpt lat="46.4851342" lon="12.5008039"><ele>1101.1999999999998</ele><time>2026-05-03T13:29:55.972Z</time></trkpt><trkpt lat="46.485107" lon="12.5009497"><ele>1102.8</ele><time>2026-05-03T13:29:56.972Z</time></trkpt><trkpt lat="46.4850878" lon="12.5011021"><ele>1104.3999999999999</ele><time>2026-05-03T13:29:57.972Z</time></trkpt><trkpt lat="46.4850785" lon="12.5012614"><ele>1106.0</ele><time>2026-05-03T13:29:58.972Z</time></trkpt><trkpt lat="46.4850724" lon="12.501432"><ele>1105.6</ele><time>2026-05-03T13:29:59.972Z</time></trkpt><trkpt lat="46.4850635" lon="12.5016046"><ele>1105.1999999999998</ele><time>2026-05-03T13:30:00.971Z</time></trkpt><trkpt lat="46.4850582" lon="12.5017574"><ele>1104.8000000000002</ele><time>2026-05-03T13:30:01.972Z</time></trkpt><trkpt lat="46.4850653" lon="12.5019025"><ele>1104.4</ele><time>2026-05-03T13:30:02.971Z</time></trkpt><trkpt lat="46.4851017" lon="12.5020476"><ele>1104.0</ele><time>2026-05-03T13:30:03.971Z</time></trkpt><trkpt lat="46.4851614" lon="12.5021881"><ele>1104.0</ele><time>2026-05-03T13:30:04.972Z</time></trkpt><trkpt lat="46.4852189" lon="12.5023063"><ele>1104.0</ele><time>2026-05-03T13:30:05.972Z</time></trkpt><trkpt lat="46.48528" lon="12.5023987"><ele>1104.0</ele><time>2026-05-03T13:30:06.973Z</time></trkpt><trkpt lat="46.4853972" lon="12.5024127"><ele>1104.0</ele><time>2026-05-03T13:30:07.972Z</time></trkpt><trkpt lat="46.4855005" lon="12.5024234"><ele>1104.0</ele><time>2026-05-03T13:30:08.972Z</time></trkpt><trkpt lat="46.4855992" lon="12.5024647"><ele>1112.25</ele><time>2026-05-03T13:30:09.973Z</time></trkpt><trkpt lat="46.4856877" lon="12.5025471"><ele>1120.5</ele><time>2026-05-03T13:30:10.972Z</time></trkpt><trkpt lat="46.4857656" lon="12.502662"><ele>1128.75</ele><time>2026-05-03T13:30:11.972Z</time></trkpt><trkpt lat="46.4857958" lon="12.502846"><ele>1137.0</ele><time>2026-05-03T13:30:12.973Z</time></trkpt><trkpt lat="46.4858343" lon="12.5030196"><ele>1137.0</ele><time>2026-05-03T13:30:13.973Z</time></trkpt><trkpt lat="46.4858485" lon="12.5032169"><ele>1137.0</ele><time>2026-05-03T13:30:14.972Z</time></trkpt><trkpt lat="46.4858332" lon="12.503429"><ele>1137.0</ele><time>2026-05-03T13:30:15.972Z</time></trkpt><trkpt lat="46.4857925" lon="12.5036289"><ele>1137.0</ele><time>2026-05-03T13:30:16.971Z</time></trkpt><trkpt lat="46.485741" lon="12.5038236"><ele>1139.0</ele><time>2026-05-03T13:30:17.972Z</time></trkpt><trkpt lat="46.4857026" lon="12.5040174"><ele>1141.0</ele><time>2026-05-03T13:30:18.971Z</time></trkpt><trkpt lat="46.485681" lon="12.5042189"><ele>1143.0</ele><time>2026-05-03T13:30:19.973Z</time></trkpt><trkpt lat="46.4856931" lon="12.5044366"><ele>1145.0</ele><time>2026-05-03T13:30:20.972Z</time></trkpt><trkpt lat="46.485699" lon="12.5046603"><ele>1145.6666666666667</ele><time>2026-05-03T13:30:21.972Z</time></trkpt><trkpt lat="46.4857086" lon="12.5048895"><ele>1146.3333333333333</ele><time>2026-05-03T13:30:22.971Z</time></trkpt><trkpt lat="46.485709" lon="12.5051112"><ele>1147.0</ele><time>2026-05-03T13:30:23.971Z</time></trkpt><trkpt lat="46.4857145" lon="12.505324"><ele>1146.75</ele><time>2026-05-03T13:30:24.972Z</time></trkpt><trkpt lat="46.4857247" lon="12.5055118"><ele>1146.5</ele><time>2026-05-03T13:30:25.972Z</time></trkpt><trkpt lat="46.4857535" lon="12.5056826"><ele>1146.25</ele><time>2026-05-03T13:30:26.973Z</time></trkpt><trkpt lat="46.4858041" lon="12.5058396"><ele>1146.0</ele><time>2026-05-03T13:30:27.972Z</time></trkpt><trkpt lat="46.4858768" lon="12.5059576"><ele>1146.0</ele><time>2026-05-03T13:30:28.972Z</time></trkpt><trkpt lat="46.4859726" lon="12.5060537"><ele>1146.0</ele><time>2026-05-03T13:30:29.971Z</time></trkpt><trkpt lat="46.4860571" lon="12.5061807"><ele>1146.0</ele><time>2026-05-03T13:30:30.971Z</time></trkpt><trkpt lat="46.4861474" lon="12.506312"><ele>1146.0</ele><time>2026-05-03T13:30:31.971Z</time></trkpt><trkpt lat="46.4861403" lon="12.5065439"><ele>1146.5</ele><time>2026-05-03T13:30:32.971Z</time></trkpt><trkpt lat="46.4861653" lon="12.5067413"><ele>1147.0</ele><time>2026-05-03T13:30:33.972Z</time></trkpt><trkpt lat="46.4861877" lon="12.5069371"><ele>1147.5</ele><time>2026-05-03T13:30:34.973Z</time></trkpt><trkpt lat="46.4862098" lon="12.5071403"><ele>1148.0</ele><time>2026-05-03T13:30:35.972Z</time></trkpt><trkpt lat="46.4862379" lon="12.5073515"><ele>1158.0</ele><time>2026-05-03T13:30:36.972Z</time></trkpt><trkpt lat="46.486276" lon="12.5075708"><ele>1168.0</ele><time>2026-05-03T13:30:37.972Z</time></trkpt><trkpt lat="46.4863177" lon="12.5077976"><ele>1178.0</ele><time>2026-05-03T13:30:38.973Z</time></trkpt><trkpt lat="46.4863596" lon="12.5080158"><ele>1178.25</ele><time>2026-05-03T13:30:39.971Z</time></trkpt><trkpt lat="46.4863959" lon="12.5082317"><ele>1178.5</ele><time>2026-05-03T13:30:40.971Z</time></trkpt><trkpt lat="46.4864313" lon="12.5084342"><ele>1178.75</ele><time>2026-05-03T13:30:41.971Z</time></trkpt><trkpt lat="46.4864693" lon="12.5086384"><ele>1179.0</ele><time>2026-05-03T13:30:42.971Z</time></trkpt><trkpt lat="46.4865099" lon="12.5088499"><ele>1178.5</ele><time>2026-05-03T13:30:43.972Z</time></trkpt><trkpt lat="46.4865516" lon="12.5090583"><ele>1178.0</ele><time>2026-05-03T13:30:44.971Z</time></trkpt><trkpt lat="46.4865857" lon="12.5092608"><ele>1177.5</ele><time>2026-05-03T13:30:45.971Z</time></trkpt><trkpt lat="46.4866212" lon="12.5094369"><ele>1177.0</ele><time>2026-05-03T13:30:46.972Z</time></trkpt><trkpt lat="46.4866681" lon="12.5095845"><ele>1175.0</ele><time>2026-05-03T13:30:47.972Z</time></trkpt><trkpt lat="46.4867495" lon="12.5097006"><ele>1173.0</ele><time>2026-05-03T13:30:48.972Z</time></trkpt><trkpt lat="46.4868537" lon="12.5097907"><ele>1171.0</ele><time>2026-05-03T13:30:49.972Z</time></trkpt><trkpt lat="46.486967" lon="12.5098836"><ele>1169.0</ele><time>2026-05-03T13:30:50.972Z</time></trkpt><trkpt lat="46.4870797" lon="12.5099863"><ele>1171.75</ele><time>2026-05-03T13:30:51.972Z</time></trkpt><trkpt lat="46.4871925" lon="12.5100842"><ele>1174.5</ele><time>2026-05-03T13:30:52.971Z</time></trkpt><trkpt lat="46.4873013" lon="12.5101832"><ele>1177.25</ele><time>2026-05-03T13:30:53.972Z</time></trkpt><trkpt lat="46.4873902" lon="12.5103273"><ele>1180.0</ele><time>2026-05-03T13:30:54.971Z</time></trkpt><trkpt lat="46.4874661" lon="12.510502"><ele>1180.0</ele><time>2026-05-03T13:30:55.973Z</time></trkpt><trkpt lat="46.4875269" lon="12.5106949"><ele>1180.0</ele><time>2026-05-03T13:30:56.972Z</time></trkpt><trkpt lat="46.4875873" lon="12.5108838"><ele>1180.0</ele><time>2026-05-03T13:30:57.972Z</time></trkpt><trkpt lat="46.4876504" lon="12.5110652"><ele>1180.0</ele><time>2026-05-03T13:30:58.971Z</time></trkpt><trkpt lat="46.4877197" lon="12.5112488"><ele>1180.0</ele><time>2026-05-03T13:30:59.971Z</time></trkpt><trkpt lat="46.4877897" lon="12.5114178"><ele>1180.0</ele><time>2026-05-03T13:31:00.972Z</time></trkpt><trkpt lat="46.4878324" lon="12.511598"><ele>1180.0</ele><time>2026-05-03T13:31:01.973Z</time></trkpt><trkpt lat="46.4878515" lon="12.5117782"><ele>1180.0</ele><time>2026-05-03T13:31:02.972Z</time></trkpt><trkpt lat="46.4878441" lon="12.5119503"><ele>1180.25</ele><time>2026-05-03T13:31:03.971Z</time></trkpt><trkpt lat="46.4878053" lon="12.512123"><ele>1180.5</ele><time>2026-05-03T13:31:04.971Z</time></trkpt><trkpt lat="46.4877436" lon="12.5122939"><ele>1180.75</ele><time>2026-05-03T13:31:05.971Z</time></trkpt><trkpt lat="46.4876946" lon="12.5124732"><ele>1181.0</ele><time>2026-05-03T13:31:06.972Z</time></trkpt><trkpt lat="46.4876633" lon="12.5126492"><ele>1181.0</ele><time>2026-05-03T13:31:07.972Z</time></trkpt><trkpt lat="46.4876443" lon="12.5128174"><ele>1181.0</ele><time>2026-05-03T13:31:08.971Z</time></trkpt><trkpt lat="46.4876458" lon="12.5129723"><ele>1181.0</ele><time>2026-05-03T13:31:09.971Z</time></trkpt><trkpt lat="46.4876897" lon="12.5131236"><ele>1181.0</ele><time>2026-05-03T13:31:10.971Z</time></trkpt><trkpt lat="46.4877495" lon="12.5132863"><ele>1181.0</ele><time>2026-05-03T13:31:11.971Z</time></trkpt><trkpt lat="46.4877928" lon="12.5134663"><ele>1181.0</ele><time>2026-05-03T13:31:12.972Z</time></trkpt><trkpt lat="46.4878135" lon="12.513649"><ele>1181.0</ele><time>2026-05-03T13:31:13.972Z</time></trkpt><trkpt lat="46.4878311" lon="12.5138214"><ele>1181.0</ele><time>2026-05-03T13:31:14.972Z</time></trkpt><trkpt lat="46.4878594" lon="12.5139979"><ele>1179.0</ele><time>2026-05-03T13:31:15.972Z</time></trkpt><trkpt lat="46.4879119" lon="12.5141705"><ele>1177.0</ele><time>2026-05-03T13:31:16.971Z</time></trkpt><trkpt lat="46.4879914" lon="12.5143372"><ele>1175.0</ele><time>2026-05-03T13:31:17.971Z</time></trkpt><trkpt lat="46.4880688" lon="12.5145053"><ele>1173.0</ele><time>2026-05-03T13:31:18.972Z</time></trkpt><trkpt lat="46.4881236" lon="12.5146977"><ele>1178.25</ele><time>2026-05-03T13:31:19.971Z</time></trkpt><trkpt lat="46.4881613" lon="12.5149014"><ele>1183.5</ele><time>2026-05-03T13:31:20.971Z</time></trkpt><trkpt lat="46.4882002" lon="12.5151086"><ele>1188.75</ele><time>2026-05-03T13:31:21.972Z</time></trkpt><trkpt lat="46.4882459" lon="12.5153144"><ele>1194.0</ele><time>2026-05-03T13:31:22.971Z</time></trkpt><trkpt lat="46.4882958" lon="12.5155174"><ele>1194.0</ele><time>2026-05-03T13:31:23.973Z</time></trkpt><trkpt lat="46.4883272" lon="12.5157268"><ele>1194.0</ele><time>2026-05-03T13:31:24.972Z</time></trkpt><trkpt lat="46.488338" lon="12.515947"><ele>1194.0</ele><time>2026-05-03T13:31:25.972Z</time></trkpt><trkpt lat="46.4883462" lon="12.5161481"><ele>1194.0</ele><time>2026-05-03T13:31:26.972Z</time></trkpt><trkpt lat="46.4883432" lon="12.516338"><ele>1193.4</ele><time>2026-05-03T13:31:27.972Z</time></trkpt><trkpt lat="46.488343" lon="12.5165147"><ele>1192.8000000000002</ele><time>2026-05-03T13:31:28.972Z</time></trkpt><trkpt lat="46.4883391" lon="12.5166777"><ele>1192.1999999999998</ele><time>2026-05-03T13:31:29.971Z</time></trkpt><trkpt lat="46.4883428" lon="12.5168205"><ele>1191.6</ele><time>2026-05-03T13:31:30.972Z</time></trkpt><trkpt lat="46.4883618" lon="12.5169587"><ele>1191.0</ele><time>2026-05-03T13:31:31.972Z</time></trkpt><trkpt lat="46.4884026" lon="12.5170956"><ele>1190.0</ele><time>2026-05-03T13:31:32.972Z</time></trkpt><trkpt lat="46.4884648" lon="12.5172266"><ele>1189.0</ele><time>2026-05-03T13:31:33.972Z</time></trkpt><trkpt lat="46.4885451" lon="12.5173456"><ele>1188.0</ele><time>2026-05-03T13:31:34.973Z</time></trkpt><trkpt lat="46.4886288" lon="12.517471"><ele>1187.0</ele><time>2026-05-03T13:31:35.972Z</time></trkpt><trkpt lat="46.4887149" lon="12.517613"><ele>1189.75</ele><time>2026-05-03T13:31:36.972Z</time></trkpt><trkpt lat="46.488794" lon="12.5177518"><ele>1192.5</ele><time>2026-05-03T13:31:37.973Z</time></trkpt><trkpt lat="46.4888635" lon="12.5178814"><ele>1195.25</ele><time>2026-05-03T13:31:38.971Z</time></trkpt><trkpt lat="46.4889345" lon="12.5180026"><ele>1198.0</ele><time>2026-05-03T13:31:39.971Z</time></trkpt><trkpt lat="46.4890102" lon="12.5181246"><ele>1198.0</ele><time>2026-05-03T13:31:40.971Z</time></trkpt><trkpt lat="46.4890902" lon="12.5182497"><ele>1198.0</ele><time>2026-05-03T13:31:41.972Z</time></trkpt><trkpt lat="46.4891753" lon="12.5183822"><ele>1198.0</ele><time>2026-05-03T13:31:42.972Z</time></trkpt><trkpt lat="46.4892603" lon="12.5185121"><ele>1198.0</ele><time>2026-05-03T13:31:43.972Z</time></trkpt><trkpt lat="46.4893383" lon="12.5186338"><ele>1198.2</ele><time>2026-05-03T13:31:44.972Z</time></trkpt><trkpt lat="46.4894105" lon="12.5187517"><ele>1198.4</ele><time>2026-05-03T13:31:45.972Z</time></trkpt><trkpt lat="46.4894754" lon="12.5188742"><ele>1198.6000000000001</ele><time>2026-05-03T13:31:46.972Z</time></trkpt><trkpt lat="46.4895325" lon="12.519007"><ele>1198.8</ele><time>2026-05-03T13:31:47.972Z</time></trkpt><trkpt lat="46.489577" lon="12.5191385"><ele>1199.0</ele><time>2026-05-03T13:31:48.972Z</time></trkpt><trkpt lat="46.4896252" lon="12.519255"><ele>1199.0</ele><time>2026-05-03T13:31:49.972Z</time></trkpt><trkpt lat="46.4896944" lon="12.5193414"><ele>1199.0</ele><time>2026-05-03T13:31:50.972Z</time></trkpt><trkpt lat="46.4897798" lon="12.519379"><ele>1199.0</ele><time>2026-05-03T13:31:51.972Z</time></trkpt><trkpt lat="46.4898712" lon="12.5193612"><ele>1199.0</ele><time>2026-05-03T13:31:52.972Z</time></trkpt><trkpt lat="46.4899615" lon="12.5192975"><ele>1199.0</ele><time>2026-05-03T13:31:53.973Z</time></trkpt><trkpt lat="46.4900603" lon="12.5192145"><ele>1199.0</ele><time>2026-05-03T13:31:54.972Z</time></trkpt><trkpt lat="46.4901735" lon="12.5191373"><ele>1199.0</ele><time>2026-05-03T13:31:55.972Z</time></trkpt><trkpt lat="46.4902911" lon="12.5190697"><ele>1199.0</ele><time>2026-05-03T13:31:56.972Z</time></trkpt><trkpt lat="46.4904154" lon="12.5190369"><ele>1199.0</ele><time>2026-05-03T13:31:57.972Z</time></trkpt><trkpt lat="46.4905364" lon="12.51902"><ele>1201.25</ele><time>2026-05-03T13:31:58.972Z</time></trkpt><trkpt lat="46.4906532" lon="12.5190069"><ele>1203.5</ele><time>2026-05-03T13:31:59.971Z</time></trkpt><trkpt lat="46.4907701" lon="12.5190076"><ele>1205.75</ele><time>2026-05-03T13:32:00.972Z</time></trkpt><trkpt lat="46.4908823" lon="12.5190291"><ele>1208.0</ele><time>2026-05-03T13:32:01.972Z</time></trkpt><trkpt lat="46.4909838" lon="12.5190896"><ele>1208.0</ele><time>2026-05-03T13:32:02.973Z</time></trkpt><trkpt lat="46.4910709" lon="12.5191753"><ele>1208.0</ele><time>2026-05-03T13:32:03.972Z</time></trkpt><trkpt lat="46.4911378" lon="12.5192902"><ele>1208.0</ele><time>2026-05-03T13:32:04.972Z</time></trkpt><trkpt lat="46.4911808" lon="12.5194224"><ele>1208.0</ele><time>2026-05-03T13:32:05.972Z</time></trkpt><trkpt lat="46.4911841" lon="12.5195741"><ele>1208.0</ele><time>2026-05-03T13:32:06.972Z</time></trkpt><trkpt lat="46.4911547" lon="12.5197177"><ele>1204.5</ele><time>2026-05-03T13:32:07.973Z</time></trkpt><trkpt lat="46.4910846" lon="12.5198313"><ele>1201.0</ele><time>2026-05-03T13:32:08.972Z</time></trkpt><trkpt lat="46.4910125" lon="12.5199455"><ele>1197.5</ele><time>2026-05-03T13:32:09.972Z</time></trkpt><trkpt lat="46.490911" lon="12.5200687"><ele>1194.0</ele><time>2026-05-03T13:32:10.972Z</time></trkpt><trkpt lat="46.4908418" lon="12.5202265"><ele>1194.0</ele><time>2026-05-03T13:32:11.972Z</time></trkpt><trkpt lat="46.4907747" lon="12.5203699"><ele>1194.0</ele><time>2026-05-03T13:32:12.972Z</time></trkpt><trkpt lat="46.4907074" lon="12.5205043"><ele>1194.0</ele><time>2026-05-03T13:32:13.971Z</time></trkpt><trkpt lat="46.4906411" lon="12.5206317"><ele>1194.0</ele><time>2026-05-03T13:32:14.971Z</time></trkpt><trkpt lat="46.4905749" lon="12.5207504"><ele>1194.0</ele><time>2026-05-03T13:32:15.971Z</time></trkpt><trkpt lat="46.4905167" lon="12.5208748"><ele>1192.75</ele><time>2026-05-03T13:32:16.971Z</time></trkpt><trkpt lat="46.4904784" lon="12.5210213"><ele>1191.5</ele><time>2026-05-03T13:32:17.972Z</time></trkpt><trkpt lat="46.4904574" lon="12.5211793"><ele>1190.25</ele><time>2026-05-03T13:32:18.971Z</time></trkpt><trkpt lat="46.4904295" lon="12.5213453"><ele>1189.0</ele><time>2026-05-03T13:32:19.972Z</time></trkpt><trkpt lat="46.4903851" lon="12.5215107"><ele>1189.0</ele><time>2026-05-03T13:32:20.972Z</time></trkpt><trkpt lat="46.4903237" lon="12.5216701"><ele>1189.0</ele><time>2026-05-03T13:32:21.972Z</time></trkpt><trkpt lat="46.4902566" lon="12.5218264"><ele>1189.0</ele><time>2026-05-03T13:32:22.972Z</time></trkpt><trkpt lat="46.4901797" lon="12.5219716"><ele>1189.0</ele><time>2026-05-03T13:32:23.971Z</time></trkpt><trkpt lat="46.4901082" lon="12.5221064"><ele>1193.75</ele><time>2026-05-03T13:32:24.971Z</time></trkpt><trkpt lat="46.4900353" lon="12.522243"><ele>1198.5</ele><time>2026-05-03T13:32:25.972Z</time></trkpt><trkpt lat="46.4899705" lon="12.5223736"><ele>1203.25</ele><time>2026-05-03T13:32:26.971Z</time></trkpt><trkpt lat="46.4899207" lon="12.5225143"><ele>1208.0</ele><time>2026-05-03T13:32:27.973Z</time></trkpt><trkpt lat="46.4898839" lon="12.5226703"><ele>1208.0</ele><time>2026-05-03T13:32:28.972Z</time></trkpt><trkpt lat="46.4898623" lon="12.5228335"><ele>1208.0</ele><time>2026-05-03T13:32:29.972Z</time></trkpt><trkpt lat="46.4898313" lon="12.5229807"><ele>1208.0</ele><time>2026-05-03T13:32:30.972Z</time></trkpt><trkpt lat="46.4897776" lon="12.5231111"><ele>1208.0</ele><time>2026-05-03T13:32:31.972Z</time></trkpt><trkpt lat="46.4896868" lon="12.5232055"><ele>1208.0</ele><time>2026-05-03T13:32:32.971Z</time></trkpt><trkpt lat="46.4895883" lon="12.5233025"><ele>1206.0</ele><time>2026-05-03T13:32:33.972Z</time></trkpt><trkpt lat="46.4894946" lon="12.5234263"><ele>1204.0</ele><time>2026-05-03T13:32:34.972Z</time></trkpt><trkpt lat="46.4894094" lon="12.5235509"><ele>1202.0</ele><time>2026-05-03T13:32:35.972Z</time></trkpt><trkpt lat="46.4893346" lon="12.5236718"><ele>1200.0</ele><time>2026-05-03T13:32:36.971Z</time></trkpt><trkpt lat="46.4892846" lon="12.5238001"><ele>1200.0</ele><time>2026-05-03T13:32:37.971Z</time></trkpt><trkpt lat="46.4892719" lon="12.5239522"><ele>1200.0</ele><time>2026-05-03T13:32:38.972Z</time></trkpt><trkpt lat="46.4892747" lon="12.5241164"><ele>1200.0</ele><time>2026-05-03T13:32:39.971Z</time></trkpt><trkpt lat="46.4892823" lon="12.5243005"><ele>1200.0</ele><time>2026-05-03T13:32:40.972Z</time></trkpt><trkpt lat="46.4892964" lon="12.5244983"><ele>1201.75</ele><time>2026-05-03T13:32:41.972Z</time></trkpt><trkpt lat="46.4893102" lon="12.5246951"><ele>1203.5</ele><time>2026-05-03T13:32:42.972Z</time></trkpt><trkpt lat="46.4893247" lon="12.5248828"><ele>1205.25</ele><time>2026-05-03T13:32:43.972Z</time></trkpt><trkpt lat="46.4893417" lon="12.5250593"><ele>1207.0</ele><time>2026-05-03T13:32:44.972Z</time></trkpt><trkpt lat="46.4893446" lon="12.5252188"><ele>1207.0</ele><time>2026-05-03T13:32:45.972Z</time></trkpt><trkpt lat="46.4893181" lon="12.52536"><ele>1207.0</ele><time>2026-05-03T13:32:46.972Z</time></trkpt><trkpt lat="46.4892592" lon="12.5254707"><ele>1207.0</ele><time>2026-05-03T13:32:47.973Z</time></trkpt><trkpt lat="46.4891793" lon="12.5255745"><ele>1207.0</ele><time>2026-05-03T13:32:48.972Z</time></trkpt><trkpt lat="46.4891166" lon="12.5257055"><ele>1207.0</ele><time>2026-05-03T13:32:49.972Z</time></trkpt><trkpt lat="46.4890789" lon="12.5258666"><ele>1207.6</ele><time>2026-05-03T13:32:50.971Z</time></trkpt><trkpt lat="46.489053" lon="12.5260329"><ele>1208.2</ele><time>2026-05-03T13:32:51.973Z</time></trkpt><trkpt lat="46.4890313" lon="12.5261961"><ele>1208.8</ele><time>2026-05-03T13:32:52.972Z</time></trkpt><trkpt lat="46.4890145" lon="12.5263491"><ele>1209.4</ele><time>2026-05-03T13:32:53.971Z</time></trkpt><trkpt lat="46.4890107" lon="12.5264996"><ele>1210.0</ele><time>2026-05-03T13:32:54.971Z</time></trkpt><trkpt lat="46.4890254" lon="12.5266502"><ele>1210.0</ele><time>2026-05-03T13:32:55.971Z</time></trkpt><trkpt lat="46.4890683" lon="12.526791"><ele>1210.0</ele><time>2026-05-03T13:32:56.972Z</time></trkpt><trkpt lat="46.4891316" lon="12.5269187"><ele>1210.0</ele><time>2026-05-03T13:32:57.972Z</time></trkpt><trkpt lat="46.4892187" lon="12.5270178"><ele>1210.0</ele><time>2026-05-03T13:32:58.972Z</time></trkpt><trkpt lat="46.489295" lon="12.5271229"><ele>1210.0</ele><time>2026-05-03T13:32:59.972Z</time></trkpt><trkpt lat="46.4893573" lon="12.5272342"><ele>1208.5</ele><time>2026-05-03T13:33:00.971Z</time></trkpt><trkpt lat="46.4894021" lon="12.5273654"><ele>1207.0</ele><time>2026-05-03T13:33:01.972Z</time></trkpt><trkpt lat="46.4894364" lon="12.5275149"><ele>1205.5</ele><time>2026-05-03T13:33:02.972Z</time></trkpt><trkpt lat="46.4894612" lon="12.5276845"><ele>1204.0</ele><time>2026-05-03T13:33:03.972Z</time></trkpt><trkpt lat="46.4894901" lon="12.5278637"><ele>1202.75</ele><time>2026-05-03T13:33:04.972Z</time></trkpt><trkpt lat="46.4895309" lon="12.5280416"><ele>1201.5</ele><time>2026-05-03T13:33:05.971Z</time></trkpt><trkpt lat="46.4895677" lon="12.5282203"><ele>1200.25</ele><time>2026-05-03T13:33:06.972Z</time></trkpt><trkpt lat="46.4895898" lon="12.5283953"><ele>1199.0</ele><time>2026-05-03T13:33:07.973Z</time></trkpt><trkpt lat="46.4896145" lon="12.528572"><ele>1204.75</ele><time>2026-05-03T13:33:08.971Z</time></trkpt><trkpt lat="46.4896528" lon="12.5287473"><ele>1210.5</ele><time>2026-05-03T13:33:09.972Z</time></trkpt><trkpt lat="46.4897065" lon="12.5289271"><ele>1216.25</ele><time>2026-05-03T13:33:10.972Z</time></trkpt><trkpt lat="46.4897732" lon="12.5291185"><ele>1222.0</ele><time>2026-05-03T13:33:11.971Z</time></trkpt><trkpt lat="46.4898428" lon="12.5293206"><ele>1222.0</ele><time>2026-05-03T13:33:12.972Z</time></trkpt><trkpt lat="46.4899133" lon="12.5295174"><ele>1222.0</ele><time>2026-05-03T13:33:13.972Z</time></trkpt><trkpt lat="46.4899832" lon="12.5297145"><ele>1222.0</ele><time>2026-05-03T13:33:14.972Z</time></trkpt><trkpt lat="46.4900465" lon="12.5299022"><ele>1222.0</ele><time>2026-05-03T13:33:15.972Z</time></trkpt><trkpt lat="46.4901089" lon="12.5300785"><ele>1219.0</ele><time>2026-05-03T13:33:16.972Z</time></trkpt><trkpt lat="46.4901723" lon="12.5302512"><ele>1216.0</ele><time>2026-05-03T13:33:17.972Z</time></trkpt><trkpt lat="46.4902364" lon="12.5304255"><ele>1213.0</ele><time>2026-05-03T13:33:18.972Z</time></trkpt><trkpt lat="46.4902984" lon="12.5306012"><ele>1210.0</ele><time>2026-05-03T13:33:19.971Z</time></trkpt><trkpt lat="46.4903634" lon="12.5307716"><ele>1209.5</ele><time>2026-05-03T13:33:20.972Z</time></trkpt><trkpt lat="46.4904246" lon="12.5309313"><ele>1209.0</ele><time>2026-05-03T13:33:21.973Z</time></trkpt><trkpt lat="46.490486" lon="12.5310848"><ele>1208.5</ele><time>2026-05-03T13:33:22.972Z</time></trkpt><trkpt lat="46.4905522" lon="12.5312356"><ele>1208.0</ele><time>2026-05-03T13:33:23.972Z</time></trkpt><trkpt lat="46.4906179" lon="12.5313873"><ele>1215.25</ele><time>2026-05-03T13:33:24.971Z</time></trkpt><trkpt lat="46.4906787" lon="12.5315433"><ele>1222.5</ele><time>2026-05-03T13:33:25.972Z</time></trkpt><trkpt lat="46.4907175" lon="12.5317136"><ele>1229.75</ele><time>2026-05-03T13:33:26.972Z</time></trkpt><trkpt lat="46.4907191" lon="12.531902"><ele>1237.0</ele><time>2026-05-03T13:33:27.971Z</time></trkpt><trkpt lat="46.4906985" lon="12.5320967"><ele>1237.0</ele><time>2026-05-03T13:33:28.972Z</time></trkpt><trkpt lat="46.4906727" lon="12.5322824"><ele>1237.0</ele><time>2026-05-03T13:33:29.971Z</time></trkpt><trkpt lat="46.4906466" lon="12.5324563"><ele>1237.0</ele><time>2026-05-03T13:33:30.972Z</time></trkpt><trkpt lat="46.4906325" lon="12.5326217"><ele>1237.0</ele><time>2026-05-03T13:33:31.972Z</time></trkpt><trkpt lat="46.4906367" lon="12.5327811"><ele>1236.2</ele><time>2026-05-03T13:33:32.971Z</time></trkpt><trkpt lat="46.4906599" lon="12.5329275"><ele>1235.4</ele><time>2026-05-03T13:33:33.971Z</time></trkpt><trkpt lat="46.4907137" lon="12.5330669"><ele>1234.6</ele><time>2026-05-03T13:33:34.973Z</time></trkpt><trkpt lat="46.4907877" lon="12.5331867"><ele>1233.8</ele><time>2026-05-03T13:33:35.972Z</time></trkpt><trkpt lat="46.4908759" lon="12.5332864"><ele>1233.0</ele><time>2026-05-03T13:33:36.973Z</time></trkpt><trkpt lat="46.4909617" lon="12.5333785"><ele>1233.0</ele><time>2026-05-03T13:33:37.972Z</time></trkpt><trkpt lat="46.4910439" lon="12.5334729"><ele>1233.0</ele><time>2026-05-03T13:33:38.971Z</time></trkpt><trkpt lat="46.4911189" lon="12.5335768"><ele>1233.0</ele><time>2026-05-03T13:33:39.973Z</time></trkpt><trkpt lat="46.4911826" lon="12.5337008"><ele>1233.0</ele><time>2026-05-03T13:33:40.972Z</time></trkpt><trkpt lat="46.4912285" lon="12.5338281"><ele>1233.0</ele><time>2026-05-03T13:33:41.972Z</time></trkpt><trkpt lat="46.4912728" lon="12.5339555"><ele>1237.4</ele><time>2026-05-03T13:33:42.971Z</time></trkpt><trkpt lat="46.4913359" lon="12.5340645"><ele>1241.8</ele><time>2026-05-03T13:33:43.971Z</time></trkpt><trkpt lat="46.4914124" lon="12.5341498"><ele>1246.2</ele><time>2026-05-03T13:33:44.971Z</time></trkpt><trkpt lat="46.4915002" lon="12.5342219"><ele>1250.6</ele><time>2026-05-03T13:33:45.972Z</time></trkpt><trkpt lat="46.4915979" lon="12.5342955"><ele>1255.0</ele><time>2026-05-03T13:33:46.972Z</time></trkpt><trkpt lat="46.491697" lon="12.5343614"><ele>1255.0</ele><time>2026-05-03T13:33:47.972Z</time></trkpt><trkpt lat="46.4917961" lon="12.5344311"><ele>1255.0</ele><time>2026-05-03T13:33:48.971Z</time></trkpt><trkpt lat="46.4918907" lon="12.5345337"><ele>1255.0</ele><time>2026-05-03T13:33:49.971Z</time></trkpt><trkpt lat="46.4919708" lon="12.5346683"><ele>1255.0</ele><time>2026-05-03T13:33:50.971Z</time></trkpt><trkpt lat="46.4920382" lon="12.5348138"><ele>1258.0</ele><time>2026-05-03T13:33:51.971Z</time></trkpt><trkpt lat="46.4920947" lon="12.5349823"><ele>1261.0</ele><time>2026-05-03T13:33:52.971Z</time></trkpt><trkpt lat="46.4921347" lon="12.5351591"><ele>1264.0</ele><time>2026-05-03T13:33:53.972Z</time></trkpt><trkpt lat="46.4921499" lon="12.5353399"><ele>1267.0</ele><time>2026-05-03T13:33:54.971Z</time></trkpt><trkpt lat="46.492143" lon="12.5355123"><ele>1267.0</ele><time>2026-05-03T13:33:55.972Z</time></trkpt><trkpt lat="46.4921337" lon="12.5356562"><ele>1267.0</ele><time>2026-05-03T13:33:56.972Z</time></trkpt><trkpt lat="46.4921257" lon="12.5357667"><ele>1267.0</ele><time>2026-05-03T13:33:57.971Z</time></trkpt><trkpt lat="46.4921143" lon="12.5358674"><ele>1267.0</ele><time>2026-05-03T13:33:58.972Z</time></trkpt><trkpt lat="46.4920929" lon="12.5360442"><ele>1267.0</ele><time>2026-05-03T13:34:00.971Z</time></trkpt><trkpt lat="46.4920912" lon="12.5361522"><ele>1267.0</ele><time>2026-05-03T13:34:01.972Z</time></trkpt><trkpt lat="46.4921085" lon="12.5362618"><ele>1266.4</ele><time>2026-05-03T13:34:02.972Z</time></trkpt><trkpt lat="46.4921495" lon="12.5363771"><ele>1265.8000000000002</ele><time>2026-05-03T13:34:03.972Z</time></trkpt><trkpt lat="46.4922035" lon="12.5364911"><ele>1265.2</ele><time>2026-05-03T13:34:04.972Z</time></trkpt><trkpt lat="46.492256" lon="12.5365926"><ele>1264.6000000000001</ele><time>2026-05-03T13:34:05.972Z</time></trkpt><trkpt lat="46.4923135" lon="12.5367038"><ele>1264.0</ele><time>2026-05-03T13:34:06.972Z</time></trkpt><trkpt lat="46.4923726" lon="12.5368173"><ele>1264.0</ele><time>2026-05-03T13:34:07.971Z</time></trkpt><trkpt lat="46.4924338" lon="12.5369461"><ele>1264.0</ele><time>2026-05-03T13:34:08.972Z</time></trkpt><trkpt lat="46.4924846" lon="12.5370945"><ele>1264.0</ele><time>2026-05-03T13:34:09.971Z</time></trkpt><trkpt lat="46.4925244" lon="12.5372536"><ele>1264.0</ele><time>2026-05-03T13:34:10.972Z</time></trkpt><trkpt lat="46.4925499" lon="12.5374218"><ele>1263.4</ele><time>2026-05-03T13:34:11.971Z</time></trkpt><trkpt lat="46.4925617" lon="12.537574"><ele>1262.8000000000002</ele><time>2026-05-03T13:34:12.973Z</time></trkpt><trkpt lat="46.4925731" lon="12.5377137"><ele>1262.1999999999998</ele><time>2026-05-03T13:34:13.972Z</time></trkpt><trkpt lat="46.492583" lon="12.5378342"><ele>1261.6</ele><time>2026-05-03T13:34:14.972Z</time></trkpt><trkpt lat="46.492617" lon="12.5379486"><ele>1261.0</ele><time>2026-05-03T13:34:15.971Z</time></trkpt><trkpt lat="46.4926608" lon="12.5380556"><ele>1259.6</ele><time>2026-05-03T13:34:16.972Z</time></trkpt><trkpt lat="46.4927126" lon="12.5381549"><ele>1258.1999999999998</ele><time>2026-05-03T13:34:17.972Z</time></trkpt><trkpt lat="46.4927733" lon="12.5382583"><ele>1256.8000000000002</ele><time>2026-05-03T13:34:18.972Z</time></trkpt><trkpt lat="46.4928339" lon="12.538356"><ele>1255.4</ele><time>2026-05-03T13:34:19.972Z</time></trkpt><trkpt lat="46.4929083" lon="12.5384452"><ele>1254.0</ele><time>2026-05-03T13:34:20.972Z</time></trkpt><trkpt lat="46.4929933" lon="12.5385266"><ele>1258.6000000000001</ele><time>2026-05-03T13:34:21.972Z</time></trkpt><trkpt lat="46.4930785" lon="12.5385996"><ele>1263.2</ele><time>2026-05-03T13:34:22.971Z</time></trkpt><trkpt lat="46.4931637" lon="12.5386683"><ele>1267.8000000000002</ele><time>2026-05-03T13:34:23.971Z</time></trkpt><trkpt lat="46.4932444" lon="12.5387482"><ele>1272.4</ele><time>2026-05-03T13:34:24.971Z</time></trkpt><trkpt lat="46.493311" lon="12.5388477"><ele>1277.0</ele><time>2026-05-03T13:34:25.972Z</time></trkpt><trkpt lat="46.4933704" lon="12.5389515"><ele>1277.0</ele><time>2026-05-03T13:34:26.972Z</time></trkpt><trkpt lat="46.4934061" lon="12.5390797"><ele>1277.0</ele><time>2026-05-03T13:34:27.973Z</time></trkpt><trkpt lat="46.493438" lon="12.5392187"><ele>1277.0</ele><time>2026-05-03T13:34:28.972Z</time></trkpt><trkpt lat="46.4934603" lon="12.5393729"><ele>1277.0</ele><time>2026-05-03T13:34:29.972Z</time></trkpt><trkpt lat="46.4934883" lon="12.539543"><ele>1277.0</ele><time>2026-05-03T13:34:30.971Z</time></trkpt><trkpt lat="46.4935135" lon="12.539726"><ele>1277.0</ele><time>2026-05-03T13:34:31.971Z</time></trkpt><trkpt lat="46.4935238" lon="12.5399119"><ele>1277.0</ele><time>2026-05-03T13:34:32.971Z</time></trkpt><trkpt lat="46.4935129" lon="12.5401036"><ele>1277.0</ele><time>2026-05-03T13:34:33.971Z</time></trkpt><trkpt lat="46.4934861" lon="12.5402976"><ele>1277.0</ele><time>2026-05-03T13:34:34.971Z</time></trkpt><trkpt lat="46.4934531" lon="12.5404814"><ele>1279.5</ele><time>2026-05-03T13:34:35.972Z</time></trkpt><trkpt lat="46.4934286" lon="12.540658"><ele>1282.0</ele><time>2026-05-03T13:34:36.971Z</time></trkpt><trkpt lat="46.4934176" lon="12.5408327"><ele>1284.5</ele><time>2026-05-03T13:34:37.972Z</time></trkpt><trkpt lat="46.4934262" lon="12.5410109"><ele>1287.0</ele><time>2026-05-03T13:34:38.972Z</time></trkpt><trkpt lat="46.4934488" lon="12.5411863"><ele>1288.0</ele><time>2026-05-03T13:34:39.972Z</time></trkpt><trkpt lat="46.4934849" lon="12.5413587"><ele>1289.0</ele><time>2026-05-03T13:34:40.971Z</time></trkpt><trkpt lat="46.4935215" lon="12.5415243"><ele>1290.0</ele><time>2026-05-03T13:34:41.973Z</time></trkpt><trkpt lat="46.4935585" lon="12.5416842"><ele>1291.0</ele><time>2026-05-03T13:34:42.972Z</time></trkpt><trkpt lat="46.4935922" lon="12.5418341"><ele>1291.0</ele><time>2026-05-03T13:34:43.972Z</time></trkpt><trkpt lat="46.4936358" lon="12.5419879"><ele>1291.0</ele><time>2026-05-03T13:34:44.973Z</time></trkpt><trkpt lat="46.4936767" lon="12.5421557"><ele>1291.0</ele><time>2026-05-03T13:34:45.972Z</time></trkpt><trkpt lat="46.4937197" lon="12.5423263"><ele>1291.0</ele><time>2026-05-03T13:34:46.972Z</time></trkpt><trkpt lat="46.4937531" lon="12.5424822"><ele>1292.1999999999998</ele><time>2026-05-03T13:34:47.972Z</time></trkpt><trkpt lat="46.4937933" lon="12.5426379"><ele>1293.3999999999999</ele><time>2026-05-03T13:34:48.971Z</time></trkpt><trkpt lat="46.4937936" lon="12.5427813"><ele>1294.6</ele><time>2026-05-03T13:34:49.971Z</time></trkpt><trkpt lat="46.4937756" lon="12.5429243"><ele>1295.8</ele><time>2026-05-03T13:34:50.972Z</time></trkpt><trkpt lat="46.4937489" lon="12.543061"><ele>1297.0</ele><time>2026-05-03T13:34:51.972Z</time></trkpt><trkpt lat="46.4937203" lon="12.5431977"><ele>1297.0</ele><time>2026-05-03T13:34:52.973Z</time></trkpt><trkpt lat="46.4937027" lon="12.5433513"><ele>1297.0</ele><time>2026-05-03T13:34:53.972Z</time></trkpt><trkpt lat="46.4937067" lon="12.54352"><ele>1297.0</ele><time>2026-05-03T13:34:54.972Z</time></trkpt><trkpt lat="46.4937131" lon="12.5436982"><ele>1297.0</ele><time>2026-05-03T13:34:55.971Z</time></trkpt><trkpt lat="46.4937227" lon="12.5438887"><ele>1298.25</ele><time>2026-05-03T13:34:56.972Z</time></trkpt><trkpt lat="46.4937341" lon="12.5440858"><ele>1299.5</ele><time>2026-05-03T13:34:57.971Z</time></trkpt><trkpt lat="46.4937499" lon="12.544297"><ele>1300.75</ele><time>2026-05-03T13:34:58.971Z</time></trkpt><trkpt lat="46.4937643" lon="12.5445145"><ele>1302.0</ele><time>2026-05-03T13:34:59.971Z</time></trkpt><trkpt lat="46.4937804" lon="12.5447439"><ele>1310.3333333333333</ele><time>2026-05-03T13:35:00.972Z</time></trkpt><trkpt lat="46.493797" lon="12.5449789"><ele>1318.6666666666665</ele><time>2026-05-03T13:35:01.973Z</time></trkpt><trkpt lat="46.4938146" lon="12.5452021"><ele>1327.0</ele><time>2026-05-03T13:35:02.972Z</time></trkpt><trkpt lat="46.4938318" lon="12.545434"><ele>1329.3333333333333</ele><time>2026-05-03T13:35:03.972Z</time></trkpt><trkpt lat="46.4938488" lon="12.5456606"><ele>1331.6666666666667</ele><time>2026-05-03T13:35:04.972Z</time></trkpt><trkpt lat="46.4938679" lon="12.5458943"><ele>1334.0</ele><time>2026-05-03T13:35:05.973Z</time></trkpt><trkpt lat="46.4938834" lon="12.546125"><ele>1336.0</ele><time>2026-05-03T13:35:06.972Z</time></trkpt><trkpt lat="46.4938975" lon="12.546354"><ele>1338.0</ele><time>2026-05-03T13:35:07.971Z</time></trkpt><trkpt lat="46.4939101" lon="12.5465817"><ele>1340.0</ele><time>2026-05-03T13:35:08.971Z</time></trkpt><trkpt lat="46.4939125" lon="12.5468134"><ele>1340.6666666666667</ele><time>2026-05-03T13:35:09.973Z</time></trkpt><trkpt lat="46.4938934" lon="12.5470468"><ele>1341.3333333333333</ele><time>2026-05-03T13:35:10.972Z</time></trkpt><trkpt lat="46.4938694" lon="12.547273"><ele>1342.0</ele><time>2026-05-03T13:35:11.972Z</time></trkpt><trkpt lat="46.4938511" lon="12.5474981"><ele>1342.0</ele><time>2026-05-03T13:35:12.972Z</time></trkpt><trkpt lat="46.4938348" lon="12.5477176"><ele>1342.0</ele><time>2026-05-03T13:35:13.972Z</time></trkpt><trkpt lat="46.49383" lon="12.5479361"><ele>1342.0</ele><time>2026-05-03T13:35:14.971Z</time></trkpt><trkpt lat="46.4938326" lon="12.5481553"><ele>1342.5</ele><time>2026-05-03T13:35:15.972Z</time></trkpt><trkpt lat="46.493839" lon="12.5483651"><ele>1343.0</ele><time>2026-05-03T13:35:16.972Z</time></trkpt><trkpt lat="46.4938456" lon="12.5485693"><ele>1343.5</ele><time>2026-05-03T13:35:17.972Z</time></trkpt><trkpt lat="46.4938536" lon="12.5487671"><ele>1344.0</ele><time>2026-05-03T13:35:18.972Z</time></trkpt><trkpt lat="46.4938634" lon="12.5489714"><ele>1347.0</ele><time>2026-05-03T13:35:19.972Z</time></trkpt><trkpt lat="46.4938816" lon="12.5491864"><ele>1350.0</ele><time>2026-05-03T13:35:20.971Z</time></trkpt><trkpt lat="46.4939019" lon="12.5494069"><ele>1353.0</ele><time>2026-05-03T13:35:21.972Z</time></trkpt><trkpt lat="46.4939255" lon="12.5496375"><ele>1354.3333333333333</ele><time>2026-05-03T13:35:22.971Z</time></trkpt><trkpt lat="46.4939489" lon="12.5498709"><ele>1355.6666666666665</ele><time>2026-05-03T13:35:23.971Z</time></trkpt><trkpt lat="46.4939702" lon="12.5500916"><ele>1357.0</ele><time>2026-05-03T13:35:24.972Z</time></trkpt><trkpt lat="46.4939911" lon="12.5502984"><ele>1357.0</ele><time>2026-05-03T13:35:25.971Z</time></trkpt><trkpt lat="46.4940135" lon="12.5504952"><ele>1357.0</ele><time>2026-05-03T13:35:26.972Z</time></trkpt><trkpt lat="46.494047" lon="12.5506874"><ele>1357.0</ele><time>2026-05-03T13:35:27.972Z</time></trkpt><trkpt lat="46.4940974" lon="12.550879"><ele>1357.0</ele><time>2026-05-03T13:35:28.972Z</time></trkpt><trkpt lat="46.494172" lon="12.5510632"><ele>1354.0</ele><time>2026-05-03T13:35:29.972Z</time></trkpt><trkpt lat="46.4942533" lon="12.5512384"><ele>1351.0</ele><time>2026-05-03T13:35:30.972Z</time></trkpt><trkpt lat="46.4943321" lon="12.5514167"><ele>1348.0</ele><time>2026-05-03T13:35:31.972Z</time></trkpt><trkpt lat="46.4944029" lon="12.5516161"><ele>1345.0</ele><time>2026-05-03T13:35:32.972Z</time></trkpt><trkpt lat="46.4944712" lon="12.5518246"><ele>1346.6666666666665</ele><time>2026-05-03T13:35:33.971Z</time></trkpt><trkpt lat="46.4945326" lon="12.552052"><ele>1348.3333333333333</ele><time>2026-05-03T13:35:34.972Z</time></trkpt><trkpt lat="46.4945782" lon="12.5522957"><ele>1350.0</ele><time>2026-05-03T13:35:35.973Z</time></trkpt><trkpt lat="46.4946012" lon="12.5525566"><ele>1353.0</ele><time>2026-05-03T13:35:36.972Z</time></trkpt><trkpt lat="46.4946093" lon="12.5528254"><ele>1356.0</ele><time>2026-05-03T13:35:37.972Z</time></trkpt><trkpt lat="46.4945904" lon="12.5531015"><ele>1359.0</ele><time>2026-05-03T13:35:38.97Z</time></trkpt><trkpt lat="46.4945614" lon="12.5533809"><ele>1359.0</ele><time>2026-05-03T13:35:39.97Z</time></trkpt><trkpt lat="46.4945294" lon="12.5536634"><ele>1359.0</ele><time>2026-05-03T13:35:40.97Z</time></trkpt><trkpt lat="46.4944941" lon="12.5539475"><ele>1359.0</ele><time>2026-05-03T13:35:41.97Z</time></trkpt><trkpt lat="46.4944539" lon="12.5542317"><ele>1362.0</ele><time>2026-05-03T13:35:42.971Z</time></trkpt><trkpt lat="46.4944104" lon="12.5545143"><ele>1365.0</ele><time>2026-05-03T13:35:43.971Z</time></trkpt><trkpt lat="46.4943661" lon="12.5547858"><ele>1368.0</ele><time>2026-05-03T13:35:44.971Z</time></trkpt><trkpt lat="46.4943165" lon="12.5550407"><ele>1369.6666666666667</ele><time>2026-05-03T13:35:45.971Z</time></trkpt><trkpt lat="46.4942746" lon="12.5553035"><ele>1371.3333333333335</ele><time>2026-05-03T13:35:46.971Z</time></trkpt><trkpt lat="46.494251" lon="12.5555692"><ele>1373.0</ele><time>2026-05-03T13:35:47.971Z</time></trkpt><trkpt lat="46.4942495" lon="12.5558332"><ele>1375.3333333333335</ele><time>2026-05-03T13:35:48.971Z</time></trkpt><trkpt lat="46.4942494" lon="12.5561012"><ele>1377.6666666666667</ele><time>2026-05-03T13:35:49.97Z</time></trkpt><trkpt lat="46.4942471" lon="12.5563517"><ele>1380.0</ele><time>2026-05-03T13:35:50.971Z</time></trkpt><trkpt lat="46.4942361" lon="12.5565756"><ele>1381.75</ele><time>2026-05-03T13:35:51.97Z</time></trkpt><trkpt lat="46.4942235" lon="12.5567839"><ele>1383.5</ele><time>2026-05-03T13:35:52.971Z</time></trkpt><trkpt lat="46.4942424" lon="12.5569864"><ele>1385.25</ele><time>2026-05-03T13:35:53.971Z</time></trkpt><trkpt lat="46.4942963" lon="12.557194"><ele>1387.0</ele><time>2026-05-03T13:35:54.97Z</time></trkpt><trkpt lat="46.494375" lon="12.5573956"><ele>1388.6666666666665</ele><time>2026-05-03T13:35:55.972Z</time></trkpt><trkpt lat="46.4944554" lon="12.5576134"><ele>1390.3333333333333</ele><time>2026-05-03T13:35:56.97Z</time></trkpt><trkpt lat="46.4945074" lon="12.5578436"><ele>1392.0</ele><time>2026-05-03T13:35:57.971Z</time></trkpt><trkpt lat="46.494538" lon="12.5580931"><ele>1393.3333333333333</ele><time>2026-05-03T13:35:58.971Z</time></trkpt><trkpt lat="46.4945422" lon="12.5583513"><ele>1394.6666666666665</ele><time>2026-05-03T13:35:59.971Z</time></trkpt><trkpt lat="46.4945191" lon="12.5585918"><ele>1396.0</ele><time>2026-05-03T13:36:00.971Z</time></trkpt><trkpt lat="46.494476" lon="12.5588062"><ele>1396.0</ele><time>2026-05-03T13:36:01.97Z</time></trkpt><trkpt lat="46.4944151" lon="12.5590095"><ele>1396.0</ele><time>2026-05-03T13:36:02.97Z</time></trkpt><trkpt lat="46.4943388" lon="12.5592119"><ele>1396.0</ele><time>2026-05-03T13:36:03.971Z</time></trkpt><trkpt lat="46.4942604" lon="12.5594149"><ele>1395.3333333333333</ele><time>2026-05-03T13:36:04.971Z</time></trkpt><trkpt lat="46.4941932" lon="12.5596323"><ele>1394.6666666666667</ele><time>2026-05-03T13:36:05.971Z</time></trkpt><trkpt lat="46.4941307" lon="12.5598662"><ele>1394.0</ele><time>2026-05-03T13:36:06.971Z</time></trkpt><trkpt lat="46.4940769" lon="12.5601097"><ele>1394.0</ele><time>2026-05-03T13:36:07.971Z</time></trkpt><trkpt lat="46.4940189" lon="12.5603396"><ele>1394.0</ele><time>2026-05-03T13:36:08.97Z</time></trkpt><trkpt lat="46.4939426" lon="12.5605534"><ele>1394.0</ele><time>2026-05-03T13:36:09.971Z</time></trkpt><trkpt lat="46.4938436" lon="12.5607589"><ele>1397.6666666666667</ele><time>2026-05-03T13:36:10.971Z</time></trkpt><trkpt lat="46.4937319" lon="12.5609527"><ele>1401.3333333333333</ele><time>2026-05-03T13:36:11.971Z</time></trkpt><trkpt lat="46.4936108" lon="12.5611453"><ele>1405.0</ele><time>2026-05-03T13:36:12.972Z</time></trkpt><trkpt lat="46.4934822" lon="12.5613355"><ele>1406.3333333333333</ele><time>2026-05-03T13:36:13.97Z</time></trkpt><trkpt lat="46.4933513" lon="12.5615109"><ele>1407.6666666666667</ele><time>2026-05-03T13:36:14.971Z</time></trkpt><trkpt lat="46.49322" lon="12.5616635"><ele>1409.0</ele><time>2026-05-03T13:36:15.971Z</time></trkpt><trkpt lat="46.4930856" lon="12.5617905"><ele>1409.0</ele><time>2026-05-03T13:36:16.97Z</time></trkpt><trkpt lat="46.4929544" lon="12.5619081"><ele>1409.0</ele><time>2026-05-03T13:36:17.97Z</time></trkpt><trkpt lat="46.4928336" lon="12.5620393"><ele>1409.0</ele><time>2026-05-03T13:36:18.971Z</time></trkpt><trkpt lat="46.4927226" lon="12.5621953"><ele>1412.6666666666667</ele><time>2026-05-03T13:36:19.971Z</time></trkpt><trkpt lat="46.492622" lon="12.5623718"><ele>1416.3333333333333</ele><time>2026-05-03T13:36:20.97Z</time></trkpt><trkpt lat="46.4925238" lon="12.5625546"><ele>1420.0</ele><time>2026-05-03T13:36:21.971Z</time></trkpt><trkpt lat="46.492426" lon="12.5627443"><ele>1423.6666666666665</ele><time>2026-05-03T13:36:22.97Z</time></trkpt><trkpt lat="46.492326" lon="12.5629377"><ele>1427.3333333333333</ele><time>2026-05-03T13:36:23.971Z</time></trkpt><trkpt lat="46.4922252" lon="12.5631308"><ele>1431.0</ele><time>2026-05-03T13:36:24.971Z</time></trkpt><trkpt lat="46.492126" lon="12.5633206"><ele>1430.5</ele><time>2026-05-03T13:36:25.971Z</time></trkpt><trkpt lat="46.4920355" lon="12.5634898"><ele>1430.0</ele><time>2026-05-03T13:36:26.97Z</time></trkpt><trkpt lat="46.491954" lon="12.5636438"><ele>1429.5</ele><time>2026-05-03T13:36:27.971Z</time></trkpt><trkpt lat="46.4918818" lon="12.5637836"><ele>1429.0</ele><time>2026-05-03T13:36:28.971Z</time></trkpt><trkpt lat="46.4918332" lon="12.5639407"><ele>1429.0</ele><time>2026-05-03T13:36:29.971Z</time></trkpt><trkpt lat="46.4918083" lon="12.5641117"><ele>1429.0</ele><time>2026-05-03T13:36:30.971Z</time></trkpt><trkpt lat="46.4917754" lon="12.5642897"><ele>1429.0</ele><time>2026-05-03T13:36:31.971Z</time></trkpt><trkpt lat="46.4917343" lon="12.5644495"><ele>1429.0</ele><time>2026-05-03T13:36:32.972Z</time></trkpt><trkpt lat="46.4916959" lon="12.5645857"><ele>1430.6</ele><time>2026-05-03T13:36:33.971Z</time></trkpt><trkpt lat="46.49166" lon="12.5646993"><ele>1432.2</ele><time>2026-05-03T13:36:34.971Z</time></trkpt><trkpt lat="46.491652" lon="12.5647987"><ele>1433.8</ele><time>2026-05-03T13:36:35.971Z</time></trkpt><trkpt lat="46.4917356" lon="12.5649076"><ele>1435.3999999999999</ele><time>2026-05-03T13:36:37.971Z</time></trkpt><trkpt lat="46.4918054" lon="12.5647607"><ele>1437.0</ele><time>2026-05-03T13:36:39.972Z</time></trkpt><trkpt lat="46.4918202" lon="12.5646351"><ele>1435.0</ele><time>2026-05-03T13:36:40.971Z</time></trkpt><trkpt lat="46.4918528" lon="12.5644813"><ele>1433.0</ele><time>2026-05-03T13:36:41.972Z</time></trkpt><trkpt lat="46.491909" lon="12.5643248"><ele>1431.0</ele><time>2026-05-03T13:36:42.971Z</time></trkpt><trkpt lat="46.4919843" lon="12.5641748"><ele>1429.0</ele><time>2026-05-03T13:36:43.971Z</time></trkpt><trkpt lat="46.492073" lon="12.5640558"><ele>1429.5</ele><time>2026-05-03T13:36:44.971Z</time></trkpt><trkpt lat="46.4921815" lon="12.5639432"><ele>1430.0</ele><time>2026-05-03T13:36:45.971Z</time></trkpt><trkpt lat="46.492297" lon="12.5638324"><ele>1430.5</ele><time>2026-05-03T13:36:46.971Z</time></trkpt><trkpt lat="46.4924079" lon="12.563712"><ele>1431.0</ele><time>2026-05-03T13:36:47.971Z</time></trkpt><trkpt lat="46.4925175" lon="12.5636065"><ele>1431.0</ele><time>2026-05-03T13:36:48.971Z</time></trkpt><trkpt lat="46.4926226" lon="12.5635333"><ele>1431.0</ele><time>2026-05-03T13:36:49.97Z</time></trkpt><trkpt lat="46.4927125" lon="12.5634662"><ele>1431.0</ele><time>2026-05-03T13:36:50.971Z</time></trkpt><trkpt lat="46.4927851" lon="12.5633872"><ele>1431.0</ele><time>2026-05-03T13:36:51.971Z</time></trkpt><trkpt lat="46.4928484" lon="12.5633261"><ele>1431.0</ele><time>2026-05-03T13:36:52.971Z</time></trkpt><trkpt lat="46.4929138" lon="12.5633222"><ele>1431.0</ele><time>2026-05-03T13:36:53.97Z</time></trkpt><trkpt lat="46.4929769" lon="12.5634508"><ele>1431.0</ele><time>2026-05-03T13:36:55.97Z</time></trkpt><trkpt lat="46.4929258" lon="12.5635307"><ele>1431.0</ele><time>2026-05-03T13:36:56.97Z</time></trkpt><trkpt lat="46.4928474" lon="12.5635795"><ele>1431.0</ele><time>2026-05-03T13:36:57.971Z</time></trkpt><trkpt lat="46.4927557" lon="12.5636431"><ele>1431.0</ele><time>2026-05-03T13:36:58.971Z</time></trkpt><trkpt lat="46.4926547" lon="12.563728"><ele>1436.0</ele><time>2026-05-03T13:36:59.97Z</time></trkpt><trkpt lat="46.4925505" lon="12.5638311"><ele>1441.0</ele><time>2026-05-03T13:37:00.97Z</time></trkpt><trkpt lat="46.4924714" lon="12.5639652"><ele>1446.0</ele><time>2026-05-03T13:37:01.971Z</time></trkpt><trkpt lat="46.492394" lon="12.5641205"><ele>1451.0</ele><time>2026-05-03T13:37:02.97Z</time></trkpt><trkpt lat="46.4923262" lon="12.5642642"><ele>1451.0</ele><time>2026-05-03T13:37:03.972Z</time></trkpt><trkpt lat="46.4922541" lon="12.5643905"><ele>1451.0</ele><time>2026-05-03T13:37:04.97Z</time></trkpt><trkpt lat="46.4922027" lon="12.5645457"><ele>1451.0</ele><time>2026-05-03T13:37:05.971Z</time></trkpt><trkpt lat="46.4921864" lon="12.564728"><ele>1451.0</ele><time>2026-05-03T13:37:06.97Z</time></trkpt><trkpt lat="46.4921673" lon="12.5649214"><ele>1451.75</ele><time>2026-05-03T13:37:07.972Z</time></trkpt><trkpt lat="46.4921483" lon="12.5651239"><ele>1452.5</ele><time>2026-05-03T13:37:08.971Z</time></trkpt><trkpt lat="46.4921208" lon="12.5653297"><ele>1453.25</ele><time>2026-05-03T13:37:09.97Z</time></trkpt><trkpt lat="46.4920931" lon="12.5655429"><ele>1454.0</ele><time>2026-05-03T13:37:10.971Z</time></trkpt><trkpt lat="46.4920461" lon="12.5657569"><ele>1454.0</ele><time>2026-05-03T13:37:11.971Z</time></trkpt><trkpt lat="46.4919983" lon="12.5659765"><ele>1454.0</ele><time>2026-05-03T13:37:12.971Z</time></trkpt><trkpt lat="46.4919351" lon="12.5661778"><ele>1454.0</ele><time>2026-05-03T13:37:13.971Z</time></trkpt><trkpt lat="46.4918809" lon="12.5663669"><ele>1457.0</ele><time>2026-05-03T13:37:14.971Z</time></trkpt><trkpt lat="46.491838" lon="12.5665468"><ele>1460.0</ele><time>2026-05-03T13:37:15.971Z</time></trkpt><trkpt lat="46.4918095" lon="12.5667203"><ele>1463.0</ele><time>2026-05-03T13:37:16.97Z</time></trkpt><trkpt lat="46.4917933" lon="12.566897"><ele>1466.0</ele><time>2026-05-03T13:37:17.971Z</time></trkpt><trkpt lat="46.4917823" lon="12.5670574"><ele>1468.4</ele><time>2026-05-03T13:37:18.971Z</time></trkpt><trkpt lat="46.4917546" lon="12.5672157"><ele>1470.8</ele><time>2026-05-03T13:37:19.971Z</time></trkpt><trkpt lat="46.4916944" lon="12.5673363"><ele>1473.2</ele><time>2026-05-03T13:37:20.971Z</time></trkpt><trkpt lat="46.4915979" lon="12.5674161"><ele>1475.6000000000001</ele><time>2026-05-03T13:37:21.971Z</time></trkpt><trkpt lat="46.4914943" lon="12.5674514"><ele>1478.0</ele><time>2026-05-03T13:37:22.971Z</time></trkpt><trkpt lat="46.4913845" lon="12.5674521"><ele>1478.0</ele><time>2026-05-03T13:37:23.972Z</time></trkpt><trkpt lat="46.4912792" lon="12.5674099"><ele>1478.0</ele><time>2026-05-03T13:37:24.971Z</time></trkpt><trkpt lat="46.4911944" lon="12.5673213"><ele>1478.0</ele><time>2026-05-03T13:37:25.97Z</time></trkpt><trkpt lat="46.4911357" lon="12.5671907"><ele>1478.0</ele><time>2026-05-03T13:37:26.971Z</time></trkpt><trkpt lat="46.4910997" lon="12.5670532"><ele>1478.0</ele><time>2026-05-03T13:37:27.971Z</time></trkpt><trkpt lat="46.4910727" lon="12.5669335"><ele>1477.6000000000001</ele><time>2026-05-03T13:37:28.971Z</time></trkpt><trkpt lat="46.4910383" lon="12.566837"><ele>1477.2</ele><time>2026-05-03T13:37:29.972Z</time></trkpt><trkpt lat="46.4909297" lon="12.566801"><ele>1476.8</ele><time>2026-05-03T13:37:31.97Z</time></trkpt><trkpt lat="46.4909107" lon="12.566966"><ele>1476.4</ele><time>2026-05-03T13:37:33.971Z</time></trkpt><trkpt lat="46.4909713" lon="12.5670634"><ele>1476.0</ele><time>2026-05-03T13:37:34.971Z</time></trkpt><trkpt lat="46.4910268" lon="12.5671875"><ele>1476.5</ele><time>2026-05-03T13:37:35.971Z</time></trkpt><trkpt lat="46.4910688" lon="12.567338"><ele>1477.0</ele><time>2026-05-03T13:37:36.971Z</time></trkpt><trkpt lat="46.4911347" lon="12.567489"><ele>1477.5</ele><time>2026-05-03T13:37:37.971Z</time></trkpt><trkpt lat="46.4912218" lon="12.5676312"><ele>1478.0</ele><time>2026-05-03T13:37:38.971Z</time></trkpt><trkpt lat="46.4913083" lon="12.5677582"><ele>1478.0</ele><time>2026-05-03T13:37:39.971Z</time></trkpt><trkpt lat="46.4913875" lon="12.5678551"><ele>1478.0</ele><time>2026-05-03T13:37:40.97Z</time></trkpt><trkpt lat="46.491437" lon="12.5679425"><ele>1478.0</ele><time>2026-05-03T13:37:41.97Z</time></trkpt><trkpt lat="46.4913986" lon="12.5680946"><ele>1478.0</ele><time>2026-05-03T13:37:43.971Z</time></trkpt><trkpt lat="46.4913297" lon="12.5680991"><ele>1478.0</ele><time>2026-05-03T13:37:44.97Z</time></trkpt><trkpt lat="46.4912632" lon="12.5680368"><ele>1478.0</ele><time>2026-05-03T13:37:45.971Z</time></trkpt><trkpt lat="46.4911998" lon="12.5679507"><ele>1482.0</ele><time>2026-05-03T13:37:46.97Z</time></trkpt><trkpt lat="46.4911315" lon="12.5678533"><ele>1486.0</ele><time>2026-05-03T13:37:47.972Z</time></trkpt><trkpt lat="46.4910609" lon="12.5677353"><ele>1490.0</ele><time>2026-05-03T13:37:48.971Z</time></trkpt><trkpt lat="46.4910002" lon="12.5675986"><ele>1494.0</ele><time>2026-05-03T13:37:49.971Z</time></trkpt><trkpt lat="46.4909546" lon="12.5674672"><ele>1498.0</ele><time>2026-05-03T13:37:50.97Z</time></trkpt><trkpt lat="46.4909102" lon="12.5673563"><ele>1498.0</ele><time>2026-05-03T13:37:51.971Z</time></trkpt><trkpt lat="46.4908502" lon="12.5672541"><ele>1498.0</ele><time>2026-05-03T13:37:52.971Z</time></trkpt><trkpt lat="46.4907633" lon="12.5671793"><ele>1498.0</ele><time>2026-05-03T13:37:53.971Z</time></trkpt><trkpt lat="46.4906568" lon="12.5671216"><ele>1498.0</ele><time>2026-05-03T13:37:54.972Z</time></trkpt><trkpt lat="46.4905401" lon="12.5670882"><ele>1498.0</ele><time>2026-05-03T13:37:55.971Z</time></trkpt><trkpt lat="46.4904085" lon="12.5670837"><ele>1508.75</ele><time>2026-05-03T13:37:56.971Z</time></trkpt><trkpt lat="46.4902798" lon="12.5670911"><ele>1519.5</ele><time>2026-05-03T13:37:57.972Z</time></trkpt><trkpt lat="46.4901483" lon="12.5670966"><ele>1530.25</ele><time>2026-05-03T13:37:58.971Z</time></trkpt><trkpt lat="46.4900308" lon="12.5670955"><ele>1541.0</ele><time>2026-05-03T13:37:59.97Z</time></trkpt><trkpt lat="46.48992" lon="12.5670716"><ele>1537.75</ele><time>2026-05-03T13:38:00.971Z</time></trkpt><trkpt lat="46.4898028" lon="12.5670092"><ele>1534.5</ele><time>2026-05-03T13:38:01.971Z</time></trkpt><trkpt lat="46.4896975" lon="12.5669331"><ele>1531.25</ele><time>2026-05-03T13:38:02.971Z</time></trkpt><trkpt lat="46.489584" lon="12.5668635"><ele>1528.0</ele><time>2026-05-03T13:38:03.971Z</time></trkpt><trkpt lat="46.4894725" lon="12.5668181"><ele>1528.0</ele><time>2026-05-03T13:38:04.97Z</time></trkpt><trkpt lat="46.4893512" lon="12.5667847"><ele>1528.0</ele><time>2026-05-03T13:38:05.971Z</time></trkpt><trkpt lat="46.4892383" lon="12.566774"><ele>1528.0</ele><time>2026-05-03T13:38:06.972Z</time></trkpt><trkpt lat="46.4891468" lon="12.5667371"><ele>1528.0</ele><time>2026-05-03T13:38:07.97Z</time></trkpt><trkpt lat="46.489079" lon="12.5666878"><ele>1528.0</ele><time>2026-05-03T13:38:08.971Z</time></trkpt><trkpt lat="46.4890113" lon="12.5666882"><ele>1528.0</ele><time>2026-05-03T13:38:09.971Z</time></trkpt><trkpt lat="46.4889639" lon="12.5668009"><ele>1528.0</ele><time>2026-05-03T13:38:11.971Z</time></trkpt><trkpt lat="46.4890023" lon="12.5668765"><ele>1528.0</ele><time>2026-05-03T13:38:12.97Z</time></trkpt><trkpt lat="46.489076" lon="12.5669023"><ele>1528.0</ele><time>2026-05-03T13:38:13.971Z</time></trkpt><trkpt lat="46.4891649" lon="12.5669146"><ele>1528.0</ele><time>2026-05-03T13:38:14.971Z</time></trkpt><trkpt lat="46.4892629" lon="12.5669188"><ele>1528.0</ele><time>2026-05-03T13:38:15.971Z</time></trkpt><trkpt lat="46.4893602" lon="12.566939"><ele>1528.0</ele><time>2026-05-03T13:38:16.972Z</time></trkpt><trkpt lat="46.4894547" lon="12.5670013"><ele>1528.0</ele><time>2026-05-03T13:38:17.97Z</time></trkpt><trkpt lat="46.4895418" lon="12.5670759"><ele>1528.0</ele><time>2026-05-03T13:38:18.97Z</time></trkpt><trkpt lat="46.4896265" lon="12.5671661"><ele>1528.0</ele><time>2026-05-03T13:38:19.971Z</time></trkpt><trkpt lat="46.4897127" lon="12.5672751"><ele>1528.0</ele><time>2026-05-03T13:38:20.971Z</time></trkpt><trkpt lat="46.4898247" lon="12.5673458"><ele>1531.25</ele><time>2026-05-03T13:38:21.971Z</time></trkpt><trkpt lat="46.4899583" lon="12.5673966"><ele>1534.5</ele><time>2026-05-03T13:38:22.971Z</time></trkpt><trkpt lat="46.4900738" lon="12.5674184"><ele>1537.75</ele><time>2026-05-03T13:38:23.97Z</time></trkpt><trkpt lat="46.4901918" lon="12.5674516"><ele>1541.0</ele><time>2026-05-03T13:38:24.971Z</time></trkpt><trkpt lat="46.490298" lon="12.5674684"><ele>1541.0</ele><time>2026-05-03T13:38:25.97Z</time></trkpt><trkpt lat="46.4903861" lon="12.5674816"><ele>1541.0</ele><time>2026-05-03T13:38:26.972Z</time></trkpt><trkpt lat="46.4904777" lon="12.5675542"><ele>1541.0</ele><time>2026-05-03T13:38:28.971Z</time></trkpt><trkpt lat="46.4904062" lon="12.5676619"><ele>1541.0</ele><time>2026-05-03T13:38:30.971Z</time></trkpt><trkpt lat="46.4903041" lon="12.5676097"><ele>1541.0</ele><time>2026-05-03T13:38:32.971Z</time></trkpt><trkpt lat="46.4902393" lon="12.5675669"><ele>1541.0</ele><time>2026-05-03T13:38:33.971Z</time></trkpt><trkpt lat="46.4901362" lon="12.5675612"><ele>1541.0</ele><time>2026-05-03T13:38:34.972Z</time></trkpt><trkpt lat="46.4900287" lon="12.5675553"><ele>1541.0</ele><time>2026-05-03T13:38:35.971Z</time></trkpt><trkpt lat="46.489915" lon="12.5675635"><ele>1541.0</ele><time>2026-05-03T13:38:36.971Z</time></trkpt><trkpt lat="46.4898025" lon="12.5675761"><ele>1541.0</ele><time>2026-05-03T13:38:37.971Z</time></trkpt><trkpt lat="46.4896873" lon="12.5675557"><ele>1546.1999999999998</ele><time>2026-05-03T13:38:38.971Z</time></trkpt><trkpt lat="46.4895848" lon="12.5674852"><ele>1551.3999999999999</ele><time>2026-05-03T13:38:39.97Z</time></trkpt><trkpt lat="46.4894936" lon="12.5674073"><ele>1556.6</ele><time>2026-05-03T13:38:40.971Z</time></trkpt><trkpt lat="46.4894059" lon="12.5673485"><ele>1561.8</ele><time>2026-05-03T13:38:41.97Z</time></trkpt><trkpt lat="46.4892964" lon="12.5673202"><ele>1567.0</ele><time>2026-05-03T13:38:42.971Z</time></trkpt><trkpt lat="46.4891788" lon="12.5673022"><ele>1567.0</ele><time>2026-05-03T13:38:43.97Z</time></trkpt><trkpt lat="46.4890775" lon="12.5672892"><ele>1567.0</ele><time>2026-05-03T13:38:44.972Z</time></trkpt><trkpt lat="46.4889808" lon="12.5672656"><ele>1567.0</ele><time>2026-05-03T13:38:45.971Z</time></trkpt><trkpt lat="46.4889025" lon="12.5672156"><ele>1567.0</ele><time>2026-05-03T13:38:46.971Z</time></trkpt><trkpt lat="46.4888304" lon="12.5671293"><ele>1567.0</ele><time>2026-05-03T13:38:47.971Z</time></trkpt><trkpt lat="46.4887822" lon="12.5670344"><ele>1567.3333333333335</ele><time>2026-05-03T13:38:48.971Z</time></trkpt><trkpt lat="46.4887473" lon="12.5669476"><ele>1567.6666666666667</ele><time>2026-05-03T13:38:49.971Z</time></trkpt><trkpt lat="46.4887179" lon="12.5668638"><ele>1568.0</ele><time>2026-05-03T13:38:50.971Z</time></trkpt><trkpt lat="46.488619" lon="12.5667893"><ele>1568.3333333333335</ele><time>2026-05-03T13:38:52.971Z</time></trkpt><trkpt lat="46.4885689" lon="12.5669173"><ele>1568.6666666666667</ele><time>2026-05-03T13:38:54.97Z</time></trkpt><trkpt lat="46.4885902" lon="12.5670105"><ele>1569.0</ele><time>2026-05-03T13:38:55.972Z</time></trkpt><trkpt lat="46.4886661" lon="12.5670907"><ele>1568.5</ele><time>2026-05-03T13:38:56.97Z</time></trkpt><trkpt lat="46.4887391" lon="12.5672002"><ele>1568.0</ele><time>2026-05-03T13:38:57.971Z</time></trkpt><trkpt lat="46.4888464" lon="12.5672983"><ele>1567.5</ele><time>2026-05-03T13:38:58.97Z</time></trkpt><trkpt lat="46.488954" lon="12.5673664"><ele>1567.0</ele><time>2026-05-03T13:38:59.971Z</time></trkpt><trkpt lat="46.489075" lon="12.5674329"><ele>1567.0</ele><time>2026-05-03T13:39:00.971Z</time></trkpt><trkpt lat="46.4891988" lon="12.5674978"><ele>1567.0</ele><time>2026-05-03T13:39:01.971Z</time></trkpt><trkpt lat="46.4893005" lon="12.5675632"><ele>1567.0</ele><time>2026-05-03T13:39:02.97Z</time></trkpt><trkpt lat="46.4893954" lon="12.567623"><ele>1567.0</ele><time>2026-05-03T13:39:03.971Z</time></trkpt><trkpt lat="46.4894655" lon="12.5677142"><ele>1567.0</ele><time>2026-05-03T13:39:04.971Z</time></trkpt><trkpt lat="46.4895365" lon="12.5677578"><ele>1567.0000000000002</ele><time>2026-05-03T13:39:05.971Z</time></trkpt><trkpt lat="46.4895994" lon="12.5677677"><ele>1567.0</ele><time>2026-05-03T13:39:06.971Z</time></trkpt><trkpt lat="46.48969" lon="12.5678112"><ele>1567.0</ele><time>2026-05-03T13:39:08.971Z</time></trkpt><trkpt lat="46.4896679" lon="12.567926"><ele>1567.0</ele><time>2026-05-03T13:39:10.971Z</time></trkpt><trkpt lat="46.4895576" lon="12.5678995"><ele>1567.0000000000002</ele><time>2026-05-03T13:39:12.971Z</time></trkpt><trkpt lat="46.4894879" lon="12.5678519"><ele>1567.0</ele><time>2026-05-03T13:39:13.971Z</time></trkpt><trkpt lat="46.4893982" lon="12.5677873"><ele>1567.0</ele><time>2026-05-03T13:39:14.97Z</time></trkpt><trkpt lat="46.4893089" lon="12.5677388"><ele>1567.0</ele><time>2026-05-03T13:39:15.97Z</time></trkpt><trkpt lat="46.4891932" lon="12.5676844"><ele>1567.0</ele><time>2026-05-03T13:39:16.971Z</time></trkpt><trkpt lat="46.489098" lon="12.5676615"><ele>1567.0</ele><time>2026-05-03T13:39:17.97Z</time></trkpt><trkpt lat="46.4890028" lon="12.5676355"><ele>1567.0</ele><time>2026-05-03T13:39:18.97Z</time></trkpt><trkpt lat="46.4889051" lon="12.5676061"><ele>1567.0</ele><time>2026-05-03T13:39:19.971Z</time></trkpt><trkpt lat="46.4888036" lon="12.5675652"><ele>1567.0</ele><time>2026-05-03T13:39:20.971Z</time></trkpt><trkpt lat="46.4887121" lon="12.5674893"><ele>1567.0</ele><time>2026-05-03T13:39:21.97Z</time></trkpt><trkpt lat="46.4886207" lon="12.5673989"><ele>1567.0</ele><time>2026-05-03T13:39:22.971Z</time></trkpt><trkpt lat="46.4885286" lon="12.5673027"><ele>1567.0</ele><time>2026-05-03T13:39:23.971Z</time></trkpt><trkpt lat="46.4884445" lon="12.5672131"><ele>1567.3333333333335</ele><time>2026-05-03T13:39:24.971Z</time></trkpt><trkpt lat="46.488375" lon="12.5671345"><ele>1567.6666666666667</ele><time>2026-05-03T13:39:25.971Z</time></trkpt><trkpt lat="46.4883199" lon="12.5670683"><ele>1568.0</ele><time>2026-05-03T13:39:26.971Z</time></trkpt><trkpt lat="46.4882659" lon="12.5669632"><ele>1568.3333333333335</ele><time>2026-05-03T13:39:28.97Z</time></trkpt><trkpt lat="46.4882499" lon="12.5668702"><ele>1568.6666666666667</ele><time>2026-05-03T13:39:32.971Z</time></trkpt><trkpt lat="46.4882988" lon="12.5669476"><ele>1569.0</ele><time>2026-05-03T13:39:47.971Z</time></trkpt><trkpt lat="46.4883355" lon="12.5670243"><ele>1569.0</ele><time>2026-05-03T13:40:04.971Z</time></trkpt><trkpt lat="46.488284" lon="12.5669457"><ele>1569.0</ele><time>2026-05-03T13:40:19.971Z</time></trkpt><trkpt lat="46.4882469" lon="12.566862"><ele>1569.0</ele><time>2026-05-03T13:40:57.971Z</time></trkpt><trkpt lat="46.488179" lon="12.5669028"><ele>1569.0</ele><time>2026-05-03T13:41:04.971Z</time></trkpt><trkpt lat="46.4880652" lon="12.5668764"><ele>1569.0</ele><time>2026-05-03T13:41:06.97Z</time></trkpt><trkpt lat="46.487993" lon="12.5668562"><ele>1569.0</ele><time>2026-05-03T13:41:07.971Z</time></trkpt><trkpt lat="46.487896" lon="12.5668618"><ele>1572.2</ele><time>2026-05-03T13:41:08.971Z</time></trkpt><trkpt lat="46.4878113" lon="12.5668517"><ele>1575.4</ele><time>2026-05-03T13:41:09.972Z</time></trkpt><trkpt lat="46.4877076" lon="12.5668963"><ele>1578.6</ele><time>2026-05-03T13:41:10.97Z</time></trkpt><trkpt lat="46.4876032" lon="12.5669139"><ele>1581.8</ele><time>2026-05-03T13:41:11.971Z</time></trkpt><trkpt lat="46.4874962" lon="12.5669117"><ele>1585.0</ele><time>2026-05-03T13:41:12.971Z</time></trkpt><trkpt lat="46.4873949" lon="12.5669036"><ele>1585.0</ele><time>2026-05-03T13:41:13.97Z</time></trkpt><trkpt lat="46.48729" lon="12.5668804"><ele>1585.0</ele><time>2026-05-03T13:41:14.971Z</time></trkpt><trkpt lat="46.4871866" lon="12.5668534"><ele>1585.0</ele><time>2026-05-03T13:41:15.971Z</time></trkpt><trkpt lat="46.4870842" lon="12.5668298"><ele>1585.0</ele><time>2026-05-03T13:41:16.971Z</time></trkpt><trkpt lat="46.4869966" lon="12.5668248"><ele>1585.0</ele><time>2026-05-03T13:41:17.971Z</time></trkpt><trkpt lat="46.486912" lon="12.5668412"><ele>1584.0</ele><time>2026-05-03T13:41:18.971Z</time></trkpt><trkpt lat="46.4868339" lon="12.5668791"><ele>1583.0</ele><time>2026-05-03T13:41:19.97Z</time></trkpt><trkpt lat="46.4867759" lon="12.5669257"><ele>1582.0</ele><time>2026-05-03T13:41:20.971Z</time></trkpt><trkpt lat="46.4867549" lon="12.5670718"><ele>1581.0</ele><time>2026-05-03T13:41:22.972Z</time></trkpt><trkpt lat="46.4868478" lon="12.5671469"><ele>1580.0</ele><time>2026-05-03T13:41:24.971Z</time></trkpt><trkpt lat="46.4869808" lon="12.5670873"><ele>1587.6</ele><time>2026-05-03T13:41:26.971Z</time></trkpt><trkpt lat="46.4870656" lon="12.5671028"><ele>1595.2</ele><time>2026-05-03T13:41:27.971Z</time></trkpt><trkpt lat="46.4871563" lon="12.5671458"><ele>1602.8000000000002</ele><time>2026-05-03T13:41:28.971Z</time></trkpt><trkpt lat="46.4872623" lon="12.5672011"><ele>1610.4</ele><time>2026-05-03T13:41:29.971Z</time></trkpt><trkpt lat="46.4873695" lon="12.5672635"><ele>1618.0</ele><time>2026-05-03T13:41:30.971Z</time></trkpt><trkpt lat="46.4874786" lon="12.567329"><ele>1619.75</ele><time>2026-05-03T13:41:31.97Z</time></trkpt><trkpt lat="46.4875833" lon="12.5673821"><ele>1621.5</ele><time>2026-05-03T13:41:32.97Z</time></trkpt><trkpt lat="46.487695" lon="12.5674466"><ele>1623.25</ele><time>2026-05-03T13:41:33.971Z</time></trkpt><trkpt lat="46.4878049" lon="12.5675259"><ele>1625.0</ele><time>2026-05-03T13:41:34.971Z</time></trkpt><trkpt lat="46.4879097" lon="12.5676272"><ele>1620.0</ele><time>2026-05-03T13:41:35.97Z</time></trkpt><trkpt lat="46.4880177" lon="12.5677411"><ele>1615.0</ele><time>2026-05-03T13:41:36.97Z</time></trkpt><trkpt lat="46.4881309" lon="12.5678539"><ele>1610.0</ele><time>2026-05-03T13:41:37.971Z</time></trkpt><trkpt lat="46.4882488" lon="12.5679503"><ele>1605.0</ele><time>2026-05-03T13:41:38.971Z</time></trkpt><trkpt lat="46.4883654" lon="12.5680451"><ele>1617.0</ele><time>2026-05-03T13:41:39.971Z</time></trkpt><trkpt lat="46.488473" lon="12.5681396"><ele>1629.0</ele><time>2026-05-03T13:41:40.971Z</time></trkpt><trkpt lat="46.4885823" lon="12.5682404"><ele>1641.0</ele><time>2026-05-03T13:41:41.97Z</time></trkpt><trkpt lat="46.4886368" lon="12.5683888"><ele>1653.0</ele><time>2026-05-03T13:41:42.971Z</time></trkpt><trkpt lat="46.4887178" lon="12.5684742"><ele>1644.5</ele><time>2026-05-03T13:41:43.971Z</time></trkpt><trkpt lat="46.4888032" lon="12.5685675"><ele>1636.0</ele><time>2026-05-03T13:41:44.971Z</time></trkpt><trkpt lat="46.488937" lon="12.5685317"><ele>1627.5</ele><time>2026-05-03T13:41:45.971Z</time></trkpt><trkpt lat="46.4890455" lon="12.5685429"><ele>1619.0</ele><time>2026-05-03T13:41:46.97Z</time></trkpt><trkpt lat="46.4891545" lon="12.5685895"><ele>1619.0</ele><time>2026-05-03T13:41:47.971Z</time></trkpt><trkpt lat="46.489244" lon="12.5686488"><ele>1619.0</ele><time>2026-05-03T13:41:48.971Z</time></trkpt><trkpt lat="46.489292" lon="12.5687701"><ele>1619.0</ele><time>2026-05-03T13:41:49.971Z</time></trkpt><trkpt lat="46.48932" lon="12.5688896"><ele>1619.0</ele><time>2026-05-03T13:41:50.971Z</time></trkpt><trkpt lat="46.4893155" lon="12.5690324"><ele>1619.0</ele><time>2026-05-03T13:41:51.971Z</time></trkpt><trkpt lat="46.4892992" lon="12.5691665"><ele>1624.6</ele><time>2026-05-03T13:41:52.971Z</time></trkpt><trkpt lat="46.4892761" lon="12.5693086"><ele>1630.2</ele><time>2026-05-03T13:41:53.971Z</time></trkpt><trkpt lat="46.4892412" lon="12.569463"><ele>1635.8</ele><time>2026-05-03T13:41:54.97Z</time></trkpt><trkpt lat="46.4892069" lon="12.5696273"><ele>1641.3999999999999</ele><time>2026-05-03T13:41:55.972Z</time></trkpt><trkpt lat="46.4891772" lon="12.5697712"><ele>1647.0</ele><time>2026-05-03T13:41:56.971Z</time></trkpt><trkpt lat="46.4891555" lon="12.569905"><ele>1648.6666666666667</ele><time>2026-05-03T13:41:57.971Z</time></trkpt><trkpt lat="46.4891519" lon="12.5700247"><ele>1650.3333333333335</ele><time>2026-05-03T13:41:58.97Z</time></trkpt><trkpt lat="46.4891895" lon="12.5701157"><ele>1652.0</ele><time>2026-05-03T13:41:59.972Z</time></trkpt><trkpt lat="46.4892468" lon="12.5701705"><ele>1653.6666666666667</ele><time>2026-05-03T13:42:00.971Z</time></trkpt><trkpt lat="46.4893071" lon="12.5702097"><ele>1655.3333333333335</ele><time>2026-05-03T13:42:01.971Z</time></trkpt><trkpt lat="46.4893991" lon="12.5703201"><ele>1657.0</ele><time>2026-05-03T13:42:03.971Z</time></trkpt><trkpt lat="46.4894025" lon="12.570433"><ele>1659.8</ele><time>2026-05-03T13:42:04.97Z</time></trkpt><trkpt lat="46.4893819" lon="12.5705561"><ele>1662.6</ele><time>2026-05-03T13:42:05.971Z</time></trkpt><trkpt lat="46.4893488" lon="12.5706903"><ele>1665.3999999999999</ele><time>2026-05-03T13:42:06.971Z</time></trkpt><trkpt lat="46.4893028" lon="12.5708396"><ele>1668.1999999999998</ele><time>2026-05-03T13:42:07.971Z</time></trkpt><trkpt lat="46.4892643" lon="12.5710099"><ele>1671.0</ele><time>2026-05-03T13:42:08.971Z</time></trkpt><trkpt lat="46.489236" lon="12.571188"><ele>1672.75</ele><time>2026-05-03T13:42:09.971Z</time></trkpt><trkpt lat="46.4892225" lon="12.5713755"><ele>1674.5</ele><time>2026-05-03T13:42:10.97Z</time></trkpt><trkpt lat="46.4892202" lon="12.5715539"><ele>1676.25</ele><time>2026-05-03T13:42:11.971Z</time></trkpt><trkpt lat="46.4892416" lon="12.5717163"><ele>1678.0</ele><time>2026-05-03T13:42:12.971Z</time></trkpt><trkpt lat="46.4892893" lon="12.5718771"><ele>1678.2</ele><time>2026-05-03T13:42:13.97Z</time></trkpt><trkpt lat="46.4893578" lon="12.5720272"><ele>1678.4</ele><time>2026-05-03T13:42:14.971Z</time></trkpt><trkpt lat="46.4894282" lon="12.5721597"><ele>1678.6000000000001</ele><time>2026-05-03T13:42:15.97Z</time></trkpt><trkpt lat="46.4894942" lon="12.5722793"><ele>1678.8000000000002</ele><time>2026-05-03T13:42:16.971Z</time></trkpt><trkpt lat="46.4895525" lon="12.5723947"><ele>1679.0</ele><time>2026-05-03T13:42:17.971Z</time></trkpt><trkpt lat="46.4895919" lon="12.5725151"><ele>1679.0</ele><time>2026-05-03T13:42:18.97Z</time></trkpt><trkpt lat="46.4895755" lon="12.572659"><ele>1679.0</ele><time>2026-05-03T13:42:19.971Z</time></trkpt><trkpt lat="46.4895583" lon="12.5728022"><ele>1679.0</ele><time>2026-05-03T13:42:20.971Z</time></trkpt><trkpt lat="46.4895335" lon="12.572956"><ele>1679.0</ele><time>2026-05-03T13:42:21.97Z</time></trkpt><trkpt lat="46.4894934" lon="12.5730995"><ele>1679.0</ele><time>2026-05-03T13:42:22.972Z</time></trkpt><trkpt lat="46.4894522" lon="12.5732467"><ele>1680.2</ele><time>2026-05-03T13:42:23.971Z</time></trkpt><trkpt lat="46.4894316" lon="12.5733955"><ele>1681.4</ele><time>2026-05-03T13:42:24.971Z</time></trkpt><trkpt lat="46.4894315" lon="12.5735359"><ele>1682.6</ele><time>2026-05-03T13:42:25.971Z</time></trkpt><trkpt lat="46.4894306" lon="12.5736902"><ele>1683.8</ele><time>2026-05-03T13:42:26.971Z</time></trkpt><trkpt lat="46.4893993" lon="12.5738444"><ele>1685.0</ele><time>2026-05-03T13:42:27.971Z</time></trkpt><trkpt lat="46.4893461" lon="12.5739934"><ele>1686.0</ele><time>2026-05-03T13:42:28.971Z</time></trkpt><trkpt lat="46.489286" lon="12.5741503"><ele>1687.0</ele><time>2026-05-03T13:42:29.971Z</time></trkpt><trkpt lat="46.4892297" lon="12.5743203"><ele>1688.0</ele><time>2026-05-03T13:42:30.972Z</time></trkpt><trkpt lat="46.4891937" lon="12.5744828"><ele>1689.0</ele><time>2026-05-03T13:42:31.971Z</time></trkpt><trkpt lat="46.4891758" lon="12.5746151"><ele>1689.0</ele><time>2026-05-03T13:42:32.971Z</time></trkpt><trkpt lat="46.4891623" lon="12.5747215"><ele>1689.0</ele><time>2026-05-03T13:42:33.97Z</time></trkpt><trkpt lat="46.4891301" lon="12.5748046"><ele>1689.0</ele><time>2026-05-03T13:42:34.971Z</time></trkpt><trkpt lat="46.4890355" lon="12.5748244"><ele>1689.0</ele><time>2026-05-03T13:42:36.97Z</time></trkpt><trkpt lat="46.4890289" lon="12.5746713"><ele>1689.0</ele><time>2026-05-03T13:42:38.97Z</time></trkpt><trkpt lat="46.4890756" lon="12.5745778"><ele>1689.0</ele><time>2026-05-03T13:42:39.97Z</time></trkpt><trkpt lat="46.4891056" lon="12.5744556"><ele>1689.0</ele><time>2026-05-03T13:42:40.97Z</time></trkpt><trkpt lat="46.4891216" lon="12.5743093"><ele>1689.0</ele><time>2026-05-03T13:42:41.97Z</time></trkpt><trkpt lat="46.489119" lon="12.5741461"><ele>1689.0</ele><time>2026-05-03T13:42:42.969Z</time></trkpt><trkpt lat="46.4891016" lon="12.5739767"><ele>1689.0</ele><time>2026-05-03T13:42:43.971Z</time></trkpt><trkpt lat="46.4890754" lon="12.5738183"><ele>1689.0</ele><time>2026-05-03T13:42:44.969Z</time></trkpt><trkpt lat="46.4890314" lon="12.573687"><ele>1688.2</ele><time>2026-05-03T13:42:45.97Z</time></trkpt><trkpt lat="46.4889816" lon="12.5735844"><ele>1687.4</ele><time>2026-05-03T13:42:46.969Z</time></trkpt><trkpt lat="46.4889076" lon="12.5735168"><ele>1686.6</ele><time>2026-05-03T13:42:47.97Z</time></trkpt><trkpt lat="46.4888138" lon="12.5734748"><ele>1685.8</ele><time>2026-05-03T13:42:48.969Z</time></trkpt><trkpt lat="46.4887078" lon="12.5734339"><ele>1685.0</ele><time>2026-05-03T13:42:49.97Z</time></trkpt><trkpt lat="46.4885999" lon="12.573387"><ele>1688.9999999999998</ele><time>2026-05-03T13:42:50.97Z</time></trkpt><trkpt lat="46.4885056" lon="12.5733371"><ele>1693.0</ele><time>2026-05-03T13:42:51.969Z</time></trkpt><trkpt lat="46.4884198" lon="12.573269"><ele>1697.0</ele><time>2026-05-03T13:42:52.97Z</time></trkpt><trkpt lat="46.4883661" lon="12.5731838"><ele>1701.0</ele><time>2026-05-03T13:42:53.971Z</time></trkpt><trkpt lat="46.4883486" lon="12.5730673"><ele>1704.9999999999998</ele><time>2026-05-03T13:42:54.97Z</time></trkpt><trkpt lat="46.4883702" lon="12.5729472"><ele>1709.0</ele><time>2026-05-03T13:42:55.971Z</time></trkpt><trkpt lat="46.488427" lon="12.5728299"><ele>1710.4</ele><time>2026-05-03T13:42:56.97Z</time></trkpt><trkpt lat="46.4884777" lon="12.572687"><ele>1711.8000000000002</ele><time>2026-05-03T13:42:57.969Z</time></trkpt><trkpt lat="46.4885154" lon="12.5725304"><ele>1713.1999999999998</ele><time>2026-05-03T13:42:58.97Z</time></trkpt><trkpt lat="46.4885273" lon="12.5723801"><ele>1714.6</ele><time>2026-05-03T13:42:59.97Z</time></trkpt><trkpt lat="46.4885005" lon="12.5722198"><ele>1716.0</ele><time>2026-05-03T13:43:00.97Z</time></trkpt><trkpt lat="46.4884612" lon="12.5720536"><ele>1715.5</ele><time>2026-05-03T13:43:01.97Z</time></trkpt><trkpt lat="46.4884171" lon="12.5718731"><ele>1715.0</ele><time>2026-05-03T13:43:02.97Z</time></trkpt><trkpt lat="46.488385" lon="12.5716997"><ele>1714.5</ele><time>2026-05-03T13:43:03.97Z</time></trkpt><trkpt lat="46.4883554" lon="12.5715467"><ele>1714.0</ele><time>2026-05-03T13:43:04.97Z</time></trkpt><trkpt lat="46.488334" lon="12.5714158"><ele>1714.0</ele><time>2026-05-03T13:43:05.97Z</time></trkpt><trkpt lat="46.4883108" lon="12.5712953"><ele>1714.0</ele><time>2026-05-03T13:43:06.97Z</time></trkpt><trkpt lat="46.4882009" lon="12.5712629"><ele>1714.0</ele><time>2026-05-03T13:43:08.97Z</time></trkpt><trkpt lat="46.488166" lon="12.5714135"><ele>1714.0</ele><time>2026-05-03T13:43:10.971Z</time></trkpt><trkpt lat="46.4882063" lon="12.5715122"><ele>1714.0</ele><time>2026-05-03T13:43:11.97Z</time></trkpt><trkpt lat="46.4882423" lon="12.5716384"><ele>1714.0</ele><time>2026-05-03T13:43:12.97Z</time></trkpt><trkpt lat="46.4882625" lon="12.5717965"><ele>1714.0</ele><time>2026-05-03T13:43:13.97Z</time></trkpt><trkpt lat="46.4882816" lon="12.5719658"><ele>1714.0</ele><time>2026-05-03T13:43:14.97Z</time></trkpt><trkpt lat="46.488289" lon="12.5721507"><ele>1714.0</ele><time>2026-05-03T13:43:15.97Z</time></trkpt><trkpt lat="46.4882848" lon="12.5723249"><ele>1714.4</ele><time>2026-05-03T13:43:16.97Z</time></trkpt><trkpt lat="46.4882593" lon="12.5724719"><ele>1714.8000000000002</ele><time>2026-05-03T13:43:17.97Z</time></trkpt><trkpt lat="46.4882035" lon="12.5725949"><ele>1715.1999999999998</ele><time>2026-05-03T13:43:18.97Z</time></trkpt><trkpt lat="46.4881409" lon="12.5727107"><ele>1715.6</ele><time>2026-05-03T13:43:19.971Z</time></trkpt><trkpt lat="46.4880143" lon="12.5727887"><ele>1716.0</ele><time>2026-05-03T13:43:20.969Z</time></trkpt><trkpt lat="46.4879236" lon="12.5728894"><ele>1716.4</ele><time>2026-05-03T13:43:21.971Z</time></trkpt><trkpt lat="46.4878482" lon="12.5729736"><ele>1716.8</ele><time>2026-05-03T13:43:22.97Z</time></trkpt><trkpt lat="46.4878111" lon="12.5731129"><ele>1717.2000000000003</ele><time>2026-05-03T13:43:23.97Z</time></trkpt><trkpt lat="46.4878139" lon="12.5732581"><ele>1717.6000000000001</ele><time>2026-05-03T13:43:24.97Z</time></trkpt><trkpt lat="46.4878446" lon="12.5734089"><ele>1718.0</ele><time>2026-05-03T13:43:25.97Z</time></trkpt><trkpt lat="46.4878829" lon="12.5735574"><ele>1720.25</ele><time>2026-05-03T13:43:26.969Z</time></trkpt><trkpt lat="46.4879128" lon="12.5736995"><ele>1722.5</ele><time>2026-05-03T13:43:27.97Z</time></trkpt><trkpt lat="46.4879149" lon="12.5738689"><ele>1724.75</ele><time>2026-05-03T13:43:28.969Z</time></trkpt><trkpt lat="46.4878968" lon="12.5740459"><ele>1727.0</ele><time>2026-05-03T13:43:29.969Z</time></trkpt><trkpt lat="46.4878749" lon="12.5742386"><ele>1727.0</ele><time>2026-05-03T13:43:30.97Z</time></trkpt><trkpt lat="46.487856" lon="12.5744178"><ele>1727.0</ele><time>2026-05-03T13:43:31.97Z</time></trkpt><trkpt lat="46.487839" lon="12.5746036"><ele>1727.0</ele><time>2026-05-03T13:43:32.97Z</time></trkpt><trkpt lat="46.4878361" lon="12.5747852"><ele>1727.0</ele><time>2026-05-03T13:43:33.97Z</time></trkpt><trkpt lat="46.4878372" lon="12.5749657"><ele>1729.3999999999999</ele><time>2026-05-03T13:43:34.97Z</time></trkpt><trkpt lat="46.4878413" lon="12.5751447"><ele>1731.7999999999997</ele><time>2026-05-03T13:43:35.97Z</time></trkpt><trkpt lat="46.4878465" lon="12.5753104"><ele>1734.2</ele><time>2026-05-03T13:43:36.969Z</time></trkpt><trkpt lat="46.4878363" lon="12.5754593"><ele>1736.6</ele><time>2026-05-03T13:43:37.97Z</time></trkpt><trkpt lat="46.487815" lon="12.5755937"><ele>1739.0</ele><time>2026-05-03T13:43:38.97Z</time></trkpt><trkpt lat="46.4878072" lon="12.5757229"><ele>1740.2</ele><time>2026-05-03T13:43:39.97Z</time></trkpt><trkpt lat="46.4878269" lon="12.5758363"><ele>1741.4</ele><time>2026-05-03T13:43:40.969Z</time></trkpt><trkpt lat="46.4878799" lon="12.5759378"><ele>1742.6</ele><time>2026-05-03T13:43:41.969Z</time></trkpt><trkpt lat="46.4879478" lon="12.5760375"><ele>1743.8</ele><time>2026-05-03T13:43:42.97Z</time></trkpt><trkpt lat="46.4880175" lon="12.5761517"><ele>1745.0</ele><time>2026-05-03T13:43:43.97Z</time></trkpt><trkpt lat="46.4880901" lon="12.5762694"><ele>1745.1666666666665</ele><time>2026-05-03T13:43:44.97Z</time></trkpt><trkpt lat="46.4881632" lon="12.5763693"><ele>1745.3333333333333</ele><time>2026-05-03T13:43:45.97Z</time></trkpt><trkpt lat="46.4882375" lon="12.576445"><ele>1745.5</ele><time>2026-05-03T13:43:46.969Z</time></trkpt><trkpt lat="46.4883102" lon="12.5765066"><ele>1745.6666666666665</ele><time>2026-05-03T13:43:47.97Z</time></trkpt><trkpt lat="46.4883767" lon="12.5765572"><ele>1745.8333333333333</ele><time>2026-05-03T13:43:48.97Z</time></trkpt><trkpt lat="46.4884316" lon="12.5766065"><ele>1746.0</ele><time>2026-05-03T13:43:49.97Z</time></trkpt><trkpt lat="46.4884686" lon="12.5766851"><ele>1746.0</ele><time>2026-05-03T13:43:50.97Z</time></trkpt><trkpt lat="46.4884324" lon="12.5768415"><ele>1746.0</ele><time>2026-05-03T13:43:52.97Z</time></trkpt><trkpt lat="46.4883087" lon="12.5768128"><ele>1746.0</ele><time>2026-05-03T13:43:54.969Z</time></trkpt><trkpt lat="46.4882518" lon="12.5767197"><ele>1746.0</ele><time>2026-05-03T13:43:55.97Z</time></trkpt><trkpt lat="46.4881814" lon="12.5766105"><ele>1746.0</ele><time>2026-05-03T13:43:56.97Z</time></trkpt><trkpt lat="46.488094" lon="12.5764948"><ele>1746.0</ele><time>2026-05-03T13:43:57.97Z</time></trkpt><trkpt lat="46.4879939" lon="12.5763785"><ele>1746.0</ele><time>2026-05-03T13:43:58.971Z</time></trkpt><trkpt lat="46.4878986" lon="12.5762703"><ele>1746.0</ele><time>2026-05-03T13:43:59.969Z</time></trkpt><trkpt lat="46.4878108" lon="12.5761817"><ele>1746.0</ele><time>2026-05-03T13:44:00.97Z</time></trkpt><trkpt lat="46.4877285" lon="12.5761049"><ele>1745.8333333333333</ele><time>2026-05-03T13:44:01.969Z</time></trkpt><trkpt lat="46.4876659" lon="12.5760245"><ele>1745.6666666666665</ele><time>2026-05-03T13:44:02.969Z</time></trkpt><trkpt lat="46.4876285" lon="12.5759355"><ele>1745.5</ele><time>2026-05-03T13:44:03.97Z</time></trkpt><trkpt lat="46.4876152" lon="12.5758283"><ele>1745.3333333333333</ele><time>2026-05-03T13:44:04.97Z</time></trkpt><trkpt lat="46.4876239" lon="12.5757122"><ele>1745.1666666666665</ele><time>2026-05-03T13:44:05.97Z</time></trkpt><trkpt lat="46.4876312" lon="12.5756026"><ele>1745.0</ele><time>2026-05-03T13:44:06.969Z</time></trkpt><trkpt lat="46.4876209" lon="12.575494"><ele>1744.9999999999998</ele><time>2026-05-03T13:44:07.97Z</time></trkpt><trkpt lat="46.4876004" lon="12.5754035"><ele>1745.0</ele><time>2026-05-03T13:44:08.969Z</time></trkpt><trkpt lat="46.4875139" lon="12.575307"><ele>1745.0</ele><time>2026-05-03T13:44:10.97Z</time></trkpt><trkpt lat="46.4874143" lon="12.5753868"><ele>1745.0</ele><time>2026-05-03T13:44:12.969Z</time></trkpt><trkpt lat="46.4873896" lon="12.5754866"><ele>1744.9999999999998</ele><time>2026-05-03T13:44:13.97Z</time></trkpt><trkpt lat="46.4873879" lon="12.5756132"><ele>1745.0</ele><time>2026-05-03T13:44:14.97Z</time></trkpt><trkpt lat="46.4873917" lon="12.5757302"><ele>1744.9999999999998</ele><time>2026-05-03T13:44:15.971Z</time></trkpt><trkpt lat="46.487408" lon="12.5758503"><ele>1745.0</ele><time>2026-05-03T13:44:16.97Z</time></trkpt><trkpt lat="46.4874354" lon="12.5759673"><ele>1745.0</ele><time>2026-05-03T13:44:17.971Z</time></trkpt><trkpt lat="46.4874762" lon="12.5760689"><ele>1745.0</ele><time>2026-05-03T13:44:18.97Z</time></trkpt><trkpt lat="46.4875305" lon="12.5761553"><ele>1744.9999999999998</ele><time>2026-05-03T13:44:19.97Z</time></trkpt><trkpt lat="46.4876087" lon="12.5762043"><ele>1745.0</ele><time>2026-05-03T13:44:20.969Z</time></trkpt><trkpt lat="46.4876859" lon="12.5762619"><ele>1745.1666666666665</ele><time>2026-05-03T13:44:21.969Z</time></trkpt><trkpt lat="46.4877461" lon="12.5763463"><ele>1745.3333333333333</ele><time>2026-05-03T13:44:22.97Z</time></trkpt><trkpt lat="46.4877958" lon="12.5764405"><ele>1745.5</ele><time>2026-05-03T13:44:23.969Z</time></trkpt><trkpt lat="46.4878403" lon="12.5765403"><ele>1745.6666666666665</ele><time>2026-05-03T13:44:24.97Z</time></trkpt><trkpt lat="46.4878835" lon="12.5766449"><ele>1745.8333333333333</ele><time>2026-05-03T13:44:25.969Z</time></trkpt><trkpt lat="46.4879254" lon="12.5767491"><ele>1746.0</ele><time>2026-05-03T13:44:26.971Z</time></trkpt><trkpt lat="46.4879698" lon="12.5768573"><ele>1746.0</ele><time>2026-05-03T13:44:27.97Z</time></trkpt><trkpt lat="46.4880138" lon="12.5769707"><ele>1746.0</ele><time>2026-05-03T13:44:28.97Z</time></trkpt><trkpt lat="46.4880472" lon="12.5770936"><ele>1746.0</ele><time>2026-05-03T13:44:29.97Z</time></trkpt><trkpt lat="46.488078" lon="12.5772204"><ele>1746.0</ele><time>2026-05-03T13:44:30.969Z</time></trkpt><trkpt lat="46.4881056" lon="12.5773532"><ele>1746.0</ele><time>2026-05-03T13:44:31.969Z</time></trkpt><trkpt lat="46.488127" lon="12.5774882"><ele>1750.1999999999998</ele><time>2026-05-03T13:44:32.97Z</time></trkpt><trkpt lat="46.4881466" lon="12.5776292"><ele>1754.3999999999999</ele><time>2026-05-03T13:44:33.97Z</time></trkpt><trkpt lat="46.4881637" lon="12.5777702"><ele>1758.6</ele><time>2026-05-03T13:44:34.97Z</time></trkpt><trkpt lat="46.4881747" lon="12.5779028"><ele>1762.8</ele><time>2026-05-03T13:44:35.97Z</time></trkpt><trkpt lat="46.4881756" lon="12.5780274"><ele>1767.0</ele><time>2026-05-03T13:44:36.971Z</time></trkpt><trkpt lat="46.4881607" lon="12.5781458"><ele>1769.6666666666667</ele><time>2026-05-03T13:44:37.97Z</time></trkpt><trkpt lat="46.4881306" lon="12.5782532"><ele>1772.3333333333335</ele><time>2026-05-03T13:44:38.969Z</time></trkpt><trkpt lat="46.4880787" lon="12.578346"><ele>1775.0</ele><time>2026-05-03T13:44:39.969Z</time></trkpt><trkpt lat="46.4880216" lon="12.5784338"><ele>1777.6666666666667</ele><time>2026-05-03T13:44:40.969Z</time></trkpt><trkpt lat="46.4879791" lon="12.5785265"><ele>1780.3333333333335</ele><time>2026-05-03T13:44:41.97Z</time></trkpt><trkpt lat="46.4879661" lon="12.5786388"><ele>1783.0</ele><time>2026-05-03T13:44:42.969Z</time></trkpt><trkpt lat="46.4879848" lon="12.5787689"><ele>1786.0</ele><time>2026-05-03T13:44:43.97Z</time></trkpt><trkpt lat="46.4880135" lon="12.5789069"><ele>1789.0</ele><time>2026-05-03T13:44:44.97Z</time></trkpt><trkpt lat="46.488035" lon="12.579066"><ele>1792.0</ele><time>2026-05-03T13:44:45.971Z</time></trkpt><trkpt lat="46.4880462" lon="12.5792432"><ele>1795.0</ele><time>2026-05-03T13:44:46.97Z</time></trkpt><trkpt lat="46.4880437" lon="12.5794314"><ele>1797.75</ele><time>2026-05-03T13:44:47.97Z</time></trkpt><trkpt lat="46.4880253" lon="12.5796226"><ele>1800.5</ele><time>2026-05-03T13:44:48.97Z</time></trkpt><trkpt lat="46.4879852" lon="12.5798072"><ele>1803.25</ele><time>2026-05-03T13:44:49.97Z</time></trkpt><trkpt lat="46.4879292" lon="12.5799603"><ele>1806.0</ele><time>2026-05-03T13:44:50.969Z</time></trkpt><trkpt lat="46.4878888" lon="12.58012"><ele>1797.0</ele><time>2026-05-03T13:44:51.97Z</time></trkpt><trkpt lat="46.4878733" lon="12.5803029"><ele>1788.0</ele><time>2026-05-03T13:44:52.97Z</time></trkpt><trkpt lat="46.487862" lon="12.5804923"><ele>1779.0</ele><time>2026-05-03T13:44:53.97Z</time></trkpt><trkpt lat="46.4878618" lon="12.5806976"><ele>1770.0</ele><time>2026-05-03T13:44:54.97Z</time></trkpt><trkpt lat="46.4878696" lon="12.5809178"><ele>1770.0</ele><time>2026-05-03T13:44:55.97Z</time></trkpt><trkpt lat="46.4878549" lon="12.5811418"><ele>1770.0</ele><time>2026-05-03T13:44:56.97Z</time></trkpt><trkpt lat="46.4878088" lon="12.5813613"><ele>1770.0</ele><time>2026-05-03T13:44:57.97Z</time></trkpt><trkpt lat="46.4877415" lon="12.5815694"><ele>1775.0</ele><time>2026-05-03T13:44:58.969Z</time></trkpt><trkpt lat="46.4876672" lon="12.5817714"><ele>1780.0</ele><time>2026-05-03T13:44:59.969Z</time></trkpt><trkpt lat="46.4875962" lon="12.5819829"><ele>1785.0</ele><time>2026-05-03T13:45:00.97Z</time></trkpt><trkpt lat="46.4875334" lon="12.5821969"><ele>1787.75</ele><time>2026-05-03T13:45:01.97Z</time></trkpt><trkpt lat="46.4874764" lon="12.5824028"><ele>1790.5</ele><time>2026-05-03T13:45:02.969Z</time></trkpt><trkpt lat="46.4874193" lon="12.5825905"><ele>1793.25</ele><time>2026-05-03T13:45:03.97Z</time></trkpt><trkpt lat="46.4873562" lon="12.5827642"><ele>1796.0</ele><time>2026-05-03T13:45:04.969Z</time></trkpt><trkpt lat="46.4872814" lon="12.5829346"><ele>1796.3333333333333</ele><time>2026-05-03T13:45:05.971Z</time></trkpt><trkpt lat="46.4872055" lon="12.5831186"><ele>1796.6666666666665</ele><time>2026-05-03T13:45:06.969Z</time></trkpt><trkpt lat="46.4871375" lon="12.5833257"><ele>1797.0</ele><time>2026-05-03T13:45:07.97Z</time></trkpt><trkpt lat="46.4870799" lon="12.5835374"><ele>1795.6666666666665</ele><time>2026-05-03T13:45:08.97Z</time></trkpt><trkpt lat="46.4870228" lon="12.5837547"><ele>1794.3333333333333</ele><time>2026-05-03T13:45:09.97Z</time></trkpt><trkpt lat="46.4869598" lon="12.5839743"><ele>1793.0</ele><time>2026-05-03T13:45:10.97Z</time></trkpt><trkpt lat="46.4868936" lon="12.5841961"><ele>1793.0</ele><time>2026-05-03T13:45:11.97Z</time></trkpt><trkpt lat="46.4868256" lon="12.5844137"><ele>1793.0</ele><time>2026-05-03T13:45:12.97Z</time></trkpt><trkpt lat="46.486755" lon="12.5846174"><ele>1793.0</ele><time>2026-05-03T13:45:13.97Z</time></trkpt><trkpt lat="46.4866822" lon="12.5848205"><ele>1791.0</ele><time>2026-05-03T13:45:14.969Z</time></trkpt><trkpt lat="46.4866107" lon="12.5850157"><ele>1789.0</ele><time>2026-05-03T13:45:15.969Z</time></trkpt><trkpt lat="46.4865405" lon="12.5851981"><ele>1787.0</ele><time>2026-05-03T13:45:16.969Z</time></trkpt><trkpt lat="46.4864734" lon="12.5853751"><ele>1785.0</ele><time>2026-05-03T13:45:17.97Z</time></trkpt><trkpt lat="46.4864084" lon="12.5855438"><ele>1783.75</ele><time>2026-05-03T13:45:18.97Z</time></trkpt><trkpt lat="46.4863393" lon="12.585706"><ele>1782.5</ele><time>2026-05-03T13:45:19.97Z</time></trkpt><trkpt lat="46.486257" lon="12.5858577"><ele>1781.25</ele><time>2026-05-03T13:45:20.969Z</time></trkpt><trkpt lat="46.4861585" lon="12.5859982"><ele>1780.0</ele><time>2026-05-03T13:45:21.97Z</time></trkpt><trkpt lat="46.4860534" lon="12.5861241"><ele>1780.0</ele><time>2026-05-03T13:45:22.97Z</time></trkpt><trkpt lat="46.4859508" lon="12.5862381"><ele>1780.0</ele><time>2026-05-03T13:45:23.97Z</time></trkpt><trkpt lat="46.4858498" lon="12.5863508"><ele>1780.0</ele><time>2026-05-03T13:45:24.97Z</time></trkpt><trkpt lat="46.4857519" lon="12.5864743"><ele>1780.0</ele><time>2026-05-03T13:45:25.971Z</time></trkpt><trkpt lat="46.4856618" lon="12.5866045"><ele>1780.0</ele><time>2026-05-03T13:45:26.971Z</time></trkpt><trkpt lat="46.4855876" lon="12.5867397"><ele>1780.0</ele><time>2026-05-03T13:45:27.97Z</time></trkpt><trkpt lat="46.4855259" lon="12.5868769"><ele>1780.0</ele><time>2026-05-03T13:45:28.97Z</time></trkpt><trkpt lat="46.4854706" lon="12.58701"><ele>1780.0</ele><time>2026-05-03T13:45:29.969Z</time></trkpt><trkpt lat="46.4854267" lon="12.5871319"><ele>1780.0</ele><time>2026-05-03T13:45:30.969Z</time></trkpt><trkpt lat="46.4853853" lon="12.5872369"><ele>1780.6</ele><time>2026-05-03T13:45:31.969Z</time></trkpt><trkpt lat="46.4853374" lon="12.5873868"><ele>1781.2</ele><time>2026-05-03T13:45:33.969Z</time></trkpt><trkpt lat="46.485309" lon="12.5874727"><ele>1781.8000000000002</ele><time>2026-05-03T13:45:35.97Z</time></trkpt><trkpt lat="46.4852241" lon="12.5875103"><ele>1782.4</ele><time>2026-05-03T13:46:18.969Z</time></trkpt><trkpt lat="46.4851288" lon="12.5875642"><ele>1783.0</ele><time>2026-05-03T13:46:20.969Z</time></trkpt><trkpt lat="46.4850453" lon="12.5876298"><ele>1783.0</ele><time>2026-05-03T13:46:22.969Z</time></trkpt><trkpt lat="46.4849651" lon="12.587677"><ele>1783.0000000000002</ele><time>2026-05-03T13:46:24.97Z</time></trkpt><trkpt lat="46.4848883" lon="12.5877205"><ele>1783.0000000000002</ele><time>2026-05-03T13:46:26.97Z</time></trkpt><trkpt lat="46.4847915" lon="12.587774"><ele>1783.0</ele><time>2026-05-03T13:46:28.97Z</time></trkpt><trkpt lat="46.4846733" lon="12.5878331"><ele>1783.0</ele><time>2026-05-03T13:46:30.97Z</time></trkpt><trkpt lat="46.4846102" lon="12.5878687"><ele>1781.5000000000002</ele><time>2026-05-03T13:46:31.969Z</time></trkpt><trkpt lat="46.4845457" lon="12.5879069"><ele>1780.0</ele><time>2026-05-03T13:46:32.97Z</time></trkpt><trkpt lat="46.4844767" lon="12.5879425"><ele>1778.5</ele><time>2026-05-03T13:46:33.97Z</time></trkpt><trkpt lat="46.4844065" lon="12.5879722"><ele>1777.0</ele><time>2026-05-03T13:46:34.969Z</time></trkpt><trkpt lat="46.4843326" lon="12.5879983"><ele>1775.5000000000002</ele><time>2026-05-03T13:46:35.97Z</time></trkpt><trkpt lat="46.4842524" lon="12.5880007"><ele>1774.0</ele><time>2026-05-03T13:46:36.969Z</time></trkpt><trkpt lat="46.4841721" lon="12.587975"><ele>1774.0000000000002</ele><time>2026-05-03T13:46:37.969Z</time></trkpt><trkpt lat="46.4840959" lon="12.5879275"><ele>1774.0</ele><time>2026-05-03T13:46:38.971Z</time></trkpt><trkpt lat="46.4840282" lon="12.587874"><ele>1774.0</ele><time>2026-05-03T13:46:39.969Z</time></trkpt><trkpt lat="46.4839585" lon="12.5878335"><ele>1774.0</ele><time>2026-05-03T13:46:40.971Z</time></trkpt><trkpt lat="46.4838845" lon="12.5878202"><ele>1774.0000000000002</ele><time>2026-05-03T13:46:41.969Z</time></trkpt><trkpt lat="46.4838092" lon="12.5878381"><ele>1774.0</ele><time>2026-05-03T13:46:42.969Z</time></trkpt><trkpt lat="46.4837437" lon="12.5879003"><ele>1777.6</ele><time>2026-05-03T13:46:43.97Z</time></trkpt><trkpt lat="46.4836971" lon="12.5880039"><ele>1781.2</ele><time>2026-05-03T13:46:44.97Z</time></trkpt><trkpt lat="46.4836727" lon="12.588137"><ele>1784.7999999999997</ele><time>2026-05-03T13:46:45.97Z</time></trkpt><trkpt lat="46.4836505" lon="12.5882811"><ele>1788.3999999999999</ele><time>2026-05-03T13:46:46.971Z</time></trkpt><trkpt lat="46.4836327" lon="12.5884252"><ele>1792.0</ele><time>2026-05-03T13:46:47.97Z</time></trkpt><trkpt lat="46.4836132" lon="12.5885715"><ele>1790.1999999999998</ele><time>2026-05-03T13:46:48.97Z</time></trkpt><trkpt lat="46.4835876" lon="12.5887112"><ele>1788.3999999999999</ele><time>2026-05-03T13:46:49.97Z</time></trkpt><trkpt lat="46.4835582" lon="12.5888464"><ele>1786.6000000000001</ele><time>2026-05-03T13:46:50.97Z</time></trkpt><trkpt lat="46.4835255" lon="12.5889784"><ele>1784.8000000000002</ele><time>2026-05-03T13:46:51.969Z</time></trkpt><trkpt lat="46.4834894" lon="12.5891134"><ele>1783.0</ele><time>2026-05-03T13:46:52.969Z</time></trkpt><trkpt lat="46.4834476" lon="12.5892439"><ele>1783.0</ele><time>2026-05-03T13:46:53.969Z</time></trkpt><trkpt lat="46.4833951" lon="12.5893703"><ele>1783.0000000000002</ele><time>2026-05-03T13:46:54.969Z</time></trkpt><trkpt lat="46.4833326" lon="12.5894814"><ele>1783.0000000000002</ele><time>2026-05-03T13:46:55.97Z</time></trkpt><trkpt lat="46.4832583" lon="12.5895782"><ele>1783.0</ele><time>2026-05-03T13:46:56.97Z</time></trkpt><trkpt lat="46.483179" lon="12.5896713"><ele>1783.0</ele><time>2026-05-03T13:46:57.971Z</time></trkpt><trkpt lat="46.4830998" lon="12.5897643"><ele>1781.8000000000002</ele><time>2026-05-03T13:46:58.969Z</time></trkpt><trkpt lat="46.4830185" lon="12.5898567"><ele>1780.6000000000001</ele><time>2026-05-03T13:46:59.97Z</time></trkpt><trkpt lat="46.4829363" lon="12.5899461"><ele>1779.3999999999999</ele><time>2026-05-03T13:47:00.97Z</time></trkpt><trkpt lat="46.4828578" lon="12.5900368"><ele>1778.1999999999998</ele><time>2026-05-03T13:47:01.97Z</time></trkpt><trkpt lat="46.4827789" lon="12.5901207"><ele>1777.0</ele><time>2026-05-03T13:47:02.97Z</time></trkpt><trkpt lat="46.4826956" lon="12.5901782"><ele>1777.0</ele><time>2026-05-03T13:47:03.97Z</time></trkpt><trkpt lat="46.4826068" lon="12.5901985"><ele>1776.9999999999998</ele><time>2026-05-03T13:47:04.969Z</time></trkpt><trkpt lat="46.482514" lon="12.5901797"><ele>1776.9999999999998</ele><time>2026-05-03T13:47:05.97Z</time></trkpt><trkpt lat="46.4824185" lon="12.5901503"><ele>1777.0</ele><time>2026-05-03T13:47:06.97Z</time></trkpt><trkpt lat="46.4823176" lon="12.5901222"><ele>1777.0</ele><time>2026-05-03T13:47:07.969Z</time></trkpt><trkpt lat="46.4822141" lon="12.5900859"><ele>1777.0</ele><time>2026-05-03T13:47:08.969Z</time></trkpt><trkpt lat="46.4821066" lon="12.5900523"><ele>1776.9999999999998</ele><time>2026-05-03T13:47:09.97Z</time></trkpt><trkpt lat="46.4819969" lon="12.5900182"><ele>1776.9999999999998</ele><time>2026-05-03T13:47:10.97Z</time></trkpt><trkpt lat="46.4818868" lon="12.5899824"><ele>1777.0</ele><time>2026-05-03T13:47:11.97Z</time></trkpt><trkpt lat="46.4817772" lon="12.5899462"><ele>1777.0</ele><time>2026-05-03T13:47:12.97Z</time></trkpt><trkpt lat="46.4816669" lon="12.5899158"><ele>1776.25</ele><time>2026-05-03T13:47:13.97Z</time></trkpt><trkpt lat="46.4815548" lon="12.5898993"><ele>1775.5</ele><time>2026-05-03T13:47:14.969Z</time></trkpt><trkpt lat="46.4814373" lon="12.5899065"><ele>1774.75</ele><time>2026-05-03T13:47:15.97Z</time></trkpt><trkpt lat="46.4813145" lon="12.5899313"><ele>1774.0</ele><time>2026-05-03T13:47:16.971Z</time></trkpt><trkpt lat="46.4811881" lon="12.5899629"><ele>1774.0</ele><time>2026-05-03T13:47:17.969Z</time></trkpt><trkpt lat="46.4810622" lon="12.5899972"><ele>1774.0</ele><time>2026-05-03T13:47:18.97Z</time></trkpt><trkpt lat="46.4809392" lon="12.5900346"><ele>1774.0</ele><time>2026-05-03T13:47:19.969Z</time></trkpt><trkpt lat="46.4808186" lon="12.5900727"><ele>1774.0</ele><time>2026-05-03T13:47:20.969Z</time></trkpt><trkpt lat="46.4807" lon="12.5901291"><ele>1774.0</ele><time>2026-05-03T13:47:21.97Z</time></trkpt><trkpt lat="46.4805803" lon="12.5902157"><ele>1774.0</ele><time>2026-05-03T13:47:22.971Z</time></trkpt><trkpt lat="46.4804623" lon="12.5903226"><ele>1774.0</ele><time>2026-05-03T13:47:23.969Z</time></trkpt><trkpt lat="46.4803488" lon="12.5904424"><ele>1774.0</ele><time>2026-05-03T13:47:24.97Z</time></trkpt><trkpt lat="46.4802431" lon="12.5905824"><ele>1775.0</ele><time>2026-05-03T13:47:25.969Z</time></trkpt><trkpt lat="46.480151" lon="12.5907476"><ele>1776.0</ele><time>2026-05-03T13:47:26.97Z</time></trkpt><trkpt lat="46.4800769" lon="12.5909439"><ele>1777.0</ele><time>2026-05-03T13:47:27.97Z</time></trkpt><trkpt lat="46.48001" lon="12.5911525"><ele>1776.0</ele><time>2026-05-03T13:47:28.97Z</time></trkpt><trkpt lat="46.4799466" lon="12.5913663"><ele>1775.0</ele><time>2026-05-03T13:47:29.969Z</time></trkpt><trkpt lat="46.4798824" lon="12.5915814"><ele>1774.0</ele><time>2026-05-03T13:47:30.971Z</time></trkpt><trkpt lat="46.4798187" lon="12.5917835"><ele>1774.0</ele><time>2026-05-03T13:47:31.969Z</time></trkpt><trkpt lat="46.4797587" lon="12.5919741"><ele>1774.0</ele><time>2026-05-03T13:47:32.97Z</time></trkpt><trkpt lat="46.4797013" lon="12.59216"><ele>1774.0</ele><time>2026-05-03T13:47:33.97Z</time></trkpt><trkpt lat="46.4796487" lon="12.5923358"><ele>1774.0</ele><time>2026-05-03T13:47:34.97Z</time></trkpt><trkpt lat="46.4795994" lon="12.5925103"><ele>1776.5</ele><time>2026-05-03T13:47:35.971Z</time></trkpt><trkpt lat="46.4795518" lon="12.5926879"><ele>1779.0</ele><time>2026-05-03T13:47:36.969Z</time></trkpt><trkpt lat="46.4795033" lon="12.5928751"><ele>1781.5</ele><time>2026-05-03T13:47:37.97Z</time></trkpt><trkpt lat="46.479458" lon="12.5930723"><ele>1784.0</ele><time>2026-05-03T13:47:38.969Z</time></trkpt><trkpt lat="46.4794201" lon="12.5932773"><ele>1777.3333333333333</ele><time>2026-05-03T13:47:39.97Z</time></trkpt><trkpt lat="46.479387" lon="12.5934906"><ele>1770.6666666666665</ele><time>2026-05-03T13:47:40.969Z</time></trkpt><trkpt lat="46.4793556" lon="12.5937133"><ele>1764.0</ele><time>2026-05-03T13:47:41.971Z</time></trkpt><trkpt lat="46.4793202" lon="12.5939395"><ele>1761.0</ele><time>2026-05-03T13:47:42.969Z</time></trkpt><trkpt lat="46.4792842" lon="12.5941643"><ele>1758.0</ele><time>2026-05-03T13:47:43.969Z</time></trkpt><trkpt lat="46.4792473" lon="12.5943871"><ele>1755.0</ele><time>2026-05-03T13:47:44.97Z</time></trkpt><trkpt lat="46.4792092" lon="12.5946113"><ele>1753.0</ele><time>2026-05-03T13:47:45.97Z</time></trkpt><trkpt lat="46.4791702" lon="12.5948374"><ele>1751.0</ele><time>2026-05-03T13:47:46.97Z</time></trkpt><trkpt lat="46.479132" lon="12.5950597"><ele>1749.0</ele><time>2026-05-03T13:47:47.97Z</time></trkpt><trkpt lat="46.4790916" lon="12.5952768"><ele>1749.3333333333335</ele><time>2026-05-03T13:47:48.97Z</time></trkpt><trkpt lat="46.4790465" lon="12.5954881"><ele>1749.6666666666667</ele><time>2026-05-03T13:47:49.97Z</time></trkpt><trkpt lat="46.4789874" lon="12.5956902"><ele>1750.0</ele><time>2026-05-03T13:47:50.97Z</time></trkpt><trkpt lat="46.4789135" lon="12.595875"><ele>1750.0</ele><time>2026-05-03T13:47:51.969Z</time></trkpt><trkpt lat="46.4788233" lon="12.5960506"><ele>1750.0</ele><time>2026-05-03T13:47:52.969Z</time></trkpt><trkpt lat="46.4787255" lon="12.5962251"><ele>1750.0</ele><time>2026-05-03T13:47:53.97Z</time></trkpt><trkpt lat="46.4786228" lon="12.5963978"><ele>1747.0</ele><time>2026-05-03T13:47:54.97Z</time></trkpt><trkpt lat="46.4785203" lon="12.5965721"><ele>1744.0</ele><time>2026-05-03T13:47:55.969Z</time></trkpt><trkpt lat="46.4784181" lon="12.5967504"><ele>1741.0</ele><time>2026-05-03T13:47:56.97Z</time></trkpt><trkpt lat="46.4783148" lon="12.5969276"><ele>1740.0</ele><time>2026-05-03T13:47:57.97Z</time></trkpt><trkpt lat="46.4782102" lon="12.5971021"><ele>1739.0</ele><time>2026-05-03T13:47:58.97Z</time></trkpt><trkpt lat="46.478104" lon="12.5972779"><ele>1738.0</ele><time>2026-05-03T13:47:59.969Z</time></trkpt><trkpt lat="46.4779978" lon="12.5974499"><ele>1741.3333333333335</ele><time>2026-05-03T13:48:00.969Z</time></trkpt><trkpt lat="46.4778955" lon="12.5976182"><ele>1744.6666666666665</ele><time>2026-05-03T13:48:01.97Z</time></trkpt><trkpt lat="46.4777974" lon="12.5977843"><ele>1748.0</ele><time>2026-05-03T13:48:02.97Z</time></trkpt><trkpt lat="46.4776996" lon="12.5979469"><ele>1748.0</ele><time>2026-05-03T13:48:03.97Z</time></trkpt><trkpt lat="46.4775983" lon="12.5981163"><ele>1748.0</ele><time>2026-05-03T13:48:04.97Z</time></trkpt><trkpt lat="46.4774993" lon="12.5982915"><ele>1748.0</ele><time>2026-05-03T13:48:05.97Z</time></trkpt><trkpt lat="46.4774125" lon="12.5984759"><ele>1748.0</ele><time>2026-05-03T13:48:06.969Z</time></trkpt><trkpt lat="46.4773405" lon="12.5986655"><ele>1748.0</ele><time>2026-05-03T13:48:07.969Z</time></trkpt><trkpt lat="46.4772885" lon="12.5988583"><ele>1748.0</ele><time>2026-05-03T13:48:08.97Z</time></trkpt><trkpt lat="46.4772664" lon="12.5990486"><ele>1748.0</ele><time>2026-05-03T13:48:09.97Z</time></trkpt><trkpt lat="46.4772682" lon="12.5992351"><ele>1746.75</ele><time>2026-05-03T13:48:10.97Z</time></trkpt><trkpt lat="46.4772893" lon="12.5994256"><ele>1745.5</ele><time>2026-05-03T13:48:11.97Z</time></trkpt><trkpt lat="46.4773291" lon="12.5996099"><ele>1744.25</ele><time>2026-05-03T13:48:12.969Z</time></trkpt><trkpt lat="46.4773758" lon="12.5997858"><ele>1743.0</ele><time>2026-05-03T13:48:13.97Z</time></trkpt><trkpt lat="46.4774346" lon="12.5999457"><ele>1743.0</ele><time>2026-05-03T13:48:14.97Z</time></trkpt><trkpt lat="46.4775239" lon="12.6000799"><ele>1743.0</ele><time>2026-05-03T13:48:15.97Z</time></trkpt><trkpt lat="46.4776314" lon="12.6001949"><ele>1743.0</ele><time>2026-05-03T13:48:16.97Z</time></trkpt><trkpt lat="46.4777358" lon="12.6003124"><ele>1743.0</ele><time>2026-05-03T13:48:17.969Z</time></trkpt><trkpt lat="46.4778266" lon="12.6004425"><ele>1748.0</ele><time>2026-05-03T13:48:18.97Z</time></trkpt><trkpt lat="46.4779126" lon="12.6005804"><ele>1753.0</ele><time>2026-05-03T13:48:19.969Z</time></trkpt><trkpt lat="46.4779888" lon="12.6007227"><ele>1758.0</ele><time>2026-05-03T13:48:20.971Z</time></trkpt><trkpt lat="46.4780567" lon="12.6008611"><ele>1763.0</ele><time>2026-05-03T13:48:21.971Z</time></trkpt><trkpt lat="46.4781152" lon="12.6010135"><ele>1753.25</ele><time>2026-05-03T13:48:22.969Z</time></trkpt><trkpt lat="46.478162" lon="12.6011794"><ele>1743.5</ele><time>2026-05-03T13:48:23.97Z</time></trkpt><trkpt lat="46.4781951" lon="12.6013564"><ele>1733.75</ele><time>2026-05-03T13:48:24.97Z</time></trkpt><trkpt lat="46.4782135" lon="12.6015431"><ele>1724.0</ele><time>2026-05-03T13:48:25.969Z</time></trkpt><trkpt lat="46.4782155" lon="12.6017345"><ele>1724.0</ele><time>2026-05-03T13:48:26.97Z</time></trkpt><trkpt lat="46.4782047" lon="12.6019279"><ele>1724.0</ele><time>2026-05-03T13:48:27.97Z</time></trkpt><trkpt lat="46.4781809" lon="12.6021238"><ele>1724.0</ele><time>2026-05-03T13:48:28.97Z</time></trkpt><trkpt lat="46.4781516" lon="12.6023162"><ele>1724.0</ele><time>2026-05-03T13:48:29.969Z</time></trkpt><trkpt lat="46.4781161" lon="12.6024962"><ele>1722.75</ele><time>2026-05-03T13:48:30.97Z</time></trkpt><trkpt lat="46.4780733" lon="12.6026732"><ele>1721.5</ele><time>2026-05-03T13:48:31.969Z</time></trkpt><trkpt lat="46.4780217" lon="12.6028456"><ele>1720.25</ele><time>2026-05-03T13:48:32.969Z</time></trkpt><trkpt lat="46.4779633" lon="12.6030107"><ele>1719.0</ele><time>2026-05-03T13:48:33.97Z</time></trkpt><trkpt lat="46.477904" lon="12.6031641"><ele>1724.4</ele><time>2026-05-03T13:48:34.969Z</time></trkpt><trkpt lat="46.4778432" lon="12.6033067"><ele>1729.8000000000002</ele><time>2026-05-03T13:48:35.97Z</time></trkpt><trkpt lat="46.4777727" lon="12.6034304"><ele>1735.1999999999998</ele><time>2026-05-03T13:48:36.969Z</time></trkpt><trkpt lat="46.4776891" lon="12.6035415"><ele>1740.6</ele><time>2026-05-03T13:48:37.97Z</time></trkpt><trkpt lat="46.4776107" lon="12.6036504"><ele>1746.0</ele><time>2026-05-03T13:48:38.971Z</time></trkpt><trkpt lat="46.4775503" lon="12.6037719"><ele>1746.0</ele><time>2026-05-03T13:48:39.97Z</time></trkpt><trkpt lat="46.4775205" lon="12.6039208"><ele>1746.0</ele><time>2026-05-03T13:48:40.97Z</time></trkpt><trkpt lat="46.477527" lon="12.6040815"><ele>1746.0</ele><time>2026-05-03T13:48:41.97Z</time></trkpt><trkpt lat="46.4775595" lon="12.6042501"><ele>1746.0</ele><time>2026-05-03T13:48:42.97Z</time></trkpt><trkpt lat="46.4776044" lon="12.6044374"><ele>1745.75</ele><time>2026-05-03T13:48:43.969Z</time></trkpt><trkpt lat="46.4776458" lon="12.6046323"><ele>1745.5</ele><time>2026-05-03T13:48:44.97Z</time></trkpt><trkpt lat="46.4776839" lon="12.6048387"><ele>1745.25</ele><time>2026-05-03T13:48:45.97Z</time></trkpt><trkpt lat="46.4777252" lon="12.6050548"><ele>1745.0</ele><time>2026-05-03T13:48:46.97Z</time></trkpt><trkpt lat="46.4777669" lon="12.6052682"><ele>1743.75</ele><time>2026-05-03T13:48:47.97Z</time></trkpt><trkpt lat="46.4778065" lon="12.6054753"><ele>1742.5</ele><time>2026-05-03T13:48:48.97Z</time></trkpt><trkpt lat="46.4778471" lon="12.6056822"><ele>1741.25</ele><time>2026-05-03T13:48:49.97Z</time></trkpt><trkpt lat="46.4778865" lon="12.6058826"><ele>1740.0</ele><time>2026-05-03T13:48:50.969Z</time></trkpt><trkpt lat="46.4779254" lon="12.6060835"><ele>1736.5</ele><time>2026-05-03T13:48:51.971Z</time></trkpt><trkpt lat="46.4779647" lon="12.606279"><ele>1733.0</ele><time>2026-05-03T13:48:52.969Z</time></trkpt><trkpt lat="46.4780019" lon="12.6064724"><ele>1729.5</ele><time>2026-05-03T13:48:53.97Z</time></trkpt><trkpt lat="46.4780397" lon="12.6066606"><ele>1726.0</ele><time>2026-05-03T13:48:54.969Z</time></trkpt><trkpt lat="46.4780772" lon="12.6068425"><ele>1727.0</ele><time>2026-05-03T13:48:55.97Z</time></trkpt><trkpt lat="46.4781107" lon="12.6070178"><ele>1728.0</ele><time>2026-05-03T13:48:56.969Z</time></trkpt><trkpt lat="46.4781445" lon="12.6071837"><ele>1729.0</ele><time>2026-05-03T13:48:57.97Z</time></trkpt><trkpt lat="46.4781778" lon="12.6073423"><ele>1730.0</ele><time>2026-05-03T13:48:58.97Z</time></trkpt><trkpt lat="46.4782139" lon="12.6074942"><ele>1730.0</ele><time>2026-05-03T13:48:59.97Z</time></trkpt><trkpt lat="46.4782561" lon="12.6076261"><ele>1730.0</ele><time>2026-05-03T13:49:00.967Z</time></trkpt><trkpt lat="46.478308" lon="12.6077522"><ele>1730.0</ele><time>2026-05-03T13:49:01.97Z</time></trkpt><trkpt lat="46.4783623" lon="12.6078798"><ele>1730.0</ele><time>2026-05-03T13:49:02.97Z</time></trkpt><trkpt lat="46.4784154" lon="12.6080095"><ele>1730.0</ele><time>2026-05-03T13:49:03.969Z</time></trkpt><trkpt lat="46.4784631" lon="12.608137"><ele>1730.4</ele><time>2026-05-03T13:49:04.971Z</time></trkpt><trkpt lat="46.4784969" lon="12.608276"><ele>1730.8</ele><time>2026-05-03T13:49:05.969Z</time></trkpt><trkpt lat="46.4785144" lon="12.6084213"><ele>1731.1999999999998</ele><time>2026-05-03T13:49:06.97Z</time></trkpt><trkpt lat="46.4785177" lon="12.6085609"><ele>1731.6</ele><time>2026-05-03T13:49:07.969Z</time></trkpt><trkpt lat="46.4785125" lon="12.6086995"><ele>1732.0</ele><time>2026-05-03T13:49:08.97Z</time></trkpt><trkpt lat="46.4785101" lon="12.6088386"><ele>1732.6</ele><time>2026-05-03T13:49:09.969Z</time></trkpt><trkpt lat="46.4785196" lon="12.6089833"><ele>1733.1999999999998</ele><time>2026-05-03T13:49:10.97Z</time></trkpt><trkpt lat="46.4785477" lon="12.6091221"><ele>1733.8</ele><time>2026-05-03T13:49:11.969Z</time></trkpt><trkpt lat="46.478598" lon="12.6092492"><ele>1734.4</ele><time>2026-05-03T13:49:12.97Z</time></trkpt><trkpt lat="46.4786698" lon="12.6093592"><ele>1735.0</ele><time>2026-05-03T13:49:13.97Z</time></trkpt><trkpt lat="46.4787479" lon="12.6094596"><ele>1732.8</ele><time>2026-05-03T13:49:14.969Z</time></trkpt><trkpt lat="46.478829" lon="12.6095569"><ele>1730.6</ele><time>2026-05-03T13:49:15.971Z</time></trkpt><trkpt lat="46.4789094" lon="12.6096539"><ele>1728.4</ele><time>2026-05-03T13:49:16.97Z</time></trkpt><trkpt lat="46.4789891" lon="12.6097521"><ele>1726.2</ele><time>2026-05-03T13:49:17.97Z</time></trkpt><trkpt lat="46.479072" lon="12.6098518"><ele>1724.0</ele><time>2026-05-03T13:49:18.97Z</time></trkpt><trkpt lat="46.4791547" lon="12.609956"><ele>1724.0</ele><time>2026-05-03T13:49:19.971Z</time></trkpt><trkpt lat="46.4792285" lon="12.6100653"><ele>1724.0</ele><time>2026-05-03T13:49:20.97Z</time></trkpt><trkpt lat="46.4792933" lon="12.6101838"><ele>1724.0</ele><time>2026-05-03T13:49:21.97Z</time></trkpt><trkpt lat="46.4793409" lon="12.6103219"><ele>1724.0</ele><time>2026-05-03T13:49:22.969Z</time></trkpt><trkpt lat="46.4793743" lon="12.6104787"><ele>1724.0</ele><time>2026-05-03T13:49:23.97Z</time></trkpt><trkpt lat="46.4793943" lon="12.6106444"><ele>1725.0</ele><time>2026-05-03T13:49:24.969Z</time></trkpt><trkpt lat="46.4794066" lon="12.6108222"><ele>1726.0</ele><time>2026-05-03T13:49:25.97Z</time></trkpt><trkpt lat="46.4794148" lon="12.6109979"><ele>1727.0</ele><time>2026-05-03T13:49:26.97Z</time></trkpt><trkpt lat="46.4794245" lon="12.6111655"><ele>1728.0</ele><time>2026-05-03T13:49:27.969Z</time></trkpt><trkpt lat="46.4794346" lon="12.6113277"><ele>1728.3333333333333</ele><time>2026-05-03T13:49:28.97Z</time></trkpt><trkpt lat="46.4794464" lon="12.611481"><ele>1728.6666666666665</ele><time>2026-05-03T13:49:29.969Z</time></trkpt><trkpt lat="46.4794567" lon="12.6116184"><ele>1729.0</ele><time>2026-05-03T13:49:30.97Z</time></trkpt><trkpt lat="46.4794665" lon="12.6117388"><ele>1729.3333333333333</ele><time>2026-05-03T13:49:31.97Z</time></trkpt><trkpt lat="46.4794802" lon="12.6118363"><ele>1729.6666666666665</ele><time>2026-05-03T13:49:32.971Z</time></trkpt><trkpt lat="46.4795025" lon="12.6119246"><ele>1730.0</ele><time>2026-05-03T13:49:33.97Z</time></trkpt><trkpt lat="46.4795699" lon="12.6120585"><ele>1729.2</ele><time>2026-05-03T13:49:35.97Z</time></trkpt><trkpt lat="46.4796249" lon="12.6121188"><ele>1728.4</ele><time>2026-05-03T13:49:36.97Z</time></trkpt><trkpt lat="46.4797019" lon="12.6121516"><ele>1727.6</ele><time>2026-05-03T13:49:37.97Z</time></trkpt><trkpt lat="46.4798038" lon="12.6121624"><ele>1726.8</ele><time>2026-05-03T13:49:38.97Z</time></trkpt><trkpt lat="46.4799249" lon="12.6121683"><ele>1726.0</ele><time>2026-05-03T13:49:39.971Z</time></trkpt><trkpt lat="46.4800489" lon="12.6121749"><ele>1726.0</ele><time>2026-05-03T13:49:40.97Z</time></trkpt><trkpt lat="46.4801913" lon="12.6121858"><ele>1726.0</ele><time>2026-05-03T13:49:41.97Z</time></trkpt><trkpt lat="46.480346" lon="12.6121956"><ele>1726.0</ele><time>2026-05-03T13:49:42.971Z</time></trkpt><trkpt lat="46.4805058" lon="12.6122035"><ele>1724.6666666666667</ele><time>2026-05-03T13:49:43.97Z</time></trkpt><trkpt lat="46.4806726" lon="12.612216"><ele>1723.3333333333335</ele><time>2026-05-03T13:49:44.97Z</time></trkpt><trkpt lat="46.4808465" lon="12.6122229"><ele>1722.0</ele><time>2026-05-03T13:49:45.97Z</time></trkpt><trkpt lat="46.481022" lon="12.6122288"><ele>1722.0</ele><time>2026-05-03T13:49:46.969Z</time></trkpt><trkpt lat="46.4811958" lon="12.6122363"><ele>1722.0</ele><time>2026-05-03T13:49:47.969Z</time></trkpt><trkpt lat="46.4813646" lon="12.6122452"><ele>1722.0</ele><time>2026-05-03T13:49:48.97Z</time></trkpt><trkpt lat="46.4815292" lon="12.6122546"><ele>1722.0</ele><time>2026-05-03T13:49:49.97Z</time></trkpt><trkpt lat="46.4816944" lon="12.6122651"><ele>1722.0</ele><time>2026-05-03T13:49:50.97Z</time></trkpt><trkpt lat="46.4818555" lon="12.6122799"><ele>1722.0</ele><time>2026-05-03T13:49:51.97Z</time></trkpt><trkpt lat="46.4820124" lon="12.6123139"><ele>1722.0</ele><time>2026-05-03T13:49:52.97Z</time></trkpt><trkpt lat="46.4821744" lon="12.6123611"><ele>1722.0</ele><time>2026-05-03T13:49:53.971Z</time></trkpt><trkpt lat="46.4823396" lon="12.6124234"><ele>1722.0</ele><time>2026-05-03T13:49:54.97Z</time></trkpt><trkpt lat="46.4824943" lon="12.6124858"><ele>1722.0</ele><time>2026-05-03T13:49:55.969Z</time></trkpt><trkpt lat="46.4826472" lon="12.6125461"><ele>1722.0</ele><time>2026-05-03T13:49:56.97Z</time></trkpt><trkpt lat="46.4827865" lon="12.6126152"><ele>1722.0</ele><time>2026-05-03T13:49:57.97Z</time></trkpt><trkpt lat="46.4829125" lon="12.612707"><ele>1722.0</ele><time>2026-05-03T13:49:58.969Z</time></trkpt><trkpt lat="46.4830296" lon="12.6128293"><ele>1725.5</ele><time>2026-05-03T13:49:59.97Z</time></trkpt><trkpt lat="46.4831386" lon="12.6129525"><ele>1729.0</ele><time>2026-05-03T13:50:00.97Z</time></trkpt><trkpt lat="46.4832607" lon="12.6130421"><ele>1732.5</ele><time>2026-05-03T13:50:01.97Z</time></trkpt><trkpt lat="46.4834028" lon="12.6131076"><ele>1736.0</ele><time>2026-05-03T13:50:02.97Z</time></trkpt><trkpt lat="46.4835572" lon="12.6131544"><ele>1736.0</ele><time>2026-05-03T13:50:03.97Z</time></trkpt><trkpt lat="46.4837276" lon="12.6131898"><ele>1736.0</ele><time>2026-05-03T13:50:04.97Z</time></trkpt><trkpt lat="46.4839076" lon="12.6132243"><ele>1736.0</ele><time>2026-05-03T13:50:05.97Z</time></trkpt><trkpt lat="46.4840873" lon="12.6132684"><ele>1731.6666666666665</ele><time>2026-05-03T13:50:06.971Z</time></trkpt><trkpt lat="46.4842625" lon="12.6133185"><ele>1727.3333333333335</ele><time>2026-05-03T13:50:07.97Z</time></trkpt><trkpt lat="46.4844265" lon="12.6133652"><ele>1723.0</ele><time>2026-05-03T13:50:08.97Z</time></trkpt><trkpt lat="46.4845832" lon="12.6134187"><ele>1721.75</ele><time>2026-05-03T13:50:09.97Z</time></trkpt><trkpt lat="46.4847252" lon="12.6134674"><ele>1720.5</ele><time>2026-05-03T13:50:10.97Z</time></trkpt><trkpt lat="46.4848487" lon="12.6135076"><ele>1719.25</ele><time>2026-05-03T13:50:11.969Z</time></trkpt><trkpt lat="46.4849629" lon="12.6135169"><ele>1718.0</ele><time>2026-05-03T13:50:12.97Z</time></trkpt><trkpt lat="46.4850643" lon="12.6134844"><ele>1717.9999999999998</ele><time>2026-05-03T13:50:13.97Z</time></trkpt><trkpt lat="46.4851528" lon="12.6134121"><ele>1718.0</ele><time>2026-05-03T13:50:14.97Z</time></trkpt><trkpt lat="46.4852313" lon="12.6133158"><ele>1718.0</ele><time>2026-05-03T13:50:15.97Z</time></trkpt><trkpt lat="46.4852985" lon="12.6132398"><ele>1718.0</ele><time>2026-05-03T13:50:16.97Z</time></trkpt><trkpt lat="46.4853617" lon="12.6131918"><ele>1717.9999999999998</ele><time>2026-05-03T13:50:17.969Z</time></trkpt><trkpt lat="46.4854266" lon="12.613183"><ele>1718.0</ele><time>2026-05-03T13:50:18.97Z</time></trkpt><trkpt lat="46.4854928" lon="12.6132036"><ele>1718.6000000000001</ele><time>2026-05-03T13:50:19.97Z</time></trkpt><trkpt lat="46.4855659" lon="12.6132702"><ele>1719.2000000000003</ele><time>2026-05-03T13:50:20.97Z</time></trkpt><trkpt lat="46.4856426" lon="12.6133767"><ele>1719.8</ele><time>2026-05-03T13:50:21.97Z</time></trkpt><trkpt lat="46.4857215" lon="12.6135067"><ele>1720.4</ele><time>2026-05-03T13:50:22.97Z</time></trkpt><trkpt lat="46.4857904" lon="12.6136477"><ele>1721.0</ele><time>2026-05-03T13:50:23.97Z</time></trkpt><trkpt lat="46.485845" lon="12.6138038"><ele>1721.0</ele><time>2026-05-03T13:50:24.97Z</time></trkpt><trkpt lat="46.4858985" lon="12.6139586"><ele>1721.0</ele><time>2026-05-03T13:50:25.97Z</time></trkpt><trkpt lat="46.4859462" lon="12.6141046"><ele>1721.0</ele><time>2026-05-03T13:50:26.969Z</time></trkpt><trkpt lat="46.4859927" lon="12.6142368"><ele>1721.0</ele><time>2026-05-03T13:50:27.97Z</time></trkpt><trkpt lat="46.4860506" lon="12.6143394"><ele>1721.0</ele><time>2026-05-03T13:50:28.97Z</time></trkpt><trkpt lat="46.4861213" lon="12.6144171"><ele>1720.9999999999998</ele><time>2026-05-03T13:50:29.969Z</time></trkpt><trkpt lat="46.4862001" lon="12.6144765"><ele>1721.0</ele><time>2026-05-03T13:50:30.969Z</time></trkpt><trkpt lat="46.4862815" lon="12.6145365"><ele>1721.0</ele><time>2026-05-03T13:50:31.97Z</time></trkpt><trkpt lat="46.486351" lon="12.6146142"><ele>1721.0</ele><time>2026-05-03T13:50:32.97Z</time></trkpt><trkpt lat="46.4863969" lon="12.6147171"><ele>1720.9999999999998</ele><time>2026-05-03T13:50:33.969Z</time></trkpt><trkpt lat="46.486428" lon="12.6148434"><ele>1721.0</ele><time>2026-05-03T13:50:34.969Z</time></trkpt><trkpt lat="46.4864426" lon="12.6150017"><ele>1716.8</ele><time>2026-05-03T13:50:35.97Z</time></trkpt><trkpt lat="46.4864513" lon="12.6151675"><ele>1712.6</ele><time>2026-05-03T13:50:36.971Z</time></trkpt><trkpt lat="46.4864352" lon="12.6153124"><ele>1708.4</ele><time>2026-05-03T13:50:37.969Z</time></trkpt><trkpt lat="46.486402" lon="12.6154462"><ele>1704.2</ele><time>2026-05-03T13:50:38.969Z</time></trkpt><trkpt lat="46.4863736" lon="12.6155824"><ele>1700.0</ele><time>2026-05-03T13:50:39.97Z</time></trkpt><trkpt lat="46.4863642" lon="12.615735"><ele>1698.0</ele><time>2026-05-03T13:50:40.97Z</time></trkpt><trkpt lat="46.4863822" lon="12.6158906"><ele>1696.0</ele><time>2026-05-03T13:50:41.97Z</time></trkpt><trkpt lat="46.4864233" lon="12.6160422"><ele>1694.0</ele><time>2026-05-03T13:50:42.969Z</time></trkpt><trkpt lat="46.4864607" lon="12.6161915"><ele>1692.0</ele><time>2026-05-03T13:50:43.969Z</time></trkpt><trkpt lat="46.4864823" lon="12.6163431"><ele>1690.0</ele><time>2026-05-03T13:50:44.97Z</time></trkpt><trkpt lat="46.4864871" lon="12.6164948"><ele>1690.2</ele><time>2026-05-03T13:50:45.97Z</time></trkpt><trkpt lat="46.4864807" lon="12.6166547"><ele>1690.4</ele><time>2026-05-03T13:50:46.97Z</time></trkpt><trkpt lat="46.4864747" lon="12.6168137"><ele>1690.6</ele><time>2026-05-03T13:50:47.97Z</time></trkpt><trkpt lat="46.4864702" lon="12.6169492"><ele>1690.8</ele><time>2026-05-03T13:50:48.97Z</time></trkpt><trkpt lat="46.4864838" lon="12.6170729"><ele>1691.0</ele><time>2026-05-03T13:50:49.969Z</time></trkpt><trkpt lat="46.4865189" lon="12.6171838"><ele>1691.0</ele><time>2026-05-03T13:50:50.97Z</time></trkpt><trkpt lat="46.4865831" lon="12.6172672"><ele>1691.0</ele><time>2026-05-03T13:50:51.97Z</time></trkpt><trkpt lat="46.4866694" lon="12.6173057"><ele>1691.0</ele><time>2026-05-03T13:50:52.969Z</time></trkpt><trkpt lat="46.4867667" lon="12.6173184"><ele>1691.0</ele><time>2026-05-03T13:50:53.97Z</time></trkpt><trkpt lat="46.4868728" lon="12.6173271"><ele>1691.0</ele><time>2026-05-03T13:50:54.97Z</time></trkpt><trkpt lat="46.4869804" lon="12.6173369"><ele>1691.0</ele><time>2026-05-03T13:50:55.97Z</time></trkpt><trkpt lat="46.4870847" lon="12.6173579"><ele>1691.0</ele><time>2026-05-03T13:50:56.97Z</time></trkpt><trkpt lat="46.4871859" lon="12.6174047"><ele>1691.0</ele><time>2026-05-03T13:50:57.97Z</time></trkpt><trkpt lat="46.487283" lon="12.6174761"><ele>1691.0</ele><time>2026-05-03T13:50:58.97Z</time></trkpt><trkpt lat="46.4873676" lon="12.6175745"><ele>1691.0</ele><time>2026-05-03T13:50:59.969Z</time></trkpt><trkpt lat="46.4874293" lon="12.6176831"><ele>1685.8333333333333</ele><time>2026-05-03T13:51:00.97Z</time></trkpt><trkpt lat="46.4874725" lon="12.6177965"><ele>1680.6666666666665</ele><time>2026-05-03T13:51:01.969Z</time></trkpt><trkpt lat="46.487491" lon="12.6179124"><ele>1675.5</ele><time>2026-05-03T13:51:02.969Z</time></trkpt><trkpt lat="46.4874793" lon="12.6180216"><ele>1670.3333333333335</ele><time>2026-05-03T13:51:03.969Z</time></trkpt><trkpt lat="46.4874371" lon="12.6181218"><ele>1665.1666666666667</ele><time>2026-05-03T13:51:04.97Z</time></trkpt><trkpt lat="46.4873795" lon="12.6182051"><ele>1660.0</ele><time>2026-05-03T13:51:05.97Z</time></trkpt><trkpt lat="46.4873064" lon="12.6182861"><ele>1659.4</ele><time>2026-05-03T13:51:06.969Z</time></trkpt><trkpt lat="46.4872375" lon="12.6183922"><ele>1658.8</ele><time>2026-05-03T13:51:07.968Z</time></trkpt><trkpt lat="46.4871783" lon="12.6185144"><ele>1658.1999999999998</ele><time>2026-05-03T13:51:08.968Z</time></trkpt><trkpt lat="46.4871394" lon="12.6186595"><ele>1657.6</ele><time>2026-05-03T13:51:09.968Z</time></trkpt><trkpt lat="46.4871113" lon="12.6188226"><ele>1657.0</ele><time>2026-05-03T13:51:10.969Z</time></trkpt><trkpt lat="46.4870913" lon="12.6189875"><ele>1659.1999999999998</ele><time>2026-05-03T13:51:11.968Z</time></trkpt><trkpt lat="46.4870697" lon="12.6191473"><ele>1661.4</ele><time>2026-05-03T13:51:12.968Z</time></trkpt><trkpt lat="46.487035" lon="12.6192985"><ele>1663.6</ele><time>2026-05-03T13:51:13.969Z</time></trkpt><trkpt lat="46.4869876" lon="12.6194287"><ele>1665.8000000000002</ele><time>2026-05-03T13:51:14.969Z</time></trkpt><trkpt lat="46.4869294" lon="12.6195361"><ele>1668.0</ele><time>2026-05-03T13:51:15.969Z</time></trkpt><trkpt lat="46.4868792" lon="12.6196269"><ele>1668.0</ele><time>2026-05-03T13:51:16.969Z</time></trkpt><trkpt lat="46.4868364" lon="12.6197191"><ele>1668.0</ele><time>2026-05-03T13:51:17.968Z</time></trkpt><trkpt lat="46.486817" lon="12.6198192"><ele>1668.0</ele><time>2026-05-03T13:51:18.969Z</time></trkpt><trkpt lat="46.4868247" lon="12.6199289"><ele>1668.0</ele><time>2026-05-03T13:51:19.969Z</time></trkpt><trkpt lat="46.4868573" lon="12.6200346"><ele>1668.0</ele><time>2026-05-03T13:51:20.968Z</time></trkpt><trkpt lat="46.48692" lon="12.6201138"><ele>1668.0</ele><time>2026-05-03T13:51:21.969Z</time></trkpt><trkpt lat="46.4870039" lon="12.6201593"><ele>1663.0</ele><time>2026-05-03T13:51:22.969Z</time></trkpt><trkpt lat="46.4871039" lon="12.6201737"><ele>1658.0</ele><time>2026-05-03T13:51:23.968Z</time></trkpt><trkpt lat="46.4872247" lon="12.6201617"><ele>1653.0</ele><time>2026-05-03T13:51:24.969Z</time></trkpt><trkpt lat="46.4873539" lon="12.6201444"><ele>1648.0</ele><time>2026-05-03T13:51:25.969Z</time></trkpt><trkpt lat="46.4874905" lon="12.6201253"><ele>1648.0</ele><time>2026-05-03T13:51:26.969Z</time></trkpt><trkpt lat="46.4876223" lon="12.6201086"><ele>1648.0</ele><time>2026-05-03T13:51:27.968Z</time></trkpt><trkpt lat="46.4877455" lon="12.6200944"><ele>1648.0</ele><time>2026-05-03T13:51:28.97Z</time></trkpt><trkpt lat="46.4878663" lon="12.6201003"><ele>1648.0</ele><time>2026-05-03T13:51:29.968Z</time></trkpt><trkpt lat="46.4879929" lon="12.6201412"><ele>1646.5</ele><time>2026-05-03T13:51:30.969Z</time></trkpt><trkpt lat="46.4881183" lon="12.620211"><ele>1645.0</ele><time>2026-05-03T13:51:31.969Z</time></trkpt><trkpt lat="46.488247" lon="12.6202845"><ele>1643.5</ele><time>2026-05-03T13:51:32.969Z</time></trkpt><trkpt lat="46.4883762" lon="12.6203527"><ele>1642.0</ele><time>2026-05-03T13:51:33.969Z</time></trkpt><trkpt lat="46.488504" lon="12.6204104"><ele>1644.75</ele><time>2026-05-03T13:51:34.969Z</time></trkpt><trkpt lat="46.4886364" lon="12.6204506"><ele>1647.5</ele><time>2026-05-03T13:51:35.969Z</time></trkpt><trkpt lat="46.4887671" lon="12.6204824"><ele>1650.25</ele><time>2026-05-03T13:51:36.968Z</time></trkpt><trkpt lat="46.4888971" lon="12.6205081"><ele>1653.0</ele><time>2026-05-03T13:51:37.969Z</time></trkpt><trkpt lat="46.4890236" lon="12.6205254"><ele>1653.0</ele><time>2026-05-03T13:51:38.969Z</time></trkpt><trkpt lat="46.4891452" lon="12.6205441"><ele>1653.0</ele><time>2026-05-03T13:51:39.968Z</time></trkpt><trkpt lat="46.4892592" lon="12.6205642"><ele>1653.0</ele><time>2026-05-03T13:51:40.969Z</time></trkpt><trkpt lat="46.4893693" lon="12.6205996"><ele>1653.0</ele><time>2026-05-03T13:51:41.969Z</time></trkpt><trkpt lat="46.4894724" lon="12.6206664"><ele>1653.0</ele><time>2026-05-03T13:51:42.968Z</time></trkpt><trkpt lat="46.4895669" lon="12.6207743"><ele>1653.0</ele><time>2026-05-03T13:51:43.969Z</time></trkpt><trkpt lat="46.4896601" lon="12.6208949"><ele>1653.0</ele><time>2026-05-03T13:51:44.969Z</time></trkpt><trkpt lat="46.489765" lon="12.6209982"><ele>1653.0</ele><time>2026-05-03T13:51:45.968Z</time></trkpt><trkpt lat="46.4898782" lon="12.6210751"><ele>1653.2</ele><time>2026-05-03T13:51:46.969Z</time></trkpt><trkpt lat="46.4899954" lon="12.6211202"><ele>1653.4</ele><time>2026-05-03T13:51:47.969Z</time></trkpt><trkpt lat="46.4901062" lon="12.6211538"><ele>1653.6000000000001</ele><time>2026-05-03T13:51:48.969Z</time></trkpt><trkpt lat="46.4902006" lon="12.6212061"><ele>1653.8000000000002</ele><time>2026-05-03T13:51:49.968Z</time></trkpt><trkpt lat="46.4902741" lon="12.621297"><ele>1654.0</ele><time>2026-05-03T13:51:50.969Z</time></trkpt><trkpt lat="46.4903326" lon="12.621411"><ele>1654.0</ele><time>2026-05-03T13:51:51.968Z</time></trkpt><trkpt lat="46.4903806" lon="12.6215399"><ele>1654.0</ele><time>2026-05-03T13:51:52.968Z</time></trkpt><trkpt lat="46.4904457" lon="12.6216525"><ele>1654.0</ele><time>2026-05-03T13:51:53.968Z</time></trkpt><trkpt lat="46.4905348" lon="12.6217491"><ele>1654.0</ele><time>2026-05-03T13:51:54.969Z</time></trkpt><trkpt lat="46.4906446" lon="12.6218215"><ele>1654.0</ele><time>2026-05-03T13:51:55.97Z</time></trkpt><trkpt lat="46.4907657" lon="12.6218768"><ele>1648.6</ele><time>2026-05-03T13:51:56.968Z</time></trkpt><trkpt lat="46.4908811" lon="12.6219258"><ele>1643.2</ele><time>2026-05-03T13:51:57.97Z</time></trkpt><trkpt lat="46.4909872" lon="12.6219533"><ele>1637.8</ele><time>2026-05-03T13:51:58.969Z</time></trkpt><trkpt lat="46.4910859" lon="12.6219407"><ele>1632.3999999999999</ele><time>2026-05-03T13:51:59.969Z</time></trkpt><trkpt lat="46.4911842" lon="12.6218841"><ele>1627.0</ele><time>2026-05-03T13:52:00.968Z</time></trkpt><trkpt lat="46.4912824" lon="12.6218043"><ele>1627.0</ele><time>2026-05-03T13:52:01.97Z</time></trkpt><trkpt lat="46.4913819" lon="12.621739"><ele>1627.0</ele><time>2026-05-03T13:52:02.969Z</time></trkpt><trkpt lat="46.4914863" lon="12.6216979"><ele>1627.0</ele><time>2026-05-03T13:52:03.969Z</time></trkpt><trkpt lat="46.4915914" lon="12.6216904"><ele>1627.0</ele><time>2026-05-03T13:52:04.969Z</time></trkpt><trkpt lat="46.4917032" lon="12.62171"><ele>1627.0</ele><time>2026-05-03T13:52:05.969Z</time></trkpt><trkpt lat="46.491824" lon="12.6217579"><ele>1627.0</ele><time>2026-05-03T13:52:06.969Z</time></trkpt><trkpt lat="46.4919548" lon="12.6218163"><ele>1627.0</ele><time>2026-05-03T13:52:07.968Z</time></trkpt><trkpt lat="46.4920867" lon="12.6218755"><ele>1627.0</ele><time>2026-05-03T13:52:08.968Z</time></trkpt><trkpt lat="46.4922123" lon="12.621931"><ele>1627.0</ele><time>2026-05-03T13:52:09.968Z</time></trkpt><trkpt lat="46.492337" lon="12.6219959"><ele>1632.25</ele><time>2026-05-03T13:52:10.968Z</time></trkpt><trkpt lat="46.4924557" lon="12.6220608"><ele>1637.5</ele><time>2026-05-03T13:52:11.968Z</time></trkpt><trkpt lat="46.4925605" lon="12.6221548"><ele>1642.75</ele><time>2026-05-03T13:52:12.969Z</time></trkpt><trkpt lat="46.4926522" lon="12.6222738"><ele>1648.0</ele><time>2026-05-03T13:52:13.968Z</time></trkpt><trkpt lat="46.492732" lon="12.6224045"><ele>1648.0</ele><time>2026-05-03T13:52:14.969Z</time></trkpt><trkpt lat="46.4928072" lon="12.6225352"><ele>1648.0</ele><time>2026-05-03T13:52:15.968Z</time></trkpt><trkpt lat="46.492897" lon="12.6226465"><ele>1648.0</ele><time>2026-05-03T13:52:16.969Z</time></trkpt><trkpt lat="46.4930033" lon="12.6227191"><ele>1648.0</ele><time>2026-05-03T13:52:17.969Z</time></trkpt><trkpt lat="46.4931226" lon="12.6227674"><ele>1644.2</ele><time>2026-05-03T13:52:18.969Z</time></trkpt><trkpt lat="46.4932362" lon="12.6227877"><ele>1640.4</ele><time>2026-05-03T13:52:19.969Z</time></trkpt><trkpt lat="46.4933409" lon="12.6227916"><ele>1636.6000000000001</ele><time>2026-05-03T13:52:20.969Z</time></trkpt><trkpt lat="46.4934351" lon="12.6227577"><ele>1632.8000000000002</ele><time>2026-05-03T13:52:21.968Z</time></trkpt><trkpt lat="46.4935203" lon="12.6226852"><ele>1629.0</ele><time>2026-05-03T13:52:22.969Z</time></trkpt><trkpt lat="46.4935941" lon="12.622596"><ele>1629.0</ele><time>2026-05-03T13:52:23.969Z</time></trkpt><trkpt lat="46.4936714" lon="12.6225359"><ele>1629.0</ele><time>2026-05-03T13:52:24.969Z</time></trkpt><trkpt lat="46.4937451" lon="12.6225079"><ele>1629.0</ele><time>2026-05-03T13:52:25.968Z</time></trkpt><trkpt lat="46.4938197" lon="12.6225383"><ele>1629.0</ele><time>2026-05-03T13:52:26.968Z</time></trkpt><trkpt lat="46.4938831" lon="12.6225997"><ele>1629.0</ele><time>2026-05-03T13:52:27.969Z</time></trkpt><trkpt lat="46.493943" lon="12.622713"><ele>1629.0</ele><time>2026-05-03T13:52:28.968Z</time></trkpt><trkpt lat="46.4939867" lon="12.6228611"><ele>1629.2</ele><time>2026-05-03T13:52:29.969Z</time></trkpt><trkpt lat="46.4940469" lon="12.6229912"><ele>1629.4</ele><time>2026-05-03T13:52:30.969Z</time></trkpt><trkpt lat="46.4941211" lon="12.6230977"><ele>1629.6</ele><time>2026-05-03T13:52:31.968Z</time></trkpt><trkpt lat="46.4942054" lon="12.6231651"><ele>1629.8</ele><time>2026-05-03T13:52:32.969Z</time></trkpt><trkpt lat="46.4942939" lon="12.6232067"><ele>1630.0</ele><time>2026-05-03T13:52:33.969Z</time></trkpt><trkpt lat="46.4943779" lon="12.6232826"><ele>1630.0</ele><time>2026-05-03T13:52:34.968Z</time></trkpt><trkpt lat="46.4944639" lon="12.6233971"><ele>1630.0</ele><time>2026-05-03T13:52:35.969Z</time></trkpt><trkpt lat="46.4945387" lon="12.6235345"><ele>1630.0</ele><time>2026-05-03T13:52:36.969Z</time></trkpt><trkpt lat="46.4945938" lon="12.6236792"><ele>1630.0</ele><time>2026-05-03T13:52:37.968Z</time></trkpt><trkpt lat="46.4946283" lon="12.6238228"><ele>1627.4</ele><time>2026-05-03T13:52:38.968Z</time></trkpt><trkpt lat="46.4946681" lon="12.6239522"><ele>1624.8</ele><time>2026-05-03T13:52:39.969Z</time></trkpt><trkpt lat="46.4947276" lon="12.6240542"><ele>1622.1999999999998</ele><time>2026-05-03T13:52:40.969Z</time></trkpt><trkpt lat="46.494804" lon="12.6241283"><ele>1619.6</ele><time>2026-05-03T13:52:41.97Z</time></trkpt><trkpt lat="46.4948908" lon="12.6241897"><ele>1617.0</ele><time>2026-05-03T13:52:42.969Z</time></trkpt><trkpt lat="46.4949666" lon="12.6242707"><ele>1617.0</ele><time>2026-05-03T13:52:43.968Z</time></trkpt><trkpt lat="46.4950344" lon="12.6243852"><ele>1617.0</ele><time>2026-05-03T13:52:44.969Z</time></trkpt><trkpt lat="46.4951035" lon="12.6245278"><ele>1617.0</ele><time>2026-05-03T13:52:45.968Z</time></trkpt><trkpt lat="46.4951685" lon="12.6246999"><ele>1617.0</ele><time>2026-05-03T13:52:46.969Z</time></trkpt><trkpt lat="46.4952316" lon="12.6248873"><ele>1615.25</ele><time>2026-05-03T13:52:47.969Z</time></trkpt><trkpt lat="46.4952996" lon="12.6250731"><ele>1613.5</ele><time>2026-05-03T13:52:48.968Z</time></trkpt><trkpt lat="46.4953656" lon="12.6252524"><ele>1611.75</ele><time>2026-05-03T13:52:49.969Z</time></trkpt><trkpt lat="46.495429" lon="12.6254337"><ele>1610.0</ele><time>2026-05-03T13:52:50.969Z</time></trkpt><trkpt lat="46.4954756" lon="12.6256264"><ele>1610.0</ele><time>2026-05-03T13:52:51.969Z</time></trkpt><trkpt lat="46.4955025" lon="12.6258264"><ele>1610.0</ele><time>2026-05-03T13:52:52.968Z</time></trkpt><trkpt lat="46.4955215" lon="12.6260223"><ele>1610.0</ele><time>2026-05-03T13:52:53.969Z</time></trkpt><trkpt lat="46.4955442" lon="12.6262181"><ele>1610.0</ele><time>2026-05-03T13:52:54.969Z</time></trkpt><trkpt lat="46.4955783" lon="12.6264101"><ele>1610.5</ele><time>2026-05-03T13:52:55.968Z</time></trkpt><trkpt lat="46.4956243" lon="12.6265973"><ele>1611.0</ele><time>2026-05-03T13:52:56.969Z</time></trkpt><trkpt lat="46.4956788" lon="12.6267854"><ele>1611.5</ele><time>2026-05-03T13:52:57.969Z</time></trkpt><trkpt lat="46.4957314" lon="12.6269699"><ele>1612.0</ele><time>2026-05-03T13:52:58.969Z</time></trkpt><trkpt lat="46.4957842" lon="12.6271483"><ele>1614.25</ele><time>2026-05-03T13:52:59.969Z</time></trkpt><trkpt lat="46.495835" lon="12.6273236"><ele>1616.5</ele><time>2026-05-03T13:53:00.968Z</time></trkpt><trkpt lat="46.4958744" lon="12.6274989"><ele>1618.75</ele><time>2026-05-03T13:53:01.968Z</time></trkpt><trkpt lat="46.4959094" lon="12.6276733"><ele>1621.0</ele><time>2026-05-03T13:53:02.97Z</time></trkpt><trkpt lat="46.4959351" lon="12.6278485"><ele>1621.25</ele><time>2026-05-03T13:53:03.969Z</time></trkpt><trkpt lat="46.4959515" lon="12.6280325"><ele>1621.5</ele><time>2026-05-03T13:53:04.969Z</time></trkpt><trkpt lat="46.4959513" lon="12.6282356"><ele>1621.75</ele><time>2026-05-03T13:53:05.968Z</time></trkpt><trkpt lat="46.495944" lon="12.628452"><ele>1622.0</ele><time>2026-05-03T13:53:06.968Z</time></trkpt><trkpt lat="46.4959398" lon="12.6286808"><ele>1622.0</ele><time>2026-05-03T13:53:07.969Z</time></trkpt><trkpt lat="46.4959349" lon="12.6289127"><ele>1622.0</ele><time>2026-05-03T13:53:08.97Z</time></trkpt><trkpt lat="46.4959312" lon="12.6291412"><ele>1622.0</ele><time>2026-05-03T13:53:09.97Z</time></trkpt><trkpt lat="46.4959337" lon="12.6293664"><ele>1619.6666666666665</ele><time>2026-05-03T13:53:10.968Z</time></trkpt><trkpt lat="46.4959388" lon="12.6295913"><ele>1617.3333333333335</ele><time>2026-05-03T13:53:11.969Z</time></trkpt><trkpt lat="46.4959503" lon="12.6298128"><ele>1615.0</ele><time>2026-05-03T13:53:12.968Z</time></trkpt><trkpt lat="46.495962" lon="12.6300305"><ele>1615.0</ele><time>2026-05-03T13:53:13.969Z</time></trkpt><trkpt lat="46.4959761" lon="12.6302442"><ele>1615.0</ele><time>2026-05-03T13:53:14.97Z</time></trkpt><trkpt lat="46.4959868" lon="12.6304461"><ele>1615.0</ele><time>2026-05-03T13:53:15.969Z</time></trkpt><trkpt lat="46.4959994" lon="12.6306342"><ele>1615.0</ele><time>2026-05-03T13:53:16.969Z</time></trkpt><trkpt lat="46.4960059" lon="12.630801"><ele>1613.0</ele><time>2026-05-03T13:53:17.969Z</time></trkpt><trkpt lat="46.4959916" lon="12.630954"><ele>1611.0</ele><time>2026-05-03T13:53:18.968Z</time></trkpt><trkpt lat="46.49595" lon="12.6311015"><ele>1609.0</ele><time>2026-05-03T13:53:19.968Z</time></trkpt><trkpt lat="46.4958927" lon="12.6312458"><ele>1607.0</ele><time>2026-05-03T13:53:20.969Z</time></trkpt><trkpt lat="46.4958383" lon="12.6313924"><ele>1605.0</ele><time>2026-05-03T13:53:21.969Z</time></trkpt><trkpt lat="46.4958061" lon="12.6315508"><ele>1602.8</ele><time>2026-05-03T13:53:22.969Z</time></trkpt><trkpt lat="46.4957894" lon="12.631701"><ele>1600.6</ele><time>2026-05-03T13:53:23.97Z</time></trkpt><trkpt lat="46.4957887" lon="12.631835"><ele>1598.4</ele><time>2026-05-03T13:53:24.968Z</time></trkpt><trkpt lat="46.4958186" lon="12.631953"><ele>1596.2</ele><time>2026-05-03T13:53:25.969Z</time></trkpt><trkpt lat="46.4958741" lon="12.6320461"><ele>1594.0</ele><time>2026-05-03T13:53:26.969Z</time></trkpt><trkpt lat="46.4959521" lon="12.6320944"><ele>1592.2</ele><time>2026-05-03T13:53:27.969Z</time></trkpt><trkpt lat="46.4960397" lon="12.6320951"><ele>1590.4</ele><time>2026-05-03T13:53:28.97Z</time></trkpt><trkpt lat="46.4961273" lon="12.6320579"><ele>1588.6</ele><time>2026-05-03T13:53:29.97Z</time></trkpt><trkpt lat="46.4962121" lon="12.6319832"><ele>1586.8</ele><time>2026-05-03T13:53:30.968Z</time></trkpt><trkpt lat="46.496291" lon="12.6318749"><ele>1585.0</ele><time>2026-05-03T13:53:31.969Z</time></trkpt><trkpt lat="46.4963658" lon="12.6317486"><ele>1581.0</ele><time>2026-05-03T13:53:32.968Z</time></trkpt><trkpt lat="46.4964212" lon="12.6315953"><ele>1577.0</ele><time>2026-05-03T13:53:33.969Z</time></trkpt><trkpt lat="46.4964494" lon="12.6314247"><ele>1573.0</ele><time>2026-05-03T13:53:34.969Z</time></trkpt><trkpt lat="46.4964589" lon="12.6312492"><ele>1569.0</ele><time>2026-05-03T13:53:35.969Z</time></trkpt><trkpt lat="46.4964645" lon="12.6310674"><ele>1569.0</ele><time>2026-05-03T13:53:36.969Z</time></trkpt><trkpt lat="46.4964694" lon="12.6308752"><ele>1569.0</ele><time>2026-05-03T13:53:37.968Z</time></trkpt><trkpt lat="46.4964774" lon="12.6306864"><ele>1569.0</ele><time>2026-05-03T13:53:38.968Z</time></trkpt><trkpt lat="46.4964958" lon="12.630493"><ele>1569.0</ele><time>2026-05-03T13:53:39.969Z</time></trkpt><trkpt lat="46.4965313" lon="12.6302957"><ele>1570.5</ele><time>2026-05-03T13:53:40.968Z</time></trkpt><trkpt lat="46.4965793" lon="12.6301097"><ele>1572.0</ele><time>2026-05-03T13:53:41.968Z</time></trkpt><trkpt lat="46.4966273" lon="12.629928"><ele>1573.5</ele><time>2026-05-03T13:53:42.969Z</time></trkpt><trkpt lat="46.496674" lon="12.6297451"><ele>1575.0</ele><time>2026-05-03T13:53:43.969Z</time></trkpt><trkpt lat="46.4967199" lon="12.6295672"><ele>1576.5</ele><time>2026-05-03T13:53:44.969Z</time></trkpt><trkpt lat="46.4967676" lon="12.6293931"><ele>1578.0</ele><time>2026-05-03T13:53:45.968Z</time></trkpt><trkpt lat="46.4968307" lon="12.6292307"><ele>1579.5</ele><time>2026-05-03T13:53:46.969Z</time></trkpt><trkpt lat="46.4969003" lon="12.6290789"><ele>1581.0</ele><time>2026-05-03T13:53:47.969Z</time></trkpt><trkpt lat="46.4969728" lon="12.6289265"><ele>1581.0</ele><time>2026-05-03T13:53:48.969Z</time></trkpt><trkpt lat="46.497045" lon="12.6287753"><ele>1581.0</ele><time>2026-05-03T13:53:49.969Z</time></trkpt><trkpt lat="46.4971214" lon="12.6286231"><ele>1581.0</ele><time>2026-05-03T13:53:50.97Z</time></trkpt><trkpt lat="46.4972037" lon="12.6284777"><ele>1581.0</ele><time>2026-05-03T13:53:51.97Z</time></trkpt><trkpt lat="46.497299" lon="12.6283475"><ele>1576.0</ele><time>2026-05-03T13:53:52.969Z</time></trkpt><trkpt lat="46.4974107" lon="12.6282403"><ele>1571.0</ele><time>2026-05-03T13:53:53.969Z</time></trkpt><trkpt lat="46.4975248" lon="12.6281375"><ele>1566.0</ele><time>2026-05-03T13:53:54.968Z</time></trkpt><trkpt lat="46.4976414" lon="12.6280332"><ele>1561.0</ele><time>2026-05-03T13:53:55.968Z</time></trkpt><trkpt lat="46.4977637" lon="12.6279301"><ele>1561.0</ele><time>2026-05-03T13:53:56.969Z</time></trkpt><trkpt lat="46.4978734" lon="12.6278384"><ele>1561.0</ele><time>2026-05-03T13:53:57.969Z</time></trkpt><trkpt lat="46.4979722" lon="12.6277557"><ele>1561.0</ele><time>2026-05-03T13:53:58.97Z</time></trkpt><trkpt lat="46.4980625" lon="12.6276909"><ele>1561.0</ele><time>2026-05-03T13:53:59.968Z</time></trkpt><trkpt lat="46.4981527" lon="12.6276652"><ele>1561.0</ele><time>2026-05-03T13:54:00.968Z</time></trkpt><trkpt lat="46.4982352" lon="12.6276737"><ele>1559.1666666666667</ele><time>2026-05-03T13:54:01.968Z</time></trkpt><trkpt lat="46.4983055" lon="12.6277377"><ele>1557.3333333333335</ele><time>2026-05-03T13:54:02.969Z</time></trkpt><trkpt lat="46.4983535" lon="12.6278318"><ele>1555.5</ele><time>2026-05-03T13:54:03.969Z</time></trkpt><trkpt lat="46.4983724" lon="12.6279529"><ele>1553.6666666666665</ele><time>2026-05-03T13:54:04.969Z</time></trkpt><trkpt lat="46.4983608" lon="12.6280733"><ele>1551.8333333333333</ele><time>2026-05-03T13:54:05.968Z</time></trkpt><trkpt lat="46.4983152" lon="12.6281696"><ele>1550.0</ele><time>2026-05-03T13:54:06.969Z</time></trkpt><trkpt lat="46.4982449" lon="12.6282303"><ele>1549.2</ele><time>2026-05-03T13:54:07.968Z</time></trkpt><trkpt lat="46.4981618" lon="12.628285"><ele>1548.4</ele><time>2026-05-03T13:54:08.97Z</time></trkpt><trkpt lat="46.4980752" lon="12.6283698"><ele>1547.6</ele><time>2026-05-03T13:54:09.969Z</time></trkpt><trkpt lat="46.4979988" lon="12.6284703"><ele>1546.8</ele><time>2026-05-03T13:54:10.969Z</time></trkpt><trkpt lat="46.4979208" lon="12.6285852"><ele>1546.0</ele><time>2026-05-03T13:54:11.968Z</time></trkpt><trkpt lat="46.4978413" lon="12.6286957"><ele>1547.6</ele><time>2026-05-03T13:54:12.969Z</time></trkpt><trkpt lat="46.4977691" lon="12.6288134"><ele>1549.1999999999998</ele><time>2026-05-03T13:54:13.969Z</time></trkpt><trkpt lat="46.4977003" lon="12.6289365"><ele>1550.8000000000002</ele><time>2026-05-03T13:54:14.969Z</time></trkpt><trkpt lat="46.4976432" lon="12.6290804"><ele>1552.4</ele><time>2026-05-03T13:54:15.97Z</time></trkpt><trkpt lat="46.4975987" lon="12.6292327"><ele>1554.0</ele><time>2026-05-03T13:54:16.97Z</time></trkpt><trkpt lat="46.4975734" lon="12.6293878"><ele>1552.2</ele><time>2026-05-03T13:54:17.968Z</time></trkpt><trkpt lat="46.4975624" lon="12.6295442"><ele>1550.4</ele><time>2026-05-03T13:54:18.968Z</time></trkpt><trkpt lat="46.4975666" lon="12.6297068"><ele>1548.6</ele><time>2026-05-03T13:54:19.969Z</time></trkpt><trkpt lat="46.4975794" lon="12.6298636"><ele>1546.8</ele><time>2026-05-03T13:54:20.97Z</time></trkpt><trkpt lat="46.4975864" lon="12.630029"><ele>1545.0</ele><time>2026-05-03T13:54:21.968Z</time></trkpt><trkpt lat="46.4975917" lon="12.6301945"><ele>1543.0</ele><time>2026-05-03T13:54:22.969Z</time></trkpt><trkpt lat="46.4975916" lon="12.6303577"><ele>1541.0</ele><time>2026-05-03T13:54:23.97Z</time></trkpt><trkpt lat="46.4975904" lon="12.6305191"><ele>1539.0</ele><time>2026-05-03T13:54:24.969Z</time></trkpt><trkpt lat="46.497583" lon="12.630684"><ele>1537.0</ele><time>2026-05-03T13:54:25.969Z</time></trkpt><trkpt lat="46.4975697" lon="12.6308502"><ele>1537.0</ele><time>2026-05-03T13:54:26.969Z</time></trkpt><trkpt lat="46.4975397" lon="12.6310132"><ele>1537.0</ele><time>2026-05-03T13:54:27.969Z</time></trkpt><trkpt lat="46.4974898" lon="12.6311758"><ele>1537.0</ele><time>2026-05-03T13:54:28.968Z</time></trkpt><trkpt lat="46.4974311" lon="12.6313421"><ele>1537.0</ele><time>2026-05-03T13:54:29.968Z</time></trkpt><trkpt lat="46.4973762" lon="12.631501"><ele>1535.0</ele><time>2026-05-03T13:54:30.968Z</time></trkpt><trkpt lat="46.4973179" lon="12.6316572"><ele>1533.0</ele><time>2026-05-03T13:54:31.97Z</time></trkpt><trkpt lat="46.4972675" lon="12.6318111"><ele>1531.0</ele><time>2026-05-03T13:54:32.969Z</time></trkpt><trkpt lat="46.4972192" lon="12.6319619"><ele>1529.0</ele><time>2026-05-03T13:54:33.969Z</time></trkpt><trkpt lat="46.4971643" lon="12.6321092"><ele>1527.4</ele><time>2026-05-03T13:54:34.969Z</time></trkpt><trkpt lat="46.4971187" lon="12.6322593"><ele>1525.8000000000002</ele><time>2026-05-03T13:54:35.968Z</time></trkpt><trkpt lat="46.4970666" lon="12.632405"><ele>1524.1999999999998</ele><time>2026-05-03T13:54:36.969Z</time></trkpt><trkpt lat="46.4970175" lon="12.632549"><ele>1522.6</ele><time>2026-05-03T13:54:37.969Z</time></trkpt><trkpt lat="46.4969714" lon="12.6326778"><ele>1521.0</ele><time>2026-05-03T13:54:38.969Z</time></trkpt><trkpt lat="46.4969312" lon="12.632794"><ele>1519.8333333333333</ele><time>2026-05-03T13:54:39.969Z</time></trkpt><trkpt lat="46.4969153" lon="12.6329029"><ele>1518.6666666666667</ele><time>2026-05-03T13:54:40.969Z</time></trkpt><trkpt lat="46.4969213" lon="12.6330103"><ele>1517.5</ele><time>2026-05-03T13:54:41.969Z</time></trkpt><trkpt lat="46.4969412" lon="12.6331156"><ele>1516.3333333333335</ele><time>2026-05-03T13:54:42.969Z</time></trkpt><trkpt lat="46.4970041" lon="12.6332048"><ele>1515.1666666666667</ele><time>2026-05-03T13:54:43.969Z</time></trkpt><trkpt lat="46.4970548" lon="12.6332987"><ele>1514.0</ele><time>2026-05-03T13:54:44.969Z</time></trkpt><trkpt lat="46.497104" lon="12.6334097"><ele>1514.0</ele><time>2026-05-03T13:54:45.969Z</time></trkpt><trkpt lat="46.4971311" lon="12.6335224"><ele>1514.0</ele><time>2026-05-03T13:54:46.968Z</time></trkpt><trkpt lat="46.4971475" lon="12.6336405"><ele>1514.0</ele><time>2026-05-03T13:54:47.969Z</time></trkpt><trkpt lat="46.4971449" lon="12.6337625"><ele>1514.0</ele><time>2026-05-03T13:54:48.969Z</time></trkpt><trkpt lat="46.4971237" lon="12.6338762"><ele>1514.0</ele><time>2026-05-03T13:54:49.969Z</time></trkpt><trkpt lat="46.4970815" lon="12.6339807"><ele>1514.0</ele><time>2026-05-03T13:54:50.968Z</time></trkpt><trkpt lat="46.4970423" lon="12.6340886"><ele>1516.4</ele><time>2026-05-03T13:54:51.969Z</time></trkpt><trkpt lat="46.4969581" lon="12.6341673"><ele>1518.8000000000002</ele><time>2026-05-03T13:54:52.969Z</time></trkpt><trkpt lat="46.4968872" lon="12.6342562"><ele>1521.1999999999998</ele><time>2026-05-03T13:54:53.969Z</time></trkpt><trkpt lat="46.4968327" lon="12.6343544"><ele>1523.6</ele><time>2026-05-03T13:54:54.969Z</time></trkpt><trkpt lat="46.4967933" lon="12.6344685"><ele>1526.0</ele><time>2026-05-03T13:54:55.968Z</time></trkpt><trkpt lat="46.49678" lon="12.6345996"><ele>1526.0</ele><time>2026-05-03T13:54:56.97Z</time></trkpt><trkpt lat="46.4967822" lon="12.6347457"><ele>1526.0</ele><time>2026-05-03T13:54:57.969Z</time></trkpt><trkpt lat="46.4968037" lon="12.6348995"><ele>1526.0</ele><time>2026-05-03T13:54:58.968Z</time></trkpt><trkpt lat="46.4968246" lon="12.6350558"><ele>1526.0</ele><time>2026-05-03T13:54:59.969Z</time></trkpt><trkpt lat="46.4968425" lon="12.6352123"><ele>1526.0</ele><time>2026-05-03T13:55:00.969Z</time></trkpt><trkpt lat="46.4968579" lon="12.6353694"><ele>1524.5</ele><time>2026-05-03T13:55:01.969Z</time></trkpt><trkpt lat="46.4968691" lon="12.6355417"><ele>1523.0</ele><time>2026-05-03T13:55:02.969Z</time></trkpt><trkpt lat="46.4968702" lon="12.6357138"><ele>1521.5</ele><time>2026-05-03T13:55:03.969Z</time></trkpt><trkpt lat="46.4968708" lon="12.6358897"><ele>1520.0</ele><time>2026-05-03T13:55:04.968Z</time></trkpt><trkpt lat="46.496861" lon="12.6360649"><ele>1517.5</ele><time>2026-05-03T13:55:05.969Z</time></trkpt><trkpt lat="46.4968583" lon="12.6362407"><ele>1515.0</ele><time>2026-05-03T13:55:06.969Z</time></trkpt><trkpt lat="46.4968561" lon="12.6364124"><ele>1512.5</ele><time>2026-05-03T13:55:07.969Z</time></trkpt><trkpt lat="46.4968437" lon="12.6365864"><ele>1510.0</ele><time>2026-05-03T13:55:08.969Z</time></trkpt><trkpt lat="46.4968301" lon="12.6367579"><ele>1510.0</ele><time>2026-05-03T13:55:09.969Z</time></trkpt><trkpt lat="46.4968171" lon="12.6369236"><ele>1510.0</ele><time>2026-05-03T13:55:10.969Z</time></trkpt><trkpt lat="46.4967962" lon="12.637078"><ele>1510.0</ele><time>2026-05-03T13:55:11.97Z</time></trkpt><trkpt lat="46.4967691" lon="12.637211"><ele>1510.0</ele><time>2026-05-03T13:55:12.969Z</time></trkpt><trkpt lat="46.4967273" lon="12.637324"><ele>1510.0</ele><time>2026-05-03T13:55:13.969Z</time></trkpt><trkpt lat="46.4966659" lon="12.6374277"><ele>1507.6</ele><time>2026-05-03T13:55:14.968Z</time></trkpt><trkpt lat="46.4965886" lon="12.6375219"><ele>1505.2</ele><time>2026-05-03T13:55:15.969Z</time></trkpt><trkpt lat="46.4965024" lon="12.637601"><ele>1502.8000000000002</ele><time>2026-05-03T13:55:16.969Z</time></trkpt><trkpt lat="46.4964177" lon="12.6376524"><ele>1500.4</ele><time>2026-05-03T13:55:17.968Z</time></trkpt><trkpt lat="46.4963244" lon="12.6376839"><ele>1498.0</ele><time>2026-05-03T13:55:18.969Z</time></trkpt><trkpt lat="46.4962154" lon="12.6376873"><ele>1498.0</ele><time>2026-05-03T13:55:19.969Z</time></trkpt><trkpt lat="46.4960988" lon="12.6376891"><ele>1498.0</ele><time>2026-05-03T13:55:20.969Z</time></trkpt><trkpt lat="46.4959792" lon="12.6377017"><ele>1498.0</ele><time>2026-05-03T13:55:21.968Z</time></trkpt><trkpt lat="46.4958705" lon="12.6377056"><ele>1498.0</ele><time>2026-05-03T13:55:22.969Z</time></trkpt><trkpt lat="46.495759" lon="12.6376962"><ele>1498.0</ele><time>2026-05-03T13:55:23.968Z</time></trkpt><trkpt lat="46.4956576" lon="12.6376752"><ele>1498.0</ele><time>2026-05-03T13:55:24.969Z</time></trkpt><trkpt lat="46.4955694" lon="12.6376656"><ele>1498.0</ele><time>2026-05-03T13:55:25.968Z</time></trkpt><trkpt lat="46.4954653" lon="12.6377043"><ele>1498.0</ele><time>2026-05-03T13:55:27.968Z</time></trkpt><trkpt lat="46.4954054" lon="12.6377788"><ele>1498.0</ele><time>2026-05-03T13:55:29.969Z</time></trkpt><trkpt lat="46.4953435" lon="12.6378618"><ele>1492.0</ele><time>2026-05-03T13:55:32.97Z</time></trkpt><trkpt lat="46.4952578" lon="12.637939"><ele>1486.0</ele><time>2026-05-03T13:55:35.969Z</time></trkpt><trkpt lat="46.4951605" lon="12.6379698"><ele>1480.0</ele><time>2026-05-03T13:55:37.968Z</time></trkpt><trkpt lat="46.4950632" lon="12.6380302"><ele>1474.0</ele><time>2026-05-03T13:55:39.969Z</time></trkpt><trkpt lat="46.495031" lon="12.6381579"><ele>1468.0</ele><time>2026-05-03T13:55:41.969Z</time></trkpt><trkpt lat="46.495086" lon="12.6382788"><ele>1468.0</ele><time>2026-05-03T13:55:43.968Z</time></trkpt><trkpt lat="46.4952185" lon="12.6382849"><ele>1468.0</ele><time>2026-05-03T13:55:45.968Z</time></trkpt><trkpt lat="46.4952865" lon="12.6382597"><ele>1468.0</ele><time>2026-05-03T13:55:46.968Z</time></trkpt><trkpt lat="46.4953461" lon="12.6381972"><ele>1468.0</ele><time>2026-05-03T13:55:47.969Z</time></trkpt><trkpt lat="46.4953972" lon="12.6381285"><ele>1468.0</ele><time>2026-05-03T13:55:48.968Z</time></trkpt><trkpt lat="46.4954506" lon="12.638062"><ele>1468.0</ele><time>2026-05-03T13:55:49.969Z</time></trkpt><trkpt lat="46.4955171" lon="12.6380274"><ele>1469.5</ele><time>2026-05-03T13:55:50.968Z</time></trkpt><trkpt lat="46.4955871" lon="12.6380377"><ele>1471.0</ele><time>2026-05-03T13:55:51.968Z</time></trkpt><trkpt lat="46.495648" lon="12.638076"><ele>1472.5</ele><time>2026-05-03T13:55:52.969Z</time></trkpt><trkpt lat="46.4957064" lon="12.6381549"><ele>1474.0</ele><time>2026-05-03T13:55:53.969Z</time></trkpt><trkpt lat="46.4957726" lon="12.6382384"><ele>1475.5</ele><time>2026-05-03T13:55:54.968Z</time></trkpt><trkpt lat="46.4958397" lon="12.6383193"><ele>1477.0</ele><time>2026-05-03T13:55:55.969Z</time></trkpt><trkpt lat="46.4959325" lon="12.6383876"><ele>1477.0</ele><time>2026-05-03T13:55:56.969Z</time></trkpt><trkpt lat="46.4960271" lon="12.6384048"><ele>1477.0</ele><time>2026-05-03T13:55:57.969Z</time></trkpt><trkpt lat="46.496132" lon="12.6384066"><ele>1477.0</ele><time>2026-05-03T13:55:58.969Z</time></trkpt><trkpt lat="46.4962303" lon="12.638427"><ele>1477.0</ele><time>2026-05-03T13:55:59.968Z</time></trkpt><trkpt lat="46.4963225" lon="12.638464"><ele>1477.0</ele><time>2026-05-03T13:56:00.969Z</time></trkpt><trkpt lat="46.4964185" lon="12.6385206"><ele>1477.1999999999998</ele><time>2026-05-03T13:56:01.969Z</time></trkpt><trkpt lat="46.4964974" lon="12.6385997"><ele>1477.4</ele><time>2026-05-03T13:56:02.969Z</time></trkpt><trkpt lat="46.4965637" lon="12.6387013"><ele>1477.6</ele><time>2026-05-03T13:56:03.968Z</time></trkpt><trkpt lat="46.4966304" lon="12.6387957"><ele>1477.8000000000002</ele><time>2026-05-03T13:56:04.969Z</time></trkpt><trkpt lat="46.4966912" lon="12.638885"><ele>1478.0</ele><time>2026-05-03T13:56:05.969Z</time></trkpt><trkpt lat="46.4967487" lon="12.6389613"><ele>1475.5714285714287</ele><time>2026-05-03T13:56:06.968Z</time></trkpt><trkpt lat="46.4968074" lon="12.6390022"><ele>1473.1428571428573</ele><time>2026-05-03T13:56:07.97Z</time></trkpt><trkpt lat="46.496871" lon="12.639008"><ele>1470.7142857142858</ele><time>2026-05-03T13:56:08.968Z</time></trkpt><trkpt lat="46.4969326" lon="12.6389843"><ele>1468.2857142857142</ele><time>2026-05-03T13:56:09.969Z</time></trkpt><trkpt lat="46.4969915" lon="12.6389385"><ele>1465.857142857143</ele><time>2026-05-03T13:56:10.969Z</time></trkpt><trkpt lat="46.4970486" lon="12.638882"><ele>1463.4285714285713</ele><time>2026-05-03T13:56:11.968Z</time></trkpt><trkpt lat="46.4971049" lon="12.6388285"><ele>1461.0</ele><time>2026-05-03T13:56:12.969Z</time></trkpt><trkpt lat="46.4971584" lon="12.6387716"><ele>1460.7142857142856</ele><time>2026-05-03T13:56:13.969Z</time></trkpt><trkpt lat="46.4972207" lon="12.6387306"><ele>1460.4285714285716</ele><time>2026-05-03T13:56:14.968Z</time></trkpt><trkpt lat="46.4972772" lon="12.6386781"><ele>1460.142857142857</ele><time>2026-05-03T13:56:15.969Z</time></trkpt><trkpt lat="46.4973264" lon="12.638598"><ele>1459.8571428571427</ele><time>2026-05-03T13:56:16.969Z</time></trkpt><trkpt lat="46.4973662" lon="12.6385091"><ele>1459.5714285714284</ele><time>2026-05-03T13:56:17.969Z</time></trkpt><trkpt lat="46.4974016" lon="12.6384104"><ele>1459.2857142857142</ele><time>2026-05-03T13:56:18.969Z</time></trkpt><trkpt lat="46.4974268" lon="12.6383039"><ele>1459.0</ele><time>2026-05-03T13:56:19.969Z</time></trkpt><trkpt lat="46.4974448" lon="12.6381931"><ele>1459.0</ele><time>2026-05-03T13:56:20.968Z</time></trkpt><trkpt lat="46.4974575" lon="12.6380875"><ele>1459.0</ele><time>2026-05-03T13:56:21.969Z</time></trkpt><trkpt lat="46.4974675" lon="12.637981"><ele>1459.0</ele><time>2026-05-03T13:56:22.969Z</time></trkpt><trkpt lat="46.4974663" lon="12.637801"><ele>1459.0</ele><time>2026-05-03T13:56:24.969Z</time></trkpt><trkpt lat="46.4974836" lon="12.6376445"><ele>1459.0</ele><time>2026-05-03T13:56:26.97Z</time></trkpt><trkpt lat="46.4975537" lon="12.637533"><ele>1459.0</ele><time>2026-05-03T13:56:28.969Z</time></trkpt><trkpt lat="46.4976651" lon="12.6375003"><ele>1459.0</ele><time>2026-05-03T13:56:30.968Z</time></trkpt><trkpt lat="46.4977308" lon="12.6375127"><ele>1459.0</ele><time>2026-05-03T13:56:31.968Z</time></trkpt><trkpt lat="46.4978042" lon="12.6376567"><ele>1459.0</ele><time>2026-05-03T13:56:33.969Z</time></trkpt><trkpt lat="46.4978262" lon="12.6377429"><ele>1459.0</ele><time>2026-05-03T13:56:34.968Z</time></trkpt><trkpt lat="46.4978492" lon="12.6378323"><ele>1459.0</ele><time>2026-05-03T13:56:35.969Z</time></trkpt><trkpt lat="46.4979014" lon="12.6379968"><ele>1456.5</ele><time>2026-05-03T13:56:37.97Z</time></trkpt><trkpt lat="46.4979908" lon="12.6381224"><ele>1454.0</ele><time>2026-05-03T13:56:39.969Z</time></trkpt><trkpt lat="46.4980552" lon="12.638146"><ele>1451.5</ele><time>2026-05-03T13:56:40.969Z</time></trkpt><trkpt lat="46.4981287" lon="12.6381492"><ele>1449.0</ele><time>2026-05-03T13:56:41.969Z</time></trkpt><trkpt lat="46.4982021" lon="12.6381503"><ele>1446.5</ele><time>2026-05-03T13:56:42.97Z</time></trkpt><trkpt lat="46.4982747" lon="12.6381531"><ele>1444.0</ele><time>2026-05-03T13:56:43.969Z</time></trkpt><trkpt lat="46.4983507" lon="12.6381533"><ele>1444.0</ele><time>2026-05-03T13:56:44.97Z</time></trkpt><trkpt lat="46.4984166" lon="12.6381308"><ele>1444.0</ele><time>2026-05-03T13:56:45.969Z</time></trkpt><trkpt lat="46.4984783" lon="12.6380822"><ele>1444.0</ele><time>2026-05-03T13:56:46.969Z</time></trkpt><trkpt lat="46.4985357" lon="12.6380114"><ele>1444.0</ele><time>2026-05-03T13:56:47.969Z</time></trkpt><trkpt lat="46.4985927" lon="12.6379234"><ele>1444.0</ele><time>2026-05-03T13:56:48.969Z</time></trkpt><trkpt lat="46.4986553" lon="12.6378418"><ele>1444.0</ele><time>2026-05-03T13:56:49.968Z</time></trkpt><trkpt lat="46.4987318" lon="12.6377841"><ele>1444.5</ele><time>2026-05-03T13:56:50.97Z</time></trkpt><trkpt lat="46.4988187" lon="12.637753"><ele>1445.0</ele><time>2026-05-03T13:56:51.969Z</time></trkpt><trkpt lat="46.4989075" lon="12.6377429"><ele>1445.5</ele><time>2026-05-03T13:56:52.969Z</time></trkpt><trkpt lat="46.4989931" lon="12.6377473"><ele>1446.0</ele><time>2026-05-03T13:56:53.969Z</time></trkpt><trkpt lat="46.4990708" lon="12.637745"><ele>1446.5</ele><time>2026-05-03T13:56:54.97Z</time></trkpt><trkpt lat="46.4991371" lon="12.6377477"><ele>1447.0</ele><time>2026-05-03T13:56:55.968Z</time></trkpt><trkpt lat="46.4992034" lon="12.6377762"><ele>1445.142857142857</ele><time>2026-05-03T13:56:56.97Z</time></trkpt><trkpt lat="46.4992353" lon="12.6378595"><ele>1443.2857142857144</ele><time>2026-05-03T13:56:57.97Z</time></trkpt><trkpt lat="46.4992624" lon="12.6379511"><ele>1441.4285714285716</ele><time>2026-05-03T13:56:58.97Z</time></trkpt><trkpt lat="46.4992862" lon="12.6380483"><ele>1439.5714285714284</ele><time>2026-05-03T13:56:59.969Z</time></trkpt><trkpt lat="46.4993108" lon="12.6381495"><ele>1437.7142857142858</ele><time>2026-05-03T13:57:00.969Z</time></trkpt><trkpt lat="46.4993306" lon="12.6382536"><ele>1435.857142857143</ele><time>2026-05-03T13:57:01.968Z</time></trkpt><trkpt lat="46.499349" lon="12.6383564"><ele>1434.0</ele><time>2026-05-03T13:57:02.969Z</time></trkpt><trkpt lat="46.4993666" lon="12.6384628"><ele>1434.0</ele><time>2026-05-03T13:57:03.968Z</time></trkpt><trkpt lat="46.4993774" lon="12.6385647"><ele>1434.0</ele><time>2026-05-03T13:57:04.97Z</time></trkpt><trkpt lat="46.4993797" lon="12.6386716"><ele>1434.0</ele><time>2026-05-03T13:57:05.969Z</time></trkpt><trkpt lat="46.4993927" lon="12.6387767"><ele>1434.0</ele><time>2026-05-03T13:57:06.968Z</time></trkpt><trkpt lat="46.4994142" lon="12.638869"><ele>1434.0</ele><time>2026-05-03T13:57:07.969Z</time></trkpt><trkpt lat="46.499443" lon="12.6389517"><ele>1434.0</ele><time>2026-05-03T13:57:08.969Z</time></trkpt><trkpt lat="46.4995519" lon="12.6390246"><ele>1434.3333333333333</ele><time>2026-05-03T13:57:10.97Z</time></trkpt><trkpt lat="46.4996134" lon="12.6390041"><ele>1434.6666666666667</ele><time>2026-05-03T13:57:11.968Z</time></trkpt><trkpt lat="46.4996663" lon="12.6389523"><ele>1435.0</ele><time>2026-05-03T13:57:12.97Z</time></trkpt><trkpt lat="46.4997144" lon="12.6388687"><ele>1435.3333333333335</ele><time>2026-05-03T13:57:13.969Z</time></trkpt><trkpt lat="46.4997644" lon="12.6387702"><ele>1435.6666666666667</ele><time>2026-05-03T13:57:14.969Z</time></trkpt><trkpt lat="46.4998229" lon="12.6386674"><ele>1436.0</ele><time>2026-05-03T13:57:15.969Z</time></trkpt><trkpt lat="46.4998847" lon="12.638589"><ele>1436.0</ele><time>2026-05-03T13:57:16.969Z</time></trkpt><trkpt lat="46.499951" lon="12.638537"><ele>1436.0</ele><time>2026-05-03T13:57:17.969Z</time></trkpt><trkpt lat="46.5000219" lon="12.638504"><ele>1436.0</ele><time>2026-05-03T13:57:18.968Z</time></trkpt><trkpt lat="46.5000961" lon="12.6385035"><ele>1436.0</ele><time>2026-05-03T13:57:19.969Z</time></trkpt><trkpt lat="46.5001677" lon="12.6384935"><ele>1436.0</ele><time>2026-05-03T13:57:20.969Z</time></trkpt><trkpt lat="46.5002379" lon="12.6384976"><ele>1436.0</ele><time>2026-05-03T13:57:21.969Z</time></trkpt><trkpt lat="46.5002995" lon="12.6385305"><ele>1436.0</ele><time>2026-05-03T13:57:22.969Z</time></trkpt><trkpt lat="46.5003507" lon="12.6385903"><ele>1435.8</ele><time>2026-05-03T13:57:23.97Z</time></trkpt><trkpt lat="46.5003931" lon="12.6386852"><ele>1435.6</ele><time>2026-05-03T13:57:24.969Z</time></trkpt><trkpt lat="46.5004204" lon="12.6387994"><ele>1435.4</ele><time>2026-05-03T13:57:25.969Z</time></trkpt><trkpt lat="46.5004435" lon="12.6389282"><ele>1435.2</ele><time>2026-05-03T13:57:26.968Z</time></trkpt><trkpt lat="46.5004644" lon="12.6390641"><ele>1435.0</ele><time>2026-05-03T13:57:27.968Z</time></trkpt><trkpt lat="46.5004812" lon="12.6392094"><ele>1435.0</ele><time>2026-05-03T13:57:28.969Z</time></trkpt><trkpt lat="46.5004948" lon="12.639356"><ele>1435.0</ele><time>2026-05-03T13:57:29.969Z</time></trkpt><trkpt lat="46.5005022" lon="12.6395068"><ele>1435.0</ele><time>2026-05-03T13:57:30.969Z</time></trkpt><trkpt lat="46.5005061" lon="12.6396567"><ele>1435.0</ele><time>2026-05-03T13:57:31.968Z</time></trkpt><trkpt lat="46.5005029" lon="12.6398062"><ele>1435.0</ele><time>2026-05-03T13:57:32.968Z</time></trkpt><trkpt lat="46.5004988" lon="12.6399502"><ele>1434.4</ele><time>2026-05-03T13:57:33.968Z</time></trkpt><trkpt lat="46.5005013" lon="12.6400992"><ele>1433.8</ele><time>2026-05-03T13:57:34.969Z</time></trkpt><trkpt lat="46.500507" lon="12.6402443"><ele>1433.1999999999998</ele><time>2026-05-03T13:57:35.969Z</time></trkpt><trkpt lat="46.5005186" lon="12.6403901"><ele>1432.6</ele><time>2026-05-03T13:57:36.969Z</time></trkpt><trkpt lat="46.5005393" lon="12.640532"><ele>1432.0</ele><time>2026-05-03T13:57:37.969Z</time></trkpt><trkpt lat="46.5005597" lon="12.6406743"><ele>1430.8</ele><time>2026-05-03T13:57:38.969Z</time></trkpt><trkpt lat="46.5005698" lon="12.6408161"><ele>1429.6</ele><time>2026-05-03T13:57:39.969Z</time></trkpt><trkpt lat="46.5005619" lon="12.6409568"><ele>1428.3999999999999</ele><time>2026-05-03T13:57:40.968Z</time></trkpt><trkpt lat="46.5005401" lon="12.6410916"><ele>1427.1999999999998</ele><time>2026-05-03T13:57:41.969Z</time></trkpt><trkpt lat="46.5005089" lon="12.6412229"><ele>1426.0</ele><time>2026-05-03T13:57:42.969Z</time></trkpt><trkpt lat="46.5004757" lon="12.6413539"><ele>1425.8333333333333</ele><time>2026-05-03T13:57:43.969Z</time></trkpt><trkpt lat="46.5004524" lon="12.6414842"><ele>1425.6666666666665</ele><time>2026-05-03T13:57:44.968Z</time></trkpt><trkpt lat="46.5004356" lon="12.6416097"><ele>1425.5</ele><time>2026-05-03T13:57:45.969Z</time></trkpt><trkpt lat="46.5004218" lon="12.6417286"><ele>1425.3333333333333</ele><time>2026-05-03T13:57:46.969Z</time></trkpt><trkpt lat="46.5004184" lon="12.6418449"><ele>1425.1666666666667</ele><time>2026-05-03T13:57:47.969Z</time></trkpt><trkpt lat="46.5004219" lon="12.6419677"><ele>1425.0</ele><time>2026-05-03T13:57:48.968Z</time></trkpt><trkpt lat="46.5004395" lon="12.6420917"><ele>1423.8333333333333</ele><time>2026-05-03T13:57:49.969Z</time></trkpt><trkpt lat="46.5004594" lon="12.6422159"><ele>1422.6666666666667</ele><time>2026-05-03T13:57:50.969Z</time></trkpt><trkpt lat="46.5004849" lon="12.6423324"><ele>1421.5</ele><time>2026-05-03T13:57:51.97Z</time></trkpt><trkpt lat="46.5005142" lon="12.6424511"><ele>1420.3333333333335</ele><time>2026-05-03T13:57:52.969Z</time></trkpt><trkpt lat="46.5005405" lon="12.6425618"><ele>1419.1666666666667</ele><time>2026-05-03T13:57:53.969Z</time></trkpt><trkpt lat="46.5005641" lon="12.642672"><ele>1418.0</ele><time>2026-05-03T13:57:54.969Z</time></trkpt><trkpt lat="46.5005863" lon="12.6427767"><ele>1415.8333333333335</ele><time>2026-05-03T13:57:55.969Z</time></trkpt><trkpt lat="46.5006057" lon="12.6428836"><ele>1413.6666666666667</ele><time>2026-05-03T13:57:56.97Z</time></trkpt><trkpt lat="46.5006258" lon="12.6429962"><ele>1411.5</ele><time>2026-05-03T13:57:57.969Z</time></trkpt><trkpt lat="46.5006442" lon="12.6431055"><ele>1409.3333333333333</ele><time>2026-05-03T13:57:58.969Z</time></trkpt><trkpt lat="46.500664" lon="12.6432191"><ele>1407.1666666666665</ele><time>2026-05-03T13:57:59.969Z</time></trkpt><trkpt lat="46.5006815" lon="12.6433312"><ele>1405.0</ele><time>2026-05-03T13:58:00.969Z</time></trkpt><trkpt lat="46.5006982" lon="12.6434441"><ele>1405.0</ele><time>2026-05-03T13:58:01.969Z</time></trkpt><trkpt lat="46.5007172" lon="12.6435557"><ele>1405.0</ele><time>2026-05-03T13:58:02.97Z</time></trkpt><trkpt lat="46.5007396" lon="12.6436636"><ele>1405.0</ele><time>2026-05-03T13:58:03.969Z</time></trkpt><trkpt lat="46.5007734" lon="12.6437704"><ele>1405.0</ele><time>2026-05-03T13:58:04.968Z</time></trkpt><trkpt lat="46.5008175" lon="12.6438787"><ele>1405.0</ele><time>2026-05-03T13:58:05.969Z</time></trkpt><trkpt lat="46.500877" lon="12.6439905"><ele>1405.0</ele><time>2026-05-03T13:58:06.97Z</time></trkpt><trkpt lat="46.5009607" lon="12.6441015"><ele>1403.5</ele><time>2026-05-03T13:58:07.969Z</time></trkpt><trkpt lat="46.5010636" lon="12.6442246"><ele>1402.0</ele><time>2026-05-03T13:58:08.968Z</time></trkpt><trkpt lat="46.5011694" lon="12.644354"><ele>1400.5</ele><time>2026-05-03T13:58:09.969Z</time></trkpt><trkpt lat="46.5012639" lon="12.6444933"><ele>1399.0</ele><time>2026-05-03T13:58:10.97Z</time></trkpt><trkpt lat="46.5013366" lon="12.6446493"><ele>1399.0</ele><time>2026-05-03T13:58:11.969Z</time></trkpt><trkpt lat="46.5013972" lon="12.6448039"><ele>1399.0</ele><time>2026-05-03T13:58:12.969Z</time></trkpt><trkpt lat="46.5014574" lon="12.6449532"><ele>1399.0</ele><time>2026-05-03T13:58:13.969Z</time></trkpt><trkpt lat="46.5015163" lon="12.6450947"><ele>1399.0</ele><time>2026-05-03T13:58:14.968Z</time></trkpt><trkpt lat="46.5015683" lon="12.6452303"><ele>1395.75</ele><time>2026-05-03T13:58:15.969Z</time></trkpt><trkpt lat="46.5016172" lon="12.6453729"><ele>1392.5</ele><time>2026-05-03T13:58:16.969Z</time></trkpt><trkpt lat="46.5016701" lon="12.6455179"><ele>1389.25</ele><time>2026-05-03T13:58:17.969Z</time></trkpt><trkpt lat="46.5017308" lon="12.6456609"><ele>1386.0</ele><time>2026-05-03T13:58:18.969Z</time></trkpt><trkpt lat="46.5017994" lon="12.6457999"><ele>1386.0</ele><time>2026-05-03T13:58:19.968Z</time></trkpt><trkpt lat="46.5018716" lon="12.6459294"><ele>1386.0</ele><time>2026-05-03T13:58:20.969Z</time></trkpt><trkpt lat="46.501948" lon="12.6460508"><ele>1386.0</ele><time>2026-05-03T13:58:21.969Z</time></trkpt><trkpt lat="46.5020263" lon="12.6461641"><ele>1386.0</ele><time>2026-05-03T13:58:22.969Z</time></trkpt><trkpt lat="46.5021073" lon="12.6462588"><ele>1386.0</ele><time>2026-05-03T13:58:23.969Z</time></trkpt><trkpt lat="46.5021919" lon="12.6463338"><ele>1385.0</ele><time>2026-05-03T13:58:24.969Z</time></trkpt><trkpt lat="46.5022814" lon="12.6463799"><ele>1384.0</ele><time>2026-05-03T13:58:25.969Z</time></trkpt><trkpt lat="46.5023766" lon="12.6464001"><ele>1383.0</ele><time>2026-05-03T13:58:26.969Z</time></trkpt><trkpt lat="46.5024662" lon="12.6463981"><ele>1382.0</ele><time>2026-05-03T13:58:27.969Z</time></trkpt><trkpt lat="46.5025483" lon="12.6464127"><ele>1381.0</ele><time>2026-05-03T13:58:28.969Z</time></trkpt><trkpt lat="46.502619" lon="12.6464632"><ele>1380.0</ele><time>2026-05-03T13:58:29.969Z</time></trkpt><trkpt lat="46.5026631" lon="12.6465398"><ele>1380.0</ele><time>2026-05-03T13:58:30.968Z</time></trkpt><trkpt lat="46.5026765" lon="12.6466377"><ele>1380.0</ele><time>2026-05-03T13:58:31.969Z</time></trkpt><trkpt lat="46.5026601" lon="12.6467344"><ele>1380.0</ele><time>2026-05-03T13:58:32.969Z</time></trkpt><trkpt lat="46.5026135" lon="12.6468097"><ele>1380.0</ele><time>2026-05-03T13:58:33.969Z</time></trkpt><trkpt lat="46.5025426" lon="12.6468504"><ele>1380.0</ele><time>2026-05-03T13:58:34.969Z</time></trkpt><trkpt lat="46.5024473" lon="12.6468615"><ele>1380.0</ele><time>2026-05-03T13:58:35.969Z</time></trkpt><trkpt lat="46.502336" lon="12.6468635"><ele>1380.0</ele><time>2026-05-03T13:58:36.969Z</time></trkpt><trkpt lat="46.5022256" lon="12.6468654"><ele>1380.0</ele><time>2026-05-03T13:58:37.969Z</time></trkpt><trkpt lat="46.5021133" lon="12.6468695"><ele>1380.0</ele><time>2026-05-03T13:58:38.968Z</time></trkpt><trkpt lat="46.502003" lon="12.6468753"><ele>1380.0</ele><time>2026-05-03T13:58:39.968Z</time></trkpt><trkpt lat="46.5018914" lon="12.6468787"><ele>1380.0</ele><time>2026-05-03T13:58:40.969Z</time></trkpt><trkpt lat="46.5017833" lon="12.6468821"><ele>1378.4</ele><time>2026-05-03T13:58:41.969Z</time></trkpt><trkpt lat="46.5016737" lon="12.6468865"><ele>1376.8</ele><time>2026-05-03T13:58:42.969Z</time></trkpt><trkpt lat="46.501566" lon="12.6468796"><ele>1375.1999999999998</ele><time>2026-05-03T13:58:43.969Z</time></trkpt><trkpt lat="46.5014555" lon="12.6468525"><ele>1373.6</ele><time>2026-05-03T13:58:44.969Z</time></trkpt><trkpt lat="46.5013449" lon="12.6468013"><ele>1372.0</ele><time>2026-05-03T13:58:45.969Z</time></trkpt><trkpt lat="46.5012368" lon="12.6467403"><ele>1369.8</ele><time>2026-05-03T13:58:46.969Z</time></trkpt><trkpt lat="46.5011337" lon="12.6466721"><ele>1367.6</ele><time>2026-05-03T13:58:47.969Z</time></trkpt><trkpt lat="46.5010309" lon="12.6466131"><ele>1365.3999999999999</ele><time>2026-05-03T13:58:48.968Z</time></trkpt><trkpt lat="46.5009242" lon="12.6465705"><ele>1363.1999999999998</ele><time>2026-05-03T13:58:49.969Z</time></trkpt><trkpt lat="46.5008202" lon="12.6465364"><ele>1361.0</ele><time>2026-05-03T13:58:50.969Z</time></trkpt><trkpt lat="46.5007129" lon="12.6465129"><ele>1361.0</ele><time>2026-05-03T13:58:51.969Z</time></trkpt><trkpt lat="46.5006108" lon="12.6464792"><ele>1361.0</ele><time>2026-05-03T13:58:52.968Z</time></trkpt><trkpt lat="46.5005144" lon="12.6464251"><ele>1361.0</ele><time>2026-05-03T13:58:53.969Z</time></trkpt><trkpt lat="46.5004268" lon="12.6463491"><ele>1361.0</ele><time>2026-05-03T13:58:54.969Z</time></trkpt><trkpt lat="46.5003467" lon="12.6462752"><ele>1361.0</ele><time>2026-05-03T13:58:55.968Z</time></trkpt><trkpt lat="46.5002676" lon="12.646226"><ele>1359.7142857142856</ele><time>2026-05-03T13:58:56.969Z</time></trkpt><trkpt lat="46.5001924" lon="12.6462043"><ele>1358.4285714285713</ele><time>2026-05-03T13:58:57.969Z</time></trkpt><trkpt lat="46.5001193" lon="12.6462125"><ele>1357.142857142857</ele><time>2026-05-03T13:58:58.969Z</time></trkpt><trkpt lat="46.5000526" lon="12.6462586"><ele>1355.8571428571427</ele><time>2026-05-03T13:58:59.968Z</time></trkpt><trkpt lat="46.4999994" lon="12.6463311"><ele>1354.5714285714284</ele><time>2026-05-03T13:59:00.969Z</time></trkpt><trkpt lat="46.4999637" lon="12.64642"><ele>1353.2857142857142</ele><time>2026-05-03T13:59:01.969Z</time></trkpt><trkpt lat="46.4999549" lon="12.646523"><ele>1352.0</ele><time>2026-05-03T13:59:02.969Z</time></trkpt><trkpt lat="46.4999684" lon="12.6466266"><ele>1352.0</ele><time>2026-05-03T13:59:03.969Z</time></trkpt><trkpt lat="46.5000064" lon="12.6467291"><ele>1352.0</ele><time>2026-05-03T13:59:04.969Z</time></trkpt><trkpt lat="46.5000638" lon="12.646816"><ele>1352.0</ele><time>2026-05-03T13:59:05.969Z</time></trkpt><trkpt lat="46.5001317" lon="12.6468913"><ele>1352.0</ele><time>2026-05-03T13:59:06.97Z</time></trkpt><trkpt lat="46.5002049" lon="12.6469678"><ele>1352.0</ele><time>2026-05-03T13:59:07.969Z</time></trkpt><trkpt lat="46.5002784" lon="12.6470649"><ele>1352.0</ele><time>2026-05-03T13:59:08.969Z</time></trkpt><trkpt lat="46.5003482" lon="12.6471867"><ele>1352.1999999999998</ele><time>2026-05-03T13:59:09.969Z</time></trkpt><trkpt lat="46.5004106" lon="12.6473181"><ele>1352.4</ele><time>2026-05-03T13:59:10.968Z</time></trkpt><trkpt lat="46.5004674" lon="12.6474565"><ele>1352.6</ele><time>2026-05-03T13:59:11.97Z</time></trkpt><trkpt lat="46.5005216" lon="12.6475952"><ele>1352.8000000000002</ele><time>2026-05-03T13:59:12.968Z</time></trkpt><trkpt lat="46.5005695" lon="12.6477438"><ele>1353.0</ele><time>2026-05-03T13:59:13.968Z</time></trkpt><trkpt lat="46.5006099" lon="12.6478982"><ele>1350.75</ele><time>2026-05-03T13:59:14.97Z</time></trkpt><trkpt lat="46.5006442" lon="12.6480556"><ele>1348.5</ele><time>2026-05-03T13:59:15.97Z</time></trkpt><trkpt lat="46.5006843" lon="12.6482133"><ele>1346.25</ele><time>2026-05-03T13:59:16.969Z</time></trkpt><trkpt lat="46.5007361" lon="12.6483624"><ele>1344.0</ele><time>2026-05-03T13:59:17.969Z</time></trkpt><trkpt lat="46.5008058" lon="12.6484981"><ele>1344.0</ele><time>2026-05-03T13:59:18.969Z</time></trkpt><trkpt lat="46.500893" lon="12.6486168"><ele>1344.0</ele><time>2026-05-03T13:59:19.97Z</time></trkpt><trkpt lat="46.5009837" lon="12.6487182"><ele>1344.0</ele><time>2026-05-03T13:59:20.97Z</time></trkpt><trkpt lat="46.501067" lon="12.6488342"><ele>1344.0</ele><time>2026-05-03T13:59:21.969Z</time></trkpt><trkpt lat="46.5011423" lon="12.6489689"><ele>1343.5</ele><time>2026-05-03T13:59:22.968Z</time></trkpt><trkpt lat="46.5012034" lon="12.6491239"><ele>1343.0</ele><time>2026-05-03T13:59:23.969Z</time></trkpt><trkpt lat="46.501254" lon="12.6492897"><ele>1342.5</ele><time>2026-05-03T13:59:24.968Z</time></trkpt><trkpt lat="46.5012976" lon="12.6494578"><ele>1342.0</ele><time>2026-05-03T13:59:25.968Z</time></trkpt><trkpt lat="46.5013461" lon="12.6496211"><ele>1339.5</ele><time>2026-05-03T13:59:26.969Z</time></trkpt><trkpt lat="46.5013988" lon="12.6497837"><ele>1337.0</ele><time>2026-05-03T13:59:27.968Z</time></trkpt><trkpt lat="46.5014571" lon="12.649935"><ele>1334.5</ele><time>2026-05-03T13:59:28.969Z</time></trkpt><trkpt lat="46.5015179" lon="12.6500605"><ele>1332.0</ele><time>2026-05-03T13:59:29.968Z</time></trkpt><trkpt lat="46.5015941" lon="12.6501573"><ele>1332.0</ele><time>2026-05-03T13:59:30.969Z</time></trkpt><trkpt lat="46.5016856" lon="12.6502194"><ele>1332.0</ele><time>2026-05-03T13:59:31.969Z</time></trkpt><trkpt lat="46.5017868" lon="12.6502761"><ele>1332.0</ele><time>2026-05-03T13:59:32.969Z</time></trkpt><trkpt lat="46.5018975" lon="12.650355"><ele>1332.0</ele><time>2026-05-03T13:59:33.969Z</time></trkpt><trkpt lat="46.5020037" lon="12.6504627"><ele>1331.0</ele><time>2026-05-03T13:59:34.969Z</time></trkpt><trkpt lat="46.5020989" lon="12.6505861"><ele>1330.0</ele><time>2026-05-03T13:59:35.968Z</time></trkpt><trkpt lat="46.5021884" lon="12.6507173"><ele>1329.0</ele><time>2026-05-03T13:59:36.97Z</time></trkpt><trkpt lat="46.5022736" lon="12.6508487"><ele>1328.0</ele><time>2026-05-03T13:59:37.969Z</time></trkpt><trkpt lat="46.5023586" lon="12.6509771"><ele>1328.0</ele><time>2026-05-03T13:59:38.969Z</time></trkpt><trkpt lat="46.5024377" lon="12.6511055"><ele>1328.0</ele><time>2026-05-03T13:59:39.968Z</time></trkpt><trkpt lat="46.5025097" lon="12.6512396"><ele>1328.0</ele><time>2026-05-03T13:59:40.968Z</time></trkpt><trkpt lat="46.5025712" lon="12.6513822"><ele>1328.0</ele><time>2026-05-03T13:59:41.969Z</time></trkpt><trkpt lat="46.5026259" lon="12.6515263"><ele>1327.4</ele><time>2026-05-03T13:59:42.969Z</time></trkpt><trkpt lat="46.5026835" lon="12.6516596"><ele>1326.8000000000002</ele><time>2026-05-03T13:59:43.97Z</time></trkpt><trkpt lat="46.5027571" lon="12.6517744"><ele>1326.2</ele><time>2026-05-03T13:59:44.969Z</time></trkpt><trkpt lat="46.5028445" lon="12.6518743"><ele>1325.6</ele><time>2026-05-03T13:59:45.969Z</time></trkpt><trkpt lat="46.5029424" lon="12.6519524"><ele>1325.0</ele><time>2026-05-03T13:59:46.968Z</time></trkpt><trkpt lat="46.5030503" lon="12.6520152"><ele>1323.5</ele><time>2026-05-03T13:59:47.969Z</time></trkpt><trkpt lat="46.5031645" lon="12.6520661"><ele>1322.0</ele><time>2026-05-03T13:59:48.968Z</time></trkpt><trkpt lat="46.5032794" lon="12.6521137"><ele>1320.5</ele><time>2026-05-03T13:59:49.97Z</time></trkpt><trkpt lat="46.5033939" lon="12.6521619"><ele>1319.0</ele><time>2026-05-03T13:59:50.969Z</time></trkpt><trkpt lat="46.5035055" lon="12.6522115"><ele>1319.0</ele><time>2026-05-03T13:59:51.968Z</time></trkpt><trkpt lat="46.5036156" lon="12.6522585"><ele>1319.0</ele><time>2026-05-03T13:59:52.969Z</time></trkpt><trkpt lat="46.5037243" lon="12.6523079"><ele>1319.0</ele><time>2026-05-03T13:59:53.968Z</time></trkpt><trkpt lat="46.5038342" lon="12.6523657"><ele>1319.0</ele><time>2026-05-03T13:59:54.969Z</time></trkpt><trkpt lat="46.5039431" lon="12.6524309"><ele>1319.75</ele><time>2026-05-03T13:59:55.969Z</time></trkpt><trkpt lat="46.5040513" lon="12.6525129"><ele>1320.5</ele><time>2026-05-03T13:59:56.968Z</time></trkpt><trkpt lat="46.5041563" lon="12.6526166"><ele>1321.25</ele><time>2026-05-03T13:59:57.969Z</time></trkpt><trkpt lat="46.5042475" lon="12.6527468"><ele>1322.0</ele><time>2026-05-03T13:59:58.969Z</time></trkpt><trkpt lat="46.5043214" lon="12.6529059"><ele>1319.0</ele><time>2026-05-03T13:59:59.969Z</time></trkpt><trkpt lat="46.5043844" lon="12.6530845"><ele>1316.0</ele><time>2026-05-03T14:00:00.97Z</time></trkpt><trkpt lat="46.5044428" lon="12.6532736"><ele>1313.0</ele><time>2026-05-03T14:00:01.969Z</time></trkpt><trkpt lat="46.5044979" lon="12.653463"><ele>1310.0</ele><time>2026-05-03T14:00:02.97Z</time></trkpt><trkpt lat="46.504554" lon="12.6536469"><ele>1308.75</ele><time>2026-05-03T14:00:03.969Z</time></trkpt><trkpt lat="46.5046077" lon="12.6538231"><ele>1307.5</ele><time>2026-05-03T14:00:04.969Z</time></trkpt><trkpt lat="46.5046568" lon="12.6539994"><ele>1306.25</ele><time>2026-05-03T14:00:05.969Z</time></trkpt><trkpt lat="46.5047048" lon="12.6541696"><ele>1305.0</ele><time>2026-05-03T14:00:06.969Z</time></trkpt><trkpt lat="46.5047562" lon="12.6543432"><ele>1304.25</ele><time>2026-05-03T14:00:07.969Z</time></trkpt><trkpt lat="46.5048103" lon="12.6545249"><ele>1303.5</ele><time>2026-05-03T14:00:08.968Z</time></trkpt><trkpt lat="46.5048632" lon="12.6547061"><ele>1302.75</ele><time>2026-05-03T14:00:09.97Z</time></trkpt><trkpt lat="46.5049153" lon="12.6548864"><ele>1302.0</ele><time>2026-05-03T14:00:10.969Z</time></trkpt><trkpt lat="46.5049677" lon="12.6550682"><ele>1302.0</ele><time>2026-05-03T14:00:11.969Z</time></trkpt><trkpt lat="46.5050232" lon="12.6552531"><ele>1302.0</ele><time>2026-05-03T14:00:12.969Z</time></trkpt><trkpt lat="46.5050772" lon="12.655439"><ele>1302.0</ele><time>2026-05-03T14:00:13.969Z</time></trkpt><trkpt lat="46.5051307" lon="12.655629"><ele>1302.0</ele><time>2026-05-03T14:00:14.969Z</time></trkpt><trkpt lat="46.5051873" lon="12.65582"><ele>1302.5</ele><time>2026-05-03T14:00:15.968Z</time></trkpt><trkpt lat="46.5052446" lon="12.6560135"><ele>1303.0</ele><time>2026-05-03T14:00:16.969Z</time></trkpt><trkpt lat="46.5053036" lon="12.6562118"><ele>1303.5</ele><time>2026-05-03T14:00:17.97Z</time></trkpt><trkpt lat="46.5053654" lon="12.6564185"><ele>1304.0</ele><time>2026-05-03T14:00:18.969Z</time></trkpt><trkpt lat="46.5054269" lon="12.6566298"><ele>1304.0</ele><time>2026-05-03T14:00:19.969Z</time></trkpt><trkpt lat="46.5054898" lon="12.6568476"><ele>1304.0</ele><time>2026-05-03T14:00:20.969Z</time></trkpt><trkpt lat="46.5055516" lon="12.6570683"><ele>1304.0</ele><time>2026-05-03T14:00:21.969Z</time></trkpt><trkpt lat="46.5056169" lon="12.6572904"><ele>1301.6666666666667</ele><time>2026-05-03T14:00:22.969Z</time></trkpt><trkpt lat="46.5056845" lon="12.6575097"><ele>1299.3333333333333</ele><time>2026-05-03T14:00:23.968Z</time></trkpt><trkpt lat="46.5057493" lon="12.6577277"><ele>1297.0</ele><time>2026-05-03T14:00:24.969Z</time></trkpt><trkpt lat="46.5058155" lon="12.6579478"><ele>1295.6666666666665</ele><time>2026-05-03T14:00:25.969Z</time></trkpt><trkpt lat="46.5058819" lon="12.6581685"><ele>1294.3333333333333</ele><time>2026-05-03T14:00:26.969Z</time></trkpt><trkpt lat="46.5059467" lon="12.6583847"><ele>1293.0</ele><time>2026-05-03T14:00:27.969Z</time></trkpt><trkpt lat="46.5060089" lon="12.6586037"><ele>1289.6666666666667</ele><time>2026-05-03T14:00:28.968Z</time></trkpt><trkpt lat="46.5060727" lon="12.6588207"><ele>1286.3333333333335</ele><time>2026-05-03T14:00:29.969Z</time></trkpt><trkpt lat="46.5061361" lon="12.6590356"><ele>1283.0</ele><time>2026-05-03T14:00:30.969Z</time></trkpt><trkpt lat="46.5062024" lon="12.6592481"><ele>1281.6666666666667</ele><time>2026-05-03T14:00:31.968Z</time></trkpt><trkpt lat="46.5062621" lon="12.6594561"><ele>1280.3333333333333</ele><time>2026-05-03T14:00:32.969Z</time></trkpt><trkpt lat="46.5063226" lon="12.6596635"><ele>1279.0</ele><time>2026-05-03T14:00:33.969Z</time></trkpt><trkpt lat="46.5063823" lon="12.6598759"><ele>1279.0</ele><time>2026-05-03T14:00:34.97Z</time></trkpt><trkpt lat="46.5064426" lon="12.6600852"><ele>1279.0</ele><time>2026-05-03T14:00:35.97Z</time></trkpt><trkpt lat="46.5065057" lon="12.6602953"><ele>1279.0</ele><time>2026-05-03T14:00:36.968Z</time></trkpt><trkpt lat="46.506575" lon="12.660506"><ele>1277.3333333333333</ele><time>2026-05-03T14:00:37.968Z</time></trkpt><trkpt lat="46.5066398" lon="12.6607242"><ele>1275.6666666666667</ele><time>2026-05-03T14:00:38.968Z</time></trkpt><trkpt lat="46.5067062" lon="12.6609452"><ele>1274.0</ele><time>2026-05-03T14:00:39.97Z</time></trkpt><trkpt lat="46.5067726" lon="12.6611645"><ele>1272.6666666666667</ele><time>2026-05-03T14:00:40.969Z</time></trkpt><trkpt lat="46.5068389" lon="12.661381"><ele>1271.3333333333333</ele><time>2026-05-03T14:00:41.969Z</time></trkpt><trkpt lat="46.5068993" lon="12.6615994"><ele>1270.0</ele><time>2026-05-03T14:00:42.968Z</time></trkpt><trkpt lat="46.5069609" lon="12.6618124"><ele>1269.6666666666665</ele><time>2026-05-03T14:00:43.969Z</time></trkpt><trkpt lat="46.5070198" lon="12.6620205"><ele>1269.3333333333333</ele><time>2026-05-03T14:00:44.969Z</time></trkpt><trkpt lat="46.5070825" lon="12.6622292"><ele>1269.0</ele><time>2026-05-03T14:00:45.968Z</time></trkpt><trkpt lat="46.5071568" lon="12.6624461"><ele>1271.0</ele><time>2026-05-03T14:00:46.969Z</time></trkpt><trkpt lat="46.5072254" lon="12.6626699"><ele>1273.0</ele><time>2026-05-03T14:00:47.969Z</time></trkpt><trkpt lat="46.507294" lon="12.6628947"><ele>1275.0</ele><time>2026-05-03T14:00:48.969Z</time></trkpt><trkpt lat="46.5073595" lon="12.6631196"><ele>1275.0</ele><time>2026-05-03T14:00:49.968Z</time></trkpt><trkpt lat="46.5074196" lon="12.6633395"><ele>1275.0</ele><time>2026-05-03T14:00:50.969Z</time></trkpt><trkpt lat="46.5074796" lon="12.66355"><ele>1275.0</ele><time>2026-05-03T14:00:51.969Z</time></trkpt><trkpt lat="46.5075412" lon="12.6637607"><ele>1275.3333333333333</ele><time>2026-05-03T14:00:52.969Z</time></trkpt><trkpt lat="46.5076017" lon="12.6639697"><ele>1275.6666666666665</ele><time>2026-05-03T14:00:53.968Z</time></trkpt><trkpt lat="46.5076606" lon="12.6641739"><ele>1276.0</ele><time>2026-05-03T14:00:54.969Z</time></trkpt><trkpt lat="46.5077189" lon="12.6643737"><ele>1274.75</ele><time>2026-05-03T14:00:55.968Z</time></trkpt><trkpt lat="46.5077774" lon="12.6645689"><ele>1273.5</ele><time>2026-05-03T14:00:56.969Z</time></trkpt><trkpt lat="46.507825" lon="12.6647446"><ele>1272.25</ele><time>2026-05-03T14:00:57.97Z</time></trkpt><trkpt lat="46.5078738" lon="12.6649268"><ele>1271.0</ele><time>2026-05-03T14:00:58.968Z</time></trkpt><trkpt lat="46.5079284" lon="12.665103"><ele>1272.75</ele><time>2026-05-03T14:00:59.969Z</time></trkpt><trkpt lat="46.5079803" lon="12.6652804"><ele>1274.5</ele><time>2026-05-03T14:01:00.969Z</time></trkpt><trkpt lat="46.508029" lon="12.6654477"><ele>1276.25</ele><time>2026-05-03T14:01:01.968Z</time></trkpt><trkpt lat="46.508078" lon="12.6656125"><ele>1278.0</ele><time>2026-05-03T14:01:02.968Z</time></trkpt><trkpt lat="46.5081272" lon="12.6657791"><ele>1278.0</ele><time>2026-05-03T14:01:03.97Z</time></trkpt><trkpt lat="46.5081776" lon="12.6659473"><ele>1278.0</ele><time>2026-05-03T14:01:04.968Z</time></trkpt><trkpt lat="46.508228" lon="12.6661213"><ele>1278.0</ele><time>2026-05-03T14:01:05.969Z</time></trkpt><trkpt lat="46.5082762" lon="12.6662963"><ele>1278.0</ele><time>2026-05-03T14:01:06.968Z</time></trkpt><trkpt lat="46.5083297" lon="12.6664726"><ele>1275.0</ele><time>2026-05-03T14:01:07.968Z</time></trkpt><trkpt lat="46.5083843" lon="12.666647"><ele>1272.0</ele><time>2026-05-03T14:01:08.969Z</time></trkpt><trkpt lat="46.5084368" lon="12.6668234"><ele>1269.0</ele><time>2026-05-03T14:01:09.968Z</time></trkpt><trkpt lat="46.5084861" lon="12.6669966"><ele>1266.0</ele><time>2026-05-03T14:01:10.969Z</time></trkpt><trkpt lat="46.5085374" lon="12.6671704"><ele>1264.0</ele><time>2026-05-03T14:01:11.968Z</time></trkpt><trkpt lat="46.5085888" lon="12.6673386"><ele>1262.0</ele><time>2026-05-03T14:01:12.969Z</time></trkpt><trkpt lat="46.5086389" lon="12.6675045"><ele>1260.0</ele><time>2026-05-03T14:01:13.969Z</time></trkpt><trkpt lat="46.5086896" lon="12.667667"><ele>1258.0</ele><time>2026-05-03T14:01:14.969Z</time></trkpt><trkpt lat="46.50874" lon="12.6678281"><ele>1256.0</ele><time>2026-05-03T14:01:15.968Z</time></trkpt><trkpt lat="46.5087837" lon="12.6679903"><ele>1254.0</ele><time>2026-05-03T14:01:16.969Z</time></trkpt><trkpt lat="46.5088139" lon="12.6681608"><ele>1252.0</ele><time>2026-05-03T14:01:17.969Z</time></trkpt><trkpt lat="46.5088176" lon="12.6683237"><ele>1250.0</ele><time>2026-05-03T14:01:18.969Z</time></trkpt><trkpt lat="46.5087949" lon="12.6684788"><ele>1250.0</ele><time>2026-05-03T14:01:19.968Z</time></trkpt><trkpt lat="46.5087496" lon="12.6686323"><ele>1250.0</ele><time>2026-05-03T14:01:20.968Z</time></trkpt><trkpt lat="46.5086663" lon="12.6687555"><ele>1250.0</ele><time>2026-05-03T14:01:21.969Z</time></trkpt><trkpt lat="46.5085814" lon="12.668868"><ele>1250.0</ele><time>2026-05-03T14:01:22.969Z</time></trkpt><trkpt lat="46.5084974" lon="12.6689915"><ele>1249.4</ele><time>2026-05-03T14:01:23.968Z</time></trkpt><trkpt lat="46.5084184" lon="12.6691133"><ele>1248.8</ele><time>2026-05-03T14:01:24.969Z</time></trkpt><trkpt lat="46.5083561" lon="12.6692346"><ele>1248.2</ele><time>2026-05-03T14:01:25.969Z</time></trkpt><trkpt lat="46.5083178" lon="12.6693462"><ele>1247.6</ele><time>2026-05-03T14:01:26.968Z</time></trkpt><trkpt lat="46.5082996" lon="12.6694647"><ele>1247.0</ele><time>2026-05-03T14:01:27.968Z</time></trkpt><trkpt lat="46.5083038" lon="12.6695917"><ele>1245.8</ele><time>2026-05-03T14:01:28.968Z</time></trkpt><trkpt lat="46.5083237" lon="12.6697355"><ele>1244.6</ele><time>2026-05-03T14:01:29.969Z</time></trkpt><trkpt lat="46.5083478" lon="12.6698874"><ele>1243.3999999999999</ele><time>2026-05-03T14:01:30.969Z</time></trkpt><trkpt lat="46.5083846" lon="12.6700284"><ele>1242.2</ele><time>2026-05-03T14:01:31.968Z</time></trkpt><trkpt lat="46.5084303" lon="12.670149"><ele>1241.0</ele><time>2026-05-03T14:01:32.969Z</time></trkpt><trkpt lat="46.5084946" lon="12.6702443"><ele>1240.3999999999999</ele><time>2026-05-03T14:01:33.968Z</time></trkpt><trkpt lat="46.5085704" lon="12.6703145"><ele>1239.8</ele><time>2026-05-03T14:01:34.969Z</time></trkpt><trkpt lat="46.5086583" lon="12.6703565"><ele>1239.1999999999998</ele><time>2026-05-03T14:01:35.969Z</time></trkpt><trkpt lat="46.5087482" lon="12.6703662"><ele>1238.6</ele><time>2026-05-03T14:01:36.969Z</time></trkpt><trkpt lat="46.5088407" lon="12.6703435"><ele>1238.0</ele><time>2026-05-03T14:01:37.968Z</time></trkpt><trkpt lat="46.5089283" lon="12.6702901"><ele>1238.0</ele><time>2026-05-03T14:01:38.969Z</time></trkpt><trkpt lat="46.509016" lon="12.6702464"><ele>1238.0</ele><time>2026-05-03T14:01:39.969Z</time></trkpt><trkpt lat="46.5091187" lon="12.6702415"><ele>1238.0</ele><time>2026-05-03T14:01:40.968Z</time></trkpt><trkpt lat="46.5092024" lon="12.6702793"><ele>1238.0</ele><time>2026-05-03T14:01:41.969Z</time></trkpt><trkpt lat="46.5092837" lon="12.6703473"><ele>1238.0</ele><time>2026-05-03T14:01:42.969Z</time></trkpt><trkpt lat="46.5093442" lon="12.6704517"><ele>1238.0</ele><time>2026-05-03T14:01:43.969Z</time></trkpt><trkpt lat="46.5093959" lon="12.6705878"><ele>1238.0</ele><time>2026-05-03T14:01:44.968Z</time></trkpt><trkpt lat="46.5094445" lon="12.6707364"><ele>1238.0</ele><time>2026-05-03T14:01:45.969Z</time></trkpt><trkpt lat="46.5094913" lon="12.6708813"><ele>1238.0</ele><time>2026-05-03T14:01:46.968Z</time></trkpt><trkpt lat="46.5095517" lon="12.671021"><ele>1238.0</ele><time>2026-05-03T14:01:47.969Z</time></trkpt><trkpt lat="46.5096314" lon="12.6711369"><ele>1236.8</ele><time>2026-05-03T14:01:48.969Z</time></trkpt><trkpt lat="46.5097014" lon="12.6712572"><ele>1235.6</ele><time>2026-05-03T14:01:49.968Z</time></trkpt><trkpt lat="46.5097752" lon="12.6713803"><ele>1234.4</ele><time>2026-05-03T14:01:50.969Z</time></trkpt><trkpt lat="46.5098455" lon="12.6715008"><ele>1233.2</ele><time>2026-05-03T14:01:51.969Z</time></trkpt><trkpt lat="46.5099253" lon="12.671601"><ele>1232.0</ele><time>2026-05-03T14:01:52.968Z</time></trkpt><trkpt lat="46.5100143" lon="12.671677"><ele>1232.0</ele><time>2026-05-03T14:01:53.968Z</time></trkpt><trkpt lat="46.5101086" lon="12.6717345"><ele>1232.0</ele><time>2026-05-03T14:01:54.969Z</time></trkpt><trkpt lat="46.5102083" lon="12.67177"><ele>1232.0</ele><time>2026-05-03T14:01:55.968Z</time></trkpt><trkpt lat="46.5103082" lon="12.671807"><ele>1232.0</ele><time>2026-05-03T14:01:56.969Z</time></trkpt><trkpt lat="46.5104108" lon="12.6718493"><ele>1232.0</ele><time>2026-05-03T14:01:57.969Z</time></trkpt><trkpt lat="46.5105392" lon="12.6718903"><ele>1233.0</ele><time>2026-05-03T14:01:58.969Z</time></trkpt><trkpt lat="46.510659" lon="12.6719144"><ele>1234.0</ele><time>2026-05-03T14:01:59.969Z</time></trkpt><trkpt lat="46.5107762" lon="12.6719311"><ele>1235.0</ele><time>2026-05-03T14:02:00.97Z</time></trkpt><trkpt lat="46.5108894" lon="12.6719199"><ele>1236.0</ele><time>2026-05-03T14:02:01.968Z</time></trkpt><trkpt lat="46.5109943" lon="12.6718952"><ele>1236.0</ele><time>2026-05-03T14:02:02.969Z</time></trkpt><trkpt lat="46.5111004" lon="12.6718958"><ele>1236.0</ele><time>2026-05-03T14:02:03.969Z</time></trkpt><trkpt lat="46.5111952" lon="12.6719375"><ele>1236.0</ele><time>2026-05-03T14:02:04.969Z</time></trkpt><trkpt lat="46.5112792" lon="12.6720163"><ele>1236.0</ele><time>2026-05-03T14:02:05.969Z</time></trkpt><trkpt lat="46.5113439" lon="12.6721236"><ele>1236.0</ele><time>2026-05-03T14:02:06.968Z</time></trkpt><trkpt lat="46.5113957" lon="12.6722497"><ele>1234.0</ele><time>2026-05-03T14:02:07.969Z</time></trkpt><trkpt lat="46.5114387" lon="12.6723761"><ele>1232.0</ele><time>2026-05-03T14:02:08.969Z</time></trkpt><trkpt lat="46.5114958" lon="12.6724829"><ele>1230.0</ele><time>2026-05-03T14:02:09.968Z</time></trkpt><trkpt lat="46.5115654" lon="12.6725677"><ele>1228.0</ele><time>2026-05-03T14:02:10.97Z</time></trkpt><trkpt lat="46.5116383" lon="12.6726571"><ele>1226.0</ele><time>2026-05-03T14:02:11.969Z</time></trkpt><trkpt lat="46.5117062" lon="12.6727535"><ele>1223.2</ele><time>2026-05-03T14:02:12.968Z</time></trkpt><trkpt lat="46.5117604" lon="12.6728741"><ele>1220.3999999999999</ele><time>2026-05-03T14:02:13.969Z</time></trkpt><trkpt lat="46.5117973" lon="12.6730107"><ele>1217.6</ele><time>2026-05-03T14:02:14.968Z</time></trkpt><trkpt lat="46.5118288" lon="12.6731606"><ele>1214.8</ele><time>2026-05-03T14:02:15.969Z</time></trkpt><trkpt lat="46.5118581" lon="12.6733179"><ele>1212.0</ele><time>2026-05-03T14:02:16.969Z</time></trkpt><trkpt lat="46.5118902" lon="12.6734857"><ele>1214.5</ele><time>2026-05-03T14:02:17.969Z</time></trkpt><trkpt lat="46.5119364" lon="12.6736519"><ele>1217.0</ele><time>2026-05-03T14:02:18.97Z</time></trkpt><trkpt lat="46.5119833" lon="12.6738114"><ele>1219.5</ele><time>2026-05-03T14:02:19.969Z</time></trkpt><trkpt lat="46.5120315" lon="12.673972"><ele>1222.0</ele><time>2026-05-03T14:02:20.969Z</time></trkpt><trkpt lat="46.5120858" lon="12.6741247"><ele>1222.0</ele><time>2026-05-03T14:02:21.969Z</time></trkpt><trkpt lat="46.5121391" lon="12.6742761"><ele>1222.0</ele><time>2026-05-03T14:02:22.969Z</time></trkpt><trkpt lat="46.5121945" lon="12.6744296"><ele>1222.0</ele><time>2026-05-03T14:02:23.969Z</time></trkpt><trkpt lat="46.5122305" lon="12.6745833"><ele>1222.0</ele><time>2026-05-03T14:02:24.97Z</time></trkpt><trkpt lat="46.5122621" lon="12.6747328"><ele>1218.8</ele><time>2026-05-03T14:02:25.968Z</time></trkpt><trkpt lat="46.5122993" lon="12.6748787"><ele>1215.6</ele><time>2026-05-03T14:02:26.968Z</time></trkpt><trkpt lat="46.512336" lon="12.6750263"><ele>1212.3999999999999</ele><time>2026-05-03T14:02:27.969Z</time></trkpt><trkpt lat="46.5123536" lon="12.6751736"><ele>1209.2</ele><time>2026-05-03T14:02:28.969Z</time></trkpt><trkpt lat="46.5123464" lon="12.6753216"><ele>1206.0</ele><time>2026-05-03T14:02:29.969Z</time></trkpt><trkpt lat="46.5123366" lon="12.6754593"><ele>1202.6</ele><time>2026-05-03T14:02:30.969Z</time></trkpt><trkpt lat="46.5123343" lon="12.6755949"><ele>1199.1999999999998</ele><time>2026-05-03T14:02:31.97Z</time></trkpt><trkpt lat="46.512348" lon="12.6757298"><ele>1195.8000000000002</ele><time>2026-05-03T14:02:32.969Z</time></trkpt><trkpt lat="46.5123878" lon="12.6758592"><ele>1192.4</ele><time>2026-05-03T14:02:33.97Z</time></trkpt><trkpt lat="46.5124515" lon="12.6759631"><ele>1189.0</ele><time>2026-05-03T14:02:34.968Z</time></trkpt><trkpt lat="46.5125208" lon="12.6760366"><ele>1186.8</ele><time>2026-05-03T14:02:35.969Z</time></trkpt><trkpt lat="46.5125791" lon="12.6761101"><ele>1184.6000000000001</ele><time>2026-05-03T14:02:36.969Z</time></trkpt><trkpt lat="46.5126118" lon="12.6761987"><ele>1182.4</ele><time>2026-05-03T14:02:37.969Z</time></trkpt><trkpt lat="46.5125842" lon="12.6763669"><ele>1180.2</ele><time>2026-05-03T14:02:39.968Z</time></trkpt><trkpt lat="46.5124694" lon="12.6764366"><ele>1178.0</ele><time>2026-05-03T14:02:41.968Z</time></trkpt><trkpt lat="46.512403" lon="12.6764092"><ele>1178.0</ele><time>2026-05-03T14:02:42.968Z</time></trkpt><trkpt lat="46.5123377" lon="12.6763409"><ele>1178.0</ele><time>2026-05-03T14:02:43.968Z</time></trkpt><trkpt lat="46.5122711" lon="12.6762377"><ele>1178.0</ele><time>2026-05-03T14:02:44.969Z</time></trkpt><trkpt lat="46.512208" lon="12.6761074"><ele>1178.0</ele><time>2026-05-03T14:02:45.969Z</time></trkpt><trkpt lat="46.5121529" lon="12.6759692"><ele>1178.0</ele><time>2026-05-03T14:02:46.969Z</time></trkpt><trkpt lat="46.5121001" lon="12.6758284"><ele>1176.4</ele><time>2026-05-03T14:02:47.969Z</time></trkpt><trkpt lat="46.5120486" lon="12.6756841"><ele>1174.8</ele><time>2026-05-03T14:02:48.969Z</time></trkpt><trkpt lat="46.5120135" lon="12.6755339"><ele>1173.2</ele><time>2026-05-03T14:02:49.97Z</time></trkpt><trkpt lat="46.5119976" lon="12.6753802"><ele>1171.6</ele><time>2026-05-03T14:02:50.968Z</time></trkpt><trkpt lat="46.5119909" lon="12.6752271"><ele>1170.0</ele><time>2026-05-03T14:02:51.969Z</time></trkpt><trkpt lat="46.5119858" lon="12.6750751"><ele>1170.0</ele><time>2026-05-03T14:02:52.969Z</time></trkpt><trkpt lat="46.5119821" lon="12.6749245"><ele>1170.0</ele><time>2026-05-03T14:02:53.969Z</time></trkpt><trkpt lat="46.5119628" lon="12.6747814"><ele>1170.0</ele><time>2026-05-03T14:02:54.969Z</time></trkpt><trkpt lat="46.5119184" lon="12.6746527"><ele>1170.0</ele><time>2026-05-03T14:02:55.969Z</time></trkpt><trkpt lat="46.5118539" lon="12.6745525"><ele>1170.0</ele><time>2026-05-03T14:02:56.969Z</time></trkpt><trkpt lat="46.5117704" lon="12.6744871"><ele>1170.0</ele><time>2026-05-03T14:02:57.969Z</time></trkpt><trkpt lat="46.5116668" lon="12.6744574"><ele>1170.0</ele><time>2026-05-03T14:02:58.969Z</time></trkpt><trkpt lat="46.5115474" lon="12.6744753"><ele>1170.0</ele><time>2026-05-03T14:02:59.969Z</time></trkpt><trkpt lat="46.5114182" lon="12.6745287"><ele>1170.0</ele><time>2026-05-03T14:03:00.968Z</time></trkpt><trkpt lat="46.5112907" lon="12.6745879"><ele>1170.75</ele><time>2026-05-03T14:03:01.968Z</time></trkpt><trkpt lat="46.5111637" lon="12.6746482"><ele>1171.5</ele><time>2026-05-03T14:03:02.97Z</time></trkpt><trkpt lat="46.5110434" lon="12.6747025"><ele>1172.25</ele><time>2026-05-03T14:03:03.969Z</time></trkpt><trkpt lat="46.5109321" lon="12.6747518"><ele>1173.0</ele><time>2026-05-03T14:03:04.969Z</time></trkpt><trkpt lat="46.5108324" lon="12.6748047"><ele>1173.0</ele><time>2026-05-03T14:03:05.969Z</time></trkpt><trkpt lat="46.5107446" lon="12.6748803"><ele>1173.0</ele><time>2026-05-03T14:03:06.97Z</time></trkpt><trkpt lat="46.51068" lon="12.6749885"><ele>1173.0</ele><time>2026-05-03T14:03:07.968Z</time></trkpt><trkpt lat="46.5106416" lon="12.6751111"><ele>1173.0</ele><time>2026-05-03T14:03:08.969Z</time></trkpt><trkpt lat="46.5106317" lon="12.6752359"><ele>1173.0</ele><time>2026-05-03T14:03:09.968Z</time></trkpt><trkpt lat="46.5106519" lon="12.6753531"><ele>1171.2</ele><time>2026-05-03T14:03:10.969Z</time></trkpt><trkpt lat="46.5107098" lon="12.6754628"><ele>1169.4</ele><time>2026-05-03T14:03:11.97Z</time></trkpt><trkpt lat="46.510798" lon="12.6755456"><ele>1167.6000000000001</ele><time>2026-05-03T14:03:12.968Z</time></trkpt><trkpt lat="46.5108963" lon="12.6756196"><ele>1165.8</ele><time>2026-05-03T14:03:13.969Z</time></trkpt><trkpt lat="46.510979" lon="12.6757247"><ele>1164.0</ele><time>2026-05-03T14:03:14.969Z</time></trkpt><trkpt lat="46.5110406" lon="12.6758636"><ele>1164.0</ele><time>2026-05-03T14:03:15.969Z</time></trkpt><trkpt lat="46.5110674" lon="12.6760311"><ele>1164.0</ele><time>2026-05-03T14:03:16.969Z</time></trkpt><trkpt lat="46.5110674" lon="12.6762207"><ele>1164.0</ele><time>2026-05-03T14:03:17.969Z</time></trkpt><trkpt lat="46.5110605" lon="12.6764129"><ele>1164.0</ele><time>2026-05-03T14:03:18.968Z</time></trkpt><trkpt lat="46.5110564" lon="12.6765992"><ele>1161.5</ele><time>2026-05-03T14:03:19.97Z</time></trkpt><trkpt lat="46.5110534" lon="12.676781"><ele>1159.0</ele><time>2026-05-03T14:03:20.968Z</time></trkpt><trkpt lat="46.5110503" lon="12.6769583"><ele>1156.5</ele><time>2026-05-03T14:03:21.968Z</time></trkpt><trkpt lat="46.5110533" lon="12.6771392"><ele>1154.0</ele><time>2026-05-03T14:03:22.969Z</time></trkpt><trkpt lat="46.5110686" lon="12.6773312"><ele>1153.5</ele><time>2026-05-03T14:03:23.969Z</time></trkpt><trkpt lat="46.5110933" lon="12.6775331"><ele>1153.0</ele><time>2026-05-03T14:03:24.968Z</time></trkpt><trkpt lat="46.5111311" lon="12.6777382"><ele>1152.5</ele><time>2026-05-03T14:03:25.97Z</time></trkpt><trkpt lat="46.511184" lon="12.6779423"><ele>1152.0</ele><time>2026-05-03T14:03:26.968Z</time></trkpt><trkpt lat="46.5112456" lon="12.6781373"><ele>1152.25</ele><time>2026-05-03T14:03:27.969Z</time></trkpt><trkpt lat="46.5113093" lon="12.6783278"><ele>1152.5</ele><time>2026-05-03T14:03:28.969Z</time></trkpt><trkpt lat="46.5113721" lon="12.6785123"><ele>1152.75</ele><time>2026-05-03T14:03:29.969Z</time></trkpt><trkpt lat="46.5114339" lon="12.6786924"><ele>1153.0</ele><time>2026-05-03T14:03:30.969Z</time></trkpt><trkpt lat="46.5115009" lon="12.6788492"><ele>1153.0</ele><time>2026-05-03T14:03:31.968Z</time></trkpt><trkpt lat="46.5115747" lon="12.6789875"><ele>1153.0</ele><time>2026-05-03T14:03:32.969Z</time></trkpt><trkpt lat="46.5116703" lon="12.6790986"><ele>1153.0</ele><time>2026-05-03T14:03:33.968Z</time></trkpt><trkpt lat="46.5117741" lon="12.6791849"><ele>1153.0</ele><time>2026-05-03T14:03:34.969Z</time></trkpt><trkpt lat="46.511891" lon="12.6792298"><ele>1153.0</ele><time>2026-05-03T14:03:35.969Z</time></trkpt><trkpt lat="46.512009" lon="12.6792322"><ele>1153.0</ele><time>2026-05-03T14:03:36.969Z</time></trkpt><trkpt lat="46.5121227" lon="12.6792113"><ele>1153.0</ele><time>2026-05-03T14:03:37.968Z</time></trkpt><trkpt lat="46.5122343" lon="12.6792192"><ele>1153.0</ele><time>2026-05-03T14:03:38.97Z</time></trkpt><trkpt lat="46.5123422" lon="12.6792552"><ele>1151.8</ele><time>2026-05-03T14:03:39.97Z</time></trkpt><trkpt lat="46.5124329" lon="12.6793212"><ele>1150.6</ele><time>2026-05-03T14:03:40.969Z</time></trkpt><trkpt lat="46.512503" lon="12.6794106"><ele>1149.4</ele><time>2026-05-03T14:03:41.969Z</time></trkpt><trkpt lat="46.512545" lon="12.6795287"><ele>1148.2</ele><time>2026-05-03T14:03:42.969Z</time></trkpt><trkpt lat="46.5125617" lon="12.6796764"><ele>1147.0</ele><time>2026-05-03T14:03:43.969Z</time></trkpt><trkpt lat="46.5125732" lon="12.679845"><ele>1142.5</ele><time>2026-05-03T14:03:44.97Z</time></trkpt><trkpt lat="46.5125925" lon="12.6800081"><ele>1138.0</ele><time>2026-05-03T14:03:45.969Z</time></trkpt><trkpt lat="46.5126334" lon="12.6801558"><ele>1133.5</ele><time>2026-05-03T14:03:46.968Z</time></trkpt><trkpt lat="46.5126807" lon="12.6803097"><ele>1129.0</ele><time>2026-05-03T14:03:47.969Z</time></trkpt><trkpt lat="46.512819" lon="12.6803858"><ele>1133.75</ele><time>2026-05-03T14:03:48.969Z</time></trkpt><trkpt lat="46.5129246" lon="12.6805033"><ele>1138.5</ele><time>2026-05-03T14:03:49.969Z</time></trkpt><trkpt lat="46.5130185" lon="12.680629"><ele>1143.25</ele><time>2026-05-03T14:03:50.97Z</time></trkpt><trkpt lat="46.5131017" lon="12.6807665"><ele>1148.0</ele><time>2026-05-03T14:03:51.968Z</time></trkpt><trkpt lat="46.5131725" lon="12.680926"><ele>1145.0</ele><time>2026-05-03T14:03:52.969Z</time></trkpt><trkpt lat="46.5132191" lon="12.681115"><ele>1142.0</ele><time>2026-05-03T14:03:53.969Z</time></trkpt><trkpt lat="46.5132472" lon="12.6813256"><ele>1139.0</ele><time>2026-05-03T14:03:54.969Z</time></trkpt><trkpt lat="46.5132732" lon="12.6815361"><ele>1136.0</ele><time>2026-05-03T14:03:55.968Z</time></trkpt><trkpt lat="46.5133191" lon="12.6817453"><ele>1132.5</ele><time>2026-05-03T14:03:56.969Z</time></trkpt><trkpt lat="46.5133741" lon="12.6819417"><ele>1129.0</ele><time>2026-05-03T14:03:57.969Z</time></trkpt><trkpt lat="46.5134438" lon="12.6821255"><ele>1125.5</ele><time>2026-05-03T14:03:58.969Z</time></trkpt><trkpt lat="46.5135111" lon="12.6823002"><ele>1122.0</ele><time>2026-05-03T14:03:59.969Z</time></trkpt><trkpt lat="46.5135648" lon="12.6824784"><ele>1122.0</ele><time>2026-05-03T14:04:00.968Z</time></trkpt><trkpt lat="46.5136009" lon="12.6826516"><ele>1122.0</ele><time>2026-05-03T14:04:01.969Z</time></trkpt><trkpt lat="46.5136487" lon="12.682805"><ele>1122.0</ele><time>2026-05-03T14:04:02.968Z</time></trkpt><trkpt lat="46.5137228" lon="12.682942"><ele>1122.0</ele><time>2026-05-03T14:04:03.969Z</time></trkpt><trkpt lat="46.5138206" lon="12.6830728"><ele>1123.75</ele><time>2026-05-03T14:04:04.969Z</time></trkpt><trkpt lat="46.5139298" lon="12.683211"><ele>1125.5</ele><time>2026-05-03T14:04:05.97Z</time></trkpt><trkpt lat="46.5140456" lon="12.6833501"><ele>1127.25</ele><time>2026-05-03T14:04:06.969Z</time></trkpt><trkpt lat="46.5141616" lon="12.6834913"><ele>1129.0</ele><time>2026-05-03T14:04:07.969Z</time></trkpt><trkpt lat="46.5142761" lon="12.6836354"><ele>1129.0</ele><time>2026-05-03T14:04:08.969Z</time></trkpt><trkpt lat="46.514392" lon="12.6837732"><ele>1129.0</ele><time>2026-05-03T14:04:09.968Z</time></trkpt><trkpt lat="46.5145021" lon="12.6839119"><ele>1129.0</ele><time>2026-05-03T14:04:10.969Z</time></trkpt><trkpt lat="46.5146069" lon="12.6840575"><ele>1129.0</ele><time>2026-05-03T14:04:11.969Z</time></trkpt><trkpt lat="46.5147026" lon="12.6842076"><ele>1129.0</ele><time>2026-05-03T14:04:12.969Z</time></trkpt><trkpt lat="46.5147945" lon="12.6843565"><ele>1129.0</ele><time>2026-05-03T14:04:13.968Z</time></trkpt><trkpt lat="46.514889" lon="12.6844995"><ele>1129.0</ele><time>2026-05-03T14:04:14.968Z</time></trkpt><trkpt lat="46.5149808" lon="12.6846371"><ele>1129.0</ele><time>2026-05-03T14:04:15.968Z</time></trkpt><trkpt lat="46.5150734" lon="12.684776"><ele>1121.0</ele><time>2026-05-03T14:04:16.968Z</time></trkpt><trkpt lat="46.515164" lon="12.6849273"><ele>1113.0</ele><time>2026-05-03T14:04:17.97Z</time></trkpt><trkpt lat="46.5152505" lon="12.6850938"><ele>1105.0</ele><time>2026-05-03T14:04:18.969Z</time></trkpt><trkpt lat="46.5153248" lon="12.6852673"><ele>1097.0</ele><time>2026-05-03T14:04:19.969Z</time></trkpt><trkpt lat="46.515384" lon="12.6854494"><ele>1098.0</ele><time>2026-05-03T14:04:20.969Z</time></trkpt><trkpt lat="46.5154327" lon="12.6856445"><ele>1099.0</ele><time>2026-05-03T14:04:21.969Z</time></trkpt><trkpt lat="46.5154638" lon="12.685854"><ele>1100.0</ele><time>2026-05-03T14:04:22.968Z</time></trkpt><trkpt lat="46.5154845" lon="12.6860561"><ele>1101.0</ele><time>2026-05-03T14:04:23.969Z</time></trkpt><trkpt lat="46.5155096" lon="12.6862537"><ele>1096.5</ele><time>2026-05-03T14:04:24.968Z</time></trkpt><trkpt lat="46.5155472" lon="12.6864455"><ele>1092.0</ele><time>2026-05-03T14:04:25.969Z</time></trkpt><trkpt lat="46.5156054" lon="12.6866233"><ele>1087.5</ele><time>2026-05-03T14:04:26.969Z</time></trkpt><trkpt lat="46.5156753" lon="12.6867933"><ele>1083.0</ele><time>2026-05-03T14:04:27.968Z</time></trkpt><trkpt lat="46.5157521" lon="12.6869565"><ele>1079.25</ele><time>2026-05-03T14:04:28.97Z</time></trkpt><trkpt lat="46.5158327" lon="12.6871088"><ele>1075.5</ele><time>2026-05-03T14:04:29.969Z</time></trkpt><trkpt lat="46.5159185" lon="12.6872555"><ele>1071.75</ele><time>2026-05-03T14:04:30.969Z</time></trkpt><trkpt lat="46.5160088" lon="12.6873943"><ele>1068.0</ele><time>2026-05-03T14:04:31.969Z</time></trkpt><trkpt lat="46.5161035" lon="12.6875205"><ele>1068.0</ele><time>2026-05-03T14:04:32.969Z</time></trkpt><trkpt lat="46.5162033" lon="12.6876314"><ele>1068.0</ele><time>2026-05-03T14:04:33.969Z</time></trkpt><trkpt lat="46.5163067" lon="12.6877171"><ele>1068.0</ele><time>2026-05-03T14:04:34.969Z</time></trkpt><trkpt lat="46.5164085" lon="12.6877814"><ele>1068.0</ele><time>2026-05-03T14:04:35.969Z</time></trkpt><trkpt lat="46.5165007" lon="12.6878407"><ele>1068.8333333333333</ele><time>2026-05-03T14:04:36.969Z</time></trkpt><trkpt lat="46.5165783" lon="12.6879152"><ele>1069.6666666666667</ele><time>2026-05-03T14:04:37.969Z</time></trkpt><trkpt lat="46.5166296" lon="12.6880113"><ele>1070.5</ele><time>2026-05-03T14:04:38.969Z</time></trkpt><trkpt lat="46.5166477" lon="12.6881118"><ele>1071.3333333333335</ele><time>2026-05-03T14:04:39.969Z</time></trkpt><trkpt lat="46.5166298" lon="12.688208"><ele>1072.1666666666667</ele><time>2026-05-03T14:04:40.969Z</time></trkpt><trkpt lat="46.5165822" lon="12.6882702"><ele>1073.0</ele><time>2026-05-03T14:04:41.969Z</time></trkpt><trkpt lat="46.516452" lon="12.6882708"><ele>1073.0</ele><time>2026-05-03T14:04:43.97Z</time></trkpt><trkpt lat="46.5163754" lon="12.6882273"><ele>1073.0</ele><time>2026-05-03T14:04:44.969Z</time></trkpt><trkpt lat="46.5162785" lon="12.6881485"><ele>1073.0</ele><time>2026-05-03T14:04:45.969Z</time></trkpt><trkpt lat="46.5161729" lon="12.688091"><ele>1073.0</ele><time>2026-05-03T14:04:46.969Z</time></trkpt><trkpt lat="46.51607" lon="12.6880364"><ele>1073.0</ele><time>2026-05-03T14:04:47.969Z</time></trkpt><trkpt lat="46.5159712" lon="12.6879732"><ele>1072.0</ele><time>2026-05-03T14:04:48.97Z</time></trkpt><trkpt lat="46.5158798" lon="12.6878924"><ele>1071.0</ele><time>2026-05-03T14:04:49.969Z</time></trkpt><trkpt lat="46.5157963" lon="12.6877974"><ele>1070.0</ele><time>2026-05-03T14:04:50.968Z</time></trkpt><trkpt lat="46.5157177" lon="12.687697"><ele>1069.0</ele><time>2026-05-03T14:04:51.968Z</time></trkpt><trkpt lat="46.5156406" lon="12.6875949"><ele>1068.0</ele><time>2026-05-03T14:04:52.969Z</time></trkpt><trkpt lat="46.5155641" lon="12.6874965"><ele>1068.0</ele><time>2026-05-03T14:04:53.968Z</time></trkpt><trkpt lat="46.5154923" lon="12.6874095"><ele>1068.0</ele><time>2026-05-03T14:04:54.969Z</time></trkpt><trkpt lat="46.5154247" lon="12.6873313"><ele>1068.0</ele><time>2026-05-03T14:04:55.969Z</time></trkpt><trkpt lat="46.5153601" lon="12.6872692"><ele>1068.0</ele><time>2026-05-03T14:04:56.969Z</time></trkpt><trkpt lat="46.5152921" lon="12.6872366"><ele>1068.0</ele><time>2026-05-03T14:04:57.968Z</time></trkpt><trkpt lat="46.5152249" lon="12.6872258"><ele>1068.0</ele><time>2026-05-03T14:04:58.968Z</time></trkpt><trkpt lat="46.5151328" lon="12.6873162"><ele>1064.0</ele><time>2026-05-03T14:05:00.968Z</time></trkpt><trkpt lat="46.5151551" lon="12.6874772"><ele>1060.0</ele><time>2026-05-03T14:05:02.969Z</time></trkpt><trkpt lat="46.5152119" lon="12.687552"><ele>1056.0</ele><time>2026-05-03T14:05:03.969Z</time></trkpt><trkpt lat="46.5152677" lon="12.68764"><ele>1052.0</ele><time>2026-05-03T14:05:04.969Z</time></trkpt><trkpt lat="46.5153155" lon="12.6877418"><ele>1048.0</ele><time>2026-05-03T14:05:05.969Z</time></trkpt><trkpt lat="46.5153517" lon="12.6878459"><ele>1044.0</ele><time>2026-05-03T14:05:06.969Z</time></trkpt><trkpt lat="46.5153825" lon="12.6879384"><ele>1045.2</ele><time>2026-05-03T14:05:07.969Z</time></trkpt><trkpt lat="46.5154213" lon="12.6880322"><ele>1046.4</ele><time>2026-05-03T14:05:08.969Z</time></trkpt><trkpt lat="46.5154764" lon="12.6881539"><ele>1047.6</ele><time>2026-05-03T14:05:09.968Z</time></trkpt><trkpt lat="46.5155283" lon="12.6882602"><ele>1048.8</ele><time>2026-05-03T14:05:10.969Z</time></trkpt><trkpt lat="46.515574" lon="12.6883543"><ele>1050.0</ele><time>2026-05-03T14:05:11.969Z</time></trkpt><trkpt lat="46.5156602" lon="12.688504"><ele>1050.0</ele><time>2026-05-03T14:05:13.969Z</time></trkpt><trkpt lat="46.5157116" lon="12.6885848"><ele>1050.0</ele><time>2026-05-03T14:05:14.969Z</time></trkpt><trkpt lat="46.5157543" lon="12.6886555"><ele>1050.0</ele><time>2026-05-03T14:05:15.969Z</time></trkpt><trkpt lat="46.51582" lon="12.6887518"><ele>1050.0</ele><time>2026-05-03T14:05:17.97Z</time></trkpt><trkpt lat="46.5159251" lon="12.6888529"><ele>1050.0</ele><time>2026-05-03T14:05:19.969Z</time></trkpt><trkpt lat="46.5159941" lon="12.6889561"><ele>1047.25</ele><time>2026-05-03T14:05:20.969Z</time></trkpt><trkpt lat="46.516065" lon="12.6890903"><ele>1044.5</ele><time>2026-05-03T14:05:21.968Z</time></trkpt><trkpt lat="46.5161343" lon="12.6892415"><ele>1041.75</ele><time>2026-05-03T14:05:22.969Z</time></trkpt><trkpt lat="46.5162108" lon="12.6894065"><ele>1039.0</ele><time>2026-05-03T14:05:23.969Z</time></trkpt><trkpt lat="46.5162912" lon="12.6895841"><ele>1039.0</ele><time>2026-05-03T14:05:24.969Z</time></trkpt><trkpt lat="46.5163676" lon="12.6897574"><ele>1039.0</ele><time>2026-05-03T14:05:25.968Z</time></trkpt><trkpt lat="46.5164426" lon="12.689918"><ele>1039.0</ele><time>2026-05-03T14:05:26.969Z</time></trkpt><trkpt lat="46.5165201" lon="12.6900642"><ele>1039.0</ele><time>2026-05-03T14:05:27.968Z</time></trkpt><trkpt lat="46.5166168" lon="12.6901933"><ele>1041.25</ele><time>2026-05-03T14:05:28.969Z</time></trkpt><trkpt lat="46.5167304" lon="12.6903065"><ele>1043.5</ele><time>2026-05-03T14:05:29.969Z</time></trkpt><trkpt lat="46.5168581" lon="12.6904001"><ele>1045.75</ele><time>2026-05-03T14:05:30.969Z</time></trkpt><trkpt lat="46.5169904" lon="12.6904805"><ele>1048.0</ele><time>2026-05-03T14:05:31.968Z</time></trkpt><trkpt lat="46.5171148" lon="12.690566"><ele>1048.0</ele><time>2026-05-03T14:05:32.969Z</time></trkpt><trkpt lat="46.5172343" lon="12.6906721"><ele>1048.0</ele><time>2026-05-03T14:05:33.969Z</time></trkpt><trkpt lat="46.5173453" lon="12.690813"><ele>1048.0</ele><time>2026-05-03T14:05:34.969Z</time></trkpt><trkpt lat="46.5174483" lon="12.6909858"><ele>1048.0</ele><time>2026-05-03T14:05:35.969Z</time></trkpt><trkpt lat="46.5175404" lon="12.6911615"><ele>1043.5</ele><time>2026-05-03T14:05:36.969Z</time></trkpt><trkpt lat="46.5176281" lon="12.6913363"><ele>1039.0</ele><time>2026-05-03T14:05:37.968Z</time></trkpt><trkpt lat="46.5177179" lon="12.6915"><ele>1034.5</ele><time>2026-05-03T14:05:38.969Z</time></trkpt><trkpt lat="46.5178042" lon="12.691661"><ele>1030.0</ele><time>2026-05-03T14:05:39.969Z</time></trkpt><trkpt lat="46.5178803" lon="12.6918285"><ele>1031.25</ele><time>2026-05-03T14:05:40.968Z</time></trkpt><trkpt lat="46.5179487" lon="12.6920099"><ele>1032.5</ele><time>2026-05-03T14:05:41.969Z</time></trkpt><trkpt lat="46.5180034" lon="12.692201"><ele>1033.75</ele><time>2026-05-03T14:05:42.969Z</time></trkpt><trkpt lat="46.5180533" lon="12.6923906"><ele>1035.0</ele><time>2026-05-03T14:05:43.968Z</time></trkpt><trkpt lat="46.5180955" lon="12.6925897"><ele>1031.25</ele><time>2026-05-03T14:05:44.97Z</time></trkpt><trkpt lat="46.5181291" lon="12.6927942"><ele>1027.5</ele><time>2026-05-03T14:05:45.968Z</time></trkpt><trkpt lat="46.5181613" lon="12.6929876"><ele>1023.75</ele><time>2026-05-03T14:05:46.969Z</time></trkpt><trkpt lat="46.5181919" lon="12.69318"><ele>1020.0</ele><time>2026-05-03T14:05:47.97Z</time></trkpt><trkpt lat="46.5182219" lon="12.6933647"><ele>1020.0</ele><time>2026-05-03T14:05:48.968Z</time></trkpt><trkpt lat="46.5182474" lon="12.6935475"><ele>1020.0</ele><time>2026-05-03T14:05:49.969Z</time></trkpt><trkpt lat="46.5182665" lon="12.6937048"><ele>1020.0</ele><time>2026-05-03T14:05:50.969Z</time></trkpt><trkpt lat="46.5182708" lon="12.6938609"><ele>1020.0</ele><time>2026-05-03T14:05:51.968Z</time></trkpt><trkpt lat="46.5182467" lon="12.6940072"><ele>1020.0</ele><time>2026-05-03T14:05:52.969Z</time></trkpt><trkpt lat="46.5182097" lon="12.6941449"><ele>1019.4</ele><time>2026-05-03T14:05:53.969Z</time></trkpt><trkpt lat="46.5181855" lon="12.6942853"><ele>1018.8</ele><time>2026-05-03T14:05:54.969Z</time></trkpt><trkpt lat="46.5181833" lon="12.6944345"><ele>1018.2</ele><time>2026-05-03T14:05:55.969Z</time></trkpt><trkpt lat="46.5182007" lon="12.6945777"><ele>1017.6</ele><time>2026-05-03T14:05:56.97Z</time></trkpt><trkpt lat="46.5182404" lon="12.6947155"><ele>1017.0</ele><time>2026-05-03T14:05:57.969Z</time></trkpt><trkpt lat="46.5182961" lon="12.6948503"><ele>1016.8</ele><time>2026-05-03T14:05:58.969Z</time></trkpt><trkpt lat="46.5183618" lon="12.6949762"><ele>1016.6</ele><time>2026-05-03T14:05:59.969Z</time></trkpt><trkpt lat="46.5184364" lon="12.6950809"><ele>1016.3999999999999</ele><time>2026-05-03T14:06:00.968Z</time></trkpt><trkpt lat="46.5185305" lon="12.6951551"><ele>1016.1999999999999</ele><time>2026-05-03T14:06:01.969Z</time></trkpt><trkpt lat="46.5186373" lon="12.6952002"><ele>1016.0</ele><time>2026-05-03T14:06:02.969Z</time></trkpt><trkpt lat="46.5187374" lon="12.695239"><ele>1017.5999999999999</ele><time>2026-05-03T14:06:03.968Z</time></trkpt><trkpt lat="46.5188264" lon="12.6953133"><ele>1019.1999999999999</ele><time>2026-05-03T14:06:04.968Z</time></trkpt><trkpt lat="46.5189023" lon="12.6954171"><ele>1020.8000000000001</ele><time>2026-05-03T14:06:05.969Z</time></trkpt><trkpt lat="46.5189594" lon="12.6955576"><ele>1022.4000000000001</ele><time>2026-05-03T14:06:06.969Z</time></trkpt><trkpt lat="46.5190082" lon="12.695691"><ele>1024.0</ele><time>2026-05-03T14:06:07.969Z</time></trkpt><trkpt lat="46.5191171" lon="12.6958966"><ele>1021.3333333333333</ele><time>2026-05-03T14:06:08.969Z</time></trkpt><trkpt lat="46.519171" lon="12.6961444"><ele>1018.6666666666667</ele><time>2026-05-03T14:06:09.969Z</time></trkpt><trkpt lat="46.5192376" lon="12.6963409"><ele>1016.0</ele><time>2026-05-03T14:06:10.969Z</time></trkpt><trkpt lat="46.5193224" lon="12.6965695"><ele>1016.0</ele><time>2026-05-03T14:06:11.97Z</time></trkpt><trkpt lat="46.5194129" lon="12.6967643"><ele>1016.0</ele><time>2026-05-03T14:06:12.968Z</time></trkpt><trkpt lat="46.5195188" lon="12.6969628"><ele>1016.0</ele><time>2026-05-03T14:06:13.968Z</time></trkpt><trkpt lat="46.5195932" lon="12.6970808"><ele>1016.0</ele><time>2026-05-03T14:06:14.969Z</time></trkpt><trkpt lat="46.5196362" lon="12.69719"><ele>1014.4</ele><time>2026-05-03T14:06:15.969Z</time></trkpt><trkpt lat="46.5196489" lon="12.6973091"><ele>1012.8</ele><time>2026-05-03T14:06:17.968Z</time></trkpt><trkpt lat="46.5196261" lon="12.6974444"><ele>1011.1999999999999</ele><time>2026-05-03T14:06:18.969Z</time></trkpt><trkpt lat="46.5195306" lon="12.6975618"><ele>1009.5999999999999</ele><time>2026-05-03T14:06:19.969Z</time></trkpt><trkpt lat="46.5195404" lon="12.6976676"><ele>1008.0</ele><time>2026-05-03T14:06:20.969Z</time></trkpt><trkpt lat="46.519585" lon="12.6977732"><ele>1012.5999999999999</ele><time>2026-05-03T14:06:21.968Z</time></trkpt><trkpt lat="46.5196237" lon="12.6978669"><ele>1017.1999999999999</ele><time>2026-05-03T14:06:22.969Z</time></trkpt><trkpt lat="46.5196585" lon="12.6980249"><ele>1021.8</ele><time>2026-05-03T14:06:24.969Z</time></trkpt><trkpt lat="46.5196517" lon="12.6981467"><ele>1026.3999999999999</ele><time>2026-05-03T14:06:25.969Z</time></trkpt><trkpt lat="46.5196574" lon="12.6983062"><ele>1031.0</ele><time>2026-05-03T14:06:26.97Z</time></trkpt><trkpt lat="46.519647" lon="12.6984701"><ele>1032.0</ele><time>2026-05-03T14:06:27.969Z</time></trkpt><trkpt lat="46.5196501" lon="12.6986927"><ele>1033.0</ele><time>2026-05-03T14:06:28.969Z</time></trkpt><trkpt lat="46.5196174" lon="12.6989088"><ele>1034.0</ele><time>2026-05-03T14:06:29.968Z</time></trkpt><trkpt lat="46.519606" lon="12.6990856"><ele>1035.0</ele><time>2026-05-03T14:06:30.969Z</time></trkpt><trkpt lat="46.519614" lon="12.6992333"><ele>1035.0</ele><time>2026-05-03T14:06:31.969Z</time></trkpt><trkpt lat="46.5196446" lon="12.6993607"><ele>1035.0</ele><time>2026-05-03T14:06:32.969Z</time></trkpt><trkpt lat="46.5196993" lon="12.6994745"><ele>1035.0</ele><time>2026-05-03T14:06:33.968Z</time></trkpt><trkpt lat="46.519779" lon="12.6995644"><ele>1035.0</ele><time>2026-05-03T14:06:34.969Z</time></trkpt><trkpt lat="46.5198639" lon="12.6996424"><ele>1035.0</ele><time>2026-05-03T14:06:35.968Z</time></trkpt><trkpt lat="46.5199536" lon="12.6997138"><ele>1031.75</ele><time>2026-05-03T14:06:36.969Z</time></trkpt><trkpt lat="46.5200353" lon="12.6997921"><ele>1028.5</ele><time>2026-05-03T14:06:37.969Z</time></trkpt><trkpt lat="46.5200621" lon="12.699918"><ele>1025.25</ele><time>2026-05-03T14:06:38.969Z</time></trkpt><trkpt lat="46.5201119" lon="12.7000498"><ele>1022.0</ele><time>2026-05-03T14:06:39.968Z</time></trkpt><trkpt lat="46.5202397" lon="12.7002071"><ele>1025.0</ele><time>2026-05-03T14:06:40.969Z</time></trkpt><trkpt lat="46.5202755" lon="12.7003839"><ele>1028.0</ele><time>2026-05-03T14:06:41.968Z</time></trkpt><trkpt lat="46.5203373" lon="12.7005775"><ele>1031.0</ele><time>2026-05-03T14:06:42.968Z</time></trkpt><trkpt lat="46.5203874" lon="12.7007753"><ele>1034.0</ele><time>2026-05-03T14:06:43.969Z</time></trkpt><trkpt lat="46.5204427" lon="12.7009724"><ele>1030.25</ele><time>2026-05-03T14:06:44.969Z</time></trkpt><trkpt lat="46.520496" lon="12.7011672"><ele>1026.5</ele><time>2026-05-03T14:06:45.969Z</time></trkpt><trkpt lat="46.5205376" lon="12.7013444"><ele>1022.75</ele><time>2026-05-03T14:06:46.969Z</time></trkpt><trkpt lat="46.5206404" lon="12.7014817"><ele>1019.0</ele><time>2026-05-03T14:06:47.969Z</time></trkpt><trkpt lat="46.5206791" lon="12.7016844"><ele>1019.0</ele><time>2026-05-03T14:06:48.97Z</time></trkpt><trkpt lat="46.5207389" lon="12.7018556"><ele>1019.0</ele><time>2026-05-03T14:06:49.969Z</time></trkpt><trkpt lat="46.5207951" lon="12.7020159"><ele>1019.0</ele><time>2026-05-03T14:06:50.968Z</time></trkpt><trkpt lat="46.5208569" lon="12.7021577"><ele>1019.0</ele><time>2026-05-03T14:06:51.969Z</time></trkpt><trkpt lat="46.520928" lon="12.7022879"><ele>1016.0</ele><time>2026-05-03T14:06:52.969Z</time></trkpt><trkpt lat="46.521017" lon="12.7023906"><ele>1013.0</ele><time>2026-05-03T14:06:53.969Z</time></trkpt><trkpt lat="46.5211121" lon="12.7024861"><ele>1010.0</ele><time>2026-05-03T14:06:54.969Z</time></trkpt><trkpt lat="46.5211971" lon="12.7026088"><ele>1007.0</ele><time>2026-05-03T14:06:55.969Z</time></trkpt><trkpt lat="46.5212804" lon="12.702731"><ele>1008.25</ele><time>2026-05-03T14:06:56.969Z</time></trkpt><trkpt lat="46.52138" lon="12.7028462"><ele>1009.5</ele><time>2026-05-03T14:06:57.969Z</time></trkpt><trkpt lat="46.5214775" lon="12.7029505"><ele>1010.75</ele><time>2026-05-03T14:06:58.968Z</time></trkpt><trkpt lat="46.5215737" lon="12.7030601"><ele>1012.0</ele><time>2026-05-03T14:06:59.969Z</time></trkpt><trkpt lat="46.5216565" lon="12.7031967"><ele>1012.0</ele><time>2026-05-03T14:07:00.969Z</time></trkpt><trkpt lat="46.5217375" lon="12.7033532"><ele>1012.0</ele><time>2026-05-03T14:07:01.969Z</time></trkpt><trkpt lat="46.5218284" lon="12.7035038"><ele>1012.0</ele><time>2026-05-03T14:07:02.968Z</time></trkpt><trkpt lat="46.5219249" lon="12.7036558"><ele>1012.0</ele><time>2026-05-03T14:07:03.969Z</time></trkpt><trkpt lat="46.5220122" lon="12.7038054"><ele>1013.4000000000001</ele><time>2026-05-03T14:07:04.969Z</time></trkpt><trkpt lat="46.5220903" lon="12.70395"><ele>1014.8000000000001</ele><time>2026-05-03T14:07:05.969Z</time></trkpt><trkpt lat="46.522152" lon="12.7040853"><ele>1016.2</ele><time>2026-05-03T14:07:06.969Z</time></trkpt><trkpt lat="46.52222" lon="12.7042017"><ele>1017.6</ele><time>2026-05-03T14:07:07.97Z</time></trkpt><trkpt lat="46.522295" lon="12.7042993"><ele>1019.0</ele><time>2026-05-03T14:07:08.969Z</time></trkpt><trkpt lat="46.5223902" lon="12.7043841"><ele>1014.0</ele><time>2026-05-03T14:07:09.969Z</time></trkpt><trkpt lat="46.5224892" lon="12.7044846"><ele>1009.0000000000001</ele><time>2026-05-03T14:07:10.969Z</time></trkpt><trkpt lat="46.5225731" lon="12.7045908"><ele>1004.0000000000001</ele><time>2026-05-03T14:07:11.968Z</time></trkpt><trkpt lat="46.5226513" lon="12.7046893"><ele>999.0</ele><time>2026-05-03T14:07:12.969Z</time></trkpt><trkpt lat="46.5227399" lon="12.7047575"><ele>994.0</ele><time>2026-05-03T14:07:13.969Z</time></trkpt><trkpt lat="46.5228155" lon="12.7048378"><ele>994.0</ele><time>2026-05-03T14:07:14.969Z</time></trkpt><trkpt lat="46.5228822" lon="12.7049441"><ele>994.0</ele><time>2026-05-03T14:07:15.969Z</time></trkpt><trkpt lat="46.5229322" lon="12.7050754"><ele>994.0</ele><time>2026-05-03T14:07:16.969Z</time></trkpt><trkpt lat="46.5229787" lon="12.7052358"><ele>994.0</ele><time>2026-05-03T14:07:17.969Z</time></trkpt><trkpt lat="46.5230285" lon="12.7054239"><ele>998.75</ele><time>2026-05-03T14:07:18.969Z</time></trkpt><trkpt lat="46.5230924" lon="12.7056066"><ele>1003.5</ele><time>2026-05-03T14:07:19.969Z</time></trkpt><trkpt lat="46.5231554" lon="12.7057835"><ele>1008.25</ele><time>2026-05-03T14:07:20.969Z</time></trkpt><trkpt lat="46.523212" lon="12.7059357"><ele>1013.0</ele><time>2026-05-03T14:07:21.969Z</time></trkpt><trkpt lat="46.5232667" lon="12.7060712"><ele>1009.0</ele><time>2026-05-03T14:07:22.969Z</time></trkpt><trkpt lat="46.5233352" lon="12.7061716"><ele>1005.0</ele><time>2026-05-03T14:07:23.969Z</time></trkpt><trkpt lat="46.5234122" lon="12.7062374"><ele>1001.0</ele><time>2026-05-03T14:07:24.968Z</time></trkpt><trkpt lat="46.5234938" lon="12.7062801"><ele>997.0</ele><time>2026-05-03T14:07:25.969Z</time></trkpt><trkpt lat="46.5235728" lon="12.7063442"><ele>993.0</ele><time>2026-05-03T14:07:26.969Z</time></trkpt><trkpt lat="46.5236229" lon="12.7064616"><ele>993.0</ele><time>2026-05-03T14:07:27.968Z</time></trkpt><trkpt lat="46.5236668" lon="12.7066012"><ele>993.0</ele><time>2026-05-03T14:07:28.969Z</time></trkpt><trkpt lat="46.5237105" lon="12.7067661"><ele>993.0</ele><time>2026-05-03T14:07:29.969Z</time></trkpt><trkpt lat="46.5237542" lon="12.7069374"><ele>993.0</ele><time>2026-05-03T14:07:30.969Z</time></trkpt><trkpt lat="46.5238019" lon="12.7071203"><ele>993.75</ele><time>2026-05-03T14:07:31.969Z</time></trkpt><trkpt lat="46.5238456" lon="12.7072914"><ele>994.5</ele><time>2026-05-03T14:07:32.969Z</time></trkpt><trkpt lat="46.5238851" lon="12.7074683"><ele>995.25</ele><time>2026-05-03T14:07:33.969Z</time></trkpt><trkpt lat="46.5239249" lon="12.7076403"><ele>996.0</ele><time>2026-05-03T14:07:34.968Z</time></trkpt><trkpt lat="46.5239683" lon="12.7077943"><ele>996.0</ele><time>2026-05-03T14:07:35.968Z</time></trkpt><trkpt lat="46.5240276" lon="12.7079304"><ele>995.9999999999999</ele><time>2026-05-03T14:07:36.968Z</time></trkpt><trkpt lat="46.5240943" lon="12.7080382"><ele>995.9999999999999</ele><time>2026-05-03T14:07:37.968Z</time></trkpt><trkpt lat="46.5241548" lon="12.7081408"><ele>996.0</ele><time>2026-05-03T14:07:38.968Z</time></trkpt><trkpt lat="46.5242059" lon="12.7082597"><ele>996.0</ele><time>2026-05-03T14:07:39.969Z</time></trkpt><trkpt lat="46.5242109" lon="12.7083915"><ele>996.0</ele><time>2026-05-03T14:07:40.968Z</time></trkpt><trkpt lat="46.5242083" lon="12.7085518"><ele>996.0</ele><time>2026-05-03T14:07:41.969Z</time></trkpt><trkpt lat="46.5242015" lon="12.7087282"><ele>996.0</ele><time>2026-05-03T14:07:42.968Z</time></trkpt><trkpt lat="46.5241982" lon="12.7089092"><ele>996.0</ele><time>2026-05-03T14:07:43.969Z</time></trkpt><trkpt lat="46.5241811" lon="12.7090811"><ele>992.25</ele><time>2026-05-03T14:07:44.968Z</time></trkpt><trkpt lat="46.5241683" lon="12.709257"><ele>988.5</ele><time>2026-05-03T14:07:45.968Z</time></trkpt><trkpt lat="46.5241715" lon="12.7094329"><ele>984.75</ele><time>2026-05-03T14:07:46.969Z</time></trkpt><trkpt lat="46.5241778" lon="12.7096024"><ele>981.0</ele><time>2026-05-03T14:07:47.969Z</time></trkpt><trkpt lat="46.5241644" lon="12.7097582"><ele>980.3333333333334</ele><time>2026-05-03T14:07:48.969Z</time></trkpt><trkpt lat="46.5241301" lon="12.7099007"><ele>979.6666666666667</ele><time>2026-05-03T14:07:49.968Z</time></trkpt><trkpt lat="46.5240968" lon="12.7100341"><ele>979.0</ele><time>2026-05-03T14:07:50.968Z</time></trkpt><trkpt lat="46.5240827" lon="12.710162"><ele>978.3333333333334</ele><time>2026-05-03T14:07:51.969Z</time></trkpt><trkpt lat="46.5240876" lon="12.7102812"><ele>977.6666666666667</ele><time>2026-05-03T14:07:52.969Z</time></trkpt><trkpt lat="46.5241212" lon="12.7103811"><ele>977.0</ele><time>2026-05-03T14:07:53.969Z</time></trkpt><trkpt lat="46.5241805" lon="12.7104568"><ele>975.4000000000001</ele><time>2026-05-03T14:07:54.97Z</time></trkpt><trkpt lat="46.5242585" lon="12.7104943"><ele>973.8000000000001</ele><time>2026-05-03T14:07:55.969Z</time></trkpt><trkpt lat="46.524347" lon="12.7105037"><ele>972.2</ele><time>2026-05-03T14:07:56.969Z</time></trkpt><trkpt lat="46.5244349" lon="12.7105305"><ele>970.6</ele><time>2026-05-03T14:07:57.968Z</time></trkpt><trkpt lat="46.5245372" lon="12.7105955"><ele>969.0</ele><time>2026-05-03T14:07:58.969Z</time></trkpt><trkpt lat="46.5246079" lon="12.7106912"><ele>974.8000000000001</ele><time>2026-05-03T14:07:59.968Z</time></trkpt><trkpt lat="46.5246687" lon="12.7107829"><ele>980.6000000000001</ele><time>2026-05-03T14:08:00.968Z</time></trkpt><trkpt lat="46.5246925" lon="12.7109075"><ele>986.4</ele><time>2026-05-03T14:08:01.968Z</time></trkpt><trkpt lat="46.5246946" lon="12.7110607"><ele>992.2</ele><time>2026-05-03T14:08:02.968Z</time></trkpt><trkpt lat="46.5246997" lon="12.7112343"><ele>998.0</ele><time>2026-05-03T14:08:03.97Z</time></trkpt><trkpt lat="46.5247257" lon="12.7114237"><ele>998.0</ele><time>2026-05-03T14:08:04.969Z</time></trkpt><trkpt lat="46.5247575" lon="12.711621"><ele>998.0</ele><time>2026-05-03T14:08:05.969Z</time></trkpt><trkpt lat="46.5247918" lon="12.7118148"><ele>998.0</ele><time>2026-05-03T14:08:06.969Z</time></trkpt><trkpt lat="46.5248268" lon="12.7120016"><ele>998.0</ele><time>2026-05-03T14:08:07.969Z</time></trkpt><trkpt lat="46.5248478" lon="12.7121896"><ele>994.25</ele><time>2026-05-03T14:08:08.968Z</time></trkpt><trkpt lat="46.5248441" lon="12.71239"><ele>990.5</ele><time>2026-05-03T14:08:09.968Z</time></trkpt><trkpt lat="46.5248271" lon="12.7125868"><ele>986.75</ele><time>2026-05-03T14:08:10.969Z</time></trkpt><trkpt lat="46.5248067" lon="12.7127761"><ele>983.0</ele><time>2026-05-03T14:08:11.969Z</time></trkpt><trkpt lat="46.5247781" lon="12.7129657"><ele>983.0</ele><time>2026-05-03T14:08:12.968Z</time></trkpt><trkpt lat="46.5247259" lon="12.7131597"><ele>983.0</ele><time>2026-05-03T14:08:13.969Z</time></trkpt><trkpt lat="46.5246604" lon="12.7133545"><ele>983.0</ele><time>2026-05-03T14:08:14.969Z</time></trkpt><trkpt lat="46.5245933" lon="12.7135607"><ele>983.0</ele><time>2026-05-03T14:08:15.97Z</time></trkpt><trkpt lat="46.5245261" lon="12.7137585"><ele>977.25</ele><time>2026-05-03T14:08:16.969Z</time></trkpt><trkpt lat="46.5244607" lon="12.7139542"><ele>971.5</ele><time>2026-05-03T14:08:17.969Z</time></trkpt><trkpt lat="46.5243998" lon="12.7141421"><ele>965.75</ele><time>2026-05-03T14:08:18.969Z</time></trkpt><trkpt lat="46.5243436" lon="12.71432"><ele>960.0</ele><time>2026-05-03T14:08:19.97Z</time></trkpt><trkpt lat="46.524285" lon="12.7144833"><ele>960.0</ele><time>2026-05-03T14:08:20.97Z</time></trkpt><trkpt lat="46.5242211" lon="12.714636"><ele>960.0</ele><time>2026-05-03T14:08:21.969Z</time></trkpt><trkpt lat="46.5241455" lon="12.7147706"><ele>960.0</ele><time>2026-05-03T14:08:22.969Z</time></trkpt><trkpt lat="46.524065" lon="12.7148816"><ele>960.0</ele><time>2026-05-03T14:08:23.969Z</time></trkpt><trkpt lat="46.5239925" lon="12.7149747"><ele>960.0</ele><time>2026-05-03T14:08:24.969Z</time></trkpt><trkpt lat="46.5239338" lon="12.7150641"><ele>960.0</ele><time>2026-05-03T14:08:25.969Z</time></trkpt><trkpt lat="46.523894" lon="12.7151575"><ele>960.0</ele><time>2026-05-03T14:08:26.969Z</time></trkpt><trkpt lat="46.5238873" lon="12.7152577"><ele>960.0</ele><time>2026-05-03T14:08:27.969Z</time></trkpt><trkpt lat="46.5239063" lon="12.7153532"><ele>960.0</ele><time>2026-05-03T14:08:28.969Z</time></trkpt><trkpt lat="46.5239522" lon="12.7154325"><ele>960.0</ele><time>2026-05-03T14:08:29.969Z</time></trkpt><trkpt lat="46.5240225" lon="12.7155063"><ele>960.3333333333334</ele><time>2026-05-03T14:08:30.969Z</time></trkpt><trkpt lat="46.5241073" lon="12.7155631"><ele>960.6666666666667</ele><time>2026-05-03T14:08:31.968Z</time></trkpt><trkpt lat="46.5241889" lon="12.7156097"><ele>961.0</ele><time>2026-05-03T14:08:32.969Z</time></trkpt><trkpt lat="46.5242753" lon="12.7156473"><ele>961.3333333333334</ele><time>2026-05-03T14:08:33.969Z</time></trkpt><trkpt lat="46.5243492" lon="12.7157098"><ele>961.6666666666667</ele><time>2026-05-03T14:08:34.968Z</time></trkpt><trkpt lat="46.5244064" lon="12.7158038"><ele>962.0</ele><time>2026-05-03T14:08:35.97Z</time></trkpt><trkpt lat="46.5244506" lon="12.7158956"><ele>962.0000000000001</ele><time>2026-05-03T14:08:36.969Z</time></trkpt><trkpt lat="46.5244692" lon="12.7159921"><ele>962.0</ele><time>2026-05-03T14:08:37.969Z</time></trkpt><trkpt lat="46.5244638" lon="12.7160999"><ele>962.0</ele><time>2026-05-03T14:08:38.969Z</time></trkpt><trkpt lat="46.524408" lon="12.7162134"><ele>962.0</ele><time>2026-05-03T14:08:39.969Z</time></trkpt><trkpt lat="46.5243626" lon="12.7163353"><ele>962.0000000000001</ele><time>2026-05-03T14:08:40.969Z</time></trkpt><trkpt lat="46.5243259" lon="12.7164541"><ele>962.0</ele><time>2026-05-03T14:08:41.969Z</time></trkpt><trkpt lat="46.5243085" lon="12.7165751"><ele>961.4000000000001</ele><time>2026-05-03T14:08:42.969Z</time></trkpt><trkpt lat="46.5243292" lon="12.7166965"><ele>960.8000000000001</ele><time>2026-05-03T14:08:43.969Z</time></trkpt><trkpt lat="46.52438" lon="12.7168063"><ele>960.2</ele><time>2026-05-03T14:08:44.968Z</time></trkpt><trkpt lat="46.5244512" lon="12.7169242"><ele>959.6</ele><time>2026-05-03T14:08:45.969Z</time></trkpt><trkpt lat="46.5245095" lon="12.7170587"><ele>959.0</ele><time>2026-05-03T14:08:46.968Z</time></trkpt><trkpt lat="46.5245512" lon="12.7172068"><ele>955.25</ele><time>2026-05-03T14:08:47.969Z</time></trkpt><trkpt lat="46.5245608" lon="12.7173648"><ele>951.5</ele><time>2026-05-03T14:08:48.968Z</time></trkpt><trkpt lat="46.524537" lon="12.7175364"><ele>947.75</ele><time>2026-05-03T14:08:49.969Z</time></trkpt><trkpt lat="46.524494" lon="12.7177257"><ele>944.0</ele><time>2026-05-03T14:08:50.968Z</time></trkpt><trkpt lat="46.5244478" lon="12.7179232"><ele>943.75</ele><time>2026-05-03T14:08:51.969Z</time></trkpt><trkpt lat="46.5244034" lon="12.7181115"><ele>943.5</ele><time>2026-05-03T14:08:52.969Z</time></trkpt><trkpt lat="46.5243601" lon="12.7182898"><ele>943.25</ele><time>2026-05-03T14:08:53.969Z</time></trkpt><trkpt lat="46.5243334" lon="12.7184502"><ele>943.0</ele><time>2026-05-03T14:08:54.969Z</time></trkpt><trkpt lat="46.5243232" lon="12.7186055"><ele>942.25</ele><time>2026-05-03T14:08:55.968Z</time></trkpt><trkpt lat="46.524329" lon="12.7187786"><ele>941.5</ele><time>2026-05-03T14:08:56.969Z</time></trkpt><trkpt lat="46.5243457" lon="12.718951"><ele>940.75</ele><time>2026-05-03T14:08:57.968Z</time></trkpt><trkpt lat="46.5243804" lon="12.7191215"><ele>940.0</ele><time>2026-05-03T14:08:58.969Z</time></trkpt><trkpt lat="46.5244194" lon="12.7192953"><ele>939.25</ele><time>2026-05-03T14:08:59.968Z</time></trkpt><trkpt lat="46.5244431" lon="12.719476"><ele>938.5</ele><time>2026-05-03T14:09:00.969Z</time></trkpt><trkpt lat="46.5244459" lon="12.7196766"><ele>937.75</ele><time>2026-05-03T14:09:01.97Z</time></trkpt><trkpt lat="46.5244441" lon="12.7198746"><ele>937.0</ele><time>2026-05-03T14:09:02.968Z</time></trkpt><trkpt lat="46.5244395" lon="12.7200672"><ele>940.0</ele><time>2026-05-03T14:09:03.968Z</time></trkpt><trkpt lat="46.524417" lon="12.7202519"><ele>943.0</ele><time>2026-05-03T14:09:04.968Z</time></trkpt><trkpt lat="46.5243717" lon="12.7204166"><ele>946.0</ele><time>2026-05-03T14:09:05.969Z</time></trkpt><trkpt lat="46.5242893" lon="12.7205904"><ele>949.0</ele><time>2026-05-03T14:09:06.969Z</time></trkpt><trkpt lat="46.5242445" lon="12.7207777"><ele>949.0</ele><time>2026-05-03T14:09:07.969Z</time></trkpt><trkpt lat="46.5242233" lon="12.7209788"><ele>949.0</ele><time>2026-05-03T14:09:08.969Z</time></trkpt><trkpt lat="46.5242087" lon="12.7211504"><ele>949.0</ele><time>2026-05-03T14:09:09.969Z</time></trkpt><trkpt lat="46.5241895" lon="12.7213308"><ele>949.0</ele><time>2026-05-03T14:09:10.969Z</time></trkpt><trkpt lat="46.5241361" lon="12.7214743"><ele>945.5</ele><time>2026-05-03T14:09:11.969Z</time></trkpt><trkpt lat="46.5240849" lon="12.7215916"><ele>942.0</ele><time>2026-05-03T14:09:12.968Z</time></trkpt><trkpt lat="46.5239435" lon="12.7215443"><ele>938.5</ele><time>2026-05-03T14:09:13.969Z</time></trkpt><trkpt lat="46.5238131" lon="12.721525"><ele>935.0</ele><time>2026-05-03T14:09:14.969Z</time></trkpt><trkpt lat="46.5237257" lon="12.7215581"><ele>935.0</ele><time>2026-05-03T14:09:15.968Z</time></trkpt><trkpt lat="46.5236441" lon="12.7216376"><ele>935.0</ele><time>2026-05-03T14:09:16.969Z</time></trkpt><trkpt lat="46.5235614" lon="12.7217457"><ele>935.0</ele><time>2026-05-03T14:09:17.968Z</time></trkpt><trkpt lat="46.5234742" lon="12.7218716"><ele>935.0</ele><time>2026-05-03T14:09:18.97Z</time></trkpt><trkpt lat="46.5233903" lon="12.7220036"><ele>939.25</ele><time>2026-05-03T14:09:19.969Z</time></trkpt><trkpt lat="46.5233087" lon="12.7221473"><ele>943.5</ele><time>2026-05-03T14:09:20.968Z</time></trkpt><trkpt lat="46.5232401" lon="12.7223108"><ele>947.75</ele><time>2026-05-03T14:09:21.97Z</time></trkpt><trkpt lat="46.5231794" lon="12.7224856"><ele>952.0</ele><time>2026-05-03T14:09:22.968Z</time></trkpt><trkpt lat="46.5231144" lon="12.7226553"><ele>956.25</ele><time>2026-05-03T14:09:23.969Z</time></trkpt><trkpt lat="46.5230561" lon="12.722827"><ele>960.5</ele><time>2026-05-03T14:09:24.969Z</time></trkpt><trkpt lat="46.5229821" lon="12.7229855"><ele>964.75</ele><time>2026-05-03T14:09:25.969Z</time></trkpt><trkpt lat="46.5229004" lon="12.7231238"><ele>969.0</ele><time>2026-05-03T14:09:26.969Z</time></trkpt><trkpt lat="46.5228026" lon="12.7232412"><ele>964.0</ele><time>2026-05-03T14:09:27.969Z</time></trkpt><trkpt lat="46.5227055" lon="12.7233445"><ele>959.0</ele><time>2026-05-03T14:09:28.969Z</time></trkpt><trkpt lat="46.5226164" lon="12.7234516"><ele>954.0</ele><time>2026-05-03T14:09:29.969Z</time></trkpt><trkpt lat="46.522542" lon="12.7235769"><ele>949.0</ele><time>2026-05-03T14:09:30.969Z</time></trkpt><trkpt lat="46.522488" lon="12.7237317"><ele>949.0</ele><time>2026-05-03T14:09:31.969Z</time></trkpt><trkpt lat="46.5224453" lon="12.7239163"><ele>949.0</ele><time>2026-05-03T14:09:32.969Z</time></trkpt><trkpt lat="46.5224078" lon="12.7241231"><ele>949.0</ele><time>2026-05-03T14:09:33.968Z</time></trkpt><trkpt lat="46.5223738" lon="12.7243379"><ele>949.0</ele><time>2026-05-03T14:09:34.969Z</time></trkpt><trkpt lat="46.5223414" lon="12.7245537"><ele>950.0</ele><time>2026-05-03T14:09:35.968Z</time></trkpt><trkpt lat="46.5223079" lon="12.724767"><ele>951.0</ele><time>2026-05-03T14:09:36.969Z</time></trkpt><trkpt lat="46.522275" lon="12.7249691"><ele>952.0</ele><time>2026-05-03T14:09:37.968Z</time></trkpt><trkpt lat="46.5222385" lon="12.7251577"><ele>953.0</ele><time>2026-05-03T14:09:38.969Z</time></trkpt><trkpt lat="46.522186" lon="12.7253358"><ele>954.25</ele><time>2026-05-03T14:09:39.969Z</time></trkpt><trkpt lat="46.5221206" lon="12.7254999"><ele>955.5</ele><time>2026-05-03T14:09:40.97Z</time></trkpt><trkpt lat="46.5220593" lon="12.725671"><ele>956.75</ele><time>2026-05-03T14:09:41.968Z</time></trkpt><trkpt lat="46.5220141" lon="12.7258481"><ele>958.0</ele><time>2026-05-03T14:09:42.969Z</time></trkpt><trkpt lat="46.5219648" lon="12.7260256"><ele>949.75</ele><time>2026-05-03T14:09:43.97Z</time></trkpt><trkpt lat="46.5219037" lon="12.7261994"><ele>941.5</ele><time>2026-05-03T14:09:44.969Z</time></trkpt><trkpt lat="46.5218358" lon="12.7263697"><ele>933.25</ele><time>2026-05-03T14:09:45.969Z</time></trkpt><trkpt lat="46.521763" lon="12.7265338"><ele>925.0</ele><time>2026-05-03T14:09:46.969Z</time></trkpt><trkpt lat="46.5216906" lon="12.7266934"><ele>925.0</ele><time>2026-05-03T14:09:47.969Z</time></trkpt><trkpt lat="46.5216172" lon="12.7268449"><ele>925.0</ele><time>2026-05-03T14:09:48.969Z</time></trkpt><trkpt lat="46.5215441" lon="12.7269894"><ele>925.0</ele><time>2026-05-03T14:09:49.969Z</time></trkpt><trkpt lat="46.5214754" lon="12.727116"><ele>925.0</ele><time>2026-05-03T14:09:50.969Z</time></trkpt><trkpt lat="46.5214147" lon="12.7272402"><ele>926.4</ele><time>2026-05-03T14:09:51.968Z</time></trkpt><trkpt lat="46.5213715" lon="12.7273714"><ele>927.8</ele><time>2026-05-03T14:09:52.969Z</time></trkpt><trkpt lat="46.5213497" lon="12.7275116"><ele>929.2</ele><time>2026-05-03T14:09:53.969Z</time></trkpt><trkpt lat="46.5213475" lon="12.7276658"><ele>930.6</ele><time>2026-05-03T14:09:54.968Z</time></trkpt><trkpt lat="46.5213611" lon="12.7278155"><ele>932.0</ele><time>2026-05-03T14:09:55.97Z</time></trkpt><trkpt lat="46.5213623" lon="12.7279497"><ele>932.4000000000001</ele><time>2026-05-03T14:09:56.968Z</time></trkpt><trkpt lat="46.5213395" lon="12.7280759"><ele>932.8000000000001</ele><time>2026-05-03T14:09:57.969Z</time></trkpt><trkpt lat="46.5212936" lon="12.7281856"><ele>933.2</ele><time>2026-05-03T14:09:58.968Z</time></trkpt><trkpt lat="46.521227" lon="12.7282833"><ele>933.6</ele><time>2026-05-03T14:09:59.969Z</time></trkpt><trkpt lat="46.5211676" lon="12.7284031"><ele>934.0</ele><time>2026-05-03T14:10:00.969Z</time></trkpt><trkpt lat="46.5211288" lon="12.7285578"><ele>927.25</ele><time>2026-05-03T14:10:01.969Z</time></trkpt><trkpt lat="46.5211022" lon="12.7287314"><ele>920.5</ele><time>2026-05-03T14:10:02.969Z</time></trkpt><trkpt lat="46.5210897" lon="12.7289148"><ele>913.75</ele><time>2026-05-03T14:10:03.968Z</time></trkpt><trkpt lat="46.5211003" lon="12.7291043"><ele>907.0</ele><time>2026-05-03T14:10:04.969Z</time></trkpt><trkpt lat="46.5211149" lon="12.7292933"><ele>908.25</ele><time>2026-05-03T14:10:05.969Z</time></trkpt><trkpt lat="46.5211159" lon="12.7294885"><ele>909.5</ele><time>2026-05-03T14:10:06.969Z</time></trkpt><trkpt lat="46.5211067" lon="12.7296794"><ele>910.75</ele><time>2026-05-03T14:10:07.968Z</time></trkpt><trkpt lat="46.5210878" lon="12.7298581"><ele>912.0</ele><time>2026-05-03T14:10:08.969Z</time></trkpt><trkpt lat="46.5210493" lon="12.7300252"><ele>912.0</ele><time>2026-05-03T14:10:09.968Z</time></trkpt><trkpt lat="46.5209908" lon="12.7301761"><ele>912.0</ele><time>2026-05-03T14:10:10.969Z</time></trkpt><trkpt lat="46.5209178" lon="12.7303078"><ele>912.0</ele><time>2026-05-03T14:10:11.969Z</time></trkpt><trkpt lat="46.5208449" lon="12.7304277"><ele>912.0</ele><time>2026-05-03T14:10:12.968Z</time></trkpt><trkpt lat="46.5207932" lon="12.7305596"><ele>911.75</ele><time>2026-05-03T14:10:13.969Z</time></trkpt><trkpt lat="46.5207674" lon="12.7307183"><ele>911.5</ele><time>2026-05-03T14:10:14.969Z</time></trkpt><trkpt lat="46.5207614" lon="12.7308961"><ele>911.25</ele><time>2026-05-03T14:10:15.969Z</time></trkpt><trkpt lat="46.5207587" lon="12.7310916"><ele>911.0</ele><time>2026-05-03T14:10:16.968Z</time></trkpt><trkpt lat="46.5207622" lon="12.7312904"><ele>911.0</ele><time>2026-05-03T14:10:17.969Z</time></trkpt><trkpt lat="46.5207693" lon="12.7314768"><ele>911.0</ele><time>2026-05-03T14:10:18.969Z</time></trkpt><trkpt lat="46.5207874" lon="12.7316515"><ele>911.0</ele><time>2026-05-03T14:10:19.968Z</time></trkpt><trkpt lat="46.5208321" lon="12.7318185"><ele>911.0</ele><time>2026-05-03T14:10:20.969Z</time></trkpt><trkpt lat="46.5208817" lon="12.7319872"><ele>909.75</ele><time>2026-05-03T14:10:21.968Z</time></trkpt><trkpt lat="46.5209293" lon="12.7321621"><ele>908.5</ele><time>2026-05-03T14:10:22.969Z</time></trkpt><trkpt lat="46.5209683" lon="12.7323509"><ele>907.25</ele><time>2026-05-03T14:10:23.969Z</time></trkpt><trkpt lat="46.520992" lon="12.7325505"><ele>906.0</ele><time>2026-05-03T14:10:24.969Z</time></trkpt><trkpt lat="46.5210036" lon="12.7327537"><ele>903.5</ele><time>2026-05-03T14:10:25.968Z</time></trkpt><trkpt lat="46.5210043" lon="12.7329564"><ele>901.0</ele><time>2026-05-03T14:10:26.969Z</time></trkpt><trkpt lat="46.5210071" lon="12.7331557"><ele>898.5</ele><time>2026-05-03T14:10:27.969Z</time></trkpt><trkpt lat="46.5210093" lon="12.7333581"><ele>896.0</ele><time>2026-05-03T14:10:28.969Z</time></trkpt><trkpt lat="46.5210065" lon="12.7335591"><ele>895.75</ele><time>2026-05-03T14:10:29.968Z</time></trkpt><trkpt lat="46.52099" lon="12.7337533"><ele>895.5</ele><time>2026-05-03T14:10:30.969Z</time></trkpt><trkpt lat="46.5209499" lon="12.733941"><ele>895.25</ele><time>2026-05-03T14:10:31.969Z</time></trkpt><trkpt lat="46.520897" lon="12.7341196"><ele>895.0</ele><time>2026-05-03T14:10:32.968Z</time></trkpt><trkpt lat="46.5208461" lon="12.7342937"><ele>895.25</ele><time>2026-05-03T14:10:33.969Z</time></trkpt><trkpt lat="46.5208074" lon="12.734466"><ele>895.5</ele><time>2026-05-03T14:10:34.969Z</time></trkpt><trkpt lat="46.5207874" lon="12.7346511"><ele>895.75</ele><time>2026-05-03T14:10:35.969Z</time></trkpt><trkpt lat="46.52078" lon="12.7348467"><ele>896.0</ele><time>2026-05-03T14:10:36.969Z</time></trkpt><trkpt lat="46.5207793" lon="12.7350552"><ele>895.25</ele><time>2026-05-03T14:10:37.969Z</time></trkpt><trkpt lat="46.5207799" lon="12.7352633"><ele>894.5</ele><time>2026-05-03T14:10:38.969Z</time></trkpt><trkpt lat="46.5207908" lon="12.7354707"><ele>893.75</ele><time>2026-05-03T14:10:39.969Z</time></trkpt><trkpt lat="46.5208006" lon="12.7356734"><ele>893.0</ele><time>2026-05-03T14:10:40.968Z</time></trkpt><trkpt lat="46.5208133" lon="12.7358682"><ele>892.75</ele><time>2026-05-03T14:10:41.968Z</time></trkpt><trkpt lat="46.5208293" lon="12.7360631"><ele>892.5</ele><time>2026-05-03T14:10:42.968Z</time></trkpt><trkpt lat="46.5208457" lon="12.7362492"><ele>892.25</ele><time>2026-05-03T14:10:43.969Z</time></trkpt><trkpt lat="46.5208555" lon="12.7364235"><ele>892.0</ele><time>2026-05-03T14:10:44.969Z</time></trkpt><trkpt lat="46.5208611" lon="12.7365767"><ele>892.0</ele><time>2026-05-03T14:10:45.968Z</time></trkpt><trkpt lat="46.5208797" lon="12.7367172"><ele>892.0</ele><time>2026-05-03T14:10:46.969Z</time></trkpt><trkpt lat="46.5209362" lon="12.7368558"><ele>892.0</ele><time>2026-05-03T14:10:47.969Z</time></trkpt><trkpt lat="46.5210165" lon="12.7369887"><ele>892.0</ele><time>2026-05-03T14:10:48.969Z</time></trkpt><trkpt lat="46.5211113" lon="12.7371224"><ele>891.75</ele><time>2026-05-03T14:10:49.968Z</time></trkpt><trkpt lat="46.5212019" lon="12.7372714"><ele>891.5</ele><time>2026-05-03T14:10:50.969Z</time></trkpt><trkpt lat="46.5213012" lon="12.7374263"><ele>891.25</ele><time>2026-05-03T14:10:51.968Z</time></trkpt><trkpt lat="46.5213977" lon="12.7375815"><ele>891.0</ele><time>2026-05-03T14:10:52.969Z</time></trkpt><trkpt lat="46.5214792" lon="12.7377443"><ele>891.0</ele><time>2026-05-03T14:10:53.969Z</time></trkpt><trkpt lat="46.5215562" lon="12.7379094"><ele>891.0</ele><time>2026-05-03T14:10:54.97Z</time></trkpt><trkpt lat="46.5216286" lon="12.7380761"><ele>891.0</ele><time>2026-05-03T14:10:55.969Z</time></trkpt><trkpt lat="46.5216886" lon="12.7382539"><ele>891.0</ele><time>2026-05-03T14:10:56.969Z</time></trkpt><trkpt lat="46.5217284" lon="12.7384443"><ele>893.0</ele><time>2026-05-03T14:10:57.969Z</time></trkpt><trkpt lat="46.5217484" lon="12.7386454"><ele>895.0</ele><time>2026-05-03T14:10:58.968Z</time></trkpt><trkpt lat="46.5217503" lon="12.7388483"><ele>897.0</ele><time>2026-05-03T14:10:59.968Z</time></trkpt><trkpt lat="46.5217367" lon="12.7390457"><ele>899.0</ele><time>2026-05-03T14:11:00.968Z</time></trkpt><trkpt lat="46.5217238" lon="12.7392374"><ele>897.0</ele><time>2026-05-03T14:11:01.969Z</time></trkpt><trkpt lat="46.5217125" lon="12.7394092"><ele>895.0000000000001</ele><time>2026-05-03T14:11:02.968Z</time></trkpt><trkpt lat="46.5217081" lon="12.739574"><ele>893.0000000000001</ele><time>2026-05-03T14:11:03.969Z</time></trkpt><trkpt lat="46.5217396" lon="12.7397204"><ele>891.0</ele><time>2026-05-03T14:11:04.969Z</time></trkpt><trkpt lat="46.5217869" lon="12.7398625"><ele>889.0</ele><time>2026-05-03T14:11:05.969Z</time></trkpt><trkpt lat="46.5218576" lon="12.7400012"><ele>889.0</ele><time>2026-05-03T14:11:06.968Z</time></trkpt><trkpt lat="46.5219206" lon="12.7401554"><ele>889.0</ele><time>2026-05-03T14:11:07.969Z</time></trkpt><trkpt lat="46.5219681" lon="12.7403183"><ele>889.0</ele><time>2026-05-03T14:11:08.968Z</time></trkpt><trkpt lat="46.52199" lon="12.7404921"><ele>889.0</ele><time>2026-05-03T14:11:09.969Z</time></trkpt><trkpt lat="46.521985" lon="12.7406745"><ele>886.75</ele><time>2026-05-03T14:11:10.968Z</time></trkpt><trkpt lat="46.5219661" lon="12.7408763"><ele>884.5</ele><time>2026-05-03T14:11:11.969Z</time></trkpt><trkpt lat="46.5219441" lon="12.741087"><ele>882.25</ele><time>2026-05-03T14:11:12.968Z</time></trkpt><trkpt lat="46.521936" lon="12.7413039"><ele>880.0</ele><time>2026-05-03T14:11:13.968Z</time></trkpt><trkpt lat="46.5219439" lon="12.7415309"><ele>877.0</ele><time>2026-05-03T14:11:14.969Z</time></trkpt><trkpt lat="46.5219591" lon="12.7417683"><ele>874.0</ele><time>2026-05-03T14:11:15.969Z</time></trkpt><trkpt lat="46.5219773" lon="12.7420036"><ele>871.0</ele><time>2026-05-03T14:11:16.969Z</time></trkpt><trkpt lat="46.5219966" lon="12.7422447"><ele>868.3333333333333</ele><time>2026-05-03T14:11:17.97Z</time></trkpt><trkpt lat="46.5220203" lon="12.7424798"><ele>865.6666666666667</ele><time>2026-05-03T14:11:18.969Z</time></trkpt><trkpt lat="46.5220442" lon="12.7427054"><ele>863.0</ele><time>2026-05-03T14:11:19.968Z</time></trkpt><trkpt lat="46.5220721" lon="12.7429239"><ele>867.5</ele><time>2026-05-03T14:11:20.967Z</time></trkpt><trkpt lat="46.5220994" lon="12.7431375"><ele>872.0</ele><time>2026-05-03T14:11:21.968Z</time></trkpt><trkpt lat="46.5221157" lon="12.7433466"><ele>876.5</ele><time>2026-05-03T14:11:22.968Z</time></trkpt><trkpt lat="46.5221104" lon="12.7435471"><ele>881.0</ele><time>2026-05-03T14:11:23.967Z</time></trkpt><trkpt lat="46.5220769" lon="12.7437436"><ele>871.6666666666667</ele><time>2026-05-03T14:11:24.968Z</time></trkpt><trkpt lat="46.5220127" lon="12.743935"><ele>862.3333333333333</ele><time>2026-05-03T14:11:25.968Z</time></trkpt><trkpt lat="46.5219265" lon="12.7441244"><ele>853.0</ele><time>2026-05-03T14:11:26.967Z</time></trkpt><trkpt lat="46.5218205" lon="12.7442911"><ele>858.6666666666666</ele><time>2026-05-03T14:11:27.968Z</time></trkpt><trkpt lat="46.521696" lon="12.7444533"><ele>864.3333333333333</ele><time>2026-05-03T14:11:28.968Z</time></trkpt><trkpt lat="46.5215746" lon="12.7446102"><ele>870.0</ele><time>2026-05-03T14:11:29.967Z</time></trkpt><trkpt lat="46.5214644" lon="12.7447548"><ele>870.0</ele><time>2026-05-03T14:11:30.968Z</time></trkpt><trkpt lat="46.5213705" lon="12.7449127"><ele>870.0</ele><time>2026-05-03T14:11:31.968Z</time></trkpt><trkpt lat="46.5212944" lon="12.7450899"><ele>870.0</ele><time>2026-05-03T14:11:32.968Z</time></trkpt><trkpt lat="46.5212206" lon="12.7452714"><ele>870.0</ele><time>2026-05-03T14:11:33.968Z</time></trkpt><trkpt lat="46.5211385" lon="12.7454433"><ele>864.5</ele><time>2026-05-03T14:11:34.967Z</time></trkpt><trkpt lat="46.5210579" lon="12.7455971"><ele>859.0</ele><time>2026-05-03T14:11:35.967Z</time></trkpt><trkpt lat="46.5209875" lon="12.7457446"><ele>853.5</ele><time>2026-05-03T14:11:36.968Z</time></trkpt><trkpt lat="46.5209392" lon="12.7458919"><ele>848.0</ele><time>2026-05-03T14:11:37.967Z</time></trkpt><trkpt lat="46.5209177" lon="12.7460436"><ele>848.0</ele><time>2026-05-03T14:11:38.968Z</time></trkpt><trkpt lat="46.5209255" lon="12.7462108"><ele>848.0</ele><time>2026-05-03T14:11:39.968Z</time></trkpt><trkpt lat="46.5209507" lon="12.7463928"><ele>848.0</ele><time>2026-05-03T14:11:40.968Z</time></trkpt><trkpt lat="46.5209738" lon="12.746582"><ele>848.0</ele><time>2026-05-03T14:11:41.967Z</time></trkpt><trkpt lat="46.5209731" lon="12.7467828"><ele>849.6666666666667</ele><time>2026-05-03T14:11:42.968Z</time></trkpt><trkpt lat="46.5209405" lon="12.7469864"><ele>851.3333333333333</ele><time>2026-05-03T14:11:43.968Z</time></trkpt><trkpt lat="46.5208864" lon="12.7471957"><ele>853.0</ele><time>2026-05-03T14:11:44.968Z</time></trkpt><trkpt lat="46.5208312" lon="12.7474115"><ele>853.0</ele><time>2026-05-03T14:11:45.967Z</time></trkpt><trkpt lat="46.5207846" lon="12.7476412"><ele>853.0</ele><time>2026-05-03T14:11:46.968Z</time></trkpt><trkpt lat="46.5207416" lon="12.7478706"><ele>853.0</ele><time>2026-05-03T14:11:47.968Z</time></trkpt><trkpt lat="46.5207048" lon="12.7480905"><ele>857.6666666666666</ele><time>2026-05-03T14:11:48.967Z</time></trkpt><trkpt lat="46.520671" lon="12.748307"><ele>862.3333333333333</ele><time>2026-05-03T14:11:49.968Z</time></trkpt><trkpt lat="46.5206445" lon="12.7485231"><ele>867.0</ele><time>2026-05-03T14:11:50.968Z</time></trkpt><trkpt lat="46.5206232" lon="12.7487433"><ele>869.25</ele><time>2026-05-03T14:11:51.968Z</time></trkpt><trkpt lat="46.5206071" lon="12.7489626"><ele>871.5</ele><time>2026-05-03T14:11:52.967Z</time></trkpt><trkpt lat="46.5205932" lon="12.7491751"><ele>873.75</ele><time>2026-05-03T14:11:53.967Z</time></trkpt><trkpt lat="46.5205704" lon="12.7493883"><ele>876.0</ele><time>2026-05-03T14:11:54.968Z</time></trkpt><trkpt lat="46.5205326" lon="12.7496022"><ele>879.0</ele><time>2026-05-03T14:11:55.969Z</time></trkpt><trkpt lat="46.5204822" lon="12.7498008"><ele>882.0</ele><time>2026-05-03T14:11:56.968Z</time></trkpt><trkpt lat="46.5204354" lon="12.7499946"><ele>885.0</ele><time>2026-05-03T14:11:57.968Z</time></trkpt><trkpt lat="46.5203921" lon="12.7501863"><ele>888.0</ele><time>2026-05-03T14:11:58.968Z</time></trkpt><trkpt lat="46.5203613" lon="12.7503937"><ele>875.5</ele><time>2026-05-03T14:11:59.968Z</time></trkpt><trkpt lat="46.5203499" lon="12.7506165"><ele>863.0</ele><time>2026-05-03T14:12:00.967Z</time></trkpt><trkpt lat="46.5203376" lon="12.750835"><ele>850.5</ele><time>2026-05-03T14:12:01.968Z</time></trkpt><trkpt lat="46.5203277" lon="12.7510422"><ele>838.0</ele><time>2026-05-03T14:12:02.968Z</time></trkpt><trkpt lat="46.5203093" lon="12.7512289"><ele>838.5</ele><time>2026-05-03T14:12:03.967Z</time></trkpt><trkpt lat="46.5202794" lon="12.7514006"><ele>839.0</ele><time>2026-05-03T14:12:04.968Z</time></trkpt><trkpt lat="46.520243" lon="12.7515519"><ele>839.5</ele><time>2026-05-03T14:12:05.968Z</time></trkpt><trkpt lat="46.5202255" lon="12.7517045"><ele>840.0</ele><time>2026-05-03T14:12:06.968Z</time></trkpt><trkpt lat="46.5202299" lon="12.7518744"><ele>840.0</ele><time>2026-05-03T14:12:07.968Z</time></trkpt><trkpt lat="46.5202415" lon="12.7520569"><ele>840.0</ele><time>2026-05-03T14:12:08.969Z</time></trkpt><trkpt lat="46.5202738" lon="12.7522816"><ele>840.0</ele><time>2026-05-03T14:12:09.967Z</time></trkpt><trkpt lat="46.5202977" lon="12.7525013"><ele>840.0</ele><time>2026-05-03T14:12:10.967Z</time></trkpt><trkpt lat="46.5203016" lon="12.7527115"><ele>840.0</ele><time>2026-05-03T14:12:11.968Z</time></trkpt><trkpt lat="46.5202901" lon="12.7529219"><ele>840.0</ele><time>2026-05-03T14:12:12.968Z</time></trkpt><trkpt lat="46.5202619" lon="12.7531311"><ele>840.0</ele><time>2026-05-03T14:12:13.967Z</time></trkpt><trkpt lat="46.5202158" lon="12.7533294"><ele>840.0</ele><time>2026-05-03T14:12:14.968Z</time></trkpt><trkpt lat="46.5201624" lon="12.7535142"><ele>840.5</ele><time>2026-05-03T14:12:15.968Z</time></trkpt><trkpt lat="46.5200977" lon="12.7536888"><ele>841.0</ele><time>2026-05-03T14:12:16.967Z</time></trkpt><trkpt lat="46.5200249" lon="12.7538527"><ele>841.5</ele><time>2026-05-03T14:12:17.969Z</time></trkpt><trkpt lat="46.5199464" lon="12.7540077"><ele>842.0</ele><time>2026-05-03T14:12:18.968Z</time></trkpt><trkpt lat="46.5198839" lon="12.7541504"><ele>842.0</ele><time>2026-05-03T14:12:19.967Z</time></trkpt><trkpt lat="46.5198363" lon="12.7542802"><ele>842.0</ele><time>2026-05-03T14:12:20.968Z</time></trkpt><trkpt lat="46.5198101" lon="12.754408"><ele>842.0</ele><time>2026-05-03T14:12:21.968Z</time></trkpt><trkpt lat="46.5198025" lon="12.7545584"><ele>842.0</ele><time>2026-05-03T14:12:22.968Z</time></trkpt><trkpt lat="46.5198064" lon="12.7547309"><ele>842.0</ele><time>2026-05-03T14:12:23.968Z</time></trkpt><trkpt lat="46.5198288" lon="12.7549189"><ele>840.25</ele><time>2026-05-03T14:12:24.968Z</time></trkpt><trkpt lat="46.5198717" lon="12.7551112"><ele>838.5</ele><time>2026-05-03T14:12:25.968Z</time></trkpt><trkpt lat="46.5199222" lon="12.7552927"><ele>836.75</ele><time>2026-05-03T14:12:26.967Z</time></trkpt><trkpt lat="46.5199702" lon="12.7554623"><ele>835.0</ele><time>2026-05-03T14:12:27.968Z</time></trkpt><trkpt lat="46.5200131" lon="12.7556108"><ele>832.6666666666666</ele><time>2026-05-03T14:12:28.968Z</time></trkpt><trkpt lat="46.5200503" lon="12.7557427"><ele>830.3333333333333</ele><time>2026-05-03T14:12:29.967Z</time></trkpt><trkpt lat="46.5200819" lon="12.7558554"><ele>828.0</ele><time>2026-05-03T14:12:30.969Z</time></trkpt><trkpt lat="46.5201109" lon="12.7559602"><ele>825.6666666666667</ele><time>2026-05-03T14:12:31.968Z</time></trkpt><trkpt lat="46.5201356" lon="12.7560512"><ele>823.3333333333334</ele><time>2026-05-03T14:12:32.967Z</time></trkpt><trkpt lat="46.5201532" lon="12.7561418"><ele>821.0</ele><time>2026-05-03T14:12:33.967Z</time></trkpt><trkpt lat="46.5201691" lon="12.7562349"><ele>820.8</ele><time>2026-05-03T14:12:34.967Z</time></trkpt><trkpt lat="46.5201756" lon="12.7563547"><ele>820.5999999999999</ele><time>2026-05-03T14:12:35.968Z</time></trkpt><trkpt lat="46.520167" lon="12.756506"><ele>820.4</ele><time>2026-05-03T14:12:36.968Z</time></trkpt><trkpt lat="46.5201428" lon="12.7566725"><ele>820.2</ele><time>2026-05-03T14:12:37.967Z</time></trkpt><trkpt lat="46.5201018" lon="12.7568407"><ele>820.0</ele><time>2026-05-03T14:12:38.967Z</time></trkpt><trkpt lat="46.5200697" lon="12.7570132"><ele>819.25</ele><time>2026-05-03T14:12:39.968Z</time></trkpt><trkpt lat="46.5200437" lon="12.7571767"><ele>818.5</ele><time>2026-05-03T14:12:40.968Z</time></trkpt><trkpt lat="46.5200295" lon="12.7573521"><ele>817.75</ele><time>2026-05-03T14:12:41.967Z</time></trkpt><trkpt lat="46.5200288" lon="12.757547"><ele>817.0</ele><time>2026-05-03T14:12:42.967Z</time></trkpt><trkpt lat="46.5200338" lon="12.757744"><ele>815.0</ele><time>2026-05-03T14:12:43.968Z</time></trkpt><trkpt lat="46.5200412" lon="12.7579408"><ele>813.0</ele><time>2026-05-03T14:12:44.967Z</time></trkpt><trkpt lat="46.5200499" lon="12.7581278"><ele>811.0</ele><time>2026-05-03T14:12:45.968Z</time></trkpt><trkpt lat="46.5200594" lon="12.7582959"><ele>809.0</ele><time>2026-05-03T14:12:46.967Z</time></trkpt><trkpt lat="46.5200781" lon="12.7584529"><ele>805.75</ele><time>2026-05-03T14:12:47.968Z</time></trkpt><trkpt lat="46.5201177" lon="12.7585953"><ele>802.5</ele><time>2026-05-03T14:12:48.968Z</time></trkpt><trkpt lat="46.5201773" lon="12.7587269"><ele>799.25</ele><time>2026-05-03T14:12:49.969Z</time></trkpt><trkpt lat="46.5202556" lon="12.7588462"><ele>796.0</ele><time>2026-05-03T14:12:50.967Z</time></trkpt><trkpt lat="46.5203469" lon="12.758965"><ele>797.0</ele><time>2026-05-03T14:12:51.968Z</time></trkpt><trkpt lat="46.520444" lon="12.7590811"><ele>798.0</ele><time>2026-05-03T14:12:52.969Z</time></trkpt><trkpt lat="46.5205373" lon="12.7591918"><ele>799.0</ele><time>2026-05-03T14:12:53.967Z</time></trkpt><trkpt lat="46.5206205" lon="12.7592965"><ele>800.0</ele><time>2026-05-03T14:12:54.969Z</time></trkpt><trkpt lat="46.5206845" lon="12.7593971"><ele>800.0000000000001</ele><time>2026-05-03T14:12:55.968Z</time></trkpt><trkpt lat="46.5207293" lon="12.7595001"><ele>800.0</ele><time>2026-05-03T14:12:56.968Z</time></trkpt><trkpt lat="46.5207418" lon="12.7596169"><ele>800.0</ele><time>2026-05-03T14:12:57.968Z</time></trkpt><trkpt lat="46.5207499" lon="12.759731"><ele>800.0</ele><time>2026-05-03T14:12:58.968Z</time></trkpt><trkpt lat="46.5207865" lon="12.7598428"><ele>800.0000000000001</ele><time>2026-05-03T14:12:59.968Z</time></trkpt><trkpt lat="46.5208508" lon="12.7599265"><ele>800.0</ele><time>2026-05-03T14:13:00.968Z</time></trkpt><trkpt lat="46.5209395" lon="12.7599735"><ele>800.0</ele><time>2026-05-03T14:13:01.967Z</time></trkpt><trkpt lat="46.5210469" lon="12.7599835"><ele>800.0</ele><time>2026-05-03T14:13:02.968Z</time></trkpt><trkpt lat="46.5211593" lon="12.7599927"><ele>800.0</ele><time>2026-05-03T14:13:03.968Z</time></trkpt><trkpt lat="46.5212673" lon="12.7600174"><ele>800.0</ele><time>2026-05-03T14:13:04.968Z</time></trkpt><trkpt lat="46.5213731" lon="12.7600678"><ele>800.0</ele><time>2026-05-03T14:13:05.969Z</time></trkpt><trkpt lat="46.5214658" lon="12.7601503"><ele>799.6</ele><time>2026-05-03T14:13:06.967Z</time></trkpt><trkpt lat="46.5215383" lon="12.760262"><ele>799.2</ele><time>2026-05-03T14:13:07.968Z</time></trkpt><trkpt lat="46.5215964" lon="12.7603966"><ele>798.8</ele><time>2026-05-03T14:13:08.968Z</time></trkpt><trkpt lat="46.5216486" lon="12.7605414"><ele>798.4</ele><time>2026-05-03T14:13:09.967Z</time></trkpt><trkpt lat="46.5216902" lon="12.7606859"><ele>798.0</ele><time>2026-05-03T14:13:10.968Z</time></trkpt><trkpt lat="46.5217063" lon="12.7608265"><ele>798.0</ele><time>2026-05-03T14:13:11.968Z</time></trkpt><trkpt lat="46.521689" lon="12.7609635"><ele>798.0</ele><time>2026-05-03T14:13:12.968Z</time></trkpt><trkpt lat="46.5216456" lon="12.7610979"><ele>798.0</ele><time>2026-05-03T14:13:13.968Z</time></trkpt><trkpt lat="46.5215966" lon="12.7612595"><ele>798.0</ele><time>2026-05-03T14:13:14.968Z</time></trkpt><trkpt lat="46.5215518" lon="12.7614356"><ele>798.0</ele><time>2026-05-03T14:13:15.968Z</time></trkpt><trkpt lat="46.5215228" lon="12.7616211"><ele>798.5</ele><time>2026-05-03T14:13:16.967Z</time></trkpt><trkpt lat="46.5215185" lon="12.7618163"><ele>799.0</ele><time>2026-05-03T14:13:17.968Z</time></trkpt><trkpt lat="46.5215431" lon="12.7620237"><ele>799.5</ele><time>2026-05-03T14:13:18.969Z</time></trkpt><trkpt lat="46.5215813" lon="12.7622448"><ele>800.0</ele><time>2026-05-03T14:13:19.967Z</time></trkpt><trkpt lat="46.5216249" lon="12.7624798"><ele>794.6666666666667</ele><time>2026-05-03T14:13:20.968Z</time></trkpt><trkpt lat="46.5216669" lon="12.7627087"><ele>789.3333333333333</ele><time>2026-05-03T14:13:21.968Z</time></trkpt><trkpt lat="46.5217091" lon="12.7629477"><ele>784.0</ele><time>2026-05-03T14:13:22.968Z</time></trkpt><trkpt lat="46.5217554" lon="12.7631838"><ele>784.0</ele><time>2026-05-03T14:13:23.968Z</time></trkpt><trkpt lat="46.521801" lon="12.7634163"><ele>784.0</ele><time>2026-05-03T14:13:24.968Z</time></trkpt><trkpt lat="46.5218405" lon="12.7636422"><ele>784.0</ele><time>2026-05-03T14:13:25.968Z</time></trkpt><trkpt lat="46.5218776" lon="12.7638565"><ele>783.25</ele><time>2026-05-03T14:13:26.968Z</time></trkpt><trkpt lat="46.5219087" lon="12.7640614"><ele>782.5</ele><time>2026-05-03T14:13:27.967Z</time></trkpt><trkpt lat="46.5219257" lon="12.7642642"><ele>781.75</ele><time>2026-05-03T14:13:28.968Z</time></trkpt><trkpt lat="46.5219159" lon="12.7644655"><ele>781.0</ele><time>2026-05-03T14:13:29.967Z</time></trkpt><trkpt lat="46.5218895" lon="12.7646783"><ele>781.0</ele><time>2026-05-03T14:13:30.968Z</time></trkpt><trkpt lat="46.5218391" lon="12.7648893"><ele>781.0</ele><time>2026-05-03T14:13:31.968Z</time></trkpt><trkpt lat="46.5217865" lon="12.7650882"><ele>781.0</ele><time>2026-05-03T14:13:32.968Z</time></trkpt><trkpt lat="46.5217373" lon="12.765274"><ele>781.0</ele><time>2026-05-03T14:13:33.967Z</time></trkpt><trkpt lat="46.5216994" lon="12.7654448"><ele>781.4</ele><time>2026-05-03T14:13:34.967Z</time></trkpt><trkpt lat="46.5216798" lon="12.7656069"><ele>781.8</ele><time>2026-05-03T14:13:35.968Z</time></trkpt><trkpt lat="46.5216898" lon="12.765757"><ele>782.1999999999999</ele><time>2026-05-03T14:13:36.968Z</time></trkpt><trkpt lat="46.521723" lon="12.7658971"><ele>782.5999999999999</ele><time>2026-05-03T14:13:37.968Z</time></trkpt><trkpt lat="46.5217816" lon="12.7660199"><ele>783.0</ele><time>2026-05-03T14:13:38.967Z</time></trkpt><trkpt lat="46.5218629" lon="12.7661235"><ele>783.75</ele><time>2026-05-03T14:13:39.968Z</time></trkpt><trkpt lat="46.5219615" lon="12.7662154"><ele>784.5</ele><time>2026-05-03T14:13:40.968Z</time></trkpt><trkpt lat="46.5220651" lon="12.7663035"><ele>785.25</ele><time>2026-05-03T14:13:41.967Z</time></trkpt><trkpt lat="46.5221569" lon="12.7664131"><ele>786.0</ele><time>2026-05-03T14:13:42.968Z</time></trkpt><trkpt lat="46.5222414" lon="12.766542"><ele>786.0</ele><time>2026-05-03T14:13:43.968Z</time></trkpt><trkpt lat="46.5223108" lon="12.766695"><ele>786.0</ele><time>2026-05-03T14:13:44.967Z</time></trkpt><trkpt lat="46.5223685" lon="12.76687"><ele>786.0</ele><time>2026-05-03T14:13:45.968Z</time></trkpt><trkpt lat="46.5224041" lon="12.7670575"><ele>786.0</ele><time>2026-05-03T14:13:46.968Z</time></trkpt><trkpt lat="46.5224239" lon="12.7672576"><ele>784.0</ele><time>2026-05-03T14:13:47.968Z</time></trkpt><trkpt lat="46.5224333" lon="12.7674633"><ele>782.0</ele><time>2026-05-03T14:13:48.968Z</time></trkpt><trkpt lat="46.5224418" lon="12.767664"><ele>780.0</ele><time>2026-05-03T14:13:49.967Z</time></trkpt><trkpt lat="46.5224445" lon="12.7678522"><ele>778.0</ele><time>2026-05-03T14:13:50.968Z</time></trkpt><trkpt lat="46.5224468" lon="12.7680241"><ele>777.9999999999999</ele><time>2026-05-03T14:13:51.968Z</time></trkpt><trkpt lat="46.5224468" lon="12.7681825"><ele>778.0</ele><time>2026-05-03T14:13:52.968Z</time></trkpt><trkpt lat="46.5224395" lon="12.7683201"><ele>778.0</ele><time>2026-05-03T14:13:53.969Z</time></trkpt><trkpt lat="46.5224215" lon="12.7684427"><ele>778.0</ele><time>2026-05-03T14:13:54.969Z</time></trkpt><trkpt lat="46.5223986" lon="12.7685465"><ele>777.9999999999999</ele><time>2026-05-03T14:13:55.968Z</time></trkpt><trkpt lat="46.5223762" lon="12.7686427"><ele>778.0</ele><time>2026-05-03T14:13:56.967Z</time></trkpt><trkpt lat="46.5223512" lon="12.7687407"><ele>778.0</ele><time>2026-05-03T14:13:57.968Z</time></trkpt><trkpt lat="46.5223267" lon="12.768834"><ele>778.0</ele><time>2026-05-03T14:13:58.967Z</time></trkpt><trkpt lat="46.5222854" lon="12.7689762"><ele>778.0</ele><time>2026-05-03T14:14:00.968Z</time></trkpt><trkpt lat="46.5222493" lon="12.7691061"><ele>778.0</ele><time>2026-05-03T14:14:02.968Z</time></trkpt><trkpt lat="46.5222418" lon="12.7692444"><ele>778.0</ele><time>2026-05-03T14:14:04.968Z</time></trkpt><trkpt lat="46.5222652" lon="12.7693698"><ele>778.0</ele><time>2026-05-03T14:14:06.967Z</time></trkpt><trkpt lat="46.5222608" lon="12.769509"><ele>778.0</ele><time>2026-05-03T14:14:08.967Z</time></trkpt><trkpt lat="46.522238" lon="12.7696631"><ele>778.0</ele><time>2026-05-03T14:14:10.968Z</time></trkpt><trkpt lat="46.5222106" lon="12.7698238"><ele>778.0</ele><time>2026-05-03T14:14:12.968Z</time></trkpt><trkpt lat="46.5221975" lon="12.7699718"><ele>778.0</ele><time>2026-05-03T14:14:14.968Z</time></trkpt><trkpt lat="46.5221753" lon="12.770128"><ele>778.2</ele><time>2026-05-03T14:14:16.968Z</time></trkpt><trkpt lat="46.5221525" lon="12.7702563"><ele>778.4</ele><time>2026-05-03T14:14:18.968Z</time></trkpt><trkpt lat="46.5221447" lon="12.7703489"><ele>778.6</ele><time>2026-05-03T14:14:21.967Z</time></trkpt><trkpt lat="46.5221505" lon="12.7704602"><ele>778.8000000000001</ele><time>2026-05-03T14:14:23.969Z</time></trkpt><trkpt lat="46.5221243" lon="12.7706108"><ele>779.0</ele><time>2026-05-03T14:14:25.968Z</time></trkpt><trkpt lat="46.5221433" lon="12.7707982"><ele>779.0000000000001</ele><time>2026-05-03T14:14:27.968Z</time></trkpt><trkpt lat="46.5221455" lon="12.7709012"><ele>779.0</ele><time>2026-05-03T14:14:28.968Z</time></trkpt><trkpt lat="46.5221516" lon="12.77101"><ele>779.0</ele><time>2026-05-03T14:14:29.968Z</time></trkpt><trkpt lat="46.5221551" lon="12.7711166"><ele>779.0</ele><time>2026-05-03T14:14:30.969Z</time></trkpt><trkpt lat="46.5221559" lon="12.7712209"><ele>779.0</ele><time>2026-05-03T14:14:31.968Z</time></trkpt><trkpt lat="46.522154" lon="12.7713216"><ele>779.0000000000001</ele><time>2026-05-03T14:14:32.968Z</time></trkpt><trkpt lat="46.5221486" lon="12.7714167"><ele>779.0</ele><time>2026-05-03T14:14:33.968Z</time></trkpt><trkpt lat="46.5221496" lon="12.7715116"><ele>778.8000000000001</ele><time>2026-05-03T14:14:34.969Z</time></trkpt><trkpt lat="46.5221583" lon="12.7716861"><ele>778.6</ele><time>2026-05-03T14:14:36.967Z</time></trkpt><trkpt lat="46.5221673" lon="12.7718653"><ele>778.4</ele><time>2026-05-03T14:14:38.968Z</time></trkpt><trkpt lat="46.5221515" lon="12.7720244"><ele>778.2</ele><time>2026-05-03T14:14:40.968Z</time></trkpt><trkpt lat="46.5221322" lon="12.7721428"><ele>778.0</ele><time>2026-05-03T14:14:42.968Z</time></trkpt><trkpt lat="46.5221048" lon="12.7722337"><ele>776.9999999999999</ele><time>2026-05-03T14:14:46.968Z</time></trkpt><trkpt lat="46.522157" lon="12.7721775"><ele>776.0</ele><time>2026-05-03T14:16:46.968Z</time></trkpt><trkpt lat="46.522163" lon="12.7720835"><ele>775.0</ele><time>2026-05-03T14:16:48.967Z</time></trkpt><trkpt lat="46.5221252" lon="12.771984"><ele>774.0</ele><time>2026-05-03T14:16:50.968Z</time></trkpt><trkpt lat="46.5220527" lon="12.7719464"><ele>772.9999999999999</ele><time>2026-05-03T14:16:52.968Z</time></trkpt><trkpt lat="46.5219623" lon="12.7719102"><ele>772.0</ele><time>2026-05-03T14:16:54.968Z</time></trkpt><trkpt lat="46.5218618" lon="12.7718719"><ele>767.6666666666666</ele><time>2026-05-03T14:16:56.968Z</time></trkpt><trkpt lat="46.521763" lon="12.771814"><ele>763.3333333333333</ele><time>2026-05-03T14:16:58.968Z</time></trkpt><trkpt lat="46.5216701" lon="12.771754"><ele>759.0</ele><time>2026-05-03T14:17:00.968Z</time></trkpt><trkpt lat="46.5215955" lon="12.7716749"><ele>754.6666666666666</ele><time>2026-05-03T14:17:02.968Z</time></trkpt><trkpt lat="46.5215328" lon="12.7716012"><ele>750.3333333333333</ele><time>2026-05-03T14:17:04.967Z</time></trkpt><trkpt lat="46.5214849" lon="12.7715395"><ele>746.0</ele><time>2026-05-03T14:17:06.967Z</time></trkpt><trkpt lat="46.5214339" lon="12.7714811"><ele>746.0</ele><time>2026-05-03T14:17:08.968Z</time></trkpt><trkpt lat="46.5213741" lon="12.7714055"><ele>746.0</ele><time>2026-05-03T14:17:10.968Z</time></trkpt><trkpt lat="46.5213035" lon="12.7713356"><ele>746.0</ele><time>2026-05-03T14:17:12.968Z</time></trkpt><trkpt lat="46.5212355" lon="12.7712732"><ele>746.0</ele><time>2026-05-03T14:17:14.968Z</time></trkpt><trkpt lat="46.5211783" lon="12.7711833"><ele>746.0</ele><time>2026-05-03T14:17:16.968Z</time></trkpt><trkpt lat="46.5211366" lon="12.7710961"><ele>746.0</ele><time>2026-05-03T14:17:18.968Z</time></trkpt><trkpt lat="46.5210924" lon="12.7709929"><ele>745.5</ele><time>2026-05-03T14:17:21.967Z</time></trkpt><trkpt lat="46.5210718" lon="12.7708797"><ele>745.0</ele><time>2026-05-03T14:17:25.969Z</time></trkpt><trkpt lat="46.5210866" lon="12.7707885"><ele>744.5</ele><time>2026-05-03T14:17:30.967Z</time></trkpt><trkpt lat="46.5211176" lon="12.7706904"><ele>744.0</ele><time>2026-05-03T14:17:39.968Z</time></trkpt><trkpt lat="46.5211727" lon="12.7705804"><ele>743.5</ele><time>2026-05-03T14:17:41.968Z</time></trkpt><trkpt lat="46.5212356" lon="12.7704821"><ele>743.0</ele><time>2026-05-03T14:17:43.968Z</time></trkpt><trkpt lat="46.5212858" lon="12.7703762"><ele>744.2857142857143</ele><time>2026-05-03T14:17:45.968Z</time></trkpt><trkpt lat="46.5213318" lon="12.7702875"><ele>745.5714285714286</ele><time>2026-05-03T14:17:47.968Z</time></trkpt><trkpt lat="46.5213687" lon="12.7702112"><ele>746.8571428571429</ele><time>2026-05-03T14:17:49.968Z</time></trkpt><trkpt lat="46.5214379" lon="12.7702197"><ele>748.1428571428571</ele><time>2026-05-03T14:17:51.967Z</time></trkpt><trkpt lat="46.5215112" lon="12.7702071"><ele>749.4285714285713</ele><time>2026-05-03T14:17:53.969Z</time></trkpt><trkpt lat="46.5215817" lon="12.7702083"><ele>750.7142857142857</ele><time>2026-05-03T14:17:55.967Z</time></trkpt><trkpt lat="46.5216417" lon="12.7702362"><ele>752.0</ele><time>2026-05-03T14:18:06.968Z</time></trkpt><trkpt lat="46.5215834" lon="12.7701988"><ele>752.0</ele><time>2026-05-03T14:19:31.968Z</time></trkpt><trkpt lat="46.5215227" lon="12.7701709"><ele>752.0</ele><time>2026-05-03T14:19:43.153Z</time></trkpt><trkpt lat="46.5214438" lon="12.7701987"><ele>752.0</ele><time>2026-05-03T14:19:53.975Z</time></trkpt><trkpt lat="46.5215102" lon="12.7702072"><ele>752.0</ele><time>2026-05-03T14:35:19.971Z</time></trkpt><trkpt lat="46.5215773" lon="12.7701764"><ele>752.0</ele><time>2026-05-03T14:35:26.965Z</time></trkpt><trkpt lat="46.5217441" lon="12.7703409"><ele>752.0</ele><time>2026-05-03T14:38:09.964Z</time></trkpt><trkpt lat="46.5218222" lon="12.7703278"><ele>752.0</ele><time>2026-05-03T14:38:12.965Z</time></trkpt><trkpt lat="46.5218942" lon="12.7703675"><ele>752.0</ele><time>2026-05-03T14:38:14.964Z</time></trkpt><trkpt lat="46.5219898" lon="12.7704343"><ele>752.0</ele><time>2026-05-03T14:38:17.965Z</time></trkpt><trkpt lat="46.522065" lon="12.7704938"><ele>752.0</ele><time>2026-05-03T14:38:20.965Z</time></trkpt><trkpt lat="46.5221243" lon="12.7705488"><ele>752.0</ele><time>2026-05-03T14:38:24.965Z</time></trkpt><trkpt lat="46.5221351" lon="12.770647"><ele>757.2</ele><time>2026-05-03T14:38:29.965Z</time></trkpt><trkpt lat="46.5221398" lon="12.7708019"><ele>762.4000000000001</ele><time>2026-05-03T14:38:31.965Z</time></trkpt><trkpt lat="46.5221495" lon="12.770946"><ele>767.5999999999999</ele><time>2026-05-03T14:38:33.965Z</time></trkpt><trkpt lat="46.5221573" lon="12.771101"><ele>772.8</ele><time>2026-05-03T14:38:35.965Z</time></trkpt><trkpt lat="46.5221562" lon="12.7712737"><ele>778.0</ele><time>2026-05-03T14:38:37.965Z</time></trkpt><trkpt lat="46.522142" lon="12.7714445"><ele>777.9999999999999</ele><time>2026-05-03T14:38:39.965Z</time></trkpt><trkpt lat="46.5221457" lon="12.7716294"><ele>778.0</ele><time>2026-05-03T14:38:41.964Z</time></trkpt><trkpt lat="46.5221458" lon="12.7717325"><ele>778.0</ele><time>2026-05-03T14:38:42.965Z</time></trkpt><trkpt lat="46.5221434" lon="12.7718449"><ele>778.0</ele><time>2026-05-03T14:38:43.964Z</time></trkpt><trkpt lat="46.5221365" lon="12.7719527"><ele>777.9999999999999</ele><time>2026-05-03T14:38:44.965Z</time></trkpt><trkpt lat="46.5221265" lon="12.7720552"><ele>778.0</ele><time>2026-05-03T14:38:45.966Z</time></trkpt><trkpt lat="46.5221131" lon="12.7721529"><ele>776.9999999999999</ele><time>2026-05-03T14:38:46.964Z</time></trkpt><trkpt lat="46.5221006" lon="12.7722459"><ele>776.0</ele><time>2026-05-03T14:38:47.965Z</time></trkpt><trkpt lat="46.5220725" lon="12.7724087"><ele>775.0</ele><time>2026-05-03T14:38:49.965Z</time></trkpt><trkpt lat="46.5220544" lon="12.7725045"><ele>774.0</ele><time>2026-05-03T14:38:50.965Z</time></trkpt><trkpt lat="46.5220384" lon="12.7726111"><ele>772.9999999999999</ele><time>2026-05-03T14:38:51.965Z</time></trkpt><trkpt lat="46.5220265" lon="12.7727198"><ele>772.0</ele><time>2026-05-03T14:38:52.965Z</time></trkpt><trkpt lat="46.5220145" lon="12.7728255"><ele>766.8333333333333</ele><time>2026-05-03T14:38:53.965Z</time></trkpt><trkpt lat="46.5220066" lon="12.7729283"><ele>761.6666666666666</ele><time>2026-05-03T14:38:54.964Z</time></trkpt><trkpt lat="46.5220056" lon="12.7730265"><ele>756.5</ele><time>2026-05-03T14:38:55.965Z</time></trkpt><trkpt lat="46.5220069" lon="12.7731935"><ele>751.3333333333333</ele><time>2026-05-03T14:38:57.965Z</time></trkpt><trkpt lat="46.5220153" lon="12.7733209"><ele>746.1666666666666</ele><time>2026-05-03T14:38:59.965Z</time></trkpt><trkpt lat="46.5220225" lon="12.7734298"><ele>741.0</ele><time>2026-05-03T14:39:01.966Z</time></trkpt><trkpt lat="46.5220514" lon="12.7736575"><ele>747.25</ele><time>2026-05-03T14:39:04.964Z</time></trkpt><trkpt lat="46.5220747" lon="12.7739038"><ele>753.5</ele><time>2026-05-03T14:39:06.964Z</time></trkpt><trkpt lat="46.5221029" lon="12.7741584"><ele>759.75</ele><time>2026-05-03T14:39:08.965Z</time></trkpt><trkpt lat="46.5221198" lon="12.7742834"><ele>766.0</ele><time>2026-05-03T14:39:09.965Z</time></trkpt><trkpt lat="46.5221379" lon="12.7744021"><ele>766.0</ele><time>2026-05-03T14:39:10.965Z</time></trkpt><trkpt lat="46.5221532" lon="12.7745158"><ele>766.0</ele><time>2026-05-03T14:39:11.964Z</time></trkpt><trkpt lat="46.5221698" lon="12.7746276"><ele>766.0</ele><time>2026-05-03T14:39:12.965Z</time></trkpt><trkpt lat="46.522193" lon="12.7747487"><ele>766.0</ele><time>2026-05-03T14:39:13.965Z</time></trkpt><trkpt lat="46.5222204" lon="12.7748786"><ele>766.0</ele><time>2026-05-03T14:39:14.965Z</time></trkpt><trkpt lat="46.5222515" lon="12.7750137"><ele>766.0</ele><time>2026-05-03T14:39:15.965Z</time></trkpt><trkpt lat="46.5222863" lon="12.7751539"><ele>763.5999999999999</ele><time>2026-05-03T14:39:16.965Z</time></trkpt><trkpt lat="46.5223212" lon="12.775296"><ele>761.2</ele><time>2026-05-03T14:39:17.965Z</time></trkpt><trkpt lat="46.5223572" lon="12.7754328"><ele>758.8</ele><time>2026-05-03T14:39:18.965Z</time></trkpt><trkpt lat="46.5223896" lon="12.7755727"><ele>756.4000000000001</ele><time>2026-05-03T14:39:19.964Z</time></trkpt><trkpt lat="46.5224198" lon="12.7757078"><ele>754.0</ele><time>2026-05-03T14:39:20.965Z</time></trkpt><trkpt lat="46.5224476" lon="12.775838"><ele>754.0</ele><time>2026-05-03T14:39:21.965Z</time></trkpt><trkpt lat="46.522464" lon="12.7759682"><ele>754.0</ele><time>2026-05-03T14:39:22.965Z</time></trkpt><trkpt lat="46.5224621" lon="12.7761017"><ele>754.0</ele><time>2026-05-03T14:39:23.965Z</time></trkpt><trkpt lat="46.5224408" lon="12.776234"><ele>754.0</ele><time>2026-05-03T14:39:24.965Z</time></trkpt><trkpt lat="46.5223934" lon="12.7763573"><ele>754.0</ele><time>2026-05-03T14:39:25.965Z</time></trkpt><trkpt lat="46.5223164" lon="12.7764735"><ele>754.25</ele><time>2026-05-03T14:39:26.964Z</time></trkpt><trkpt lat="46.5222244" lon="12.7765741"><ele>754.5</ele><time>2026-05-03T14:39:27.966Z</time></trkpt><trkpt lat="46.5221283" lon="12.7766581"><ele>754.75</ele><time>2026-05-03T14:39:28.965Z</time></trkpt><trkpt lat="46.5220325" lon="12.7767523"><ele>755.0</ele><time>2026-05-03T14:39:29.964Z</time></trkpt><trkpt lat="46.5219362" lon="12.7768492"><ele>753.8</ele><time>2026-05-03T14:39:30.966Z</time></trkpt><trkpt lat="46.5218472" lon="12.7769572"><ele>752.6</ele><time>2026-05-03T14:39:31.965Z</time></trkpt><trkpt lat="46.5217709" lon="12.7770753"><ele>751.4000000000001</ele><time>2026-05-03T14:39:32.965Z</time></trkpt><trkpt lat="46.5217016" lon="12.7771994"><ele>750.2</ele><time>2026-05-03T14:39:33.965Z</time></trkpt><trkpt lat="46.5216445" lon="12.7773336"><ele>749.0</ele><time>2026-05-03T14:39:34.965Z</time></trkpt><trkpt lat="46.5215966" lon="12.7774785"><ele>749.0</ele><time>2026-05-03T14:39:35.965Z</time></trkpt><trkpt lat="46.5215623" lon="12.7776303"><ele>749.0</ele><time>2026-05-03T14:39:36.965Z</time></trkpt><trkpt lat="46.5215394" lon="12.7777838"><ele>749.0</ele><time>2026-05-03T14:39:37.965Z</time></trkpt><trkpt lat="46.5215224" lon="12.7779508"><ele>749.0</ele><time>2026-05-03T14:39:38.964Z</time></trkpt><trkpt lat="46.5215087" lon="12.7781257"><ele>749.5</ele><time>2026-05-03T14:39:39.966Z</time></trkpt><trkpt lat="46.5214925" lon="12.7783029"><ele>750.0</ele><time>2026-05-03T14:39:40.965Z</time></trkpt><trkpt lat="46.5214776" lon="12.7784772"><ele>750.5</ele><time>2026-05-03T14:39:41.964Z</time></trkpt><trkpt lat="46.5214599" lon="12.778645"><ele>751.0</ele><time>2026-05-03T14:39:42.965Z</time></trkpt><trkpt lat="46.5214447" lon="12.7788132"><ele>751.0</ele><time>2026-05-03T14:39:43.964Z</time></trkpt><trkpt lat="46.5214255" lon="12.7789818"><ele>751.0</ele><time>2026-05-03T14:39:44.965Z</time></trkpt><trkpt lat="46.5214036" lon="12.779154"><ele>751.0</ele><time>2026-05-03T14:39:45.965Z</time></trkpt><trkpt lat="46.5213789" lon="12.7793361"><ele>751.0</ele><time>2026-05-03T14:39:46.964Z</time></trkpt><trkpt lat="46.5213531" lon="12.7795262"><ele>751.5</ele><time>2026-05-03T14:39:47.965Z</time></trkpt><trkpt lat="46.5213259" lon="12.7797258"><ele>752.0</ele><time>2026-05-03T14:39:48.966Z</time></trkpt><trkpt lat="46.5212988" lon="12.7799292"><ele>752.5</ele><time>2026-05-03T14:39:49.964Z</time></trkpt><trkpt lat="46.521272" lon="12.7801268"><ele>753.0</ele><time>2026-05-03T14:39:50.964Z</time></trkpt><trkpt lat="46.521246" lon="12.7803172"><ele>749.75</ele><time>2026-05-03T14:39:51.965Z</time></trkpt><trkpt lat="46.5212204" lon="12.780496"><ele>746.5</ele><time>2026-05-03T14:39:52.966Z</time></trkpt><trkpt lat="46.5211909" lon="12.7806696"><ele>743.25</ele><time>2026-05-03T14:39:53.965Z</time></trkpt><trkpt lat="46.5211581" lon="12.7808417"><ele>740.0</ele><time>2026-05-03T14:39:54.966Z</time></trkpt><trkpt lat="46.5211279" lon="12.7810164"><ele>739.25</ele><time>2026-05-03T14:39:55.965Z</time></trkpt><trkpt lat="46.5211064" lon="12.781195"><ele>738.5</ele><time>2026-05-03T14:39:56.965Z</time></trkpt><trkpt lat="46.5210935" lon="12.781385"><ele>737.75</ele><time>2026-05-03T14:39:57.965Z</time></trkpt><trkpt lat="46.5210896" lon="12.7815778"><ele>737.0</ele><time>2026-05-03T14:39:58.965Z</time></trkpt><trkpt lat="46.5210898" lon="12.781778"><ele>736.25</ele><time>2026-05-03T14:39:59.965Z</time></trkpt><trkpt lat="46.5210945" lon="12.7819739"><ele>735.5</ele><time>2026-05-03T14:40:00.964Z</time></trkpt><trkpt lat="46.5211011" lon="12.7821626"><ele>734.75</ele><time>2026-05-03T14:40:01.965Z</time></trkpt><trkpt lat="46.5211075" lon="12.7823501"><ele>734.0</ele><time>2026-05-03T14:40:02.965Z</time></trkpt><trkpt lat="46.5211129" lon="12.7825347"><ele>732.25</ele><time>2026-05-03T14:40:03.964Z</time></trkpt><trkpt lat="46.5211176" lon="12.7827146"><ele>730.5</ele><time>2026-05-03T14:40:04.964Z</time></trkpt><trkpt lat="46.5211234" lon="12.7828887"><ele>728.75</ele><time>2026-05-03T14:40:05.966Z</time></trkpt><trkpt lat="46.5211304" lon="12.7830627"><ele>727.0</ele><time>2026-05-03T14:40:06.965Z</time></trkpt><trkpt lat="46.5211358" lon="12.7832327"><ele>727.0</ele><time>2026-05-03T14:40:07.965Z</time></trkpt><trkpt lat="46.5211407" lon="12.7834009"><ele>727.0</ele><time>2026-05-03T14:40:08.965Z</time></trkpt><trkpt lat="46.5211474" lon="12.7835624"><ele>727.0</ele><time>2026-05-03T14:40:09.965Z</time></trkpt><trkpt lat="46.5211517" lon="12.783725"><ele>727.0</ele><time>2026-05-03T14:40:10.964Z</time></trkpt><trkpt lat="46.5211495" lon="12.7838847"><ele>727.0</ele><time>2026-05-03T14:40:11.964Z</time></trkpt><trkpt lat="46.5211416" lon="12.78405"><ele>726.0</ele><time>2026-05-03T14:40:12.964Z</time></trkpt><trkpt lat="46.5211312" lon="12.7842217"><ele>725.0</ele><time>2026-05-03T14:40:13.965Z</time></trkpt><trkpt lat="46.5211173" lon="12.7844046"><ele>724.0</ele><time>2026-05-03T14:40:14.966Z</time></trkpt><trkpt lat="46.5211008" lon="12.7845883"><ele>723.0</ele><time>2026-05-03T14:40:15.966Z</time></trkpt><trkpt lat="46.5210801" lon="12.7847652"><ele>722.75</ele><time>2026-05-03T14:40:16.964Z</time></trkpt><trkpt lat="46.5210574" lon="12.7849339"><ele>722.5</ele><time>2026-05-03T14:40:17.965Z</time></trkpt><trkpt lat="46.5210378" lon="12.7851018"><ele>722.25</ele><time>2026-05-03T14:40:18.965Z</time></trkpt><trkpt lat="46.5210198" lon="12.7852643"><ele>722.0</ele><time>2026-05-03T14:40:19.966Z</time></trkpt><trkpt lat="46.5209996" lon="12.785429"><ele>721.8</ele><time>2026-05-03T14:40:20.964Z</time></trkpt><trkpt lat="46.5209729" lon="12.7855882"><ele>721.6</ele><time>2026-05-03T14:40:21.965Z</time></trkpt><trkpt lat="46.5209397" lon="12.7857416"><ele>721.4</ele><time>2026-05-03T14:40:22.965Z</time></trkpt><trkpt lat="46.5209001" lon="12.7858901"><ele>721.1999999999999</ele><time>2026-05-03T14:40:23.965Z</time></trkpt><trkpt lat="46.5208636" lon="12.7860373"><ele>721.0</ele><time>2026-05-03T14:40:24.965Z</time></trkpt><trkpt lat="46.5208396" lon="12.7861939"><ele>720.0</ele><time>2026-05-03T14:40:25.966Z</time></trkpt><trkpt lat="46.520832" lon="12.7863578"><ele>719.0</ele><time>2026-05-03T14:40:26.964Z</time></trkpt><trkpt lat="46.5208289" lon="12.786536"><ele>718.0</ele><time>2026-05-03T14:40:27.964Z</time></trkpt><trkpt lat="46.5208107" lon="12.7867252"><ele>717.0</ele><time>2026-05-03T14:40:28.965Z</time></trkpt><trkpt lat="46.5207896" lon="12.7869287"><ele>716.0</ele><time>2026-05-03T14:40:29.964Z</time></trkpt><trkpt lat="46.5207755" lon="12.78714"><ele>715.0</ele><time>2026-05-03T14:40:30.965Z</time></trkpt><trkpt lat="46.5207641" lon="12.7873515"><ele>714.0</ele><time>2026-05-03T14:40:31.965Z</time></trkpt><trkpt lat="46.5207527" lon="12.7875622"><ele>713.0</ele><time>2026-05-03T14:40:32.965Z</time></trkpt><trkpt lat="46.5207494" lon="12.7877778"><ele>712.0</ele><time>2026-05-03T14:40:33.965Z</time></trkpt><trkpt lat="46.520746" lon="12.7879959"><ele>711.0</ele><time>2026-05-03T14:40:34.965Z</time></trkpt><trkpt lat="46.5207478" lon="12.7882187"><ele>710.0</ele><time>2026-05-03T14:40:35.965Z</time></trkpt><trkpt lat="46.520755" lon="12.7884408"><ele>709.6666666666666</ele><time>2026-05-03T14:40:36.964Z</time></trkpt><trkpt lat="46.5207631" lon="12.7886664"><ele>709.3333333333334</ele><time>2026-05-03T14:40:37.965Z</time></trkpt><trkpt lat="46.5207681" lon="12.7889005"><ele>709.0</ele><time>2026-05-03T14:40:38.966Z</time></trkpt><trkpt lat="46.5207647" lon="12.7891406"><ele>710.3333333333334</ele><time>2026-05-03T14:40:39.965Z</time></trkpt><trkpt lat="46.520756" lon="12.7893841"><ele>711.6666666666666</ele><time>2026-05-03T14:40:40.964Z</time></trkpt><trkpt lat="46.520742" lon="12.7896264"><ele>713.0</ele><time>2026-05-03T14:40:41.965Z</time></trkpt><trkpt lat="46.5207248" lon="12.7898584"><ele>713.0</ele><time>2026-05-03T14:40:42.965Z</time></trkpt><trkpt lat="46.5207067" lon="12.790085"><ele>713.0</ele><time>2026-05-03T14:40:43.964Z</time></trkpt><trkpt lat="46.5206875" lon="12.7903096"><ele>713.0</ele><time>2026-05-03T14:40:44.966Z</time></trkpt><trkpt lat="46.5206537" lon="12.7905319"><ele>716.0</ele><time>2026-05-03T14:40:45.965Z</time></trkpt><trkpt lat="46.5206082" lon="12.7907579"><ele>719.0</ele><time>2026-05-03T14:40:46.965Z</time></trkpt><trkpt lat="46.5205591" lon="12.7909788"><ele>722.0</ele><time>2026-05-03T14:40:47.965Z</time></trkpt><trkpt lat="46.5205034" lon="12.7911876"><ele>723.5</ele><time>2026-05-03T14:40:48.965Z</time></trkpt><trkpt lat="46.5204497" lon="12.7913932"><ele>725.0</ele><time>2026-05-03T14:40:49.965Z</time></trkpt><trkpt lat="46.5203988" lon="12.7915917"><ele>726.5</ele><time>2026-05-03T14:40:50.964Z</time></trkpt><trkpt lat="46.5203548" lon="12.7917865"><ele>728.0</ele><time>2026-05-03T14:40:51.966Z</time></trkpt><trkpt lat="46.520324" lon="12.7919834"><ele>718.75</ele><time>2026-05-03T14:40:52.964Z</time></trkpt><trkpt lat="46.5203053" lon="12.7921823"><ele>709.5</ele><time>2026-05-03T14:40:53.965Z</time></trkpt><trkpt lat="46.5202894" lon="12.7923812"><ele>700.25</ele><time>2026-05-03T14:40:54.965Z</time></trkpt><trkpt lat="46.5202578" lon="12.7925702"><ele>691.0</ele><time>2026-05-03T14:40:55.964Z</time></trkpt><trkpt lat="46.5202192" lon="12.7927568"><ele>691.0</ele><time>2026-05-03T14:40:56.965Z</time></trkpt><trkpt lat="46.5201741" lon="12.7929353"><ele>691.0</ele><time>2026-05-03T14:40:57.965Z</time></trkpt><trkpt lat="46.5201137" lon="12.7930987"><ele>691.0</ele><time>2026-05-03T14:40:58.965Z</time></trkpt><trkpt lat="46.5200335" lon="12.7932483"><ele>691.0</ele><time>2026-05-03T14:40:59.964Z</time></trkpt><trkpt lat="46.5199519" lon="12.7934093"><ele>691.75</ele><time>2026-05-03T14:41:00.965Z</time></trkpt><trkpt lat="46.519883" lon="12.7936045"><ele>692.5</ele><time>2026-05-03T14:41:01.964Z</time></trkpt><trkpt lat="46.5198201" lon="12.7938074"><ele>693.25</ele><time>2026-05-03T14:41:02.965Z</time></trkpt><trkpt lat="46.5197631" lon="12.7940015"><ele>694.0</ele><time>2026-05-03T14:41:03.964Z</time></trkpt><trkpt lat="46.5197143" lon="12.7941893"><ele>693.5</ele><time>2026-05-03T14:41:04.965Z</time></trkpt><trkpt lat="46.519666" lon="12.7943686"><ele>693.0</ele><time>2026-05-03T14:41:05.965Z</time></trkpt><trkpt lat="46.519627" lon="12.7945401"><ele>692.5</ele><time>2026-05-03T14:41:06.964Z</time></trkpt><trkpt lat="46.5195971" lon="12.7947078"><ele>692.0</ele><time>2026-05-03T14:41:07.965Z</time></trkpt><trkpt lat="46.5195705" lon="12.7948662"><ele>688.2</ele><time>2026-05-03T14:41:08.964Z</time></trkpt><trkpt lat="46.5195477" lon="12.7950155"><ele>684.4000000000001</ele><time>2026-05-03T14:41:09.965Z</time></trkpt><trkpt lat="46.5195253" lon="12.7951574"><ele>680.5999999999999</ele><time>2026-05-03T14:41:10.965Z</time></trkpt><trkpt lat="46.5195058" lon="12.7952958"><ele>676.8</ele><time>2026-05-03T14:41:11.965Z</time></trkpt><trkpt lat="46.5194876" lon="12.7954232"><ele>673.0</ele><time>2026-05-03T14:41:12.964Z</time></trkpt><trkpt lat="46.5194811" lon="12.7955657"><ele>672.6666666666667</ele><time>2026-05-03T14:41:13.964Z</time></trkpt><trkpt lat="46.5194934" lon="12.7957084"><ele>672.3333333333334</ele><time>2026-05-03T14:41:14.965Z</time></trkpt><trkpt lat="46.5195092" lon="12.7958333"><ele>672.0</ele><time>2026-05-03T14:41:15.965Z</time></trkpt><trkpt lat="46.5195346" lon="12.7959436"><ele>671.6666666666666</ele><time>2026-05-03T14:41:16.965Z</time></trkpt><trkpt lat="46.5195772" lon="12.7960349"><ele>671.3333333333333</ele><time>2026-05-03T14:41:17.964Z</time></trkpt><trkpt lat="46.5196361" lon="12.7961279"><ele>671.0</ele><time>2026-05-03T14:41:18.965Z</time></trkpt><trkpt lat="46.5196912" lon="12.796218"><ele>673.6666666666666</ele><time>2026-05-03T14:41:19.966Z</time></trkpt><trkpt lat="46.5197473" lon="12.7963082"><ele>676.3333333333333</ele><time>2026-05-03T14:41:20.965Z</time></trkpt><trkpt lat="46.5198004" lon="12.7963852"><ele>679.0</ele><time>2026-05-03T14:41:21.964Z</time></trkpt><trkpt lat="46.5198629" lon="12.7964535"><ele>681.6666666666666</ele><time>2026-05-03T14:41:22.966Z</time></trkpt><trkpt lat="46.5199247" lon="12.7965105"><ele>684.3333333333334</ele><time>2026-05-03T14:41:23.964Z</time></trkpt><trkpt lat="46.5200419" lon="12.7965633"><ele>687.0</ele><time>2026-05-03T14:41:25.964Z</time></trkpt><trkpt lat="46.5201526" lon="12.7966266"><ele>687.0</ele><time>2026-05-03T14:41:27.965Z</time></trkpt><trkpt lat="46.5202036" lon="12.7966974"><ele>687.0</ele><time>2026-05-03T14:41:28.965Z</time></trkpt><trkpt lat="46.5202576" lon="12.7967741"><ele>687.0</ele><time>2026-05-03T14:41:29.964Z</time></trkpt><trkpt lat="46.5202957" lon="12.7968661"><ele>687.0</ele><time>2026-05-03T14:41:30.965Z</time></trkpt><trkpt lat="46.5203327" lon="12.7969593"><ele>687.0</ele><time>2026-05-03T14:41:31.965Z</time></trkpt><trkpt lat="46.520359" lon="12.7970548"><ele>687.0</ele><time>2026-05-03T14:41:32.964Z</time></trkpt><trkpt lat="46.5203724" lon="12.7971665"><ele>687.0</ele><time>2026-05-03T14:41:33.964Z</time></trkpt><trkpt lat="46.520379" lon="12.7972818"><ele>686.0</ele><time>2026-05-03T14:41:34.964Z</time></trkpt><trkpt lat="46.5203808" lon="12.7974024"><ele>685.0</ele><time>2026-05-03T14:41:35.963Z</time></trkpt><trkpt lat="46.5203733" lon="12.7975295"><ele>684.0</ele><time>2026-05-03T14:41:36.964Z</time></trkpt><trkpt lat="46.520357" lon="12.7976647"><ele>683.0</ele><time>2026-05-03T14:41:37.963Z</time></trkpt><trkpt lat="46.5203398" lon="12.7978027"><ele>682.0</ele><time>2026-05-03T14:41:38.963Z</time></trkpt><trkpt lat="46.5203184" lon="12.7979363"><ele>681.8</ele><time>2026-05-03T14:41:39.965Z</time></trkpt><trkpt lat="46.5203018" lon="12.798071"><ele>681.6</ele><time>2026-05-03T14:41:40.963Z</time></trkpt><trkpt lat="46.5202837" lon="12.7982006"><ele>681.4</ele><time>2026-05-03T14:41:41.965Z</time></trkpt><trkpt lat="46.5202678" lon="12.7983301"><ele>681.1999999999999</ele><time>2026-05-03T14:41:42.963Z</time></trkpt><trkpt lat="46.5202505" lon="12.7984615"><ele>681.0</ele><time>2026-05-03T14:41:43.964Z</time></trkpt><trkpt lat="46.5202458" lon="12.7986061"><ele>678.5</ele><time>2026-05-03T14:41:44.963Z</time></trkpt><trkpt lat="46.5202594" lon="12.7987634"><ele>676.0</ele><time>2026-05-03T14:41:45.964Z</time></trkpt><trkpt lat="46.5202908" lon="12.798927"><ele>673.5</ele><time>2026-05-03T14:41:46.963Z</time></trkpt><trkpt lat="46.5203182" lon="12.7990897"><ele>671.0</ele><time>2026-05-03T14:41:47.964Z</time></trkpt><trkpt lat="46.5203407" lon="12.799255"><ele>670.0</ele><time>2026-05-03T14:41:48.963Z</time></trkpt><trkpt lat="46.520356" lon="12.7994261"><ele>669.0</ele><time>2026-05-03T14:41:49.964Z</time></trkpt><trkpt lat="46.5203667" lon="12.799591"><ele>668.0</ele><time>2026-05-03T14:41:50.965Z</time></trkpt><trkpt lat="46.5203769" lon="12.7997297"><ele>667.0</ele><time>2026-05-03T14:41:51.964Z</time></trkpt><trkpt lat="46.5203785" lon="12.7998421"><ele>666.0</ele><time>2026-05-03T14:41:52.965Z</time></trkpt><trkpt lat="46.5203782" lon="12.7999961"><ele>666.0</ele><time>2026-05-03T14:41:54.963Z</time></trkpt><trkpt lat="46.520368" lon="12.8000876"><ele>666.0</ele><time>2026-05-03T14:41:56.963Z</time></trkpt><trkpt lat="46.5203701" lon="12.8001816"><ele>666.0</ele><time>2026-05-03T14:42:50.963Z</time></trkpt><trkpt lat="46.5203838" lon="12.8003011"><ele>666.0</ele><time>2026-05-03T14:42:53.964Z</time></trkpt><trkpt lat="46.5203873" lon="12.800497"><ele>666.0</ele><time>2026-05-03T14:42:55.964Z</time></trkpt><trkpt lat="46.5203862" lon="12.8006265"><ele>666.0</ele><time>2026-05-03T14:42:56.964Z</time></trkpt><trkpt lat="46.5203836" lon="12.8007756"><ele>665.5</ele><time>2026-05-03T14:42:57.963Z</time></trkpt><trkpt lat="46.5203832" lon="12.8009426"><ele>665.0</ele><time>2026-05-03T14:42:58.964Z</time></trkpt><trkpt lat="46.5203804" lon="12.8011219"><ele>664.5</ele><time>2026-05-03T14:42:59.964Z</time></trkpt><trkpt lat="46.5203789" lon="12.801305"><ele>664.0</ele><time>2026-05-03T14:43:00.964Z</time></trkpt><trkpt lat="46.5203771" lon="12.8015015"><ele>663.5</ele><time>2026-05-03T14:43:01.963Z</time></trkpt><trkpt lat="46.5203757" lon="12.8017021"><ele>663.0</ele><time>2026-05-03T14:43:02.964Z</time></trkpt><trkpt lat="46.5203741" lon="12.8019103"><ele>662.5</ele><time>2026-05-03T14:43:03.964Z</time></trkpt><trkpt lat="46.5203722" lon="12.8021196"><ele>662.0</ele><time>2026-05-03T14:43:04.963Z</time></trkpt><trkpt lat="46.5203649" lon="12.8023239"><ele>662.0</ele><time>2026-05-03T14:43:05.964Z</time></trkpt><trkpt lat="46.5203519" lon="12.8025266"><ele>662.0</ele><time>2026-05-03T14:43:06.964Z</time></trkpt><trkpt lat="46.5203352" lon="12.8027235"><ele>662.0</ele><time>2026-05-03T14:43:07.963Z</time></trkpt><trkpt lat="46.5203205" lon="12.8029194"><ele>662.0</ele><time>2026-05-03T14:43:08.964Z</time></trkpt><trkpt lat="46.5203009" lon="12.8031044"><ele>662.25</ele><time>2026-05-03T14:43:09.964Z</time></trkpt><trkpt lat="46.5202787" lon="12.8032918"><ele>662.5</ele><time>2026-05-03T14:43:10.964Z</time></trkpt><trkpt lat="46.5202581" lon="12.8034923"><ele>662.75</ele><time>2026-05-03T14:43:11.963Z</time></trkpt><trkpt lat="46.520237" lon="12.8036984"><ele>663.0</ele><time>2026-05-03T14:43:12.964Z</time></trkpt><trkpt lat="46.5202193" lon="12.8039056"><ele>662.5</ele><time>2026-05-03T14:43:13.963Z</time></trkpt><trkpt lat="46.5201996" lon="12.8041097"><ele>662.0</ele><time>2026-05-03T14:43:14.965Z</time></trkpt><trkpt lat="46.5201813" lon="12.8043202"><ele>661.5</ele><time>2026-05-03T14:43:15.963Z</time></trkpt><trkpt lat="46.5201666" lon="12.8045334"><ele>661.0</ele><time>2026-05-03T14:43:16.964Z</time></trkpt><trkpt lat="46.5201555" lon="12.8047471"><ele>660.75</ele><time>2026-05-03T14:43:17.963Z</time></trkpt><trkpt lat="46.520148" lon="12.8049603"><ele>660.5</ele><time>2026-05-03T14:43:18.963Z</time></trkpt><trkpt lat="46.520143" lon="12.8051759"><ele>660.25</ele><time>2026-05-03T14:43:19.964Z</time></trkpt><trkpt lat="46.5201424" lon="12.8053959"><ele>660.0</ele><time>2026-05-03T14:43:20.965Z</time></trkpt><trkpt lat="46.5201505" lon="12.8056289"><ele>659.3333333333334</ele><time>2026-05-03T14:43:21.965Z</time></trkpt><trkpt lat="46.5201693" lon="12.8058632"><ele>658.6666666666667</ele><time>2026-05-03T14:43:22.964Z</time></trkpt><trkpt lat="46.5201912" lon="12.8060884"><ele>658.0</ele><time>2026-05-03T14:43:23.963Z</time></trkpt><trkpt lat="46.520214" lon="12.8063018"><ele>658.0</ele><time>2026-05-03T14:43:24.964Z</time></trkpt><trkpt lat="46.5202378" lon="12.8064988"><ele>658.0</ele><time>2026-05-03T14:43:25.964Z</time></trkpt><trkpt lat="46.5202596" lon="12.8066789"><ele>658.0</ele><time>2026-05-03T14:43:26.964Z</time></trkpt><trkpt lat="46.5202684" lon="12.8068437"><ele>658.0</ele><time>2026-05-03T14:43:27.964Z</time></trkpt><trkpt lat="46.520248" lon="12.8069939"><ele>658.0</ele><time>2026-05-03T14:43:28.964Z</time></trkpt><trkpt lat="46.5201879" lon="12.8071301"><ele>658.0</ele><time>2026-05-03T14:43:29.964Z</time></trkpt><trkpt lat="46.520115" lon="12.8072632"><ele>658.0</ele><time>2026-05-03T14:43:30.964Z</time></trkpt><trkpt lat="46.5200345" lon="12.8074033"><ele>658.0</ele><time>2026-05-03T14:43:31.964Z</time></trkpt><trkpt lat="46.5199629" lon="12.8075529"><ele>659.0</ele><time>2026-05-03T14:43:32.964Z</time></trkpt><trkpt lat="46.5199127" lon="12.8077272"><ele>660.0</ele><time>2026-05-03T14:43:33.963Z</time></trkpt><trkpt lat="46.5198943" lon="12.8079125"><ele>661.0</ele><time>2026-05-03T14:43:34.964Z</time></trkpt><trkpt lat="46.519897" lon="12.8081014"><ele>662.0</ele><time>2026-05-03T14:43:35.964Z</time></trkpt><trkpt lat="46.5198979" lon="12.8082982"><ele>662.0</ele><time>2026-05-03T14:43:36.964Z</time></trkpt><trkpt lat="46.519896" lon="12.8084827"><ele>662.0</ele><time>2026-05-03T14:43:37.963Z</time></trkpt><trkpt lat="46.5198845" lon="12.80866"><ele>662.0</ele><time>2026-05-03T14:43:38.964Z</time></trkpt><trkpt lat="46.5198578" lon="12.808832"><ele>662.0</ele><time>2026-05-03T14:43:39.964Z</time></trkpt><trkpt lat="46.5198111" lon="12.8089978"><ele>663.0</ele><time>2026-05-03T14:43:40.964Z</time></trkpt><trkpt lat="46.5197595" lon="12.8091708"><ele>664.0</ele><time>2026-05-03T14:43:41.964Z</time></trkpt><trkpt lat="46.5197307" lon="12.8093609"><ele>665.0</ele><time>2026-05-03T14:43:42.963Z</time></trkpt><trkpt lat="46.5197133" lon="12.8095462"><ele>666.0</ele><time>2026-05-03T14:43:43.964Z</time></trkpt><trkpt lat="46.519709" lon="12.8097319"><ele>666.75</ele><time>2026-05-03T14:43:44.964Z</time></trkpt><trkpt lat="46.5197193" lon="12.809923"><ele>667.5</ele><time>2026-05-03T14:43:45.964Z</time></trkpt><trkpt lat="46.5197303" lon="12.8101285"><ele>668.25</ele><time>2026-05-03T14:43:46.963Z</time></trkpt><trkpt lat="46.5197522" lon="12.8103474"><ele>669.0</ele><time>2026-05-03T14:43:47.964Z</time></trkpt><trkpt lat="46.5197782" lon="12.8105659"><ele>669.0</ele><time>2026-05-03T14:43:48.964Z</time></trkpt><trkpt lat="46.5198103" lon="12.8107861"><ele>669.0</ele><time>2026-05-03T14:43:49.964Z</time></trkpt><trkpt lat="46.5198418" lon="12.8110054"><ele>669.0</ele><time>2026-05-03T14:43:50.964Z</time></trkpt><trkpt lat="46.5198694" lon="12.8112155"><ele>668.5</ele><time>2026-05-03T14:43:51.965Z</time></trkpt><trkpt lat="46.5198979" lon="12.8114186"><ele>668.0</ele><time>2026-05-03T14:43:52.964Z</time></trkpt><trkpt lat="46.5199256" lon="12.811618"><ele>667.5</ele><time>2026-05-03T14:43:53.965Z</time></trkpt><trkpt lat="46.519938" lon="12.81181"><ele>667.0</ele><time>2026-05-03T14:43:54.963Z</time></trkpt><trkpt lat="46.5199266" lon="12.8120041"><ele>668.25</ele><time>2026-05-03T14:43:55.963Z</time></trkpt><trkpt lat="46.5198902" lon="12.8122011"><ele>669.5</ele><time>2026-05-03T14:43:56.963Z</time></trkpt><trkpt lat="46.5198269" lon="12.8123894"><ele>670.75</ele><time>2026-05-03T14:43:57.964Z</time></trkpt><trkpt lat="46.5197404" lon="12.8125676"><ele>672.0</ele><time>2026-05-03T14:43:58.964Z</time></trkpt><trkpt lat="46.5196596" lon="12.8127401"><ele>673.75</ele><time>2026-05-03T14:43:59.963Z</time></trkpt><trkpt lat="46.5195953" lon="12.8129335"><ele>675.5</ele><time>2026-05-03T14:44:00.963Z</time></trkpt><trkpt lat="46.5195456" lon="12.8131408"><ele>677.25</ele><time>2026-05-03T14:44:01.964Z</time></trkpt><trkpt lat="46.519477" lon="12.8133302"><ele>679.0</ele><time>2026-05-03T14:44:02.964Z</time></trkpt><trkpt lat="46.5193849" lon="12.8135027"><ele>672.3333333333334</ele><time>2026-05-03T14:44:03.964Z</time></trkpt><trkpt lat="46.5192795" lon="12.8136746"><ele>665.6666666666666</ele><time>2026-05-03T14:44:04.963Z</time></trkpt><trkpt lat="46.5191803" lon="12.8138537"><ele>659.0</ele><time>2026-05-03T14:44:05.963Z</time></trkpt><trkpt lat="46.5190886" lon="12.8140468"><ele>659.0</ele><time>2026-05-03T14:44:06.964Z</time></trkpt><trkpt lat="46.5189987" lon="12.8142377"><ele>659.0</ele><time>2026-05-03T14:44:07.963Z</time></trkpt><trkpt lat="46.5189118" lon="12.8144252"><ele>659.0</ele><time>2026-05-03T14:44:08.964Z</time></trkpt><trkpt lat="46.5188295" lon="12.814612"><ele>655.3333333333333</ele><time>2026-05-03T14:44:09.965Z</time></trkpt><trkpt lat="46.5187623" lon="12.8148044"><ele>651.6666666666666</ele><time>2026-05-03T14:44:10.964Z</time></trkpt><trkpt lat="46.5187168" lon="12.8150205"><ele>648.0</ele><time>2026-05-03T14:44:11.964Z</time></trkpt><trkpt lat="46.5186829" lon="12.81523"><ele>648.0</ele><time>2026-05-03T14:44:12.964Z</time></trkpt><trkpt lat="46.5186528" lon="12.8154199"><ele>648.0</ele><time>2026-05-03T14:44:13.964Z</time></trkpt><trkpt lat="46.5186187" lon="12.8155931"><ele>648.0</ele><time>2026-05-03T14:44:14.964Z</time></trkpt><trkpt lat="46.5185595" lon="12.8157446"><ele>648.0</ele><time>2026-05-03T14:44:15.964Z</time></trkpt><trkpt lat="46.5184755" lon="12.8158737"><ele>650.75</ele><time>2026-05-03T14:44:16.964Z</time></trkpt><trkpt lat="46.5183742" lon="12.8160036"><ele>653.5</ele><time>2026-05-03T14:44:17.964Z</time></trkpt><trkpt lat="46.5182734" lon="12.8161297"><ele>656.25</ele><time>2026-05-03T14:44:18.964Z</time></trkpt><trkpt lat="46.5181831" lon="12.8162609"><ele>659.0</ele><time>2026-05-03T14:44:19.964Z</time></trkpt><trkpt lat="46.5181105" lon="12.8163983"><ele>659.0</ele><time>2026-05-03T14:44:20.964Z</time></trkpt><trkpt lat="46.5180641" lon="12.8165523"><ele>659.0</ele><time>2026-05-03T14:44:21.964Z</time></trkpt><trkpt lat="46.5180384" lon="12.8167268"><ele>659.0</ele><time>2026-05-03T14:44:22.964Z</time></trkpt><trkpt lat="46.5180461" lon="12.8169047"><ele>659.0</ele><time>2026-05-03T14:44:23.964Z</time></trkpt><trkpt lat="46.5180663" lon="12.8170773"><ele>657.25</ele><time>2026-05-03T14:44:24.964Z</time></trkpt><trkpt lat="46.5181155" lon="12.81725"><ele>655.5</ele><time>2026-05-03T14:44:25.963Z</time></trkpt><trkpt lat="46.5181873" lon="12.8174247"><ele>653.75</ele><time>2026-05-03T14:44:26.964Z</time></trkpt><trkpt lat="46.5182728" lon="12.8175983"><ele>652.0</ele><time>2026-05-03T14:44:27.964Z</time></trkpt><trkpt lat="46.5183655" lon="12.8177596"><ele>650.0</ele><time>2026-05-03T14:44:28.964Z</time></trkpt><trkpt lat="46.5184545" lon="12.8179073"><ele>648.0</ele><time>2026-05-03T14:44:29.964Z</time></trkpt><trkpt lat="46.518536" lon="12.8180533"><ele>646.0</ele><time>2026-05-03T14:44:30.964Z</time></trkpt><trkpt lat="46.518596" lon="12.8182188"><ele>644.0</ele><time>2026-05-03T14:44:31.964Z</time></trkpt><trkpt lat="46.518627" lon="12.8184121"><ele>643.5</ele><time>2026-05-03T14:44:32.964Z</time></trkpt><trkpt lat="46.5186294" lon="12.8186246"><ele>643.0</ele><time>2026-05-03T14:44:33.965Z</time></trkpt><trkpt lat="46.5186096" lon="12.8188403"><ele>642.5</ele><time>2026-05-03T14:44:34.964Z</time></trkpt><trkpt lat="46.5185888" lon="12.8190594"><ele>642.0</ele><time>2026-05-03T14:44:35.964Z</time></trkpt><trkpt lat="46.5185842" lon="12.819284"><ele>643.0</ele><time>2026-05-03T14:44:36.964Z</time></trkpt><trkpt lat="46.518571" lon="12.8195167"><ele>644.0</ele><time>2026-05-03T14:44:37.964Z</time></trkpt><trkpt lat="46.5185353" lon="12.8197456"><ele>645.0</ele><time>2026-05-03T14:44:38.964Z</time></trkpt><trkpt lat="46.5184898" lon="12.819961"><ele>646.6666666666666</ele><time>2026-05-03T14:44:39.964Z</time></trkpt><trkpt lat="46.5184374" lon="12.8201668"><ele>648.3333333333333</ele><time>2026-05-03T14:44:40.964Z</time></trkpt><trkpt lat="46.5183688" lon="12.8203667"><ele>650.0</ele><time>2026-05-03T14:44:41.964Z</time></trkpt><trkpt lat="46.518289" lon="12.8205459"><ele>650.0</ele><time>2026-05-03T14:44:42.965Z</time></trkpt><trkpt lat="46.5182043" lon="12.8207109"><ele>650.0</ele><time>2026-05-03T14:44:43.964Z</time></trkpt><trkpt lat="46.518138" lon="12.8208782"><ele>650.0</ele><time>2026-05-03T14:44:44.963Z</time></trkpt><trkpt lat="46.5180975" lon="12.821046"><ele>650.0</ele><time>2026-05-03T14:44:45.964Z</time></trkpt><trkpt lat="46.5180782" lon="12.8212121"><ele>650.5</ele><time>2026-05-03T14:44:46.963Z</time></trkpt><trkpt lat="46.5180706" lon="12.8213876"><ele>651.0</ele><time>2026-05-03T14:44:47.964Z</time></trkpt><trkpt lat="46.5180656" lon="12.8215774"><ele>651.5</ele><time>2026-05-03T14:44:48.964Z</time></trkpt><trkpt lat="46.518062" lon="12.8217805"><ele>652.0</ele><time>2026-05-03T14:44:49.964Z</time></trkpt><trkpt lat="46.5180529" lon="12.8219865"><ele>652.0</ele><time>2026-05-03T14:44:50.964Z</time></trkpt><trkpt lat="46.5180314" lon="12.8221927"><ele>652.0</ele><time>2026-05-03T14:44:51.964Z</time></trkpt><trkpt lat="46.518001" lon="12.8224058"><ele>652.0</ele><time>2026-05-03T14:44:52.964Z</time></trkpt><trkpt lat="46.5179678" lon="12.8226207"><ele>652.0</ele><time>2026-05-03T14:44:53.964Z</time></trkpt><trkpt lat="46.5179219" lon="12.8228373"><ele>644.0</ele><time>2026-05-03T14:44:54.963Z</time></trkpt><trkpt lat="46.5178644" lon="12.8230545"><ele>636.0</ele><time>2026-05-03T14:44:55.964Z</time></trkpt><trkpt lat="46.5178185" lon="12.8232662"><ele>628.0</ele><time>2026-05-03T14:44:56.964Z</time></trkpt><trkpt lat="46.5177935" lon="12.8234936"><ele>628.0</ele><time>2026-05-03T14:44:57.964Z</time></trkpt><trkpt lat="46.5177802" lon="12.8237421"><ele>628.0</ele><time>2026-05-03T14:44:58.964Z</time></trkpt><trkpt lat="46.5177692" lon="12.8240006"><ele>628.0</ele><time>2026-05-03T14:44:59.964Z</time></trkpt><trkpt lat="46.517755" lon="12.8242589"><ele>628.0</ele><time>2026-05-03T14:45:00.965Z</time></trkpt><trkpt lat="46.5177414" lon="12.824513"><ele>628.0</ele><time>2026-05-03T14:45:01.963Z</time></trkpt><trkpt lat="46.5177179" lon="12.824761"><ele>628.0</ele><time>2026-05-03T14:45:02.965Z</time></trkpt><trkpt lat="46.5176769" lon="12.8250001"><ele>629.0</ele><time>2026-05-03T14:45:03.965Z</time></trkpt><trkpt lat="46.5176323" lon="12.8252295"><ele>630.0</ele><time>2026-05-03T14:45:04.964Z</time></trkpt><trkpt lat="46.5175991" lon="12.8254675"><ele>631.0</ele><time>2026-05-03T14:45:05.965Z</time></trkpt><trkpt lat="46.517572" lon="12.8256985"><ele>631.0</ele><time>2026-05-03T14:45:06.964Z</time></trkpt><trkpt lat="46.5175266" lon="12.8259276"><ele>631.0</ele><time>2026-05-03T14:45:07.964Z</time></trkpt><trkpt lat="46.5174629" lon="12.8261479"><ele>631.0</ele><time>2026-05-03T14:45:08.964Z</time></trkpt><trkpt lat="46.5173909" lon="12.8263728"><ele>632.3333333333334</ele><time>2026-05-03T14:45:09.964Z</time></trkpt><trkpt lat="46.5173283" lon="12.8266096"><ele>633.6666666666666</ele><time>2026-05-03T14:45:10.964Z</time></trkpt><trkpt lat="46.5172835" lon="12.8268749"><ele>635.0</ele><time>2026-05-03T14:45:11.964Z</time></trkpt><trkpt lat="46.517242" lon="12.8271517"><ele>636.0</ele><time>2026-05-03T14:45:12.964Z</time></trkpt><trkpt lat="46.5172074" lon="12.8274372"><ele>637.0</ele><time>2026-05-03T14:45:13.964Z</time></trkpt><trkpt lat="46.517172" lon="12.8277241"><ele>638.0</ele><time>2026-05-03T14:45:14.964Z</time></trkpt><trkpt lat="46.5171382" lon="12.8280183"><ele>639.3333333333333</ele><time>2026-05-03T14:45:15.964Z</time></trkpt><trkpt lat="46.5171015" lon="12.8283152"><ele>640.6666666666666</ele><time>2026-05-03T14:45:16.964Z</time></trkpt><trkpt lat="46.5170638" lon="12.82861"><ele>642.0</ele><time>2026-05-03T14:45:17.963Z</time></trkpt><trkpt lat="46.5170229" lon="12.8288977"><ele>632.3333333333334</ele><time>2026-05-03T14:45:18.964Z</time></trkpt><trkpt lat="46.516977" lon="12.829185"><ele>622.6666666666667</ele><time>2026-05-03T14:45:19.964Z</time></trkpt><trkpt lat="46.5169246" lon="12.8294729"><ele>613.0</ele><time>2026-05-03T14:45:20.963Z</time></trkpt><trkpt lat="46.516873" lon="12.829752"><ele>613.0</ele><time>2026-05-03T14:45:21.964Z</time></trkpt><trkpt lat="46.5168216" lon="12.8300178"><ele>613.0</ele><time>2026-05-03T14:45:22.964Z</time></trkpt><trkpt lat="46.5167674" lon="12.8302727"><ele>613.0</ele><time>2026-05-03T14:45:23.964Z</time></trkpt><trkpt lat="46.5167038" lon="12.8305152"><ele>617.0</ele><time>2026-05-03T14:45:24.964Z</time></trkpt><trkpt lat="46.5166219" lon="12.8307489"><ele>621.0</ele><time>2026-05-03T14:45:25.964Z</time></trkpt><trkpt lat="46.5165216" lon="12.8309809"><ele>625.0</ele><time>2026-05-03T14:45:26.963Z</time></trkpt><trkpt lat="46.5164108" lon="12.8312086"><ele>624.0</ele><time>2026-05-03T14:45:27.964Z</time></trkpt><trkpt lat="46.5162965" lon="12.8314243"><ele>623.0</ele><time>2026-05-03T14:45:28.964Z</time></trkpt><trkpt lat="46.5161802" lon="12.8316301"><ele>622.0</ele><time>2026-05-03T14:45:29.964Z</time></trkpt><trkpt lat="46.516061" lon="12.8318187"><ele>622.0</ele><time>2026-05-03T14:45:30.963Z</time></trkpt><trkpt lat="46.5159363" lon="12.8319918"><ele>622.0</ele><time>2026-05-03T14:45:31.964Z</time></trkpt><trkpt lat="46.5158059" lon="12.8321549"><ele>622.0</ele><time>2026-05-03T14:45:32.964Z</time></trkpt><trkpt lat="46.5156751" lon="12.8323105"><ele>622.0</ele><time>2026-05-03T14:45:33.964Z</time></trkpt><trkpt lat="46.5155427" lon="12.8324636"><ele>622.0</ele><time>2026-05-03T14:45:34.964Z</time></trkpt><trkpt lat="46.5154128" lon="12.8326104"><ele>622.0</ele><time>2026-05-03T14:45:35.963Z</time></trkpt><trkpt lat="46.515287" lon="12.8327513"><ele>620.0</ele><time>2026-05-03T14:45:36.964Z</time></trkpt><trkpt lat="46.5151679" lon="12.8328869"><ele>618.0</ele><time>2026-05-03T14:45:37.964Z</time></trkpt><trkpt lat="46.5150553" lon="12.83302"><ele>616.0</ele><time>2026-05-03T14:45:38.964Z</time></trkpt><trkpt lat="46.5149503" lon="12.8331521"><ele>614.0</ele><time>2026-05-03T14:45:39.963Z</time></trkpt><trkpt lat="46.5148588" lon="12.8332849"><ele>614.0</ele><time>2026-05-03T14:45:40.965Z</time></trkpt><trkpt lat="46.5147874" lon="12.8334101"><ele>614.0</ele><time>2026-05-03T14:45:41.963Z</time></trkpt><trkpt lat="46.5147386" lon="12.8335303"><ele>614.0</ele><time>2026-05-03T14:45:42.964Z</time></trkpt><trkpt lat="46.514702" lon="12.8336372"><ele>614.0</ele><time>2026-05-03T14:45:43.964Z</time></trkpt><trkpt lat="46.5146731" lon="12.8337299"><ele>614.0</ele><time>2026-05-03T14:45:44.965Z</time></trkpt><trkpt lat="46.514646" lon="12.8338162"><ele>614.0</ele><time>2026-05-03T14:45:45.963Z</time></trkpt><trkpt lat="46.5146191" lon="12.8339066"><ele>615.4</ele><time>2026-05-03T14:45:46.964Z</time></trkpt><trkpt lat="46.5145885" lon="12.8340229"><ele>616.8</ele><time>2026-05-03T14:45:47.963Z</time></trkpt><trkpt lat="46.5145515" lon="12.8341597"><ele>618.2</ele><time>2026-05-03T14:45:48.963Z</time></trkpt><trkpt lat="46.514511" lon="12.834319"><ele>619.6</ele><time>2026-05-03T14:45:49.964Z</time></trkpt><trkpt lat="46.5144696" lon="12.8344854"><ele>621.0</ele><time>2026-05-03T14:45:50.964Z</time></trkpt><trkpt lat="46.514422" lon="12.8346612"><ele>617.5</ele><time>2026-05-03T14:45:51.964Z</time></trkpt><trkpt lat="46.5143716" lon="12.8348422"><ele>614.0</ele><time>2026-05-03T14:45:52.965Z</time></trkpt><trkpt lat="46.514319" lon="12.8350228"><ele>610.5</ele><time>2026-05-03T14:45:53.964Z</time></trkpt><trkpt lat="46.5142664" lon="12.8352036"><ele>607.0</ele><time>2026-05-03T14:45:54.963Z</time></trkpt><trkpt lat="46.5142079" lon="12.8353944"><ele>607.0</ele><time>2026-05-03T14:45:55.964Z</time></trkpt><trkpt lat="46.5141412" lon="12.835588"><ele>607.0</ele><time>2026-05-03T14:45:56.963Z</time></trkpt><trkpt lat="46.5140769" lon="12.8357759"><ele>607.0</ele><time>2026-05-03T14:45:57.964Z</time></trkpt><trkpt lat="46.514014" lon="12.8359611"><ele>607.0</ele><time>2026-05-03T14:45:58.964Z</time></trkpt><trkpt lat="46.5139536" lon="12.8361383"><ele>606.25</ele><time>2026-05-03T14:45:59.964Z</time></trkpt><trkpt lat="46.5139053" lon="12.836318"><ele>605.5</ele><time>2026-05-03T14:46:00.965Z</time></trkpt><trkpt lat="46.5138754" lon="12.836513"><ele>604.75</ele><time>2026-05-03T14:46:01.963Z</time></trkpt><trkpt lat="46.5138656" lon="12.836728"><ele>604.0</ele><time>2026-05-03T14:46:02.964Z</time></trkpt><trkpt lat="46.5138657" lon="12.8369602"><ele>602.3333333333334</ele><time>2026-05-03T14:46:03.965Z</time></trkpt><trkpt lat="46.5138678" lon="12.8372043"><ele>600.6666666666666</ele><time>2026-05-03T14:46:04.963Z</time></trkpt><trkpt lat="46.513871" lon="12.8374527"><ele>599.0</ele><time>2026-05-03T14:46:05.964Z</time></trkpt><trkpt lat="46.5138741" lon="12.8376943"><ele>598.3333333333333</ele><time>2026-05-03T14:46:06.964Z</time></trkpt><trkpt lat="46.5138776" lon="12.8379239"><ele>597.6666666666666</ele><time>2026-05-03T14:46:07.963Z</time></trkpt><trkpt lat="46.5138884" lon="12.8381487"><ele>597.0</ele><time>2026-05-03T14:46:08.963Z</time></trkpt><trkpt lat="46.5139139" lon="12.8383712"><ele>596.0</ele><time>2026-05-03T14:46:09.965Z</time></trkpt><trkpt lat="46.5139578" lon="12.8385862"><ele>595.0</ele><time>2026-05-03T14:46:10.964Z</time></trkpt><trkpt lat="46.5140122" lon="12.8387928"><ele>594.0</ele><time>2026-05-03T14:46:11.963Z</time></trkpt><trkpt lat="46.514062" lon="12.8389877"><ele>594.0</ele><time>2026-05-03T14:46:12.964Z</time></trkpt><trkpt lat="46.5140867" lon="12.8391741"><ele>594.0</ele><time>2026-05-03T14:46:13.964Z</time></trkpt><trkpt lat="46.5140772" lon="12.8393613"><ele>594.0</ele><time>2026-05-03T14:46:14.965Z</time></trkpt><trkpt lat="46.5140519" lon="12.8395568"><ele>594.0</ele><time>2026-05-03T14:46:15.964Z</time></trkpt><trkpt lat="46.5140493" lon="12.839776"><ele>593.0</ele><time>2026-05-03T14:46:16.963Z</time></trkpt><trkpt lat="46.5140686" lon="12.8400121"><ele>592.0</ele><time>2026-05-03T14:46:17.964Z</time></trkpt><trkpt lat="46.5140854" lon="12.8402699"><ele>591.0</ele><time>2026-05-03T14:46:18.963Z</time></trkpt><trkpt lat="46.5141065" lon="12.8405391"><ele>588.0</ele><time>2026-05-03T14:46:19.963Z</time></trkpt><trkpt lat="46.514127" lon="12.8408183"><ele>585.0</ele><time>2026-05-03T14:46:20.964Z</time></trkpt><trkpt lat="46.5141504" lon="12.8410939"><ele>582.0</ele><time>2026-05-03T14:46:21.963Z</time></trkpt><trkpt lat="46.514174" lon="12.8413655"><ele>581.6666666666666</ele><time>2026-05-03T14:46:22.964Z</time></trkpt><trkpt lat="46.5141974" lon="12.8416135"><ele>581.3333333333333</ele><time>2026-05-03T14:46:23.964Z</time></trkpt><trkpt lat="46.5142168" lon="12.8418322"><ele>581.0</ele><time>2026-05-03T14:46:24.963Z</time></trkpt><trkpt lat="46.5142333" lon="12.8420259"><ele>583.0</ele><time>2026-05-03T14:46:25.964Z</time></trkpt><trkpt lat="46.5142326" lon="12.8422135"><ele>585.0</ele><time>2026-05-03T14:46:26.964Z</time></trkpt><trkpt lat="46.5141929" lon="12.8423961"><ele>587.0</ele><time>2026-05-03T14:46:27.964Z</time></trkpt><trkpt lat="46.5141193" lon="12.8425802"><ele>589.0</ele><time>2026-05-03T14:46:28.964Z</time></trkpt><trkpt lat="46.5140227" lon="12.8427697"><ele>593.6666666666667</ele><time>2026-05-03T14:46:29.964Z</time></trkpt><trkpt lat="46.513922" lon="12.8429661"><ele>598.3333333333334</ele><time>2026-05-03T14:46:30.964Z</time></trkpt><trkpt lat="46.5138111" lon="12.8431727"><ele>603.0</ele><time>2026-05-03T14:46:31.965Z</time></trkpt><trkpt lat="46.5137044" lon="12.8433835"><ele>594.6666666666666</ele><time>2026-05-03T14:46:32.963Z</time></trkpt><trkpt lat="46.5136014" lon="12.8435861"><ele>586.3333333333333</ele><time>2026-05-03T14:46:33.964Z</time></trkpt><trkpt lat="46.5134954" lon="12.8437934"><ele>578.0</ele><time>2026-05-03T14:46:34.963Z</time></trkpt><trkpt lat="46.5133882" lon="12.8440011"><ele>578.0</ele><time>2026-05-03T14:46:35.964Z</time></trkpt><trkpt lat="46.5132779" lon="12.8442081"><ele>578.0</ele><time>2026-05-03T14:46:36.965Z</time></trkpt><trkpt lat="46.5131708" lon="12.8444159"><ele>578.0</ele><time>2026-05-03T14:46:37.963Z</time></trkpt><trkpt lat="46.5130667" lon="12.8446292"><ele>573.3333333333333</ele><time>2026-05-03T14:46:38.963Z</time></trkpt><trkpt lat="46.5129773" lon="12.8448673"><ele>568.6666666666666</ele><time>2026-05-03T14:46:39.964Z</time></trkpt><trkpt lat="46.5128885" lon="12.8451251"><ele>564.0</ele><time>2026-05-03T14:46:40.963Z</time></trkpt><trkpt lat="46.5128001" lon="12.8453892"><ele>564.0</ele><time>2026-05-03T14:46:41.964Z</time></trkpt><trkpt lat="46.5127151" lon="12.8456517"><ele>564.0</ele><time>2026-05-03T14:46:42.963Z</time></trkpt><trkpt lat="46.5126316" lon="12.845908"><ele>564.0</ele><time>2026-05-03T14:46:43.964Z</time></trkpt><trkpt lat="46.5125549" lon="12.8461593"><ele>564.3333333333334</ele><time>2026-05-03T14:46:44.963Z</time></trkpt><trkpt lat="46.5124819" lon="12.8464104"><ele>564.6666666666667</ele><time>2026-05-03T14:46:45.964Z</time></trkpt><trkpt lat="46.5124141" lon="12.8466634"><ele>565.0</ele><time>2026-05-03T14:46:46.963Z</time></trkpt><trkpt lat="46.5123513" lon="12.8469265"><ele>567.6666666666667</ele><time>2026-05-03T14:46:47.964Z</time></trkpt><trkpt lat="46.5122918" lon="12.8471942"><ele>570.3333333333334</ele><time>2026-05-03T14:46:48.964Z</time></trkpt><trkpt lat="46.5122329" lon="12.8474597"><ele>573.0</ele><time>2026-05-03T14:46:49.965Z</time></trkpt><trkpt lat="46.5121672" lon="12.8477158"><ele>568.0</ele><time>2026-05-03T14:46:50.964Z</time></trkpt><trkpt lat="46.5121023" lon="12.8479679"><ele>563.0</ele><time>2026-05-03T14:46:51.963Z</time></trkpt><trkpt lat="46.5120456" lon="12.848225"><ele>558.0</ele><time>2026-05-03T14:46:52.964Z</time></trkpt><trkpt lat="46.5120007" lon="12.8484773"><ele>558.0</ele><time>2026-05-03T14:46:53.965Z</time></trkpt><trkpt lat="46.51196" lon="12.848713"><ele>558.0</ele><time>2026-05-03T14:46:54.963Z</time></trkpt><trkpt lat="46.5119156" lon="12.8489347"><ele>558.0</ele><time>2026-05-03T14:46:55.964Z</time></trkpt><trkpt lat="46.5118756" lon="12.8491365"><ele>560.25</ele><time>2026-05-03T14:46:56.964Z</time></trkpt><trkpt lat="46.5118452" lon="12.8493273"><ele>562.5</ele><time>2026-05-03T14:46:57.965Z</time></trkpt><trkpt lat="46.5118111" lon="12.8495004"><ele>564.75</ele><time>2026-05-03T14:46:58.964Z</time></trkpt><trkpt lat="46.5117524" lon="12.8496471"><ele>567.0</ele><time>2026-05-03T14:46:59.963Z</time></trkpt><trkpt lat="46.5116522" lon="12.849774"><ele>567.0</ele><time>2026-05-03T14:47:00.964Z</time></trkpt><trkpt lat="46.511536" lon="12.8499017"><ele>567.0</ele><time>2026-05-03T14:47:01.964Z</time></trkpt><trkpt lat="46.5114082" lon="12.8500469"><ele>567.0</ele><time>2026-05-03T14:47:02.965Z</time></trkpt><trkpt lat="46.5112824" lon="12.8501977"><ele>561.3333333333334</ele><time>2026-05-03T14:47:03.964Z</time></trkpt><trkpt lat="46.5111492" lon="12.8503635"><ele>555.6666666666667</ele><time>2026-05-03T14:47:04.964Z</time></trkpt><trkpt lat="46.511022" lon="12.850549"><ele>550.0</ele><time>2026-05-03T14:47:05.963Z</time></trkpt><trkpt lat="46.5108982" lon="12.8507449"><ele>550.0</ele><time>2026-05-03T14:47:06.964Z</time></trkpt><trkpt lat="46.5107574" lon="12.8509115"><ele>550.0</ele><time>2026-05-03T14:47:07.964Z</time></trkpt><trkpt lat="46.5105933" lon="12.8510497"><ele>550.0</ele><time>2026-05-03T14:47:08.964Z</time></trkpt><trkpt lat="46.5104317" lon="12.8511796"><ele>548.6666666666667</ele><time>2026-05-03T14:47:09.963Z</time></trkpt><trkpt lat="46.5102769" lon="12.8513095"><ele>547.3333333333334</ele><time>2026-05-03T14:47:10.964Z</time></trkpt><trkpt lat="46.5101308" lon="12.8514585"><ele>546.0</ele><time>2026-05-03T14:47:11.963Z</time></trkpt><trkpt lat="46.5099974" lon="12.8516349"><ele>545.3333333333334</ele><time>2026-05-03T14:47:12.964Z</time></trkpt><trkpt lat="46.5098684" lon="12.8518352"><ele>544.6666666666667</ele><time>2026-05-03T14:47:13.963Z</time></trkpt><trkpt lat="46.5097448" lon="12.8520508"><ele>544.0</ele><time>2026-05-03T14:47:14.964Z</time></trkpt><trkpt lat="46.5096234" lon="12.8522669"><ele>542.0</ele><time>2026-05-03T14:47:15.964Z</time></trkpt><trkpt lat="46.5094955" lon="12.852493"><ele>540.0</ele><time>2026-05-03T14:47:16.964Z</time></trkpt><trkpt lat="46.5093677" lon="12.8527183"><ele>538.0</ele><time>2026-05-03T14:47:17.962Z</time></trkpt><trkpt lat="46.5092411" lon="12.852944"><ele>538.0</ele><time>2026-05-03T14:47:18.963Z</time></trkpt><trkpt lat="46.509118" lon="12.853161"><ele>538.0</ele><time>2026-05-03T14:47:19.962Z</time></trkpt><trkpt lat="46.5090007" lon="12.8533756"><ele>538.0</ele><time>2026-05-03T14:47:20.964Z</time></trkpt><trkpt lat="46.5088871" lon="12.8535882"><ele>536.6666666666667</ele><time>2026-05-03T14:47:21.963Z</time></trkpt><trkpt lat="46.5087727" lon="12.8537956"><ele>535.3333333333334</ele><time>2026-05-03T14:47:22.963Z</time></trkpt><trkpt lat="46.5086549" lon="12.8539966"><ele>534.0</ele><time>2026-05-03T14:47:23.963Z</time></trkpt><trkpt lat="46.5085225" lon="12.8541724"><ele>541.6666666666666</ele><time>2026-05-03T14:47:24.962Z</time></trkpt><trkpt lat="46.5083768" lon="12.8543204"><ele>549.3333333333333</ele><time>2026-05-03T14:47:25.963Z</time></trkpt><trkpt lat="46.5082232" lon="12.8544282"><ele>557.0</ele><time>2026-05-03T14:47:26.963Z</time></trkpt><trkpt lat="46.5080684" lon="12.8545133"><ele>557.0</ele><time>2026-05-03T14:47:27.963Z</time></trkpt><trkpt lat="46.5079171" lon="12.8546019"><ele>557.0</ele><time>2026-05-03T14:47:28.962Z</time></trkpt><trkpt lat="46.5077736" lon="12.8547106"><ele>557.0</ele><time>2026-05-03T14:47:29.963Z</time></trkpt><trkpt lat="46.5076412" lon="12.8548506"><ele>555.0</ele><time>2026-05-03T14:47:30.963Z</time></trkpt><trkpt lat="46.5075192" lon="12.8550274"><ele>553.0</ele><time>2026-05-03T14:47:31.963Z</time></trkpt><trkpt lat="46.5074125" lon="12.8552321"><ele>551.0</ele><time>2026-05-03T14:47:32.963Z</time></trkpt><trkpt lat="46.5073159" lon="12.8554411"><ele>551.0</ele><time>2026-05-03T14:47:33.963Z</time></trkpt><trkpt lat="46.5072212" lon="12.8556472"><ele>551.0</ele><time>2026-05-03T14:47:34.963Z</time></trkpt><trkpt lat="46.5071282" lon="12.8558498"><ele>551.0</ele><time>2026-05-03T14:47:35.963Z</time></trkpt><trkpt lat="46.5070349" lon="12.8560507"><ele>545.3333333333333</ele><time>2026-05-03T14:47:36.963Z</time></trkpt><trkpt lat="46.5069453" lon="12.8562566"><ele>539.6666666666666</ele><time>2026-05-03T14:47:37.963Z</time></trkpt><trkpt lat="46.5068561" lon="12.856455"><ele>534.0</ele><time>2026-05-03T14:47:38.963Z</time></trkpt><trkpt lat="46.5067668" lon="12.8566472"><ele>536.0</ele><time>2026-05-03T14:47:39.963Z</time></trkpt><trkpt lat="46.5066834" lon="12.8568311"><ele>538.0</ele><time>2026-05-03T14:47:40.962Z</time></trkpt><trkpt lat="46.5066036" lon="12.8570098"><ele>540.0</ele><time>2026-05-03T14:47:41.963Z</time></trkpt><trkpt lat="46.5065239" lon="12.8571838"><ele>542.0</ele><time>2026-05-03T14:47:42.963Z</time></trkpt><trkpt lat="46.506449" lon="12.8573583"><ele>542.0</ele><time>2026-05-03T14:47:43.964Z</time></trkpt><trkpt lat="46.5063763" lon="12.8575353"><ele>542.0</ele><time>2026-05-03T14:47:44.963Z</time></trkpt><trkpt lat="46.5063147" lon="12.8577156"><ele>542.0</ele><time>2026-05-03T14:47:45.963Z</time></trkpt><trkpt lat="46.5062682" lon="12.8579051"><ele>542.0</ele><time>2026-05-03T14:47:46.964Z</time></trkpt><trkpt lat="46.5062368" lon="12.8581123"><ele>538.0</ele><time>2026-05-03T14:47:47.962Z</time></trkpt><trkpt lat="46.506217" lon="12.8583233"><ele>534.0</ele><time>2026-05-03T14:47:48.963Z</time></trkpt><trkpt lat="46.5062037" lon="12.858507"><ele>530.0</ele><time>2026-05-03T14:47:49.963Z</time></trkpt><trkpt lat="46.5061936" lon="12.8586809"><ele>526.0</ele><time>2026-05-03T14:47:50.963Z</time></trkpt><trkpt lat="46.5061872" lon="12.8588432"><ele>525.4</ele><time>2026-05-03T14:47:51.962Z</time></trkpt><trkpt lat="46.5061772" lon="12.8590031"><ele>524.8</ele><time>2026-05-03T14:47:52.963Z</time></trkpt><trkpt lat="46.506167" lon="12.8591484"><ele>524.1999999999999</ele><time>2026-05-03T14:47:53.962Z</time></trkpt><trkpt lat="46.5061613" lon="12.8592858"><ele>523.6</ele><time>2026-05-03T14:47:54.963Z</time></trkpt><trkpt lat="46.506155" lon="12.859419"><ele>523.0</ele><time>2026-05-03T14:47:55.963Z</time></trkpt><trkpt lat="46.5061502" lon="12.8595469"><ele>523.0</ele><time>2026-05-03T14:47:56.964Z</time></trkpt><trkpt lat="46.5061423" lon="12.8596617"><ele>523.0</ele><time>2026-05-03T14:47:57.963Z</time></trkpt><trkpt lat="46.5061373" lon="12.8597707"><ele>523.0</ele><time>2026-05-03T14:47:58.963Z</time></trkpt><trkpt lat="46.5061346" lon="12.8598679"><ele>523.0</ele><time>2026-05-03T14:47:59.964Z</time></trkpt><trkpt lat="46.5061771" lon="12.8600348"><ele>523.0</ele><time>2026-05-03T14:48:01.962Z</time></trkpt><trkpt lat="46.5062317" lon="12.8600879"><ele>523.0</ele><time>2026-05-03T14:48:02.963Z</time></trkpt><trkpt lat="46.5063028" lon="12.8601068"><ele>523.0</ele><time>2026-05-03T14:48:03.963Z</time></trkpt><trkpt lat="46.5063844" lon="12.8601042"><ele>523.0</ele><time>2026-05-03T14:48:04.963Z</time></trkpt><trkpt lat="46.5064774" lon="12.8601236"><ele>523.0</ele><time>2026-05-03T14:48:05.963Z</time></trkpt><trkpt lat="46.5065653" lon="12.8601849"><ele>523.0</ele><time>2026-05-03T14:48:06.962Z</time></trkpt><trkpt lat="46.5066351" lon="12.8602736"><ele>523.0</ele><time>2026-05-03T14:48:07.963Z</time></trkpt><trkpt lat="46.5066938" lon="12.8604065"><ele>522.75</ele><time>2026-05-03T14:48:08.963Z</time></trkpt><trkpt lat="46.5067411" lon="12.8605689"><ele>522.5</ele><time>2026-05-03T14:48:09.962Z</time></trkpt><trkpt lat="46.5067807" lon="12.8607414"><ele>522.25</ele><time>2026-05-03T14:48:10.963Z</time></trkpt><trkpt lat="46.5068231" lon="12.8609256"><ele>522.0</ele><time>2026-05-03T14:48:11.963Z</time></trkpt><trkpt lat="46.5068636" lon="12.8610969"><ele>522.0</ele><time>2026-05-03T14:48:12.963Z</time></trkpt><trkpt lat="46.5069138" lon="12.8612493"><ele>522.0</ele><time>2026-05-03T14:48:13.963Z</time></trkpt><trkpt lat="46.5069848" lon="12.8613774"><ele>522.0</ele><time>2026-05-03T14:48:14.963Z</time></trkpt><trkpt lat="46.5070865" lon="12.8614748"><ele>522.0</ele><time>2026-05-03T14:48:15.963Z</time></trkpt><trkpt lat="46.5072135" lon="12.861543"><ele>522.0</ele><time>2026-05-03T14:48:16.963Z</time></trkpt><trkpt lat="46.5073573" lon="12.8616041"><ele>522.0</ele><time>2026-05-03T14:48:17.964Z</time></trkpt><trkpt lat="46.5075077" lon="12.8616524"><ele>522.0</ele><time>2026-05-03T14:48:18.962Z</time></trkpt><trkpt lat="46.5076579" lon="12.8616952"><ele>522.0</ele><time>2026-05-03T14:48:19.963Z</time></trkpt><trkpt lat="46.5077998" lon="12.8617416"><ele>522.0</ele><time>2026-05-03T14:48:20.964Z</time></trkpt><trkpt lat="46.5079347" lon="12.8617942"><ele>522.0</ele><time>2026-05-03T14:48:21.962Z</time></trkpt><trkpt lat="46.5080644" lon="12.8618332"><ele>522.0</ele><time>2026-05-03T14:48:22.963Z</time></trkpt><trkpt lat="46.5081971" lon="12.8618391"><ele>522.25</ele><time>2026-05-03T14:48:23.963Z</time></trkpt><trkpt lat="46.5083259" lon="12.8618156"><ele>522.5</ele><time>2026-05-03T14:48:24.963Z</time></trkpt><trkpt lat="46.5084432" lon="12.861776"><ele>522.75</ele><time>2026-05-03T14:48:25.962Z</time></trkpt><trkpt lat="46.5085558" lon="12.8617361"><ele>523.0</ele><time>2026-05-03T14:48:26.963Z</time></trkpt><trkpt lat="46.5086831" lon="12.8617509"><ele>522.25</ele><time>2026-05-03T14:48:27.962Z</time></trkpt><trkpt lat="46.508813" lon="12.8618098"><ele>521.5</ele><time>2026-05-03T14:48:28.963Z</time></trkpt><trkpt lat="46.5089544" lon="12.8618713"><ele>520.75</ele><time>2026-05-03T14:48:29.963Z</time></trkpt><trkpt lat="46.5090968" lon="12.8619164"><ele>520.0</ele><time>2026-05-03T14:48:30.962Z</time></trkpt><trkpt lat="46.5092371" lon="12.861938"><ele>520.0</ele><time>2026-05-03T14:48:31.963Z</time></trkpt><trkpt lat="46.5093772" lon="12.8619258"><ele>520.0</ele><time>2026-05-03T14:48:32.962Z</time></trkpt><trkpt lat="46.5095076" lon="12.8618994"><ele>520.0</ele><time>2026-05-03T14:48:33.963Z</time></trkpt><trkpt lat="46.5096194" lon="12.8618762"><ele>520.0</ele><time>2026-05-03T14:48:34.963Z</time></trkpt><trkpt lat="46.5097229" lon="12.8618757"><ele>520.6</ele><time>2026-05-03T14:48:35.963Z</time></trkpt><trkpt lat="46.5098187" lon="12.8618998"><ele>521.2</ele><time>2026-05-03T14:48:36.963Z</time></trkpt><trkpt lat="46.5099129" lon="12.8619479"><ele>521.8</ele><time>2026-05-03T14:48:37.964Z</time></trkpt><trkpt lat="46.5100115" lon="12.8620435"><ele>522.4</ele><time>2026-05-03T14:48:38.963Z</time></trkpt><trkpt lat="46.5101139" lon="12.8621578"><ele>523.0</ele><time>2026-05-03T14:48:39.963Z</time></trkpt><trkpt lat="46.5102193" lon="12.8622779"><ele>523.0</ele><time>2026-05-03T14:48:40.963Z</time></trkpt><trkpt lat="46.5103297" lon="12.8624056"><ele>523.0</ele><time>2026-05-03T14:48:41.963Z</time></trkpt><trkpt lat="46.5104309" lon="12.8625407"><ele>523.0</ele><time>2026-05-03T14:48:42.963Z</time></trkpt><trkpt lat="46.510516" lon="12.862678"><ele>523.0</ele><time>2026-05-03T14:48:43.962Z</time></trkpt><trkpt lat="46.5105915" lon="12.8628179"><ele>523.8</ele><time>2026-05-03T14:48:44.962Z</time></trkpt><trkpt lat="46.5106615" lon="12.8629522"><ele>524.5999999999999</ele><time>2026-05-03T14:48:45.964Z</time></trkpt><trkpt lat="46.510746" lon="12.8630687"><ele>525.4000000000001</ele><time>2026-05-03T14:48:46.963Z</time></trkpt><trkpt lat="46.510846" lon="12.8631426"><ele>526.2</ele><time>2026-05-03T14:48:47.963Z</time></trkpt><trkpt lat="46.5109432" lon="12.8631891"><ele>527.0</ele><time>2026-05-03T14:48:48.962Z</time></trkpt><trkpt lat="46.5110273" lon="12.8632444"><ele>527.0</ele><time>2026-05-03T14:48:49.963Z</time></trkpt><trkpt lat="46.5110896" lon="12.8633466"><ele>527.0</ele><time>2026-05-03T14:48:50.963Z</time></trkpt><trkpt lat="46.5111254" lon="12.8634885"><ele>527.0</ele><time>2026-05-03T14:48:51.962Z</time></trkpt><trkpt lat="46.5111308" lon="12.8636585"><ele>527.0</ele><time>2026-05-03T14:48:52.963Z</time></trkpt><trkpt lat="46.5111252" lon="12.8638418"><ele>527.0</ele><time>2026-05-03T14:48:53.963Z</time></trkpt><trkpt lat="46.5111188" lon="12.8640387"><ele>526.6666666666666</ele><time>2026-05-03T14:48:54.963Z</time></trkpt><trkpt lat="46.5111085" lon="12.8642533"><ele>526.3333333333334</ele><time>2026-05-03T14:48:55.962Z</time></trkpt><trkpt lat="46.5110985" lon="12.8644715"><ele>526.0</ele><time>2026-05-03T14:48:56.963Z</time></trkpt><trkpt lat="46.5110907" lon="12.8646931"><ele>526.0</ele><time>2026-05-03T14:48:57.963Z</time></trkpt><trkpt lat="46.5110912" lon="12.8649057"><ele>526.0</ele><time>2026-05-03T14:48:58.963Z</time></trkpt><trkpt lat="46.5110972" lon="12.8651183"><ele>526.0</ele><time>2026-05-03T14:48:59.963Z</time></trkpt><trkpt lat="46.511103" lon="12.865315"><ele>526.0</ele><time>2026-05-03T14:49:00.964Z</time></trkpt><trkpt lat="46.5111082" lon="12.8655049"><ele>526.6</ele><time>2026-05-03T14:49:01.963Z</time></trkpt><trkpt lat="46.5111104" lon="12.8656809"><ele>527.2</ele><time>2026-05-03T14:49:02.963Z</time></trkpt><trkpt lat="46.5111106" lon="12.8658462"><ele>527.8</ele><time>2026-05-03T14:49:03.962Z</time></trkpt><trkpt lat="46.5111116" lon="12.8660005"><ele>528.4</ele><time>2026-05-03T14:49:04.963Z</time></trkpt><trkpt lat="46.5111098" lon="12.8661424"><ele>529.0</ele><time>2026-05-03T14:49:05.964Z</time></trkpt><trkpt lat="46.511099" lon="12.8662781"><ele>532.5</ele><time>2026-05-03T14:49:06.962Z</time></trkpt><trkpt lat="46.511086" lon="12.8664045"><ele>536.0</ele><time>2026-05-03T14:49:07.963Z</time></trkpt><trkpt lat="46.5110739" lon="12.8665143"><ele>539.5</ele><time>2026-05-03T14:49:08.962Z</time></trkpt><trkpt lat="46.5110455" lon="12.8666068"><ele>543.0</ele><time>2026-05-03T14:49:09.963Z</time></trkpt><trkpt lat="46.5109516" lon="12.8667088"><ele>546.5</ele><time>2026-05-03T14:49:11.963Z</time></trkpt><trkpt lat="46.5108792" lon="12.866723"><ele>550.0</ele><time>2026-05-03T14:49:12.963Z</time></trkpt><trkpt lat="46.5107882" lon="12.8667105"><ele>550.0</ele><time>2026-05-03T14:49:13.962Z</time></trkpt><trkpt lat="46.5106823" lon="12.8666824"><ele>550.0</ele><time>2026-05-03T14:49:14.963Z</time></trkpt><trkpt lat="46.5105652" lon="12.8666467"><ele>550.0</ele><time>2026-05-03T14:49:15.963Z</time></trkpt><trkpt lat="46.5104516" lon="12.8666062"><ele>550.0</ele><time>2026-05-03T14:49:16.963Z</time></trkpt><trkpt lat="46.5103275" lon="12.8665531"><ele>552.25</ele><time>2026-05-03T14:49:17.963Z</time></trkpt><trkpt lat="46.510192" lon="12.8664921"><ele>554.5</ele><time>2026-05-03T14:49:18.963Z</time></trkpt><trkpt lat="46.5100493" lon="12.8664279"><ele>556.75</ele><time>2026-05-03T14:49:19.963Z</time></trkpt><trkpt lat="46.5099094" lon="12.8663566"><ele>559.0</ele><time>2026-05-03T14:49:20.962Z</time></trkpt><trkpt lat="46.5097708" lon="12.8662723"><ele>559.0</ele><time>2026-05-03T14:49:21.962Z</time></trkpt><trkpt lat="46.5096312" lon="12.8661773"><ele>559.0</ele><time>2026-05-03T14:49:22.963Z</time></trkpt><trkpt lat="46.5094908" lon="12.8660799"><ele>559.0</ele><time>2026-05-03T14:49:23.963Z</time></trkpt><trkpt lat="46.5093491" lon="12.8659848"><ele>554.0</ele><time>2026-05-03T14:49:24.962Z</time></trkpt><trkpt lat="46.5092018" lon="12.8659021"><ele>549.0</ele><time>2026-05-03T14:49:25.963Z</time></trkpt><trkpt lat="46.50904" lon="12.8658373"><ele>544.0</ele><time>2026-05-03T14:49:26.963Z</time></trkpt><trkpt lat="46.5088694" lon="12.8657912"><ele>546.6666666666667</ele><time>2026-05-03T14:49:27.963Z</time></trkpt><trkpt lat="46.5086909" lon="12.8657662"><ele>549.3333333333334</ele><time>2026-05-03T14:49:28.962Z</time></trkpt><trkpt lat="46.5085099" lon="12.8657589"><ele>552.0</ele><time>2026-05-03T14:49:29.963Z</time></trkpt><trkpt lat="46.5083286" lon="12.8657651"><ele>552.0</ele><time>2026-05-03T14:49:30.962Z</time></trkpt><trkpt lat="46.508151" lon="12.8657765"><ele>552.0</ele><time>2026-05-03T14:49:31.962Z</time></trkpt><trkpt lat="46.5079762" lon="12.8657743"><ele>552.0</ele><time>2026-05-03T14:49:32.962Z</time></trkpt><trkpt lat="46.5078034" lon="12.8657539"><ele>549.6666666666666</ele><time>2026-05-03T14:49:33.963Z</time></trkpt><trkpt lat="46.5076278" lon="12.8657252"><ele>547.3333333333333</ele><time>2026-05-03T14:49:34.962Z</time></trkpt><trkpt lat="46.5074489" lon="12.8656962"><ele>545.0</ele><time>2026-05-03T14:49:35.963Z</time></trkpt><trkpt lat="46.5072698" lon="12.8656647"><ele>545.0</ele><time>2026-05-03T14:49:36.963Z</time></trkpt><trkpt lat="46.5070947" lon="12.8656301"><ele>545.0</ele><time>2026-05-03T14:49:37.962Z</time></trkpt><trkpt lat="46.5069239" lon="12.8655852"><ele>545.0</ele><time>2026-05-03T14:49:38.963Z</time></trkpt><trkpt lat="46.5067614" lon="12.8655259"><ele>551.6666666666666</ele><time>2026-05-03T14:49:39.962Z</time></trkpt><trkpt lat="46.5066043" lon="12.8654457"><ele>558.3333333333334</ele><time>2026-05-03T14:49:40.963Z</time></trkpt><trkpt lat="46.5064476" lon="12.8653407"><ele>565.0</ele><time>2026-05-03T14:49:41.963Z</time></trkpt><trkpt lat="46.5062969" lon="12.8652403"><ele>568.6666666666667</ele><time>2026-05-03T14:49:42.963Z</time></trkpt><trkpt lat="46.5061571" lon="12.8651364"><ele>572.3333333333334</ele><time>2026-05-03T14:49:43.963Z</time></trkpt><trkpt lat="46.5060201" lon="12.8650363"><ele>576.0</ele><time>2026-05-03T14:49:44.963Z</time></trkpt><trkpt lat="46.5058784" lon="12.8649593"><ele>562.6666666666666</ele><time>2026-05-03T14:49:45.964Z</time></trkpt><trkpt lat="46.5057303" lon="12.8649106"><ele>549.3333333333333</ele><time>2026-05-03T14:49:46.963Z</time></trkpt><trkpt lat="46.5055719" lon="12.864892"><ele>536.0</ele><time>2026-05-03T14:49:47.963Z</time></trkpt><trkpt lat="46.5054086" lon="12.8648932"><ele>533.0</ele><time>2026-05-03T14:49:48.962Z</time></trkpt><trkpt lat="46.5052415" lon="12.864918"><ele>530.0</ele><time>2026-05-03T14:49:49.963Z</time></trkpt><trkpt lat="46.5050719" lon="12.8649666"><ele>527.0</ele><time>2026-05-03T14:49:50.963Z</time></trkpt><trkpt lat="46.5049031" lon="12.8650381"><ele>533.0</ele><time>2026-05-03T14:49:51.963Z</time></trkpt><trkpt lat="46.5047395" lon="12.865133"><ele>539.0</ele><time>2026-05-03T14:49:52.963Z</time></trkpt><trkpt lat="46.5045736" lon="12.8652246"><ele>545.0</ele><time>2026-05-03T14:49:53.963Z</time></trkpt><trkpt lat="46.5044024" lon="12.8653211"><ele>545.0</ele><time>2026-05-03T14:49:54.963Z</time></trkpt><trkpt lat="46.5042302" lon="12.8654167"><ele>545.0</ele><time>2026-05-03T14:49:55.962Z</time></trkpt><trkpt lat="46.5040469" lon="12.8654996"><ele>545.0</ele><time>2026-05-03T14:49:56.963Z</time></trkpt><trkpt lat="46.5038524" lon="12.8655592"><ele>541.3333333333333</ele><time>2026-05-03T14:49:57.963Z</time></trkpt><trkpt lat="46.5036528" lon="12.8656027"><ele>537.6666666666666</ele><time>2026-05-03T14:49:58.963Z</time></trkpt><trkpt lat="46.5034505" lon="12.8656264"><ele>534.0</ele><time>2026-05-03T14:49:59.963Z</time></trkpt><trkpt lat="46.5032487" lon="12.865636"><ele>534.0</ele><time>2026-05-03T14:50:00.963Z</time></trkpt><trkpt lat="46.503048" lon="12.8656368"><ele>534.0</ele><time>2026-05-03T14:50:01.963Z</time></trkpt><trkpt lat="46.5028484" lon="12.8656275"><ele>534.0</ele><time>2026-05-03T14:50:02.962Z</time></trkpt><trkpt lat="46.5026517" lon="12.8656164"><ele>531.0</ele><time>2026-05-03T14:50:03.963Z</time></trkpt><trkpt lat="46.5024595" lon="12.8656048"><ele>528.0</ele><time>2026-05-03T14:50:04.962Z</time></trkpt><trkpt lat="46.5022788" lon="12.8655959"><ele>525.0</ele><time>2026-05-03T14:50:05.963Z</time></trkpt><trkpt lat="46.5021036" lon="12.8655769"><ele>527.0</ele><time>2026-05-03T14:50:06.963Z</time></trkpt><trkpt lat="46.5019378" lon="12.8655433"><ele>529.0</ele><time>2026-05-03T14:50:07.963Z</time></trkpt><trkpt lat="46.5017745" lon="12.8654984"><ele>531.0</ele><time>2026-05-03T14:50:08.963Z</time></trkpt><trkpt lat="46.5016079" lon="12.8654557"><ele>531.0</ele><time>2026-05-03T14:50:09.963Z</time></trkpt><trkpt lat="46.501449" lon="12.8654278"><ele>531.0</ele><time>2026-05-03T14:50:10.963Z</time></trkpt><trkpt lat="46.5012923" lon="12.8654082"><ele>531.0</ele><time>2026-05-03T14:50:11.963Z</time></trkpt><trkpt lat="46.5011389" lon="12.8654011"><ele>529.3333333333334</ele><time>2026-05-03T14:50:12.963Z</time></trkpt><trkpt lat="46.5009862" lon="12.8654014"><ele>527.6666666666667</ele><time>2026-05-03T14:50:13.962Z</time></trkpt><trkpt lat="46.5008322" lon="12.8654029"><ele>526.0</ele><time>2026-05-03T14:50:14.963Z</time></trkpt><trkpt lat="46.5006732" lon="12.8654006"><ele>526.0</ele><time>2026-05-03T14:50:15.963Z</time></trkpt><trkpt lat="46.5005161" lon="12.8653962"><ele>526.0</ele><time>2026-05-03T14:50:16.962Z</time></trkpt><trkpt lat="46.5003624" lon="12.8653791"><ele>526.0</ele><time>2026-05-03T14:50:17.962Z</time></trkpt><trkpt lat="46.5002161" lon="12.8653548"><ele>525.5</ele><time>2026-05-03T14:50:18.963Z</time></trkpt><trkpt lat="46.5000749" lon="12.8653345"><ele>525.0</ele><time>2026-05-03T14:50:19.963Z</time></trkpt><trkpt lat="46.4999416" lon="12.8653411"><ele>524.5</ele><time>2026-05-03T14:50:20.963Z</time></trkpt><trkpt lat="46.4998123" lon="12.8653859"><ele>524.0</ele><time>2026-05-03T14:50:21.963Z</time></trkpt><trkpt lat="46.4996914" lon="12.8654691"><ele>524.0</ele><time>2026-05-03T14:50:22.963Z</time></trkpt><trkpt lat="46.4995866" lon="12.8655973"><ele>524.0</ele><time>2026-05-03T14:50:23.963Z</time></trkpt><trkpt lat="46.4994797" lon="12.8657419"><ele>524.0</ele><time>2026-05-03T14:50:24.962Z</time></trkpt><trkpt lat="46.4993602" lon="12.8658813"><ele>524.0</ele><time>2026-05-03T14:50:25.964Z</time></trkpt><trkpt lat="46.4992276" lon="12.8660048"><ele>530.0</ele><time>2026-05-03T14:50:26.962Z</time></trkpt><trkpt lat="46.499087" lon="12.8661171"><ele>536.0</ele><time>2026-05-03T14:50:27.963Z</time></trkpt><trkpt lat="46.4989436" lon="12.8662167"><ele>542.0</ele><time>2026-05-03T14:50:28.963Z</time></trkpt><trkpt lat="46.4987886" lon="12.8662879"><ele>534.6666666666666</ele><time>2026-05-03T14:50:29.963Z</time></trkpt><trkpt lat="46.4986227" lon="12.8663317"><ele>527.3333333333334</ele><time>2026-05-03T14:50:30.962Z</time></trkpt><trkpt lat="46.4984474" lon="12.8663628"><ele>520.0</ele><time>2026-05-03T14:50:31.963Z</time></trkpt><trkpt lat="46.4982623" lon="12.866391"><ele>520.0</ele><time>2026-05-03T14:50:32.963Z</time></trkpt><trkpt lat="46.4980823" lon="12.8664172"><ele>520.0</ele><time>2026-05-03T14:50:33.963Z</time></trkpt><trkpt lat="46.4979078" lon="12.8664398"><ele>520.0</ele><time>2026-05-03T14:50:34.963Z</time></trkpt><trkpt lat="46.4977423" lon="12.8664629"><ele>519.0</ele><time>2026-05-03T14:50:35.963Z</time></trkpt><trkpt lat="46.4975895" lon="12.8664892"><ele>518.0</ele><time>2026-05-03T14:50:36.963Z</time></trkpt><trkpt lat="46.4974456" lon="12.866523"><ele>517.0</ele><time>2026-05-03T14:50:37.963Z</time></trkpt><trkpt lat="46.4973123" lon="12.8665722"><ele>516.0</ele><time>2026-05-03T14:50:38.963Z</time></trkpt><trkpt lat="46.4971907" lon="12.8666315"><ele>515.75</ele><time>2026-05-03T14:50:39.963Z</time></trkpt><trkpt lat="46.4970698" lon="12.8666931"><ele>515.5</ele><time>2026-05-03T14:50:40.963Z</time></trkpt><trkpt lat="46.496947" lon="12.8667484"><ele>515.25</ele><time>2026-05-03T14:50:41.962Z</time></trkpt><trkpt lat="46.4968202" lon="12.8667862"><ele>515.0</ele><time>2026-05-03T14:50:42.963Z</time></trkpt><trkpt lat="46.4966857" lon="12.8668007"><ele>515.0</ele><time>2026-05-03T14:50:43.962Z</time></trkpt><trkpt lat="46.4965484" lon="12.8667918"><ele>515.0</ele><time>2026-05-03T14:50:44.963Z</time></trkpt><trkpt lat="46.4964123" lon="12.8667798"><ele>515.0</ele><time>2026-05-03T14:50:45.963Z</time></trkpt><trkpt lat="46.4962793" lon="12.8667479"><ele>515.0</ele><time>2026-05-03T14:50:46.963Z</time></trkpt><trkpt lat="46.4961508" lon="12.866688"><ele>516.25</ele><time>2026-05-03T14:50:47.963Z</time></trkpt><trkpt lat="46.4960219" lon="12.8666161"><ele>517.5</ele><time>2026-05-03T14:50:48.963Z</time></trkpt><trkpt lat="46.4958943" lon="12.8665533"><ele>518.75</ele><time>2026-05-03T14:50:49.963Z</time></trkpt><trkpt lat="46.4957669" lon="12.8665092"><ele>520.0</ele><time>2026-05-03T14:50:50.963Z</time></trkpt><trkpt lat="46.4956321" lon="12.8664807"><ele>520.0</ele><time>2026-05-03T14:50:51.963Z</time></trkpt><trkpt lat="46.4954972" lon="12.8664659"><ele>520.0</ele><time>2026-05-03T14:50:52.963Z</time></trkpt><trkpt lat="46.4953615" lon="12.8664569"><ele>520.0</ele><time>2026-05-03T14:50:53.963Z</time></trkpt><trkpt lat="46.4952288" lon="12.8664505"><ele>520.0</ele><time>2026-05-03T14:50:54.962Z</time></trkpt><trkpt lat="46.4950948" lon="12.866437"><ele>521.25</ele><time>2026-05-03T14:50:55.963Z</time></trkpt><trkpt lat="46.4949593" lon="12.8664256"><ele>522.5</ele><time>2026-05-03T14:50:56.962Z</time></trkpt><trkpt lat="46.4948227" lon="12.8664149"><ele>523.75</ele><time>2026-05-03T14:50:57.963Z</time></trkpt><trkpt lat="46.494686" lon="12.8663995"><ele>525.0</ele><time>2026-05-03T14:50:58.963Z</time></trkpt><trkpt lat="46.4945461" lon="12.8663803"><ele>527.5</ele><time>2026-05-03T14:50:59.963Z</time></trkpt><trkpt lat="46.4944066" lon="12.8663535"><ele>530.0</ele><time>2026-05-03T14:51:00.963Z</time></trkpt><trkpt lat="46.4942663" lon="12.8663168"><ele>532.5</ele><time>2026-05-03T14:51:01.963Z</time></trkpt><trkpt lat="46.4941298" lon="12.866274"><ele>535.0</ele><time>2026-05-03T14:51:02.963Z</time></trkpt><trkpt lat="46.4939933" lon="12.8662278"><ele>535.0</ele><time>2026-05-03T14:51:03.963Z</time></trkpt><trkpt lat="46.4938586" lon="12.8661818"><ele>535.0</ele><time>2026-05-03T14:51:04.963Z</time></trkpt><trkpt lat="46.4937204" lon="12.8661435"><ele>535.0</ele><time>2026-05-03T14:51:05.963Z</time></trkpt><trkpt lat="46.4935752" lon="12.8661089"><ele>535.0</ele><time>2026-05-03T14:51:06.962Z</time></trkpt><trkpt lat="46.4934204" lon="12.8660658"><ele>533.6666666666667</ele><time>2026-05-03T14:51:07.963Z</time></trkpt><trkpt lat="46.4932591" lon="12.8660219"><ele>532.3333333333334</ele><time>2026-05-03T14:51:08.963Z</time></trkpt><trkpt lat="46.4930934" lon="12.8659775"><ele>531.0</ele><time>2026-05-03T14:51:09.962Z</time></trkpt><trkpt lat="46.4929181" lon="12.8659379"><ele>527.0</ele><time>2026-05-03T14:51:10.963Z</time></trkpt><trkpt lat="46.4927345" lon="12.8658976"><ele>523.0</ele><time>2026-05-03T14:51:11.964Z</time></trkpt><trkpt lat="46.492544" lon="12.8658584"><ele>519.0</ele><time>2026-05-03T14:51:12.962Z</time></trkpt><trkpt lat="46.4923471" lon="12.8658222"><ele>519.0</ele><time>2026-05-03T14:51:13.963Z</time></trkpt><trkpt lat="46.4921533" lon="12.8657869"><ele>519.0</ele><time>2026-05-03T14:51:14.963Z</time></trkpt><trkpt lat="46.4919514" lon="12.8657505"><ele>519.0</ele><time>2026-05-03T14:51:15.963Z</time></trkpt><trkpt lat="46.4917448" lon="12.865719"><ele>520.0</ele><time>2026-05-03T14:51:16.963Z</time></trkpt><trkpt lat="46.4915339" lon="12.8656837"><ele>521.0</ele><time>2026-05-03T14:51:17.963Z</time></trkpt><trkpt lat="46.4913217" lon="12.8656373"><ele>522.0</ele><time>2026-05-03T14:51:18.963Z</time></trkpt><trkpt lat="46.4911151" lon="12.8655805"><ele>525.0</ele><time>2026-05-03T14:51:19.964Z</time></trkpt><trkpt lat="46.4909227" lon="12.8655214"><ele>528.0</ele><time>2026-05-03T14:51:20.962Z</time></trkpt><trkpt lat="46.4907425" lon="12.8654703"><ele>531.0</ele><time>2026-05-03T14:51:21.963Z</time></trkpt><trkpt lat="46.4905692" lon="12.8654209"><ele>532.0</ele><time>2026-05-03T14:51:22.964Z</time></trkpt><trkpt lat="46.4904026" lon="12.8653739"><ele>533.0</ele><time>2026-05-03T14:51:23.963Z</time></trkpt><trkpt lat="46.4902391" lon="12.865333"><ele>534.0</ele><time>2026-05-03T14:51:24.963Z</time></trkpt><trkpt lat="46.4900763" lon="12.8653"><ele>534.0</ele><time>2026-05-03T14:51:25.963Z</time></trkpt><trkpt lat="46.4899126" lon="12.8652732"><ele>534.0</ele><time>2026-05-03T14:51:26.963Z</time></trkpt><trkpt lat="46.4897464" lon="12.8652478"><ele>534.0</ele><time>2026-05-03T14:51:27.963Z</time></trkpt><trkpt lat="46.4895806" lon="12.8652215"><ele>536.0</ele><time>2026-05-03T14:51:28.963Z</time></trkpt><trkpt lat="46.4894144" lon="12.8651995"><ele>538.0</ele><time>2026-05-03T14:51:29.963Z</time></trkpt><trkpt lat="46.4892471" lon="12.8651806"><ele>540.0</ele><time>2026-05-03T14:51:30.962Z</time></trkpt><trkpt lat="46.4890796" lon="12.8651563"><ele>540.0</ele><time>2026-05-03T14:51:31.963Z</time></trkpt><trkpt lat="46.4889105" lon="12.865133"><ele>540.0</ele><time>2026-05-03T14:51:32.963Z</time></trkpt><trkpt lat="46.488742" lon="12.8651112"><ele>540.0</ele><time>2026-05-03T14:51:33.964Z</time></trkpt><trkpt lat="46.4885761" lon="12.8650891"><ele>538.6666666666666</ele><time>2026-05-03T14:51:34.963Z</time></trkpt><trkpt lat="46.4884122" lon="12.8650625"><ele>537.3333333333333</ele><time>2026-05-03T14:51:35.962Z</time></trkpt><trkpt lat="46.488255" lon="12.8650376"><ele>536.0</ele><time>2026-05-03T14:51:36.963Z</time></trkpt><trkpt lat="46.4881016" lon="12.8650141"><ele>536.0</ele><time>2026-05-03T14:51:37.963Z</time></trkpt><trkpt lat="46.48795" lon="12.8649863"><ele>536.0</ele><time>2026-05-03T14:51:38.963Z</time></trkpt><trkpt lat="46.487795" lon="12.8649596"><ele>536.0</ele><time>2026-05-03T14:51:39.963Z</time></trkpt><trkpt lat="46.4876379" lon="12.8649318"><ele>537.3333333333333</ele><time>2026-05-03T14:51:40.963Z</time></trkpt><trkpt lat="46.4874771" lon="12.8649101"><ele>538.6666666666666</ele><time>2026-05-03T14:51:41.964Z</time></trkpt><trkpt lat="46.4873174" lon="12.8648843"><ele>540.0</ele><time>2026-05-03T14:51:42.963Z</time></trkpt><trkpt lat="46.4871565" lon="12.8648569"><ele>539.3333333333334</ele><time>2026-05-03T14:51:43.963Z</time></trkpt><trkpt lat="46.486992" lon="12.8648282"><ele>538.6666666666667</ele><time>2026-05-03T14:51:44.963Z</time></trkpt><trkpt lat="46.4868199" lon="12.8648092"><ele>538.0</ele><time>2026-05-03T14:51:45.963Z</time></trkpt><trkpt lat="46.4866393" lon="12.8648074"><ele>538.0</ele><time>2026-05-03T14:51:46.964Z</time></trkpt><trkpt lat="46.4864512" lon="12.864823"><ele>538.0</ele><time>2026-05-03T14:51:47.963Z</time></trkpt><trkpt lat="46.4862606" lon="12.8648436"><ele>538.0</ele><time>2026-05-03T14:51:48.963Z</time></trkpt><trkpt lat="46.4860721" lon="12.8648722"><ele>536.0</ele><time>2026-05-03T14:51:49.962Z</time></trkpt><trkpt lat="46.485888" lon="12.8649017"><ele>534.0</ele><time>2026-05-03T14:51:50.963Z</time></trkpt><trkpt lat="46.485712" lon="12.8649263"><ele>532.0</ele><time>2026-05-03T14:51:51.963Z</time></trkpt><trkpt lat="46.4855418" lon="12.8649527"><ele>531.3333333333334</ele><time>2026-05-03T14:51:52.963Z</time></trkpt><trkpt lat="46.4853777" lon="12.8649774"><ele>530.6666666666666</ele><time>2026-05-03T14:51:53.963Z</time></trkpt><trkpt lat="46.4852208" lon="12.8650008"><ele>530.0</ele><time>2026-05-03T14:51:54.963Z</time></trkpt><trkpt lat="46.4850653" lon="12.8650227"><ele>530.0</ele><time>2026-05-03T14:51:55.963Z</time></trkpt><trkpt lat="46.4849095" lon="12.8650422"><ele>530.0</ele><time>2026-05-03T14:51:56.963Z</time></trkpt><trkpt lat="46.4847565" lon="12.8650621"><ele>530.0</ele><time>2026-05-03T14:51:57.963Z</time></trkpt><trkpt lat="46.4846087" lon="12.8650829"><ele>529.6666666666666</ele><time>2026-05-03T14:51:58.963Z</time></trkpt><trkpt lat="46.4844595" lon="12.8651064"><ele>529.3333333333334</ele><time>2026-05-03T14:51:59.962Z</time></trkpt><trkpt lat="46.4843096" lon="12.8651316"><ele>529.0</ele><time>2026-05-03T14:52:00.963Z</time></trkpt><trkpt lat="46.4841582" lon="12.8651562"><ele>530.6666666666667</ele><time>2026-05-03T14:52:01.963Z</time></trkpt><trkpt lat="46.4840051" lon="12.8651814"><ele>532.3333333333334</ele><time>2026-05-03T14:52:02.963Z</time></trkpt><trkpt lat="46.4838473" lon="12.8652024"><ele>534.0</ele><time>2026-05-03T14:52:03.962Z</time></trkpt><trkpt lat="46.4836913" lon="12.8652229"><ele>534.0</ele><time>2026-05-03T14:52:04.962Z</time></trkpt><trkpt lat="46.4835436" lon="12.8652435"><ele>534.0</ele><time>2026-05-03T14:52:05.962Z</time></trkpt><trkpt lat="46.4833985" lon="12.8652634"><ele>534.0</ele><time>2026-05-03T14:52:06.962Z</time></trkpt><trkpt lat="46.4832545" lon="12.8652883"><ele>534.0</ele><time>2026-05-03T14:52:07.964Z</time></trkpt><trkpt lat="46.4831102" lon="12.8653281"><ele>534.0</ele><time>2026-05-03T14:52:08.963Z</time></trkpt><trkpt lat="46.48297" lon="12.8653751"><ele>534.0</ele><time>2026-05-03T14:52:09.963Z</time></trkpt><trkpt lat="46.4828319" lon="12.8654238"><ele>534.0</ele><time>2026-05-03T14:52:10.963Z</time></trkpt><trkpt lat="46.4826986" lon="12.865477"><ele>534.0</ele><time>2026-05-03T14:52:11.964Z</time></trkpt><trkpt lat="46.4825728" lon="12.8655455"><ele>533.5</ele><time>2026-05-03T14:52:12.963Z</time></trkpt><trkpt lat="46.4824592" lon="12.8656252"><ele>533.0</ele><time>2026-05-03T14:52:13.963Z</time></trkpt><trkpt lat="46.4823564" lon="12.8657241"><ele>532.5</ele><time>2026-05-03T14:52:14.963Z</time></trkpt><trkpt lat="46.4822609" lon="12.8658402"><ele>532.0</ele><time>2026-05-03T14:52:15.963Z</time></trkpt><trkpt lat="46.4821646" lon="12.8659581"><ele>529.75</ele><time>2026-05-03T14:52:16.962Z</time></trkpt><trkpt lat="46.4820707" lon="12.8660715"><ele>527.5</ele><time>2026-05-03T14:52:17.963Z</time></trkpt><trkpt lat="46.4819778" lon="12.8661821"><ele>525.25</ele><time>2026-05-03T14:52:18.963Z</time></trkpt><trkpt lat="46.4818943" lon="12.8662954"><ele>523.0</ele><time>2026-05-03T14:52:19.962Z</time></trkpt><trkpt lat="46.4818116" lon="12.8664064"><ele>523.0</ele><time>2026-05-03T14:52:20.964Z</time></trkpt><trkpt lat="46.4817303" lon="12.8665139"><ele>523.0</ele><time>2026-05-03T14:52:21.963Z</time></trkpt><trkpt lat="46.4816436" lon="12.866632"><ele>523.0</ele><time>2026-05-03T14:52:22.963Z</time></trkpt><trkpt lat="46.4815513" lon="12.8667527"><ele>523.0</ele><time>2026-05-03T14:52:23.963Z</time></trkpt><trkpt lat="46.4814552" lon="12.8668714"><ele>524.5</ele><time>2026-05-03T14:52:24.962Z</time></trkpt><trkpt lat="46.4813517" lon="12.8669778"><ele>526.0</ele><time>2026-05-03T14:52:25.962Z</time></trkpt><trkpt lat="46.4812436" lon="12.8670691"><ele>527.5</ele><time>2026-05-03T14:52:26.963Z</time></trkpt><trkpt lat="46.4811261" lon="12.8671403"><ele>529.0</ele><time>2026-05-03T14:52:27.964Z</time></trkpt><trkpt lat="46.480997" lon="12.8671762"><ele>529.0</ele><time>2026-05-03T14:52:28.963Z</time></trkpt><trkpt lat="46.480856" lon="12.8671906"><ele>529.0</ele><time>2026-05-03T14:52:29.963Z</time></trkpt><trkpt lat="46.4807059" lon="12.8671911"><ele>529.0</ele><time>2026-05-03T14:52:30.963Z</time></trkpt><trkpt lat="46.4805493" lon="12.8671966"><ele>529.0</ele><time>2026-05-03T14:52:31.963Z</time></trkpt><trkpt lat="46.4803936" lon="12.8672022"><ele>526.3333333333334</ele><time>2026-05-03T14:52:32.962Z</time></trkpt><trkpt lat="46.4802388" lon="12.8672162"><ele>523.6666666666666</ele><time>2026-05-03T14:52:33.963Z</time></trkpt><trkpt lat="46.480087" lon="12.8672371"><ele>521.0</ele><time>2026-05-03T14:52:34.963Z</time></trkpt><trkpt lat="46.4799408" lon="12.8672639"><ele>521.0</ele><time>2026-05-03T14:52:35.963Z</time></trkpt><trkpt lat="46.4798009" lon="12.8673028"><ele>521.0</ele><time>2026-05-03T14:52:36.963Z</time></trkpt><trkpt lat="46.4796775" lon="12.86735"><ele>521.0</ele><time>2026-05-03T14:52:37.963Z</time></trkpt><trkpt lat="46.4795681" lon="12.8673922"><ele>521.0</ele><time>2026-05-03T14:52:38.962Z</time></trkpt><trkpt lat="46.4794728" lon="12.8674313"><ele>520.6</ele><time>2026-05-03T14:52:39.963Z</time></trkpt><trkpt lat="46.4793986" lon="12.8674647"><ele>520.2</ele><time>2026-05-03T14:52:40.963Z</time></trkpt><trkpt lat="46.4793327" lon="12.8674965"><ele>519.8</ele><time>2026-05-03T14:52:41.962Z</time></trkpt><trkpt lat="46.4792206" lon="12.8675635"><ele>519.4</ele><time>2026-05-03T14:52:43.964Z</time></trkpt><trkpt lat="46.479115" lon="12.8676371"><ele>519.0</ele><time>2026-05-03T14:52:45.962Z</time></trkpt><trkpt lat="46.479052" lon="12.8676799"><ele>519.0</ele><time>2026-05-03T14:52:46.963Z</time></trkpt><trkpt lat="46.4789788" lon="12.8677292"><ele>519.0</ele><time>2026-05-03T14:52:47.963Z</time></trkpt><trkpt lat="46.478891" lon="12.867791"><ele>519.0</ele><time>2026-05-03T14:52:48.963Z</time></trkpt><trkpt lat="46.478793" lon="12.867863"><ele>519.0</ele><time>2026-05-03T14:52:49.962Z</time></trkpt><trkpt lat="46.4786953" lon="12.8679429"><ele>519.0</ele><time>2026-05-03T14:52:50.964Z</time></trkpt><trkpt lat="46.4785938" lon="12.8680392"><ele>516.5</ele><time>2026-05-03T14:52:51.963Z</time></trkpt><trkpt lat="46.478495" lon="12.8681577"><ele>514.0</ele><time>2026-05-03T14:52:52.963Z</time></trkpt><trkpt lat="46.4783965" lon="12.8682864"><ele>511.5</ele><time>2026-05-03T14:52:53.962Z</time></trkpt><trkpt lat="46.4782987" lon="12.8684231"><ele>509.0</ele><time>2026-05-03T14:52:54.963Z</time></trkpt><trkpt lat="46.4782016" lon="12.8685596"><ele>509.0</ele><time>2026-05-03T14:52:55.963Z</time></trkpt><trkpt lat="46.4781067" lon="12.868695"><ele>509.0</ele><time>2026-05-03T14:52:56.962Z</time></trkpt><trkpt lat="46.4780137" lon="12.868823"><ele>509.0</ele><time>2026-05-03T14:52:57.963Z</time></trkpt><trkpt lat="46.477925" lon="12.8689531"><ele>509.0</ele><time>2026-05-03T14:52:58.963Z</time></trkpt><trkpt lat="46.4778388" lon="12.869076"><ele>508.75</ele><time>2026-05-03T14:52:59.962Z</time></trkpt><trkpt lat="46.4777561" lon="12.8691911"><ele>508.5</ele><time>2026-05-03T14:53:00.963Z</time></trkpt><trkpt lat="46.477678" lon="12.8693009"><ele>508.25</ele><time>2026-05-03T14:53:01.964Z</time></trkpt><trkpt lat="46.4775985" lon="12.8694176"><ele>508.0</ele><time>2026-05-03T14:53:02.963Z</time></trkpt><trkpt lat="46.4775155" lon="12.8695383"><ele>508.0</ele><time>2026-05-03T14:53:03.962Z</time></trkpt><trkpt lat="46.4774249" lon="12.869667"><ele>508.0</ele><time>2026-05-03T14:53:04.962Z</time></trkpt><trkpt lat="46.4773295" lon="12.8697957"><ele>508.0</ele><time>2026-05-03T14:53:05.963Z</time></trkpt><trkpt lat="46.4772344" lon="12.8699289"><ele>508.0</ele><time>2026-05-03T14:53:06.963Z</time></trkpt><trkpt lat="46.4771394" lon="12.870061"><ele>508.0</ele><time>2026-05-03T14:53:07.962Z</time></trkpt><trkpt lat="46.4770454" lon="12.8701832"><ele>508.0</ele><time>2026-05-03T14:53:08.963Z</time></trkpt><trkpt lat="46.4769516" lon="12.8702902"><ele>508.0</ele><time>2026-05-03T14:53:09.962Z</time></trkpt><trkpt lat="46.4768612" lon="12.8703822"><ele>508.0</ele><time>2026-05-03T14:53:10.963Z</time></trkpt><trkpt lat="46.4767796" lon="12.8704502"><ele>508.00000000000006</ele><time>2026-05-03T14:53:11.963Z</time></trkpt><trkpt lat="46.4767007" lon="12.870498"><ele>508.0</ele><time>2026-05-03T14:53:12.963Z</time></trkpt><trkpt lat="46.4766247" lon="12.8705226"><ele>508.0</ele><time>2026-05-03T14:53:13.962Z</time></trkpt><trkpt lat="46.4765461" lon="12.8705133"><ele>508.0</ele><time>2026-05-03T14:53:14.964Z</time></trkpt><trkpt lat="46.4764714" lon="12.8704606"><ele>508.00000000000006</ele><time>2026-05-03T14:53:15.962Z</time></trkpt><trkpt lat="46.4764088" lon="12.8703897"><ele>508.0</ele><time>2026-05-03T14:53:16.963Z</time></trkpt><trkpt lat="46.4763331" lon="12.870362"><ele>506.2</ele><time>2026-05-03T14:53:17.963Z</time></trkpt><trkpt lat="46.4762508" lon="12.8703808"><ele>504.4</ele><time>2026-05-03T14:53:18.964Z</time></trkpt><trkpt lat="46.4761794" lon="12.8704546"><ele>502.59999999999997</ele><time>2026-05-03T14:53:19.963Z</time></trkpt><trkpt lat="46.4761079" lon="12.8705547"><ele>500.79999999999995</ele><time>2026-05-03T14:53:20.963Z</time></trkpt><trkpt lat="46.4760104" lon="12.87063"><ele>499.0</ele><time>2026-05-03T14:53:21.962Z</time></trkpt><trkpt lat="46.4759017" lon="12.8706898"><ele>499.0</ele><time>2026-05-03T14:53:22.963Z</time></trkpt><trkpt lat="46.4757946" lon="12.8707472"><ele>499.0</ele><time>2026-05-03T14:53:23.963Z</time></trkpt><trkpt lat="46.4756906" lon="12.8708188"><ele>499.0</ele><time>2026-05-03T14:53:24.963Z</time></trkpt><trkpt lat="46.475581" lon="12.8709033"><ele>499.0</ele><time>2026-05-03T14:53:25.963Z</time></trkpt><trkpt lat="46.4754691" lon="12.8709924"><ele>503.25</ele><time>2026-05-03T14:53:26.963Z</time></trkpt><trkpt lat="46.475358" lon="12.8710885"><ele>507.5</ele><time>2026-05-03T14:53:27.962Z</time></trkpt><trkpt lat="46.4752471" lon="12.871185"><ele>511.75</ele><time>2026-05-03T14:53:28.963Z</time></trkpt><trkpt lat="46.4751376" lon="12.8712837"><ele>516.0</ele><time>2026-05-03T14:53:29.962Z</time></trkpt><trkpt lat="46.475012" lon="12.8713958"><ele>516.0</ele><time>2026-05-03T14:53:30.963Z</time></trkpt><trkpt lat="46.4748698" lon="12.8715156"><ele>516.0</ele><time>2026-05-03T14:53:31.963Z</time></trkpt><trkpt lat="46.4747118" lon="12.8716365"><ele>516.0</ele><time>2026-05-03T14:53:32.963Z</time></trkpt><trkpt lat="46.4745474" lon="12.8717503"><ele>518.0</ele><time>2026-05-03T14:53:33.963Z</time></trkpt><trkpt lat="46.4743694" lon="12.8718688"><ele>520.0</ele><time>2026-05-03T14:53:34.962Z</time></trkpt><trkpt lat="46.4741816" lon="12.8720021"><ele>522.0</ele><time>2026-05-03T14:53:35.963Z</time></trkpt><trkpt lat="46.4739818" lon="12.8721396"><ele>511.0</ele><time>2026-05-03T14:53:36.963Z</time></trkpt><trkpt lat="46.4737717" lon="12.8722813"><ele>500.0</ele><time>2026-05-03T14:53:37.963Z</time></trkpt><trkpt lat="46.473558" lon="12.8724419"><ele>500.0</ele><time>2026-05-03T14:53:38.963Z</time></trkpt><trkpt lat="46.4733495" lon="12.8726035"><ele>500.0</ele><time>2026-05-03T14:53:39.962Z</time></trkpt><trkpt lat="46.4731413" lon="12.8727538"><ele>503.0</ele><time>2026-05-03T14:53:40.963Z</time></trkpt><trkpt lat="46.4729445" lon="12.8728878"><ele>506.0</ele><time>2026-05-03T14:53:41.963Z</time></trkpt><trkpt lat="46.4727499" lon="12.8730183"><ele>509.0</ele><time>2026-05-03T14:53:42.963Z</time></trkpt><trkpt lat="46.47255" lon="12.8731464"><ele>509.0</ele><time>2026-05-03T14:53:43.963Z</time></trkpt><trkpt lat="46.4723448" lon="12.8732723"><ele>509.0</ele><time>2026-05-03T14:53:44.962Z</time></trkpt><trkpt lat="46.4721543" lon="12.873396"><ele>509.0</ele><time>2026-05-03T14:53:45.963Z</time></trkpt><trkpt lat="46.4719747" lon="12.8735158"><ele>516.3333333333333</ele><time>2026-05-03T14:53:46.963Z</time></trkpt><trkpt lat="46.4718099" lon="12.8736208"><ele>523.6666666666666</ele><time>2026-05-03T14:53:47.962Z</time></trkpt><trkpt lat="46.4716574" lon="12.8737184"><ele>531.0</ele><time>2026-05-03T14:53:48.963Z</time></trkpt><trkpt lat="46.4715154" lon="12.8738064"><ele>531.0</ele><time>2026-05-03T14:53:49.962Z</time></trkpt><trkpt lat="46.4713758" lon="12.8738941"><ele>531.0</ele><time>2026-05-03T14:53:50.962Z</time></trkpt><trkpt lat="46.47124" lon="12.8739798"><ele>531.0</ele><time>2026-05-03T14:53:51.961Z</time></trkpt><trkpt lat="46.4711105" lon="12.8740468"><ele>531.0</ele><time>2026-05-03T14:53:52.962Z</time></trkpt><trkpt lat="46.4709805" lon="12.8740945"><ele>523.0</ele><time>2026-05-03T14:53:53.962Z</time></trkpt><trkpt lat="46.470851" lon="12.8741349"><ele>515.0</ele><time>2026-05-03T14:53:54.962Z</time></trkpt><trkpt lat="46.4707222" lon="12.8741821"><ele>507.0</ele><time>2026-05-03T14:53:55.961Z</time></trkpt><trkpt lat="46.4705967" lon="12.8742277"><ele>499.0</ele><time>2026-05-03T14:53:56.961Z</time></trkpt><trkpt lat="46.4704745" lon="12.8742691"><ele>508.25</ele><time>2026-05-03T14:53:57.963Z</time></trkpt><trkpt lat="46.4703474" lon="12.8743173"><ele>517.5</ele><time>2026-05-03T14:53:58.962Z</time></trkpt><trkpt lat="46.4702174" lon="12.8743691"><ele>526.75</ele><time>2026-05-03T14:53:59.962Z</time></trkpt><trkpt lat="46.4700927" lon="12.8744151"><ele>536.0</ele><time>2026-05-03T14:54:00.962Z</time></trkpt><trkpt lat="46.469971" lon="12.8744645"><ele>536.0</ele><time>2026-05-03T14:54:01.962Z</time></trkpt><trkpt lat="46.4698449" lon="12.8745088"><ele>536.0</ele><time>2026-05-03T14:54:02.961Z</time></trkpt><trkpt lat="46.4697173" lon="12.8745546"><ele>536.0</ele><time>2026-05-03T14:54:03.961Z</time></trkpt><trkpt lat="46.4695872" lon="12.8746019"><ele>536.0</ele><time>2026-05-03T14:54:04.962Z</time></trkpt><trkpt lat="46.4694663" lon="12.8746443"><ele>529.5</ele><time>2026-05-03T14:54:05.961Z</time></trkpt><trkpt lat="46.4693448" lon="12.8746774"><ele>523.0</ele><time>2026-05-03T14:54:06.961Z</time></trkpt><trkpt lat="46.4692215" lon="12.8746902"><ele>516.5</ele><time>2026-05-03T14:54:07.962Z</time></trkpt><trkpt lat="46.4690971" lon="12.8746819"><ele>510.0</ele><time>2026-05-03T14:54:08.963Z</time></trkpt><trkpt lat="46.4689638" lon="12.874667"><ele>510.0</ele><time>2026-05-03T14:54:09.961Z</time></trkpt><trkpt lat="46.4688189" lon="12.8746484"><ele>510.0</ele><time>2026-05-03T14:54:10.962Z</time></trkpt><trkpt lat="46.4686622" lon="12.8746251"><ele>510.0</ele><time>2026-05-03T14:54:11.962Z</time></trkpt><trkpt lat="46.4684976" lon="12.874596"><ele>508.33333333333337</ele><time>2026-05-03T14:54:12.962Z</time></trkpt><trkpt lat="46.4683189" lon="12.874558"><ele>506.6666666666667</ele><time>2026-05-03T14:54:13.962Z</time></trkpt><trkpt lat="46.4681348" lon="12.8745166"><ele>505.0</ele><time>2026-05-03T14:54:14.963Z</time></trkpt><trkpt lat="46.4679505" lon="12.8744597"><ele>505.6666666666667</ele><time>2026-05-03T14:54:15.962Z</time></trkpt><trkpt lat="46.467763" lon="12.8743738"><ele>506.33333333333337</ele><time>2026-05-03T14:54:16.962Z</time></trkpt><trkpt lat="46.4675724" lon="12.8742698"><ele>507.0</ele><time>2026-05-03T14:54:17.962Z</time></trkpt><trkpt lat="46.4673836" lon="12.8741709"><ele>500.33333333333337</ele><time>2026-05-03T14:54:18.962Z</time></trkpt><trkpt lat="46.4671933" lon="12.8740861"><ele>493.6666666666667</ele><time>2026-05-03T14:54:19.961Z</time></trkpt><trkpt lat="46.466993" lon="12.8740337"><ele>487.0</ele><time>2026-05-03T14:54:20.962Z</time></trkpt><trkpt lat="46.4667829" lon="12.8740145"><ele>487.0</ele><time>2026-05-03T14:54:21.961Z</time></trkpt><trkpt lat="46.46657" lon="12.8740328"><ele>487.0</ele><time>2026-05-03T14:54:22.962Z</time></trkpt><trkpt lat="46.466361" lon="12.8740765"><ele>487.0</ele><time>2026-05-03T14:54:23.962Z</time></trkpt><trkpt lat="46.4661599" lon="12.8741257"><ele>484.6666666666667</ele><time>2026-05-03T14:54:24.962Z</time></trkpt><trkpt lat="46.4659724" lon="12.8741719"><ele>482.33333333333337</ele><time>2026-05-03T14:54:25.962Z</time></trkpt><trkpt lat="46.4657942" lon="12.874212"><ele>480.0</ele><time>2026-05-03T14:54:26.961Z</time></trkpt><trkpt lat="46.4656211" lon="12.8742284"><ele>480.0</ele><time>2026-05-03T14:54:27.962Z</time></trkpt><trkpt lat="46.4654457" lon="12.8742006"><ele>480.0</ele><time>2026-05-03T14:54:28.961Z</time></trkpt><trkpt lat="46.4652697" lon="12.8741203"><ele>480.0</ele><time>2026-05-03T14:54:29.962Z</time></trkpt><trkpt lat="46.465099" lon="12.8740143"><ele>480.0</ele><time>2026-05-03T14:54:30.962Z</time></trkpt><trkpt lat="46.4649344" lon="12.8739058"><ele>480.0</ele><time>2026-05-03T14:54:31.961Z</time></trkpt><trkpt lat="46.4647778" lon="12.8737978"><ele>480.0</ele><time>2026-05-03T14:54:32.962Z</time></trkpt><trkpt lat="46.4646308" lon="12.873678"><ele>482.0</ele><time>2026-05-03T14:54:33.962Z</time></trkpt><trkpt lat="46.4644947" lon="12.8735218"><ele>484.0</ele><time>2026-05-03T14:54:34.962Z</time></trkpt><trkpt lat="46.4643851" lon="12.8733254"><ele>486.0</ele><time>2026-05-03T14:54:35.961Z</time></trkpt><trkpt lat="46.4642956" lon="12.8731024"><ele>486.0</ele><time>2026-05-03T14:54:36.962Z</time></trkpt><trkpt lat="46.4642198" lon="12.8728739"><ele>486.0</ele><time>2026-05-03T14:54:37.963Z</time></trkpt><trkpt lat="46.464145" lon="12.8726455"><ele>486.0</ele><time>2026-05-03T14:54:38.962Z</time></trkpt><trkpt lat="46.4640748" lon="12.8724318"><ele>482.5</ele><time>2026-05-03T14:54:39.962Z</time></trkpt><trkpt lat="46.4640084" lon="12.8722283"><ele>479.0</ele><time>2026-05-03T14:54:40.962Z</time></trkpt><trkpt lat="46.4639448" lon="12.8720458"><ele>475.5</ele><time>2026-05-03T14:54:41.963Z</time></trkpt><trkpt lat="46.4638743" lon="12.8718822"><ele>472.0</ele><time>2026-05-03T14:54:42.961Z</time></trkpt><trkpt lat="46.4637919" lon="12.871751"><ele>469.25</ele><time>2026-05-03T14:54:43.962Z</time></trkpt><trkpt lat="46.4636861" lon="12.8716527"><ele>466.5</ele><time>2026-05-03T14:54:44.961Z</time></trkpt><trkpt lat="46.4635612" lon="12.8716063"><ele>463.75</ele><time>2026-05-03T14:54:45.962Z</time></trkpt><trkpt lat="46.4634264" lon="12.8716136"><ele>461.0</ele><time>2026-05-03T14:54:46.961Z</time></trkpt><trkpt lat="46.4632868" lon="12.8716754"><ele>461.0</ele><time>2026-05-03T14:54:47.962Z</time></trkpt><trkpt lat="46.4631343" lon="12.8717681"><ele>461.0</ele><time>2026-05-03T14:54:48.961Z</time></trkpt><trkpt lat="46.4629801" lon="12.8718645"><ele>461.0</ele><time>2026-05-03T14:54:49.962Z</time></trkpt><trkpt lat="46.4628181" lon="12.8719622"><ele>470.66666666666663</ele><time>2026-05-03T14:54:50.961Z</time></trkpt><trkpt lat="46.462651" lon="12.8720661"><ele>480.33333333333337</ele><time>2026-05-03T14:54:51.962Z</time></trkpt><trkpt lat="46.4624711" lon="12.8721573"><ele>490.0</ele><time>2026-05-03T14:54:52.962Z</time></trkpt><trkpt lat="46.4622746" lon="12.8722243"><ele>485.0</ele><time>2026-05-03T14:54:53.962Z</time></trkpt><trkpt lat="46.4620702" lon="12.8722764"><ele>480.0</ele><time>2026-05-03T14:54:54.961Z</time></trkpt><trkpt lat="46.4618643" lon="12.8723175"><ele>475.0</ele><time>2026-05-03T14:54:55.962Z</time></trkpt><trkpt lat="46.4616463" lon="12.8723553"><ele>475.0</ele><time>2026-05-03T14:54:56.962Z</time></trkpt><trkpt lat="46.4614235" lon="12.8723956"><ele>475.0</ele><time>2026-05-03T14:54:57.961Z</time></trkpt><trkpt lat="46.4611982" lon="12.8724365"><ele>475.0</ele><time>2026-05-03T14:54:58.963Z</time></trkpt><trkpt lat="46.4609724" lon="12.8724719"><ele>475.0</ele><time>2026-05-03T14:54:59.962Z</time></trkpt><trkpt lat="46.4607415" lon="12.872487"><ele>475.0</ele><time>2026-05-03T14:55:00.962Z</time></trkpt><trkpt lat="46.4605069" lon="12.872471"><ele>475.0</ele><time>2026-05-03T14:55:01.961Z</time></trkpt><trkpt lat="46.4602716" lon="12.8724436"><ele>473.5</ele><time>2026-05-03T14:55:02.962Z</time></trkpt><trkpt lat="46.4600422" lon="12.8724295"><ele>472.0</ele><time>2026-05-03T14:55:03.961Z</time></trkpt><trkpt lat="46.4598179" lon="12.8724243"><ele>471.6666666666667</ele><time>2026-05-03T14:55:04.962Z</time></trkpt><trkpt lat="46.4596105" lon="12.8724106"><ele>471.33333333333337</ele><time>2026-05-03T14:55:05.962Z</time></trkpt><trkpt lat="46.4594164" lon="12.8723772"><ele>471.0</ele><time>2026-05-03T14:55:06.963Z</time></trkpt><trkpt lat="46.4592434" lon="12.8723193"><ele>471.0</ele><time>2026-05-03T14:55:07.961Z</time></trkpt><trkpt lat="46.4590848" lon="12.8722573"><ele>471.0</ele><time>2026-05-03T14:55:08.962Z</time></trkpt><trkpt lat="46.4589206" lon="12.8722268"><ele>471.0</ele><time>2026-05-03T14:55:09.962Z</time></trkpt><trkpt lat="46.4587446" lon="12.8722219"><ele>464.66666666666663</ele><time>2026-05-03T14:55:10.963Z</time></trkpt><trkpt lat="46.4585592" lon="12.8722316"><ele>458.3333333333333</ele><time>2026-05-03T14:55:11.961Z</time></trkpt><trkpt lat="46.4583683" lon="12.8722521"><ele>452.0</ele><time>2026-05-03T14:55:12.962Z</time></trkpt><trkpt lat="46.4581696" lon="12.872299"><ele>452.0</ele><time>2026-05-03T14:55:13.962Z</time></trkpt><trkpt lat="46.4579651" lon="12.8723683"><ele>452.0</ele><time>2026-05-03T14:55:14.962Z</time></trkpt><trkpt lat="46.457766" lon="12.8724553"><ele>452.0</ele><time>2026-05-03T14:55:15.963Z</time></trkpt><trkpt lat="46.4575682" lon="12.8725522"><ele>451.3333333333333</ele><time>2026-05-03T14:55:16.961Z</time></trkpt><trkpt lat="46.4573743" lon="12.8726678"><ele>450.66666666666663</ele><time>2026-05-03T14:55:17.962Z</time></trkpt><trkpt lat="46.4571799" lon="12.8728024"><ele>450.0</ele><time>2026-05-03T14:55:18.962Z</time></trkpt><trkpt lat="46.456987" lon="12.8729609"><ele>448.5</ele><time>2026-05-03T14:55:19.962Z</time></trkpt><trkpt lat="46.4567937" lon="12.8731327"><ele>447.0</ele><time>2026-05-03T14:55:20.963Z</time></trkpt><trkpt lat="46.4565978" lon="12.8733064"><ele>447.5</ele><time>2026-05-03T14:55:21.962Z</time></trkpt><trkpt lat="46.4563957" lon="12.8734856"><ele>448.0</ele><time>2026-05-03T14:55:22.962Z</time></trkpt><trkpt lat="46.4561933" lon="12.8736701"><ele>448.0</ele><time>2026-05-03T14:55:23.961Z</time></trkpt><trkpt lat="46.4559848" lon="12.8738559"><ele>448.0</ele><time>2026-05-03T14:55:24.962Z</time></trkpt><trkpt lat="46.4557744" lon="12.874046"><ele>448.0</ele><time>2026-05-03T14:55:25.962Z</time></trkpt><trkpt lat="46.4555614" lon="12.8742387"><ele>448.0</ele><time>2026-05-03T14:55:26.962Z</time></trkpt><trkpt lat="46.4553455" lon="12.8744307"><ele>447.5</ele><time>2026-05-03T14:55:27.961Z</time></trkpt><trkpt lat="46.4551271" lon="12.8746249"><ele>447.0</ele><time>2026-05-03T14:55:28.962Z</time></trkpt><trkpt lat="46.4549099" lon="12.8748197"><ele>447.0</ele><time>2026-05-03T14:55:29.962Z</time></trkpt><trkpt lat="46.4546913" lon="12.8750147"><ele>447.0</ele><time>2026-05-03T14:55:30.962Z</time></trkpt><trkpt lat="46.4544737" lon="12.8752076"><ele>447.0</ele><time>2026-05-03T14:55:31.961Z</time></trkpt><trkpt lat="46.4542581" lon="12.8754019"><ele>447.0</ele><time>2026-05-03T14:55:32.962Z</time></trkpt><trkpt lat="46.4540439" lon="12.8755958"><ele>447.0</ele><time>2026-05-03T14:55:33.963Z</time></trkpt><trkpt lat="46.4538352" lon="12.8757885"><ele>447.0</ele><time>2026-05-03T14:55:34.962Z</time></trkpt><trkpt lat="46.453628" lon="12.8759764"><ele>447.5</ele><time>2026-05-03T14:55:35.962Z</time></trkpt><trkpt lat="46.4534223" lon="12.8761597"><ele>448.0</ele><time>2026-05-03T14:55:36.961Z</time></trkpt><trkpt lat="46.4532192" lon="12.8763434"><ele>448.0</ele><time>2026-05-03T14:55:37.962Z</time></trkpt><trkpt lat="46.4530167" lon="12.8765234"><ele>448.0</ele><time>2026-05-03T14:55:38.962Z</time></trkpt><trkpt lat="46.4528128" lon="12.876703"><ele>452.5</ele><time>2026-05-03T14:55:39.961Z</time></trkpt><trkpt lat="46.4526117" lon="12.8768781"><ele>457.0</ele><time>2026-05-03T14:55:40.961Z</time></trkpt><trkpt lat="46.4524184" lon="12.8770489"><ele>457.0</ele><time>2026-05-03T14:55:41.962Z</time></trkpt><trkpt lat="46.4522283" lon="12.8772089"><ele>457.0</ele><time>2026-05-03T14:55:42.961Z</time></trkpt><trkpt lat="46.4520415" lon="12.8773489"><ele>457.0</ele><time>2026-05-03T14:55:43.962Z</time></trkpt><trkpt lat="46.4518542" lon="12.8774638"><ele>454.33333333333337</ele><time>2026-05-03T14:55:44.962Z</time></trkpt><trkpt lat="46.4516609" lon="12.8775657"><ele>451.66666666666663</ele><time>2026-05-03T14:55:45.962Z</time></trkpt><trkpt lat="46.4514637" lon="12.8776452"><ele>449.0</ele><time>2026-05-03T14:55:46.961Z</time></trkpt><trkpt lat="46.4512566" lon="12.8776986"><ele>462.0</ele><time>2026-05-03T14:55:47.961Z</time></trkpt><trkpt lat="46.4510496" lon="12.8777457"><ele>475.0</ele><time>2026-05-03T14:55:48.962Z</time></trkpt><trkpt lat="46.4508557" lon="12.8777873"><ele>488.0</ele><time>2026-05-03T14:55:49.961Z</time></trkpt><trkpt lat="46.4506761" lon="12.8778205"><ele>488.0</ele><time>2026-05-03T14:55:50.962Z</time></trkpt><trkpt lat="46.45051" lon="12.8778376"><ele>488.0</ele><time>2026-05-03T14:55:51.962Z</time></trkpt><trkpt lat="46.4503501" lon="12.8778335"><ele>488.0</ele><time>2026-05-03T14:55:52.961Z</time></trkpt><trkpt lat="46.4501946" lon="12.8778247"><ele>481.5</ele><time>2026-05-03T14:55:53.962Z</time></trkpt><trkpt lat="46.4500501" lon="12.87782"><ele>475.0</ele><time>2026-05-03T14:55:54.962Z</time></trkpt><trkpt lat="46.4499169" lon="12.8778213"><ele>468.5</ele><time>2026-05-03T14:55:55.961Z</time></trkpt><trkpt lat="46.4497933" lon="12.8778441"><ele>462.0</ele><time>2026-05-03T14:55:56.962Z</time></trkpt><trkpt lat="46.4496706" lon="12.877907"><ele>459.25</ele><time>2026-05-03T14:55:57.961Z</time></trkpt><trkpt lat="46.4495533" lon="12.8780034"><ele>456.5</ele><time>2026-05-03T14:55:58.962Z</time></trkpt><trkpt lat="46.4494477" lon="12.8781196"><ele>453.75</ele><time>2026-05-03T14:55:59.962Z</time></trkpt><trkpt lat="46.449345" lon="12.8782374"><ele>451.0</ele><time>2026-05-03T14:56:00.962Z</time></trkpt><trkpt lat="46.4492436" lon="12.8783516"><ele>460.5</ele><time>2026-05-03T14:56:01.962Z</time></trkpt><trkpt lat="46.4491375" lon="12.878457"><ele>470.0</ele><time>2026-05-03T14:56:02.962Z</time></trkpt><trkpt lat="46.4490254" lon="12.8785482"><ele>479.5</ele><time>2026-05-03T14:56:03.961Z</time></trkpt><trkpt lat="46.4489076" lon="12.8786191"><ele>489.0</ele><time>2026-05-03T14:56:04.963Z</time></trkpt><trkpt lat="46.4487813" lon="12.8786751"><ele>489.0</ele><time>2026-05-03T14:56:05.961Z</time></trkpt><trkpt lat="46.4486426" lon="12.8787131"><ele>489.0</ele><time>2026-05-03T14:56:06.962Z</time></trkpt><trkpt lat="46.448504" lon="12.8787502"><ele>489.0</ele><time>2026-05-03T14:56:07.963Z</time></trkpt><trkpt lat="46.44836" lon="12.8787797"><ele>489.0</ele><time>2026-05-03T14:56:08.962Z</time></trkpt><trkpt lat="46.4482151" lon="12.8788126"><ele>489.0</ele><time>2026-05-03T14:56:09.962Z</time></trkpt><trkpt lat="46.4480701" lon="12.8788399"><ele>489.0</ele><time>2026-05-03T14:56:10.962Z</time></trkpt><trkpt lat="46.4479305" lon="12.8788694"><ele>489.0</ele><time>2026-05-03T14:56:11.961Z</time></trkpt><trkpt lat="46.447797" lon="12.8788967"><ele>489.0</ele><time>2026-05-03T14:56:12.962Z</time></trkpt><trkpt lat="46.4476586" lon="12.878913"><ele>486.25</ele><time>2026-05-03T14:56:13.962Z</time></trkpt><trkpt lat="46.447514" lon="12.8789078"><ele>483.5</ele><time>2026-05-03T14:56:14.963Z</time></trkpt><trkpt lat="46.4473713" lon="12.8788801"><ele>480.75</ele><time>2026-05-03T14:56:15.961Z</time></trkpt><trkpt lat="46.4472281" lon="12.8788281"><ele>478.0</ele><time>2026-05-03T14:56:16.963Z</time></trkpt><trkpt lat="46.4470891" lon="12.8787674"><ele>478.0</ele><time>2026-05-03T14:56:17.962Z</time></trkpt><trkpt lat="46.4469563" lon="12.8787057"><ele>478.0</ele><time>2026-05-03T14:56:18.962Z</time></trkpt><trkpt lat="46.4468191" lon="12.8786523"><ele>478.0</ele><time>2026-05-03T14:56:19.963Z</time></trkpt><trkpt lat="46.4466671" lon="12.8786209"><ele>478.0</ele><time>2026-05-03T14:56:20.963Z</time></trkpt><trkpt lat="46.4465015" lon="12.8786125"><ele>478.0</ele><time>2026-05-03T14:56:21.962Z</time></trkpt><trkpt lat="46.4463256" lon="12.8786266"><ele>478.0</ele><time>2026-05-03T14:56:22.963Z</time></trkpt><trkpt lat="46.4461387" lon="12.8786594"><ele>478.0</ele><time>2026-05-03T14:56:23.961Z</time></trkpt><trkpt lat="46.4459436" lon="12.8787028"><ele>475.0</ele><time>2026-05-03T14:56:24.962Z</time></trkpt><trkpt lat="46.4457576" lon="12.8787438"><ele>472.0</ele><time>2026-05-03T14:56:25.962Z</time></trkpt><trkpt lat="46.4455801" lon="12.8787835"><ele>469.0</ele><time>2026-05-03T14:56:26.961Z</time></trkpt><trkpt lat="46.445405" lon="12.8788236"><ele>466.6666666666667</ele><time>2026-05-03T14:56:27.962Z</time></trkpt><trkpt lat="46.4452298" lon="12.8788604"><ele>464.33333333333337</ele><time>2026-05-03T14:56:28.962Z</time></trkpt><trkpt lat="46.4450583" lon="12.8788931"><ele>462.0</ele><time>2026-05-03T14:56:29.961Z</time></trkpt><trkpt lat="46.4448947" lon="12.8789304"><ele>462.0</ele><time>2026-05-03T14:56:30.962Z</time></trkpt><trkpt lat="46.444731" lon="12.8789786"><ele>462.0</ele><time>2026-05-03T14:56:31.962Z</time></trkpt><trkpt lat="46.4445725" lon="12.879043"><ele>462.0</ele><time>2026-05-03T14:56:32.961Z</time></trkpt><trkpt lat="46.4444163" lon="12.8791247"><ele>459.66666666666663</ele><time>2026-05-03T14:56:33.962Z</time></trkpt><trkpt lat="46.4442542" lon="12.8792301"><ele>457.3333333333333</ele><time>2026-05-03T14:56:34.961Z</time></trkpt><trkpt lat="46.4440898" lon="12.8793631"><ele>455.0</ele><time>2026-05-03T14:56:35.962Z</time></trkpt><trkpt lat="46.4439197" lon="12.8795168"><ele>455.66666666666663</ele><time>2026-05-03T14:56:36.962Z</time></trkpt><trkpt lat="46.4437447" lon="12.8796872"><ele>456.33333333333337</ele><time>2026-05-03T14:56:37.962Z</time></trkpt><trkpt lat="46.4435594" lon="12.8798695"><ele>457.0</ele><time>2026-05-03T14:56:38.962Z</time></trkpt><trkpt lat="46.4433668" lon="12.8800586"><ele>457.5</ele><time>2026-05-03T14:56:39.962Z</time></trkpt><trkpt lat="46.4431677" lon="12.8802414"><ele>458.0</ele><time>2026-05-03T14:56:40.963Z</time></trkpt><trkpt lat="46.4429618" lon="12.8804254"><ele>458.0</ele><time>2026-05-03T14:56:41.962Z</time></trkpt><trkpt lat="46.4427511" lon="12.8806154"><ele>458.0</ele><time>2026-05-03T14:56:42.961Z</time></trkpt><trkpt lat="46.4425384" lon="12.8808122"><ele>458.0</ele><time>2026-05-03T14:56:43.962Z</time></trkpt><trkpt lat="46.4423237" lon="12.8810119"><ele>458.0</ele><time>2026-05-03T14:56:44.961Z</time></trkpt><trkpt lat="46.4421098" lon="12.8812107"><ele>458.0</ele><time>2026-05-03T14:56:45.962Z</time></trkpt><trkpt lat="46.441906" lon="12.8814019"><ele>458.0</ele><time>2026-05-03T14:56:46.962Z</time></trkpt><trkpt lat="46.4417031" lon="12.881586"><ele>458.0</ele><time>2026-05-03T14:56:47.961Z</time></trkpt><trkpt lat="46.4415087" lon="12.8817596"><ele>458.0</ele><time>2026-05-03T14:56:48.963Z</time></trkpt><trkpt lat="46.4413341" lon="12.8819156"><ele>458.0</ele><time>2026-05-03T14:56:49.962Z</time></trkpt><trkpt lat="46.4411663" lon="12.8820434"><ele>459.66666666666663</ele><time>2026-05-03T14:56:50.962Z</time></trkpt><trkpt lat="46.4409959" lon="12.8821394"><ele>461.33333333333337</ele><time>2026-05-03T14:56:51.962Z</time></trkpt><trkpt lat="46.4408177" lon="12.8821913"><ele>463.0</ele><time>2026-05-03T14:56:52.962Z</time></trkpt><trkpt lat="46.4406342" lon="12.8822168"><ele>458.0</ele><time>2026-05-03T14:56:53.962Z</time></trkpt><trkpt lat="46.4404594" lon="12.8822504"><ele>453.0</ele><time>2026-05-03T14:56:54.962Z</time></trkpt><trkpt lat="46.4402906" lon="12.8822868"><ele>448.0</ele><time>2026-05-03T14:56:55.961Z</time></trkpt><trkpt lat="46.4401264" lon="12.8823379"><ele>448.0</ele><time>2026-05-03T14:56:56.962Z</time></trkpt><trkpt lat="46.4399669" lon="12.882401"><ele>448.0</ele><time>2026-05-03T14:56:57.962Z</time></trkpt><trkpt lat="46.4398151" lon="12.8824664"><ele>448.0</ele><time>2026-05-03T14:56:58.962Z</time></trkpt><trkpt lat="46.4396624" lon="12.8825159"><ele>444.6666666666667</ele><time>2026-05-03T14:56:59.961Z</time></trkpt><trkpt lat="46.4395046" lon="12.882547"><ele>441.33333333333337</ele><time>2026-05-03T14:57:00.962Z</time></trkpt><trkpt lat="46.4393479" lon="12.882563"><ele>438.0</ele><time>2026-05-03T14:57:01.962Z</time></trkpt><trkpt lat="46.439196" lon="12.8825717"><ele>438.0</ele><time>2026-05-03T14:57:02.962Z</time></trkpt><trkpt lat="46.4390504" lon="12.882587"><ele>438.0</ele><time>2026-05-03T14:57:03.962Z</time></trkpt><trkpt lat="46.4389087" lon="12.8826282"><ele>438.0</ele><time>2026-05-03T14:57:04.962Z</time></trkpt><trkpt lat="46.4387661" lon="12.8826989"><ele>438.0</ele><time>2026-05-03T14:57:05.962Z</time></trkpt><trkpt lat="46.4386212" lon="12.8828023"><ele>442.0</ele><time>2026-05-03T14:57:06.961Z</time></trkpt><trkpt lat="46.4384799" lon="12.8829246"><ele>446.0</ele><time>2026-05-03T14:57:07.962Z</time></trkpt><trkpt lat="46.4383397" lon="12.8830571"><ele>450.0</ele><time>2026-05-03T14:57:08.962Z</time></trkpt><trkpt lat="46.4381955" lon="12.883189"><ele>450.0</ele><time>2026-05-03T14:57:09.962Z</time></trkpt><trkpt lat="46.4380519" lon="12.8833228"><ele>450.0</ele><time>2026-05-03T14:57:10.962Z</time></trkpt><trkpt lat="46.4379081" lon="12.8834608"><ele>450.0</ele><time>2026-05-03T14:57:11.961Z</time></trkpt><trkpt lat="46.4377657" lon="12.8836003"><ele>446.0</ele><time>2026-05-03T14:57:12.962Z</time></trkpt><trkpt lat="46.4376315" lon="12.8837479"><ele>442.0</ele><time>2026-05-03T14:57:13.962Z</time></trkpt><trkpt lat="46.437502" lon="12.8839097"><ele>438.0</ele><time>2026-05-03T14:57:14.962Z</time></trkpt><trkpt lat="46.4373779" lon="12.8840795"><ele>438.0</ele><time>2026-05-03T14:57:15.962Z</time></trkpt><trkpt lat="46.437254" lon="12.8842626"><ele>438.0</ele><time>2026-05-03T14:57:16.961Z</time></trkpt><trkpt lat="46.4371314" lon="12.8844477"><ele>438.0</ele><time>2026-05-03T14:57:17.962Z</time></trkpt><trkpt lat="46.4370105" lon="12.8846396"><ele>440.0</ele><time>2026-05-03T14:57:18.962Z</time></trkpt><trkpt lat="46.4368936" lon="12.8848421"><ele>442.0</ele><time>2026-05-03T14:57:19.962Z</time></trkpt><trkpt lat="46.4367786" lon="12.8850583"><ele>444.0</ele><time>2026-05-03T14:57:20.962Z</time></trkpt><trkpt lat="46.4366615" lon="12.885276"><ele>444.0</ele><time>2026-05-03T14:57:21.962Z</time></trkpt><trkpt lat="46.4365513" lon="12.8854875"><ele>444.0</ele><time>2026-05-03T14:57:22.962Z</time></trkpt><trkpt lat="46.436446" lon="12.8856903"><ele>444.0</ele><time>2026-05-03T14:57:23.962Z</time></trkpt><trkpt lat="46.4363403" lon="12.8858853"><ele>442.66666666666663</ele><time>2026-05-03T14:57:24.963Z</time></trkpt><trkpt lat="46.4362311" lon="12.8860644"><ele>441.3333333333333</ele><time>2026-05-03T14:57:25.962Z</time></trkpt><trkpt lat="46.4361088" lon="12.8862317"><ele>440.0</ele><time>2026-05-03T14:57:26.961Z</time></trkpt><trkpt lat="46.435976" lon="12.8863855"><ele>440.0</ele><time>2026-05-03T14:57:27.962Z</time></trkpt><trkpt lat="46.435837" lon="12.8865232"><ele>440.0</ele><time>2026-05-03T14:57:28.962Z</time></trkpt><trkpt lat="46.4356956" lon="12.8866629"><ele>440.0</ele><time>2026-05-03T14:57:29.961Z</time></trkpt><trkpt lat="46.4355589" lon="12.8867977"><ele>441.0</ele><time>2026-05-03T14:57:30.962Z</time></trkpt><trkpt lat="46.435428" lon="12.8869301"><ele>442.0</ele><time>2026-05-03T14:57:31.962Z</time></trkpt><trkpt lat="46.4353001" lon="12.8870611"><ele>443.0</ele><time>2026-05-03T14:57:32.963Z</time></trkpt><trkpt lat="46.435175" lon="12.8871785"><ele>443.0</ele><time>2026-05-03T14:57:33.962Z</time></trkpt><trkpt lat="46.4350401" lon="12.8872687"><ele>443.0</ele><time>2026-05-03T14:57:34.961Z</time></trkpt><trkpt lat="46.434893" lon="12.8873226"><ele>443.0</ele><time>2026-05-03T14:57:35.962Z</time></trkpt><trkpt lat="46.4347391" lon="12.8873303"><ele>441.25</ele><time>2026-05-03T14:57:36.961Z</time></trkpt><trkpt lat="46.4345956" lon="12.8873105"><ele>439.5</ele><time>2026-05-03T14:57:37.962Z</time></trkpt><trkpt lat="46.4344578" lon="12.8872764"><ele>437.75</ele><time>2026-05-03T14:57:38.963Z</time></trkpt><trkpt lat="46.4343236" lon="12.887258"><ele>436.0</ele><time>2026-05-03T14:57:39.961Z</time></trkpt><trkpt lat="46.4341965" lon="12.8872648"><ele>436.0</ele><time>2026-05-03T14:57:40.961Z</time></trkpt><trkpt lat="46.4340679" lon="12.8872973"><ele>436.0</ele><time>2026-05-03T14:57:41.962Z</time></trkpt><trkpt lat="46.4339384" lon="12.887362"><ele>436.0</ele><time>2026-05-03T14:57:42.961Z</time></trkpt><trkpt lat="46.4338128" lon="12.8874515"><ele>436.0</ele><time>2026-05-03T14:57:43.962Z</time></trkpt><trkpt lat="46.4336914" lon="12.8875487"><ele>435.75</ele><time>2026-05-03T14:57:44.962Z</time></trkpt><trkpt lat="46.4335711" lon="12.8876433"><ele>435.5</ele><time>2026-05-03T14:57:45.962Z</time></trkpt><trkpt lat="46.4334575" lon="12.8877335"><ele>435.25</ele><time>2026-05-03T14:57:46.961Z</time></trkpt><trkpt lat="46.4333492" lon="12.8878252"><ele>435.0</ele><time>2026-05-03T14:57:47.962Z</time></trkpt><trkpt lat="46.4332517" lon="12.8879284"><ele>435.0</ele><time>2026-05-03T14:57:48.961Z</time></trkpt><trkpt lat="46.4331737" lon="12.888051"><ele>435.0</ele><time>2026-05-03T14:57:49.962Z</time></trkpt><trkpt lat="46.4331058" lon="12.8881859"><ele>435.0</ele><time>2026-05-03T14:57:50.962Z</time></trkpt><trkpt lat="46.4330873" lon="12.8883718"><ele>435.0</ele><time>2026-05-03T14:57:51.962Z</time></trkpt><trkpt lat="46.4330818" lon="12.8885511"><ele>434.25</ele><time>2026-05-03T14:57:52.962Z</time></trkpt><trkpt lat="46.4331038" lon="12.8887434"><ele>433.5</ele><time>2026-05-03T14:57:53.961Z</time></trkpt><trkpt lat="46.4331373" lon="12.8889364"><ele>432.75</ele><time>2026-05-03T14:57:54.962Z</time></trkpt><trkpt lat="46.4331837" lon="12.8891338"><ele>432.0</ele><time>2026-05-03T14:57:55.962Z</time></trkpt><trkpt lat="46.4332273" lon="12.8893378"><ele>430.66666666666663</ele><time>2026-05-03T14:57:56.962Z</time></trkpt><trkpt lat="46.4332702" lon="12.8895431"><ele>429.3333333333333</ele><time>2026-05-03T14:57:57.962Z</time></trkpt><trkpt lat="46.4333053" lon="12.8897548"><ele>428.0</ele><time>2026-05-03T14:57:58.961Z</time></trkpt><trkpt lat="46.4333256" lon="12.8899742"><ele>427.75</ele><time>2026-05-03T14:57:59.962Z</time></trkpt><trkpt lat="46.4333316" lon="12.8901866"><ele>427.5</ele><time>2026-05-03T14:58:00.962Z</time></trkpt><trkpt lat="46.433316" lon="12.890392"><ele>427.25</ele><time>2026-05-03T14:58:01.962Z</time></trkpt><trkpt lat="46.4332749" lon="12.8905997"><ele>427.0</ele><time>2026-05-03T14:58:02.963Z</time></trkpt><trkpt lat="46.4332273" lon="12.890809"><ele>428.0</ele><time>2026-05-03T14:58:03.962Z</time></trkpt><trkpt lat="46.433179" lon="12.8910269"><ele>429.0</ele><time>2026-05-03T14:58:04.962Z</time></trkpt><trkpt lat="46.433128" lon="12.8912513"><ele>430.0</ele><time>2026-05-03T14:58:05.961Z</time></trkpt><trkpt lat="46.4330769" lon="12.8914782"><ele>430.0</ele><time>2026-05-03T14:58:06.962Z</time></trkpt><trkpt lat="46.4330254" lon="12.8917084"><ele>430.0</ele><time>2026-05-03T14:58:07.961Z</time></trkpt><trkpt lat="46.4329749" lon="12.8919384"><ele>430.0</ele><time>2026-05-03T14:58:08.963Z</time></trkpt><trkpt lat="46.4329238" lon="12.8921633"><ele>424.33333333333337</ele><time>2026-05-03T14:58:09.962Z</time></trkpt><trkpt lat="46.4328727" lon="12.8923833"><ele>418.66666666666663</ele><time>2026-05-03T14:58:10.962Z</time></trkpt><trkpt lat="46.4328194" lon="12.8925988"><ele>413.0</ele><time>2026-05-03T14:58:11.962Z</time></trkpt><trkpt lat="46.4327597" lon="12.8928098"><ele>413.0</ele><time>2026-05-03T14:58:12.962Z</time></trkpt><trkpt lat="46.4326915" lon="12.8930195"><ele>413.0</ele><time>2026-05-03T14:58:13.962Z</time></trkpt><trkpt lat="46.4326135" lon="12.893226"><ele>413.0</ele><time>2026-05-03T14:58:14.963Z</time></trkpt><trkpt lat="46.4325273" lon="12.8934324"><ele>416.66666666666663</ele><time>2026-05-03T14:58:15.962Z</time></trkpt><trkpt lat="46.4324351" lon="12.8936306"><ele>420.33333333333337</ele><time>2026-05-03T14:58:16.962Z</time></trkpt><trkpt lat="46.4323396" lon="12.8938164"><ele>424.0</ele><time>2026-05-03T14:58:17.962Z</time></trkpt><trkpt lat="46.4322428" lon="12.8939938"><ele>424.0</ele><time>2026-05-03T14:58:18.961Z</time></trkpt><trkpt lat="46.4321525" lon="12.8941755"><ele>424.0</ele><time>2026-05-03T14:58:19.962Z</time></trkpt><trkpt lat="46.432072" lon="12.8943571"><ele>424.0</ele><time>2026-05-03T14:58:20.962Z</time></trkpt><trkpt lat="46.432006" lon="12.8945596"><ele>425.0</ele><time>2026-05-03T14:58:21.963Z</time></trkpt><trkpt lat="46.4319626" lon="12.89478"><ele>426.0</ele><time>2026-05-03T14:58:22.962Z</time></trkpt><trkpt lat="46.4319347" lon="12.8950035"><ele>427.0</ele><time>2026-05-03T14:58:23.961Z</time></trkpt><trkpt lat="46.431895" lon="12.8952239"><ele>427.0</ele><time>2026-05-03T14:58:24.962Z</time></trkpt><trkpt lat="46.4318248" lon="12.8954268"><ele>427.0</ele><time>2026-05-03T14:58:25.962Z</time></trkpt><trkpt lat="46.4317271" lon="12.8956101"><ele>427.0</ele><time>2026-05-03T14:58:26.962Z</time></trkpt><trkpt lat="46.431602" lon="12.8957712"><ele>428.33333333333337</ele><time>2026-05-03T14:58:27.961Z</time></trkpt><trkpt lat="46.4314642" lon="12.8959218"><ele>429.66666666666663</ele><time>2026-05-03T14:58:28.962Z</time></trkpt><trkpt lat="46.4313303" lon="12.8960667"><ele>431.0</ele><time>2026-05-03T14:58:29.962Z</time></trkpt><trkpt lat="46.4312008" lon="12.8962034"><ele>431.0</ele><time>2026-05-03T14:58:30.962Z</time></trkpt><trkpt lat="46.4310686" lon="12.8963285"><ele>431.0</ele><time>2026-05-03T14:58:31.963Z</time></trkpt><trkpt lat="46.4309326" lon="12.8964371"><ele>431.0</ele><time>2026-05-03T14:58:32.961Z</time></trkpt><trkpt lat="46.4307972" lon="12.8965268"><ele>431.0</ele><time>2026-05-03T14:58:33.962Z</time></trkpt><trkpt lat="46.4306624" lon="12.8965937"><ele>431.0</ele><time>2026-05-03T14:58:34.962Z</time></trkpt><trkpt lat="46.4305292" lon="12.8966482"><ele>431.0</ele><time>2026-05-03T14:58:35.963Z</time></trkpt><trkpt lat="46.4303961" lon="12.8967157"><ele>431.0</ele><time>2026-05-03T14:58:36.962Z</time></trkpt><trkpt lat="46.430267" lon="12.8968154"><ele>429.0</ele><time>2026-05-03T14:58:37.962Z</time></trkpt><trkpt lat="46.430154" lon="12.8969297"><ele>427.0</ele><time>2026-05-03T14:58:38.962Z</time></trkpt><trkpt lat="46.4300592" lon="12.8970632"><ele>425.0</ele><time>2026-05-03T14:58:39.961Z</time></trkpt><trkpt lat="46.4299831" lon="12.897216"><ele>423.0</ele><time>2026-05-03T14:58:40.962Z</time></trkpt><trkpt lat="46.4299241" lon="12.8973935"><ele>423.0</ele><time>2026-05-03T14:58:41.962Z</time></trkpt><trkpt lat="46.4298796" lon="12.897571"><ele>423.0</ele><time>2026-05-03T14:58:42.961Z</time></trkpt><trkpt lat="46.4298176" lon="12.8977316"><ele>423.0</ele><time>2026-05-03T14:58:43.962Z</time></trkpt><trkpt lat="46.42973" lon="12.8978646"><ele>423.0</ele><time>2026-05-03T14:58:44.962Z</time></trkpt><trkpt lat="46.4296376" lon="12.8979965"><ele>419.0</ele><time>2026-05-03T14:58:45.962Z</time></trkpt><trkpt lat="46.4295543" lon="12.8981403"><ele>415.0</ele><time>2026-05-03T14:58:46.962Z</time></trkpt><trkpt lat="46.4294901" lon="12.8982977"><ele>411.0</ele><time>2026-05-03T14:58:47.962Z</time></trkpt><trkpt lat="46.4294504" lon="12.8984621"><ele>407.0</ele><time>2026-05-03T14:58:48.963Z</time></trkpt><trkpt lat="46.4294359" lon="12.89864"><ele>407.0</ele><time>2026-05-03T14:58:49.961Z</time></trkpt><trkpt lat="46.4294475" lon="12.8988329"><ele>407.0</ele><time>2026-05-03T14:58:50.962Z</time></trkpt><trkpt lat="46.4294599" lon="12.8990203"><ele>407.0</ele><time>2026-05-03T14:58:51.961Z</time></trkpt><trkpt lat="46.4294486" lon="12.8992138"><ele>407.0</ele><time>2026-05-03T14:58:52.963Z</time></trkpt><trkpt lat="46.4294156" lon="12.8994128"><ele>408.75</ele><time>2026-05-03T14:58:53.962Z</time></trkpt><trkpt lat="46.4293746" lon="12.8996043"><ele>410.5</ele><time>2026-05-03T14:58:54.962Z</time></trkpt><trkpt lat="46.4293283" lon="12.8997995"><ele>412.25</ele><time>2026-05-03T14:58:55.962Z</time></trkpt><trkpt lat="46.4292799" lon="12.899997"><ele>414.0</ele><time>2026-05-03T14:58:56.961Z</time></trkpt><trkpt lat="46.4292145" lon="12.9001902"><ele>418.0</ele><time>2026-05-03T14:58:57.962Z</time></trkpt><trkpt lat="46.4291326" lon="12.9003706"><ele>422.0</ele><time>2026-05-03T14:58:58.961Z</time></trkpt><trkpt lat="46.4290484" lon="12.9005382"><ele>426.0</ele><time>2026-05-03T14:58:59.963Z</time></trkpt><trkpt lat="46.4289627" lon="12.9007044"><ele>430.0</ele><time>2026-05-03T14:59:00.962Z</time></trkpt><trkpt lat="46.4288761" lon="12.9008665"><ele>426.6666666666667</ele><time>2026-05-03T14:59:01.961Z</time></trkpt><trkpt lat="46.4287816" lon="12.9010259"><ele>423.33333333333337</ele><time>2026-05-03T14:59:02.962Z</time></trkpt><trkpt lat="46.4286704" lon="12.9011777"><ele>420.0</ele><time>2026-05-03T14:59:03.963Z</time></trkpt><trkpt lat="46.4285525" lon="12.901319"><ele>420.0</ele><time>2026-05-03T14:59:04.962Z</time></trkpt><trkpt lat="46.4284343" lon="12.9014532"><ele>420.0</ele><time>2026-05-03T14:59:05.961Z</time></trkpt><trkpt lat="46.4283147" lon="12.9015911"><ele>420.0</ele><time>2026-05-03T14:59:06.962Z</time></trkpt><trkpt lat="46.4281899" lon="12.9017345"><ele>418.33333333333337</ele><time>2026-05-03T14:59:07.962Z</time></trkpt><trkpt lat="46.4280651" lon="12.9018765"><ele>416.6666666666667</ele><time>2026-05-03T14:59:08.962Z</time></trkpt><trkpt lat="46.4279425" lon="12.9020108"><ele>415.0</ele><time>2026-05-03T14:59:09.962Z</time></trkpt><trkpt lat="46.4278251" lon="12.9021413"><ele>415.0</ele><time>2026-05-03T14:59:10.961Z</time></trkpt><trkpt lat="46.4277096" lon="12.9022656"><ele>415.0</ele><time>2026-05-03T14:59:11.962Z</time></trkpt><trkpt lat="46.4276025" lon="12.9023998"><ele>415.0</ele><time>2026-05-03T14:59:12.961Z</time></trkpt><trkpt lat="46.42751" lon="12.9025422"><ele>415.0</ele><time>2026-05-03T14:59:13.962Z</time></trkpt><trkpt lat="46.4274375" lon="12.9027052"><ele>417.75</ele><time>2026-05-03T14:59:14.962Z</time></trkpt><trkpt lat="46.4273825" lon="12.9028897"><ele>420.5</ele><time>2026-05-03T14:59:15.961Z</time></trkpt><trkpt lat="46.4273359" lon="12.9030894"><ele>423.25</ele><time>2026-05-03T14:59:16.962Z</time></trkpt><trkpt lat="46.4272932" lon="12.9033"><ele>426.0</ele><time>2026-05-03T14:59:17.962Z</time></trkpt><trkpt lat="46.4272443" lon="12.9035032"><ele>430.25</ele><time>2026-05-03T14:59:18.963Z</time></trkpt><trkpt lat="46.427179" lon="12.9036924"><ele>434.5</ele><time>2026-05-03T14:59:19.961Z</time></trkpt><trkpt lat="46.4270922" lon="12.9038594"><ele>438.75</ele><time>2026-05-03T14:59:20.961Z</time></trkpt><trkpt lat="46.4269921" lon="12.9040045"><ele>443.0</ele><time>2026-05-03T14:59:21.962Z</time></trkpt><trkpt lat="46.4268748" lon="12.9041302"><ele>447.66666666666663</ele><time>2026-05-03T14:59:22.962Z</time></trkpt><trkpt lat="46.4267445" lon="12.9042383"><ele>452.33333333333337</ele><time>2026-05-03T14:59:23.961Z</time></trkpt><trkpt lat="46.4266044" lon="12.9043315"><ele>457.0</ele><time>2026-05-03T14:59:24.962Z</time></trkpt><trkpt lat="46.4264582" lon="12.9044159"><ele>449.33333333333337</ele><time>2026-05-03T14:59:25.961Z</time></trkpt><trkpt lat="46.4263098" lon="12.9044839"><ele>441.66666666666663</ele><time>2026-05-03T14:59:26.961Z</time></trkpt><trkpt lat="46.4261613" lon="12.9045438"><ele>434.0</ele><time>2026-05-03T14:59:27.962Z</time></trkpt><trkpt lat="46.4260117" lon="12.9046037"><ele>434.0</ele><time>2026-05-03T14:59:28.962Z</time></trkpt><trkpt lat="46.4258613" lon="12.904651"><ele>434.0</ele><time>2026-05-03T14:59:29.963Z</time></trkpt><trkpt lat="46.4257065" lon="12.9046715"><ele>434.0</ele><time>2026-05-03T14:59:30.962Z</time></trkpt><trkpt lat="46.4255654" lon="12.9046816"><ele>428.3333333333333</ele><time>2026-05-03T14:59:31.963Z</time></trkpt><trkpt lat="46.4254169" lon="12.9046263"><ele>422.66666666666663</ele><time>2026-05-03T14:59:32.963Z</time></trkpt><trkpt lat="46.4252682" lon="12.9046044"><ele>417.0</ele><time>2026-05-03T14:59:33.963Z</time></trkpt><trkpt lat="46.4250975" lon="12.9045744"><ele>417.0</ele><time>2026-05-03T14:59:34.961Z</time></trkpt><trkpt lat="46.424945" lon="12.9046082"><ele>417.0</ele><time>2026-05-03T14:59:35.962Z</time></trkpt><trkpt lat="46.424807" lon="12.9045999"><ele>417.0</ele><time>2026-05-03T14:59:36.962Z</time></trkpt><trkpt lat="46.4246747" lon="12.9046591"><ele>417.0</ele><time>2026-05-03T14:59:37.962Z</time></trkpt><trkpt lat="46.4245447" lon="12.9047657"><ele>421.0</ele><time>2026-05-03T14:59:38.961Z</time></trkpt><trkpt lat="46.4244013" lon="12.9048669"><ele>425.0</ele><time>2026-05-03T14:59:39.962Z</time></trkpt><trkpt lat="46.4242475" lon="12.9049905"><ele>429.0</ele><time>2026-05-03T14:59:40.961Z</time></trkpt><trkpt lat="46.4240735" lon="12.9050899"><ele>429.0</ele><time>2026-05-03T14:59:41.962Z</time></trkpt><trkpt lat="46.4239123" lon="12.9051982"><ele>429.0</ele><time>2026-05-03T14:59:42.962Z</time></trkpt><trkpt lat="46.4237274" lon="12.9052857"><ele>429.0</ele><time>2026-05-03T14:59:43.962Z</time></trkpt><trkpt lat="46.4235701" lon="12.905389"><ele>419.66666666666663</ele><time>2026-05-03T14:59:44.962Z</time></trkpt><trkpt lat="46.4234036" lon="12.9054733"><ele>410.3333333333333</ele><time>2026-05-03T14:59:45.962Z</time></trkpt><trkpt lat="46.4232549" lon="12.9056161"><ele>401.0</ele><time>2026-05-03T14:59:46.962Z</time></trkpt><trkpt lat="46.4230965" lon="12.9057065"><ele>402.66666666666663</ele><time>2026-05-03T14:59:47.961Z</time></trkpt><trkpt lat="46.4229618" lon="12.9058507"><ele>404.33333333333337</ele><time>2026-05-03T14:59:48.962Z</time></trkpt><trkpt lat="46.4228159" lon="12.9059531"><ele>406.0</ele><time>2026-05-03T14:59:49.963Z</time></trkpt><trkpt lat="46.4226735" lon="12.9060326"><ele>406.0</ele><time>2026-05-03T14:59:50.961Z</time></trkpt><trkpt lat="46.4225427" lon="12.9061168"><ele>406.0</ele><time>2026-05-03T14:59:51.962Z</time></trkpt><trkpt lat="46.4224414" lon="12.9062254"><ele>406.0</ele><time>2026-05-03T14:59:52.963Z</time></trkpt><trkpt lat="46.4223591" lon="12.9063531"><ele>406.0</ele><time>2026-05-03T14:59:53.962Z</time></trkpt><trkpt lat="46.4222909" lon="12.9065043"><ele>406.0</ele><time>2026-05-03T14:59:54.961Z</time></trkpt><trkpt lat="46.4222545" lon="12.9066893"><ele>406.0</ele><time>2026-05-03T14:59:55.962Z</time></trkpt><trkpt lat="46.4222321" lon="12.9068755"><ele>406.0</ele><time>2026-05-03T14:59:56.961Z</time></trkpt><trkpt lat="46.4222109" lon="12.9070722"><ele>406.0</ele><time>2026-05-03T14:59:57.962Z</time></trkpt><trkpt lat="46.4221881" lon="12.9072721"><ele>407.5</ele><time>2026-05-03T14:59:58.963Z</time></trkpt><trkpt lat="46.4221715" lon="12.9074717"><ele>409.0</ele><time>2026-05-03T14:59:59.961Z</time></trkpt><trkpt lat="46.4221708" lon="12.9076877"><ele>410.5</ele><time>2026-05-03T15:00:00.963Z</time></trkpt><trkpt lat="46.4221842" lon="12.9078922"><ele>412.0</ele><time>2026-05-03T15:00:01.961Z</time></trkpt><trkpt lat="46.4221914" lon="12.908103"><ele>412.0</ele><time>2026-05-03T15:00:02.962Z</time></trkpt><trkpt lat="46.4221723" lon="12.9083149"><ele>412.0</ele><time>2026-05-03T15:00:03.962Z</time></trkpt><trkpt lat="46.4221224" lon="12.9085192"><ele>412.0</ele><time>2026-05-03T15:00:04.962Z</time></trkpt><trkpt lat="46.4220387" lon="12.9087158"><ele>407.33333333333337</ele><time>2026-05-03T15:00:05.962Z</time></trkpt><trkpt lat="46.4219477" lon="12.9089"><ele>402.66666666666663</ele><time>2026-05-03T15:00:06.962Z</time></trkpt><trkpt lat="46.421857" lon="12.9090922"><ele>398.0</ele><time>2026-05-03T15:00:07.963Z</time></trkpt><trkpt lat="46.4217666" lon="12.9092824"><ele>398.0</ele><time>2026-05-03T15:00:08.961Z</time></trkpt><trkpt lat="46.4216744" lon="12.9094622"><ele>398.0</ele><time>2026-05-03T15:00:09.962Z</time></trkpt><trkpt lat="46.4215668" lon="12.9096262"><ele>398.0</ele><time>2026-05-03T15:00:10.962Z</time></trkpt><trkpt lat="46.4214472" lon="12.9097621"><ele>398.0</ele><time>2026-05-03T15:00:11.962Z</time></trkpt><trkpt lat="46.4213185" lon="12.9098864"><ele>398.0</ele><time>2026-05-03T15:00:12.962Z</time></trkpt><trkpt lat="46.4211776" lon="12.9100049"><ele>398.0</ele><time>2026-05-03T15:00:13.962Z</time></trkpt><trkpt lat="46.4210371" lon="12.9101266"><ele>394.66666666666663</ele><time>2026-05-03T15:00:14.962Z</time></trkpt><trkpt lat="46.420899" lon="12.9102498"><ele>391.33333333333337</ele><time>2026-05-03T15:00:15.961Z</time></trkpt><trkpt lat="46.4207626" lon="12.910363"><ele>388.0</ele><time>2026-05-03T15:00:16.962Z</time></trkpt><trkpt lat="46.4206299" lon="12.9104767"><ele>388.0</ele><time>2026-05-03T15:00:17.962Z</time></trkpt><trkpt lat="46.4204992" lon="12.9105864"><ele>388.0</ele><time>2026-05-03T15:00:18.961Z</time></trkpt><trkpt lat="46.4203723" lon="12.9106952"><ele>388.0</ele><time>2026-05-03T15:00:19.962Z</time></trkpt><trkpt lat="46.4202493" lon="12.9107949"><ele>388.0</ele><time>2026-05-03T15:00:20.961Z</time></trkpt><trkpt lat="46.4201313" lon="12.9108926"><ele>388.0</ele><time>2026-05-03T15:00:21.963Z</time></trkpt><trkpt lat="46.4200213" lon="12.9109863"><ele>388.0</ele><time>2026-05-03T15:00:22.961Z</time></trkpt><trkpt lat="46.4199168" lon="12.9110731"><ele>388.0</ele><time>2026-05-03T15:00:23.962Z</time></trkpt><trkpt lat="46.4198187" lon="12.9111603"><ele>388.0</ele><time>2026-05-03T15:00:24.961Z</time></trkpt><trkpt lat="46.4197268" lon="12.9112508"><ele>387.0</ele><time>2026-05-03T15:00:25.962Z</time></trkpt><trkpt lat="46.419638" lon="12.911361"><ele>386.0</ele><time>2026-05-03T15:00:26.963Z</time></trkpt><trkpt lat="46.4195515" lon="12.9114836"><ele>385.0</ele><time>2026-05-03T15:00:27.961Z</time></trkpt><trkpt lat="46.419465" lon="12.9116144"><ele>384.0</ele><time>2026-05-03T15:00:28.962Z</time></trkpt><trkpt lat="46.4193793" lon="12.9117498"><ele>383.5</ele><time>2026-05-03T15:00:29.962Z</time></trkpt><trkpt lat="46.4192931" lon="12.9118873"><ele>383.0</ele><time>2026-05-03T15:00:30.962Z</time></trkpt><trkpt lat="46.419206" lon="12.9120287"><ele>382.5</ele><time>2026-05-03T15:00:31.962Z</time></trkpt><trkpt lat="46.4191186" lon="12.9121659"><ele>382.0</ele><time>2026-05-03T15:00:32.962Z</time></trkpt><trkpt lat="46.4190343" lon="12.912299"><ele>382.0</ele><time>2026-05-03T15:00:33.962Z</time></trkpt><trkpt lat="46.4189501" lon="12.9124287"><ele>382.0</ele><time>2026-05-03T15:00:34.961Z</time></trkpt><trkpt lat="46.4188703" lon="12.9125519"><ele>382.0</ele><time>2026-05-03T15:00:35.962Z</time></trkpt><trkpt lat="46.4187906" lon="12.9126783"><ele>382.0</ele><time>2026-05-03T15:00:36.962Z</time></trkpt><trkpt lat="46.4187107" lon="12.9128055"><ele>381.0</ele><time>2026-05-03T15:00:37.963Z</time></trkpt><trkpt lat="46.4186315" lon="12.9129347"><ele>380.0</ele><time>2026-05-03T15:00:38.962Z</time></trkpt><trkpt lat="46.4185533" lon="12.9130669"><ele>379.0</ele><time>2026-05-03T15:00:39.962Z</time></trkpt><trkpt lat="46.4184769" lon="12.9132118"><ele>378.0</ele><time>2026-05-03T15:00:40.963Z</time></trkpt><trkpt lat="46.4184067" lon="12.9133723"><ele>377.75</ele><time>2026-05-03T15:00:41.962Z</time></trkpt><trkpt lat="46.4183444" lon="12.9135455"><ele>377.5</ele><time>2026-05-03T15:00:42.961Z</time></trkpt><trkpt lat="46.4182905" lon="12.9137243"><ele>377.25</ele><time>2026-05-03T15:00:43.962Z</time></trkpt><trkpt lat="46.4182476" lon="12.9139117"><ele>377.0</ele><time>2026-05-03T15:00:44.962Z</time></trkpt><trkpt lat="46.4182124" lon="12.9140982"><ele>376.5</ele><time>2026-05-03T15:00:45.962Z</time></trkpt><trkpt lat="46.4181773" lon="12.9142786"><ele>376.0</ele><time>2026-05-03T15:00:46.961Z</time></trkpt><trkpt lat="46.4181395" lon="12.9144615"><ele>375.5</ele><time>2026-05-03T15:00:47.961Z</time></trkpt><trkpt lat="46.4181019" lon="12.9146441"><ele>375.0</ele><time>2026-05-03T15:00:48.961Z</time></trkpt><trkpt lat="46.4180652" lon="12.9148275"><ele>375.0</ele><time>2026-05-03T15:00:49.961Z</time></trkpt><trkpt lat="46.4180333" lon="12.9149997"><ele>375.0</ele><time>2026-05-03T15:00:50.961Z</time></trkpt><trkpt lat="46.4180031" lon="12.9151634"><ele>375.0</ele><time>2026-05-03T15:00:51.961Z</time></trkpt><trkpt lat="46.4179709" lon="12.9153173"><ele>375.0</ele><time>2026-05-03T15:00:52.96Z</time></trkpt><trkpt lat="46.4179361" lon="12.9154696"><ele>374.75</ele><time>2026-05-03T15:00:53.961Z</time></trkpt><trkpt lat="46.417906" lon="12.9156261"><ele>374.5</ele><time>2026-05-03T15:00:54.961Z</time></trkpt><trkpt lat="46.4178728" lon="12.915789"><ele>374.25</ele><time>2026-05-03T15:00:55.961Z</time></trkpt><trkpt lat="46.4178382" lon="12.9159551"><ele>374.0</ele><time>2026-05-03T15:00:56.961Z</time></trkpt><trkpt lat="46.4178024" lon="12.9161331"><ele>373.5</ele><time>2026-05-03T15:00:57.961Z</time></trkpt><trkpt lat="46.4177703" lon="12.9163106"><ele>373.0</ele><time>2026-05-03T15:00:58.96Z</time></trkpt><trkpt lat="46.4177328" lon="12.9164823"><ele>372.5</ele><time>2026-05-03T15:00:59.961Z</time></trkpt><trkpt lat="46.4176971" lon="12.9166475"><ele>372.0</ele><time>2026-05-03T15:01:00.961Z</time></trkpt><trkpt lat="46.4176629" lon="12.9168073"><ele>372.0</ele><time>2026-05-03T15:01:01.961Z</time></trkpt><trkpt lat="46.4176299" lon="12.9169544"><ele>372.0</ele><time>2026-05-03T15:01:02.961Z</time></trkpt><trkpt lat="46.4175986" lon="12.917105"><ele>372.0</ele><time>2026-05-03T15:01:03.961Z</time></trkpt><trkpt lat="46.4175688" lon="12.9172544"><ele>372.0</ele><time>2026-05-03T15:01:04.96Z</time></trkpt><trkpt lat="46.4175329" lon="12.9174151"><ele>372.0</ele><time>2026-05-03T15:01:05.961Z</time></trkpt><trkpt lat="46.4175043" lon="12.9175846"><ele>372.0</ele><time>2026-05-03T15:01:06.961Z</time></trkpt><trkpt lat="46.4174664" lon="12.9177518"><ele>372.0</ele><time>2026-05-03T15:01:07.961Z</time></trkpt><trkpt lat="46.4174336" lon="12.9179236"><ele>372.0</ele><time>2026-05-03T15:01:08.96Z</time></trkpt><trkpt lat="46.4174001" lon="12.9180873"><ele>372.0</ele><time>2026-05-03T15:01:09.961Z</time></trkpt><trkpt lat="46.417369" lon="12.9182505"><ele>372.0</ele><time>2026-05-03T15:01:10.96Z</time></trkpt><trkpt lat="46.4173381" lon="12.9184074"><ele>372.0</ele><time>2026-05-03T15:01:11.961Z</time></trkpt><trkpt lat="46.4173092" lon="12.9185602"><ele>372.0</ele><time>2026-05-03T15:01:12.961Z</time></trkpt><trkpt lat="46.4172787" lon="12.9187069"><ele>372.0</ele><time>2026-05-03T15:01:13.962Z</time></trkpt><trkpt lat="46.417249" lon="12.9188473"><ele>372.0</ele><time>2026-05-03T15:01:14.961Z</time></trkpt><trkpt lat="46.41722" lon="12.9189826"><ele>372.0</ele><time>2026-05-03T15:01:15.961Z</time></trkpt><trkpt lat="46.4171971" lon="12.9191025"><ele>372.0</ele><time>2026-05-03T15:01:16.96Z</time></trkpt><trkpt lat="46.4171777" lon="12.9192093"><ele>372.0</ele><time>2026-05-03T15:01:17.961Z</time></trkpt><trkpt lat="46.4171591" lon="12.9193033"><ele>372.0</ele><time>2026-05-03T15:01:18.96Z</time></trkpt><trkpt lat="46.4171295" lon="12.9194525"><ele>372.0</ele><time>2026-05-03T15:01:20.962Z</time></trkpt><trkpt lat="46.4170901" lon="12.919576"><ele>372.0</ele><time>2026-05-03T15:01:22.961Z</time></trkpt><trkpt lat="46.4170331" lon="12.9196727"><ele>371.0</ele><time>2026-05-03T15:01:24.96Z</time></trkpt><trkpt lat="46.4169793" lon="12.919725"><ele>370.0</ele><time>2026-05-03T15:01:27.962Z</time></trkpt><trkpt lat="46.4169016" lon="12.9197775"><ele>369.0</ele><time>2026-05-03T15:01:29.961Z</time></trkpt><trkpt lat="46.4168477" lon="12.9199055"><ele>368.0</ele><time>2026-05-03T15:01:31.962Z</time></trkpt><trkpt lat="46.4168737" lon="12.9201157"><ele>367.0</ele><time>2026-05-03T15:01:33.961Z</time></trkpt><trkpt lat="46.4168955" lon="12.920265"><ele>366.8</ele><time>2026-05-03T15:01:34.961Z</time></trkpt><trkpt lat="46.4169" lon="12.9204201"><ele>366.6</ele><time>2026-05-03T15:01:35.961Z</time></trkpt><trkpt lat="46.4168941" lon="12.9205787"><ele>366.40000000000003</ele><time>2026-05-03T15:01:36.961Z</time></trkpt><trkpt lat="46.4168734" lon="12.9207338"><ele>366.20000000000005</ele><time>2026-05-03T15:01:37.961Z</time></trkpt><trkpt lat="46.4168467" lon="12.9208862"><ele>366.0</ele><time>2026-05-03T15:01:38.961Z</time></trkpt><trkpt lat="46.4168157" lon="12.9210318"><ele>366.0</ele><time>2026-05-03T15:01:39.96Z</time></trkpt><trkpt lat="46.4167875" lon="12.9211931"><ele>366.0</ele><time>2026-05-03T15:01:40.961Z</time></trkpt><trkpt lat="46.4167562" lon="12.9213806"><ele>366.0</ele><time>2026-05-03T15:01:41.961Z</time></trkpt><trkpt lat="46.4167223" lon="12.9215893"><ele>366.0</ele><time>2026-05-03T15:01:42.961Z</time></trkpt><trkpt lat="46.4166786" lon="12.9218117"><ele>366.0</ele><time>2026-05-03T15:01:43.961Z</time></trkpt><trkpt lat="46.4166345" lon="12.9220298"><ele>366.0</ele><time>2026-05-03T15:01:44.961Z</time></trkpt><trkpt lat="46.4165862" lon="12.9222349"><ele>366.0</ele><time>2026-05-03T15:01:45.96Z</time></trkpt><trkpt lat="46.4165386" lon="12.9224256"><ele>366.0</ele><time>2026-05-03T15:01:46.961Z</time></trkpt><trkpt lat="46.4165038" lon="12.9225874"><ele>366.1666666666667</ele><time>2026-05-03T15:01:47.961Z</time></trkpt><trkpt lat="46.4164721" lon="12.9227206"><ele>366.3333333333333</ele><time>2026-05-03T15:01:48.961Z</time></trkpt><trkpt lat="46.4164479" lon="12.9228396"><ele>366.5</ele><time>2026-05-03T15:01:49.961Z</time></trkpt><trkpt lat="46.416425" lon="12.9229492"><ele>366.66666666666663</ele><time>2026-05-03T15:01:50.96Z</time></trkpt><trkpt lat="46.4164014" lon="12.9230641"><ele>366.8333333333333</ele><time>2026-05-03T15:01:51.961Z</time></trkpt><trkpt lat="46.4163803" lon="12.9231809"><ele>367.0</ele><time>2026-05-03T15:01:52.962Z</time></trkpt><trkpt lat="46.4163577" lon="12.9232909"><ele>367.2857142857143</ele><time>2026-05-03T15:01:53.96Z</time></trkpt><trkpt lat="46.4163363" lon="12.9233975"><ele>367.5714285714286</ele><time>2026-05-03T15:01:54.962Z</time></trkpt><trkpt lat="46.4163196" lon="12.9234945"><ele>367.8571428571429</ele><time>2026-05-03T15:01:55.961Z</time></trkpt><trkpt lat="46.4162987" lon="12.9235869"><ele>368.1428571428571</ele><time>2026-05-03T15:01:56.961Z</time></trkpt><trkpt lat="46.416275" lon="12.9236773"><ele>368.42857142857144</ele><time>2026-05-03T15:01:57.961Z</time></trkpt><trkpt lat="46.4162446" lon="12.9237771"><ele>368.7142857142857</ele><time>2026-05-03T15:01:58.961Z</time></trkpt><trkpt lat="46.4162079" lon="12.9238786"><ele>369.0</ele><time>2026-05-03T15:01:59.961Z</time></trkpt><trkpt lat="46.4161744" lon="12.9239806"><ele>368.1666666666667</ele><time>2026-05-03T15:02:00.96Z</time></trkpt><trkpt lat="46.4161372" lon="12.9240806"><ele>367.3333333333333</ele><time>2026-05-03T15:02:01.96Z</time></trkpt><trkpt lat="46.4161008" lon="12.9241712"><ele>366.5</ele><time>2026-05-03T15:02:02.961Z</time></trkpt><trkpt lat="46.4160677" lon="12.9242554"><ele>365.66666666666663</ele><time>2026-05-03T15:02:03.96Z</time></trkpt><trkpt lat="46.4160304" lon="12.9243303"><ele>364.8333333333333</ele><time>2026-05-03T15:02:04.961Z</time></trkpt><trkpt lat="46.4159241" lon="12.9243477"><ele>364.0</ele><time>2026-05-03T15:02:06.96Z</time></trkpt><trkpt lat="46.4158014" lon="12.9242697"><ele>364.0</ele><time>2026-05-03T15:02:08.961Z</time></trkpt><trkpt lat="46.4157356" lon="12.9242299"><ele>364.0</ele><time>2026-05-03T15:02:09.961Z</time></trkpt><trkpt lat="46.4156772" lon="12.9241933"><ele>364.0</ele><time>2026-05-03T15:02:10.961Z</time></trkpt><trkpt lat="46.4155666" lon="12.9241155"><ele>364.0</ele><time>2026-05-03T15:02:12.961Z</time></trkpt><trkpt lat="46.4154741" lon="12.9240309"><ele>364.0</ele><time>2026-05-03T15:02:14.961Z</time></trkpt><trkpt lat="46.4154223" lon="12.9239474"><ele>364.0</ele><time>2026-05-03T15:02:32.96Z</time></trkpt><trkpt lat="46.4153976" lon="12.9238547"><ele>363.0</ele><time>2026-05-03T15:02:36.961Z</time></trkpt><trkpt lat="46.4153531" lon="12.9239214"><ele>363.0</ele><time>2026-05-03T15:03:26.961Z</time></trkpt></trkseg></trk></gpx>